<?xml version="1.0" encoding="utf-8" standalone="yes"?>
<gpx version="1.1" creator="Locus Map, Android"
 xmlns="http://www.topografix.com/GPX/1/1"
 xmlns:xsi="http://www.w3.org/2001/XMLSchema-instance"
 xsi:schemaLocation="http://www.topografix.com/GPX/1/1 http://www.topografix.com/GPX/1/1/gpx.xsd"
 xmlns:gpxx="http://www.garmin.com/xmlschemas/GpxExtensions/v3"
 xmlns:gpxtrkx="http://www.garmin.com/xmlschemas/TrackStatsExtension/v1"
 xmlns:gpxtpx="http://www.garmin.com/xmlschemas/TrackPointExtension/v2"
 xmlns:locus="http://www.locusmap.eu">
	<metadata>
		<desc>File with points/tracks from Locus Map Classic/3.70.15</desc>
		<time>2025-01-20T15:48:59.231Z</time>
	</metadata>
<trk>
<name>Rifugio Volano - Rifugio Colombé</name>
	<extensions>
		<line xmlns="http://www.topografix.com/GPX/gpx_style/0/2">
			<color>0000FF</color>
			<opacity>0.59</opacity>
			<width>6.0</width>
			<extensions>
				<locus:lsColorBase>#960000FF</locus:lsColorBase>
				<locus:lsWidth>6.0</locus:lsWidth>
				<locus:lsUnits>PIXELS</locus:lsUnits>
			</extensions>
		</line>
		<locus:activity>hiking</locus:activity>
	</extensions>
<trkseg>
<trkpt lat="46.0264460" lon="10.3616330">
	<ele>773.40</ele>
	<time>2024-07-24T05:54:48.000Z</time>
</trkpt>
<trkpt lat="46.0264460" lon="10.3616330">
	<ele>773.40</ele>
	<time>2024-07-24T05:54:49.000Z</time>
</trkpt>
<trkpt lat="46.0264460" lon="10.3616330">
	<ele>773.40</ele>
	<time>2024-07-24T05:54:50.000Z</time>
</trkpt>
<trkpt lat="46.0264460" lon="10.3616330">
	<ele>773.40</ele>
	<time>2024-07-24T05:54:51.000Z</time>
</trkpt>
<trkpt lat="46.0264460" lon="10.3616330">
	<ele>773.40</ele>
	<time>2024-07-24T05:54:52.000Z</time>
</trkpt>
<trkpt lat="46.0264460" lon="10.3616330">
	<ele>773.40</ele>
	<time>2024-07-24T05:54:53.000Z</time>
</trkpt>
<trkpt lat="46.0264530" lon="10.3616370">
	<ele>773.40</ele>
	<time>2024-07-24T05:54:54.000Z</time>
</trkpt>
<trkpt lat="46.0264690" lon="10.3616510">
	<ele>773.40</ele>
	<time>2024-07-24T05:54:55.000Z</time>
</trkpt>
<trkpt lat="46.0264870" lon="10.3616650">
	<ele>773.40</ele>
	<time>2024-07-24T05:54:56.000Z</time>
</trkpt>
<trkpt lat="46.0265060" lon="10.3616840">
	<ele>773.40</ele>
	<time>2024-07-24T05:54:57.000Z</time>
</trkpt>
<trkpt lat="46.0265230" lon="10.3616940">
	<ele>773.40</ele>
	<time>2024-07-24T05:54:58.000Z</time>
</trkpt>
<trkpt lat="46.0265400" lon="10.3617000">
	<ele>773.40</ele>
	<time>2024-07-24T05:54:59.000Z</time>
</trkpt>
<trkpt lat="46.0265580" lon="10.3617050">
	<ele>773.40</ele>
	<time>2024-07-24T05:55:00.000Z</time>
</trkpt>
<trkpt lat="46.0265790" lon="10.3617140">
	<ele>773.40</ele>
	<time>2024-07-24T05:55:01.000Z</time>
</trkpt>
<trkpt lat="46.0266010" lon="10.3617240">
	<ele>773.40</ele>
	<time>2024-07-24T05:55:02.000Z</time>
</trkpt>
<trkpt lat="46.0266220" lon="10.3617320">
	<ele>773.40</ele>
	<time>2024-07-24T05:55:03.000Z</time>
</trkpt>
<trkpt lat="46.0266350" lon="10.3617300">
	<ele>773.40</ele>
	<time>2024-07-24T05:55:04.000Z</time>
</trkpt>
<trkpt lat="46.0266480" lon="10.3617260">
	<ele>773.00</ele>
	<time>2024-07-24T05:55:05.000Z</time>
</trkpt>
<trkpt lat="46.0266620" lon="10.3617270">
	<ele>772.80</ele>
	<time>2024-07-24T05:55:06.000Z</time>
</trkpt>
<trkpt lat="46.0266750" lon="10.3617310">
	<ele>772.80</ele>
	<time>2024-07-24T05:55:07.000Z</time>
</trkpt>
<trkpt lat="46.0266810" lon="10.3617330">
	<ele>772.60</ele>
	<time>2024-07-24T05:55:08.000Z</time>
</trkpt>
<trkpt lat="46.0266810" lon="10.3617300">
	<ele>772.60</ele>
	<time>2024-07-24T05:55:09.000Z</time>
</trkpt>
<trkpt lat="46.0266820" lon="10.3617290">
	<ele>772.80</ele>
	<time>2024-07-24T05:55:10.000Z</time>
</trkpt>
<trkpt lat="46.0266830" lon="10.3617280">
	<ele>773.00</ele>
	<time>2024-07-24T05:55:11.000Z</time>
</trkpt>
<trkpt lat="46.0266850" lon="10.3617280">
	<ele>773.00</ele>
	<time>2024-07-24T05:55:12.000Z</time>
</trkpt>
<trkpt lat="46.0266840" lon="10.3617300">
	<ele>773.20</ele>
	<time>2024-07-24T05:55:13.000Z</time>
</trkpt>
<trkpt lat="46.0266870" lon="10.3617390">
	<ele>773.20</ele>
	<time>2024-07-24T05:55:14.000Z</time>
</trkpt>
<trkpt lat="46.0266910" lon="10.3617550">
	<ele>773.00</ele>
	<time>2024-07-24T05:55:15.000Z</time>
</trkpt>
<trkpt lat="46.0266920" lon="10.3617720">
	<ele>773.00</ele>
	<time>2024-07-24T05:55:16.000Z</time>
</trkpt>
<trkpt lat="46.0266940" lon="10.3617900">
	<ele>773.00</ele>
	<time>2024-07-24T05:55:17.000Z</time>
</trkpt>
<trkpt lat="46.0266930" lon="10.3618040">
	<ele>773.00</ele>
	<time>2024-07-24T05:55:18.000Z</time>
</trkpt>
<trkpt lat="46.0266930" lon="10.3618170">
	<ele>773.00</ele>
	<time>2024-07-24T05:55:19.000Z</time>
</trkpt>
<trkpt lat="46.0266910" lon="10.3618280">
	<ele>773.20</ele>
	<time>2024-07-24T05:55:20.000Z</time>
</trkpt>
<trkpt lat="46.0266920" lon="10.3618360">
	<ele>773.20</ele>
	<time>2024-07-24T05:55:21.000Z</time>
</trkpt>
<trkpt lat="46.0266900" lon="10.3618410">
	<ele>773.20</ele>
	<time>2024-07-24T05:55:22.000Z</time>
</trkpt>
<trkpt lat="46.0266880" lon="10.3618440">
	<ele>773.20</ele>
	<time>2024-07-24T05:55:23.000Z</time>
</trkpt>
<trkpt lat="46.0266880" lon="10.3618480">
	<ele>773.20</ele>
	<time>2024-07-24T05:55:24.000Z</time>
</trkpt>
<trkpt lat="46.0266880" lon="10.3618560">
	<ele>773.20</ele>
	<time>2024-07-24T05:55:25.000Z</time>
</trkpt>
<trkpt lat="46.0266900" lon="10.3618650">
	<ele>773.20</ele>
	<time>2024-07-24T05:55:26.000Z</time>
</trkpt>
<trkpt lat="46.0266930" lon="10.3618720">
	<ele>773.20</ele>
	<time>2024-07-24T05:55:27.000Z</time>
</trkpt>
<trkpt lat="46.0266970" lon="10.3618790">
	<ele>773.20</ele>
	<time>2024-07-24T05:55:28.000Z</time>
</trkpt>
<trkpt lat="46.0267000" lon="10.3618900">
	<ele>773.20</ele>
	<time>2024-07-24T05:55:29.000Z</time>
</trkpt>
<trkpt lat="46.0267050" lon="10.3619040">
	<ele>773.20</ele>
	<time>2024-07-24T05:55:30.000Z</time>
</trkpt>
<trkpt lat="46.0267130" lon="10.3619200">
	<ele>773.20</ele>
	<time>2024-07-24T05:55:31.000Z</time>
</trkpt>
<trkpt lat="46.0267230" lon="10.3619350">
	<ele>773.40</ele>
	<time>2024-07-24T05:55:32.000Z</time>
</trkpt>
<trkpt lat="46.0267250" lon="10.3619470">
	<ele>773.60</ele>
	<time>2024-07-24T05:55:33.000Z</time>
</trkpt>
<trkpt lat="46.0267250" lon="10.3619580">
	<ele>773.80</ele>
	<time>2024-07-24T05:55:34.000Z</time>
</trkpt>
<trkpt lat="46.0267270" lon="10.3619730">
	<ele>774.00</ele>
	<time>2024-07-24T05:55:35.000Z</time>
</trkpt>
<trkpt lat="46.0267280" lon="10.3619870">
	<ele>774.20</ele>
	<time>2024-07-24T05:55:36.000Z</time>
</trkpt>
<trkpt lat="46.0267360" lon="10.3620050">
	<ele>774.20</ele>
	<time>2024-07-24T05:55:37.000Z</time>
</trkpt>
<trkpt lat="46.0267430" lon="10.3620230">
	<ele>774.20</ele>
	<time>2024-07-24T05:55:38.000Z</time>
</trkpt>
<trkpt lat="46.0267480" lon="10.3620410">
	<ele>774.20</ele>
	<time>2024-07-24T05:55:39.000Z</time>
</trkpt>
<trkpt lat="46.0267490" lon="10.3620580">
	<ele>774.20</ele>
	<time>2024-07-24T05:55:40.000Z</time>
</trkpt>
<trkpt lat="46.0267530" lon="10.3620740">
	<ele>774.20</ele>
	<time>2024-07-24T05:55:41.000Z</time>
</trkpt>
<trkpt lat="46.0267570" lon="10.3620920">
	<ele>774.20</ele>
	<time>2024-07-24T05:55:42.000Z</time>
</trkpt>
<trkpt lat="46.0267600" lon="10.3621100">
	<ele>774.20</ele>
	<time>2024-07-24T05:55:43.000Z</time>
</trkpt>
<trkpt lat="46.0267650" lon="10.3621280">
	<ele>774.20</ele>
	<time>2024-07-24T05:55:44.000Z</time>
</trkpt>
<trkpt lat="46.0267710" lon="10.3621530">
	<ele>774.20</ele>
	<time>2024-07-24T05:55:45.000Z</time>
</trkpt>
<trkpt lat="46.0267740" lon="10.3621730">
	<ele>774.20</ele>
	<time>2024-07-24T05:55:46.000Z</time>
</trkpt>
<trkpt lat="46.0267780" lon="10.3621840">
	<ele>774.40</ele>
	<time>2024-07-24T05:55:47.000Z</time>
</trkpt>
<trkpt lat="46.0267850" lon="10.3622020">
	<ele>774.40</ele>
	<time>2024-07-24T05:55:48.000Z</time>
</trkpt>
<trkpt lat="46.0267900" lon="10.3622250">
	<ele>774.60</ele>
	<time>2024-07-24T05:55:49.000Z</time>
</trkpt>
<trkpt lat="46.0267960" lon="10.3622400">
	<ele>774.80</ele>
	<time>2024-07-24T05:55:50.000Z</time>
</trkpt>
<trkpt lat="46.0268000" lon="10.3622530">
	<ele>774.80</ele>
	<time>2024-07-24T05:55:51.000Z</time>
</trkpt>
<trkpt lat="46.0267990" lon="10.3622660">
	<ele>775.00</ele>
	<time>2024-07-24T05:55:52.000Z</time>
</trkpt>
<trkpt lat="46.0268030" lon="10.3622810">
	<ele>775.20</ele>
	<time>2024-07-24T05:55:53.000Z</time>
</trkpt>
<trkpt lat="46.0268030" lon="10.3622940">
	<ele>775.40</ele>
	<time>2024-07-24T05:55:54.000Z</time>
</trkpt>
<trkpt lat="46.0268010" lon="10.3623070">
	<ele>775.40</ele>
	<time>2024-07-24T05:55:55.000Z</time>
</trkpt>
<trkpt lat="46.0268000" lon="10.3623200">
	<ele>775.60</ele>
	<time>2024-07-24T05:55:56.000Z</time>
</trkpt>
<trkpt lat="46.0267980" lon="10.3623350">
	<ele>775.60</ele>
	<time>2024-07-24T05:55:57.000Z</time>
</trkpt>
<trkpt lat="46.0267940" lon="10.3623480">
	<ele>775.80</ele>
	<time>2024-07-24T05:55:58.000Z</time>
</trkpt>
<trkpt lat="46.0267890" lon="10.3623590">
	<ele>776.00</ele>
	<time>2024-07-24T05:55:59.000Z</time>
</trkpt>
<trkpt lat="46.0267830" lon="10.3623670">
	<ele>776.20</ele>
	<time>2024-07-24T05:56:00.000Z</time>
</trkpt>
<trkpt lat="46.0267850" lon="10.3623760">
	<ele>776.20</ele>
	<time>2024-07-24T05:56:01.000Z</time>
</trkpt>
<trkpt lat="46.0267850" lon="10.3623820">
	<ele>776.40</ele>
	<time>2024-07-24T05:56:02.000Z</time>
</trkpt>
<trkpt lat="46.0267810" lon="10.3623930">
	<ele>776.60</ele>
	<time>2024-07-24T05:56:03.000Z</time>
</trkpt>
<trkpt lat="46.0267760" lon="10.3624090">
	<ele>776.80</ele>
	<time>2024-07-24T05:56:04.000Z</time>
</trkpt>
<trkpt lat="46.0267690" lon="10.3624200">
	<ele>777.00</ele>
	<time>2024-07-24T05:56:05.000Z</time>
</trkpt>
<trkpt lat="46.0267670" lon="10.3624260">
	<ele>777.00</ele>
	<time>2024-07-24T05:56:06.000Z</time>
</trkpt>
<trkpt lat="46.0267630" lon="10.3624330">
	<ele>777.20</ele>
	<time>2024-07-24T05:56:07.000Z</time>
</trkpt>
<trkpt lat="46.0267590" lon="10.3624440">
	<ele>777.40</ele>
	<time>2024-07-24T05:56:08.000Z</time>
</trkpt>
<trkpt lat="46.0267540" lon="10.3624550">
	<ele>777.40</ele>
	<time>2024-07-24T05:56:09.000Z</time>
</trkpt>
<trkpt lat="46.0267480" lon="10.3624660">
	<ele>777.60</ele>
	<time>2024-07-24T05:56:10.000Z</time>
</trkpt>
<trkpt lat="46.0267380" lon="10.3624780">
	<ele>777.80</ele>
	<time>2024-07-24T05:56:11.000Z</time>
</trkpt>
<trkpt lat="46.0267300" lon="10.3624880">
	<ele>777.80</ele>
	<time>2024-07-24T05:56:12.000Z</time>
</trkpt>
<trkpt lat="46.0267220" lon="10.3624940">
	<ele>778.00</ele>
	<time>2024-07-24T05:56:13.000Z</time>
</trkpt>
<trkpt lat="46.0267150" lon="10.3624990">
	<ele>778.20</ele>
	<time>2024-07-24T05:56:14.000Z</time>
</trkpt>
<trkpt lat="46.0267110" lon="10.3625030">
	<ele>778.40</ele>
	<time>2024-07-24T05:56:15.000Z</time>
</trkpt>
<trkpt lat="46.0267080" lon="10.3625080">
	<ele>778.40</ele>
	<time>2024-07-24T05:56:16.000Z</time>
</trkpt>
<trkpt lat="46.0267100" lon="10.3625160">
	<ele>778.40</ele>
	<time>2024-07-24T05:56:17.000Z</time>
</trkpt>
<trkpt lat="46.0267060" lon="10.3625090">
	<ele>778.40</ele>
	<time>2024-07-24T05:56:18.000Z</time>
</trkpt>
<trkpt lat="46.0267000" lon="10.3625040">
	<ele>778.40</ele>
	<time>2024-07-24T05:56:19.000Z</time>
</trkpt>
<trkpt lat="46.0266920" lon="10.3625020">
	<ele>778.60</ele>
	<time>2024-07-24T05:56:20.000Z</time>
</trkpt>
<trkpt lat="46.0266860" lon="10.3625090">
	<ele>778.60</ele>
	<time>2024-07-24T05:56:21.000Z</time>
</trkpt>
<trkpt lat="46.0266830" lon="10.3625230">
	<ele>778.60</ele>
	<time>2024-07-24T05:56:22.000Z</time>
</trkpt>
<trkpt lat="46.0266750" lon="10.3625340">
	<ele>778.80</ele>
	<time>2024-07-24T05:56:23.000Z</time>
</trkpt>
<trkpt lat="46.0266690" lon="10.3625440">
	<ele>778.80</ele>
	<time>2024-07-24T05:56:24.000Z</time>
</trkpt>
<trkpt lat="46.0266620" lon="10.3625520">
	<ele>779.00</ele>
	<time>2024-07-24T05:56:25.000Z</time>
</trkpt>
<trkpt lat="46.0266550" lon="10.3625540">
	<ele>779.20</ele>
	<time>2024-07-24T05:56:26.000Z</time>
</trkpt>
<trkpt lat="46.0266470" lon="10.3625610">
	<ele>779.40</ele>
	<time>2024-07-24T05:56:27.000Z</time>
</trkpt>
<trkpt lat="46.0266330" lon="10.3625610">
	<ele>779.40</ele>
	<time>2024-07-24T05:56:28.000Z</time>
</trkpt>
<trkpt lat="46.0266290" lon="10.3625670">
	<ele>779.40</ele>
	<time>2024-07-24T05:56:29.000Z</time>
</trkpt>
<trkpt lat="46.0266280" lon="10.3625710">
	<ele>779.60</ele>
	<time>2024-07-24T05:56:30.000Z</time>
</trkpt>
<trkpt lat="46.0266290" lon="10.3625770">
	<ele>779.80</ele>
	<time>2024-07-24T05:56:31.000Z</time>
</trkpt>
<trkpt lat="46.0266330" lon="10.3625870">
	<ele>780.00</ele>
	<time>2024-07-24T05:56:32.000Z</time>
</trkpt>
<trkpt lat="46.0266370" lon="10.3626050">
	<ele>780.00</ele>
	<time>2024-07-24T05:56:33.000Z</time>
</trkpt>
<trkpt lat="46.0266360" lon="10.3626140">
	<ele>780.00</ele>
	<time>2024-07-24T05:56:34.000Z</time>
</trkpt>
<trkpt lat="46.0266290" lon="10.3626170">
	<ele>780.00</ele>
	<time>2024-07-24T05:56:35.000Z</time>
</trkpt>
<trkpt lat="46.0266200" lon="10.3626220">
	<ele>780.00</ele>
	<time>2024-07-24T05:56:36.000Z</time>
</trkpt>
<trkpt lat="46.0266070" lon="10.3626290">
	<ele>780.00</ele>
	<time>2024-07-24T05:56:37.000Z</time>
</trkpt>
<trkpt lat="46.0265990" lon="10.3626370">
	<ele>780.20</ele>
	<time>2024-07-24T05:56:38.000Z</time>
</trkpt>
<trkpt lat="46.0266020" lon="10.3626610">
	<ele>780.20</ele>
	<time>2024-07-24T05:56:39.000Z</time>
</trkpt>
<trkpt lat="46.0265980" lon="10.3626760">
	<ele>780.40</ele>
	<time>2024-07-24T05:56:40.000Z</time>
</trkpt>
<trkpt lat="46.0265950" lon="10.3626900">
	<ele>780.40</ele>
	<time>2024-07-24T05:56:41.000Z</time>
</trkpt>
<trkpt lat="46.0265930" lon="10.3627040">
	<ele>780.60</ele>
	<time>2024-07-24T05:56:42.000Z</time>
</trkpt>
<trkpt lat="46.0266020" lon="10.3627390">
	<ele>780.60</ele>
	<time>2024-07-24T05:56:43.000Z</time>
</trkpt>
<trkpt lat="46.0266080" lon="10.3627650">
	<ele>780.60</ele>
	<time>2024-07-24T05:56:44.000Z</time>
</trkpt>
<trkpt lat="46.0266090" lon="10.3627880">
	<ele>780.80</ele>
	<time>2024-07-24T05:56:45.000Z</time>
</trkpt>
<trkpt lat="46.0266020" lon="10.3627970">
	<ele>780.80</ele>
	<time>2024-07-24T05:56:46.000Z</time>
</trkpt>
<trkpt lat="46.0266010" lon="10.3628090">
	<ele>781.00</ele>
	<time>2024-07-24T05:56:47.000Z</time>
</trkpt>
<trkpt lat="46.0266000" lon="10.3628270">
	<ele>781.20</ele>
	<time>2024-07-24T05:56:48.000Z</time>
</trkpt>
<trkpt lat="46.0265960" lon="10.3628330">
	<ele>781.20</ele>
	<time>2024-07-24T05:56:49.000Z</time>
</trkpt>
<trkpt lat="46.0265860" lon="10.3628270">
	<ele>781.40</ele>
	<time>2024-07-24T05:56:50.000Z</time>
</trkpt>
<trkpt lat="46.0265750" lon="10.3628240">
	<ele>781.60</ele>
	<time>2024-07-24T05:56:51.000Z</time>
</trkpt>
<trkpt lat="46.0265630" lon="10.3628180">
	<ele>781.80</ele>
	<time>2024-07-24T05:56:52.000Z</time>
</trkpt>
<trkpt lat="46.0265560" lon="10.3628080">
	<ele>782.00</ele>
	<time>2024-07-24T05:56:53.000Z</time>
</trkpt>
<trkpt lat="46.0265460" lon="10.3628000">
	<ele>782.20</ele>
	<time>2024-07-24T05:56:54.000Z</time>
</trkpt>
<trkpt lat="46.0265380" lon="10.3627920">
	<ele>782.60</ele>
	<time>2024-07-24T05:56:55.000Z</time>
</trkpt>
<trkpt lat="46.0265250" lon="10.3627850">
	<ele>782.80</ele>
	<time>2024-07-24T05:56:56.000Z</time>
</trkpt>
<trkpt lat="46.0265180" lon="10.3627900">
	<ele>783.00</ele>
	<time>2024-07-24T05:56:57.000Z</time>
</trkpt>
<trkpt lat="46.0265090" lon="10.3627860">
	<ele>783.20</ele>
	<time>2024-07-24T05:56:58.000Z</time>
</trkpt>
<trkpt lat="46.0265020" lon="10.3627840">
	<ele>783.60</ele>
	<time>2024-07-24T05:56:59.000Z</time>
</trkpt>
<trkpt lat="46.0264960" lon="10.3627840">
	<ele>783.80</ele>
	<time>2024-07-24T05:57:00.000Z</time>
</trkpt>
<trkpt lat="46.0264880" lon="10.3627830">
	<ele>784.00</ele>
	<time>2024-07-24T05:57:01.000Z</time>
</trkpt>
<trkpt lat="46.0264810" lon="10.3627830">
	<ele>784.00</ele>
	<time>2024-07-24T05:57:02.000Z</time>
</trkpt>
<trkpt lat="46.0264750" lon="10.3627850">
	<ele>784.40</ele>
	<time>2024-07-24T05:57:03.000Z</time>
</trkpt>
<trkpt lat="46.0264660" lon="10.3627880">
	<ele>784.40</ele>
	<time>2024-07-24T05:57:04.000Z</time>
</trkpt>
<trkpt lat="46.0264580" lon="10.3627850">
	<ele>784.60</ele>
	<time>2024-07-24T05:57:05.000Z</time>
</trkpt>
<trkpt lat="46.0264520" lon="10.3627810">
	<ele>784.80</ele>
	<time>2024-07-24T05:57:06.000Z</time>
</trkpt>
<trkpt lat="46.0264450" lon="10.3627740">
	<ele>784.80</ele>
	<time>2024-07-24T05:57:07.000Z</time>
</trkpt>
<trkpt lat="46.0264370" lon="10.3627630">
	<ele>785.00</ele>
	<time>2024-07-24T05:57:08.000Z</time>
</trkpt>
<trkpt lat="46.0264330" lon="10.3627620">
	<ele>785.00</ele>
	<time>2024-07-24T05:57:09.000Z</time>
</trkpt>
<trkpt lat="46.0264320" lon="10.3627730">
	<ele>785.00</ele>
	<time>2024-07-24T05:57:10.000Z</time>
</trkpt>
<trkpt lat="46.0264370" lon="10.3627920">
	<ele>784.60</ele>
	<time>2024-07-24T05:57:11.000Z</time>
</trkpt>
<trkpt lat="46.0264460" lon="10.3628060">
	<ele>784.60</ele>
	<time>2024-07-24T05:57:12.000Z</time>
</trkpt>
<trkpt lat="46.0264490" lon="10.3628150">
	<ele>784.60</ele>
	<time>2024-07-24T05:57:13.000Z</time>
</trkpt>
<trkpt lat="46.0264470" lon="10.3628170">
	<ele>784.60</ele>
	<time>2024-07-24T05:57:14.000Z</time>
</trkpt>
<trkpt lat="46.0264420" lon="10.3628210">
	<ele>784.40</ele>
	<time>2024-07-24T05:57:15.000Z</time>
</trkpt>
<trkpt lat="46.0264400" lon="10.3628260">
	<ele>784.40</ele>
	<time>2024-07-24T05:57:16.000Z</time>
</trkpt>
<trkpt lat="46.0264380" lon="10.3628310">
	<ele>784.40</ele>
	<time>2024-07-24T05:57:17.000Z</time>
</trkpt>
<trkpt lat="46.0264340" lon="10.3628350">
	<ele>784.60</ele>
	<time>2024-07-24T05:57:18.000Z</time>
</trkpt>
<trkpt lat="46.0264310" lon="10.3628370">
	<ele>784.60</ele>
	<time>2024-07-24T05:57:19.000Z</time>
</trkpt>
<trkpt lat="46.0264320" lon="10.3628440">
	<ele>784.80</ele>
	<time>2024-07-24T05:57:20.000Z</time>
</trkpt>
<trkpt lat="46.0264340" lon="10.3628510">
	<ele>785.00</ele>
	<time>2024-07-24T05:57:21.000Z</time>
</trkpt>
<trkpt lat="46.0264360" lon="10.3628590">
	<ele>785.40</ele>
	<time>2024-07-24T05:57:22.000Z</time>
</trkpt>
<trkpt lat="46.0264400" lon="10.3628670">
	<ele>785.60</ele>
	<time>2024-07-24T05:57:23.000Z</time>
</trkpt>
<trkpt lat="46.0264470" lon="10.3628810">
	<ele>785.80</ele>
	<time>2024-07-24T05:57:24.000Z</time>
</trkpt>
<trkpt lat="46.0264490" lon="10.3628910">
	<ele>786.00</ele>
	<time>2024-07-24T05:57:25.000Z</time>
</trkpt>
<trkpt lat="46.0264430" lon="10.3628960">
	<ele>786.20</ele>
	<time>2024-07-24T05:57:26.000Z</time>
</trkpt>
<trkpt lat="46.0264370" lon="10.3629010">
	<ele>786.40</ele>
	<time>2024-07-24T05:57:27.000Z</time>
</trkpt>
<trkpt lat="46.0264300" lon="10.3629070">
	<ele>786.40</ele>
	<time>2024-07-24T05:57:28.000Z</time>
</trkpt>
<trkpt lat="46.0264170" lon="10.3629030">
	<ele>786.80</ele>
	<time>2024-07-24T05:57:29.000Z</time>
</trkpt>
<trkpt lat="46.0264030" lon="10.3628940">
	<ele>787.00</ele>
	<time>2024-07-24T05:57:30.000Z</time>
</trkpt>
<trkpt lat="46.0263920" lon="10.3628920">
	<ele>787.20</ele>
	<time>2024-07-24T05:57:31.000Z</time>
</trkpt>
<trkpt lat="46.0263900" lon="10.3628910">
	<ele>787.40</ele>
	<time>2024-07-24T05:57:32.000Z</time>
</trkpt>
<trkpt lat="46.0263850" lon="10.3628890">
	<ele>787.60</ele>
	<time>2024-07-24T05:57:33.000Z</time>
</trkpt>
<trkpt lat="46.0263780" lon="10.3628810">
	<ele>787.80</ele>
	<time>2024-07-24T05:57:34.000Z</time>
</trkpt>
<trkpt lat="46.0263740" lon="10.3628780">
	<ele>787.80</ele>
	<time>2024-07-24T05:57:35.000Z</time>
</trkpt>
<trkpt lat="46.0263720" lon="10.3628790">
	<ele>788.00</ele>
	<time>2024-07-24T05:57:36.000Z</time>
</trkpt>
<trkpt lat="46.0263680" lon="10.3628830">
	<ele>788.20</ele>
	<time>2024-07-24T05:57:37.000Z</time>
</trkpt>
<trkpt lat="46.0263670" lon="10.3628880">
	<ele>788.40</ele>
	<time>2024-07-24T05:57:38.000Z</time>
</trkpt>
<trkpt lat="46.0263640" lon="10.3628940">
	<ele>788.60</ele>
	<time>2024-07-24T05:57:39.000Z</time>
</trkpt>
<trkpt lat="46.0263560" lon="10.3628950">
	<ele>788.80</ele>
	<time>2024-07-24T05:57:40.000Z</time>
</trkpt>
<trkpt lat="46.0263440" lon="10.3628930">
	<ele>789.00</ele>
	<time>2024-07-24T05:57:41.000Z</time>
</trkpt>
<trkpt lat="46.0263340" lon="10.3628900">
	<ele>789.40</ele>
	<time>2024-07-24T05:57:42.000Z</time>
</trkpt>
<trkpt lat="46.0263370" lon="10.3629060">
	<ele>789.60</ele>
	<time>2024-07-24T05:57:43.000Z</time>
</trkpt>
<trkpt lat="46.0263460" lon="10.3629260">
	<ele>789.60</ele>
	<time>2024-07-24T05:57:44.000Z</time>
</trkpt>
<trkpt lat="46.0263490" lon="10.3629420">
	<ele>789.80</ele>
	<time>2024-07-24T05:57:45.000Z</time>
</trkpt>
<trkpt lat="46.0263460" lon="10.3629510">
	<ele>789.80</ele>
	<time>2024-07-24T05:57:46.000Z</time>
</trkpt>
<trkpt lat="46.0263440" lon="10.3629550">
	<ele>790.00</ele>
	<time>2024-07-24T05:57:47.000Z</time>
</trkpt>
<trkpt lat="46.0263400" lon="10.3629610">
	<ele>790.20</ele>
	<time>2024-07-24T05:57:48.000Z</time>
</trkpt>
<trkpt lat="46.0263390" lon="10.3629700">
	<ele>790.40</ele>
	<time>2024-07-24T05:57:49.000Z</time>
</trkpt>
<trkpt lat="46.0263430" lon="10.3629800">
	<ele>790.60</ele>
	<time>2024-07-24T05:57:50.000Z</time>
</trkpt>
<trkpt lat="46.0263430" lon="10.3629850">
	<ele>790.80</ele>
	<time>2024-07-24T05:57:51.000Z</time>
</trkpt>
<trkpt lat="46.0263370" lon="10.3629850">
	<ele>790.80</ele>
	<time>2024-07-24T05:57:52.000Z</time>
</trkpt>
<trkpt lat="46.0263320" lon="10.3629910">
	<ele>791.00</ele>
	<time>2024-07-24T05:57:53.000Z</time>
</trkpt>
<trkpt lat="46.0263250" lon="10.3629960">
	<ele>791.20</ele>
	<time>2024-07-24T05:57:54.000Z</time>
</trkpt>
<trkpt lat="46.0263120" lon="10.3629980">
	<ele>791.40</ele>
	<time>2024-07-24T05:57:55.000Z</time>
</trkpt>
<trkpt lat="46.0263070" lon="10.3630100">
	<ele>791.60</ele>
	<time>2024-07-24T05:57:56.000Z</time>
</trkpt>
<trkpt lat="46.0263030" lon="10.3630240">
	<ele>791.80</ele>
	<time>2024-07-24T05:57:57.000Z</time>
</trkpt>
<trkpt lat="46.0262980" lon="10.3630350">
	<ele>792.00</ele>
	<time>2024-07-24T05:57:58.000Z</time>
</trkpt>
<trkpt lat="46.0262940" lon="10.3630480">
	<ele>792.20</ele>
	<time>2024-07-24T05:57:59.000Z</time>
</trkpt>
<trkpt lat="46.0262930" lon="10.3630610">
	<ele>792.20</ele>
	<time>2024-07-24T05:58:00.000Z</time>
</trkpt>
<trkpt lat="46.0262930" lon="10.3630770">
	<ele>792.40</ele>
	<time>2024-07-24T05:58:01.000Z</time>
</trkpt>
<trkpt lat="46.0262940" lon="10.3630880">
	<ele>792.80</ele>
	<time>2024-07-24T05:58:02.000Z</time>
</trkpt>
<trkpt lat="46.0262970" lon="10.3631020">
	<ele>792.80</ele>
	<time>2024-07-24T05:58:03.000Z</time>
</trkpt>
<trkpt lat="46.0262970" lon="10.3631100">
	<ele>793.00</ele>
	<time>2024-07-24T05:58:04.000Z</time>
</trkpt>
<trkpt lat="46.0262900" lon="10.3631090">
	<ele>793.20</ele>
	<time>2024-07-24T05:58:05.000Z</time>
</trkpt>
<trkpt lat="46.0262750" lon="10.3631000">
	<ele>793.40</ele>
	<time>2024-07-24T05:58:06.000Z</time>
</trkpt>
<trkpt lat="46.0262590" lon="10.3630950">
	<ele>793.80</ele>
	<time>2024-07-24T05:58:07.000Z</time>
</trkpt>
<trkpt lat="46.0262460" lon="10.3630870">
	<ele>794.00</ele>
	<time>2024-07-24T05:58:08.000Z</time>
</trkpt>
<trkpt lat="46.0262430" lon="10.3630960">
	<ele>794.00</ele>
	<time>2024-07-24T05:58:09.000Z</time>
</trkpt>
<trkpt lat="46.0262480" lon="10.3631150">
	<ele>794.20</ele>
	<time>2024-07-24T05:58:10.000Z</time>
</trkpt>
<trkpt lat="46.0262530" lon="10.3631350">
	<ele>794.40</ele>
	<time>2024-07-24T05:58:11.000Z</time>
</trkpt>
<trkpt lat="46.0262590" lon="10.3631560">
	<ele>794.60</ele>
	<time>2024-07-24T05:58:12.000Z</time>
</trkpt>
<trkpt lat="46.0262560" lon="10.3631630">
	<ele>794.80</ele>
	<time>2024-07-24T05:58:13.000Z</time>
</trkpt>
<trkpt lat="46.0262490" lon="10.3631670">
	<ele>795.00</ele>
	<time>2024-07-24T05:58:14.000Z</time>
</trkpt>
<trkpt lat="46.0262430" lon="10.3631690">
	<ele>795.20</ele>
	<time>2024-07-24T05:58:15.000Z</time>
</trkpt>
<trkpt lat="46.0262360" lon="10.3631780">
	<ele>795.60</ele>
	<time>2024-07-24T05:58:16.000Z</time>
</trkpt>
<trkpt lat="46.0262310" lon="10.3631840">
	<ele>795.60</ele>
	<time>2024-07-24T05:58:17.000Z</time>
</trkpt>
<trkpt lat="46.0262250" lon="10.3631880">
	<ele>795.80</ele>
	<time>2024-07-24T05:58:18.000Z</time>
</trkpt>
<trkpt lat="46.0262220" lon="10.3631960">
	<ele>796.00</ele>
	<time>2024-07-24T05:58:19.000Z</time>
</trkpt>
<trkpt lat="46.0262190" lon="10.3631980">
	<ele>796.00</ele>
	<time>2024-07-24T05:58:20.000Z</time>
</trkpt>
<trkpt lat="46.0262130" lon="10.3632000">
	<ele>796.20</ele>
	<time>2024-07-24T05:58:21.000Z</time>
</trkpt>
<trkpt lat="46.0262120" lon="10.3632000">
	<ele>796.60</ele>
	<time>2024-07-24T05:58:22.000Z</time>
</trkpt>
<trkpt lat="46.0262030" lon="10.3631880">
	<ele>796.80</ele>
	<time>2024-07-24T05:58:23.000Z</time>
</trkpt>
<trkpt lat="46.0261900" lon="10.3631780">
	<ele>797.00</ele>
	<time>2024-07-24T05:58:24.000Z</time>
</trkpt>
<trkpt lat="46.0261780" lon="10.3631780">
	<ele>797.00</ele>
	<time>2024-07-24T05:58:25.000Z</time>
</trkpt>
<trkpt lat="46.0261680" lon="10.3631840">
	<ele>797.20</ele>
	<time>2024-07-24T05:58:26.000Z</time>
</trkpt>
<trkpt lat="46.0261660" lon="10.3631910">
	<ele>797.60</ele>
	<time>2024-07-24T05:58:27.000Z</time>
</trkpt>
<trkpt lat="46.0261660" lon="10.3632100">
	<ele>797.80</ele>
	<time>2024-07-24T05:58:28.000Z</time>
</trkpt>
<trkpt lat="46.0261690" lon="10.3632320">
	<ele>798.00</ele>
	<time>2024-07-24T05:58:29.000Z</time>
</trkpt>
<trkpt lat="46.0261680" lon="10.3632390">
	<ele>798.20</ele>
	<time>2024-07-24T05:58:30.000Z</time>
</trkpt>
<trkpt lat="46.0261670" lon="10.3632410">
	<ele>798.20</ele>
	<time>2024-07-24T05:58:31.000Z</time>
</trkpt>
<trkpt lat="46.0261680" lon="10.3632440">
	<ele>798.20</ele>
	<time>2024-07-24T05:58:32.000Z</time>
</trkpt>
<trkpt lat="46.0261700" lon="10.3632510">
	<ele>798.40</ele>
	<time>2024-07-24T05:58:33.000Z</time>
</trkpt>
<trkpt lat="46.0261690" lon="10.3632600">
	<ele>798.60</ele>
	<time>2024-07-24T05:58:34.000Z</time>
</trkpt>
<trkpt lat="46.0261690" lon="10.3632740">
	<ele>798.80</ele>
	<time>2024-07-24T05:58:35.000Z</time>
</trkpt>
<trkpt lat="46.0261740" lon="10.3632910">
	<ele>798.80</ele>
	<time>2024-07-24T05:58:36.000Z</time>
</trkpt>
<trkpt lat="46.0261830" lon="10.3633150">
	<ele>799.20</ele>
	<time>2024-07-24T05:58:37.000Z</time>
</trkpt>
<trkpt lat="46.0261900" lon="10.3633390">
	<ele>799.40</ele>
	<time>2024-07-24T05:58:38.000Z</time>
</trkpt>
<trkpt lat="46.0261960" lon="10.3633580">
	<ele>799.60</ele>
	<time>2024-07-24T05:58:39.000Z</time>
</trkpt>
<trkpt lat="46.0261960" lon="10.3633700">
	<ele>799.60</ele>
	<time>2024-07-24T05:58:40.000Z</time>
</trkpt>
<trkpt lat="46.0261910" lon="10.3633800">
	<ele>799.80</ele>
	<time>2024-07-24T05:58:41.000Z</time>
</trkpt>
<trkpt lat="46.0261840" lon="10.3633880">
	<ele>800.00</ele>
	<time>2024-07-24T05:58:42.000Z</time>
</trkpt>
<trkpt lat="46.0261780" lon="10.3633980">
	<ele>800.20</ele>
	<time>2024-07-24T05:58:43.000Z</time>
</trkpt>
<trkpt lat="46.0261720" lon="10.3634010">
	<ele>800.40</ele>
	<time>2024-07-24T05:58:44.000Z</time>
</trkpt>
<trkpt lat="46.0261630" lon="10.3634030">
	<ele>800.60</ele>
	<time>2024-07-24T05:58:45.000Z</time>
</trkpt>
<trkpt lat="46.0261550" lon="10.3634070">
	<ele>800.80</ele>
	<time>2024-07-24T05:58:46.000Z</time>
</trkpt>
<trkpt lat="46.0261530" lon="10.3634130">
	<ele>801.00</ele>
	<time>2024-07-24T05:58:47.000Z</time>
</trkpt>
<trkpt lat="46.0261490" lon="10.3634130">
	<ele>801.20</ele>
	<time>2024-07-24T05:58:48.000Z</time>
</trkpt>
<trkpt lat="46.0261490" lon="10.3634210">
	<ele>801.20</ele>
	<time>2024-07-24T05:58:49.000Z</time>
</trkpt>
<trkpt lat="46.0261440" lon="10.3634280">
	<ele>801.40</ele>
	<time>2024-07-24T05:58:50.000Z</time>
</trkpt>
<trkpt lat="46.0261340" lon="10.3634290">
	<ele>801.60</ele>
	<time>2024-07-24T05:58:51.000Z</time>
</trkpt>
<trkpt lat="46.0261280" lon="10.3634370">
	<ele>801.80</ele>
	<time>2024-07-24T05:58:52.000Z</time>
</trkpt>
<trkpt lat="46.0261200" lon="10.3634410">
	<ele>801.80</ele>
	<time>2024-07-24T05:58:53.000Z</time>
</trkpt>
<trkpt lat="46.0261070" lon="10.3634330">
	<ele>802.20</ele>
	<time>2024-07-24T05:58:54.000Z</time>
</trkpt>
<trkpt lat="46.0260950" lon="10.3634250">
	<ele>802.40</ele>
	<time>2024-07-24T05:58:55.000Z</time>
</trkpt>
<trkpt lat="46.0260790" lon="10.3634180">
	<ele>802.60</ele>
	<time>2024-07-24T05:58:56.000Z</time>
</trkpt>
<trkpt lat="46.0260710" lon="10.3634270">
	<ele>802.60</ele>
	<time>2024-07-24T05:58:57.000Z</time>
</trkpt>
<trkpt lat="46.0260610" lon="10.3634380">
	<ele>802.80</ele>
	<time>2024-07-24T05:58:58.000Z</time>
</trkpt>
<trkpt lat="46.0260450" lon="10.3634470">
	<ele>803.00</ele>
	<time>2024-07-24T05:58:59.000Z</time>
</trkpt>
<trkpt lat="46.0260370" lon="10.3634580">
	<ele>803.20</ele>
	<time>2024-07-24T05:59:00.000Z</time>
</trkpt>
<trkpt lat="46.0260280" lon="10.3634690">
	<ele>803.20</ele>
	<time>2024-07-24T05:59:01.000Z</time>
</trkpt>
<trkpt lat="46.0260170" lon="10.3634760">
	<ele>803.60</ele>
	<time>2024-07-24T05:59:02.000Z</time>
</trkpt>
<trkpt lat="46.0260060" lon="10.3634830">
	<ele>803.80</ele>
	<time>2024-07-24T05:59:03.000Z</time>
</trkpt>
<trkpt lat="46.0259980" lon="10.3634930">
	<ele>803.80</ele>
	<time>2024-07-24T05:59:04.000Z</time>
</trkpt>
<trkpt lat="46.0259920" lon="10.3635010">
	<ele>804.00</ele>
	<time>2024-07-24T05:59:05.000Z</time>
</trkpt>
<trkpt lat="46.0259920" lon="10.3635190">
	<ele>804.40</ele>
	<time>2024-07-24T05:59:06.000Z</time>
</trkpt>
<trkpt lat="46.0259910" lon="10.3635310">
	<ele>804.40</ele>
	<time>2024-07-24T05:59:07.000Z</time>
</trkpt>
<trkpt lat="46.0259860" lon="10.3635390">
	<ele>804.80</ele>
	<time>2024-07-24T05:59:08.000Z</time>
</trkpt>
<trkpt lat="46.0259890" lon="10.3635510">
	<ele>804.80</ele>
	<time>2024-07-24T05:59:09.000Z</time>
</trkpt>
<trkpt lat="46.0259780" lon="10.3635510">
	<ele>805.00</ele>
	<time>2024-07-24T05:59:10.000Z</time>
</trkpt>
<trkpt lat="46.0259800" lon="10.3635710">
	<ele>805.40</ele>
	<time>2024-07-24T05:59:11.000Z</time>
</trkpt>
<trkpt lat="46.0259840" lon="10.3635930">
	<ele>805.60</ele>
	<time>2024-07-24T05:59:12.000Z</time>
</trkpt>
<trkpt lat="46.0259820" lon="10.3635980">
	<ele>805.80</ele>
	<time>2024-07-24T05:59:13.000Z</time>
</trkpt>
<trkpt lat="46.0259800" lon="10.3636060">
	<ele>806.00</ele>
	<time>2024-07-24T05:59:14.000Z</time>
</trkpt>
<trkpt lat="46.0259690" lon="10.3636040">
	<ele>806.00</ele>
	<time>2024-07-24T05:59:15.000Z</time>
</trkpt>
<trkpt lat="46.0259650" lon="10.3636100">
	<ele>806.40</ele>
	<time>2024-07-24T05:59:16.000Z</time>
</trkpt>
<trkpt lat="46.0259550" lon="10.3636150">
	<ele>806.40</ele>
	<time>2024-07-24T05:59:17.000Z</time>
</trkpt>
<trkpt lat="46.0259570" lon="10.3636330">
	<ele>806.80</ele>
	<time>2024-07-24T05:59:18.000Z</time>
</trkpt>
<trkpt lat="46.0259550" lon="10.3636480">
	<ele>807.00</ele>
	<time>2024-07-24T05:59:19.000Z</time>
</trkpt>
<trkpt lat="46.0259510" lon="10.3636650">
	<ele>807.00</ele>
	<time>2024-07-24T05:59:20.000Z</time>
</trkpt>
<trkpt lat="46.0259450" lon="10.3636760">
	<ele>807.20</ele>
	<time>2024-07-24T05:59:21.000Z</time>
</trkpt>
<trkpt lat="46.0259430" lon="10.3636910">
	<ele>807.40</ele>
	<time>2024-07-24T05:59:22.000Z</time>
</trkpt>
<trkpt lat="46.0259330" lon="10.3636970">
	<ele>807.60</ele>
	<time>2024-07-24T05:59:23.000Z</time>
</trkpt>
<trkpt lat="46.0259290" lon="10.3637120">
	<ele>807.60</ele>
	<time>2024-07-24T05:59:24.000Z</time>
</trkpt>
<trkpt lat="46.0259200" lon="10.3637180">
	<ele>807.80</ele>
	<time>2024-07-24T05:59:25.000Z</time>
</trkpt>
<trkpt lat="46.0259140" lon="10.3637240">
	<ele>808.00</ele>
	<time>2024-07-24T05:59:26.000Z</time>
</trkpt>
<trkpt lat="46.0259030" lon="10.3637240">
	<ele>808.20</ele>
	<time>2024-07-24T05:59:27.000Z</time>
</trkpt>
<trkpt lat="46.0258890" lon="10.3637220">
	<ele>808.40</ele>
	<time>2024-07-24T05:59:28.000Z</time>
</trkpt>
<trkpt lat="46.0258710" lon="10.3637200">
	<ele>808.60</ele>
	<time>2024-07-24T05:59:29.000Z</time>
</trkpt>
<trkpt lat="46.0258550" lon="10.3637160">
	<ele>808.60</ele>
	<time>2024-07-24T05:59:30.000Z</time>
</trkpt>
<trkpt lat="46.0258470" lon="10.3637200">
	<ele>808.80</ele>
	<time>2024-07-24T05:59:31.000Z</time>
</trkpt>
<trkpt lat="46.0258430" lon="10.3637280">
	<ele>809.00</ele>
	<time>2024-07-24T05:59:32.000Z</time>
</trkpt>
<trkpt lat="46.0258290" lon="10.3637330">
	<ele>809.00</ele>
	<time>2024-07-24T05:59:33.000Z</time>
</trkpt>
<trkpt lat="46.0258220" lon="10.3637360">
	<ele>809.40</ele>
	<time>2024-07-24T05:59:34.000Z</time>
</trkpt>
<trkpt lat="46.0258120" lon="10.3637340">
	<ele>809.40</ele>
	<time>2024-07-24T05:59:35.000Z</time>
</trkpt>
<trkpt lat="46.0257980" lon="10.3637290">
	<ele>809.60</ele>
	<time>2024-07-24T05:59:36.000Z</time>
</trkpt>
<trkpt lat="46.0257880" lon="10.3637280">
	<ele>809.80</ele>
	<time>2024-07-24T05:59:37.000Z</time>
</trkpt>
<trkpt lat="46.0257740" lon="10.3637210">
	<ele>810.00</ele>
	<time>2024-07-24T05:59:38.000Z</time>
</trkpt>
<trkpt lat="46.0257630" lon="10.3637170">
	<ele>810.00</ele>
	<time>2024-07-24T05:59:39.000Z</time>
</trkpt>
<trkpt lat="46.0257560" lon="10.3637190">
	<ele>810.20</ele>
	<time>2024-07-24T05:59:40.000Z</time>
</trkpt>
<trkpt lat="46.0257520" lon="10.3637250">
	<ele>810.40</ele>
	<time>2024-07-24T05:59:41.000Z</time>
</trkpt>
<trkpt lat="46.0257450" lon="10.3637300">
	<ele>810.60</ele>
	<time>2024-07-24T05:59:42.000Z</time>
</trkpt>
<trkpt lat="46.0257390" lon="10.3637350">
	<ele>810.80</ele>
	<time>2024-07-24T05:59:43.000Z</time>
</trkpt>
<trkpt lat="46.0257340" lon="10.3637400">
	<ele>811.00</ele>
	<time>2024-07-24T05:59:44.000Z</time>
</trkpt>
<trkpt lat="46.0257290" lon="10.3637450">
	<ele>811.00</ele>
	<time>2024-07-24T05:59:45.000Z</time>
</trkpt>
<trkpt lat="46.0257220" lon="10.3637520">
	<ele>811.20</ele>
	<time>2024-07-24T05:59:46.000Z</time>
</trkpt>
<trkpt lat="46.0257150" lon="10.3637550">
	<ele>811.40</ele>
	<time>2024-07-24T05:59:47.000Z</time>
</trkpt>
<trkpt lat="46.0257090" lon="10.3637600">
	<ele>811.60</ele>
	<time>2024-07-24T05:59:48.000Z</time>
</trkpt>
<trkpt lat="46.0257030" lon="10.3637660">
	<ele>811.80</ele>
	<time>2024-07-24T05:59:49.000Z</time>
</trkpt>
<trkpt lat="46.0256970" lon="10.3637710">
	<ele>812.00</ele>
	<time>2024-07-24T05:59:50.000Z</time>
</trkpt>
<trkpt lat="46.0256900" lon="10.3637750">
	<ele>812.20</ele>
	<time>2024-07-24T05:59:51.000Z</time>
</trkpt>
<trkpt lat="46.0256820" lon="10.3637750">
	<ele>812.20</ele>
	<time>2024-07-24T05:59:52.000Z</time>
</trkpt>
<trkpt lat="46.0256740" lon="10.3637790">
	<ele>812.40</ele>
	<time>2024-07-24T05:59:53.000Z</time>
</trkpt>
<trkpt lat="46.0256760" lon="10.3637920">
	<ele>812.80</ele>
	<time>2024-07-24T05:59:54.000Z</time>
</trkpt>
<trkpt lat="46.0256750" lon="10.3637970">
	<ele>813.00</ele>
	<time>2024-07-24T05:59:55.000Z</time>
</trkpt>
<trkpt lat="46.0256700" lon="10.3638010">
	<ele>813.00</ele>
	<time>2024-07-24T05:59:56.000Z</time>
</trkpt>
<trkpt lat="46.0256610" lon="10.3638020">
	<ele>813.20</ele>
	<time>2024-07-24T05:59:57.000Z</time>
</trkpt>
<trkpt lat="46.0256530" lon="10.3638060">
	<ele>813.20</ele>
	<time>2024-07-24T05:59:58.000Z</time>
</trkpt>
<trkpt lat="46.0256470" lon="10.3638120">
	<ele>813.40</ele>
	<time>2024-07-24T05:59:59.000Z</time>
</trkpt>
<trkpt lat="46.0256400" lon="10.3638230">
	<ele>813.60</ele>
	<time>2024-07-24T06:00:00.000Z</time>
</trkpt>
<trkpt lat="46.0256360" lon="10.3638360">
	<ele>813.80</ele>
	<time>2024-07-24T06:00:01.000Z</time>
</trkpt>
<trkpt lat="46.0256310" lon="10.3638470">
	<ele>814.00</ele>
	<time>2024-07-24T06:00:02.000Z</time>
</trkpt>
<trkpt lat="46.0256250" lon="10.3638490">
	<ele>814.20</ele>
	<time>2024-07-24T06:00:03.000Z</time>
</trkpt>
<trkpt lat="46.0256160" lon="10.3638450">
	<ele>814.60</ele>
	<time>2024-07-24T06:00:04.000Z</time>
</trkpt>
<trkpt lat="46.0256100" lon="10.3638450">
	<ele>814.80</ele>
	<time>2024-07-24T06:00:05.000Z</time>
</trkpt>
<trkpt lat="46.0256060" lon="10.3638530">
	<ele>814.80</ele>
	<time>2024-07-24T06:00:06.000Z</time>
</trkpt>
<trkpt lat="46.0256070" lon="10.3638640">
	<ele>815.00</ele>
	<time>2024-07-24T06:00:07.000Z</time>
</trkpt>
<trkpt lat="46.0256010" lon="10.3638670">
	<ele>815.20</ele>
	<time>2024-07-24T06:00:08.000Z</time>
</trkpt>
<trkpt lat="46.0255950" lon="10.3638730">
	<ele>815.20</ele>
	<time>2024-07-24T06:00:09.000Z</time>
</trkpt>
<trkpt lat="46.0255880" lon="10.3638750">
	<ele>815.60</ele>
	<time>2024-07-24T06:00:10.000Z</time>
</trkpt>
<trkpt lat="46.0255820" lon="10.3638770">
	<ele>815.80</ele>
	<time>2024-07-24T06:00:11.000Z</time>
</trkpt>
<trkpt lat="46.0255770" lon="10.3638870">
	<ele>815.80</ele>
	<time>2024-07-24T06:00:12.000Z</time>
</trkpt>
<trkpt lat="46.0255720" lon="10.3638950">
	<ele>816.20</ele>
	<time>2024-07-24T06:00:13.000Z</time>
</trkpt>
<trkpt lat="46.0255700" lon="10.3639100">
	<ele>816.40</ele>
	<time>2024-07-24T06:00:14.000Z</time>
</trkpt>
<trkpt lat="46.0255680" lon="10.3639290">
	<ele>816.60</ele>
	<time>2024-07-24T06:00:15.000Z</time>
</trkpt>
<trkpt lat="46.0255670" lon="10.3639390">
	<ele>816.80</ele>
	<time>2024-07-24T06:00:16.000Z</time>
</trkpt>
<trkpt lat="46.0255570" lon="10.3639470">
	<ele>817.00</ele>
	<time>2024-07-24T06:00:17.000Z</time>
</trkpt>
<trkpt lat="46.0255520" lon="10.3639590">
	<ele>817.00</ele>
	<time>2024-07-24T06:00:18.000Z</time>
</trkpt>
<trkpt lat="46.0255510" lon="10.3639730">
	<ele>817.40</ele>
	<time>2024-07-24T06:00:19.000Z</time>
</trkpt>
<trkpt lat="46.0255470" lon="10.3639780">
	<ele>817.60</ele>
	<time>2024-07-24T06:00:20.000Z</time>
</trkpt>
<trkpt lat="46.0255360" lon="10.3639760">
	<ele>817.80</ele>
	<time>2024-07-24T06:00:21.000Z</time>
</trkpt>
<trkpt lat="46.0255280" lon="10.3639780">
	<ele>818.00</ele>
	<time>2024-07-24T06:00:22.000Z</time>
</trkpt>
<trkpt lat="46.0255210" lon="10.3639800">
	<ele>818.00</ele>
	<time>2024-07-24T06:00:23.000Z</time>
</trkpt>
<trkpt lat="46.0255160" lon="10.3639870">
	<ele>818.20</ele>
	<time>2024-07-24T06:00:24.000Z</time>
</trkpt>
<trkpt lat="46.0255110" lon="10.3639920">
	<ele>818.40</ele>
	<time>2024-07-24T06:00:25.000Z</time>
</trkpt>
<trkpt lat="46.0255050" lon="10.3639990">
	<ele>818.60</ele>
	<time>2024-07-24T06:00:26.000Z</time>
</trkpt>
<trkpt lat="46.0255010" lon="10.3640040">
	<ele>818.80</ele>
	<time>2024-07-24T06:00:27.000Z</time>
</trkpt>
<trkpt lat="46.0254990" lon="10.3640110">
	<ele>818.80</ele>
	<time>2024-07-24T06:00:28.000Z</time>
</trkpt>
<trkpt lat="46.0254970" lon="10.3640220">
	<ele>819.00</ele>
	<time>2024-07-24T06:00:29.000Z</time>
</trkpt>
<trkpt lat="46.0254950" lon="10.3640300">
	<ele>819.20</ele>
	<time>2024-07-24T06:00:30.000Z</time>
</trkpt>
<trkpt lat="46.0254950" lon="10.3640430">
	<ele>819.40</ele>
	<time>2024-07-24T06:00:31.000Z</time>
</trkpt>
<trkpt lat="46.0254930" lon="10.3640500">
	<ele>819.80</ele>
	<time>2024-07-24T06:00:32.000Z</time>
</trkpt>
<trkpt lat="46.0254870" lon="10.3640730">
	<ele>820.20</ele>
	<time>2024-07-24T06:00:33.000Z</time>
</trkpt>
<trkpt lat="46.0254860" lon="10.3640800">
	<ele>820.40</ele>
	<time>2024-07-24T06:00:34.000Z</time>
</trkpt>
<trkpt lat="46.0254840" lon="10.3640940">
	<ele>820.40</ele>
	<time>2024-07-24T06:00:35.000Z</time>
</trkpt>
<trkpt lat="46.0254800" lon="10.3641060">
	<ele>820.60</ele>
	<time>2024-07-24T06:00:36.000Z</time>
</trkpt>
<trkpt lat="46.0254710" lon="10.3641120">
	<ele>820.80</ele>
	<time>2024-07-24T06:00:37.000Z</time>
</trkpt>
<trkpt lat="46.0254640" lon="10.3641190">
	<ele>820.80</ele>
	<time>2024-07-24T06:00:38.000Z</time>
</trkpt>
<trkpt lat="46.0254550" lon="10.3641230">
	<ele>821.00</ele>
	<time>2024-07-24T06:00:39.000Z</time>
</trkpt>
<trkpt lat="46.0254490" lon="10.3641350">
	<ele>821.20</ele>
	<time>2024-07-24T06:00:40.000Z</time>
</trkpt>
<trkpt lat="46.0254530" lon="10.3641560">
	<ele>821.40</ele>
	<time>2024-07-24T06:00:41.000Z</time>
</trkpt>
<trkpt lat="46.0254470" lon="10.3641610">
	<ele>821.60</ele>
	<time>2024-07-24T06:00:42.000Z</time>
</trkpt>
<trkpt lat="46.0254400" lon="10.3641700">
	<ele>821.80</ele>
	<time>2024-07-24T06:00:43.000Z</time>
</trkpt>
<trkpt lat="46.0254380" lon="10.3641870">
	<ele>822.00</ele>
	<time>2024-07-24T06:00:44.000Z</time>
</trkpt>
<trkpt lat="46.0254360" lon="10.3641990">
	<ele>822.20</ele>
	<time>2024-07-24T06:00:45.000Z</time>
</trkpt>
<trkpt lat="46.0254330" lon="10.3642070">
	<ele>822.40</ele>
	<time>2024-07-24T06:00:46.000Z</time>
</trkpt>
<trkpt lat="46.0254300" lon="10.3642180">
	<ele>822.40</ele>
	<time>2024-07-24T06:00:47.000Z</time>
</trkpt>
<trkpt lat="46.0254260" lon="10.3642280">
	<ele>822.80</ele>
	<time>2024-07-24T06:00:48.000Z</time>
</trkpt>
<trkpt lat="46.0254210" lon="10.3642340">
	<ele>823.00</ele>
	<time>2024-07-24T06:00:49.000Z</time>
</trkpt>
<trkpt lat="46.0254170" lon="10.3642430">
	<ele>823.20</ele>
	<time>2024-07-24T06:00:50.000Z</time>
</trkpt>
<trkpt lat="46.0254130" lon="10.3642490">
	<ele>823.60</ele>
	<time>2024-07-24T06:00:51.000Z</time>
</trkpt>
<trkpt lat="46.0254100" lon="10.3642570">
	<ele>823.80</ele>
	<time>2024-07-24T06:00:52.000Z</time>
</trkpt>
<trkpt lat="46.0254050" lon="10.3642610">
	<ele>824.00</ele>
	<time>2024-07-24T06:00:53.000Z</time>
</trkpt>
<trkpt lat="46.0253980" lon="10.3642660">
	<ele>824.20</ele>
	<time>2024-07-24T06:00:54.000Z</time>
</trkpt>
<trkpt lat="46.0253920" lon="10.3642730">
	<ele>824.40</ele>
	<time>2024-07-24T06:00:55.000Z</time>
</trkpt>
<trkpt lat="46.0253870" lon="10.3642810">
	<ele>824.40</ele>
	<time>2024-07-24T06:00:56.000Z</time>
</trkpt>
<trkpt lat="46.0253810" lon="10.3642890">
	<ele>824.60</ele>
	<time>2024-07-24T06:00:57.000Z</time>
</trkpt>
<trkpt lat="46.0253680" lon="10.3642850">
	<ele>824.80</ele>
	<time>2024-07-24T06:00:58.000Z</time>
</trkpt>
<trkpt lat="46.0253640" lon="10.3642900">
	<ele>825.00</ele>
	<time>2024-07-24T06:00:59.000Z</time>
</trkpt>
<trkpt lat="46.0253610" lon="10.3643000">
	<ele>825.20</ele>
	<time>2024-07-24T06:01:00.000Z</time>
</trkpt>
<trkpt lat="46.0253570" lon="10.3643100">
	<ele>825.40</ele>
	<time>2024-07-24T06:01:01.000Z</time>
</trkpt>
<trkpt lat="46.0253470" lon="10.3643140">
	<ele>825.60</ele>
	<time>2024-07-24T06:01:02.000Z</time>
</trkpt>
<trkpt lat="46.0253370" lon="10.3643180">
	<ele>825.80</ele>
	<time>2024-07-24T06:01:03.000Z</time>
</trkpt>
<trkpt lat="46.0253220" lon="10.3643210">
	<ele>826.00</ele>
	<time>2024-07-24T06:01:04.000Z</time>
</trkpt>
<trkpt lat="46.0253190" lon="10.3643310">
	<ele>826.20</ele>
	<time>2024-07-24T06:01:05.000Z</time>
</trkpt>
<trkpt lat="46.0253190" lon="10.3643440">
	<ele>826.40</ele>
	<time>2024-07-24T06:01:06.000Z</time>
</trkpt>
<trkpt lat="46.0253170" lon="10.3643550">
	<ele>826.60</ele>
	<time>2024-07-24T06:01:07.000Z</time>
</trkpt>
<trkpt lat="46.0253160" lon="10.3643680">
	<ele>826.80</ele>
	<time>2024-07-24T06:01:08.000Z</time>
</trkpt>
<trkpt lat="46.0253170" lon="10.3643780">
	<ele>827.00</ele>
	<time>2024-07-24T06:01:09.000Z</time>
</trkpt>
<trkpt lat="46.0253170" lon="10.3643880">
	<ele>827.40</ele>
	<time>2024-07-24T06:01:10.000Z</time>
</trkpt>
<trkpt lat="46.0253150" lon="10.3643960">
	<ele>827.60</ele>
	<time>2024-07-24T06:01:11.000Z</time>
</trkpt>
<trkpt lat="46.0253130" lon="10.3644030">
	<ele>827.60</ele>
	<time>2024-07-24T06:01:12.000Z</time>
</trkpt>
<trkpt lat="46.0253090" lon="10.3644100">
	<ele>827.80</ele>
	<time>2024-07-24T06:01:13.000Z</time>
</trkpt>
<trkpt lat="46.0253030" lon="10.3644190">
	<ele>828.00</ele>
	<time>2024-07-24T06:01:14.000Z</time>
</trkpt>
<trkpt lat="46.0252990" lon="10.3644280">
	<ele>828.20</ele>
	<time>2024-07-24T06:01:15.000Z</time>
</trkpt>
<trkpt lat="46.0252920" lon="10.3644370">
	<ele>828.40</ele>
	<time>2024-07-24T06:01:16.000Z</time>
</trkpt>
<trkpt lat="46.0252840" lon="10.3644460">
	<ele>828.60</ele>
	<time>2024-07-24T06:01:17.000Z</time>
</trkpt>
<trkpt lat="46.0252780" lon="10.3644520">
	<ele>828.80</ele>
	<time>2024-07-24T06:01:18.000Z</time>
</trkpt>
<trkpt lat="46.0252750" lon="10.3644580">
	<ele>829.20</ele>
	<time>2024-07-24T06:01:19.000Z</time>
</trkpt>
<trkpt lat="46.0252730" lon="10.3644640">
	<ele>829.40</ele>
	<time>2024-07-24T06:01:20.000Z</time>
</trkpt>
<trkpt lat="46.0252690" lon="10.3644710">
	<ele>829.60</ele>
	<time>2024-07-24T06:01:21.000Z</time>
</trkpt>
<trkpt lat="46.0252650" lon="10.3644790">
	<ele>829.80</ele>
	<time>2024-07-24T06:01:22.000Z</time>
</trkpt>
<trkpt lat="46.0252570" lon="10.3644830">
	<ele>830.00</ele>
	<time>2024-07-24T06:01:23.000Z</time>
</trkpt>
<trkpt lat="46.0252500" lon="10.3644880">
	<ele>830.20</ele>
	<time>2024-07-24T06:01:24.000Z</time>
</trkpt>
<trkpt lat="46.0252440" lon="10.3644970">
	<ele>830.40</ele>
	<time>2024-07-24T06:01:25.000Z</time>
</trkpt>
<trkpt lat="46.0252410" lon="10.3645100">
	<ele>830.60</ele>
	<time>2024-07-24T06:01:26.000Z</time>
</trkpt>
<trkpt lat="46.0252350" lon="10.3645170">
	<ele>830.80</ele>
	<time>2024-07-24T06:01:27.000Z</time>
</trkpt>
<trkpt lat="46.0252260" lon="10.3645260">
	<ele>831.00</ele>
	<time>2024-07-24T06:01:28.000Z</time>
</trkpt>
<trkpt lat="46.0252230" lon="10.3645350">
	<ele>831.20</ele>
	<time>2024-07-24T06:01:29.000Z</time>
</trkpt>
<trkpt lat="46.0252190" lon="10.3645420">
	<ele>831.60</ele>
	<time>2024-07-24T06:01:30.000Z</time>
</trkpt>
<trkpt lat="46.0252170" lon="10.3645470">
	<ele>831.80</ele>
	<time>2024-07-24T06:01:31.000Z</time>
</trkpt>
<trkpt lat="46.0252150" lon="10.3645560">
	<ele>832.00</ele>
	<time>2024-07-24T06:01:32.000Z</time>
</trkpt>
<trkpt lat="46.0252120" lon="10.3645640">
	<ele>832.20</ele>
	<time>2024-07-24T06:01:33.000Z</time>
</trkpt>
<trkpt lat="46.0252050" lon="10.3645720">
	<ele>832.20</ele>
	<time>2024-07-24T06:01:34.000Z</time>
</trkpt>
<trkpt lat="46.0251970" lon="10.3645770">
	<ele>832.40</ele>
	<time>2024-07-24T06:01:35.000Z</time>
</trkpt>
<trkpt lat="46.0251960" lon="10.3645840">
	<ele>832.40</ele>
	<time>2024-07-24T06:01:36.000Z</time>
</trkpt>
<trkpt lat="46.0251940" lon="10.3645910">
	<ele>832.80</ele>
	<time>2024-07-24T06:01:37.000Z</time>
</trkpt>
<trkpt lat="46.0251960" lon="10.3646010">
	<ele>833.00</ele>
	<time>2024-07-24T06:01:38.000Z</time>
</trkpt>
<trkpt lat="46.0251940" lon="10.3646060">
	<ele>833.20</ele>
	<time>2024-07-24T06:01:39.000Z</time>
</trkpt>
<trkpt lat="46.0251930" lon="10.3646150">
	<ele>833.40</ele>
	<time>2024-07-24T06:01:40.000Z</time>
</trkpt>
<trkpt lat="46.0251910" lon="10.3646240">
	<ele>833.40</ele>
	<time>2024-07-24T06:01:41.000Z</time>
</trkpt>
<trkpt lat="46.0251890" lon="10.3646310">
	<ele>833.80</ele>
	<time>2024-07-24T06:01:42.000Z</time>
</trkpt>
<trkpt lat="46.0251850" lon="10.3646390">
	<ele>834.00</ele>
	<time>2024-07-24T06:01:43.000Z</time>
</trkpt>
<trkpt lat="46.0251840" lon="10.3646480">
	<ele>834.20</ele>
	<time>2024-07-24T06:01:44.000Z</time>
</trkpt>
<trkpt lat="46.0251840" lon="10.3646570">
	<ele>834.40</ele>
	<time>2024-07-24T06:01:45.000Z</time>
</trkpt>
<trkpt lat="46.0251830" lon="10.3646670">
	<ele>834.40</ele>
	<time>2024-07-24T06:01:46.000Z</time>
</trkpt>
<trkpt lat="46.0251800" lon="10.3646750">
	<ele>834.80</ele>
	<time>2024-07-24T06:01:47.000Z</time>
</trkpt>
<trkpt lat="46.0251780" lon="10.3646850">
	<ele>835.00</ele>
	<time>2024-07-24T06:01:48.000Z</time>
</trkpt>
<trkpt lat="46.0251780" lon="10.3646950">
	<ele>835.00</ele>
	<time>2024-07-24T06:01:49.000Z</time>
</trkpt>
<trkpt lat="46.0251760" lon="10.3647020">
	<ele>835.40</ele>
	<time>2024-07-24T06:01:50.000Z</time>
</trkpt>
<trkpt lat="46.0251730" lon="10.3647110">
	<ele>835.60</ele>
	<time>2024-07-24T06:01:51.000Z</time>
</trkpt>
<trkpt lat="46.0251690" lon="10.3647210">
	<ele>835.80</ele>
	<time>2024-07-24T06:01:52.000Z</time>
</trkpt>
<trkpt lat="46.0251620" lon="10.3647270">
	<ele>835.80</ele>
	<time>2024-07-24T06:01:53.000Z</time>
</trkpt>
<trkpt lat="46.0251560" lon="10.3647340">
	<ele>836.00</ele>
	<time>2024-07-24T06:01:54.000Z</time>
</trkpt>
<trkpt lat="46.0251510" lon="10.3647400">
	<ele>836.20</ele>
	<time>2024-07-24T06:01:55.000Z</time>
</trkpt>
<trkpt lat="46.0251490" lon="10.3647470">
	<ele>836.40</ele>
	<time>2024-07-24T06:01:56.000Z</time>
</trkpt>
<trkpt lat="46.0251460" lon="10.3647550">
	<ele>836.60</ele>
	<time>2024-07-24T06:01:57.000Z</time>
</trkpt>
<trkpt lat="46.0251460" lon="10.3647640">
	<ele>836.80</ele>
	<time>2024-07-24T06:01:58.000Z</time>
</trkpt>
<trkpt lat="46.0251500" lon="10.3647760">
	<ele>837.00</ele>
	<time>2024-07-24T06:01:59.000Z</time>
</trkpt>
<trkpt lat="46.0251510" lon="10.3647870">
	<ele>837.20</ele>
	<time>2024-07-24T06:02:00.000Z</time>
</trkpt>
<trkpt lat="46.0251570" lon="10.3647990">
	<ele>837.40</ele>
	<time>2024-07-24T06:02:01.000Z</time>
</trkpt>
<trkpt lat="46.0251620" lon="10.3648130">
	<ele>837.60</ele>
	<time>2024-07-24T06:02:02.000Z</time>
</trkpt>
<trkpt lat="46.0251620" lon="10.3648180">
	<ele>838.00</ele>
	<time>2024-07-24T06:02:03.000Z</time>
</trkpt>
<trkpt lat="46.0251620" lon="10.3648240">
	<ele>838.40</ele>
	<time>2024-07-24T06:02:04.000Z</time>
</trkpt>
<trkpt lat="46.0251580" lon="10.3648290">
	<ele>838.60</ele>
	<time>2024-07-24T06:02:05.000Z</time>
</trkpt>
<trkpt lat="46.0251540" lon="10.3648320">
	<ele>838.60</ele>
	<time>2024-07-24T06:02:06.000Z</time>
</trkpt>
<trkpt lat="46.0251460" lon="10.3648230">
	<ele>838.80</ele>
	<time>2024-07-24T06:02:07.000Z</time>
</trkpt>
<trkpt lat="46.0251430" lon="10.3648250">
	<ele>838.80</ele>
	<time>2024-07-24T06:02:08.000Z</time>
</trkpt>
<trkpt lat="46.0251400" lon="10.3648290">
	<ele>839.00</ele>
	<time>2024-07-24T06:02:09.000Z</time>
</trkpt>
<trkpt lat="46.0251280" lon="10.3648330">
	<ele>839.20</ele>
	<time>2024-07-24T06:02:10.000Z</time>
</trkpt>
<trkpt lat="46.0251310" lon="10.3648510">
	<ele>839.40</ele>
	<time>2024-07-24T06:02:11.000Z</time>
</trkpt>
<trkpt lat="46.0251260" lon="10.3648560">
	<ele>839.60</ele>
	<time>2024-07-24T06:02:12.000Z</time>
</trkpt>
<trkpt lat="46.0251230" lon="10.3648610">
	<ele>839.80</ele>
	<time>2024-07-24T06:02:13.000Z</time>
</trkpt>
<trkpt lat="46.0251220" lon="10.3648650">
	<ele>840.00</ele>
	<time>2024-07-24T06:02:14.000Z</time>
</trkpt>
<trkpt lat="46.0251190" lon="10.3648720">
	<ele>840.40</ele>
	<time>2024-07-24T06:02:15.000Z</time>
</trkpt>
<trkpt lat="46.0251150" lon="10.3648740">
	<ele>840.60</ele>
	<time>2024-07-24T06:02:16.000Z</time>
</trkpt>
<trkpt lat="46.0251140" lon="10.3648780">
	<ele>840.60</ele>
	<time>2024-07-24T06:02:17.000Z</time>
</trkpt>
<trkpt lat="46.0251130" lon="10.3648920">
	<ele>840.80</ele>
	<time>2024-07-24T06:02:18.000Z</time>
</trkpt>
<trkpt lat="46.0251110" lon="10.3648990">
	<ele>841.00</ele>
	<time>2024-07-24T06:02:19.000Z</time>
</trkpt>
<trkpt lat="46.0251080" lon="10.3649070">
	<ele>841.20</ele>
	<time>2024-07-24T06:02:20.000Z</time>
</trkpt>
<trkpt lat="46.0250970" lon="10.3649030">
	<ele>841.40</ele>
	<time>2024-07-24T06:02:21.000Z</time>
</trkpt>
<trkpt lat="46.0250830" lon="10.3648900">
	<ele>841.60</ele>
	<time>2024-07-24T06:02:22.000Z</time>
</trkpt>
<trkpt lat="46.0250750" lon="10.3648830">
	<ele>841.80</ele>
	<time>2024-07-24T06:02:23.000Z</time>
</trkpt>
<trkpt lat="46.0250700" lon="10.3648870">
	<ele>842.20</ele>
	<time>2024-07-24T06:02:24.000Z</time>
</trkpt>
<trkpt lat="46.0250720" lon="10.3649090">
	<ele>842.40</ele>
	<time>2024-07-24T06:02:25.000Z</time>
</trkpt>
<trkpt lat="46.0250740" lon="10.3649320">
	<ele>842.60</ele>
	<time>2024-07-24T06:02:26.000Z</time>
</trkpt>
<trkpt lat="46.0250740" lon="10.3649450">
	<ele>842.80</ele>
	<time>2024-07-24T06:02:27.000Z</time>
</trkpt>
<trkpt lat="46.0250680" lon="10.3649490">
	<ele>843.00</ele>
	<time>2024-07-24T06:02:28.000Z</time>
</trkpt>
<trkpt lat="46.0250590" lon="10.3649470">
	<ele>843.20</ele>
	<time>2024-07-24T06:02:29.000Z</time>
</trkpt>
<trkpt lat="46.0250560" lon="10.3649550">
	<ele>843.40</ele>
	<time>2024-07-24T06:02:30.000Z</time>
</trkpt>
<trkpt lat="46.0250550" lon="10.3649650">
	<ele>843.60</ele>
	<time>2024-07-24T06:02:31.000Z</time>
</trkpt>
<trkpt lat="46.0250520" lon="10.3649690">
	<ele>844.00</ele>
	<time>2024-07-24T06:02:32.000Z</time>
</trkpt>
<trkpt lat="46.0250480" lon="10.3649780">
	<ele>844.20</ele>
	<time>2024-07-24T06:02:33.000Z</time>
</trkpt>
<trkpt lat="46.0250440" lon="10.3649880">
	<ele>844.20</ele>
	<time>2024-07-24T06:02:34.000Z</time>
</trkpt>
<trkpt lat="46.0250380" lon="10.3649990">
	<ele>844.20</ele>
	<time>2024-07-24T06:02:35.000Z</time>
</trkpt>
<trkpt lat="46.0250350" lon="10.3650130">
	<ele>844.40</ele>
	<time>2024-07-24T06:02:36.000Z</time>
</trkpt>
<trkpt lat="46.0250350" lon="10.3650300">
	<ele>844.80</ele>
	<time>2024-07-24T06:02:37.000Z</time>
</trkpt>
<trkpt lat="46.0250310" lon="10.3650350">
	<ele>845.00</ele>
	<time>2024-07-24T06:02:38.000Z</time>
</trkpt>
<trkpt lat="46.0250250" lon="10.3650470">
	<ele>845.20</ele>
	<time>2024-07-24T06:02:39.000Z</time>
</trkpt>
<trkpt lat="46.0250220" lon="10.3650560">
	<ele>845.20</ele>
	<time>2024-07-24T06:02:40.000Z</time>
</trkpt>
<trkpt lat="46.0250180" lon="10.3650690">
	<ele>845.20</ele>
	<time>2024-07-24T06:02:41.000Z</time>
</trkpt>
<trkpt lat="46.0250130" lon="10.3650690">
	<ele>845.60</ele>
	<time>2024-07-24T06:02:42.000Z</time>
</trkpt>
<trkpt lat="46.0250080" lon="10.3650690">
	<ele>845.80</ele>
	<time>2024-07-24T06:02:43.000Z</time>
</trkpt>
<trkpt lat="46.0250010" lon="10.3650670">
	<ele>845.80</ele>
	<time>2024-07-24T06:02:44.000Z</time>
</trkpt>
<trkpt lat="46.0249940" lon="10.3650620">
	<ele>846.00</ele>
	<time>2024-07-24T06:02:45.000Z</time>
</trkpt>
<trkpt lat="46.0249890" lon="10.3650570">
	<ele>846.20</ele>
	<time>2024-07-24T06:02:46.000Z</time>
</trkpt>
<trkpt lat="46.0249810" lon="10.3650490">
	<ele>846.40</ele>
	<time>2024-07-24T06:02:47.000Z</time>
</trkpt>
<trkpt lat="46.0249780" lon="10.3650540">
	<ele>846.60</ele>
	<time>2024-07-24T06:02:48.000Z</time>
</trkpt>
<trkpt lat="46.0249780" lon="10.3650620">
	<ele>846.80</ele>
	<time>2024-07-24T06:02:49.000Z</time>
</trkpt>
<trkpt lat="46.0249750" lon="10.3650660">
	<ele>847.00</ele>
	<time>2024-07-24T06:02:50.000Z</time>
</trkpt>
<trkpt lat="46.0249720" lon="10.3650600">
	<ele>847.00</ele>
	<time>2024-07-24T06:02:51.000Z</time>
</trkpt>
<trkpt lat="46.0249650" lon="10.3650520">
	<ele>847.20</ele>
	<time>2024-07-24T06:02:52.000Z</time>
</trkpt>
<trkpt lat="46.0249520" lon="10.3650160">
	<ele>847.20</ele>
	<time>2024-07-24T06:02:53.000Z</time>
</trkpt>
<trkpt lat="46.0249420" lon="10.3649820">
	<ele>847.40</ele>
	<time>2024-07-24T06:02:54.000Z</time>
</trkpt>
<trkpt lat="46.0249190" lon="10.3649150">
	<ele>847.60</ele>
	<time>2024-07-24T06:02:55.000Z</time>
</trkpt>
<trkpt lat="46.0248890" lon="10.3648410">
	<ele>847.80</ele>
	<time>2024-07-24T06:02:56.000Z</time>
</trkpt>
<trkpt lat="46.0248720" lon="10.3648100">
	<ele>848.00</ele>
	<time>2024-07-24T06:02:57.000Z</time>
</trkpt>
<trkpt lat="46.0248660" lon="10.3647940">
	<ele>848.20</ele>
	<time>2024-07-24T06:02:58.000Z</time>
</trkpt>
<trkpt lat="46.0248620" lon="10.3647860">
	<ele>848.20</ele>
	<time>2024-07-24T06:02:59.000Z</time>
</trkpt>
<trkpt lat="46.0248650" lon="10.3647930">
	<ele>848.40</ele>
	<time>2024-07-24T06:03:00.000Z</time>
</trkpt>
<trkpt lat="46.0248660" lon="10.3647990">
	<ele>848.40</ele>
	<time>2024-07-24T06:03:01.000Z</time>
</trkpt>
<trkpt lat="46.0248640" lon="10.3648070">
	<ele>848.40</ele>
	<time>2024-07-24T06:03:02.000Z</time>
</trkpt>
<trkpt lat="46.0248610" lon="10.3648060">
	<ele>848.40</ele>
	<time>2024-07-24T06:03:03.000Z</time>
</trkpt>
<trkpt lat="46.0248560" lon="10.3648070">
	<ele>848.40</ele>
	<time>2024-07-24T06:03:04.000Z</time>
</trkpt>
<trkpt lat="46.0248520" lon="10.3648050">
	<ele>848.40</ele>
	<time>2024-07-24T06:03:05.000Z</time>
</trkpt>
<trkpt lat="46.0248430" lon="10.3648020">
	<ele>848.40</ele>
	<time>2024-07-24T06:03:06.000Z</time>
</trkpt>
<trkpt lat="46.0248350" lon="10.3647970">
	<ele>848.40</ele>
	<time>2024-07-24T06:03:07.000Z</time>
</trkpt>
<trkpt lat="46.0248300" lon="10.3647940">
	<ele>848.40</ele>
	<time>2024-07-24T06:03:08.000Z</time>
</trkpt>
<trkpt lat="46.0248230" lon="10.3647870">
	<ele>848.60</ele>
	<time>2024-07-24T06:03:09.000Z</time>
</trkpt>
<trkpt lat="46.0248140" lon="10.3647760">
	<ele>848.60</ele>
	<time>2024-07-24T06:03:10.000Z</time>
</trkpt>
<trkpt lat="46.0248050" lon="10.3647670">
	<ele>849.00</ele>
	<time>2024-07-24T06:03:11.000Z</time>
</trkpt>
<trkpt lat="46.0247990" lon="10.3647650">
	<ele>849.40</ele>
	<time>2024-07-24T06:03:13.000Z</time>
</trkpt>
<trkpt lat="46.0247980" lon="10.3647670">
	<ele>849.80</ele>
	<time>2024-07-24T06:03:14.000Z</time>
</trkpt>
<trkpt lat="46.0247990" lon="10.3647780">
	<ele>850.00</ele>
	<time>2024-07-24T06:03:15.000Z</time>
</trkpt>
<trkpt lat="46.0247990" lon="10.3648090">
	<ele>850.80</ele>
	<time>2024-07-24T06:03:20.000Z</time>
</trkpt>
<trkpt lat="46.0248100" lon="10.3648490">
	<ele>851.00</ele>
	<time>2024-07-24T06:03:21.000Z</time>
</trkpt>
<trkpt lat="46.0248180" lon="10.3648910">
	<ele>851.60</ele>
	<time>2024-07-24T06:03:23.000Z</time>
</trkpt>
<trkpt lat="46.0248970" lon="10.3650420">
	<ele>853.20</ele>
	<time>2024-07-24T06:03:34.000Z</time>
</trkpt>
<trkpt lat="46.0249710" lon="10.3651220">
	<ele>853.40</ele>
	<time>2024-07-24T06:03:35.000Z</time>
</trkpt>
<trkpt lat="46.0250420" lon="10.3651840">
	<ele>853.60</ele>
	<time>2024-07-24T06:03:37.000Z</time>
</trkpt>
<trkpt lat="46.0250390" lon="10.3651700">
	<ele>853.60</ele>
	<time>2024-07-24T06:03:38.000Z</time>
</trkpt>
<trkpt lat="46.0250490" lon="10.3651490">
	<ele>853.80</ele>
	<time>2024-07-24T06:03:39.000Z</time>
</trkpt>
<trkpt lat="46.0250920" lon="10.3651700">
	<ele>853.80</ele>
	<time>2024-07-24T06:03:40.000Z</time>
</trkpt>
<trkpt lat="46.0251130" lon="10.3651730">
	<ele>853.80</ele>
	<time>2024-07-24T06:03:41.000Z</time>
</trkpt>
<trkpt lat="46.0251390" lon="10.3651920">
	<ele>854.00</ele>
	<time>2024-07-24T06:03:42.000Z</time>
</trkpt>
<trkpt lat="46.0251560" lon="10.3651960">
	<ele>854.20</ele>
	<time>2024-07-24T06:03:43.000Z</time>
</trkpt>
<trkpt lat="46.0251700" lon="10.3652100">
	<ele>854.20</ele>
	<time>2024-07-24T06:03:44.000Z</time>
</trkpt>
<trkpt lat="46.0251860" lon="10.3652160">
	<ele>854.40</ele>
	<time>2024-07-24T06:03:45.000Z</time>
</trkpt>
<trkpt lat="46.0252050" lon="10.3652220">
	<ele>854.60</ele>
	<time>2024-07-24T06:03:46.000Z</time>
</trkpt>
<trkpt lat="46.0252200" lon="10.3652240">
	<ele>854.60</ele>
	<time>2024-07-24T06:03:47.000Z</time>
</trkpt>
<trkpt lat="46.0252380" lon="10.3652270">
	<ele>854.80</ele>
	<time>2024-07-24T06:03:48.000Z</time>
</trkpt>
<trkpt lat="46.0252490" lon="10.3652280">
	<ele>855.00</ele>
	<time>2024-07-24T06:03:49.000Z</time>
</trkpt>
<trkpt lat="46.0252520" lon="10.3652210">
	<ele>855.00</ele>
	<time>2024-07-24T06:03:50.000Z</time>
</trkpt>
<trkpt lat="46.0252520" lon="10.3652110">
	<ele>855.20</ele>
	<time>2024-07-24T06:03:51.000Z</time>
</trkpt>
<trkpt lat="46.0252500" lon="10.3651900">
	<ele>855.40</ele>
	<time>2024-07-24T06:03:52.000Z</time>
</trkpt>
<trkpt lat="46.0252550" lon="10.3651800">
	<ele>855.60</ele>
	<time>2024-07-24T06:03:53.000Z</time>
</trkpt>
<trkpt lat="46.0252640" lon="10.3651700">
	<ele>855.60</ele>
	<time>2024-07-24T06:03:54.000Z</time>
</trkpt>
<trkpt lat="46.0252700" lon="10.3651670">
	<ele>855.80</ele>
	<time>2024-07-24T06:03:55.000Z</time>
</trkpt>
<trkpt lat="46.0252740" lon="10.3651600">
	<ele>856.00</ele>
	<time>2024-07-24T06:03:56.000Z</time>
</trkpt>
<trkpt lat="46.0252750" lon="10.3651490">
	<ele>856.20</ele>
	<time>2024-07-24T06:03:57.000Z</time>
</trkpt>
<trkpt lat="46.0252760" lon="10.3651410">
	<ele>856.40</ele>
	<time>2024-07-24T06:03:58.000Z</time>
</trkpt>
<trkpt lat="46.0252730" lon="10.3651250">
	<ele>856.60</ele>
	<time>2024-07-24T06:03:59.000Z</time>
</trkpt>
<trkpt lat="46.0252760" lon="10.3651140">
	<ele>857.00</ele>
	<time>2024-07-24T06:04:00.000Z</time>
</trkpt>
<trkpt lat="46.0252850" lon="10.3651180">
	<ele>857.00</ele>
	<time>2024-07-24T06:04:01.000Z</time>
</trkpt>
<trkpt lat="46.0252880" lon="10.3651250">
	<ele>857.20</ele>
	<time>2024-07-24T06:04:02.000Z</time>
</trkpt>
<trkpt lat="46.0252920" lon="10.3651370">
	<ele>857.60</ele>
	<time>2024-07-24T06:04:03.000Z</time>
</trkpt>
<trkpt lat="46.0253010" lon="10.3651620">
	<ele>857.80</ele>
	<time>2024-07-24T06:04:04.000Z</time>
</trkpt>
<trkpt lat="46.0253230" lon="10.3652050">
	<ele>858.00</ele>
	<time>2024-07-24T06:04:05.000Z</time>
</trkpt>
<trkpt lat="46.0253540" lon="10.3652610">
	<ele>858.00</ele>
	<time>2024-07-24T06:04:06.000Z</time>
</trkpt>
<trkpt lat="46.0253690" lon="10.3652930">
	<ele>858.20</ele>
	<time>2024-07-24T06:04:07.000Z</time>
</trkpt>
<trkpt lat="46.0253950" lon="10.3653430">
	<ele>858.40</ele>
	<time>2024-07-24T06:04:08.000Z</time>
</trkpt>
<trkpt lat="46.0254170" lon="10.3653850">
	<ele>858.60</ele>
	<time>2024-07-24T06:04:09.000Z</time>
</trkpt>
<trkpt lat="46.0254440" lon="10.3654370">
	<ele>858.80</ele>
	<time>2024-07-24T06:04:10.000Z</time>
</trkpt>
<trkpt lat="46.0254730" lon="10.3655010">
	<ele>859.00</ele>
	<time>2024-07-24T06:04:11.000Z</time>
</trkpt>
<trkpt lat="46.0255280" lon="10.3656570">
	<ele>859.60</ele>
	<time>2024-07-24T06:04:15.000Z</time>
</trkpt>
<trkpt lat="46.0254980" lon="10.3656610">
	<ele>859.80</ele>
	<time>2024-07-24T06:04:16.000Z</time>
</trkpt>
<trkpt lat="46.0254740" lon="10.3656220">
	<ele>860.00</ele>
	<time>2024-07-24T06:04:17.000Z</time>
</trkpt>
<trkpt lat="46.0254740" lon="10.3656370">
	<ele>860.40</ele>
	<time>2024-07-24T06:04:18.000Z</time>
</trkpt>
<trkpt lat="46.0254580" lon="10.3655880">
	<ele>860.60</ele>
	<time>2024-07-24T06:04:19.000Z</time>
</trkpt>
<trkpt lat="46.0254090" lon="10.3654810">
	<ele>860.60</ele>
	<time>2024-07-24T06:04:20.000Z</time>
</trkpt>
<trkpt lat="46.0253120" lon="10.3653980">
	<ele>860.80</ele>
	<time>2024-07-24T06:04:21.000Z</time>
</trkpt>
<trkpt lat="46.0252190" lon="10.3653810">
	<ele>861.00</ele>
	<time>2024-07-24T06:04:22.000Z</time>
</trkpt>
<trkpt lat="46.0252200" lon="10.3653840">
	<ele>861.20</ele>
	<time>2024-07-24T06:04:23.000Z</time>
</trkpt>
<trkpt lat="46.0252580" lon="10.3654100">
	<ele>861.60</ele>
	<time>2024-07-24T06:04:24.000Z</time>
</trkpt>
<trkpt lat="46.0252720" lon="10.3654220">
	<ele>861.80</ele>
	<time>2024-07-24T06:04:25.000Z</time>
</trkpt>
<trkpt lat="46.0252790" lon="10.3654300">
	<ele>862.00</ele>
	<time>2024-07-24T06:04:26.000Z</time>
</trkpt>
<trkpt lat="46.0252840" lon="10.3654590">
	<ele>862.20</ele>
	<time>2024-07-24T06:04:27.000Z</time>
</trkpt>
<trkpt lat="46.0252820" lon="10.3654740">
	<ele>862.20</ele>
	<time>2024-07-24T06:04:28.000Z</time>
</trkpt>
<trkpt lat="46.0252710" lon="10.3654800">
	<ele>862.40</ele>
	<time>2024-07-24T06:04:29.000Z</time>
</trkpt>
<trkpt lat="46.0252700" lon="10.3654920">
	<ele>862.40</ele>
	<time>2024-07-24T06:04:30.000Z</time>
</trkpt>
<trkpt lat="46.0252700" lon="10.3655030">
	<ele>862.40</ele>
	<time>2024-07-24T06:04:31.000Z</time>
</trkpt>
<trkpt lat="46.0252680" lon="10.3655230">
	<ele>862.60</ele>
	<time>2024-07-24T06:04:32.000Z</time>
</trkpt>
<trkpt lat="46.0252720" lon="10.3655480">
	<ele>862.60</ele>
	<time>2024-07-24T06:04:33.000Z</time>
</trkpt>
<trkpt lat="46.0252710" lon="10.3655680">
	<ele>862.80</ele>
	<time>2024-07-24T06:04:34.000Z</time>
</trkpt>
<trkpt lat="46.0252790" lon="10.3655720">
	<ele>862.80</ele>
	<time>2024-07-24T06:04:35.000Z</time>
</trkpt>
<trkpt lat="46.0252820" lon="10.3655760">
	<ele>862.80</ele>
	<time>2024-07-24T06:04:36.000Z</time>
</trkpt>
<trkpt lat="46.0252930" lon="10.3655820">
	<ele>863.00</ele>
	<time>2024-07-24T06:04:37.000Z</time>
</trkpt>
<trkpt lat="46.0253020" lon="10.3655970">
	<ele>863.20</ele>
	<time>2024-07-24T06:04:38.000Z</time>
</trkpt>
<trkpt lat="46.0253140" lon="10.3656160">
	<ele>863.60</ele>
	<time>2024-07-24T06:04:39.000Z</time>
</trkpt>
<trkpt lat="46.0253320" lon="10.3656480">
	<ele>863.80</ele>
	<time>2024-07-24T06:04:40.000Z</time>
</trkpt>
<trkpt lat="46.0253530" lon="10.3656720">
	<ele>864.00</ele>
	<time>2024-07-24T06:04:41.000Z</time>
</trkpt>
<trkpt lat="46.0253660" lon="10.3656840">
	<ele>864.20</ele>
	<time>2024-07-24T06:04:42.000Z</time>
</trkpt>
<trkpt lat="46.0253850" lon="10.3656820">
	<ele>864.40</ele>
	<time>2024-07-24T06:04:43.000Z</time>
</trkpt>
<trkpt lat="46.0253970" lon="10.3656850">
	<ele>864.40</ele>
	<time>2024-07-24T06:04:44.000Z</time>
</trkpt>
<trkpt lat="46.0253970" lon="10.3656610">
	<ele>864.60</ele>
	<time>2024-07-24T06:04:45.000Z</time>
</trkpt>
<trkpt lat="46.0254010" lon="10.3656700">
	<ele>864.80</ele>
	<time>2024-07-24T06:04:46.000Z</time>
</trkpt>
<trkpt lat="46.0254070" lon="10.3656820">
	<ele>864.80</ele>
	<time>2024-07-24T06:04:47.000Z</time>
</trkpt>
<trkpt lat="46.0254050" lon="10.3656930">
	<ele>864.80</ele>
	<time>2024-07-24T06:04:48.000Z</time>
</trkpt>
<trkpt lat="46.0254080" lon="10.3657110">
	<ele>865.00</ele>
	<time>2024-07-24T06:04:49.000Z</time>
</trkpt>
<trkpt lat="46.0254200" lon="10.3657270">
	<ele>865.00</ele>
	<time>2024-07-24T06:04:50.000Z</time>
</trkpt>
<trkpt lat="46.0254280" lon="10.3657190">
	<ele>865.20</ele>
	<time>2024-07-24T06:04:51.000Z</time>
</trkpt>
<trkpt lat="46.0254400" lon="10.3657150">
	<ele>865.20</ele>
	<time>2024-07-24T06:04:52.000Z</time>
</trkpt>
<trkpt lat="46.0254500" lon="10.3657170">
	<ele>865.40</ele>
	<time>2024-07-24T06:04:53.000Z</time>
</trkpt>
<trkpt lat="46.0254590" lon="10.3657160">
	<ele>865.60</ele>
	<time>2024-07-24T06:04:54.000Z</time>
</trkpt>
<trkpt lat="46.0254680" lon="10.3657180">
	<ele>865.60</ele>
	<time>2024-07-24T06:04:55.000Z</time>
</trkpt>
<trkpt lat="46.0254850" lon="10.3657350">
	<ele>865.80</ele>
	<time>2024-07-24T06:04:56.000Z</time>
</trkpt>
<trkpt lat="46.0254990" lon="10.3657470">
	<ele>866.00</ele>
	<time>2024-07-24T06:04:57.000Z</time>
</trkpt>
<trkpt lat="46.0255090" lon="10.3657580">
	<ele>866.20</ele>
	<time>2024-07-24T06:04:58.000Z</time>
</trkpt>
<trkpt lat="46.0255180" lon="10.3657670">
	<ele>866.40</ele>
	<time>2024-07-24T06:04:59.000Z</time>
</trkpt>
<trkpt lat="46.0255180" lon="10.3657600">
	<ele>866.60</ele>
	<time>2024-07-24T06:05:00.000Z</time>
</trkpt>
<trkpt lat="46.0255130" lon="10.3657470">
	<ele>866.60</ele>
	<time>2024-07-24T06:05:01.000Z</time>
</trkpt>
<trkpt lat="46.0255060" lon="10.3657320">
	<ele>866.80</ele>
	<time>2024-07-24T06:05:02.000Z</time>
</trkpt>
<trkpt lat="46.0255040" lon="10.3657290">
	<ele>867.00</ele>
	<time>2024-07-24T06:05:03.000Z</time>
</trkpt>
<trkpt lat="46.0255090" lon="10.3657320">
	<ele>867.20</ele>
	<time>2024-07-24T06:05:04.000Z</time>
</trkpt>
<trkpt lat="46.0255190" lon="10.3657450">
	<ele>867.20</ele>
	<time>2024-07-24T06:05:05.000Z</time>
</trkpt>
<trkpt lat="46.0255280" lon="10.3657620">
	<ele>867.40</ele>
	<time>2024-07-24T06:05:06.000Z</time>
</trkpt>
<trkpt lat="46.0255410" lon="10.3657820">
	<ele>867.40</ele>
	<time>2024-07-24T06:05:07.000Z</time>
</trkpt>
<trkpt lat="46.0255490" lon="10.3657890">
	<ele>867.60</ele>
	<time>2024-07-24T06:05:08.000Z</time>
</trkpt>
<trkpt lat="46.0255580" lon="10.3657920">
	<ele>867.60</ele>
	<time>2024-07-24T06:05:09.000Z</time>
</trkpt>
<trkpt lat="46.0255710" lon="10.3657970">
	<ele>867.80</ele>
	<time>2024-07-24T06:05:10.000Z</time>
</trkpt>
<trkpt lat="46.0255870" lon="10.3657990">
	<ele>867.80</ele>
	<time>2024-07-24T06:05:11.000Z</time>
</trkpt>
<trkpt lat="46.0256020" lon="10.3658000">
	<ele>867.80</ele>
	<time>2024-07-24T06:05:12.000Z</time>
</trkpt>
<trkpt lat="46.0256180" lon="10.3658040">
	<ele>868.00</ele>
	<time>2024-07-24T06:05:13.000Z</time>
</trkpt>
<trkpt lat="46.0256300" lon="10.3658090">
	<ele>868.00</ele>
	<time>2024-07-24T06:05:14.000Z</time>
</trkpt>
<trkpt lat="46.0256390" lon="10.3658180">
	<ele>868.00</ele>
	<time>2024-07-24T06:05:15.000Z</time>
</trkpt>
<trkpt lat="46.0256490" lon="10.3658260">
	<ele>868.00</ele>
	<time>2024-07-24T06:05:16.000Z</time>
</trkpt>
<trkpt lat="46.0256600" lon="10.3658300">
	<ele>868.20</ele>
	<time>2024-07-24T06:05:17.000Z</time>
</trkpt>
<trkpt lat="46.0256720" lon="10.3658340">
	<ele>868.40</ele>
	<time>2024-07-24T06:05:18.000Z</time>
</trkpt>
<trkpt lat="46.0256880" lon="10.3658400">
	<ele>868.40</ele>
	<time>2024-07-24T06:05:19.000Z</time>
</trkpt>
<trkpt lat="46.0257020" lon="10.3658460">
	<ele>868.60</ele>
	<time>2024-07-24T06:05:20.000Z</time>
</trkpt>
<trkpt lat="46.0257160" lon="10.3658500">
	<ele>868.80</ele>
	<time>2024-07-24T06:05:21.000Z</time>
</trkpt>
<trkpt lat="46.0257190" lon="10.3658420">
	<ele>869.00</ele>
	<time>2024-07-24T06:05:22.000Z</time>
</trkpt>
<trkpt lat="46.0257290" lon="10.3658430">
	<ele>869.00</ele>
	<time>2024-07-24T06:05:23.000Z</time>
</trkpt>
<trkpt lat="46.0257390" lon="10.3658440">
	<ele>869.20</ele>
	<time>2024-07-24T06:05:24.000Z</time>
</trkpt>
<trkpt lat="46.0257480" lon="10.3658470">
	<ele>869.40</ele>
	<time>2024-07-24T06:05:25.000Z</time>
</trkpt>
<trkpt lat="46.0257590" lon="10.3658490">
	<ele>869.40</ele>
	<time>2024-07-24T06:05:26.000Z</time>
</trkpt>
<trkpt lat="46.0257750" lon="10.3658490">
	<ele>869.40</ele>
	<time>2024-07-24T06:05:27.000Z</time>
</trkpt>
<trkpt lat="46.0257930" lon="10.3658520">
	<ele>869.60</ele>
	<time>2024-07-24T06:05:28.000Z</time>
</trkpt>
<trkpt lat="46.0258070" lon="10.3658560">
	<ele>869.80</ele>
	<time>2024-07-24T06:05:29.000Z</time>
</trkpt>
<trkpt lat="46.0258220" lon="10.3658560">
	<ele>869.80</ele>
	<time>2024-07-24T06:05:30.000Z</time>
</trkpt>
<trkpt lat="46.0258380" lon="10.3658600">
	<ele>869.80</ele>
	<time>2024-07-24T06:05:31.000Z</time>
</trkpt>
<trkpt lat="46.0258520" lon="10.3658640">
	<ele>870.00</ele>
	<time>2024-07-24T06:05:32.000Z</time>
</trkpt>
<trkpt lat="46.0258630" lon="10.3658720">
	<ele>870.00</ele>
	<time>2024-07-24T06:05:33.000Z</time>
</trkpt>
<trkpt lat="46.0258770" lon="10.3658850">
	<ele>870.20</ele>
	<time>2024-07-24T06:05:34.000Z</time>
</trkpt>
<trkpt lat="46.0258840" lon="10.3658900">
	<ele>870.20</ele>
	<time>2024-07-24T06:05:35.000Z</time>
</trkpt>
<trkpt lat="46.0258960" lon="10.3658980">
	<ele>870.40</ele>
	<time>2024-07-24T06:05:36.000Z</time>
</trkpt>
<trkpt lat="46.0259170" lon="10.3659090">
	<ele>870.40</ele>
	<time>2024-07-24T06:05:37.000Z</time>
</trkpt>
<trkpt lat="46.0259360" lon="10.3659260">
	<ele>870.40</ele>
	<time>2024-07-24T06:05:38.000Z</time>
</trkpt>
<trkpt lat="46.0259470" lon="10.3659310">
	<ele>870.60</ele>
	<time>2024-07-24T06:05:39.000Z</time>
</trkpt>
<trkpt lat="46.0259590" lon="10.3659320">
	<ele>870.60</ele>
	<time>2024-07-24T06:05:40.000Z</time>
</trkpt>
<trkpt lat="46.0259700" lon="10.3659350">
	<ele>870.80</ele>
	<time>2024-07-24T06:05:41.000Z</time>
</trkpt>
<trkpt lat="46.0259780" lon="10.3659390">
	<ele>871.00</ele>
	<time>2024-07-24T06:05:42.000Z</time>
</trkpt>
<trkpt lat="46.0259860" lon="10.3659410">
	<ele>871.00</ele>
	<time>2024-07-24T06:05:43.000Z</time>
</trkpt>
<trkpt lat="46.0259940" lon="10.3659470">
	<ele>871.20</ele>
	<time>2024-07-24T06:05:44.000Z</time>
</trkpt>
<trkpt lat="46.0260030" lon="10.3659540">
	<ele>871.20</ele>
	<time>2024-07-24T06:05:45.000Z</time>
</trkpt>
<trkpt lat="46.0260060" lon="10.3659590">
	<ele>871.40</ele>
	<time>2024-07-24T06:05:46.000Z</time>
</trkpt>
<trkpt lat="46.0260150" lon="10.3659640">
	<ele>871.40</ele>
	<time>2024-07-24T06:05:47.000Z</time>
</trkpt>
<trkpt lat="46.0260250" lon="10.3659740">
	<ele>871.60</ele>
	<time>2024-07-24T06:05:48.000Z</time>
</trkpt>
<trkpt lat="46.0260350" lon="10.3659860">
	<ele>871.80</ele>
	<time>2024-07-24T06:05:49.000Z</time>
</trkpt>
<trkpt lat="46.0260410" lon="10.3659990">
	<ele>872.00</ele>
	<time>2024-07-24T06:05:50.000Z</time>
</trkpt>
<trkpt lat="46.0260410" lon="10.3660070">
	<ele>872.20</ele>
	<time>2024-07-24T06:05:51.000Z</time>
</trkpt>
<trkpt lat="46.0260390" lon="10.3660180">
	<ele>872.40</ele>
	<time>2024-07-24T06:05:52.000Z</time>
</trkpt>
<trkpt lat="46.0260400" lon="10.3660340">
	<ele>872.60</ele>
	<time>2024-07-24T06:05:53.000Z</time>
</trkpt>
<trkpt lat="46.0260350" lon="10.3660460">
	<ele>872.60</ele>
	<time>2024-07-24T06:05:54.000Z</time>
</trkpt>
<trkpt lat="46.0260300" lon="10.3660650">
	<ele>872.60</ele>
	<time>2024-07-24T06:05:55.000Z</time>
</trkpt>
<trkpt lat="46.0260270" lon="10.3660820">
	<ele>872.60</ele>
	<time>2024-07-24T06:05:56.000Z</time>
</trkpt>
<trkpt lat="46.0260240" lon="10.3660980">
	<ele>872.80</ele>
	<time>2024-07-24T06:05:57.000Z</time>
</trkpt>
<trkpt lat="46.0260170" lon="10.3661110">
	<ele>872.80</ele>
	<time>2024-07-24T06:05:58.000Z</time>
</trkpt>
<trkpt lat="46.0260120" lon="10.3661210">
	<ele>872.80</ele>
	<time>2024-07-24T06:05:59.000Z</time>
</trkpt>
<trkpt lat="46.0260070" lon="10.3661340">
	<ele>872.80</ele>
	<time>2024-07-24T06:06:00.000Z</time>
</trkpt>
<trkpt lat="46.0260070" lon="10.3661480">
	<ele>873.00</ele>
	<time>2024-07-24T06:06:01.000Z</time>
</trkpt>
<trkpt lat="46.0260060" lon="10.3661630">
	<ele>873.00</ele>
	<time>2024-07-24T06:06:02.000Z</time>
</trkpt>
<trkpt lat="46.0260050" lon="10.3661770">
	<ele>873.00</ele>
	<time>2024-07-24T06:06:03.000Z</time>
</trkpt>
<trkpt lat="46.0260030" lon="10.3661920">
	<ele>873.20</ele>
	<time>2024-07-24T06:06:04.000Z</time>
</trkpt>
<trkpt lat="46.0260000" lon="10.3662070">
	<ele>873.40</ele>
	<time>2024-07-24T06:06:05.000Z</time>
</trkpt>
<trkpt lat="46.0259950" lon="10.3662210">
	<ele>873.60</ele>
	<time>2024-07-24T06:06:06.000Z</time>
</trkpt>
<trkpt lat="46.0259880" lon="10.3662310">
	<ele>873.60</ele>
	<time>2024-07-24T06:06:07.000Z</time>
</trkpt>
<trkpt lat="46.0259810" lon="10.3662420">
	<ele>873.80</ele>
	<time>2024-07-24T06:06:08.000Z</time>
</trkpt>
<trkpt lat="46.0259730" lon="10.3662510">
	<ele>874.00</ele>
	<time>2024-07-24T06:06:09.000Z</time>
</trkpt>
<trkpt lat="46.0259640" lon="10.3662590">
	<ele>874.20</ele>
	<time>2024-07-24T06:06:10.000Z</time>
</trkpt>
<trkpt lat="46.0259580" lon="10.3662680">
	<ele>874.20</ele>
	<time>2024-07-24T06:06:11.000Z</time>
</trkpt>
<trkpt lat="46.0259480" lon="10.3662710">
	<ele>874.40</ele>
	<time>2024-07-24T06:06:12.000Z</time>
</trkpt>
<trkpt lat="46.0259410" lon="10.3662760">
	<ele>874.40</ele>
	<time>2024-07-24T06:06:13.000Z</time>
</trkpt>
<trkpt lat="46.0259350" lon="10.3662830">
	<ele>874.60</ele>
	<time>2024-07-24T06:06:14.000Z</time>
</trkpt>
<trkpt lat="46.0259300" lon="10.3662890">
	<ele>874.80</ele>
	<time>2024-07-24T06:06:15.000Z</time>
</trkpt>
<trkpt lat="46.0259200" lon="10.3662900">
	<ele>874.80</ele>
	<time>2024-07-24T06:06:16.000Z</time>
</trkpt>
<trkpt lat="46.0259140" lon="10.3662930">
	<ele>874.80</ele>
	<time>2024-07-24T06:06:17.000Z</time>
</trkpt>
<trkpt lat="46.0259030" lon="10.3662960">
	<ele>875.00</ele>
	<time>2024-07-24T06:06:18.000Z</time>
</trkpt>
<trkpt lat="46.0258930" lon="10.3662990">
	<ele>875.00</ele>
	<time>2024-07-24T06:06:19.000Z</time>
</trkpt>
<trkpt lat="46.0258790" lon="10.3663010">
	<ele>875.00</ele>
	<time>2024-07-24T06:06:20.000Z</time>
</trkpt>
<trkpt lat="46.0258800" lon="10.3663100">
	<ele>875.20</ele>
	<time>2024-07-24T06:06:21.000Z</time>
</trkpt>
<trkpt lat="46.0258690" lon="10.3663050">
	<ele>875.20</ele>
	<time>2024-07-24T06:06:22.000Z</time>
</trkpt>
<trkpt lat="46.0258590" lon="10.3663000">
	<ele>875.40</ele>
	<time>2024-07-24T06:06:23.000Z</time>
</trkpt>
<trkpt lat="46.0258560" lon="10.3663020">
	<ele>875.60</ele>
	<time>2024-07-24T06:06:24.000Z</time>
</trkpt>
<trkpt lat="46.0258580" lon="10.3663040">
	<ele>875.80</ele>
	<time>2024-07-24T06:06:25.000Z</time>
</trkpt>
<trkpt lat="46.0258600" lon="10.3663050">
	<ele>875.80</ele>
	<time>2024-07-24T06:06:26.000Z</time>
</trkpt>
<trkpt lat="46.0258620" lon="10.3663070">
	<ele>875.80</ele>
	<time>2024-07-24T06:06:27.000Z</time>
</trkpt>
<trkpt lat="46.0258640" lon="10.3663080">
	<ele>876.00</ele>
	<time>2024-07-24T06:06:28.000Z</time>
</trkpt>
<trkpt lat="46.0258670" lon="10.3663100">
	<ele>876.00</ele>
	<time>2024-07-24T06:06:29.000Z</time>
</trkpt>
<trkpt lat="46.0258690" lon="10.3663110">
	<ele>876.00</ele>
	<time>2024-07-24T06:06:30.000Z</time>
</trkpt>
<trkpt lat="46.0258690" lon="10.3663120">
	<ele>876.00</ele>
	<time>2024-07-24T06:06:31.000Z</time>
</trkpt>
<trkpt lat="46.0258670" lon="10.3663120">
	<ele>876.00</ele>
	<time>2024-07-24T06:06:32.000Z</time>
</trkpt>
<trkpt lat="46.0258640" lon="10.3663120">
	<ele>876.00</ele>
	<time>2024-07-24T06:06:33.000Z</time>
</trkpt>
<trkpt lat="46.0258500" lon="10.3662960">
	<ele>876.00</ele>
	<time>2024-07-24T06:06:34.000Z</time>
</trkpt>
<trkpt lat="46.0258430" lon="10.3662910">
	<ele>876.00</ele>
	<time>2024-07-24T06:06:35.000Z</time>
</trkpt>
<trkpt lat="46.0258390" lon="10.3662910">
	<ele>875.80</ele>
	<time>2024-07-24T06:06:36.000Z</time>
</trkpt>
<trkpt lat="46.0258350" lon="10.3662900">
	<ele>875.80</ele>
	<time>2024-07-24T06:06:37.000Z</time>
</trkpt>
<trkpt lat="46.0258210" lon="10.3662820">
	<ele>875.80</ele>
	<time>2024-07-24T06:06:38.000Z</time>
</trkpt>
<trkpt lat="46.0258110" lon="10.3662860">
	<ele>875.80</ele>
	<time>2024-07-24T06:06:39.000Z</time>
</trkpt>
<trkpt lat="46.0258060" lon="10.3662900">
	<ele>875.80</ele>
	<time>2024-07-24T06:06:40.000Z</time>
</trkpt>
<trkpt lat="46.0258030" lon="10.3662910">
	<ele>875.80</ele>
	<time>2024-07-24T06:06:41.000Z</time>
</trkpt>
<trkpt lat="46.0258030" lon="10.3662920">
	<ele>876.00</ele>
	<time>2024-07-24T06:06:42.000Z</time>
</trkpt>
<trkpt lat="46.0258030" lon="10.3662930">
	<ele>876.00</ele>
	<time>2024-07-24T06:06:43.000Z</time>
</trkpt>
<trkpt lat="46.0258030" lon="10.3662950">
	<ele>876.20</ele>
	<time>2024-07-24T06:06:44.000Z</time>
</trkpt>
<trkpt lat="46.0258020" lon="10.3662960">
	<ele>876.20</ele>
	<time>2024-07-24T06:06:45.000Z</time>
</trkpt>
<trkpt lat="46.0258000" lon="10.3662960">
	<ele>876.40</ele>
	<time>2024-07-24T06:06:46.000Z</time>
</trkpt>
<trkpt lat="46.0257990" lon="10.3662940">
	<ele>876.40</ele>
	<time>2024-07-24T06:06:47.000Z</time>
</trkpt>
<trkpt lat="46.0257990" lon="10.3662940">
	<ele>876.40</ele>
	<time>2024-07-24T06:06:48.000Z</time>
</trkpt>
<trkpt lat="46.0257950" lon="10.3662920">
	<ele>876.40</ele>
	<time>2024-07-24T06:06:49.000Z</time>
</trkpt>
<trkpt lat="46.0257910" lon="10.3662920">
	<ele>876.40</ele>
	<time>2024-07-24T06:06:50.000Z</time>
</trkpt>
<trkpt lat="46.0257840" lon="10.3662960">
	<ele>876.40</ele>
	<time>2024-07-24T06:06:51.000Z</time>
</trkpt>
<trkpt lat="46.0257760" lon="10.3662980">
	<ele>876.40</ele>
	<time>2024-07-24T06:06:52.000Z</time>
</trkpt>
<trkpt lat="46.0257660" lon="10.3663010">
	<ele>876.40</ele>
	<time>2024-07-24T06:06:53.000Z</time>
</trkpt>
<trkpt lat="46.0257580" lon="10.3663050">
	<ele>876.60</ele>
	<time>2024-07-24T06:06:54.000Z</time>
</trkpt>
<trkpt lat="46.0257500" lon="10.3663070">
	<ele>876.60</ele>
	<time>2024-07-24T06:06:55.000Z</time>
</trkpt>
<trkpt lat="46.0257410" lon="10.3663050">
	<ele>876.80</ele>
	<time>2024-07-24T06:06:56.000Z</time>
</trkpt>
<trkpt lat="46.0257310" lon="10.3663060">
	<ele>876.80</ele>
	<time>2024-07-24T06:06:57.000Z</time>
</trkpt>
<trkpt lat="46.0257230" lon="10.3663110">
	<ele>877.00</ele>
	<time>2024-07-24T06:06:58.000Z</time>
</trkpt>
<trkpt lat="46.0257130" lon="10.3663150">
	<ele>877.00</ele>
	<time>2024-07-24T06:06:59.000Z</time>
</trkpt>
<trkpt lat="46.0257020" lon="10.3663190">
	<ele>877.20</ele>
	<time>2024-07-24T06:07:00.000Z</time>
</trkpt>
<trkpt lat="46.0256890" lon="10.3663200">
	<ele>877.20</ele>
	<time>2024-07-24T06:07:01.000Z</time>
</trkpt>
<trkpt lat="46.0256780" lon="10.3663210">
	<ele>877.40</ele>
	<time>2024-07-24T06:07:02.000Z</time>
</trkpt>
<trkpt lat="46.0256640" lon="10.3663190">
	<ele>877.40</ele>
	<time>2024-07-24T06:07:03.000Z</time>
</trkpt>
<trkpt lat="46.0256530" lon="10.3663230">
	<ele>877.40</ele>
	<time>2024-07-24T06:07:04.000Z</time>
</trkpt>
<trkpt lat="46.0256420" lon="10.3663290">
	<ele>877.60</ele>
	<time>2024-07-24T06:07:05.000Z</time>
</trkpt>
<trkpt lat="46.0256350" lon="10.3663370">
	<ele>877.80</ele>
	<time>2024-07-24T06:07:06.000Z</time>
</trkpt>
<trkpt lat="46.0256260" lon="10.3663410">
	<ele>877.80</ele>
	<time>2024-07-24T06:07:07.000Z</time>
</trkpt>
<trkpt lat="46.0256070" lon="10.3663400">
	<ele>878.00</ele>
	<time>2024-07-24T06:07:08.000Z</time>
</trkpt>
<trkpt lat="46.0255980" lon="10.3663480">
	<ele>878.00</ele>
	<time>2024-07-24T06:07:09.000Z</time>
</trkpt>
<trkpt lat="46.0255880" lon="10.3663600">
	<ele>878.20</ele>
	<time>2024-07-24T06:07:10.000Z</time>
</trkpt>
<trkpt lat="46.0255730" lon="10.3663640">
	<ele>878.20</ele>
	<time>2024-07-24T06:07:11.000Z</time>
</trkpt>
<trkpt lat="46.0255620" lon="10.3663690">
	<ele>878.40</ele>
	<time>2024-07-24T06:07:12.000Z</time>
</trkpt>
<trkpt lat="46.0255540" lon="10.3663720">
	<ele>878.60</ele>
	<time>2024-07-24T06:07:13.000Z</time>
</trkpt>
<trkpt lat="46.0255450" lon="10.3663740">
	<ele>878.80</ele>
	<time>2024-07-24T06:07:14.000Z</time>
</trkpt>
<trkpt lat="46.0255390" lon="10.3663810">
	<ele>879.00</ele>
	<time>2024-07-24T06:07:15.000Z</time>
</trkpt>
<trkpt lat="46.0255290" lon="10.3663850">
	<ele>879.00</ele>
	<time>2024-07-24T06:07:16.000Z</time>
</trkpt>
<trkpt lat="46.0255140" lon="10.3663880">
	<ele>879.20</ele>
	<time>2024-07-24T06:07:17.000Z</time>
</trkpt>
<trkpt lat="46.0255100" lon="10.3663920">
	<ele>879.40</ele>
	<time>2024-07-24T06:07:18.000Z</time>
</trkpt>
<trkpt lat="46.0255060" lon="10.3664100">
	<ele>879.40</ele>
	<time>2024-07-24T06:07:19.000Z</time>
</trkpt>
<trkpt lat="46.0254970" lon="10.3664180">
	<ele>879.40</ele>
	<time>2024-07-24T06:07:20.000Z</time>
</trkpt>
<trkpt lat="46.0254840" lon="10.3664180">
	<ele>879.60</ele>
	<time>2024-07-24T06:07:21.000Z</time>
</trkpt>
<trkpt lat="46.0254720" lon="10.3664210">
	<ele>879.60</ele>
	<time>2024-07-24T06:07:22.000Z</time>
</trkpt>
<trkpt lat="46.0254570" lon="10.3664210">
	<ele>879.80</ele>
	<time>2024-07-24T06:07:23.000Z</time>
</trkpt>
<trkpt lat="46.0254440" lon="10.3664220">
	<ele>880.00</ele>
	<time>2024-07-24T06:07:24.000Z</time>
</trkpt>
<trkpt lat="46.0254280" lon="10.3664150">
	<ele>880.20</ele>
	<time>2024-07-24T06:07:25.000Z</time>
</trkpt>
<trkpt lat="46.0254160" lon="10.3664160">
	<ele>880.20</ele>
	<time>2024-07-24T06:07:26.000Z</time>
</trkpt>
<trkpt lat="46.0254010" lon="10.3664150">
	<ele>880.40</ele>
	<time>2024-07-24T06:07:27.000Z</time>
</trkpt>
<trkpt lat="46.0253870" lon="10.3664090">
	<ele>880.40</ele>
	<time>2024-07-24T06:07:28.000Z</time>
</trkpt>
<trkpt lat="46.0253720" lon="10.3664020">
	<ele>880.40</ele>
	<time>2024-07-24T06:07:29.000Z</time>
</trkpt>
<trkpt lat="46.0253540" lon="10.3663900">
	<ele>880.60</ele>
	<time>2024-07-24T06:07:30.000Z</time>
</trkpt>
<trkpt lat="46.0253400" lon="10.3663840">
	<ele>880.60</ele>
	<time>2024-07-24T06:07:31.000Z</time>
</trkpt>
<trkpt lat="46.0253280" lon="10.3663850">
	<ele>880.80</ele>
	<time>2024-07-24T06:07:32.000Z</time>
</trkpt>
<trkpt lat="46.0253160" lon="10.3663830">
	<ele>880.80</ele>
	<time>2024-07-24T06:07:33.000Z</time>
</trkpt>
<trkpt lat="46.0253070" lon="10.3663880">
	<ele>881.00</ele>
	<time>2024-07-24T06:07:34.000Z</time>
</trkpt>
<trkpt lat="46.0252970" lon="10.3663930">
	<ele>881.20</ele>
	<time>2024-07-24T06:07:35.000Z</time>
</trkpt>
<trkpt lat="46.0252860" lon="10.3663950">
	<ele>881.20</ele>
	<time>2024-07-24T06:07:36.000Z</time>
</trkpt>
<trkpt lat="46.0252760" lon="10.3664060">
	<ele>881.40</ele>
	<time>2024-07-24T06:07:37.000Z</time>
</trkpt>
<trkpt lat="46.0252630" lon="10.3664140">
	<ele>881.40</ele>
	<time>2024-07-24T06:07:38.000Z</time>
</trkpt>
<trkpt lat="46.0252450" lon="10.3664120">
	<ele>881.60</ele>
	<time>2024-07-24T06:07:39.000Z</time>
</trkpt>
<trkpt lat="46.0252260" lon="10.3664130">
	<ele>881.80</ele>
	<time>2024-07-24T06:07:40.000Z</time>
</trkpt>
<trkpt lat="46.0252100" lon="10.3664180">
	<ele>881.80</ele>
	<time>2024-07-24T06:07:41.000Z</time>
</trkpt>
<trkpt lat="46.0251970" lon="10.3664190">
	<ele>882.00</ele>
	<time>2024-07-24T06:07:42.000Z</time>
</trkpt>
<trkpt lat="46.0251790" lon="10.3664080">
	<ele>882.00</ele>
	<time>2024-07-24T06:07:43.000Z</time>
</trkpt>
<trkpt lat="46.0251650" lon="10.3664040">
	<ele>882.20</ele>
	<time>2024-07-24T06:07:44.000Z</time>
</trkpt>
<trkpt lat="46.0251480" lon="10.3664030">
	<ele>882.20</ele>
	<time>2024-07-24T06:07:45.000Z</time>
</trkpt>
<trkpt lat="46.0251310" lon="10.3664060">
	<ele>882.20</ele>
	<time>2024-07-24T06:07:46.000Z</time>
</trkpt>
<trkpt lat="46.0251220" lon="10.3664080">
	<ele>882.40</ele>
	<time>2024-07-24T06:07:47.000Z</time>
</trkpt>
<trkpt lat="46.0251140" lon="10.3664150">
	<ele>882.40</ele>
	<time>2024-07-24T06:07:48.000Z</time>
</trkpt>
<trkpt lat="46.0251050" lon="10.3664210">
	<ele>882.60</ele>
	<time>2024-07-24T06:07:49.000Z</time>
</trkpt>
<trkpt lat="46.0250980" lon="10.3664250">
	<ele>882.80</ele>
	<time>2024-07-24T06:07:50.000Z</time>
</trkpt>
<trkpt lat="46.0250860" lon="10.3664310">
	<ele>882.80</ele>
	<time>2024-07-24T06:07:51.000Z</time>
</trkpt>
<trkpt lat="46.0250770" lon="10.3664350">
	<ele>883.00</ele>
	<time>2024-07-24T06:07:52.000Z</time>
</trkpt>
<trkpt lat="46.0250630" lon="10.3664400">
	<ele>883.20</ele>
	<time>2024-07-24T06:07:53.000Z</time>
</trkpt>
<trkpt lat="46.0250540" lon="10.3664380">
	<ele>883.20</ele>
	<time>2024-07-24T06:07:54.000Z</time>
</trkpt>
<trkpt lat="46.0250450" lon="10.3664380">
	<ele>883.40</ele>
	<time>2024-07-24T06:07:55.000Z</time>
</trkpt>
<trkpt lat="46.0250370" lon="10.3664420">
	<ele>883.40</ele>
	<time>2024-07-24T06:07:56.000Z</time>
</trkpt>
<trkpt lat="46.0250260" lon="10.3664450">
	<ele>883.60</ele>
	<time>2024-07-24T06:07:57.000Z</time>
</trkpt>
<trkpt lat="46.0250110" lon="10.3664440">
	<ele>883.80</ele>
	<time>2024-07-24T06:07:58.000Z</time>
</trkpt>
<trkpt lat="46.0249960" lon="10.3664450">
	<ele>883.80</ele>
	<time>2024-07-24T06:07:59.000Z</time>
</trkpt>
<trkpt lat="46.0249840" lon="10.3664490">
	<ele>884.00</ele>
	<time>2024-07-24T06:08:00.000Z</time>
</trkpt>
<trkpt lat="46.0249770" lon="10.3664600">
	<ele>884.00</ele>
	<time>2024-07-24T06:08:01.000Z</time>
</trkpt>
<trkpt lat="46.0249730" lon="10.3664770">
	<ele>884.20</ele>
	<time>2024-07-24T06:08:02.000Z</time>
</trkpt>
<trkpt lat="46.0249630" lon="10.3664830">
	<ele>884.20</ele>
	<time>2024-07-24T06:08:03.000Z</time>
</trkpt>
<trkpt lat="46.0249500" lon="10.3664890">
	<ele>884.40</ele>
	<time>2024-07-24T06:08:04.000Z</time>
</trkpt>
<trkpt lat="46.0249350" lon="10.3664900">
	<ele>884.60</ele>
	<time>2024-07-24T06:08:05.000Z</time>
</trkpt>
<trkpt lat="46.0249240" lon="10.3664940">
	<ele>884.80</ele>
	<time>2024-07-24T06:08:06.000Z</time>
</trkpt>
<trkpt lat="46.0249160" lon="10.3665050">
	<ele>884.80</ele>
	<time>2024-07-24T06:08:07.000Z</time>
</trkpt>
<trkpt lat="46.0249060" lon="10.3665080">
	<ele>885.00</ele>
	<time>2024-07-24T06:08:08.000Z</time>
</trkpt>
<trkpt lat="46.0248950" lon="10.3665100">
	<ele>885.00</ele>
	<time>2024-07-24T06:08:09.000Z</time>
</trkpt>
<trkpt lat="46.0248850" lon="10.3665120">
	<ele>885.20</ele>
	<time>2024-07-24T06:08:10.000Z</time>
</trkpt>
<trkpt lat="46.0248720" lon="10.3665130">
	<ele>885.40</ele>
	<time>2024-07-24T06:08:11.000Z</time>
</trkpt>
<trkpt lat="46.0248580" lon="10.3665140">
	<ele>885.60</ele>
	<time>2024-07-24T06:08:12.000Z</time>
</trkpt>
<trkpt lat="46.0248440" lon="10.3665180">
	<ele>885.60</ele>
	<time>2024-07-24T06:08:13.000Z</time>
</trkpt>
<trkpt lat="46.0248360" lon="10.3665280">
	<ele>885.60</ele>
	<time>2024-07-24T06:08:14.000Z</time>
</trkpt>
<trkpt lat="46.0248300" lon="10.3665410">
	<ele>885.80</ele>
	<time>2024-07-24T06:08:15.000Z</time>
</trkpt>
<trkpt lat="46.0248210" lon="10.3665480">
	<ele>885.80</ele>
	<time>2024-07-24T06:08:16.000Z</time>
</trkpt>
<trkpt lat="46.0248120" lon="10.3665560">
	<ele>885.80</ele>
	<time>2024-07-24T06:08:17.000Z</time>
</trkpt>
<trkpt lat="46.0247990" lon="10.3665620">
	<ele>886.00</ele>
	<time>2024-07-24T06:08:18.000Z</time>
</trkpt>
<trkpt lat="46.0247880" lon="10.3665680">
	<ele>886.20</ele>
	<time>2024-07-24T06:08:19.000Z</time>
</trkpt>
<trkpt lat="46.0247780" lon="10.3665750">
	<ele>886.40</ele>
	<time>2024-07-24T06:08:20.000Z</time>
</trkpt>
<trkpt lat="46.0247660" lon="10.3665770">
	<ele>886.40</ele>
	<time>2024-07-24T06:08:21.000Z</time>
</trkpt>
<trkpt lat="46.0247540" lon="10.3665770">
	<ele>886.40</ele>
	<time>2024-07-24T06:08:22.000Z</time>
</trkpt>
<trkpt lat="46.0247470" lon="10.3665860">
	<ele>886.60</ele>
	<time>2024-07-24T06:08:23.000Z</time>
</trkpt>
<trkpt lat="46.0247370" lon="10.3665950">
	<ele>886.60</ele>
	<time>2024-07-24T06:08:24.000Z</time>
</trkpt>
<trkpt lat="46.0247260" lon="10.3665980">
	<ele>886.80</ele>
	<time>2024-07-24T06:08:25.000Z</time>
</trkpt>
<trkpt lat="46.0247110" lon="10.3665980">
	<ele>886.80</ele>
	<time>2024-07-24T06:08:26.000Z</time>
</trkpt>
<trkpt lat="46.0246950" lon="10.3666020">
	<ele>887.00</ele>
	<time>2024-07-24T06:08:27.000Z</time>
</trkpt>
<trkpt lat="46.0246830" lon="10.3666090">
	<ele>887.00</ele>
	<time>2024-07-24T06:08:28.000Z</time>
</trkpt>
<trkpt lat="46.0246730" lon="10.3666140">
	<ele>887.00</ele>
	<time>2024-07-24T06:08:29.000Z</time>
</trkpt>
<trkpt lat="46.0246660" lon="10.3666220">
	<ele>887.00</ele>
	<time>2024-07-24T06:08:30.000Z</time>
</trkpt>
<trkpt lat="46.0246580" lon="10.3666280">
	<ele>887.20</ele>
	<time>2024-07-24T06:08:31.000Z</time>
</trkpt>
<trkpt lat="46.0246460" lon="10.3666320">
	<ele>887.40</ele>
	<time>2024-07-24T06:08:32.000Z</time>
</trkpt>
<trkpt lat="46.0246290" lon="10.3666390">
	<ele>887.60</ele>
	<time>2024-07-24T06:08:33.000Z</time>
</trkpt>
<trkpt lat="46.0246150" lon="10.3666400">
	<ele>887.60</ele>
	<time>2024-07-24T06:08:34.000Z</time>
</trkpt>
<trkpt lat="46.0246070" lon="10.3666460">
	<ele>887.80</ele>
	<time>2024-07-24T06:08:35.000Z</time>
</trkpt>
<trkpt lat="46.0246020" lon="10.3666610">
	<ele>887.80</ele>
	<time>2024-07-24T06:08:36.000Z</time>
</trkpt>
<trkpt lat="46.0245910" lon="10.3666690">
	<ele>888.00</ele>
	<time>2024-07-24T06:08:37.000Z</time>
</trkpt>
<trkpt lat="46.0245860" lon="10.3666860">
	<ele>888.00</ele>
	<time>2024-07-24T06:08:38.000Z</time>
</trkpt>
<trkpt lat="46.0245810" lon="10.3666970">
	<ele>888.00</ele>
	<time>2024-07-24T06:08:39.000Z</time>
</trkpt>
<trkpt lat="46.0245710" lon="10.3666980">
	<ele>888.00</ele>
	<time>2024-07-24T06:08:40.000Z</time>
</trkpt>
<trkpt lat="46.0245550" lon="10.3666910">
	<ele>888.20</ele>
	<time>2024-07-24T06:08:41.000Z</time>
</trkpt>
<trkpt lat="46.0245400" lon="10.3666880">
	<ele>888.20</ele>
	<time>2024-07-24T06:08:42.000Z</time>
</trkpt>
<trkpt lat="46.0245320" lon="10.3666930">
	<ele>888.20</ele>
	<time>2024-07-24T06:08:43.000Z</time>
</trkpt>
<trkpt lat="46.0245220" lon="10.3667010">
	<ele>888.40</ele>
	<time>2024-07-24T06:08:44.000Z</time>
</trkpt>
<trkpt lat="46.0245130" lon="10.3667050">
	<ele>888.60</ele>
	<time>2024-07-24T06:08:45.000Z</time>
</trkpt>
<trkpt lat="46.0245020" lon="10.3667050">
	<ele>888.80</ele>
	<time>2024-07-24T06:08:46.000Z</time>
</trkpt>
<trkpt lat="46.0244930" lon="10.3667130">
	<ele>889.00</ele>
	<time>2024-07-24T06:08:47.000Z</time>
</trkpt>
<trkpt lat="46.0244870" lon="10.3667240">
	<ele>889.00</ele>
	<time>2024-07-24T06:08:48.000Z</time>
</trkpt>
<trkpt lat="46.0244790" lon="10.3667300">
	<ele>889.20</ele>
	<time>2024-07-24T06:08:49.000Z</time>
</trkpt>
<trkpt lat="46.0244730" lon="10.3667470">
	<ele>889.20</ele>
	<time>2024-07-24T06:08:50.000Z</time>
</trkpt>
<trkpt lat="46.0244670" lon="10.3667620">
	<ele>889.20</ele>
	<time>2024-07-24T06:08:51.000Z</time>
</trkpt>
<trkpt lat="46.0244650" lon="10.3667770">
	<ele>889.40</ele>
	<time>2024-07-24T06:08:52.000Z</time>
</trkpt>
<trkpt lat="46.0244690" lon="10.3667990">
	<ele>889.40</ele>
	<time>2024-07-24T06:08:53.000Z</time>
</trkpt>
<trkpt lat="46.0244680" lon="10.3668100">
	<ele>889.40</ele>
	<time>2024-07-24T06:08:54.000Z</time>
</trkpt>
<trkpt lat="46.0244680" lon="10.3668210">
	<ele>889.40</ele>
	<time>2024-07-24T06:08:55.000Z</time>
</trkpt>
<trkpt lat="46.0244740" lon="10.3668320">
	<ele>889.60</ele>
	<time>2024-07-24T06:08:56.000Z</time>
</trkpt>
<trkpt lat="46.0244740" lon="10.3668310">
	<ele>889.80</ele>
	<time>2024-07-24T06:08:57.000Z</time>
</trkpt>
<trkpt lat="46.0244740" lon="10.3668330">
	<ele>889.80</ele>
	<time>2024-07-24T06:08:58.000Z</time>
</trkpt>
<trkpt lat="46.0244770" lon="10.3668370">
	<ele>890.00</ele>
	<time>2024-07-24T06:08:59.000Z</time>
</trkpt>
<trkpt lat="46.0244820" lon="10.3668390">
	<ele>890.00</ele>
	<time>2024-07-24T06:09:00.000Z</time>
</trkpt>
<trkpt lat="46.0244850" lon="10.3668330">
	<ele>890.00</ele>
	<time>2024-07-24T06:09:01.000Z</time>
</trkpt>
<trkpt lat="46.0244900" lon="10.3668240">
	<ele>890.20</ele>
	<time>2024-07-24T06:09:02.000Z</time>
</trkpt>
<trkpt lat="46.0245010" lon="10.3668260">
	<ele>890.20</ele>
	<time>2024-07-24T06:09:03.000Z</time>
</trkpt>
<trkpt lat="46.0245090" lon="10.3668270">
	<ele>890.20</ele>
	<time>2024-07-24T06:09:04.000Z</time>
</trkpt>
<trkpt lat="46.0245080" lon="10.3668310">
	<ele>890.20</ele>
	<time>2024-07-24T06:09:05.000Z</time>
</trkpt>
<trkpt lat="46.0245080" lon="10.3668390">
	<ele>890.40</ele>
	<time>2024-07-24T06:09:06.000Z</time>
</trkpt>
<trkpt lat="46.0245020" lon="10.3668400">
	<ele>890.40</ele>
	<time>2024-07-24T06:09:07.000Z</time>
</trkpt>
<trkpt lat="46.0244910" lon="10.3668260">
	<ele>890.40</ele>
	<time>2024-07-24T06:09:08.000Z</time>
</trkpt>
<trkpt lat="46.0244830" lon="10.3668160">
	<ele>890.60</ele>
	<time>2024-07-24T06:09:09.000Z</time>
</trkpt>
<trkpt lat="46.0244820" lon="10.3668180">
	<ele>890.80</ele>
	<time>2024-07-24T06:09:10.000Z</time>
</trkpt>
<trkpt lat="46.0244880" lon="10.3668280">
	<ele>890.80</ele>
	<time>2024-07-24T06:09:11.000Z</time>
</trkpt>
<trkpt lat="46.0244980" lon="10.3668390">
	<ele>890.80</ele>
	<time>2024-07-24T06:09:12.000Z</time>
</trkpt>
<trkpt lat="46.0244990" lon="10.3668390">
	<ele>890.80</ele>
	<time>2024-07-24T06:09:13.000Z</time>
</trkpt>
<trkpt lat="46.0245010" lon="10.3668400">
	<ele>890.80</ele>
	<time>2024-07-24T06:09:14.000Z</time>
</trkpt>
<trkpt lat="46.0245100" lon="10.3668360">
	<ele>890.80</ele>
	<time>2024-07-24T06:09:15.000Z</time>
</trkpt>
<trkpt lat="46.0245280" lon="10.3668340">
	<ele>890.80</ele>
	<time>2024-07-24T06:09:16.000Z</time>
</trkpt>
<trkpt lat="46.0245450" lon="10.3668350">
	<ele>890.80</ele>
	<time>2024-07-24T06:09:17.000Z</time>
</trkpt>
<trkpt lat="46.0245530" lon="10.3668300">
	<ele>890.80</ele>
	<time>2024-07-24T06:09:18.000Z</time>
</trkpt>
<trkpt lat="46.0245600" lon="10.3668200">
	<ele>890.80</ele>
	<time>2024-07-24T06:09:19.000Z</time>
</trkpt>
<trkpt lat="46.0245680" lon="10.3668110">
	<ele>891.00</ele>
	<time>2024-07-24T06:09:20.000Z</time>
</trkpt>
<trkpt lat="46.0245780" lon="10.3668050">
	<ele>891.00</ele>
	<time>2024-07-24T06:09:21.000Z</time>
</trkpt>
<trkpt lat="46.0245870" lon="10.3668030">
	<ele>891.00</ele>
	<time>2024-07-24T06:09:22.000Z</time>
</trkpt>
<trkpt lat="46.0245970" lon="10.3668030">
	<ele>891.00</ele>
	<time>2024-07-24T06:09:23.000Z</time>
</trkpt>
<trkpt lat="46.0246070" lon="10.3668030">
	<ele>891.20</ele>
	<time>2024-07-24T06:09:24.000Z</time>
</trkpt>
<trkpt lat="46.0246230" lon="10.3668100">
	<ele>891.40</ele>
	<time>2024-07-24T06:09:25.000Z</time>
</trkpt>
<trkpt lat="46.0246410" lon="10.3668160">
	<ele>891.60</ele>
	<time>2024-07-24T06:09:26.000Z</time>
</trkpt>
<trkpt lat="46.0246530" lon="10.3668230">
	<ele>891.80</ele>
	<time>2024-07-24T06:09:27.000Z</time>
</trkpt>
<trkpt lat="46.0246600" lon="10.3668290">
	<ele>891.80</ele>
	<time>2024-07-24T06:09:28.000Z</time>
</trkpt>
<trkpt lat="46.0246700" lon="10.3668350">
	<ele>892.00</ele>
	<time>2024-07-24T06:09:29.000Z</time>
</trkpt>
<trkpt lat="46.0246790" lon="10.3668320">
	<ele>892.20</ele>
	<time>2024-07-24T06:09:30.000Z</time>
</trkpt>
<trkpt lat="46.0246930" lon="10.3668330">
	<ele>892.40</ele>
	<time>2024-07-24T06:09:31.000Z</time>
</trkpt>
<trkpt lat="46.0247000" lon="10.3668350">
	<ele>892.60</ele>
	<time>2024-07-24T06:09:32.000Z</time>
</trkpt>
<trkpt lat="46.0246990" lon="10.3668300">
	<ele>892.80</ele>
	<time>2024-07-24T06:09:33.000Z</time>
</trkpt>
<trkpt lat="46.0246970" lon="10.3668270">
	<ele>893.00</ele>
	<time>2024-07-24T06:09:34.000Z</time>
</trkpt>
<trkpt lat="46.0246940" lon="10.3668250">
	<ele>893.20</ele>
	<time>2024-07-24T06:09:35.000Z</time>
</trkpt>
<trkpt lat="46.0246920" lon="10.3668250">
	<ele>893.20</ele>
	<time>2024-07-24T06:09:36.000Z</time>
</trkpt>
<trkpt lat="46.0246940" lon="10.3668320">
	<ele>893.20</ele>
	<time>2024-07-24T06:09:37.000Z</time>
</trkpt>
<trkpt lat="46.0246850" lon="10.3668240">
	<ele>893.20</ele>
	<time>2024-07-24T06:09:38.000Z</time>
</trkpt>
<trkpt lat="46.0246860" lon="10.3668220">
	<ele>893.20</ele>
	<time>2024-07-24T06:09:39.000Z</time>
</trkpt>
<trkpt lat="46.0246880" lon="10.3668210">
	<ele>893.20</ele>
	<time>2024-07-24T06:09:40.000Z</time>
</trkpt>
<trkpt lat="46.0246860" lon="10.3668150">
	<ele>893.00</ele>
	<time>2024-07-24T06:09:41.000Z</time>
</trkpt>
<trkpt lat="46.0246920" lon="10.3668180">
	<ele>893.00</ele>
	<time>2024-07-24T06:09:42.000Z</time>
</trkpt>
<trkpt lat="46.0246990" lon="10.3668240">
	<ele>893.00</ele>
	<time>2024-07-24T06:09:43.000Z</time>
</trkpt>
<trkpt lat="46.0247050" lon="10.3668290">
	<ele>893.00</ele>
	<time>2024-07-24T06:09:44.000Z</time>
</trkpt>
<trkpt lat="46.0247130" lon="10.3668380">
	<ele>893.00</ele>
	<time>2024-07-24T06:09:45.000Z</time>
</trkpt>
<trkpt lat="46.0247200" lon="10.3668460">
	<ele>893.20</ele>
	<time>2024-07-24T06:09:46.000Z</time>
</trkpt>
<trkpt lat="46.0247210" lon="10.3668530">
	<ele>893.40</ele>
	<time>2024-07-24T06:09:47.000Z</time>
</trkpt>
<trkpt lat="46.0247220" lon="10.3668630">
	<ele>893.40</ele>
	<time>2024-07-24T06:09:48.000Z</time>
</trkpt>
<trkpt lat="46.0247270" lon="10.3668830">
	<ele>893.80</ele>
	<time>2024-07-24T06:09:49.000Z</time>
</trkpt>
<trkpt lat="46.0247290" lon="10.3668900">
	<ele>894.00</ele>
	<time>2024-07-24T06:09:50.000Z</time>
</trkpt>
<trkpt lat="46.0247280" lon="10.3669000">
	<ele>894.20</ele>
	<time>2024-07-24T06:09:51.000Z</time>
</trkpt>
<trkpt lat="46.0247260" lon="10.3669050">
	<ele>894.20</ele>
	<time>2024-07-24T06:09:52.000Z</time>
</trkpt>
<trkpt lat="46.0247260" lon="10.3669070">
	<ele>894.40</ele>
	<time>2024-07-24T06:09:53.000Z</time>
</trkpt>
<trkpt lat="46.0247250" lon="10.3669100">
	<ele>894.40</ele>
	<time>2024-07-24T06:09:54.000Z</time>
</trkpt>
<trkpt lat="46.0247250" lon="10.3669080">
	<ele>894.60</ele>
	<time>2024-07-24T06:09:55.000Z</time>
</trkpt>
<trkpt lat="46.0247280" lon="10.3669080">
	<ele>894.60</ele>
	<time>2024-07-24T06:09:56.000Z</time>
</trkpt>
<trkpt lat="46.0247280" lon="10.3669060">
	<ele>894.60</ele>
	<time>2024-07-24T06:09:57.000Z</time>
</trkpt>
<trkpt lat="46.0247320" lon="10.3669080">
	<ele>894.60</ele>
	<time>2024-07-24T06:09:58.000Z</time>
</trkpt>
<trkpt lat="46.0247320" lon="10.3669000">
	<ele>894.60</ele>
	<time>2024-07-24T06:09:59.000Z</time>
</trkpt>
<trkpt lat="46.0247300" lon="10.3668820">
	<ele>894.60</ele>
	<time>2024-07-24T06:10:00.000Z</time>
</trkpt>
<trkpt lat="46.0247290" lon="10.3668560">
	<ele>894.60</ele>
	<time>2024-07-24T06:10:01.000Z</time>
</trkpt>
<trkpt lat="46.0247290" lon="10.3668320">
	<ele>894.60</ele>
	<time>2024-07-24T06:10:02.000Z</time>
</trkpt>
<trkpt lat="46.0247340" lon="10.3668100">
	<ele>894.60</ele>
	<time>2024-07-24T06:10:03.000Z</time>
</trkpt>
<trkpt lat="46.0247390" lon="10.3668010">
	<ele>894.60</ele>
	<time>2024-07-24T06:10:04.000Z</time>
</trkpt>
<trkpt lat="46.0247420" lon="10.3667980">
	<ele>894.60</ele>
	<time>2024-07-24T06:10:05.000Z</time>
</trkpt>
<trkpt lat="46.0247430" lon="10.3667960">
	<ele>894.60</ele>
	<time>2024-07-24T06:10:06.000Z</time>
</trkpt>
<trkpt lat="46.0247430" lon="10.3667930">
	<ele>894.60</ele>
	<time>2024-07-24T06:10:07.000Z</time>
</trkpt>
<trkpt lat="46.0247420" lon="10.3667900">
	<ele>894.60</ele>
	<time>2024-07-24T06:10:08.000Z</time>
</trkpt>
<trkpt lat="46.0247380" lon="10.3667870">
	<ele>894.60</ele>
	<time>2024-07-24T06:10:09.000Z</time>
</trkpt>
<trkpt lat="46.0247300" lon="10.3667820">
	<ele>894.60</ele>
	<time>2024-07-24T06:10:10.000Z</time>
</trkpt>
<trkpt lat="46.0247180" lon="10.3667760">
	<ele>894.60</ele>
	<time>2024-07-24T06:10:11.000Z</time>
</trkpt>
<trkpt lat="46.0247060" lon="10.3667700">
	<ele>894.40</ele>
	<time>2024-07-24T06:10:12.000Z</time>
</trkpt>
<trkpt lat="46.0246960" lon="10.3667680">
	<ele>894.40</ele>
	<time>2024-07-24T06:10:13.000Z</time>
</trkpt>
<trkpt lat="46.0246840" lon="10.3667620">
	<ele>894.20</ele>
	<time>2024-07-24T06:10:14.000Z</time>
</trkpt>
<trkpt lat="46.0246780" lon="10.3667570">
	<ele>894.20</ele>
	<time>2024-07-24T06:10:15.000Z</time>
</trkpt>
<trkpt lat="46.0246790" lon="10.3667610">
	<ele>894.20</ele>
	<time>2024-07-24T06:10:16.000Z</time>
</trkpt>
<trkpt lat="46.0246790" lon="10.3667620">
	<ele>894.20</ele>
	<time>2024-07-24T06:10:17.000Z</time>
</trkpt>
<trkpt lat="46.0246790" lon="10.3667630">
	<ele>894.20</ele>
	<time>2024-07-24T06:10:18.000Z</time>
</trkpt>
<trkpt lat="46.0246800" lon="10.3667630">
	<ele>894.20</ele>
	<time>2024-07-24T06:10:19.000Z</time>
</trkpt>
<trkpt lat="46.0246800" lon="10.3667640">
	<ele>894.20</ele>
	<time>2024-07-24T06:10:20.000Z</time>
</trkpt>
<trkpt lat="46.0246800" lon="10.3667630">
	<ele>894.20</ele>
	<time>2024-07-24T06:10:21.000Z</time>
</trkpt>
<trkpt lat="46.0246820" lon="10.3667600">
	<ele>894.20</ele>
	<time>2024-07-24T06:10:22.000Z</time>
</trkpt>
<trkpt lat="46.0246830" lon="10.3667570">
	<ele>894.20</ele>
	<time>2024-07-24T06:10:23.000Z</time>
</trkpt>
<trkpt lat="46.0246840" lon="10.3667560">
	<ele>894.20</ele>
	<time>2024-07-24T06:10:24.000Z</time>
</trkpt>
<trkpt lat="46.0246860" lon="10.3667550">
	<ele>894.20</ele>
	<time>2024-07-24T06:10:25.000Z</time>
</trkpt>
<trkpt lat="46.0246870" lon="10.3667550">
	<ele>894.20</ele>
	<time>2024-07-24T06:10:26.000Z</time>
</trkpt>
<trkpt lat="46.0246940" lon="10.3667680">
	<ele>894.20</ele>
	<time>2024-07-24T06:10:27.000Z</time>
</trkpt>
<trkpt lat="46.0246980" lon="10.3667740">
	<ele>894.20</ele>
	<time>2024-07-24T06:10:28.000Z</time>
</trkpt>
<trkpt lat="46.0247060" lon="10.3667710">
	<ele>894.20</ele>
	<time>2024-07-24T06:10:29.000Z</time>
</trkpt>
<trkpt lat="46.0247150" lon="10.3667720">
	<ele>894.20</ele>
	<time>2024-07-24T06:10:30.000Z</time>
</trkpt>
<trkpt lat="46.0247190" lon="10.3667660">
	<ele>894.40</ele>
	<time>2024-07-24T06:10:31.000Z</time>
</trkpt>
<trkpt lat="46.0247250" lon="10.3667660">
	<ele>894.60</ele>
	<time>2024-07-24T06:10:32.000Z</time>
</trkpt>
<trkpt lat="46.0247340" lon="10.3667720">
	<ele>894.60</ele>
	<time>2024-07-24T06:10:33.000Z</time>
</trkpt>
<trkpt lat="46.0247420" lon="10.3667770">
	<ele>894.80</ele>
	<time>2024-07-24T06:10:34.000Z</time>
</trkpt>
<trkpt lat="46.0247490" lon="10.3667830">
	<ele>894.60</ele>
	<time>2024-07-24T06:10:35.000Z</time>
</trkpt>
<trkpt lat="46.0247550" lon="10.3667920">
	<ele>894.60</ele>
	<time>2024-07-24T06:10:36.000Z</time>
</trkpt>
<trkpt lat="46.0247630" lon="10.3668010">
	<ele>894.60</ele>
	<time>2024-07-24T06:10:37.000Z</time>
</trkpt>
<trkpt lat="46.0247730" lon="10.3668100">
	<ele>895.20</ele>
	<time>2024-07-24T06:10:38.000Z</time>
</trkpt>
<trkpt lat="46.0247770" lon="10.3668100">
	<ele>895.60</ele>
	<time>2024-07-24T06:10:39.000Z</time>
</trkpt>
<trkpt lat="46.0247880" lon="10.3668200">
	<ele>895.80</ele>
	<time>2024-07-24T06:10:40.000Z</time>
</trkpt>
<trkpt lat="46.0247990" lon="10.3668320">
	<ele>896.00</ele>
	<time>2024-07-24T06:10:41.000Z</time>
</trkpt>
<trkpt lat="46.0248060" lon="10.3668400">
	<ele>896.20</ele>
	<time>2024-07-24T06:10:42.000Z</time>
</trkpt>
<trkpt lat="46.0248100" lon="10.3668440">
	<ele>896.40</ele>
	<time>2024-07-24T06:10:43.000Z</time>
</trkpt>
<trkpt lat="46.0248130" lon="10.3668450">
	<ele>896.60</ele>
	<time>2024-07-24T06:10:44.000Z</time>
</trkpt>
<trkpt lat="46.0248150" lon="10.3668490">
	<ele>896.60</ele>
	<time>2024-07-24T06:10:45.000Z</time>
</trkpt>
<trkpt lat="46.0248160" lon="10.3668540">
	<ele>896.80</ele>
	<time>2024-07-24T06:10:46.000Z</time>
</trkpt>
<trkpt lat="46.0248210" lon="10.3668640">
	<ele>897.00</ele>
	<time>2024-07-24T06:10:47.000Z</time>
</trkpt>
<trkpt lat="46.0248300" lon="10.3668730">
	<ele>897.20</ele>
	<time>2024-07-24T06:10:48.000Z</time>
</trkpt>
<trkpt lat="46.0248370" lon="10.3668800">
	<ele>897.40</ele>
	<time>2024-07-24T06:10:49.000Z</time>
</trkpt>
<trkpt lat="46.0248400" lon="10.3668860">
	<ele>897.60</ele>
	<time>2024-07-24T06:10:50.000Z</time>
</trkpt>
<trkpt lat="46.0248410" lon="10.3668910">
	<ele>898.00</ele>
	<time>2024-07-24T06:10:51.000Z</time>
</trkpt>
<trkpt lat="46.0248450" lon="10.3668970">
	<ele>898.00</ele>
	<time>2024-07-24T06:10:52.000Z</time>
</trkpt>
<trkpt lat="46.0248450" lon="10.3669040">
	<ele>898.40</ele>
	<time>2024-07-24T06:10:53.000Z</time>
</trkpt>
<trkpt lat="46.0248440" lon="10.3669230">
	<ele>898.80</ele>
	<time>2024-07-24T06:10:54.000Z</time>
</trkpt>
<trkpt lat="46.0248440" lon="10.3669370">
	<ele>899.00</ele>
	<time>2024-07-24T06:10:55.000Z</time>
</trkpt>
<trkpt lat="46.0248430" lon="10.3669460">
	<ele>899.20</ele>
	<time>2024-07-24T06:10:56.000Z</time>
</trkpt>
<trkpt lat="46.0248390" lon="10.3669490">
	<ele>899.20</ele>
	<time>2024-07-24T06:10:57.000Z</time>
</trkpt>
<trkpt lat="46.0248370" lon="10.3669510">
	<ele>899.40</ele>
	<time>2024-07-24T06:10:58.000Z</time>
</trkpt>
<trkpt lat="46.0248350" lon="10.3669560">
	<ele>899.40</ele>
	<time>2024-07-24T06:10:59.000Z</time>
</trkpt>
<trkpt lat="46.0248350" lon="10.3669600">
	<ele>899.60</ele>
	<time>2024-07-24T06:11:00.000Z</time>
</trkpt>
<trkpt lat="46.0248350" lon="10.3669640">
	<ele>899.60</ele>
	<time>2024-07-24T06:11:01.000Z</time>
</trkpt>
<trkpt lat="46.0248310" lon="10.3669600">
	<ele>899.60</ele>
	<time>2024-07-24T06:11:02.000Z</time>
</trkpt>
<trkpt lat="46.0248280" lon="10.3669540">
	<ele>899.60</ele>
	<time>2024-07-24T06:11:03.000Z</time>
</trkpt>
<trkpt lat="46.0248270" lon="10.3669540">
	<ele>899.60</ele>
	<time>2024-07-24T06:11:04.000Z</time>
</trkpt>
<trkpt lat="46.0248270" lon="10.3669530">
	<ele>899.60</ele>
	<time>2024-07-24T06:11:05.000Z</time>
</trkpt>
<trkpt lat="46.0248280" lon="10.3669540">
	<ele>899.60</ele>
	<time>2024-07-24T06:11:06.000Z</time>
</trkpt>
<trkpt lat="46.0248280" lon="10.3669550">
	<ele>899.60</ele>
	<time>2024-07-24T06:11:07.000Z</time>
</trkpt>
<trkpt lat="46.0248280" lon="10.3669550">
	<ele>899.60</ele>
	<time>2024-07-24T06:11:08.000Z</time>
</trkpt>
<trkpt lat="46.0248280" lon="10.3669550">
	<ele>899.60</ele>
	<time>2024-07-24T06:11:09.000Z</time>
</trkpt>
<trkpt lat="46.0248280" lon="10.3669550">
	<ele>899.60</ele>
	<time>2024-07-24T06:11:10.000Z</time>
</trkpt>
<trkpt lat="46.0248280" lon="10.3669550">
	<ele>899.60</ele>
	<time>2024-07-24T06:11:11.000Z</time>
</trkpt>
<trkpt lat="46.0248280" lon="10.3669550">
	<ele>899.60</ele>
	<time>2024-07-24T06:11:12.000Z</time>
</trkpt>
<trkpt lat="46.0248280" lon="10.3669550">
	<ele>899.60</ele>
	<time>2024-07-24T06:11:13.000Z</time>
</trkpt>
<trkpt lat="46.0248280" lon="10.3669550">
	<ele>899.60</ele>
	<time>2024-07-24T06:11:14.000Z</time>
</trkpt>
<trkpt lat="46.0248280" lon="10.3669550">
	<ele>899.60</ele>
	<time>2024-07-24T06:11:15.000Z</time>
</trkpt>
<trkpt lat="46.0248280" lon="10.3669550">
	<ele>899.60</ele>
	<time>2024-07-24T06:11:16.000Z</time>
</trkpt>
<trkpt lat="46.0248280" lon="10.3669550">
	<ele>899.80</ele>
	<time>2024-07-24T06:11:17.000Z</time>
</trkpt>
<trkpt lat="46.0248280" lon="10.3669550">
	<ele>900.00</ele>
	<time>2024-07-24T06:11:18.000Z</time>
</trkpt>
<trkpt lat="46.0248280" lon="10.3669550">
	<ele>900.20</ele>
	<time>2024-07-24T06:11:19.000Z</time>
</trkpt>
<trkpt lat="46.0248280" lon="10.3669550">
	<ele>900.60</ele>
	<time>2024-07-24T06:11:20.000Z</time>
</trkpt>
<trkpt lat="46.0248280" lon="10.3669550">
	<ele>901.00</ele>
	<time>2024-07-24T06:11:21.000Z</time>
</trkpt>
<trkpt lat="46.0248280" lon="10.3669550">
	<ele>901.40</ele>
	<time>2024-07-24T06:11:22.000Z</time>
</trkpt>
<trkpt lat="46.0248280" lon="10.3669550">
	<ele>901.60</ele>
	<time>2024-07-24T06:11:23.000Z</time>
</trkpt>
<trkpt lat="46.0248280" lon="10.3669550">
	<ele>901.80</ele>
	<time>2024-07-24T06:11:24.000Z</time>
</trkpt>
<trkpt lat="46.0248280" lon="10.3669550">
	<ele>901.80</ele>
	<time>2024-07-24T06:11:25.000Z</time>
</trkpt>
<trkpt lat="46.0248280" lon="10.3669560">
	<ele>902.00</ele>
	<time>2024-07-24T06:11:26.000Z</time>
</trkpt>
<trkpt lat="46.0248280" lon="10.3669570">
	<ele>902.20</ele>
	<time>2024-07-24T06:11:27.000Z</time>
</trkpt>
<trkpt lat="46.0248280" lon="10.3669590">
	<ele>902.20</ele>
	<time>2024-07-24T06:11:28.000Z</time>
</trkpt>
<trkpt lat="46.0248280" lon="10.3669600">
	<ele>902.40</ele>
	<time>2024-07-24T06:11:29.000Z</time>
</trkpt>
<trkpt lat="46.0248280" lon="10.3669610">
	<ele>902.60</ele>
	<time>2024-07-24T06:11:30.000Z</time>
</trkpt>
<trkpt lat="46.0248270" lon="10.3669610">
	<ele>902.80</ele>
	<time>2024-07-24T06:11:31.000Z</time>
</trkpt>
<trkpt lat="46.0248270" lon="10.3669640">
	<ele>903.00</ele>
	<time>2024-07-24T06:11:32.000Z</time>
</trkpt>
<trkpt lat="46.0248200" lon="10.3669700">
	<ele>903.20</ele>
	<time>2024-07-24T06:11:33.000Z</time>
</trkpt>
<trkpt lat="46.0248090" lon="10.3669820">
	<ele>903.20</ele>
	<time>2024-07-24T06:11:34.000Z</time>
</trkpt>
<trkpt lat="46.0247980" lon="10.3670020">
	<ele>903.40</ele>
	<time>2024-07-24T06:11:35.000Z</time>
</trkpt>
<trkpt lat="46.0247900" lon="10.3670210">
	<ele>903.60</ele>
	<time>2024-07-24T06:11:36.000Z</time>
</trkpt>
<trkpt lat="46.0247820" lon="10.3670390">
	<ele>903.80</ele>
	<time>2024-07-24T06:11:37.000Z</time>
</trkpt>
<trkpt lat="46.0247770" lon="10.3670500">
	<ele>904.00</ele>
	<time>2024-07-24T06:11:38.000Z</time>
</trkpt>
<trkpt lat="46.0247660" lon="10.3670590">
	<ele>904.40</ele>
	<time>2024-07-24T06:11:39.000Z</time>
</trkpt>
<trkpt lat="46.0247590" lon="10.3670720">
	<ele>904.60</ele>
	<time>2024-07-24T06:11:40.000Z</time>
</trkpt>
<trkpt lat="46.0247520" lon="10.3670810">
	<ele>904.80</ele>
	<time>2024-07-24T06:11:41.000Z</time>
</trkpt>
<trkpt lat="46.0247440" lon="10.3670970">
	<ele>904.80</ele>
	<time>2024-07-24T06:11:42.000Z</time>
</trkpt>
<trkpt lat="46.0247430" lon="10.3670990">
	<ele>905.00</ele>
	<time>2024-07-24T06:11:43.000Z</time>
</trkpt>
<trkpt lat="46.0247410" lon="10.3671030">
	<ele>905.00</ele>
	<time>2024-07-24T06:11:44.000Z</time>
</trkpt>
<trkpt lat="46.0247420" lon="10.3671070">
	<ele>905.20</ele>
	<time>2024-07-24T06:11:45.000Z</time>
</trkpt>
<trkpt lat="46.0247450" lon="10.3671090">
	<ele>905.40</ele>
	<time>2024-07-24T06:11:46.000Z</time>
</trkpt>
<trkpt lat="46.0247450" lon="10.3671110">
	<ele>905.40</ele>
	<time>2024-07-24T06:11:47.000Z</time>
</trkpt>
<trkpt lat="46.0247450" lon="10.3671150">
	<ele>905.60</ele>
	<time>2024-07-24T06:11:48.000Z</time>
</trkpt>
<trkpt lat="46.0247450" lon="10.3671240">
	<ele>905.80</ele>
	<time>2024-07-24T06:11:49.000Z</time>
</trkpt>
<trkpt lat="46.0247420" lon="10.3671160">
	<ele>906.00</ele>
	<time>2024-07-24T06:11:50.000Z</time>
</trkpt>
<trkpt lat="46.0247410" lon="10.3671130">
	<ele>906.40</ele>
	<time>2024-07-24T06:11:51.000Z</time>
</trkpt>
<trkpt lat="46.0247530" lon="10.3671230">
	<ele>906.40</ele>
	<time>2024-07-24T06:11:52.000Z</time>
</trkpt>
<trkpt lat="46.0247680" lon="10.3671460">
	<ele>906.60</ele>
	<time>2024-07-24T06:11:53.000Z</time>
</trkpt>
<trkpt lat="46.0247690" lon="10.3671480">
	<ele>906.80</ele>
	<time>2024-07-24T06:11:54.000Z</time>
</trkpt>
<trkpt lat="46.0247780" lon="10.3671620">
	<ele>907.00</ele>
	<time>2024-07-24T06:11:55.000Z</time>
</trkpt>
<trkpt lat="46.0247850" lon="10.3671740">
	<ele>907.20</ele>
	<time>2024-07-24T06:11:56.000Z</time>
</trkpt>
<trkpt lat="46.0247930" lon="10.3671840">
	<ele>907.20</ele>
	<time>2024-07-24T06:11:57.000Z</time>
</trkpt>
<trkpt lat="46.0248030" lon="10.3672030">
	<ele>907.40</ele>
	<time>2024-07-24T06:11:58.000Z</time>
</trkpt>
<trkpt lat="46.0248130" lon="10.3672200">
	<ele>907.40</ele>
	<time>2024-07-24T06:11:59.000Z</time>
</trkpt>
<trkpt lat="46.0248170" lon="10.3672260">
	<ele>907.60</ele>
	<time>2024-07-24T06:12:00.000Z</time>
</trkpt>
<trkpt lat="46.0248290" lon="10.3672330">
	<ele>907.80</ele>
	<time>2024-07-24T06:12:01.000Z</time>
</trkpt>
<trkpt lat="46.0248410" lon="10.3672380">
	<ele>908.00</ele>
	<time>2024-07-24T06:12:02.000Z</time>
</trkpt>
<trkpt lat="46.0248480" lon="10.3672400">
	<ele>908.20</ele>
	<time>2024-07-24T06:12:03.000Z</time>
</trkpt>
<trkpt lat="46.0248570" lon="10.3672470">
	<ele>908.40</ele>
	<time>2024-07-24T06:12:04.000Z</time>
</trkpt>
<trkpt lat="46.0248670" lon="10.3672580">
	<ele>908.40</ele>
	<time>2024-07-24T06:12:05.000Z</time>
</trkpt>
<trkpt lat="46.0248820" lon="10.3672670">
	<ele>908.60</ele>
	<time>2024-07-24T06:12:06.000Z</time>
</trkpt>
<trkpt lat="46.0248860" lon="10.3672660">
	<ele>908.80</ele>
	<time>2024-07-24T06:12:07.000Z</time>
</trkpt>
<trkpt lat="46.0248880" lon="10.3672660">
	<ele>908.80</ele>
	<time>2024-07-24T06:12:08.000Z</time>
</trkpt>
<trkpt lat="46.0248960" lon="10.3672740">
	<ele>909.00</ele>
	<time>2024-07-24T06:12:09.000Z</time>
</trkpt>
<trkpt lat="46.0249010" lon="10.3672780">
	<ele>909.00</ele>
	<time>2024-07-24T06:12:10.000Z</time>
</trkpt>
<trkpt lat="46.0249090" lon="10.3672870">
	<ele>909.20</ele>
	<time>2024-07-24T06:12:11.000Z</time>
</trkpt>
<trkpt lat="46.0249040" lon="10.3672790">
	<ele>909.20</ele>
	<time>2024-07-24T06:12:12.000Z</time>
</trkpt>
<trkpt lat="46.0249020" lon="10.3672760">
	<ele>909.20</ele>
	<time>2024-07-24T06:12:13.000Z</time>
</trkpt>
<trkpt lat="46.0249020" lon="10.3672790">
	<ele>909.40</ele>
	<time>2024-07-24T06:12:14.000Z</time>
</trkpt>
<trkpt lat="46.0249010" lon="10.3672820">
	<ele>909.40</ele>
	<time>2024-07-24T06:12:15.000Z</time>
</trkpt>
<trkpt lat="46.0249050" lon="10.3672890">
	<ele>909.60</ele>
	<time>2024-07-24T06:12:16.000Z</time>
</trkpt>
<trkpt lat="46.0249090" lon="10.3672930">
	<ele>909.60</ele>
	<time>2024-07-24T06:12:17.000Z</time>
</trkpt>
<trkpt lat="46.0249120" lon="10.3672920">
	<ele>909.80</ele>
	<time>2024-07-24T06:12:18.000Z</time>
</trkpt>
<trkpt lat="46.0249240" lon="10.3672920">
	<ele>910.00</ele>
	<time>2024-07-24T06:12:19.000Z</time>
</trkpt>
<trkpt lat="46.0249410" lon="10.3673040">
	<ele>910.20</ele>
	<time>2024-07-24T06:12:20.000Z</time>
</trkpt>
<trkpt lat="46.0249640" lon="10.3673030">
	<ele>910.20</ele>
	<time>2024-07-24T06:12:21.000Z</time>
</trkpt>
<trkpt lat="46.0249880" lon="10.3673130">
	<ele>910.40</ele>
	<time>2024-07-24T06:12:22.000Z</time>
</trkpt>
<trkpt lat="46.0250060" lon="10.3673370">
	<ele>910.40</ele>
	<time>2024-07-24T06:12:23.000Z</time>
</trkpt>
<trkpt lat="46.0250150" lon="10.3673720">
	<ele>910.60</ele>
	<time>2024-07-24T06:12:24.000Z</time>
</trkpt>
<trkpt lat="46.0250230" lon="10.3673980">
	<ele>910.60</ele>
	<time>2024-07-24T06:12:25.000Z</time>
</trkpt>
<trkpt lat="46.0250250" lon="10.3674110">
	<ele>910.80</ele>
	<time>2024-07-24T06:12:26.000Z</time>
</trkpt>
<trkpt lat="46.0250350" lon="10.3674140">
	<ele>910.80</ele>
	<time>2024-07-24T06:12:27.000Z</time>
</trkpt>
<trkpt lat="46.0250550" lon="10.3674300">
	<ele>910.80</ele>
	<time>2024-07-24T06:12:28.000Z</time>
</trkpt>
<trkpt lat="46.0250590" lon="10.3674300">
	<ele>911.00</ele>
	<time>2024-07-24T06:12:29.000Z</time>
</trkpt>
<trkpt lat="46.0250650" lon="10.3674320">
	<ele>911.20</ele>
	<time>2024-07-24T06:12:30.000Z</time>
</trkpt>
<trkpt lat="46.0250670" lon="10.3674290">
	<ele>911.20</ele>
	<time>2024-07-24T06:12:31.000Z</time>
</trkpt>
<trkpt lat="46.0250700" lon="10.3674260">
	<ele>911.40</ele>
	<time>2024-07-24T06:12:32.000Z</time>
</trkpt>
<trkpt lat="46.0250730" lon="10.3674260">
	<ele>911.60</ele>
	<time>2024-07-24T06:12:33.000Z</time>
</trkpt>
<trkpt lat="46.0250780" lon="10.3674250">
	<ele>911.80</ele>
	<time>2024-07-24T06:12:34.000Z</time>
</trkpt>
<trkpt lat="46.0250880" lon="10.3674450">
	<ele>911.80</ele>
	<time>2024-07-24T06:12:35.000Z</time>
</trkpt>
<trkpt lat="46.0250990" lon="10.3674530">
	<ele>912.00</ele>
	<time>2024-07-24T06:12:36.000Z</time>
</trkpt>
<trkpt lat="46.0251150" lon="10.3674650">
	<ele>912.00</ele>
	<time>2024-07-24T06:12:37.000Z</time>
</trkpt>
<trkpt lat="46.0251150" lon="10.3674530">
	<ele>912.20</ele>
	<time>2024-07-24T06:12:38.000Z</time>
</trkpt>
<trkpt lat="46.0251180" lon="10.3674550">
	<ele>912.40</ele>
	<time>2024-07-24T06:12:39.000Z</time>
</trkpt>
<trkpt lat="46.0251190" lon="10.3674570">
	<ele>912.60</ele>
	<time>2024-07-24T06:12:40.000Z</time>
</trkpt>
<trkpt lat="46.0251180" lon="10.3674550">
	<ele>912.80</ele>
	<time>2024-07-24T06:12:41.000Z</time>
</trkpt>
<trkpt lat="46.0251240" lon="10.3674550">
	<ele>913.00</ele>
	<time>2024-07-24T06:12:42.000Z</time>
</trkpt>
<trkpt lat="46.0251260" lon="10.3674530">
	<ele>913.20</ele>
	<time>2024-07-24T06:12:43.000Z</time>
</trkpt>
<trkpt lat="46.0251320" lon="10.3674620">
	<ele>913.20</ele>
	<time>2024-07-24T06:12:44.000Z</time>
</trkpt>
<trkpt lat="46.0251340" lon="10.3674650">
	<ele>913.40</ele>
	<time>2024-07-24T06:12:45.000Z</time>
</trkpt>
<trkpt lat="46.0251350" lon="10.3674660">
	<ele>913.40</ele>
	<time>2024-07-24T06:12:46.000Z</time>
</trkpt>
<trkpt lat="46.0251440" lon="10.3674750">
	<ele>913.60</ele>
	<time>2024-07-24T06:12:47.000Z</time>
</trkpt>
<trkpt lat="46.0251550" lon="10.3674870">
	<ele>913.80</ele>
	<time>2024-07-24T06:12:48.000Z</time>
</trkpt>
<trkpt lat="46.0251590" lon="10.3674870">
	<ele>914.00</ele>
	<time>2024-07-24T06:12:49.000Z</time>
</trkpt>
<trkpt lat="46.0251700" lon="10.3674890">
	<ele>914.00</ele>
	<time>2024-07-24T06:12:50.000Z</time>
</trkpt>
<trkpt lat="46.0251820" lon="10.3674910">
	<ele>914.20</ele>
	<time>2024-07-24T06:12:51.000Z</time>
</trkpt>
<trkpt lat="46.0251980" lon="10.3674980">
	<ele>914.40</ele>
	<time>2024-07-24T06:12:52.000Z</time>
</trkpt>
<trkpt lat="46.0252110" lon="10.3675050">
	<ele>914.40</ele>
	<time>2024-07-24T06:12:53.000Z</time>
</trkpt>
<trkpt lat="46.0252260" lon="10.3675170">
	<ele>914.60</ele>
	<time>2024-07-24T06:12:54.000Z</time>
</trkpt>
<trkpt lat="46.0252390" lon="10.3675330">
	<ele>914.60</ele>
	<time>2024-07-24T06:12:55.000Z</time>
</trkpt>
<trkpt lat="46.0252450" lon="10.3675460">
	<ele>914.80</ele>
	<time>2024-07-24T06:12:56.000Z</time>
</trkpt>
<trkpt lat="46.0252570" lon="10.3675550">
	<ele>915.00</ele>
	<time>2024-07-24T06:12:57.000Z</time>
</trkpt>
<trkpt lat="46.0252710" lon="10.3675670">
	<ele>915.20</ele>
	<time>2024-07-24T06:12:58.000Z</time>
</trkpt>
<trkpt lat="46.0252810" lon="10.3675760">
	<ele>915.40</ele>
	<time>2024-07-24T06:12:59.000Z</time>
</trkpt>
<trkpt lat="46.0252950" lon="10.3675880">
	<ele>915.60</ele>
	<time>2024-07-24T06:13:00.000Z</time>
</trkpt>
<trkpt lat="46.0253000" lon="10.3675880">
	<ele>915.80</ele>
	<time>2024-07-24T06:13:01.000Z</time>
</trkpt>
<trkpt lat="46.0253090" lon="10.3675910">
	<ele>915.80</ele>
	<time>2024-07-24T06:13:02.000Z</time>
</trkpt>
<trkpt lat="46.0253140" lon="10.3675920">
	<ele>915.80</ele>
	<time>2024-07-24T06:13:03.000Z</time>
</trkpt>
<trkpt lat="46.0253250" lon="10.3676010">
	<ele>916.00</ele>
	<time>2024-07-24T06:13:04.000Z</time>
</trkpt>
<trkpt lat="46.0253390" lon="10.3676160">
	<ele>916.00</ele>
	<time>2024-07-24T06:13:05.000Z</time>
</trkpt>
<trkpt lat="46.0253500" lon="10.3676270">
	<ele>916.20</ele>
	<time>2024-07-24T06:13:06.000Z</time>
</trkpt>
<trkpt lat="46.0253540" lon="10.3676340">
	<ele>916.60</ele>
	<time>2024-07-24T06:13:07.000Z</time>
</trkpt>
<trkpt lat="46.0253680" lon="10.3676430">
	<ele>916.80</ele>
	<time>2024-07-24T06:13:08.000Z</time>
</trkpt>
<trkpt lat="46.0253770" lon="10.3676460">
	<ele>916.80</ele>
	<time>2024-07-24T06:13:09.000Z</time>
</trkpt>
<trkpt lat="46.0253860" lon="10.3676400">
	<ele>917.00</ele>
	<time>2024-07-24T06:13:10.000Z</time>
</trkpt>
<trkpt lat="46.0253920" lon="10.3676380">
	<ele>917.20</ele>
	<time>2024-07-24T06:13:11.000Z</time>
</trkpt>
<trkpt lat="46.0253950" lon="10.3676420">
	<ele>917.20</ele>
	<time>2024-07-24T06:13:12.000Z</time>
</trkpt>
<trkpt lat="46.0253990" lon="10.3676530">
	<ele>917.20</ele>
	<time>2024-07-24T06:13:13.000Z</time>
</trkpt>
<trkpt lat="46.0254050" lon="10.3676610">
	<ele>917.40</ele>
	<time>2024-07-24T06:13:14.000Z</time>
</trkpt>
<trkpt lat="46.0254140" lon="10.3676690">
	<ele>917.60</ele>
	<time>2024-07-24T06:13:15.000Z</time>
</trkpt>
<trkpt lat="46.0254250" lon="10.3676750">
	<ele>917.60</ele>
	<time>2024-07-24T06:13:16.000Z</time>
</trkpt>
<trkpt lat="46.0254390" lon="10.3676840">
	<ele>917.80</ele>
	<time>2024-07-24T06:13:17.000Z</time>
</trkpt>
<trkpt lat="46.0254470" lon="10.3676890">
	<ele>918.00</ele>
	<time>2024-07-24T06:13:18.000Z</time>
</trkpt>
<trkpt lat="46.0254640" lon="10.3676990">
	<ele>918.20</ele>
	<time>2024-07-24T06:13:19.000Z</time>
</trkpt>
<trkpt lat="46.0254780" lon="10.3677070">
	<ele>918.40</ele>
	<time>2024-07-24T06:13:20.000Z</time>
</trkpt>
<trkpt lat="46.0254850" lon="10.3677080">
	<ele>918.40</ele>
	<time>2024-07-24T06:13:21.000Z</time>
</trkpt>
<trkpt lat="46.0254940" lon="10.3677120">
	<ele>918.60</ele>
	<time>2024-07-24T06:13:22.000Z</time>
</trkpt>
<trkpt lat="46.0254970" lon="10.3677040">
	<ele>918.80</ele>
	<time>2024-07-24T06:13:23.000Z</time>
</trkpt>
<trkpt lat="46.0255020" lon="10.3676960">
	<ele>918.80</ele>
	<time>2024-07-24T06:13:24.000Z</time>
</trkpt>
<trkpt lat="46.0255100" lon="10.3676970">
	<ele>918.80</ele>
	<time>2024-07-24T06:13:25.000Z</time>
</trkpt>
<trkpt lat="46.0255200" lon="10.3677020">
	<ele>919.00</ele>
	<time>2024-07-24T06:13:26.000Z</time>
</trkpt>
<trkpt lat="46.0255270" lon="10.3677040">
	<ele>919.00</ele>
	<time>2024-07-24T06:13:27.000Z</time>
</trkpt>
<trkpt lat="46.0255330" lon="10.3677090">
	<ele>919.20</ele>
	<time>2024-07-24T06:13:28.000Z</time>
</trkpt>
<trkpt lat="46.0255360" lon="10.3677100">
	<ele>919.40</ele>
	<time>2024-07-24T06:13:29.000Z</time>
</trkpt>
<trkpt lat="46.0255410" lon="10.3677160">
	<ele>919.60</ele>
	<time>2024-07-24T06:13:30.000Z</time>
</trkpt>
<trkpt lat="46.0255450" lon="10.3677190">
	<ele>919.60</ele>
	<time>2024-07-24T06:13:31.000Z</time>
</trkpt>
<trkpt lat="46.0255470" lon="10.3677200">
	<ele>919.80</ele>
	<time>2024-07-24T06:13:32.000Z</time>
</trkpt>
<trkpt lat="46.0255530" lon="10.3677280">
	<ele>920.00</ele>
	<time>2024-07-24T06:13:33.000Z</time>
</trkpt>
<trkpt lat="46.0255580" lon="10.3677390">
	<ele>920.20</ele>
	<time>2024-07-24T06:13:34.000Z</time>
</trkpt>
<trkpt lat="46.0255640" lon="10.3677450">
	<ele>920.20</ele>
	<time>2024-07-24T06:13:35.000Z</time>
</trkpt>
<trkpt lat="46.0255740" lon="10.3677490">
	<ele>920.40</ele>
	<time>2024-07-24T06:13:36.000Z</time>
</trkpt>
<trkpt lat="46.0255780" lon="10.3677410">
	<ele>920.60</ele>
	<time>2024-07-24T06:13:37.000Z</time>
</trkpt>
<trkpt lat="46.0255870" lon="10.3677480">
	<ele>921.00</ele>
	<time>2024-07-24T06:13:38.000Z</time>
</trkpt>
<trkpt lat="46.0255900" lon="10.3677430">
	<ele>921.20</ele>
	<time>2024-07-24T06:13:39.000Z</time>
</trkpt>
<trkpt lat="46.0255950" lon="10.3677430">
	<ele>921.40</ele>
	<time>2024-07-24T06:13:40.000Z</time>
</trkpt>
<trkpt lat="46.0256000" lon="10.3677410">
	<ele>921.60</ele>
	<time>2024-07-24T06:13:41.000Z</time>
</trkpt>
<trkpt lat="46.0256020" lon="10.3677330">
	<ele>922.00</ele>
	<time>2024-07-24T06:13:42.000Z</time>
</trkpt>
<trkpt lat="46.0256060" lon="10.3677320">
	<ele>922.00</ele>
	<time>2024-07-24T06:13:43.000Z</time>
</trkpt>
<trkpt lat="46.0256090" lon="10.3677310">
	<ele>922.20</ele>
	<time>2024-07-24T06:13:44.000Z</time>
</trkpt>
<trkpt lat="46.0256100" lon="10.3677280">
	<ele>922.40</ele>
	<time>2024-07-24T06:13:45.000Z</time>
</trkpt>
<trkpt lat="46.0256110" lon="10.3677210">
	<ele>922.40</ele>
	<time>2024-07-24T06:13:46.000Z</time>
</trkpt>
<trkpt lat="46.0256170" lon="10.3677180">
	<ele>922.60</ele>
	<time>2024-07-24T06:13:47.000Z</time>
</trkpt>
<trkpt lat="46.0256210" lon="10.3677170">
	<ele>923.00</ele>
	<time>2024-07-24T06:13:48.000Z</time>
</trkpt>
<trkpt lat="46.0256300" lon="10.3677240">
	<ele>923.20</ele>
	<time>2024-07-24T06:13:49.000Z</time>
</trkpt>
<trkpt lat="46.0256360" lon="10.3677360">
	<ele>923.20</ele>
	<time>2024-07-24T06:13:50.000Z</time>
</trkpt>
<trkpt lat="46.0256450" lon="10.3677430">
	<ele>923.40</ele>
	<time>2024-07-24T06:13:51.000Z</time>
</trkpt>
<trkpt lat="46.0256530" lon="10.3677460">
	<ele>923.60</ele>
	<time>2024-07-24T06:13:52.000Z</time>
</trkpt>
<trkpt lat="46.0256600" lon="10.3677490">
	<ele>923.60</ele>
	<time>2024-07-24T06:13:53.000Z</time>
</trkpt>
<trkpt lat="46.0256680" lon="10.3677530">
	<ele>923.80</ele>
	<time>2024-07-24T06:13:54.000Z</time>
</trkpt>
<trkpt lat="46.0256740" lon="10.3677550">
	<ele>924.20</ele>
	<time>2024-07-24T06:13:55.000Z</time>
</trkpt>
<trkpt lat="46.0256790" lon="10.3677550">
	<ele>924.40</ele>
	<time>2024-07-24T06:13:56.000Z</time>
</trkpt>
<trkpt lat="46.0256880" lon="10.3677560">
	<ele>924.60</ele>
	<time>2024-07-24T06:13:57.000Z</time>
</trkpt>
<trkpt lat="46.0256940" lon="10.3677580">
	<ele>924.80</ele>
	<time>2024-07-24T06:13:58.000Z</time>
</trkpt>
<trkpt lat="46.0257010" lon="10.3677600">
	<ele>925.00</ele>
	<time>2024-07-24T06:13:59.000Z</time>
</trkpt>
<trkpt lat="46.0257090" lon="10.3677600">
	<ele>925.20</ele>
	<time>2024-07-24T06:14:00.000Z</time>
</trkpt>
<trkpt lat="46.0257170" lon="10.3677630">
	<ele>925.60</ele>
	<time>2024-07-24T06:14:01.000Z</time>
</trkpt>
<trkpt lat="46.0257230" lon="10.3677640">
	<ele>926.00</ele>
	<time>2024-07-24T06:14:02.000Z</time>
</trkpt>
<trkpt lat="46.0257270" lon="10.3677680">
	<ele>926.20</ele>
	<time>2024-07-24T06:14:03.000Z</time>
</trkpt>
<trkpt lat="46.0257290" lon="10.3677710">
	<ele>926.40</ele>
	<time>2024-07-24T06:14:04.000Z</time>
</trkpt>
<trkpt lat="46.0257340" lon="10.3677700">
	<ele>926.60</ele>
	<time>2024-07-24T06:14:05.000Z</time>
</trkpt>
<trkpt lat="46.0257370" lon="10.3677680">
	<ele>926.60</ele>
	<time>2024-07-24T06:14:06.000Z</time>
</trkpt>
<trkpt lat="46.0257420" lon="10.3677640">
	<ele>926.60</ele>
	<time>2024-07-24T06:14:07.000Z</time>
</trkpt>
<trkpt lat="46.0257460" lon="10.3677590">
	<ele>926.80</ele>
	<time>2024-07-24T06:14:08.000Z</time>
</trkpt>
<trkpt lat="46.0257540" lon="10.3677600">
	<ele>927.00</ele>
	<time>2024-07-24T06:14:09.000Z</time>
</trkpt>
<trkpt lat="46.0257630" lon="10.3677610">
	<ele>927.00</ele>
	<time>2024-07-24T06:14:10.000Z</time>
</trkpt>
<trkpt lat="46.0257690" lon="10.3677670">
	<ele>927.20</ele>
	<time>2024-07-24T06:14:11.000Z</time>
</trkpt>
<trkpt lat="46.0257730" lon="10.3677680">
	<ele>927.40</ele>
	<time>2024-07-24T06:14:12.000Z</time>
</trkpt>
<trkpt lat="46.0257760" lon="10.3677660">
	<ele>927.60</ele>
	<time>2024-07-24T06:14:13.000Z</time>
</trkpt>
<trkpt lat="46.0257780" lon="10.3677710">
	<ele>927.80</ele>
	<time>2024-07-24T06:14:14.000Z</time>
</trkpt>
<trkpt lat="46.0257800" lon="10.3677830">
	<ele>928.00</ele>
	<time>2024-07-24T06:14:15.000Z</time>
</trkpt>
<trkpt lat="46.0257830" lon="10.3677940">
	<ele>928.00</ele>
	<time>2024-07-24T06:14:16.000Z</time>
</trkpt>
<trkpt lat="46.0257850" lon="10.3678020">
	<ele>928.20</ele>
	<time>2024-07-24T06:14:17.000Z</time>
</trkpt>
<trkpt lat="46.0257830" lon="10.3678030">
	<ele>928.40</ele>
	<time>2024-07-24T06:14:18.000Z</time>
</trkpt>
<trkpt lat="46.0257820" lon="10.3678060">
	<ele>928.40</ele>
	<time>2024-07-24T06:14:19.000Z</time>
</trkpt>
<trkpt lat="46.0257780" lon="10.3678140">
	<ele>928.40</ele>
	<time>2024-07-24T06:14:20.000Z</time>
</trkpt>
<trkpt lat="46.0257760" lon="10.3678190">
	<ele>928.40</ele>
	<time>2024-07-24T06:14:21.000Z</time>
</trkpt>
<trkpt lat="46.0257750" lon="10.3678220">
	<ele>928.60</ele>
	<time>2024-07-24T06:14:22.000Z</time>
</trkpt>
<trkpt lat="46.0257800" lon="10.3678300">
	<ele>928.80</ele>
	<time>2024-07-24T06:14:23.000Z</time>
</trkpt>
<trkpt lat="46.0257790" lon="10.3678330">
	<ele>928.80</ele>
	<time>2024-07-24T06:14:24.000Z</time>
</trkpt>
<trkpt lat="46.0257730" lon="10.3678440">
	<ele>929.00</ele>
	<time>2024-07-24T06:14:25.000Z</time>
</trkpt>
<trkpt lat="46.0257680" lon="10.3678530">
	<ele>929.00</ele>
	<time>2024-07-24T06:14:26.000Z</time>
</trkpt>
<trkpt lat="46.0257650" lon="10.3678660">
	<ele>929.20</ele>
	<time>2024-07-24T06:14:27.000Z</time>
</trkpt>
<trkpt lat="46.0257640" lon="10.3678720">
	<ele>929.40</ele>
	<time>2024-07-24T06:14:28.000Z</time>
</trkpt>
<trkpt lat="46.0257630" lon="10.3678750">
	<ele>929.60</ele>
	<time>2024-07-24T06:14:29.000Z</time>
</trkpt>
<trkpt lat="46.0257620" lon="10.3678750">
	<ele>929.60</ele>
	<time>2024-07-24T06:14:30.000Z</time>
</trkpt>
<trkpt lat="46.0257730" lon="10.3678780">
	<ele>929.60</ele>
	<time>2024-07-24T06:14:31.000Z</time>
</trkpt>
<trkpt lat="46.0257840" lon="10.3678800">
	<ele>929.80</ele>
	<time>2024-07-24T06:14:32.000Z</time>
</trkpt>
<trkpt lat="46.0257970" lon="10.3678890">
	<ele>929.80</ele>
	<time>2024-07-24T06:14:33.000Z</time>
</trkpt>
<trkpt lat="46.0258030" lon="10.3678920">
	<ele>929.80</ele>
	<time>2024-07-24T06:14:34.000Z</time>
</trkpt>
<trkpt lat="46.0258180" lon="10.3678890">
	<ele>929.80</ele>
	<time>2024-07-24T06:14:35.000Z</time>
</trkpt>
<trkpt lat="46.0258270" lon="10.3678860">
	<ele>929.80</ele>
	<time>2024-07-24T06:14:36.000Z</time>
</trkpt>
<trkpt lat="46.0258280" lon="10.3678790">
	<ele>929.80</ele>
	<time>2024-07-24T06:14:37.000Z</time>
</trkpt>
<trkpt lat="46.0258300" lon="10.3678640">
	<ele>929.80</ele>
	<time>2024-07-24T06:14:38.000Z</time>
</trkpt>
<trkpt lat="46.0258310" lon="10.3678490">
	<ele>929.80</ele>
	<time>2024-07-24T06:14:39.000Z</time>
</trkpt>
<trkpt lat="46.0258320" lon="10.3678360">
	<ele>930.00</ele>
	<time>2024-07-24T06:14:40.000Z</time>
</trkpt>
<trkpt lat="46.0258340" lon="10.3678220">
	<ele>930.00</ele>
	<time>2024-07-24T06:14:41.000Z</time>
</trkpt>
<trkpt lat="46.0258320" lon="10.3678050">
	<ele>930.00</ele>
	<time>2024-07-24T06:14:42.000Z</time>
</trkpt>
<trkpt lat="46.0258290" lon="10.3677870">
	<ele>930.00</ele>
	<time>2024-07-24T06:14:43.000Z</time>
</trkpt>
<trkpt lat="46.0258300" lon="10.3677700">
	<ele>930.00</ele>
	<time>2024-07-24T06:14:44.000Z</time>
</trkpt>
<trkpt lat="46.0258370" lon="10.3677600">
	<ele>930.20</ele>
	<time>2024-07-24T06:14:45.000Z</time>
</trkpt>
<trkpt lat="46.0258500" lon="10.3677500">
	<ele>930.20</ele>
	<time>2024-07-24T06:14:46.000Z</time>
</trkpt>
<trkpt lat="46.0258560" lon="10.3677390">
	<ele>930.40</ele>
	<time>2024-07-24T06:14:47.000Z</time>
</trkpt>
<trkpt lat="46.0258610" lon="10.3677260">
	<ele>930.60</ele>
	<time>2024-07-24T06:14:48.000Z</time>
</trkpt>
<trkpt lat="46.0258670" lon="10.3677160">
	<ele>930.80</ele>
	<time>2024-07-24T06:14:49.000Z</time>
</trkpt>
<trkpt lat="46.0258720" lon="10.3677050">
	<ele>930.80</ele>
	<time>2024-07-24T06:14:50.000Z</time>
</trkpt>
<trkpt lat="46.0258750" lon="10.3676920">
	<ele>930.80</ele>
	<time>2024-07-24T06:14:51.000Z</time>
</trkpt>
<trkpt lat="46.0258840" lon="10.3676840">
	<ele>931.00</ele>
	<time>2024-07-24T06:14:52.000Z</time>
</trkpt>
<trkpt lat="46.0259000" lon="10.3676880">
	<ele>931.00</ele>
	<time>2024-07-24T06:14:53.000Z</time>
</trkpt>
<trkpt lat="46.0259220" lon="10.3676930">
	<ele>931.00</ele>
	<time>2024-07-24T06:14:54.000Z</time>
</trkpt>
<trkpt lat="46.0259410" lon="10.3676970">
	<ele>931.20</ele>
	<time>2024-07-24T06:14:55.000Z</time>
</trkpt>
<trkpt lat="46.0259540" lon="10.3676980">
	<ele>931.20</ele>
	<time>2024-07-24T06:14:56.000Z</time>
</trkpt>
<trkpt lat="46.0259680" lon="10.3676970">
	<ele>931.20</ele>
	<time>2024-07-24T06:14:57.000Z</time>
</trkpt>
<trkpt lat="46.0259790" lon="10.3676960">
	<ele>931.40</ele>
	<time>2024-07-24T06:14:58.000Z</time>
</trkpt>
<trkpt lat="46.0259840" lon="10.3676920">
	<ele>931.60</ele>
	<time>2024-07-24T06:14:59.000Z</time>
</trkpt>
<trkpt lat="46.0259900" lon="10.3676980">
	<ele>931.80</ele>
	<time>2024-07-24T06:15:00.000Z</time>
</trkpt>
<trkpt lat="46.0259990" lon="10.3677110">
	<ele>932.20</ele>
	<time>2024-07-24T06:15:01.000Z</time>
</trkpt>
<trkpt lat="46.0260050" lon="10.3677220">
	<ele>932.60</ele>
	<time>2024-07-24T06:15:02.000Z</time>
</trkpt>
<trkpt lat="46.0260140" lon="10.3677380">
	<ele>932.60</ele>
	<time>2024-07-24T06:15:03.000Z</time>
</trkpt>
<trkpt lat="46.0260250" lon="10.3677550">
	<ele>932.80</ele>
	<time>2024-07-24T06:15:04.000Z</time>
</trkpt>
<trkpt lat="46.0260320" lon="10.3677700">
	<ele>932.80</ele>
	<time>2024-07-24T06:15:05.000Z</time>
</trkpt>
<trkpt lat="46.0260380" lon="10.3677860">
	<ele>932.80</ele>
	<time>2024-07-24T06:15:06.000Z</time>
</trkpt>
<trkpt lat="46.0260430" lon="10.3678060">
	<ele>933.00</ele>
	<time>2024-07-24T06:15:07.000Z</time>
</trkpt>
<trkpt lat="46.0260470" lon="10.3678230">
	<ele>933.00</ele>
	<time>2024-07-24T06:15:08.000Z</time>
</trkpt>
<trkpt lat="46.0260510" lon="10.3678340">
	<ele>933.20</ele>
	<time>2024-07-24T06:15:09.000Z</time>
</trkpt>
<trkpt lat="46.0260590" lon="10.3678510">
	<ele>933.20</ele>
	<time>2024-07-24T06:15:10.000Z</time>
</trkpt>
<trkpt lat="46.0260690" lon="10.3678720">
	<ele>933.40</ele>
	<time>2024-07-24T06:15:11.000Z</time>
</trkpt>
<trkpt lat="46.0260710" lon="10.3678820">
	<ele>933.40</ele>
	<time>2024-07-24T06:15:12.000Z</time>
</trkpt>
<trkpt lat="46.0260760" lon="10.3678980">
	<ele>933.60</ele>
	<time>2024-07-24T06:15:13.000Z</time>
</trkpt>
<trkpt lat="46.0260800" lon="10.3679090">
	<ele>933.60</ele>
	<time>2024-07-24T06:15:14.000Z</time>
</trkpt>
<trkpt lat="46.0260880" lon="10.3679260">
	<ele>933.60</ele>
	<time>2024-07-24T06:15:15.000Z</time>
</trkpt>
<trkpt lat="46.0260890" lon="10.3679380">
	<ele>933.80</ele>
	<time>2024-07-24T06:15:16.000Z</time>
</trkpt>
<trkpt lat="46.0260930" lon="10.3679530">
	<ele>934.00</ele>
	<time>2024-07-24T06:15:17.000Z</time>
</trkpt>
<trkpt lat="46.0260970" lon="10.3679700">
	<ele>934.20</ele>
	<time>2024-07-24T06:15:18.000Z</time>
</trkpt>
<trkpt lat="46.0260980" lon="10.3679890">
	<ele>934.40</ele>
	<time>2024-07-24T06:15:19.000Z</time>
</trkpt>
<trkpt lat="46.0261020" lon="10.3680100">
	<ele>934.60</ele>
	<time>2024-07-24T06:15:20.000Z</time>
</trkpt>
<trkpt lat="46.0261060" lon="10.3680260">
	<ele>934.80</ele>
	<time>2024-07-24T06:15:21.000Z</time>
</trkpt>
<trkpt lat="46.0261090" lon="10.3680420">
	<ele>935.00</ele>
	<time>2024-07-24T06:15:22.000Z</time>
</trkpt>
<trkpt lat="46.0261110" lon="10.3680520">
	<ele>935.00</ele>
	<time>2024-07-24T06:15:23.000Z</time>
</trkpt>
<trkpt lat="46.0261240" lon="10.3680690">
	<ele>935.20</ele>
	<time>2024-07-24T06:15:24.000Z</time>
</trkpt>
<trkpt lat="46.0261380" lon="10.3680850">
	<ele>935.40</ele>
	<time>2024-07-24T06:15:25.000Z</time>
</trkpt>
<trkpt lat="46.0261460" lon="10.3680980">
	<ele>935.60</ele>
	<time>2024-07-24T06:15:26.000Z</time>
</trkpt>
<trkpt lat="46.0261530" lon="10.3681120">
	<ele>935.80</ele>
	<time>2024-07-24T06:15:27.000Z</time>
</trkpt>
<trkpt lat="46.0261570" lon="10.3681250">
	<ele>936.00</ele>
	<time>2024-07-24T06:15:28.000Z</time>
</trkpt>
<trkpt lat="46.0261550" lon="10.3681380">
	<ele>936.00</ele>
	<time>2024-07-24T06:15:29.000Z</time>
</trkpt>
<trkpt lat="46.0261590" lon="10.3681600">
	<ele>936.20</ele>
	<time>2024-07-24T06:15:30.000Z</time>
</trkpt>
<trkpt lat="46.0261640" lon="10.3681750">
	<ele>936.20</ele>
	<time>2024-07-24T06:15:31.000Z</time>
</trkpt>
<trkpt lat="46.0261660" lon="10.3681880">
	<ele>936.20</ele>
	<time>2024-07-24T06:15:32.000Z</time>
</trkpt>
<trkpt lat="46.0261640" lon="10.3681990">
	<ele>936.40</ele>
	<time>2024-07-24T06:15:33.000Z</time>
</trkpt>
<trkpt lat="46.0261690" lon="10.3682180">
	<ele>936.40</ele>
	<time>2024-07-24T06:15:34.000Z</time>
</trkpt>
<trkpt lat="46.0261730" lon="10.3682310">
	<ele>936.40</ele>
	<time>2024-07-24T06:15:35.000Z</time>
</trkpt>
<trkpt lat="46.0261680" lon="10.3682380">
	<ele>936.60</ele>
	<time>2024-07-24T06:15:36.000Z</time>
</trkpt>
<trkpt lat="46.0261650" lon="10.3682520">
	<ele>936.60</ele>
	<time>2024-07-24T06:15:37.000Z</time>
</trkpt>
<trkpt lat="46.0261640" lon="10.3682710">
	<ele>936.80</ele>
	<time>2024-07-24T06:15:38.000Z</time>
</trkpt>
<trkpt lat="46.0261660" lon="10.3682960">
	<ele>936.80</ele>
	<time>2024-07-24T06:15:39.000Z</time>
</trkpt>
<trkpt lat="46.0261670" lon="10.3683160">
	<ele>936.80</ele>
	<time>2024-07-24T06:15:40.000Z</time>
</trkpt>
<trkpt lat="46.0261660" lon="10.3683360">
	<ele>937.00</ele>
	<time>2024-07-24T06:15:41.000Z</time>
</trkpt>
<trkpt lat="46.0261680" lon="10.3683510">
	<ele>937.20</ele>
	<time>2024-07-24T06:15:42.000Z</time>
</trkpt>
<trkpt lat="46.0261650" lon="10.3683690">
	<ele>937.20</ele>
	<time>2024-07-24T06:15:43.000Z</time>
</trkpt>
<trkpt lat="46.0261620" lon="10.3683830">
	<ele>937.40</ele>
	<time>2024-07-24T06:15:44.000Z</time>
</trkpt>
<trkpt lat="46.0261590" lon="10.3683970">
	<ele>937.40</ele>
	<time>2024-07-24T06:15:45.000Z</time>
</trkpt>
<trkpt lat="46.0261560" lon="10.3684110">
	<ele>937.40</ele>
	<time>2024-07-24T06:15:46.000Z</time>
</trkpt>
<trkpt lat="46.0261530" lon="10.3684220">
	<ele>937.60</ele>
	<time>2024-07-24T06:15:47.000Z</time>
</trkpt>
<trkpt lat="46.0261530" lon="10.3684400">
	<ele>937.60</ele>
	<time>2024-07-24T06:15:48.000Z</time>
</trkpt>
<trkpt lat="46.0261520" lon="10.3684550">
	<ele>937.60</ele>
	<time>2024-07-24T06:15:49.000Z</time>
</trkpt>
<trkpt lat="46.0261500" lon="10.3684710">
	<ele>937.60</ele>
	<time>2024-07-24T06:15:50.000Z</time>
</trkpt>
<trkpt lat="46.0261510" lon="10.3684870">
	<ele>937.60</ele>
	<time>2024-07-24T06:15:51.000Z</time>
</trkpt>
<trkpt lat="46.0261460" lon="10.3684990">
	<ele>937.80</ele>
	<time>2024-07-24T06:15:52.000Z</time>
</trkpt>
<trkpt lat="46.0261410" lon="10.3685160">
	<ele>937.80</ele>
	<time>2024-07-24T06:15:53.000Z</time>
</trkpt>
<trkpt lat="46.0261330" lon="10.3685290">
	<ele>938.00</ele>
	<time>2024-07-24T06:15:54.000Z</time>
</trkpt>
<trkpt lat="46.0261280" lon="10.3685400">
	<ele>938.00</ele>
	<time>2024-07-24T06:15:55.000Z</time>
</trkpt>
<trkpt lat="46.0261200" lon="10.3685490">
	<ele>938.20</ele>
	<time>2024-07-24T06:15:56.000Z</time>
</trkpt>
<trkpt lat="46.0261160" lon="10.3685600">
	<ele>938.20</ele>
	<time>2024-07-24T06:15:57.000Z</time>
</trkpt>
<trkpt lat="46.0261110" lon="10.3685730">
	<ele>938.40</ele>
	<time>2024-07-24T06:15:58.000Z</time>
</trkpt>
<trkpt lat="46.0261060" lon="10.3685860">
	<ele>938.40</ele>
	<time>2024-07-24T06:15:59.000Z</time>
</trkpt>
<trkpt lat="46.0260990" lon="10.3686000">
	<ele>938.60</ele>
	<time>2024-07-24T06:16:00.000Z</time>
</trkpt>
<trkpt lat="46.0260950" lon="10.3686160">
	<ele>938.60</ele>
	<time>2024-07-24T06:16:01.000Z</time>
</trkpt>
<trkpt lat="46.0260940" lon="10.3686280">
	<ele>938.60</ele>
	<time>2024-07-24T06:16:02.000Z</time>
</trkpt>
<trkpt lat="46.0260920" lon="10.3686390">
	<ele>938.80</ele>
	<time>2024-07-24T06:16:03.000Z</time>
</trkpt>
<trkpt lat="46.0260860" lon="10.3686550">
	<ele>938.60</ele>
	<time>2024-07-24T06:16:04.000Z</time>
</trkpt>
<trkpt lat="46.0260820" lon="10.3686750">
	<ele>938.40</ele>
	<time>2024-07-24T06:16:05.000Z</time>
</trkpt>
<trkpt lat="46.0260730" lon="10.3686910">
	<ele>938.20</ele>
	<time>2024-07-24T06:16:06.000Z</time>
</trkpt>
<trkpt lat="46.0260650" lon="10.3687000">
	<ele>938.20</ele>
	<time>2024-07-24T06:16:07.000Z</time>
</trkpt>
<trkpt lat="46.0260520" lon="10.3687140">
	<ele>938.20</ele>
	<time>2024-07-24T06:16:08.000Z</time>
</trkpt>
<trkpt lat="46.0260440" lon="10.3687260">
	<ele>938.40</ele>
	<time>2024-07-24T06:16:09.000Z</time>
</trkpt>
<trkpt lat="46.0260340" lon="10.3687410">
	<ele>938.60</ele>
	<time>2024-07-24T06:16:10.000Z</time>
</trkpt>
<trkpt lat="46.0260280" lon="10.3687630">
	<ele>938.80</ele>
	<time>2024-07-24T06:16:11.000Z</time>
</trkpt>
<trkpt lat="46.0260220" lon="10.3687870">
	<ele>938.80</ele>
	<time>2024-07-24T06:16:12.000Z</time>
</trkpt>
<trkpt lat="46.0260160" lon="10.3688020">
	<ele>939.00</ele>
	<time>2024-07-24T06:16:13.000Z</time>
</trkpt>
<trkpt lat="46.0260070" lon="10.3688200">
	<ele>939.00</ele>
	<time>2024-07-24T06:16:14.000Z</time>
</trkpt>
<trkpt lat="46.0259980" lon="10.3688330">
	<ele>939.00</ele>
	<time>2024-07-24T06:16:15.000Z</time>
</trkpt>
<trkpt lat="46.0259860" lon="10.3688460">
	<ele>939.00</ele>
	<time>2024-07-24T06:16:16.000Z</time>
</trkpt>
<trkpt lat="46.0259750" lon="10.3688600">
	<ele>939.00</ele>
	<time>2024-07-24T06:16:17.000Z</time>
</trkpt>
<trkpt lat="46.0259630" lon="10.3688800">
	<ele>939.00</ele>
	<time>2024-07-24T06:16:18.000Z</time>
</trkpt>
<trkpt lat="46.0259520" lon="10.3688900">
	<ele>939.00</ele>
	<time>2024-07-24T06:16:19.000Z</time>
</trkpt>
<trkpt lat="46.0259420" lon="10.3689050">
	<ele>939.00</ele>
	<time>2024-07-24T06:16:20.000Z</time>
</trkpt>
<trkpt lat="46.0259260" lon="10.3689200">
	<ele>939.00</ele>
	<time>2024-07-24T06:16:21.000Z</time>
</trkpt>
<trkpt lat="46.0259150" lon="10.3689450">
	<ele>939.00</ele>
	<time>2024-07-24T06:16:22.000Z</time>
</trkpt>
<trkpt lat="46.0259070" lon="10.3689600">
	<ele>939.00</ele>
	<time>2024-07-24T06:16:23.000Z</time>
</trkpt>
<trkpt lat="46.0259030" lon="10.3689740">
	<ele>939.00</ele>
	<time>2024-07-24T06:16:24.000Z</time>
</trkpt>
<trkpt lat="46.0258940" lon="10.3689890">
	<ele>939.00</ele>
	<time>2024-07-24T06:16:25.000Z</time>
</trkpt>
<trkpt lat="46.0258860" lon="10.3690040">
	<ele>939.20</ele>
	<time>2024-07-24T06:16:26.000Z</time>
</trkpt>
<trkpt lat="46.0258780" lon="10.3690190">
	<ele>939.40</ele>
	<time>2024-07-24T06:16:27.000Z</time>
</trkpt>
<trkpt lat="46.0258720" lon="10.3690350">
	<ele>939.40</ele>
	<time>2024-07-24T06:16:28.000Z</time>
</trkpt>
<trkpt lat="46.0258620" lon="10.3690550">
	<ele>939.40</ele>
	<time>2024-07-24T06:16:29.000Z</time>
</trkpt>
<trkpt lat="46.0258530" lon="10.3690760">
	<ele>939.40</ele>
	<time>2024-07-24T06:16:30.000Z</time>
</trkpt>
<trkpt lat="46.0258430" lon="10.3690950">
	<ele>939.40</ele>
	<time>2024-07-24T06:16:31.000Z</time>
</trkpt>
<trkpt lat="46.0258360" lon="10.3691070">
	<ele>939.40</ele>
	<time>2024-07-24T06:16:32.000Z</time>
</trkpt>
<trkpt lat="46.0258310" lon="10.3691230">
	<ele>939.40</ele>
	<time>2024-07-24T06:16:33.000Z</time>
</trkpt>
<trkpt lat="46.0258280" lon="10.3691400">
	<ele>939.40</ele>
	<time>2024-07-24T06:16:34.000Z</time>
</trkpt>
<trkpt lat="46.0258230" lon="10.3691560">
	<ele>939.40</ele>
	<time>2024-07-24T06:16:35.000Z</time>
</trkpt>
<trkpt lat="46.0258180" lon="10.3691720">
	<ele>939.20</ele>
	<time>2024-07-24T06:16:36.000Z</time>
</trkpt>
<trkpt lat="46.0258130" lon="10.3691820">
	<ele>939.20</ele>
	<time>2024-07-24T06:16:37.000Z</time>
</trkpt>
<trkpt lat="46.0258100" lon="10.3691940">
	<ele>939.20</ele>
	<time>2024-07-24T06:16:38.000Z</time>
</trkpt>
<trkpt lat="46.0258060" lon="10.3692090">
	<ele>939.20</ele>
	<time>2024-07-24T06:16:39.000Z</time>
</trkpt>
<trkpt lat="46.0258020" lon="10.3692260">
	<ele>939.00</ele>
	<time>2024-07-24T06:16:40.000Z</time>
</trkpt>
<trkpt lat="46.0257990" lon="10.3692390">
	<ele>939.20</ele>
	<time>2024-07-24T06:16:41.000Z</time>
</trkpt>
<trkpt lat="46.0257980" lon="10.3692490">
	<ele>939.20</ele>
	<time>2024-07-24T06:16:42.000Z</time>
</trkpt>
<trkpt lat="46.0257950" lon="10.3692520">
	<ele>939.40</ele>
	<time>2024-07-24T06:16:43.000Z</time>
</trkpt>
<trkpt lat="46.0257950" lon="10.3692550">
	<ele>939.40</ele>
	<time>2024-07-24T06:16:44.000Z</time>
</trkpt>
<trkpt lat="46.0257930" lon="10.3692530">
	<ele>939.60</ele>
	<time>2024-07-24T06:16:45.000Z</time>
</trkpt>
<trkpt lat="46.0257910" lon="10.3692510">
	<ele>939.40</ele>
	<time>2024-07-24T06:16:46.000Z</time>
</trkpt>
<trkpt lat="46.0257890" lon="10.3692470">
	<ele>939.40</ele>
	<time>2024-07-24T06:16:47.000Z</time>
</trkpt>
<trkpt lat="46.0257860" lon="10.3692450">
	<ele>939.40</ele>
	<time>2024-07-24T06:16:48.000Z</time>
</trkpt>
<trkpt lat="46.0257870" lon="10.3692520">
	<ele>939.20</ele>
	<time>2024-07-24T06:16:49.000Z</time>
</trkpt>
<trkpt lat="46.0257890" lon="10.3692710">
	<ele>939.20</ele>
	<time>2024-07-24T06:16:50.000Z</time>
</trkpt>
<trkpt lat="46.0257880" lon="10.3692900">
	<ele>939.20</ele>
	<time>2024-07-24T06:16:51.000Z</time>
</trkpt>
<trkpt lat="46.0257830" lon="10.3693060">
	<ele>939.20</ele>
	<time>2024-07-24T06:16:52.000Z</time>
</trkpt>
<trkpt lat="46.0257760" lon="10.3693180">
	<ele>939.20</ele>
	<time>2024-07-24T06:16:53.000Z</time>
</trkpt>
<trkpt lat="46.0257700" lon="10.3693340">
	<ele>939.20</ele>
	<time>2024-07-24T06:16:54.000Z</time>
</trkpt>
<trkpt lat="46.0257660" lon="10.3693550">
	<ele>939.20</ele>
	<time>2024-07-24T06:16:55.000Z</time>
</trkpt>
<trkpt lat="46.0257590" lon="10.3693730">
	<ele>939.20</ele>
	<time>2024-07-24T06:16:56.000Z</time>
</trkpt>
<trkpt lat="46.0257530" lon="10.3693910">
	<ele>939.40</ele>
	<time>2024-07-24T06:16:57.000Z</time>
</trkpt>
<trkpt lat="46.0257490" lon="10.3694090">
	<ele>939.40</ele>
	<time>2024-07-24T06:16:58.000Z</time>
</trkpt>
<trkpt lat="46.0257440" lon="10.3694280">
	<ele>939.40</ele>
	<time>2024-07-24T06:16:59.000Z</time>
</trkpt>
<trkpt lat="46.0257410" lon="10.3694530">
	<ele>939.60</ele>
	<time>2024-07-24T06:17:00.000Z</time>
</trkpt>
<trkpt lat="46.0257340" lon="10.3694740">
	<ele>939.60</ele>
	<time>2024-07-24T06:17:01.000Z</time>
</trkpt>
<trkpt lat="46.0257320" lon="10.3694950">
	<ele>939.60</ele>
	<time>2024-07-24T06:17:02.000Z</time>
</trkpt>
<trkpt lat="46.0257310" lon="10.3695150">
	<ele>939.60</ele>
	<time>2024-07-24T06:17:03.000Z</time>
</trkpt>
<trkpt lat="46.0257260" lon="10.3695340">
	<ele>939.80</ele>
	<time>2024-07-24T06:17:04.000Z</time>
</trkpt>
<trkpt lat="46.0257200" lon="10.3695490">
	<ele>940.00</ele>
	<time>2024-07-24T06:17:05.000Z</time>
</trkpt>
<trkpt lat="46.0257160" lon="10.3695670">
	<ele>940.00</ele>
	<time>2024-07-24T06:17:06.000Z</time>
</trkpt>
<trkpt lat="46.0257130" lon="10.3695890">
	<ele>940.00</ele>
	<time>2024-07-24T06:17:07.000Z</time>
</trkpt>
<trkpt lat="46.0257120" lon="10.3696110">
	<ele>940.20</ele>
	<time>2024-07-24T06:17:08.000Z</time>
</trkpt>
<trkpt lat="46.0257060" lon="10.3696240">
	<ele>940.20</ele>
	<time>2024-07-24T06:17:09.000Z</time>
</trkpt>
<trkpt lat="46.0257020" lon="10.3696400">
	<ele>940.20</ele>
	<time>2024-07-24T06:17:10.000Z</time>
</trkpt>
<trkpt lat="46.0257010" lon="10.3696560">
	<ele>940.40</ele>
	<time>2024-07-24T06:17:11.000Z</time>
</trkpt>
<trkpt lat="46.0256980" lon="10.3696710">
	<ele>940.60</ele>
	<time>2024-07-24T06:17:12.000Z</time>
</trkpt>
<trkpt lat="46.0256920" lon="10.3696860">
	<ele>940.60</ele>
	<time>2024-07-24T06:17:13.000Z</time>
</trkpt>
<trkpt lat="46.0256910" lon="10.3697060">
	<ele>940.60</ele>
	<time>2024-07-24T06:17:14.000Z</time>
</trkpt>
<trkpt lat="46.0256850" lon="10.3697240">
	<ele>940.80</ele>
	<time>2024-07-24T06:17:15.000Z</time>
</trkpt>
<trkpt lat="46.0256750" lon="10.3697420">
	<ele>940.80</ele>
	<time>2024-07-24T06:17:16.000Z</time>
</trkpt>
<trkpt lat="46.0256720" lon="10.3697640">
	<ele>940.80</ele>
	<time>2024-07-24T06:17:17.000Z</time>
</trkpt>
<trkpt lat="46.0256700" lon="10.3697830">
	<ele>940.80</ele>
	<time>2024-07-24T06:17:18.000Z</time>
</trkpt>
<trkpt lat="46.0256690" lon="10.3698010">
	<ele>940.80</ele>
	<time>2024-07-24T06:17:19.000Z</time>
</trkpt>
<trkpt lat="46.0256660" lon="10.3698150">
	<ele>940.80</ele>
	<time>2024-07-24T06:17:20.000Z</time>
</trkpt>
<trkpt lat="46.0256650" lon="10.3698320">
	<ele>941.00</ele>
	<time>2024-07-24T06:17:21.000Z</time>
</trkpt>
<trkpt lat="46.0256620" lon="10.3698500">
	<ele>941.00</ele>
	<time>2024-07-24T06:17:22.000Z</time>
</trkpt>
<trkpt lat="46.0256620" lon="10.3698750">
	<ele>941.00</ele>
	<time>2024-07-24T06:17:23.000Z</time>
</trkpt>
<trkpt lat="46.0256660" lon="10.3698950">
	<ele>941.20</ele>
	<time>2024-07-24T06:17:24.000Z</time>
</trkpt>
<trkpt lat="46.0256690" lon="10.3699110">
	<ele>941.20</ele>
	<time>2024-07-24T06:17:25.000Z</time>
</trkpt>
<trkpt lat="46.0256670" lon="10.3699200">
	<ele>941.20</ele>
	<time>2024-07-24T06:17:26.000Z</time>
</trkpt>
<trkpt lat="46.0256700" lon="10.3699400">
	<ele>941.40</ele>
	<time>2024-07-24T06:17:27.000Z</time>
</trkpt>
<trkpt lat="46.0256700" lon="10.3699520">
	<ele>941.40</ele>
	<time>2024-07-24T06:17:28.000Z</time>
</trkpt>
<trkpt lat="46.0256700" lon="10.3699670">
	<ele>941.40</ele>
	<time>2024-07-24T06:17:29.000Z</time>
</trkpt>
<trkpt lat="46.0256710" lon="10.3699840">
	<ele>941.40</ele>
	<time>2024-07-24T06:17:30.000Z</time>
</trkpt>
<trkpt lat="46.0256720" lon="10.3699900">
	<ele>941.40</ele>
	<time>2024-07-24T06:17:31.000Z</time>
</trkpt>
<trkpt lat="46.0256740" lon="10.3700030">
	<ele>941.40</ele>
	<time>2024-07-24T06:17:32.000Z</time>
</trkpt>
<trkpt lat="46.0256770" lon="10.3700140">
	<ele>941.60</ele>
	<time>2024-07-24T06:17:33.000Z</time>
</trkpt>
<trkpt lat="46.0256780" lon="10.3700170">
	<ele>941.60</ele>
	<time>2024-07-24T06:17:34.000Z</time>
</trkpt>
<trkpt lat="46.0256810" lon="10.3700190">
	<ele>941.60</ele>
	<time>2024-07-24T06:17:35.000Z</time>
</trkpt>
<trkpt lat="46.0256850" lon="10.3700190">
	<ele>941.60</ele>
	<time>2024-07-24T06:17:36.000Z</time>
</trkpt>
<trkpt lat="46.0256870" lon="10.3700190">
	<ele>941.60</ele>
	<time>2024-07-24T06:17:37.000Z</time>
</trkpt>
<trkpt lat="46.0256870" lon="10.3700190">
	<ele>941.60</ele>
	<time>2024-07-24T06:17:38.000Z</time>
</trkpt>
<trkpt lat="46.0256870" lon="10.3700190">
	<ele>941.60</ele>
	<time>2024-07-24T06:17:39.000Z</time>
</trkpt>
<trkpt lat="46.0256860" lon="10.3700160">
	<ele>941.60</ele>
	<time>2024-07-24T06:17:40.000Z</time>
</trkpt>
<trkpt lat="46.0256870" lon="10.3700160">
	<ele>941.60</ele>
	<time>2024-07-24T06:17:41.000Z</time>
</trkpt>
<trkpt lat="46.0256860" lon="10.3700170">
	<ele>941.60</ele>
	<time>2024-07-24T06:17:42.000Z</time>
</trkpt>
<trkpt lat="46.0256890" lon="10.3700220">
	<ele>941.60</ele>
	<time>2024-07-24T06:17:43.000Z</time>
</trkpt>
<trkpt lat="46.0256890" lon="10.3700270">
	<ele>941.60</ele>
	<time>2024-07-24T06:17:44.000Z</time>
</trkpt>
<trkpt lat="46.0256880" lon="10.3700290">
	<ele>941.60</ele>
	<time>2024-07-24T06:17:45.000Z</time>
</trkpt>
<trkpt lat="46.0256880" lon="10.3700310">
	<ele>941.60</ele>
	<time>2024-07-24T06:17:46.000Z</time>
</trkpt>
<trkpt lat="46.0256910" lon="10.3700330">
	<ele>941.60</ele>
	<time>2024-07-24T06:17:47.000Z</time>
</trkpt>
<trkpt lat="46.0256930" lon="10.3700370">
	<ele>941.60</ele>
	<time>2024-07-24T06:17:48.000Z</time>
</trkpt>
<trkpt lat="46.0256940" lon="10.3700410">
	<ele>941.60</ele>
	<time>2024-07-24T06:17:49.000Z</time>
</trkpt>
<trkpt lat="46.0256980" lon="10.3700480">
	<ele>941.60</ele>
	<time>2024-07-24T06:17:50.000Z</time>
</trkpt>
<trkpt lat="46.0257030" lon="10.3700550">
	<ele>941.60</ele>
	<time>2024-07-24T06:17:51.000Z</time>
</trkpt>
<trkpt lat="46.0257050" lon="10.3700570">
	<ele>941.60</ele>
	<time>2024-07-24T06:17:52.000Z</time>
</trkpt>
<trkpt lat="46.0257080" lon="10.3700640">
	<ele>941.60</ele>
	<time>2024-07-24T06:17:53.000Z</time>
</trkpt>
<trkpt lat="46.0257090" lon="10.3700640">
	<ele>941.60</ele>
	<time>2024-07-24T06:17:54.000Z</time>
</trkpt>
<trkpt lat="46.0257080" lon="10.3700600">
	<ele>941.60</ele>
	<time>2024-07-24T06:17:55.000Z</time>
</trkpt>
<trkpt lat="46.0257060" lon="10.3700490">
	<ele>941.40</ele>
	<time>2024-07-24T06:17:56.000Z</time>
</trkpt>
<trkpt lat="46.0257020" lon="10.3700330">
	<ele>941.20</ele>
	<time>2024-07-24T06:17:57.000Z</time>
</trkpt>
<trkpt lat="46.0256990" lon="10.3700200">
	<ele>941.20</ele>
	<time>2024-07-24T06:17:58.000Z</time>
</trkpt>
<trkpt lat="46.0256980" lon="10.3700070">
	<ele>941.00</ele>
	<time>2024-07-24T06:17:59.000Z</time>
</trkpt>
<trkpt lat="46.0256950" lon="10.3699940">
	<ele>941.00</ele>
	<time>2024-07-24T06:18:00.000Z</time>
</trkpt>
<trkpt lat="46.0256880" lon="10.3699780">
	<ele>941.00</ele>
	<time>2024-07-24T06:18:01.000Z</time>
</trkpt>
<trkpt lat="46.0256840" lon="10.3699650">
	<ele>941.20</ele>
	<time>2024-07-24T06:18:02.000Z</time>
</trkpt>
<trkpt lat="46.0256780" lon="10.3699400">
	<ele>941.20</ele>
	<time>2024-07-24T06:18:03.000Z</time>
</trkpt>
<trkpt lat="46.0256740" lon="10.3699250">
	<ele>941.20</ele>
	<time>2024-07-24T06:18:04.000Z</time>
</trkpt>
<trkpt lat="46.0256650" lon="10.3699070">
	<ele>941.40</ele>
	<time>2024-07-24T06:18:05.000Z</time>
</trkpt>
<trkpt lat="46.0256650" lon="10.3698830">
	<ele>941.40</ele>
	<time>2024-07-24T06:18:06.000Z</time>
</trkpt>
<trkpt lat="46.0256640" lon="10.3698590">
	<ele>941.40</ele>
	<time>2024-07-24T06:18:07.000Z</time>
</trkpt>
<trkpt lat="46.0256620" lon="10.3698470">
	<ele>941.60</ele>
	<time>2024-07-24T06:18:08.000Z</time>
</trkpt>
<trkpt lat="46.0256510" lon="10.3698220">
	<ele>941.60</ele>
	<time>2024-07-24T06:18:09.000Z</time>
</trkpt>
<trkpt lat="46.0256420" lon="10.3697930">
	<ele>941.80</ele>
	<time>2024-07-24T06:18:10.000Z</time>
</trkpt>
<trkpt lat="46.0256330" lon="10.3697690">
	<ele>941.80</ele>
	<time>2024-07-24T06:18:11.000Z</time>
</trkpt>
<trkpt lat="46.0256240" lon="10.3697520">
	<ele>941.80</ele>
	<time>2024-07-24T06:18:12.000Z</time>
</trkpt>
<trkpt lat="46.0256080" lon="10.3697320">
	<ele>941.80</ele>
	<time>2024-07-24T06:18:13.000Z</time>
</trkpt>
<trkpt lat="46.0255940" lon="10.3697100">
	<ele>942.00</ele>
	<time>2024-07-24T06:18:14.000Z</time>
</trkpt>
<trkpt lat="46.0255800" lon="10.3696870">
	<ele>942.00</ele>
	<time>2024-07-24T06:18:15.000Z</time>
</trkpt>
<trkpt lat="46.0255680" lon="10.3696680">
	<ele>942.00</ele>
	<time>2024-07-24T06:18:16.000Z</time>
</trkpt>
<trkpt lat="46.0255550" lon="10.3696530">
	<ele>942.20</ele>
	<time>2024-07-24T06:18:17.000Z</time>
</trkpt>
<trkpt lat="46.0255400" lon="10.3696430">
	<ele>942.20</ele>
	<time>2024-07-24T06:18:18.000Z</time>
</trkpt>
<trkpt lat="46.0255280" lon="10.3696380">
	<ele>942.20</ele>
	<time>2024-07-24T06:18:19.000Z</time>
</trkpt>
<trkpt lat="46.0255140" lon="10.3696350">
	<ele>942.40</ele>
	<time>2024-07-24T06:18:20.000Z</time>
</trkpt>
<trkpt lat="46.0255010" lon="10.3696290">
	<ele>942.40</ele>
	<time>2024-07-24T06:18:21.000Z</time>
</trkpt>
<trkpt lat="46.0254830" lon="10.3696180">
	<ele>942.40</ele>
	<time>2024-07-24T06:18:22.000Z</time>
</trkpt>
<trkpt lat="46.0254660" lon="10.3696050">
	<ele>942.60</ele>
	<time>2024-07-24T06:18:23.000Z</time>
</trkpt>
<trkpt lat="46.0254520" lon="10.3695990">
	<ele>942.60</ele>
	<time>2024-07-24T06:18:24.000Z</time>
</trkpt>
<trkpt lat="46.0254400" lon="10.3695900">
	<ele>942.80</ele>
	<time>2024-07-24T06:18:25.000Z</time>
</trkpt>
<trkpt lat="46.0254290" lon="10.3695840">
	<ele>942.80</ele>
	<time>2024-07-24T06:18:26.000Z</time>
</trkpt>
<trkpt lat="46.0254170" lon="10.3695860">
	<ele>942.80</ele>
	<time>2024-07-24T06:18:27.000Z</time>
</trkpt>
<trkpt lat="46.0254040" lon="10.3695770">
	<ele>942.80</ele>
	<time>2024-07-24T06:18:28.000Z</time>
</trkpt>
<trkpt lat="46.0253910" lon="10.3695670">
	<ele>942.80</ele>
	<time>2024-07-24T06:18:29.000Z</time>
</trkpt>
<trkpt lat="46.0253810" lon="10.3695620">
	<ele>943.00</ele>
	<time>2024-07-24T06:18:30.000Z</time>
</trkpt>
<trkpt lat="46.0253740" lon="10.3695630">
	<ele>943.00</ele>
	<time>2024-07-24T06:18:31.000Z</time>
</trkpt>
<trkpt lat="46.0253600" lon="10.3695630">
	<ele>943.00</ele>
	<time>2024-07-24T06:18:32.000Z</time>
</trkpt>
<trkpt lat="46.0253460" lon="10.3695550">
	<ele>943.00</ele>
	<time>2024-07-24T06:18:33.000Z</time>
</trkpt>
<trkpt lat="46.0253280" lon="10.3695400">
	<ele>943.00</ele>
	<time>2024-07-24T06:18:34.000Z</time>
</trkpt>
<trkpt lat="46.0253150" lon="10.3695340">
	<ele>943.00</ele>
	<time>2024-07-24T06:18:35.000Z</time>
</trkpt>
<trkpt lat="46.0253050" lon="10.3695390">
	<ele>943.20</ele>
	<time>2024-07-24T06:18:36.000Z</time>
</trkpt>
<trkpt lat="46.0252990" lon="10.3695480">
	<ele>943.20</ele>
	<time>2024-07-24T06:18:37.000Z</time>
</trkpt>
<trkpt lat="46.0252950" lon="10.3695550">
	<ele>943.40</ele>
	<time>2024-07-24T06:18:38.000Z</time>
</trkpt>
<trkpt lat="46.0252790" lon="10.3695560">
	<ele>943.40</ele>
	<time>2024-07-24T06:18:39.000Z</time>
</trkpt>
<trkpt lat="46.0252660" lon="10.3695560">
	<ele>943.60</ele>
	<time>2024-07-24T06:18:40.000Z</time>
</trkpt>
<trkpt lat="46.0252520" lon="10.3695470">
	<ele>943.60</ele>
	<time>2024-07-24T06:18:41.000Z</time>
</trkpt>
<trkpt lat="46.0252380" lon="10.3695390">
	<ele>943.60</ele>
	<time>2024-07-24T06:18:42.000Z</time>
</trkpt>
<trkpt lat="46.0252460" lon="10.3695530">
	<ele>943.60</ele>
	<time>2024-07-24T06:18:43.000Z</time>
</trkpt>
<trkpt lat="46.0252570" lon="10.3695680">
	<ele>943.60</ele>
	<time>2024-07-24T06:18:44.000Z</time>
</trkpt>
<trkpt lat="46.0252510" lon="10.3695620">
	<ele>943.60</ele>
	<time>2024-07-24T06:18:45.000Z</time>
</trkpt>
<trkpt lat="46.0252330" lon="10.3695620">
	<ele>943.60</ele>
	<time>2024-07-24T06:18:46.000Z</time>
</trkpt>
<trkpt lat="46.0252100" lon="10.3695410">
	<ele>943.60</ele>
	<time>2024-07-24T06:18:47.000Z</time>
</trkpt>
<trkpt lat="46.0251970" lon="10.3695350">
	<ele>943.40</ele>
	<time>2024-07-24T06:18:48.000Z</time>
</trkpt>
<trkpt lat="46.0251850" lon="10.3695240">
	<ele>943.40</ele>
	<time>2024-07-24T06:18:49.000Z</time>
</trkpt>
<trkpt lat="46.0251760" lon="10.3695150">
	<ele>943.40</ele>
	<time>2024-07-24T06:18:50.000Z</time>
</trkpt>
<trkpt lat="46.0251660" lon="10.3695050">
	<ele>943.40</ele>
	<time>2024-07-24T06:18:51.000Z</time>
</trkpt>
<trkpt lat="46.0251550" lon="10.3694960">
	<ele>943.40</ele>
	<time>2024-07-24T06:18:52.000Z</time>
</trkpt>
<trkpt lat="46.0251420" lon="10.3694860">
	<ele>943.60</ele>
	<time>2024-07-24T06:18:53.000Z</time>
</trkpt>
<trkpt lat="46.0251320" lon="10.3694780">
	<ele>943.60</ele>
	<time>2024-07-24T06:18:54.000Z</time>
</trkpt>
<trkpt lat="46.0251190" lon="10.3694750">
	<ele>943.60</ele>
	<time>2024-07-24T06:18:55.000Z</time>
</trkpt>
<trkpt lat="46.0251070" lon="10.3694740">
	<ele>943.60</ele>
	<time>2024-07-24T06:18:56.000Z</time>
</trkpt>
<trkpt lat="46.0250970" lon="10.3694750">
	<ele>943.40</ele>
	<time>2024-07-24T06:18:57.000Z</time>
</trkpt>
<trkpt lat="46.0250830" lon="10.3694670">
	<ele>943.40</ele>
	<time>2024-07-24T06:18:58.000Z</time>
</trkpt>
<trkpt lat="46.0250690" lon="10.3694600">
	<ele>943.20</ele>
	<time>2024-07-24T06:18:59.000Z</time>
</trkpt>
<trkpt lat="46.0250560" lon="10.3694540">
	<ele>943.20</ele>
	<time>2024-07-24T06:19:00.000Z</time>
</trkpt>
<trkpt lat="46.0250440" lon="10.3694490">
	<ele>943.00</ele>
	<time>2024-07-24T06:19:01.000Z</time>
</trkpt>
<trkpt lat="46.0250310" lon="10.3694400">
	<ele>943.00</ele>
	<time>2024-07-24T06:19:02.000Z</time>
</trkpt>
<trkpt lat="46.0250180" lon="10.3694330">
	<ele>943.00</ele>
	<time>2024-07-24T06:19:03.000Z</time>
</trkpt>
<trkpt lat="46.0250060" lon="10.3694270">
	<ele>943.00</ele>
	<time>2024-07-24T06:19:04.000Z</time>
</trkpt>
<trkpt lat="46.0249950" lon="10.3694180">
	<ele>942.80</ele>
	<time>2024-07-24T06:19:05.000Z</time>
</trkpt>
<trkpt lat="46.0249810" lon="10.3694060">
	<ele>942.80</ele>
	<time>2024-07-24T06:19:06.000Z</time>
</trkpt>
<trkpt lat="46.0249670" lon="10.3693990">
	<ele>942.80</ele>
	<time>2024-07-24T06:19:07.000Z</time>
</trkpt>
<trkpt lat="46.0249530" lon="10.3693930">
	<ele>942.80</ele>
	<time>2024-07-24T06:19:08.000Z</time>
</trkpt>
<trkpt lat="46.0249410" lon="10.3693900">
	<ele>942.80</ele>
	<time>2024-07-24T06:19:09.000Z</time>
</trkpt>
<trkpt lat="46.0249300" lon="10.3693830">
	<ele>942.80</ele>
	<time>2024-07-24T06:19:10.000Z</time>
</trkpt>
<trkpt lat="46.0249170" lon="10.3693740">
	<ele>942.80</ele>
	<time>2024-07-24T06:19:11.000Z</time>
</trkpt>
<trkpt lat="46.0249070" lon="10.3693810">
	<ele>942.80</ele>
	<time>2024-07-24T06:19:12.000Z</time>
</trkpt>
<trkpt lat="46.0248940" lon="10.3693800">
	<ele>942.80</ele>
	<time>2024-07-24T06:19:13.000Z</time>
</trkpt>
<trkpt lat="46.0248760" lon="10.3693730">
	<ele>942.80</ele>
	<time>2024-07-24T06:19:14.000Z</time>
</trkpt>
<trkpt lat="46.0248570" lon="10.3693590">
	<ele>942.80</ele>
	<time>2024-07-24T06:19:15.000Z</time>
</trkpt>
<trkpt lat="46.0248370" lon="10.3693420">
	<ele>942.80</ele>
	<time>2024-07-24T06:19:16.000Z</time>
</trkpt>
<trkpt lat="46.0248260" lon="10.3693390">
	<ele>943.00</ele>
	<time>2024-07-24T06:19:17.000Z</time>
</trkpt>
<trkpt lat="46.0248150" lon="10.3693370">
	<ele>943.00</ele>
	<time>2024-07-24T06:19:18.000Z</time>
</trkpt>
<trkpt lat="46.0248040" lon="10.3693380">
	<ele>943.00</ele>
	<time>2024-07-24T06:19:19.000Z</time>
</trkpt>
<trkpt lat="46.0247890" lon="10.3693320">
	<ele>942.80</ele>
	<time>2024-07-24T06:19:20.000Z</time>
</trkpt>
<trkpt lat="46.0247770" lon="10.3693300">
	<ele>942.80</ele>
	<time>2024-07-24T06:19:21.000Z</time>
</trkpt>
<trkpt lat="46.0247680" lon="10.3693340">
	<ele>942.80</ele>
	<time>2024-07-24T06:19:22.000Z</time>
</trkpt>
<trkpt lat="46.0247550" lon="10.3693310">
	<ele>942.80</ele>
	<time>2024-07-24T06:19:23.000Z</time>
</trkpt>
<trkpt lat="46.0247440" lon="10.3693280">
	<ele>942.80</ele>
	<time>2024-07-24T06:19:24.000Z</time>
</trkpt>
<trkpt lat="46.0247350" lon="10.3693280">
	<ele>942.80</ele>
	<time>2024-07-24T06:19:25.000Z</time>
</trkpt>
<trkpt lat="46.0247240" lon="10.3693270">
	<ele>942.80</ele>
	<time>2024-07-24T06:19:26.000Z</time>
</trkpt>
<trkpt lat="46.0247140" lon="10.3693320">
	<ele>942.80</ele>
	<time>2024-07-24T06:19:27.000Z</time>
</trkpt>
<trkpt lat="46.0246970" lon="10.3693300">
	<ele>942.60</ele>
	<time>2024-07-24T06:19:28.000Z</time>
</trkpt>
<trkpt lat="46.0246810" lon="10.3693260">
	<ele>942.60</ele>
	<time>2024-07-24T06:19:29.000Z</time>
</trkpt>
<trkpt lat="46.0246630" lon="10.3693240">
	<ele>942.60</ele>
	<time>2024-07-24T06:19:30.000Z</time>
</trkpt>
<trkpt lat="46.0246480" lon="10.3693270">
	<ele>942.60</ele>
	<time>2024-07-24T06:19:31.000Z</time>
</trkpt>
<trkpt lat="46.0246380" lon="10.3693310">
	<ele>942.60</ele>
	<time>2024-07-24T06:19:32.000Z</time>
</trkpt>
<trkpt lat="46.0246250" lon="10.3693340">
	<ele>942.60</ele>
	<time>2024-07-24T06:19:33.000Z</time>
</trkpt>
<trkpt lat="46.0246110" lon="10.3693380">
	<ele>942.60</ele>
	<time>2024-07-24T06:19:34.000Z</time>
</trkpt>
<trkpt lat="46.0245970" lon="10.3693400">
	<ele>942.60</ele>
	<time>2024-07-24T06:19:35.000Z</time>
</trkpt>
<trkpt lat="46.0245820" lon="10.3693360">
	<ele>942.60</ele>
	<time>2024-07-24T06:19:36.000Z</time>
</trkpt>
<trkpt lat="46.0245710" lon="10.3693230">
	<ele>942.60</ele>
	<time>2024-07-24T06:19:37.000Z</time>
</trkpt>
<trkpt lat="46.0245610" lon="10.3693130">
	<ele>942.60</ele>
	<time>2024-07-24T06:19:38.000Z</time>
</trkpt>
<trkpt lat="46.0245430" lon="10.3692970">
	<ele>942.40</ele>
	<time>2024-07-24T06:19:39.000Z</time>
</trkpt>
<trkpt lat="46.0245220" lon="10.3692870">
	<ele>942.40</ele>
	<time>2024-07-24T06:19:40.000Z</time>
</trkpt>
<trkpt lat="46.0245070" lon="10.3692810">
	<ele>942.40</ele>
	<time>2024-07-24T06:19:41.000Z</time>
</trkpt>
<trkpt lat="46.0244950" lon="10.3692800">
	<ele>942.40</ele>
	<time>2024-07-24T06:19:42.000Z</time>
</trkpt>
<trkpt lat="46.0244830" lon="10.3692880">
	<ele>942.40</ele>
	<time>2024-07-24T06:19:43.000Z</time>
</trkpt>
<trkpt lat="46.0244710" lon="10.3692890">
	<ele>942.40</ele>
	<time>2024-07-24T06:19:44.000Z</time>
</trkpt>
<trkpt lat="46.0244590" lon="10.3692900">
	<ele>942.20</ele>
	<time>2024-07-24T06:19:45.000Z</time>
</trkpt>
<trkpt lat="46.0244500" lon="10.3692940">
	<ele>942.20</ele>
	<time>2024-07-24T06:19:46.000Z</time>
</trkpt>
<trkpt lat="46.0244370" lon="10.3692990">
	<ele>942.20</ele>
	<time>2024-07-24T06:19:47.000Z</time>
</trkpt>
<trkpt lat="46.0244170" lon="10.3692880">
	<ele>942.20</ele>
	<time>2024-07-24T06:19:48.000Z</time>
</trkpt>
<trkpt lat="46.0244060" lon="10.3692860">
	<ele>942.20</ele>
	<time>2024-07-24T06:19:49.000Z</time>
</trkpt>
<trkpt lat="46.0243950" lon="10.3692840">
	<ele>942.00</ele>
	<time>2024-07-24T06:19:50.000Z</time>
</trkpt>
<trkpt lat="46.0243800" lon="10.3692790">
	<ele>941.80</ele>
	<time>2024-07-24T06:19:51.000Z</time>
</trkpt>
<trkpt lat="46.0243670" lon="10.3692770">
	<ele>941.80</ele>
	<time>2024-07-24T06:19:52.000Z</time>
</trkpt>
<trkpt lat="46.0243550" lon="10.3692780">
	<ele>941.60</ele>
	<time>2024-07-24T06:19:53.000Z</time>
</trkpt>
<trkpt lat="46.0243410" lon="10.3692750">
	<ele>941.60</ele>
	<time>2024-07-24T06:19:54.000Z</time>
</trkpt>
<trkpt lat="46.0243270" lon="10.3692760">
	<ele>941.60</ele>
	<time>2024-07-24T06:19:55.000Z</time>
</trkpt>
<trkpt lat="46.0243180" lon="10.3692840">
	<ele>941.40</ele>
	<time>2024-07-24T06:19:56.000Z</time>
</trkpt>
<trkpt lat="46.0243060" lon="10.3692910">
	<ele>941.40</ele>
	<time>2024-07-24T06:19:57.000Z</time>
</trkpt>
<trkpt lat="46.0242910" lon="10.3692970">
	<ele>941.40</ele>
	<time>2024-07-24T06:19:58.000Z</time>
</trkpt>
<trkpt lat="46.0242780" lon="10.3692980">
	<ele>941.20</ele>
	<time>2024-07-24T06:19:59.000Z</time>
</trkpt>
<trkpt lat="46.0242660" lon="10.3693050">
	<ele>941.20</ele>
	<time>2024-07-24T06:20:00.000Z</time>
</trkpt>
<trkpt lat="46.0242530" lon="10.3693070">
	<ele>941.20</ele>
	<time>2024-07-24T06:20:01.000Z</time>
</trkpt>
<trkpt lat="46.0242390" lon="10.3693090">
	<ele>941.20</ele>
	<time>2024-07-24T06:20:02.000Z</time>
</trkpt>
<trkpt lat="46.0242270" lon="10.3693120">
	<ele>941.20</ele>
	<time>2024-07-24T06:20:03.000Z</time>
</trkpt>
<trkpt lat="46.0242150" lon="10.3693180">
	<ele>941.20</ele>
	<time>2024-07-24T06:20:04.000Z</time>
</trkpt>
<trkpt lat="46.0242020" lon="10.3693200">
	<ele>941.20</ele>
	<time>2024-07-24T06:20:05.000Z</time>
</trkpt>
<trkpt lat="46.0241910" lon="10.3693220">
	<ele>941.20</ele>
	<time>2024-07-24T06:20:06.000Z</time>
</trkpt>
<trkpt lat="46.0241820" lon="10.3693280">
	<ele>941.20</ele>
	<time>2024-07-24T06:20:07.000Z</time>
</trkpt>
<trkpt lat="46.0241780" lon="10.3693380">
	<ele>941.00</ele>
	<time>2024-07-24T06:20:08.000Z</time>
</trkpt>
<trkpt lat="46.0241760" lon="10.3693510">
	<ele>941.00</ele>
	<time>2024-07-24T06:20:09.000Z</time>
</trkpt>
<trkpt lat="46.0241750" lon="10.3693550">
	<ele>941.20</ele>
	<time>2024-07-24T06:20:10.000Z</time>
</trkpt>
<trkpt lat="46.0241750" lon="10.3693570">
	<ele>941.20</ele>
	<time>2024-07-24T06:20:11.000Z</time>
</trkpt>
<trkpt lat="46.0241760" lon="10.3693580">
	<ele>941.20</ele>
	<time>2024-07-24T06:20:12.000Z</time>
</trkpt>
<trkpt lat="46.0241770" lon="10.3693590">
	<ele>941.20</ele>
	<time>2024-07-24T06:20:13.000Z</time>
</trkpt>
<trkpt lat="46.0241780" lon="10.3693590">
	<ele>941.20</ele>
	<time>2024-07-24T06:20:14.000Z</time>
</trkpt>
<trkpt lat="46.0241770" lon="10.3693590">
	<ele>941.20</ele>
	<time>2024-07-24T06:20:15.000Z</time>
</trkpt>
<trkpt lat="46.0241770" lon="10.3693590">
	<ele>941.20</ele>
	<time>2024-07-24T06:20:16.000Z</time>
</trkpt>
<trkpt lat="46.0241770" lon="10.3693580">
	<ele>941.20</ele>
	<time>2024-07-24T06:20:17.000Z</time>
</trkpt>
<trkpt lat="46.0241760" lon="10.3693570">
	<ele>941.20</ele>
	<time>2024-07-24T06:20:18.000Z</time>
</trkpt>
<trkpt lat="46.0241750" lon="10.3693560">
	<ele>941.20</ele>
	<time>2024-07-24T06:20:19.000Z</time>
</trkpt>
<trkpt lat="46.0241800" lon="10.3693600">
	<ele>941.20</ele>
	<time>2024-07-24T06:20:20.000Z</time>
</trkpt>
<trkpt lat="46.0241900" lon="10.3693710">
	<ele>941.20</ele>
	<time>2024-07-24T06:20:21.000Z</time>
</trkpt>
<trkpt lat="46.0241990" lon="10.3693840">
	<ele>941.00</ele>
	<time>2024-07-24T06:20:22.000Z</time>
</trkpt>
<trkpt lat="46.0242060" lon="10.3693910">
	<ele>941.00</ele>
	<time>2024-07-24T06:20:23.000Z</time>
</trkpt>
<trkpt lat="46.0242160" lon="10.3693970">
	<ele>941.00</ele>
	<time>2024-07-24T06:20:24.000Z</time>
</trkpt>
<trkpt lat="46.0242250" lon="10.3694060">
	<ele>941.00</ele>
	<time>2024-07-24T06:20:25.000Z</time>
</trkpt>
<trkpt lat="46.0242320" lon="10.3694150">
	<ele>941.20</ele>
	<time>2024-07-24T06:20:26.000Z</time>
</trkpt>
<trkpt lat="46.0242410" lon="10.3694280">
	<ele>941.20</ele>
	<time>2024-07-24T06:20:27.000Z</time>
</trkpt>
<trkpt lat="46.0242460" lon="10.3694430">
	<ele>941.40</ele>
	<time>2024-07-24T06:20:28.000Z</time>
</trkpt>
<trkpt lat="46.0242510" lon="10.3694530">
	<ele>941.40</ele>
	<time>2024-07-24T06:20:29.000Z</time>
</trkpt>
<trkpt lat="46.0242570" lon="10.3694700">
	<ele>941.60</ele>
	<time>2024-07-24T06:20:30.000Z</time>
</trkpt>
<trkpt lat="46.0242600" lon="10.3694860">
	<ele>941.60</ele>
	<time>2024-07-24T06:20:31.000Z</time>
</trkpt>
<trkpt lat="46.0242610" lon="10.3694940">
	<ele>941.80</ele>
	<time>2024-07-24T06:20:32.000Z</time>
</trkpt>
<trkpt lat="46.0242630" lon="10.3695000">
	<ele>942.00</ele>
	<time>2024-07-24T06:20:33.000Z</time>
</trkpt>
<trkpt lat="46.0242690" lon="10.3695130">
	<ele>942.20</ele>
	<time>2024-07-24T06:20:34.000Z</time>
</trkpt>
<trkpt lat="46.0242770" lon="10.3695300">
	<ele>942.40</ele>
	<time>2024-07-24T06:20:35.000Z</time>
</trkpt>
<trkpt lat="46.0242850" lon="10.3695450">
	<ele>942.40</ele>
	<time>2024-07-24T06:20:36.000Z</time>
</trkpt>
<trkpt lat="46.0242920" lon="10.3695570">
	<ele>942.60</ele>
	<time>2024-07-24T06:20:37.000Z</time>
</trkpt>
<trkpt lat="46.0242970" lon="10.3695680">
	<ele>942.60</ele>
	<time>2024-07-24T06:20:38.000Z</time>
</trkpt>
<trkpt lat="46.0242990" lon="10.3695820">
	<ele>942.80</ele>
	<time>2024-07-24T06:20:39.000Z</time>
</trkpt>
<trkpt lat="46.0242980" lon="10.3695970">
	<ele>942.80</ele>
	<time>2024-07-24T06:20:40.000Z</time>
</trkpt>
<trkpt lat="46.0242990" lon="10.3696110">
	<ele>943.00</ele>
	<time>2024-07-24T06:20:41.000Z</time>
</trkpt>
<trkpt lat="46.0243020" lon="10.3696290">
	<ele>943.00</ele>
	<time>2024-07-24T06:20:42.000Z</time>
</trkpt>
<trkpt lat="46.0243070" lon="10.3696450">
	<ele>943.20</ele>
	<time>2024-07-24T06:20:43.000Z</time>
</trkpt>
<trkpt lat="46.0243110" lon="10.3696610">
	<ele>943.40</ele>
	<time>2024-07-24T06:20:44.000Z</time>
</trkpt>
<trkpt lat="46.0243130" lon="10.3696740">
	<ele>943.40</ele>
	<time>2024-07-24T06:20:45.000Z</time>
</trkpt>
<trkpt lat="46.0243190" lon="10.3696910">
	<ele>943.60</ele>
	<time>2024-07-24T06:20:46.000Z</time>
</trkpt>
<trkpt lat="46.0243280" lon="10.3697120">
	<ele>943.80</ele>
	<time>2024-07-24T06:20:47.000Z</time>
</trkpt>
<trkpt lat="46.0243310" lon="10.3697340">
	<ele>944.00</ele>
	<time>2024-07-24T06:20:48.000Z</time>
</trkpt>
<trkpt lat="46.0243350" lon="10.3697540">
	<ele>944.20</ele>
	<time>2024-07-24T06:20:49.000Z</time>
</trkpt>
<trkpt lat="46.0243400" lon="10.3697760">
	<ele>944.40</ele>
	<time>2024-07-24T06:20:50.000Z</time>
</trkpt>
<trkpt lat="46.0243480" lon="10.3697930">
	<ele>944.60</ele>
	<time>2024-07-24T06:20:51.000Z</time>
</trkpt>
<trkpt lat="46.0243500" lon="10.3698070">
	<ele>944.80</ele>
	<time>2024-07-24T06:20:52.000Z</time>
</trkpt>
<trkpt lat="46.0243560" lon="10.3698280">
	<ele>944.80</ele>
	<time>2024-07-24T06:20:53.000Z</time>
</trkpt>
<trkpt lat="46.0243600" lon="10.3698500">
	<ele>945.20</ele>
	<time>2024-07-24T06:20:54.000Z</time>
</trkpt>
<trkpt lat="46.0243590" lon="10.3698590">
	<ele>945.40</ele>
	<time>2024-07-24T06:20:55.000Z</time>
</trkpt>
<trkpt lat="46.0243570" lon="10.3698680">
	<ele>945.40</ele>
	<time>2024-07-24T06:20:56.000Z</time>
</trkpt>
<trkpt lat="46.0243600" lon="10.3698830">
	<ele>945.60</ele>
	<time>2024-07-24T06:20:57.000Z</time>
</trkpt>
<trkpt lat="46.0243630" lon="10.3698980">
	<ele>945.80</ele>
	<time>2024-07-24T06:20:58.000Z</time>
</trkpt>
<trkpt lat="46.0243670" lon="10.3699140">
	<ele>945.80</ele>
	<time>2024-07-24T06:20:59.000Z</time>
</trkpt>
<trkpt lat="46.0243680" lon="10.3699270">
	<ele>946.00</ele>
	<time>2024-07-24T06:21:00.000Z</time>
</trkpt>
<trkpt lat="46.0243680" lon="10.3699430">
	<ele>946.00</ele>
	<time>2024-07-24T06:21:01.000Z</time>
</trkpt>
<trkpt lat="46.0243690" lon="10.3699570">
	<ele>946.20</ele>
	<time>2024-07-24T06:21:02.000Z</time>
</trkpt>
<trkpt lat="46.0243690" lon="10.3699720">
	<ele>946.40</ele>
	<time>2024-07-24T06:21:03.000Z</time>
</trkpt>
<trkpt lat="46.0243670" lon="10.3699890">
	<ele>946.40</ele>
	<time>2024-07-24T06:21:04.000Z</time>
</trkpt>
<trkpt lat="46.0243650" lon="10.3700020">
	<ele>946.60</ele>
	<time>2024-07-24T06:21:05.000Z</time>
</trkpt>
<trkpt lat="46.0243640" lon="10.3700170">
	<ele>946.60</ele>
	<time>2024-07-24T06:21:06.000Z</time>
</trkpt>
<trkpt lat="46.0243640" lon="10.3700320">
	<ele>946.80</ele>
	<time>2024-07-24T06:21:07.000Z</time>
</trkpt>
<trkpt lat="46.0243650" lon="10.3700490">
	<ele>947.00</ele>
	<time>2024-07-24T06:21:08.000Z</time>
</trkpt>
<trkpt lat="46.0243680" lon="10.3700660">
	<ele>947.20</ele>
	<time>2024-07-24T06:21:09.000Z</time>
</trkpt>
<trkpt lat="46.0243700" lon="10.3700810">
	<ele>947.20</ele>
	<time>2024-07-24T06:21:10.000Z</time>
</trkpt>
<trkpt lat="46.0243690" lon="10.3700950">
	<ele>947.40</ele>
	<time>2024-07-24T06:21:11.000Z</time>
</trkpt>
<trkpt lat="46.0243700" lon="10.3701100">
	<ele>947.60</ele>
	<time>2024-07-24T06:21:12.000Z</time>
</trkpt>
<trkpt lat="46.0243700" lon="10.3701250">
	<ele>947.80</ele>
	<time>2024-07-24T06:21:13.000Z</time>
</trkpt>
<trkpt lat="46.0243700" lon="10.3701390">
	<ele>947.80</ele>
	<time>2024-07-24T06:21:14.000Z</time>
</trkpt>
<trkpt lat="46.0243690" lon="10.3701540">
	<ele>948.00</ele>
	<time>2024-07-24T06:21:15.000Z</time>
</trkpt>
<trkpt lat="46.0243690" lon="10.3701710">
	<ele>948.00</ele>
	<time>2024-07-24T06:21:16.000Z</time>
</trkpt>
<trkpt lat="46.0243690" lon="10.3701900">
	<ele>948.20</ele>
	<time>2024-07-24T06:21:17.000Z</time>
</trkpt>
<trkpt lat="46.0243700" lon="10.3702080">
	<ele>948.20</ele>
	<time>2024-07-24T06:21:18.000Z</time>
</trkpt>
<trkpt lat="46.0243720" lon="10.3702250">
	<ele>948.40</ele>
	<time>2024-07-24T06:21:19.000Z</time>
</trkpt>
<trkpt lat="46.0243740" lon="10.3702420">
	<ele>948.40</ele>
	<time>2024-07-24T06:21:20.000Z</time>
</trkpt>
<trkpt lat="46.0243760" lon="10.3702600">
	<ele>948.60</ele>
	<time>2024-07-24T06:21:21.000Z</time>
</trkpt>
<trkpt lat="46.0243780" lon="10.3702750">
	<ele>948.80</ele>
	<time>2024-07-24T06:21:22.000Z</time>
</trkpt>
<trkpt lat="46.0243820" lon="10.3702900">
	<ele>948.80</ele>
	<time>2024-07-24T06:21:23.000Z</time>
</trkpt>
<trkpt lat="46.0243840" lon="10.3703020">
	<ele>948.80</ele>
	<time>2024-07-24T06:21:24.000Z</time>
</trkpt>
<trkpt lat="46.0243890" lon="10.3703180">
	<ele>949.00</ele>
	<time>2024-07-24T06:21:25.000Z</time>
</trkpt>
<trkpt lat="46.0243940" lon="10.3703340">
	<ele>949.00</ele>
	<time>2024-07-24T06:21:26.000Z</time>
</trkpt>
<trkpt lat="46.0243980" lon="10.3703490">
	<ele>949.20</ele>
	<time>2024-07-24T06:21:27.000Z</time>
</trkpt>
<trkpt lat="46.0244030" lon="10.3703610">
	<ele>949.40</ele>
	<time>2024-07-24T06:21:28.000Z</time>
</trkpt>
<trkpt lat="46.0244090" lon="10.3703730">
	<ele>949.60</ele>
	<time>2024-07-24T06:21:29.000Z</time>
</trkpt>
<trkpt lat="46.0244120" lon="10.3703840">
	<ele>949.60</ele>
	<time>2024-07-24T06:21:30.000Z</time>
</trkpt>
<trkpt lat="46.0244150" lon="10.3703980">
	<ele>949.80</ele>
	<time>2024-07-24T06:21:31.000Z</time>
</trkpt>
<trkpt lat="46.0244210" lon="10.3704110">
	<ele>950.00</ele>
	<time>2024-07-24T06:21:32.000Z</time>
</trkpt>
<trkpt lat="46.0244240" lon="10.3704210">
	<ele>950.20</ele>
	<time>2024-07-24T06:21:33.000Z</time>
</trkpt>
<trkpt lat="46.0244280" lon="10.3704300">
	<ele>950.40</ele>
	<time>2024-07-24T06:21:34.000Z</time>
</trkpt>
<trkpt lat="46.0244300" lon="10.3704410">
	<ele>950.40</ele>
	<time>2024-07-24T06:21:35.000Z</time>
</trkpt>
<trkpt lat="46.0244330" lon="10.3704500">
	<ele>950.60</ele>
	<time>2024-07-24T06:21:36.000Z</time>
</trkpt>
<trkpt lat="46.0244360" lon="10.3704610">
	<ele>950.80</ele>
	<time>2024-07-24T06:21:37.000Z</time>
</trkpt>
<trkpt lat="46.0244420" lon="10.3704690">
	<ele>951.00</ele>
	<time>2024-07-24T06:21:38.000Z</time>
</trkpt>
<trkpt lat="46.0244470" lon="10.3704740">
	<ele>951.00</ele>
	<time>2024-07-24T06:21:39.000Z</time>
</trkpt>
<trkpt lat="46.0244510" lon="10.3704780">
	<ele>951.20</ele>
	<time>2024-07-24T06:21:40.000Z</time>
</trkpt>
<trkpt lat="46.0244560" lon="10.3704890">
	<ele>951.20</ele>
	<time>2024-07-24T06:21:41.000Z</time>
</trkpt>
<trkpt lat="46.0244610" lon="10.3704990">
	<ele>951.40</ele>
	<time>2024-07-24T06:21:42.000Z</time>
</trkpt>
<trkpt lat="46.0244640" lon="10.3705100">
	<ele>951.60</ele>
	<time>2024-07-24T06:21:43.000Z</time>
</trkpt>
<trkpt lat="46.0244660" lon="10.3705220">
	<ele>951.80</ele>
	<time>2024-07-24T06:21:44.000Z</time>
</trkpt>
<trkpt lat="46.0244690" lon="10.3705360">
	<ele>952.00</ele>
	<time>2024-07-24T06:21:45.000Z</time>
</trkpt>
<trkpt lat="46.0244720" lon="10.3705510">
	<ele>952.20</ele>
	<time>2024-07-24T06:21:46.000Z</time>
</trkpt>
<trkpt lat="46.0244750" lon="10.3705660">
	<ele>952.40</ele>
	<time>2024-07-24T06:21:47.000Z</time>
</trkpt>
<trkpt lat="46.0244780" lon="10.3705780">
	<ele>952.40</ele>
	<time>2024-07-24T06:21:48.000Z</time>
</trkpt>
<trkpt lat="46.0244790" lon="10.3705890">
	<ele>952.60</ele>
	<time>2024-07-24T06:21:49.000Z</time>
</trkpt>
<trkpt lat="46.0244790" lon="10.3705950">
	<ele>952.80</ele>
	<time>2024-07-24T06:21:50.000Z</time>
</trkpt>
<trkpt lat="46.0244780" lon="10.3705990">
	<ele>953.00</ele>
	<time>2024-07-24T06:21:51.000Z</time>
</trkpt>
<trkpt lat="46.0244740" lon="10.3706070">
	<ele>953.20</ele>
	<time>2024-07-24T06:21:52.000Z</time>
</trkpt>
<trkpt lat="46.0244820" lon="10.3706250">
	<ele>953.40</ele>
	<time>2024-07-24T06:21:53.000Z</time>
</trkpt>
<trkpt lat="46.0244900" lon="10.3706420">
	<ele>953.40</ele>
	<time>2024-07-24T06:21:54.000Z</time>
</trkpt>
<trkpt lat="46.0244940" lon="10.3706510">
	<ele>953.60</ele>
	<time>2024-07-24T06:21:55.000Z</time>
</trkpt>
<trkpt lat="46.0244950" lon="10.3706540">
	<ele>954.00</ele>
	<time>2024-07-24T06:21:56.000Z</time>
</trkpt>
<trkpt lat="46.0244980" lon="10.3706610">
	<ele>954.00</ele>
	<time>2024-07-24T06:21:57.000Z</time>
</trkpt>
<trkpt lat="46.0245010" lon="10.3706730">
	<ele>954.20</ele>
	<time>2024-07-24T06:21:58.000Z</time>
</trkpt>
<trkpt lat="46.0245080" lon="10.3706880">
	<ele>954.40</ele>
	<time>2024-07-24T06:21:59.000Z</time>
</trkpt>
<trkpt lat="46.0245140" lon="10.3706990">
	<ele>954.60</ele>
	<time>2024-07-24T06:22:00.000Z</time>
</trkpt>
<trkpt lat="46.0245190" lon="10.3707110">
	<ele>954.80</ele>
	<time>2024-07-24T06:22:01.000Z</time>
</trkpt>
<trkpt lat="46.0245240" lon="10.3707200">
	<ele>955.20</ele>
	<time>2024-07-24T06:22:02.000Z</time>
</trkpt>
<trkpt lat="46.0245310" lon="10.3707310">
	<ele>955.60</ele>
	<time>2024-07-24T06:22:03.000Z</time>
</trkpt>
<trkpt lat="46.0245340" lon="10.3707400">
	<ele>955.60</ele>
	<time>2024-07-24T06:22:04.000Z</time>
</trkpt>
<trkpt lat="46.0245380" lon="10.3707460">
	<ele>955.80</ele>
	<time>2024-07-24T06:22:05.000Z</time>
</trkpt>
<trkpt lat="46.0245400" lon="10.3707500">
	<ele>955.80</ele>
	<time>2024-07-24T06:22:06.000Z</time>
</trkpt>
<trkpt lat="46.0245410" lon="10.3707540">
	<ele>956.20</ele>
	<time>2024-07-24T06:22:07.000Z</time>
</trkpt>
<trkpt lat="46.0245500" lon="10.3707600">
	<ele>956.20</ele>
	<time>2024-07-24T06:22:08.000Z</time>
</trkpt>
<trkpt lat="46.0245600" lon="10.3707670">
	<ele>956.40</ele>
	<time>2024-07-24T06:22:09.000Z</time>
</trkpt>
<trkpt lat="46.0245660" lon="10.3707740">
	<ele>956.60</ele>
	<time>2024-07-24T06:22:10.000Z</time>
</trkpt>
<trkpt lat="46.0245650" lon="10.3707870">
	<ele>956.80</ele>
	<time>2024-07-24T06:22:11.000Z</time>
</trkpt>
<trkpt lat="46.0245750" lon="10.3708070">
	<ele>956.80</ele>
	<time>2024-07-24T06:22:12.000Z</time>
</trkpt>
<trkpt lat="46.0245770" lon="10.3708140">
	<ele>957.20</ele>
	<time>2024-07-24T06:22:13.000Z</time>
</trkpt>
<trkpt lat="46.0245830" lon="10.3708280">
	<ele>957.20</ele>
	<time>2024-07-24T06:22:14.000Z</time>
</trkpt>
<trkpt lat="46.0245850" lon="10.3708310">
	<ele>957.40</ele>
	<time>2024-07-24T06:22:15.000Z</time>
</trkpt>
<trkpt lat="46.0245850" lon="10.3708360">
	<ele>957.40</ele>
	<time>2024-07-24T06:22:16.000Z</time>
</trkpt>
<trkpt lat="46.0245850" lon="10.3708370">
	<ele>957.40</ele>
	<time>2024-07-24T06:22:17.000Z</time>
</trkpt>
<trkpt lat="46.0245880" lon="10.3708410">
	<ele>957.80</ele>
	<time>2024-07-24T06:22:18.000Z</time>
</trkpt>
<trkpt lat="46.0245880" lon="10.3708440">
	<ele>958.00</ele>
	<time>2024-07-24T06:22:19.000Z</time>
</trkpt>
<trkpt lat="46.0245850" lon="10.3708430">
	<ele>958.20</ele>
	<time>2024-07-24T06:22:20.000Z</time>
</trkpt>
<trkpt lat="46.0245820" lon="10.3708390">
	<ele>958.20</ele>
	<time>2024-07-24T06:22:21.000Z</time>
</trkpt>
<trkpt lat="46.0245820" lon="10.3708350">
	<ele>958.20</ele>
	<time>2024-07-24T06:22:22.000Z</time>
</trkpt>
<trkpt lat="46.0245850" lon="10.3708350">
	<ele>958.40</ele>
	<time>2024-07-24T06:22:23.000Z</time>
</trkpt>
<trkpt lat="46.0245920" lon="10.3708360">
	<ele>958.40</ele>
	<time>2024-07-24T06:22:24.000Z</time>
</trkpt>
<trkpt lat="46.0245970" lon="10.3708380">
	<ele>958.20</ele>
	<time>2024-07-24T06:22:25.000Z</time>
</trkpt>
<trkpt lat="46.0246040" lon="10.3708470">
	<ele>958.20</ele>
	<time>2024-07-24T06:22:26.000Z</time>
</trkpt>
<trkpt lat="46.0246140" lon="10.3708570">
	<ele>958.20</ele>
	<time>2024-07-24T06:22:27.000Z</time>
</trkpt>
<trkpt lat="46.0246250" lon="10.3708600">
	<ele>958.40</ele>
	<time>2024-07-24T06:22:28.000Z</time>
</trkpt>
<trkpt lat="46.0246380" lon="10.3708660">
	<ele>958.60</ele>
	<time>2024-07-24T06:22:29.000Z</time>
</trkpt>
<trkpt lat="46.0246490" lon="10.3708720">
	<ele>959.00</ele>
	<time>2024-07-24T06:22:30.000Z</time>
</trkpt>
<trkpt lat="46.0246600" lon="10.3708840">
	<ele>959.20</ele>
	<time>2024-07-24T06:22:31.000Z</time>
</trkpt>
<trkpt lat="46.0246690" lon="10.3708920">
	<ele>959.20</ele>
	<time>2024-07-24T06:22:32.000Z</time>
</trkpt>
<trkpt lat="46.0246790" lon="10.3709000">
	<ele>959.40</ele>
	<time>2024-07-24T06:22:33.000Z</time>
</trkpt>
<trkpt lat="46.0246900" lon="10.3709080">
	<ele>959.40</ele>
	<time>2024-07-24T06:22:34.000Z</time>
</trkpt>
<trkpt lat="46.0247020" lon="10.3709160">
	<ele>959.40</ele>
	<time>2024-07-24T06:22:35.000Z</time>
</trkpt>
<trkpt lat="46.0247140" lon="10.3709220">
	<ele>959.60</ele>
	<time>2024-07-24T06:22:36.000Z</time>
</trkpt>
<trkpt lat="46.0247280" lon="10.3709330">
	<ele>959.60</ele>
	<time>2024-07-24T06:22:37.000Z</time>
</trkpt>
<trkpt lat="46.0247380" lon="10.3709400">
	<ele>959.80</ele>
	<time>2024-07-24T06:22:38.000Z</time>
</trkpt>
<trkpt lat="46.0247480" lon="10.3709470">
	<ele>960.00</ele>
	<time>2024-07-24T06:22:39.000Z</time>
</trkpt>
<trkpt lat="46.0247580" lon="10.3709530">
	<ele>960.00</ele>
	<time>2024-07-24T06:22:40.000Z</time>
</trkpt>
<trkpt lat="46.0247670" lon="10.3709610">
	<ele>960.00</ele>
	<time>2024-07-24T06:22:41.000Z</time>
</trkpt>
<trkpt lat="46.0247770" lon="10.3709700">
	<ele>960.20</ele>
	<time>2024-07-24T06:22:42.000Z</time>
</trkpt>
<trkpt lat="46.0247870" lon="10.3709770">
	<ele>960.20</ele>
	<time>2024-07-24T06:22:43.000Z</time>
</trkpt>
<trkpt lat="46.0247990" lon="10.3709830">
	<ele>960.40</ele>
	<time>2024-07-24T06:22:44.000Z</time>
</trkpt>
<trkpt lat="46.0248090" lon="10.3709900">
	<ele>960.60</ele>
	<time>2024-07-24T06:22:45.000Z</time>
</trkpt>
<trkpt lat="46.0248190" lon="10.3709940">
	<ele>960.60</ele>
	<time>2024-07-24T06:22:46.000Z</time>
</trkpt>
<trkpt lat="46.0248290" lon="10.3710010">
	<ele>960.60</ele>
	<time>2024-07-24T06:22:47.000Z</time>
</trkpt>
<trkpt lat="46.0248380" lon="10.3710060">
	<ele>960.80</ele>
	<time>2024-07-24T06:22:48.000Z</time>
</trkpt>
<trkpt lat="46.0248500" lon="10.3710130">
	<ele>960.80</ele>
	<time>2024-07-24T06:22:49.000Z</time>
</trkpt>
<trkpt lat="46.0248630" lon="10.3710260">
	<ele>961.00</ele>
	<time>2024-07-24T06:22:50.000Z</time>
</trkpt>
<trkpt lat="46.0248740" lon="10.3710390">
	<ele>961.00</ele>
	<time>2024-07-24T06:22:51.000Z</time>
</trkpt>
<trkpt lat="46.0248840" lon="10.3710520">
	<ele>961.00</ele>
	<time>2024-07-24T06:22:52.000Z</time>
</trkpt>
<trkpt lat="46.0248920" lon="10.3710610">
	<ele>961.40</ele>
	<time>2024-07-24T06:22:53.000Z</time>
</trkpt>
<trkpt lat="46.0248960" lon="10.3710690">
	<ele>961.60</ele>
	<time>2024-07-24T06:22:54.000Z</time>
</trkpt>
<trkpt lat="46.0249020" lon="10.3710770">
	<ele>961.60</ele>
	<time>2024-07-24T06:22:55.000Z</time>
</trkpt>
<trkpt lat="46.0249100" lon="10.3710870">
	<ele>961.80</ele>
	<time>2024-07-24T06:22:56.000Z</time>
</trkpt>
<trkpt lat="46.0249170" lon="10.3710980">
	<ele>962.00</ele>
	<time>2024-07-24T06:22:57.000Z</time>
</trkpt>
<trkpt lat="46.0249170" lon="10.3711090">
	<ele>962.20</ele>
	<time>2024-07-24T06:22:58.000Z</time>
</trkpt>
<trkpt lat="46.0249170" lon="10.3711170">
	<ele>962.40</ele>
	<time>2024-07-24T06:22:59.000Z</time>
</trkpt>
<trkpt lat="46.0249210" lon="10.3711270">
	<ele>962.60</ele>
	<time>2024-07-24T06:23:00.000Z</time>
</trkpt>
<trkpt lat="46.0249290" lon="10.3711390">
	<ele>962.80</ele>
	<time>2024-07-24T06:23:01.000Z</time>
</trkpt>
<trkpt lat="46.0249390" lon="10.3711530">
	<ele>963.00</ele>
	<time>2024-07-24T06:23:02.000Z</time>
</trkpt>
<trkpt lat="46.0249500" lon="10.3711660">
	<ele>963.00</ele>
	<time>2024-07-24T06:23:03.000Z</time>
</trkpt>
<trkpt lat="46.0249580" lon="10.3711770">
	<ele>963.20</ele>
	<time>2024-07-24T06:23:04.000Z</time>
</trkpt>
<trkpt lat="46.0249620" lon="10.3711890">
	<ele>963.40</ele>
	<time>2024-07-24T06:23:05.000Z</time>
</trkpt>
<trkpt lat="46.0249650" lon="10.3712030">
	<ele>963.60</ele>
	<time>2024-07-24T06:23:06.000Z</time>
</trkpt>
<trkpt lat="46.0249650" lon="10.3712170">
	<ele>963.60</ele>
	<time>2024-07-24T06:23:07.000Z</time>
</trkpt>
<trkpt lat="46.0249660" lon="10.3712300">
	<ele>963.80</ele>
	<time>2024-07-24T06:23:08.000Z</time>
</trkpt>
<trkpt lat="46.0249630" lon="10.3712370">
	<ele>964.00</ele>
	<time>2024-07-24T06:23:09.000Z</time>
</trkpt>
<trkpt lat="46.0249610" lon="10.3712470">
	<ele>964.00</ele>
	<time>2024-07-24T06:23:10.000Z</time>
</trkpt>
<trkpt lat="46.0249600" lon="10.3712630">
	<ele>964.20</ele>
	<time>2024-07-24T06:23:11.000Z</time>
</trkpt>
<trkpt lat="46.0249660" lon="10.3712850">
	<ele>964.20</ele>
	<time>2024-07-24T06:23:12.000Z</time>
</trkpt>
<trkpt lat="46.0249650" lon="10.3712940">
	<ele>964.40</ele>
	<time>2024-07-24T06:23:13.000Z</time>
</trkpt>
<trkpt lat="46.0249660" lon="10.3713050">
	<ele>964.40</ele>
	<time>2024-07-24T06:23:14.000Z</time>
</trkpt>
<trkpt lat="46.0249650" lon="10.3713160">
	<ele>964.60</ele>
	<time>2024-07-24T06:23:15.000Z</time>
</trkpt>
<trkpt lat="46.0249640" lon="10.3713240">
	<ele>964.80</ele>
	<time>2024-07-24T06:23:16.000Z</time>
</trkpt>
<trkpt lat="46.0249690" lon="10.3713340">
	<ele>964.80</ele>
	<time>2024-07-24T06:23:17.000Z</time>
</trkpt>
<trkpt lat="46.0249740" lon="10.3713410">
	<ele>965.20</ele>
	<time>2024-07-24T06:23:18.000Z</time>
</trkpt>
<trkpt lat="46.0249800" lon="10.3713500">
	<ele>965.40</ele>
	<time>2024-07-24T06:23:19.000Z</time>
</trkpt>
<trkpt lat="46.0249860" lon="10.3713610">
	<ele>965.40</ele>
	<time>2024-07-24T06:23:20.000Z</time>
</trkpt>
<trkpt lat="46.0249920" lon="10.3713780">
	<ele>965.60</ele>
	<time>2024-07-24T06:23:21.000Z</time>
</trkpt>
<trkpt lat="46.0249980" lon="10.3713990">
	<ele>965.60</ele>
	<time>2024-07-24T06:23:22.000Z</time>
</trkpt>
<trkpt lat="46.0250040" lon="10.3714140">
	<ele>965.80</ele>
	<time>2024-07-24T06:23:23.000Z</time>
</trkpt>
<trkpt lat="46.0250130" lon="10.3714280">
	<ele>966.00</ele>
	<time>2024-07-24T06:23:24.000Z</time>
</trkpt>
<trkpt lat="46.0250190" lon="10.3714350">
	<ele>966.20</ele>
	<time>2024-07-24T06:23:25.000Z</time>
</trkpt>
<trkpt lat="46.0250190" lon="10.3714300">
	<ele>966.40</ele>
	<time>2024-07-24T06:23:26.000Z</time>
</trkpt>
<trkpt lat="46.0250190" lon="10.3714230">
	<ele>966.40</ele>
	<time>2024-07-24T06:23:27.000Z</time>
</trkpt>
<trkpt lat="46.0250230" lon="10.3714160">
	<ele>966.60</ele>
	<time>2024-07-24T06:23:28.000Z</time>
</trkpt>
<trkpt lat="46.0250210" lon="10.3714150">
	<ele>966.60</ele>
	<time>2024-07-24T06:23:29.000Z</time>
</trkpt>
<trkpt lat="46.0250280" lon="10.3714080">
	<ele>966.80</ele>
	<time>2024-07-24T06:23:30.000Z</time>
</trkpt>
<trkpt lat="46.0250270" lon="10.3714080">
	<ele>966.80</ele>
	<time>2024-07-24T06:23:31.000Z</time>
</trkpt>
<trkpt lat="46.0250260" lon="10.3714070">
	<ele>966.80</ele>
	<time>2024-07-24T06:23:32.000Z</time>
</trkpt>
<trkpt lat="46.0250260" lon="10.3714060">
	<ele>966.80</ele>
	<time>2024-07-24T06:23:33.000Z</time>
</trkpt>
<trkpt lat="46.0250250" lon="10.3714030">
	<ele>966.80</ele>
	<time>2024-07-24T06:23:34.000Z</time>
</trkpt>
<trkpt lat="46.0250260" lon="10.3714020">
	<ele>966.60</ele>
	<time>2024-07-24T06:23:35.000Z</time>
</trkpt>
<trkpt lat="46.0250290" lon="10.3714050">
	<ele>966.60</ele>
	<time>2024-07-24T06:23:36.000Z</time>
</trkpt>
<trkpt lat="46.0250350" lon="10.3714090">
	<ele>966.60</ele>
	<time>2024-07-24T06:23:37.000Z</time>
</trkpt>
<trkpt lat="46.0250420" lon="10.3714230">
	<ele>966.60</ele>
	<time>2024-07-24T06:23:38.000Z</time>
</trkpt>
<trkpt lat="46.0250470" lon="10.3714350">
	<ele>966.60</ele>
	<time>2024-07-24T06:23:39.000Z</time>
</trkpt>
<trkpt lat="46.0250490" lon="10.3714430">
	<ele>966.80</ele>
	<time>2024-07-24T06:23:40.000Z</time>
</trkpt>
<trkpt lat="46.0250530" lon="10.3714500">
	<ele>967.00</ele>
	<time>2024-07-24T06:23:41.000Z</time>
</trkpt>
<trkpt lat="46.0250580" lon="10.3714560">
	<ele>967.20</ele>
	<time>2024-07-24T06:23:42.000Z</time>
</trkpt>
<trkpt lat="46.0250640" lon="10.3714610">
	<ele>967.40</ele>
	<time>2024-07-24T06:23:43.000Z</time>
</trkpt>
<trkpt lat="46.0250700" lon="10.3714640">
	<ele>967.60</ele>
	<time>2024-07-24T06:23:44.000Z</time>
</trkpt>
<trkpt lat="46.0250760" lon="10.3714710">
	<ele>967.80</ele>
	<time>2024-07-24T06:23:45.000Z</time>
</trkpt>
<trkpt lat="46.0250840" lon="10.3714790">
	<ele>968.00</ele>
	<time>2024-07-24T06:23:46.000Z</time>
</trkpt>
<trkpt lat="46.0250920" lon="10.3714940">
	<ele>968.20</ele>
	<time>2024-07-24T06:23:47.000Z</time>
</trkpt>
<trkpt lat="46.0250950" lon="10.3715060">
	<ele>968.20</ele>
	<time>2024-07-24T06:23:48.000Z</time>
</trkpt>
<trkpt lat="46.0251000" lon="10.3715160">
	<ele>968.40</ele>
	<time>2024-07-24T06:23:49.000Z</time>
</trkpt>
<trkpt lat="46.0251040" lon="10.3715290">
	<ele>968.60</ele>
	<time>2024-07-24T06:23:50.000Z</time>
</trkpt>
<trkpt lat="46.0251070" lon="10.3715430">
	<ele>968.80</ele>
	<time>2024-07-24T06:23:51.000Z</time>
</trkpt>
<trkpt lat="46.0251080" lon="10.3715500">
	<ele>969.00</ele>
	<time>2024-07-24T06:23:52.000Z</time>
</trkpt>
<trkpt lat="46.0251110" lon="10.3715540">
	<ele>969.40</ele>
	<time>2024-07-24T06:23:53.000Z</time>
</trkpt>
<trkpt lat="46.0251190" lon="10.3715690">
	<ele>969.60</ele>
	<time>2024-07-24T06:23:54.000Z</time>
</trkpt>
<trkpt lat="46.0251250" lon="10.3715760">
	<ele>970.00</ele>
	<time>2024-07-24T06:23:55.000Z</time>
</trkpt>
<trkpt lat="46.0251360" lon="10.3715810">
	<ele>970.00</ele>
	<time>2024-07-24T06:23:56.000Z</time>
</trkpt>
<trkpt lat="46.0251460" lon="10.3716010">
	<ele>970.20</ele>
	<time>2024-07-24T06:23:57.000Z</time>
</trkpt>
<trkpt lat="46.0251500" lon="10.3716090">
	<ele>970.40</ele>
	<time>2024-07-24T06:23:58.000Z</time>
</trkpt>
<trkpt lat="46.0251520" lon="10.3716120">
	<ele>970.60</ele>
	<time>2024-07-24T06:23:59.000Z</time>
</trkpt>
<trkpt lat="46.0251530" lon="10.3716140">
	<ele>970.80</ele>
	<time>2024-07-24T06:24:00.000Z</time>
</trkpt>
<trkpt lat="46.0251550" lon="10.3716170">
	<ele>970.80</ele>
	<time>2024-07-24T06:24:01.000Z</time>
</trkpt>
<trkpt lat="46.0251580" lon="10.3716240">
	<ele>971.00</ele>
	<time>2024-07-24T06:24:02.000Z</time>
</trkpt>
<trkpt lat="46.0251620" lon="10.3716340">
	<ele>971.20</ele>
	<time>2024-07-24T06:24:03.000Z</time>
</trkpt>
<trkpt lat="46.0251650" lon="10.3716410">
	<ele>971.40</ele>
	<time>2024-07-24T06:24:04.000Z</time>
</trkpt>
<trkpt lat="46.0251660" lon="10.3716460">
	<ele>971.60</ele>
	<time>2024-07-24T06:24:05.000Z</time>
</trkpt>
<trkpt lat="46.0251670" lon="10.3716490">
	<ele>971.60</ele>
	<time>2024-07-24T06:24:06.000Z</time>
</trkpt>
<trkpt lat="46.0251690" lon="10.3716510">
	<ele>972.00</ele>
	<time>2024-07-24T06:24:07.000Z</time>
</trkpt>
<trkpt lat="46.0251710" lon="10.3716520">
	<ele>972.20</ele>
	<time>2024-07-24T06:24:08.000Z</time>
</trkpt>
<trkpt lat="46.0251750" lon="10.3716520">
	<ele>972.40</ele>
	<time>2024-07-24T06:24:09.000Z</time>
</trkpt>
<trkpt lat="46.0251760" lon="10.3716500">
	<ele>972.40</ele>
	<time>2024-07-24T06:24:10.000Z</time>
</trkpt>
<trkpt lat="46.0251650" lon="10.3716350">
	<ele>972.80</ele>
	<time>2024-07-24T06:24:11.000Z</time>
</trkpt>
<trkpt lat="46.0251560" lon="10.3716210">
	<ele>973.00</ele>
	<time>2024-07-24T06:24:12.000Z</time>
</trkpt>
<trkpt lat="46.0251550" lon="10.3716080">
	<ele>973.00</ele>
	<time>2024-07-24T06:24:13.000Z</time>
</trkpt>
<trkpt lat="46.0251570" lon="10.3716130">
	<ele>973.20</ele>
	<time>2024-07-24T06:24:14.000Z</time>
</trkpt>
<trkpt lat="46.0251560" lon="10.3716090">
	<ele>973.40</ele>
	<time>2024-07-24T06:24:15.000Z</time>
</trkpt>
<trkpt lat="46.0251570" lon="10.3716040">
	<ele>973.40</ele>
	<time>2024-07-24T06:24:16.000Z</time>
</trkpt>
<trkpt lat="46.0251670" lon="10.3716090">
	<ele>973.60</ele>
	<time>2024-07-24T06:24:17.000Z</time>
</trkpt>
<trkpt lat="46.0251710" lon="10.3716000">
	<ele>973.80</ele>
	<time>2024-07-24T06:24:18.000Z</time>
</trkpt>
<trkpt lat="46.0251750" lon="10.3715900">
	<ele>974.00</ele>
	<time>2024-07-24T06:24:19.000Z</time>
</trkpt>
<trkpt lat="46.0251840" lon="10.3715850">
	<ele>974.40</ele>
	<time>2024-07-24T06:24:20.000Z</time>
</trkpt>
<trkpt lat="46.0251930" lon="10.3715900">
	<ele>974.60</ele>
	<time>2024-07-24T06:24:21.000Z</time>
</trkpt>
<trkpt lat="46.0251960" lon="10.3715930">
	<ele>974.80</ele>
	<time>2024-07-24T06:24:22.000Z</time>
</trkpt>
<trkpt lat="46.0251930" lon="10.3715900">
	<ele>974.80</ele>
	<time>2024-07-24T06:24:23.000Z</time>
</trkpt>
<trkpt lat="46.0251930" lon="10.3715910">
	<ele>975.00</ele>
	<time>2024-07-24T06:24:24.000Z</time>
</trkpt>
<trkpt lat="46.0252010" lon="10.3715960">
	<ele>975.20</ele>
	<time>2024-07-24T06:24:25.000Z</time>
</trkpt>
<trkpt lat="46.0252070" lon="10.3716010">
	<ele>975.60</ele>
	<time>2024-07-24T06:24:26.000Z</time>
</trkpt>
<trkpt lat="46.0252120" lon="10.3716100">
	<ele>975.80</ele>
	<time>2024-07-24T06:24:27.000Z</time>
</trkpt>
<trkpt lat="46.0252170" lon="10.3716150">
	<ele>976.00</ele>
	<time>2024-07-24T06:24:28.000Z</time>
</trkpt>
<trkpt lat="46.0252220" lon="10.3716240">
	<ele>976.20</ele>
	<time>2024-07-24T06:24:29.000Z</time>
</trkpt>
<trkpt lat="46.0252290" lon="10.3716340">
	<ele>976.40</ele>
	<time>2024-07-24T06:24:30.000Z</time>
</trkpt>
<trkpt lat="46.0252430" lon="10.3716530">
	<ele>976.60</ele>
	<time>2024-07-24T06:24:31.000Z</time>
</trkpt>
<trkpt lat="46.0252540" lon="10.3716680">
	<ele>976.80</ele>
	<time>2024-07-24T06:24:32.000Z</time>
</trkpt>
<trkpt lat="46.0252630" lon="10.3716800">
	<ele>977.00</ele>
	<time>2024-07-24T06:24:33.000Z</time>
</trkpt>
<trkpt lat="46.0252730" lon="10.3716850">
	<ele>977.00</ele>
	<time>2024-07-24T06:24:34.000Z</time>
</trkpt>
<trkpt lat="46.0252770" lon="10.3716870">
	<ele>977.20</ele>
	<time>2024-07-24T06:24:35.000Z</time>
</trkpt>
<trkpt lat="46.0252790" lon="10.3716990">
	<ele>977.20</ele>
	<time>2024-07-24T06:24:36.000Z</time>
</trkpt>
<trkpt lat="46.0252830" lon="10.3717030">
	<ele>977.60</ele>
	<time>2024-07-24T06:24:37.000Z</time>
</trkpt>
<trkpt lat="46.0252860" lon="10.3717190">
	<ele>977.80</ele>
	<time>2024-07-24T06:24:38.000Z</time>
</trkpt>
<trkpt lat="46.0252860" lon="10.3717290">
	<ele>978.00</ele>
	<time>2024-07-24T06:24:39.000Z</time>
</trkpt>
<trkpt lat="46.0253000" lon="10.3717580">
	<ele>978.20</ele>
	<time>2024-07-24T06:24:40.000Z</time>
</trkpt>
<trkpt lat="46.0253150" lon="10.3717860">
	<ele>978.20</ele>
	<time>2024-07-24T06:24:41.000Z</time>
</trkpt>
<trkpt lat="46.0253300" lon="10.3718110">
	<ele>978.40</ele>
	<time>2024-07-24T06:24:42.000Z</time>
</trkpt>
<trkpt lat="46.0253350" lon="10.3718330">
	<ele>978.40</ele>
	<time>2024-07-24T06:24:43.000Z</time>
</trkpt>
<trkpt lat="46.0253350" lon="10.3718450">
	<ele>978.40</ele>
	<time>2024-07-24T06:24:44.000Z</time>
</trkpt>
<trkpt lat="46.0253350" lon="10.3718720">
	<ele>978.60</ele>
	<time>2024-07-24T06:24:45.000Z</time>
</trkpt>
<trkpt lat="46.0253470" lon="10.3719070">
	<ele>978.60</ele>
	<time>2024-07-24T06:24:46.000Z</time>
</trkpt>
<trkpt lat="46.0253560" lon="10.3719310">
	<ele>978.80</ele>
	<time>2024-07-24T06:24:47.000Z</time>
</trkpt>
<trkpt lat="46.0253660" lon="10.3719500">
	<ele>978.80</ele>
	<time>2024-07-24T06:24:48.000Z</time>
</trkpt>
<trkpt lat="46.0253690" lon="10.3719550">
	<ele>979.00</ele>
	<time>2024-07-24T06:24:49.000Z</time>
</trkpt>
<trkpt lat="46.0253780" lon="10.3719660">
	<ele>979.00</ele>
	<time>2024-07-24T06:24:50.000Z</time>
</trkpt>
<trkpt lat="46.0253910" lon="10.3719710">
	<ele>979.00</ele>
	<time>2024-07-24T06:24:51.000Z</time>
</trkpt>
<trkpt lat="46.0253940" lon="10.3719720">
	<ele>979.20</ele>
	<time>2024-07-24T06:24:52.000Z</time>
</trkpt>
<trkpt lat="46.0254120" lon="10.3719800">
	<ele>979.40</ele>
	<time>2024-07-24T06:24:53.000Z</time>
</trkpt>
<trkpt lat="46.0254250" lon="10.3719920">
	<ele>979.40</ele>
	<time>2024-07-24T06:24:54.000Z</time>
</trkpt>
<trkpt lat="46.0254300" lon="10.3720060">
	<ele>979.60</ele>
	<time>2024-07-24T06:24:55.000Z</time>
</trkpt>
<trkpt lat="46.0254400" lon="10.3720130">
	<ele>979.60</ele>
	<time>2024-07-24T06:24:56.000Z</time>
</trkpt>
<trkpt lat="46.0254590" lon="10.3720280">
	<ele>979.80</ele>
	<time>2024-07-24T06:24:57.000Z</time>
</trkpt>
<trkpt lat="46.0254640" lon="10.3720330">
	<ele>980.00</ele>
	<time>2024-07-24T06:24:58.000Z</time>
</trkpt>
<trkpt lat="46.0254620" lon="10.3720460">
	<ele>980.20</ele>
	<time>2024-07-24T06:24:59.000Z</time>
</trkpt>
<trkpt lat="46.0254760" lon="10.3720650">
	<ele>980.40</ele>
	<time>2024-07-24T06:25:00.000Z</time>
</trkpt>
<trkpt lat="46.0254890" lon="10.3720960">
	<ele>980.40</ele>
	<time>2024-07-24T06:25:01.000Z</time>
</trkpt>
<trkpt lat="46.0255030" lon="10.3721120">
	<ele>980.60</ele>
	<time>2024-07-24T06:25:02.000Z</time>
</trkpt>
<trkpt lat="46.0255190" lon="10.3721230">
	<ele>980.60</ele>
	<time>2024-07-24T06:25:03.000Z</time>
</trkpt>
<trkpt lat="46.0255260" lon="10.3721310">
	<ele>980.80</ele>
	<time>2024-07-24T06:25:04.000Z</time>
</trkpt>
<trkpt lat="46.0255270" lon="10.3721450">
	<ele>980.80</ele>
	<time>2024-07-24T06:25:05.000Z</time>
</trkpt>
<trkpt lat="46.0255250" lon="10.3721590">
	<ele>980.80</ele>
	<time>2024-07-24T06:25:06.000Z</time>
</trkpt>
<trkpt lat="46.0255190" lon="10.3721760">
	<ele>980.80</ele>
	<time>2024-07-24T06:25:07.000Z</time>
</trkpt>
<trkpt lat="46.0255400" lon="10.3722040">
	<ele>981.00</ele>
	<time>2024-07-24T06:25:08.000Z</time>
</trkpt>
<trkpt lat="46.0255510" lon="10.3722160">
	<ele>981.00</ele>
	<time>2024-07-24T06:25:09.000Z</time>
</trkpt>
<trkpt lat="46.0255540" lon="10.3722240">
	<ele>981.20</ele>
	<time>2024-07-24T06:25:10.000Z</time>
</trkpt>
<trkpt lat="46.0255550" lon="10.3722420">
	<ele>981.20</ele>
	<time>2024-07-24T06:25:11.000Z</time>
</trkpt>
<trkpt lat="46.0255560" lon="10.3722480">
	<ele>981.40</ele>
	<time>2024-07-24T06:25:12.000Z</time>
</trkpt>
<trkpt lat="46.0255640" lon="10.3722570">
	<ele>981.40</ele>
	<time>2024-07-24T06:25:13.000Z</time>
</trkpt>
<trkpt lat="46.0255650" lon="10.3722670">
	<ele>981.60</ele>
	<time>2024-07-24T06:25:14.000Z</time>
</trkpt>
<trkpt lat="46.0255680" lon="10.3722730">
	<ele>981.80</ele>
	<time>2024-07-24T06:25:15.000Z</time>
</trkpt>
<trkpt lat="46.0255700" lon="10.3722830">
	<ele>981.80</ele>
	<time>2024-07-24T06:25:16.000Z</time>
</trkpt>
<trkpt lat="46.0255890" lon="10.3723030">
	<ele>982.00</ele>
	<time>2024-07-24T06:25:17.000Z</time>
</trkpt>
<trkpt lat="46.0256000" lon="10.3723100">
	<ele>982.00</ele>
	<time>2024-07-24T06:25:18.000Z</time>
</trkpt>
<trkpt lat="46.0255980" lon="10.3723130">
	<ele>982.20</ele>
	<time>2024-07-24T06:25:19.000Z</time>
</trkpt>
<trkpt lat="46.0256010" lon="10.3723170">
	<ele>982.40</ele>
	<time>2024-07-24T06:25:20.000Z</time>
</trkpt>
<trkpt lat="46.0256030" lon="10.3723200">
	<ele>982.40</ele>
	<time>2024-07-24T06:25:21.000Z</time>
</trkpt>
<trkpt lat="46.0256040" lon="10.3723250">
	<ele>982.60</ele>
	<time>2024-07-24T06:25:22.000Z</time>
</trkpt>
<trkpt lat="46.0256000" lon="10.3723390">
	<ele>982.60</ele>
	<time>2024-07-24T06:25:23.000Z</time>
</trkpt>
<trkpt lat="46.0255970" lon="10.3723400">
	<ele>982.80</ele>
	<time>2024-07-24T06:25:24.000Z</time>
</trkpt>
<trkpt lat="46.0255960" lon="10.3723440">
	<ele>983.00</ele>
	<time>2024-07-24T06:25:25.000Z</time>
</trkpt>
<trkpt lat="46.0255950" lon="10.3723390">
	<ele>983.20</ele>
	<time>2024-07-24T06:25:26.000Z</time>
</trkpt>
<trkpt lat="46.0256040" lon="10.3723480">
	<ele>983.20</ele>
	<time>2024-07-24T06:25:27.000Z</time>
</trkpt>
<trkpt lat="46.0256040" lon="10.3723490">
	<ele>983.40</ele>
	<time>2024-07-24T06:25:28.000Z</time>
</trkpt>
<trkpt lat="46.0256210" lon="10.3723660">
	<ele>983.40</ele>
	<time>2024-07-24T06:25:29.000Z</time>
</trkpt>
<trkpt lat="46.0256240" lon="10.3723810">
	<ele>983.40</ele>
	<time>2024-07-24T06:25:30.000Z</time>
</trkpt>
<trkpt lat="46.0256260" lon="10.3723870">
	<ele>983.40</ele>
	<time>2024-07-24T06:25:31.000Z</time>
</trkpt>
<trkpt lat="46.0256180" lon="10.3723940">
	<ele>983.40</ele>
	<time>2024-07-24T06:25:32.000Z</time>
</trkpt>
<trkpt lat="46.0256130" lon="10.3724040">
	<ele>983.60</ele>
	<time>2024-07-24T06:25:33.000Z</time>
</trkpt>
<trkpt lat="46.0256170" lon="10.3724200">
	<ele>983.80</ele>
	<time>2024-07-24T06:25:34.000Z</time>
</trkpt>
<trkpt lat="46.0256230" lon="10.3724360">
	<ele>983.80</ele>
	<time>2024-07-24T06:25:35.000Z</time>
</trkpt>
<trkpt lat="46.0256300" lon="10.3724500">
	<ele>984.00</ele>
	<time>2024-07-24T06:25:36.000Z</time>
</trkpt>
<trkpt lat="46.0256350" lon="10.3724640">
	<ele>984.20</ele>
	<time>2024-07-24T06:25:37.000Z</time>
</trkpt>
<trkpt lat="46.0256360" lon="10.3724780">
	<ele>984.20</ele>
	<time>2024-07-24T06:25:38.000Z</time>
</trkpt>
<trkpt lat="46.0256440" lon="10.3724920">
	<ele>984.60</ele>
	<time>2024-07-24T06:25:39.000Z</time>
</trkpt>
<trkpt lat="46.0256470" lon="10.3725080">
	<ele>985.00</ele>
	<time>2024-07-24T06:25:40.000Z</time>
</trkpt>
<trkpt lat="46.0256480" lon="10.3725270">
	<ele>985.20</ele>
	<time>2024-07-24T06:25:41.000Z</time>
</trkpt>
<trkpt lat="46.0256510" lon="10.3725470">
	<ele>985.20</ele>
	<time>2024-07-24T06:25:42.000Z</time>
</trkpt>
<trkpt lat="46.0256530" lon="10.3725620">
	<ele>985.40</ele>
	<time>2024-07-24T06:25:43.000Z</time>
</trkpt>
<trkpt lat="46.0256560" lon="10.3725680">
	<ele>985.40</ele>
	<time>2024-07-24T06:25:44.000Z</time>
</trkpt>
<trkpt lat="46.0256590" lon="10.3725780">
	<ele>985.60</ele>
	<time>2024-07-24T06:25:45.000Z</time>
</trkpt>
<trkpt lat="46.0256600" lon="10.3725820">
	<ele>985.80</ele>
	<time>2024-07-24T06:25:46.000Z</time>
</trkpt>
<trkpt lat="46.0256600" lon="10.3725900">
	<ele>986.20</ele>
	<time>2024-07-24T06:25:47.000Z</time>
</trkpt>
<trkpt lat="46.0256570" lon="10.3726040">
	<ele>986.20</ele>
	<time>2024-07-24T06:25:48.000Z</time>
</trkpt>
<trkpt lat="46.0256530" lon="10.3726170">
	<ele>986.40</ele>
	<time>2024-07-24T06:25:49.000Z</time>
</trkpt>
<trkpt lat="46.0256520" lon="10.3726230">
	<ele>986.60</ele>
	<time>2024-07-24T06:25:50.000Z</time>
</trkpt>
<trkpt lat="46.0256580" lon="10.3726380">
	<ele>986.80</ele>
	<time>2024-07-24T06:25:51.000Z</time>
</trkpt>
<trkpt lat="46.0256680" lon="10.3726610">
	<ele>987.00</ele>
	<time>2024-07-24T06:25:52.000Z</time>
</trkpt>
<trkpt lat="46.0256760" lon="10.3726890">
	<ele>987.20</ele>
	<time>2024-07-24T06:25:53.000Z</time>
</trkpt>
<trkpt lat="46.0256820" lon="10.3727150">
	<ele>987.40</ele>
	<time>2024-07-24T06:25:54.000Z</time>
</trkpt>
<trkpt lat="46.0256820" lon="10.3727400">
	<ele>987.40</ele>
	<time>2024-07-24T06:25:55.000Z</time>
</trkpt>
<trkpt lat="46.0256740" lon="10.3727520">
	<ele>987.60</ele>
	<time>2024-07-24T06:25:56.000Z</time>
</trkpt>
<trkpt lat="46.0256640" lon="10.3727610">
	<ele>987.80</ele>
	<time>2024-07-24T06:25:57.000Z</time>
</trkpt>
<trkpt lat="46.0256590" lon="10.3727670">
	<ele>987.80</ele>
	<time>2024-07-24T06:25:58.000Z</time>
</trkpt>
<trkpt lat="46.0256570" lon="10.3727730">
	<ele>988.20</ele>
	<time>2024-07-24T06:25:59.000Z</time>
</trkpt>
<trkpt lat="46.0256570" lon="10.3727860">
	<ele>988.40</ele>
	<time>2024-07-24T06:26:00.000Z</time>
</trkpt>
<trkpt lat="46.0256580" lon="10.3727930">
	<ele>988.60</ele>
	<time>2024-07-24T06:26:01.000Z</time>
</trkpt>
<trkpt lat="46.0256630" lon="10.3728020">
	<ele>988.80</ele>
	<time>2024-07-24T06:26:02.000Z</time>
</trkpt>
<trkpt lat="46.0256680" lon="10.3728090">
	<ele>988.80</ele>
	<time>2024-07-24T06:26:03.000Z</time>
</trkpt>
<trkpt lat="46.0256680" lon="10.3728200">
	<ele>989.00</ele>
	<time>2024-07-24T06:26:04.000Z</time>
</trkpt>
<trkpt lat="46.0256630" lon="10.3728290">
	<ele>989.20</ele>
	<time>2024-07-24T06:26:05.000Z</time>
</trkpt>
<trkpt lat="46.0256640" lon="10.3728440">
	<ele>989.40</ele>
	<time>2024-07-24T06:26:06.000Z</time>
</trkpt>
<trkpt lat="46.0256680" lon="10.3728560">
	<ele>989.60</ele>
	<time>2024-07-24T06:26:07.000Z</time>
</trkpt>
<trkpt lat="46.0256700" lon="10.3728690">
	<ele>989.80</ele>
	<time>2024-07-24T06:26:08.000Z</time>
</trkpt>
<trkpt lat="46.0256770" lon="10.3728790">
	<ele>990.00</ele>
	<time>2024-07-24T06:26:09.000Z</time>
</trkpt>
<trkpt lat="46.0256860" lon="10.3728890">
	<ele>990.20</ele>
	<time>2024-07-24T06:26:10.000Z</time>
</trkpt>
<trkpt lat="46.0256830" lon="10.3728920">
	<ele>990.40</ele>
	<time>2024-07-24T06:26:11.000Z</time>
</trkpt>
<trkpt lat="46.0256790" lon="10.3729020">
	<ele>990.40</ele>
	<time>2024-07-24T06:26:12.000Z</time>
</trkpt>
<trkpt lat="46.0256740" lon="10.3729110">
	<ele>990.80</ele>
	<time>2024-07-24T06:26:13.000Z</time>
</trkpt>
<trkpt lat="46.0256710" lon="10.3729250">
	<ele>991.00</ele>
	<time>2024-07-24T06:26:14.000Z</time>
</trkpt>
<trkpt lat="46.0256680" lon="10.3729400">
	<ele>991.20</ele>
	<time>2024-07-24T06:26:15.000Z</time>
</trkpt>
<trkpt lat="46.0256690" lon="10.3729510">
	<ele>991.40</ele>
	<time>2024-07-24T06:26:16.000Z</time>
</trkpt>
<trkpt lat="46.0256700" lon="10.3729610">
	<ele>991.60</ele>
	<time>2024-07-24T06:26:17.000Z</time>
</trkpt>
<trkpt lat="46.0256730" lon="10.3729750">
	<ele>991.60</ele>
	<time>2024-07-24T06:26:18.000Z</time>
</trkpt>
<trkpt lat="46.0256730" lon="10.3729860">
	<ele>991.80</ele>
	<time>2024-07-24T06:26:19.000Z</time>
</trkpt>
<trkpt lat="46.0256770" lon="10.3729950">
	<ele>991.80</ele>
	<time>2024-07-24T06:26:20.000Z</time>
</trkpt>
<trkpt lat="46.0256850" lon="10.3730110">
	<ele>992.00</ele>
	<time>2024-07-24T06:26:21.000Z</time>
</trkpt>
<trkpt lat="46.0256940" lon="10.3730360">
	<ele>992.20</ele>
	<time>2024-07-24T06:26:22.000Z</time>
</trkpt>
<trkpt lat="46.0256980" lon="10.3730550">
	<ele>992.20</ele>
	<time>2024-07-24T06:26:23.000Z</time>
</trkpt>
<trkpt lat="46.0257000" lon="10.3730710">
	<ele>992.40</ele>
	<time>2024-07-24T06:26:24.000Z</time>
</trkpt>
<trkpt lat="46.0257070" lon="10.3730850">
	<ele>992.60</ele>
	<time>2024-07-24T06:26:25.000Z</time>
</trkpt>
<trkpt lat="46.0257100" lon="10.3730920">
	<ele>992.80</ele>
	<time>2024-07-24T06:26:26.000Z</time>
</trkpt>
<trkpt lat="46.0257150" lon="10.3730960">
	<ele>993.20</ele>
	<time>2024-07-24T06:26:27.000Z</time>
</trkpt>
<trkpt lat="46.0257160" lon="10.3730970">
	<ele>993.40</ele>
	<time>2024-07-24T06:26:28.000Z</time>
</trkpt>
<trkpt lat="46.0257040" lon="10.3730970">
	<ele>993.40</ele>
	<time>2024-07-24T06:26:29.000Z</time>
</trkpt>
<trkpt lat="46.0256910" lon="10.3730950">
	<ele>993.60</ele>
	<time>2024-07-24T06:26:30.000Z</time>
</trkpt>
<trkpt lat="46.0256860" lon="10.3731000">
	<ele>994.00</ele>
	<time>2024-07-24T06:26:31.000Z</time>
</trkpt>
<trkpt lat="46.0256820" lon="10.3731120">
	<ele>994.20</ele>
	<time>2024-07-24T06:26:32.000Z</time>
</trkpt>
<trkpt lat="46.0256780" lon="10.3731230">
	<ele>994.40</ele>
	<time>2024-07-24T06:26:33.000Z</time>
</trkpt>
<trkpt lat="46.0256720" lon="10.3731370">
	<ele>994.60</ele>
	<time>2024-07-24T06:26:34.000Z</time>
</trkpt>
<trkpt lat="46.0256690" lon="10.3731480">
	<ele>994.80</ele>
	<time>2024-07-24T06:26:35.000Z</time>
</trkpt>
<trkpt lat="46.0256690" lon="10.3731560">
	<ele>995.00</ele>
	<time>2024-07-24T06:26:36.000Z</time>
</trkpt>
<trkpt lat="46.0256660" lon="10.3731590">
	<ele>995.20</ele>
	<time>2024-07-24T06:26:37.000Z</time>
</trkpt>
<trkpt lat="46.0256580" lon="10.3731550">
	<ele>995.20</ele>
	<time>2024-07-24T06:26:38.000Z</time>
</trkpt>
<trkpt lat="46.0256490" lon="10.3731480">
	<ele>995.60</ele>
	<time>2024-07-24T06:26:39.000Z</time>
</trkpt>
<trkpt lat="46.0256390" lon="10.3731420">
	<ele>996.00</ele>
	<time>2024-07-24T06:26:40.000Z</time>
</trkpt>
<trkpt lat="46.0256360" lon="10.3731430">
	<ele>996.20</ele>
	<time>2024-07-24T06:26:41.000Z</time>
</trkpt>
<trkpt lat="46.0256310" lon="10.3731470">
	<ele>996.40</ele>
	<time>2024-07-24T06:26:42.000Z</time>
</trkpt>
<trkpt lat="46.0256290" lon="10.3731490">
	<ele>996.40</ele>
	<time>2024-07-24T06:26:43.000Z</time>
</trkpt>
<trkpt lat="46.0256270" lon="10.3731550">
	<ele>996.60</ele>
	<time>2024-07-24T06:26:44.000Z</time>
</trkpt>
<trkpt lat="46.0256250" lon="10.3731620">
	<ele>996.80</ele>
	<time>2024-07-24T06:26:45.000Z</time>
</trkpt>
<trkpt lat="46.0256220" lon="10.3731810">
	<ele>997.00</ele>
	<time>2024-07-24T06:26:46.000Z</time>
</trkpt>
<trkpt lat="46.0256170" lon="10.3732050">
	<ele>997.20</ele>
	<time>2024-07-24T06:26:47.000Z</time>
</trkpt>
<trkpt lat="46.0256210" lon="10.3732250">
	<ele>997.20</ele>
	<time>2024-07-24T06:26:48.000Z</time>
</trkpt>
<trkpt lat="46.0256270" lon="10.3732390">
	<ele>997.40</ele>
	<time>2024-07-24T06:26:49.000Z</time>
</trkpt>
<trkpt lat="46.0256330" lon="10.3732520">
	<ele>997.60</ele>
	<time>2024-07-24T06:26:50.000Z</time>
</trkpt>
<trkpt lat="46.0256370" lon="10.3732610">
	<ele>997.80</ele>
	<time>2024-07-24T06:26:51.000Z</time>
</trkpt>
<trkpt lat="46.0256340" lon="10.3732720">
	<ele>997.80</ele>
	<time>2024-07-24T06:26:52.000Z</time>
</trkpt>
<trkpt lat="46.0256330" lon="10.3732810">
	<ele>998.20</ele>
	<time>2024-07-24T06:26:53.000Z</time>
</trkpt>
<trkpt lat="46.0256330" lon="10.3732830">
	<ele>998.40</ele>
	<time>2024-07-24T06:26:54.000Z</time>
</trkpt>
<trkpt lat="46.0256270" lon="10.3732820">
	<ele>998.40</ele>
	<time>2024-07-24T06:26:55.000Z</time>
</trkpt>
<trkpt lat="46.0256250" lon="10.3732850">
	<ele>998.80</ele>
	<time>2024-07-24T06:26:56.000Z</time>
</trkpt>
<trkpt lat="46.0256280" lon="10.3732940">
	<ele>998.80</ele>
	<time>2024-07-24T06:26:57.000Z</time>
</trkpt>
<trkpt lat="46.0256290" lon="10.3733070">
	<ele>999.00</ele>
	<time>2024-07-24T06:26:58.000Z</time>
</trkpt>
<trkpt lat="46.0256320" lon="10.3733250">
	<ele>999.20</ele>
	<time>2024-07-24T06:26:59.000Z</time>
</trkpt>
<trkpt lat="46.0256300" lon="10.3733340">
	<ele>999.40</ele>
	<time>2024-07-24T06:27:00.000Z</time>
</trkpt>
<trkpt lat="46.0256320" lon="10.3733380">
	<ele>999.40</ele>
	<time>2024-07-24T06:27:01.000Z</time>
</trkpt>
<trkpt lat="46.0256350" lon="10.3733510">
	<ele>999.80</ele>
	<time>2024-07-24T06:27:02.000Z</time>
</trkpt>
<trkpt lat="46.0256320" lon="10.3733650">
	<ele>1000.00</ele>
	<time>2024-07-24T06:27:03.000Z</time>
</trkpt>
<trkpt lat="46.0256280" lon="10.3733770">
	<ele>1000.20</ele>
	<time>2024-07-24T06:27:04.000Z</time>
</trkpt>
<trkpt lat="46.0256270" lon="10.3733820">
	<ele>1000.40</ele>
	<time>2024-07-24T06:27:05.000Z</time>
</trkpt>
<trkpt lat="46.0256320" lon="10.3733880">
	<ele>1000.40</ele>
	<time>2024-07-24T06:27:06.000Z</time>
</trkpt>
<trkpt lat="46.0256330" lon="10.3733920">
	<ele>1000.60</ele>
	<time>2024-07-24T06:27:07.000Z</time>
</trkpt>
<trkpt lat="46.0256340" lon="10.3734000">
	<ele>1000.60</ele>
	<time>2024-07-24T06:27:08.000Z</time>
</trkpt>
<trkpt lat="46.0256370" lon="10.3734140">
	<ele>1000.80</ele>
	<time>2024-07-24T06:27:09.000Z</time>
</trkpt>
<trkpt lat="46.0256400" lon="10.3734200">
	<ele>1001.00</ele>
	<time>2024-07-24T06:27:10.000Z</time>
</trkpt>
<trkpt lat="46.0256400" lon="10.3734330">
	<ele>1001.20</ele>
	<time>2024-07-24T06:27:11.000Z</time>
</trkpt>
<trkpt lat="46.0256370" lon="10.3734370">
	<ele>1001.40</ele>
	<time>2024-07-24T06:27:12.000Z</time>
</trkpt>
<trkpt lat="46.0256250" lon="10.3734460">
	<ele>1001.40</ele>
	<time>2024-07-24T06:27:13.000Z</time>
</trkpt>
<trkpt lat="46.0256180" lon="10.3734620">
	<ele>1001.80</ele>
	<time>2024-07-24T06:27:14.000Z</time>
</trkpt>
<trkpt lat="46.0256190" lon="10.3734810">
	<ele>1002.00</ele>
	<time>2024-07-24T06:27:15.000Z</time>
</trkpt>
<trkpt lat="46.0256230" lon="10.3734960">
	<ele>1002.20</ele>
	<time>2024-07-24T06:27:16.000Z</time>
</trkpt>
<trkpt lat="46.0256270" lon="10.3735090">
	<ele>1002.40</ele>
	<time>2024-07-24T06:27:17.000Z</time>
</trkpt>
<trkpt lat="46.0256340" lon="10.3735260">
	<ele>1002.40</ele>
	<time>2024-07-24T06:27:18.000Z</time>
</trkpt>
<trkpt lat="46.0256390" lon="10.3735380">
	<ele>1002.60</ele>
	<time>2024-07-24T06:27:19.000Z</time>
</trkpt>
<trkpt lat="46.0256420" lon="10.3735490">
	<ele>1002.80</ele>
	<time>2024-07-24T06:27:20.000Z</time>
</trkpt>
<trkpt lat="46.0256490" lon="10.3735600">
	<ele>1003.20</ele>
	<time>2024-07-24T06:27:21.000Z</time>
</trkpt>
<trkpt lat="46.0256500" lon="10.3735640">
	<ele>1003.40</ele>
	<time>2024-07-24T06:27:22.000Z</time>
</trkpt>
<trkpt lat="46.0256470" lon="10.3735720">
	<ele>1003.60</ele>
	<time>2024-07-24T06:27:23.000Z</time>
</trkpt>
<trkpt lat="46.0256480" lon="10.3735810">
	<ele>1003.80</ele>
	<time>2024-07-24T06:27:24.000Z</time>
</trkpt>
<trkpt lat="46.0256480" lon="10.3735910">
	<ele>1003.80</ele>
	<time>2024-07-24T06:27:25.000Z</time>
</trkpt>
<trkpt lat="46.0256470" lon="10.3736080">
	<ele>1004.00</ele>
	<time>2024-07-24T06:27:26.000Z</time>
</trkpt>
<trkpt lat="46.0256450" lon="10.3736160">
	<ele>1004.40</ele>
	<time>2024-07-24T06:27:27.000Z</time>
</trkpt>
<trkpt lat="46.0256420" lon="10.3736200">
	<ele>1004.60</ele>
	<time>2024-07-24T06:27:28.000Z</time>
</trkpt>
<trkpt lat="46.0256370" lon="10.3736240">
	<ele>1004.60</ele>
	<time>2024-07-24T06:27:29.000Z</time>
</trkpt>
<trkpt lat="46.0256330" lon="10.3736330">
	<ele>1004.80</ele>
	<time>2024-07-24T06:27:30.000Z</time>
</trkpt>
<trkpt lat="46.0256320" lon="10.3736450">
	<ele>1005.00</ele>
	<time>2024-07-24T06:27:31.000Z</time>
</trkpt>
<trkpt lat="46.0256330" lon="10.3736600">
	<ele>1005.20</ele>
	<time>2024-07-24T06:27:32.000Z</time>
</trkpt>
<trkpt lat="46.0256350" lon="10.3736800">
	<ele>1005.20</ele>
	<time>2024-07-24T06:27:33.000Z</time>
</trkpt>
<trkpt lat="46.0256330" lon="10.3736840">
	<ele>1005.60</ele>
	<time>2024-07-24T06:27:34.000Z</time>
</trkpt>
<trkpt lat="46.0256290" lon="10.3736860">
	<ele>1005.60</ele>
	<time>2024-07-24T06:27:35.000Z</time>
</trkpt>
<trkpt lat="46.0256290" lon="10.3736940">
	<ele>1005.80</ele>
	<time>2024-07-24T06:27:36.000Z</time>
</trkpt>
<trkpt lat="46.0256260" lon="10.3737020">
	<ele>1005.80</ele>
	<time>2024-07-24T06:27:37.000Z</time>
</trkpt>
<trkpt lat="46.0256250" lon="10.3737120">
	<ele>1006.00</ele>
	<time>2024-07-24T06:27:38.000Z</time>
</trkpt>
<trkpt lat="46.0256240" lon="10.3737210">
	<ele>1006.20</ele>
	<time>2024-07-24T06:27:39.000Z</time>
</trkpt>
<trkpt lat="46.0256210" lon="10.3737330">
	<ele>1006.40</ele>
	<time>2024-07-24T06:27:40.000Z</time>
</trkpt>
<trkpt lat="46.0256210" lon="10.3737480">
	<ele>1006.60</ele>
	<time>2024-07-24T06:27:41.000Z</time>
</trkpt>
<trkpt lat="46.0256200" lon="10.3737660">
	<ele>1007.00</ele>
	<time>2024-07-24T06:27:42.000Z</time>
</trkpt>
<trkpt lat="46.0256130" lon="10.3737780">
	<ele>1007.20</ele>
	<time>2024-07-24T06:27:43.000Z</time>
</trkpt>
<trkpt lat="46.0256120" lon="10.3737860">
	<ele>1007.20</ele>
	<time>2024-07-24T06:27:44.000Z</time>
</trkpt>
<trkpt lat="46.0256080" lon="10.3737960">
	<ele>1007.40</ele>
	<time>2024-07-24T06:27:45.000Z</time>
</trkpt>
<trkpt lat="46.0256040" lon="10.3738050">
	<ele>1007.60</ele>
	<time>2024-07-24T06:27:46.000Z</time>
</trkpt>
<trkpt lat="46.0256030" lon="10.3738150">
	<ele>1007.60</ele>
	<time>2024-07-24T06:27:47.000Z</time>
</trkpt>
<trkpt lat="46.0255990" lon="10.3738300">
	<ele>1007.80</ele>
	<time>2024-07-24T06:27:48.000Z</time>
</trkpt>
<trkpt lat="46.0255930" lon="10.3738420">
	<ele>1008.00</ele>
	<time>2024-07-24T06:27:49.000Z</time>
</trkpt>
<trkpt lat="46.0255870" lon="10.3738470">
	<ele>1008.20</ele>
	<time>2024-07-24T06:27:50.000Z</time>
</trkpt>
<trkpt lat="46.0255810" lon="10.3738440">
	<ele>1008.40</ele>
	<time>2024-07-24T06:27:51.000Z</time>
</trkpt>
<trkpt lat="46.0255760" lon="10.3738510">
	<ele>1008.60</ele>
	<time>2024-07-24T06:27:52.000Z</time>
</trkpt>
<trkpt lat="46.0255740" lon="10.3738650">
	<ele>1008.60</ele>
	<time>2024-07-24T06:27:53.000Z</time>
</trkpt>
<trkpt lat="46.0255660" lon="10.3738750">
	<ele>1008.80</ele>
	<time>2024-07-24T06:27:54.000Z</time>
</trkpt>
<trkpt lat="46.0255610" lon="10.3738860">
	<ele>1008.80</ele>
	<time>2024-07-24T06:27:55.000Z</time>
</trkpt>
<trkpt lat="46.0255590" lon="10.3739010">
	<ele>1009.00</ele>
	<time>2024-07-24T06:27:56.000Z</time>
</trkpt>
<trkpt lat="46.0255610" lon="10.3739150">
	<ele>1009.00</ele>
	<time>2024-07-24T06:27:57.000Z</time>
</trkpt>
<trkpt lat="46.0255610" lon="10.3739280">
	<ele>1009.00</ele>
	<time>2024-07-24T06:27:58.000Z</time>
</trkpt>
<trkpt lat="46.0255600" lon="10.3739440">
	<ele>1009.40</ele>
	<time>2024-07-24T06:27:59.000Z</time>
</trkpt>
<trkpt lat="46.0255580" lon="10.3739570">
	<ele>1009.60</ele>
	<time>2024-07-24T06:28:00.000Z</time>
</trkpt>
<trkpt lat="46.0255560" lon="10.3739670">
	<ele>1009.80</ele>
	<time>2024-07-24T06:28:01.000Z</time>
</trkpt>
<trkpt lat="46.0255510" lon="10.3739820">
	<ele>1010.00</ele>
	<time>2024-07-24T06:28:02.000Z</time>
</trkpt>
<trkpt lat="46.0255510" lon="10.3739940">
	<ele>1010.20</ele>
	<time>2024-07-24T06:28:03.000Z</time>
</trkpt>
<trkpt lat="46.0255500" lon="10.3740070">
	<ele>1010.20</ele>
	<time>2024-07-24T06:28:04.000Z</time>
</trkpt>
<trkpt lat="46.0255490" lon="10.3740190">
	<ele>1010.40</ele>
	<time>2024-07-24T06:28:05.000Z</time>
</trkpt>
<trkpt lat="46.0255490" lon="10.3740290">
	<ele>1010.60</ele>
	<time>2024-07-24T06:28:06.000Z</time>
</trkpt>
<trkpt lat="46.0255460" lon="10.3740310">
	<ele>1010.80</ele>
	<time>2024-07-24T06:28:07.000Z</time>
</trkpt>
<trkpt lat="46.0255420" lon="10.3740330">
	<ele>1011.00</ele>
	<time>2024-07-24T06:28:08.000Z</time>
</trkpt>
<trkpt lat="46.0255350" lon="10.3740370">
	<ele>1011.20</ele>
	<time>2024-07-24T06:28:09.000Z</time>
</trkpt>
<trkpt lat="46.0255330" lon="10.3740450">
	<ele>1011.40</ele>
	<time>2024-07-24T06:28:10.000Z</time>
</trkpt>
<trkpt lat="46.0255330" lon="10.3740530">
	<ele>1011.60</ele>
	<time>2024-07-24T06:28:11.000Z</time>
</trkpt>
<trkpt lat="46.0255280" lon="10.3740570">
	<ele>1011.60</ele>
	<time>2024-07-24T06:28:12.000Z</time>
</trkpt>
<trkpt lat="46.0255210" lon="10.3740620">
	<ele>1011.60</ele>
	<time>2024-07-24T06:28:13.000Z</time>
</trkpt>
<trkpt lat="46.0255200" lon="10.3740700">
	<ele>1012.00</ele>
	<time>2024-07-24T06:28:14.000Z</time>
</trkpt>
<trkpt lat="46.0255190" lon="10.3740760">
	<ele>1012.20</ele>
	<time>2024-07-24T06:28:15.000Z</time>
</trkpt>
<trkpt lat="46.0255200" lon="10.3740800">
	<ele>1012.20</ele>
	<time>2024-07-24T06:28:16.000Z</time>
</trkpt>
<trkpt lat="46.0255140" lon="10.3740830">
	<ele>1012.60</ele>
	<time>2024-07-24T06:28:17.000Z</time>
</trkpt>
<trkpt lat="46.0255090" lon="10.3740870">
	<ele>1012.80</ele>
	<time>2024-07-24T06:28:18.000Z</time>
</trkpt>
<trkpt lat="46.0255020" lon="10.3740950">
	<ele>1013.00</ele>
	<time>2024-07-24T06:28:19.000Z</time>
</trkpt>
<trkpt lat="46.0254860" lon="10.3740990">
	<ele>1013.00</ele>
	<time>2024-07-24T06:28:20.000Z</time>
</trkpt>
<trkpt lat="46.0254700" lon="10.3740980">
	<ele>1013.20</ele>
	<time>2024-07-24T06:28:21.000Z</time>
</trkpt>
<trkpt lat="46.0254570" lon="10.3740920">
	<ele>1013.40</ele>
	<time>2024-07-24T06:28:22.000Z</time>
</trkpt>
<trkpt lat="46.0254530" lon="10.3740890">
	<ele>1013.60</ele>
	<time>2024-07-24T06:28:23.000Z</time>
</trkpt>
<trkpt lat="46.0254480" lon="10.3740840">
	<ele>1013.80</ele>
	<time>2024-07-24T06:28:24.000Z</time>
</trkpt>
<trkpt lat="46.0254450" lon="10.3740890">
	<ele>1014.00</ele>
	<time>2024-07-24T06:28:25.000Z</time>
</trkpt>
<trkpt lat="46.0254400" lon="10.3740910">
	<ele>1014.00</ele>
	<time>2024-07-24T06:28:26.000Z</time>
</trkpt>
<trkpt lat="46.0254310" lon="10.3740850">
	<ele>1014.40</ele>
	<time>2024-07-24T06:28:27.000Z</time>
</trkpt>
<trkpt lat="46.0254250" lon="10.3740790">
	<ele>1014.40</ele>
	<time>2024-07-24T06:28:28.000Z</time>
</trkpt>
<trkpt lat="46.0254220" lon="10.3740820">
	<ele>1014.60</ele>
	<time>2024-07-24T06:28:29.000Z</time>
</trkpt>
<trkpt lat="46.0254250" lon="10.3740890">
	<ele>1014.80</ele>
	<time>2024-07-24T06:28:30.000Z</time>
</trkpt>
<trkpt lat="46.0254240" lon="10.3740990">
	<ele>1015.00</ele>
	<time>2024-07-24T06:28:31.000Z</time>
</trkpt>
<trkpt lat="46.0254300" lon="10.3741170">
	<ele>1015.20</ele>
	<time>2024-07-24T06:28:32.000Z</time>
</trkpt>
<trkpt lat="46.0254320" lon="10.3741350">
	<ele>1015.40</ele>
	<time>2024-07-24T06:28:33.000Z</time>
</trkpt>
<trkpt lat="46.0254240" lon="10.3741490">
	<ele>1015.60</ele>
	<time>2024-07-24T06:28:34.000Z</time>
</trkpt>
<trkpt lat="46.0254130" lon="10.3741580">
	<ele>1015.80</ele>
	<time>2024-07-24T06:28:35.000Z</time>
</trkpt>
<trkpt lat="46.0254060" lon="10.3741640">
	<ele>1016.00</ele>
	<time>2024-07-24T06:28:36.000Z</time>
</trkpt>
<trkpt lat="46.0253980" lon="10.3741670">
	<ele>1016.20</ele>
	<time>2024-07-24T06:28:37.000Z</time>
</trkpt>
<trkpt lat="46.0253980" lon="10.3741780">
	<ele>1016.20</ele>
	<time>2024-07-24T06:28:38.000Z</time>
</trkpt>
<trkpt lat="46.0253930" lon="10.3741850">
	<ele>1016.40</ele>
	<time>2024-07-24T06:28:39.000Z</time>
</trkpt>
<trkpt lat="46.0253910" lon="10.3741970">
	<ele>1016.60</ele>
	<time>2024-07-24T06:28:40.000Z</time>
</trkpt>
<trkpt lat="46.0253920" lon="10.3742130">
	<ele>1016.80</ele>
	<time>2024-07-24T06:28:41.000Z</time>
</trkpt>
<trkpt lat="46.0253920" lon="10.3742270">
	<ele>1017.00</ele>
	<time>2024-07-24T06:28:42.000Z</time>
</trkpt>
<trkpt lat="46.0253880" lon="10.3742320">
	<ele>1017.00</ele>
	<time>2024-07-24T06:28:43.000Z</time>
</trkpt>
<trkpt lat="46.0253870" lon="10.3742410">
	<ele>1017.20</ele>
	<time>2024-07-24T06:28:44.000Z</time>
</trkpt>
<trkpt lat="46.0253830" lon="10.3742540">
	<ele>1017.40</ele>
	<time>2024-07-24T06:28:45.000Z</time>
</trkpt>
<trkpt lat="46.0253780" lon="10.3742640">
	<ele>1017.60</ele>
	<time>2024-07-24T06:28:46.000Z</time>
</trkpt>
<trkpt lat="46.0253760" lon="10.3742770">
	<ele>1018.00</ele>
	<time>2024-07-24T06:28:47.000Z</time>
</trkpt>
<trkpt lat="46.0253690" lon="10.3742830">
	<ele>1018.00</ele>
	<time>2024-07-24T06:28:48.000Z</time>
</trkpt>
<trkpt lat="46.0253610" lon="10.3742890">
	<ele>1018.40</ele>
	<time>2024-07-24T06:28:49.000Z</time>
</trkpt>
<trkpt lat="46.0253550" lon="10.3742970">
	<ele>1018.60</ele>
	<time>2024-07-24T06:28:50.000Z</time>
</trkpt>
<trkpt lat="46.0253480" lon="10.3743070">
	<ele>1018.60</ele>
	<time>2024-07-24T06:28:51.000Z</time>
</trkpt>
<trkpt lat="46.0253480" lon="10.3743140">
	<ele>1019.00</ele>
	<time>2024-07-24T06:28:52.000Z</time>
</trkpt>
<trkpt lat="46.0253490" lon="10.3743280">
	<ele>1019.00</ele>
	<time>2024-07-24T06:28:53.000Z</time>
</trkpt>
<trkpt lat="46.0253450" lon="10.3743500">
	<ele>1019.20</ele>
	<time>2024-07-24T06:28:54.000Z</time>
</trkpt>
<trkpt lat="46.0253480" lon="10.3743720">
	<ele>1019.40</ele>
	<time>2024-07-24T06:28:55.000Z</time>
</trkpt>
<trkpt lat="46.0253520" lon="10.3743920">
	<ele>1019.60</ele>
	<time>2024-07-24T06:28:56.000Z</time>
</trkpt>
<trkpt lat="46.0253490" lon="10.3743960">
	<ele>1019.80</ele>
	<time>2024-07-24T06:28:57.000Z</time>
</trkpt>
<trkpt lat="46.0253440" lon="10.3743940">
	<ele>1020.00</ele>
	<time>2024-07-24T06:28:58.000Z</time>
</trkpt>
<trkpt lat="46.0253440" lon="10.3743950">
	<ele>1020.20</ele>
	<time>2024-07-24T06:28:59.000Z</time>
</trkpt>
<trkpt lat="46.0253430" lon="10.3743970">
	<ele>1020.40</ele>
	<time>2024-07-24T06:29:00.000Z</time>
</trkpt>
<trkpt lat="46.0253410" lon="10.3743980">
	<ele>1020.60</ele>
	<time>2024-07-24T06:29:01.000Z</time>
</trkpt>
<trkpt lat="46.0253470" lon="10.3744080">
	<ele>1020.60</ele>
	<time>2024-07-24T06:29:02.000Z</time>
</trkpt>
<trkpt lat="46.0253460" lon="10.3744140">
	<ele>1020.80</ele>
	<time>2024-07-24T06:29:03.000Z</time>
</trkpt>
<trkpt lat="46.0253380" lon="10.3744200">
	<ele>1021.00</ele>
	<time>2024-07-24T06:29:04.000Z</time>
</trkpt>
<trkpt lat="46.0253350" lon="10.3744350">
	<ele>1021.00</ele>
	<time>2024-07-24T06:29:05.000Z</time>
</trkpt>
<trkpt lat="46.0253340" lon="10.3744560">
	<ele>1021.20</ele>
	<time>2024-07-24T06:29:06.000Z</time>
</trkpt>
<trkpt lat="46.0253340" lon="10.3744730">
	<ele>1021.40</ele>
	<time>2024-07-24T06:29:07.000Z</time>
</trkpt>
<trkpt lat="46.0253350" lon="10.3744900">
	<ele>1021.60</ele>
	<time>2024-07-24T06:29:08.000Z</time>
</trkpt>
<trkpt lat="46.0253370" lon="10.3745070">
	<ele>1021.60</ele>
	<time>2024-07-24T06:29:09.000Z</time>
</trkpt>
<trkpt lat="46.0253340" lon="10.3745170">
	<ele>1021.80</ele>
	<time>2024-07-24T06:29:10.000Z</time>
</trkpt>
<trkpt lat="46.0253280" lon="10.3745280">
	<ele>1021.80</ele>
	<time>2024-07-24T06:29:11.000Z</time>
</trkpt>
<trkpt lat="46.0253240" lon="10.3745360">
	<ele>1022.20</ele>
	<time>2024-07-24T06:29:12.000Z</time>
</trkpt>
<trkpt lat="46.0253180" lon="10.3745470">
	<ele>1022.40</ele>
	<time>2024-07-24T06:29:13.000Z</time>
</trkpt>
<trkpt lat="46.0253150" lon="10.3745610">
	<ele>1022.40</ele>
	<time>2024-07-24T06:29:14.000Z</time>
</trkpt>
<trkpt lat="46.0253100" lon="10.3745760">
	<ele>1022.60</ele>
	<time>2024-07-24T06:29:15.000Z</time>
</trkpt>
<trkpt lat="46.0253050" lon="10.3745860">
	<ele>1022.60</ele>
	<time>2024-07-24T06:29:16.000Z</time>
</trkpt>
<trkpt lat="46.0252980" lon="10.3745930">
	<ele>1022.80</ele>
	<time>2024-07-24T06:29:17.000Z</time>
</trkpt>
<trkpt lat="46.0252870" lon="10.3745970">
	<ele>1022.80</ele>
	<time>2024-07-24T06:29:18.000Z</time>
</trkpt>
<trkpt lat="46.0252800" lon="10.3746070">
	<ele>1022.80</ele>
	<time>2024-07-24T06:29:19.000Z</time>
</trkpt>
<trkpt lat="46.0252710" lon="10.3746130">
	<ele>1022.80</ele>
	<time>2024-07-24T06:29:20.000Z</time>
</trkpt>
<trkpt lat="46.0252540" lon="10.3746160">
	<ele>1022.80</ele>
	<time>2024-07-24T06:29:21.000Z</time>
</trkpt>
<trkpt lat="46.0252450" lon="10.3746240">
	<ele>1023.00</ele>
	<time>2024-07-24T06:29:22.000Z</time>
</trkpt>
<trkpt lat="46.0252360" lon="10.3746320">
	<ele>1023.00</ele>
	<time>2024-07-24T06:29:23.000Z</time>
</trkpt>
<trkpt lat="46.0252350" lon="10.3746400">
	<ele>1023.00</ele>
	<time>2024-07-24T06:29:24.000Z</time>
</trkpt>
<trkpt lat="46.0252330" lon="10.3746510">
	<ele>1023.00</ele>
	<time>2024-07-24T06:29:25.000Z</time>
</trkpt>
<trkpt lat="46.0252280" lon="10.3746730">
	<ele>1023.00</ele>
	<time>2024-07-24T06:29:26.000Z</time>
</trkpt>
<trkpt lat="46.0252170" lon="10.3746960">
	<ele>1023.00</ele>
	<time>2024-07-24T06:29:27.000Z</time>
</trkpt>
<trkpt lat="46.0252070" lon="10.3747100">
	<ele>1023.00</ele>
	<time>2024-07-24T06:29:28.000Z</time>
</trkpt>
<trkpt lat="46.0251980" lon="10.3747210">
	<ele>1023.00</ele>
	<time>2024-07-24T06:29:29.000Z</time>
</trkpt>
<trkpt lat="46.0251820" lon="10.3747270">
	<ele>1023.20</ele>
	<time>2024-07-24T06:29:30.000Z</time>
</trkpt>
<trkpt lat="46.0251610" lon="10.3747300">
	<ele>1023.20</ele>
	<time>2024-07-24T06:29:31.000Z</time>
</trkpt>
<trkpt lat="46.0251430" lon="10.3747400">
	<ele>1023.20</ele>
	<time>2024-07-24T06:29:32.000Z</time>
</trkpt>
<trkpt lat="46.0251310" lon="10.3747660">
	<ele>1023.20</ele>
	<time>2024-07-24T06:29:33.000Z</time>
</trkpt>
<trkpt lat="46.0251160" lon="10.3747810">
	<ele>1023.20</ele>
	<time>2024-07-24T06:29:34.000Z</time>
</trkpt>
<trkpt lat="46.0251030" lon="10.3747980">
	<ele>1023.20</ele>
	<time>2024-07-24T06:29:35.000Z</time>
</trkpt>
<trkpt lat="46.0251010" lon="10.3748160">
	<ele>1023.20</ele>
	<time>2024-07-24T06:29:36.000Z</time>
</trkpt>
<trkpt lat="46.0250990" lon="10.3748330">
	<ele>1023.20</ele>
	<time>2024-07-24T06:29:37.000Z</time>
</trkpt>
<trkpt lat="46.0250920" lon="10.3748490">
	<ele>1023.20</ele>
	<time>2024-07-24T06:29:38.000Z</time>
</trkpt>
<trkpt lat="46.0250800" lon="10.3748600">
	<ele>1023.40</ele>
	<time>2024-07-24T06:29:39.000Z</time>
</trkpt>
<trkpt lat="46.0250690" lon="10.3748750">
	<ele>1023.40</ele>
	<time>2024-07-24T06:29:40.000Z</time>
</trkpt>
<trkpt lat="46.0250590" lon="10.3748920">
	<ele>1023.40</ele>
	<time>2024-07-24T06:29:41.000Z</time>
</trkpt>
<trkpt lat="46.0250510" lon="10.3749110">
	<ele>1023.60</ele>
	<time>2024-07-24T06:29:42.000Z</time>
</trkpt>
<trkpt lat="46.0250380" lon="10.3749250">
	<ele>1023.60</ele>
	<time>2024-07-24T06:29:43.000Z</time>
</trkpt>
<trkpt lat="46.0250250" lon="10.3749360">
	<ele>1023.60</ele>
	<time>2024-07-24T06:29:44.000Z</time>
</trkpt>
<trkpt lat="46.0250130" lon="10.3749450">
	<ele>1023.60</ele>
	<time>2024-07-24T06:29:45.000Z</time>
</trkpt>
<trkpt lat="46.0250050" lon="10.3749540">
	<ele>1023.60</ele>
	<time>2024-07-24T06:29:46.000Z</time>
</trkpt>
<trkpt lat="46.0250000" lon="10.3749580">
	<ele>1023.60</ele>
	<time>2024-07-24T06:29:47.000Z</time>
</trkpt>
<trkpt lat="46.0249870" lon="10.3749610">
	<ele>1023.60</ele>
	<time>2024-07-24T06:29:48.000Z</time>
</trkpt>
<trkpt lat="46.0249830" lon="10.3749620">
	<ele>1023.60</ele>
	<time>2024-07-24T06:29:49.000Z</time>
</trkpt>
<trkpt lat="46.0249740" lon="10.3749600">
	<ele>1023.60</ele>
	<time>2024-07-24T06:29:50.000Z</time>
</trkpt>
<trkpt lat="46.0249730" lon="10.3749580">
	<ele>1023.60</ele>
	<time>2024-07-24T06:29:51.000Z</time>
</trkpt>
<trkpt lat="46.0249720" lon="10.3749560">
	<ele>1023.80</ele>
	<time>2024-07-24T06:29:52.000Z</time>
</trkpt>
<trkpt lat="46.0249710" lon="10.3749550">
	<ele>1023.80</ele>
	<time>2024-07-24T06:29:53.000Z</time>
</trkpt>
<trkpt lat="46.0249670" lon="10.3749470">
	<ele>1023.80</ele>
	<time>2024-07-24T06:29:54.000Z</time>
</trkpt>
<trkpt lat="46.0249660" lon="10.3749450">
	<ele>1024.00</ele>
	<time>2024-07-24T06:29:55.000Z</time>
</trkpt>
<trkpt lat="46.0249680" lon="10.3749430">
	<ele>1024.00</ele>
	<time>2024-07-24T06:29:56.000Z</time>
</trkpt>
<trkpt lat="46.0249680" lon="10.3749390">
	<ele>1024.20</ele>
	<time>2024-07-24T06:29:57.000Z</time>
</trkpt>
<trkpt lat="46.0249640" lon="10.3749420">
	<ele>1024.20</ele>
	<time>2024-07-24T06:29:58.000Z</time>
</trkpt>
<trkpt lat="46.0249610" lon="10.3749500">
	<ele>1024.20</ele>
	<time>2024-07-24T06:29:59.000Z</time>
</trkpt>
<trkpt lat="46.0249580" lon="10.3749530">
	<ele>1024.40</ele>
	<time>2024-07-24T06:30:00.000Z</time>
</trkpt>
<trkpt lat="46.0249570" lon="10.3749540">
	<ele>1024.40</ele>
	<time>2024-07-24T06:30:01.000Z</time>
</trkpt>
<trkpt lat="46.0249570" lon="10.3749570">
	<ele>1024.60</ele>
	<time>2024-07-24T06:30:02.000Z</time>
</trkpt>
<trkpt lat="46.0249550" lon="10.3749710">
	<ele>1024.60</ele>
	<time>2024-07-24T06:30:03.000Z</time>
</trkpt>
<trkpt lat="46.0249570" lon="10.3749800">
	<ele>1024.80</ele>
	<time>2024-07-24T06:30:04.000Z</time>
</trkpt>
<trkpt lat="46.0249530" lon="10.3749790">
	<ele>1024.80</ele>
	<time>2024-07-24T06:30:05.000Z</time>
</trkpt>
<trkpt lat="46.0249490" lon="10.3749790">
	<ele>1025.00</ele>
	<time>2024-07-24T06:30:06.000Z</time>
</trkpt>
<trkpt lat="46.0249460" lon="10.3749900">
	<ele>1025.00</ele>
	<time>2024-07-24T06:30:07.000Z</time>
</trkpt>
<trkpt lat="46.0249450" lon="10.3750020">
	<ele>1025.00</ele>
	<time>2024-07-24T06:30:08.000Z</time>
</trkpt>
<trkpt lat="46.0249470" lon="10.3750200">
	<ele>1025.20</ele>
	<time>2024-07-24T06:30:09.000Z</time>
</trkpt>
<trkpt lat="46.0249450" lon="10.3750370">
	<ele>1025.20</ele>
	<time>2024-07-24T06:30:10.000Z</time>
</trkpt>
<trkpt lat="46.0249420" lon="10.3750430">
	<ele>1025.40</ele>
	<time>2024-07-24T06:30:11.000Z</time>
</trkpt>
<trkpt lat="46.0249420" lon="10.3750590">
	<ele>1025.40</ele>
	<time>2024-07-24T06:30:12.000Z</time>
</trkpt>
<trkpt lat="46.0249470" lon="10.3750770">
	<ele>1025.40</ele>
	<time>2024-07-24T06:30:13.000Z</time>
</trkpt>
<trkpt lat="46.0249470" lon="10.3750930">
	<ele>1025.60</ele>
	<time>2024-07-24T06:30:14.000Z</time>
</trkpt>
<trkpt lat="46.0249470" lon="10.3751130">
	<ele>1025.60</ele>
	<time>2024-07-24T06:30:15.000Z</time>
</trkpt>
<trkpt lat="46.0249490" lon="10.3751330">
	<ele>1025.80</ele>
	<time>2024-07-24T06:30:16.000Z</time>
</trkpt>
<trkpt lat="46.0249530" lon="10.3751520">
	<ele>1025.80</ele>
	<time>2024-07-24T06:30:17.000Z</time>
</trkpt>
<trkpt lat="46.0249650" lon="10.3751760">
	<ele>1026.20</ele>
	<time>2024-07-24T06:30:18.000Z</time>
</trkpt>
<trkpt lat="46.0249760" lon="10.3751980">
	<ele>1026.40</ele>
	<time>2024-07-24T06:30:19.000Z</time>
</trkpt>
<trkpt lat="46.0249790" lon="10.3752220">
	<ele>1026.40</ele>
	<time>2024-07-24T06:30:20.000Z</time>
</trkpt>
<trkpt lat="46.0249800" lon="10.3752410">
	<ele>1026.60</ele>
	<time>2024-07-24T06:30:21.000Z</time>
</trkpt>
<trkpt lat="46.0249820" lon="10.3752590">
	<ele>1026.80</ele>
	<time>2024-07-24T06:30:22.000Z</time>
</trkpt>
<trkpt lat="46.0249850" lon="10.3752670">
	<ele>1026.80</ele>
	<time>2024-07-24T06:30:23.000Z</time>
</trkpt>
<trkpt lat="46.0249880" lon="10.3752800">
	<ele>1027.00</ele>
	<time>2024-07-24T06:30:24.000Z</time>
</trkpt>
<trkpt lat="46.0249870" lon="10.3752870">
	<ele>1027.20</ele>
	<time>2024-07-24T06:30:25.000Z</time>
</trkpt>
<trkpt lat="46.0249840" lon="10.3752880">
	<ele>1027.40</ele>
	<time>2024-07-24T06:30:26.000Z</time>
</trkpt>
<trkpt lat="46.0249820" lon="10.3752960">
	<ele>1027.60</ele>
	<time>2024-07-24T06:30:27.000Z</time>
</trkpt>
<trkpt lat="46.0249810" lon="10.3752960">
	<ele>1027.80</ele>
	<time>2024-07-24T06:30:28.000Z</time>
</trkpt>
<trkpt lat="46.0249790" lon="10.3752930">
	<ele>1028.20</ele>
	<time>2024-07-24T06:30:29.000Z</time>
</trkpt>
<trkpt lat="46.0249800" lon="10.3753060">
	<ele>1028.40</ele>
	<time>2024-07-24T06:30:30.000Z</time>
</trkpt>
<trkpt lat="46.0249850" lon="10.3753230">
	<ele>1028.60</ele>
	<time>2024-07-24T06:30:31.000Z</time>
</trkpt>
<trkpt lat="46.0249890" lon="10.3753310">
	<ele>1028.80</ele>
	<time>2024-07-24T06:30:32.000Z</time>
</trkpt>
<trkpt lat="46.0249990" lon="10.3753360">
	<ele>1029.00</ele>
	<time>2024-07-24T06:30:33.000Z</time>
</trkpt>
<trkpt lat="46.0250030" lon="10.3753330">
	<ele>1029.20</ele>
	<time>2024-07-24T06:30:34.000Z</time>
</trkpt>
<trkpt lat="46.0250060" lon="10.3753310">
	<ele>1029.40</ele>
	<time>2024-07-24T06:30:35.000Z</time>
</trkpt>
<trkpt lat="46.0249980" lon="10.3753230">
	<ele>1029.40</ele>
	<time>2024-07-24T06:30:36.000Z</time>
</trkpt>
<trkpt lat="46.0249980" lon="10.3753200">
	<ele>1029.60</ele>
	<time>2024-07-24T06:30:37.000Z</time>
</trkpt>
<trkpt lat="46.0249980" lon="10.3753210">
	<ele>1029.80</ele>
	<time>2024-07-24T06:30:38.000Z</time>
</trkpt>
<trkpt lat="46.0249980" lon="10.3753210">
	<ele>1030.00</ele>
	<time>2024-07-24T06:30:39.000Z</time>
</trkpt>
<trkpt lat="46.0249980" lon="10.3753210">
	<ele>1030.20</ele>
	<time>2024-07-24T06:30:40.000Z</time>
</trkpt>
<trkpt lat="46.0249980" lon="10.3753210">
	<ele>1030.40</ele>
	<time>2024-07-24T06:30:41.000Z</time>
</trkpt>
<trkpt lat="46.0249980" lon="10.3753210">
	<ele>1030.60</ele>
	<time>2024-07-24T06:30:42.000Z</time>
</trkpt>
<trkpt lat="46.0249980" lon="10.3753210">
	<ele>1030.80</ele>
	<time>2024-07-24T06:30:43.000Z</time>
</trkpt>
<trkpt lat="46.0249980" lon="10.3753210">
	<ele>1030.80</ele>
	<time>2024-07-24T06:30:44.000Z</time>
</trkpt>
<trkpt lat="46.0249980" lon="10.3753210">
	<ele>1031.00</ele>
	<time>2024-07-24T06:30:45.000Z</time>
</trkpt>
<trkpt lat="46.0249980" lon="10.3753210">
	<ele>1031.20</ele>
	<time>2024-07-24T06:30:46.000Z</time>
</trkpt>
<trkpt lat="46.0249980" lon="10.3753210">
	<ele>1031.40</ele>
	<time>2024-07-24T06:30:47.000Z</time>
</trkpt>
<trkpt lat="46.0249980" lon="10.3753230">
	<ele>1031.60</ele>
	<time>2024-07-24T06:30:48.000Z</time>
</trkpt>
<trkpt lat="46.0249980" lon="10.3753230">
	<ele>1031.80</ele>
	<time>2024-07-24T06:30:49.000Z</time>
</trkpt>
<trkpt lat="46.0249980" lon="10.3753270">
	<ele>1032.00</ele>
	<time>2024-07-24T06:30:50.000Z</time>
</trkpt>
<trkpt lat="46.0249980" lon="10.3753300">
	<ele>1032.00</ele>
	<time>2024-07-24T06:30:51.000Z</time>
</trkpt>
<trkpt lat="46.0249980" lon="10.3753310">
	<ele>1032.20</ele>
	<time>2024-07-24T06:30:52.000Z</time>
</trkpt>
<trkpt lat="46.0249980" lon="10.3753330">
	<ele>1032.40</ele>
	<time>2024-07-24T06:30:53.000Z</time>
</trkpt>
<trkpt lat="46.0249980" lon="10.3753360">
	<ele>1032.60</ele>
	<time>2024-07-24T06:30:54.000Z</time>
</trkpt>
<trkpt lat="46.0249980" lon="10.3753370">
	<ele>1032.80</ele>
	<time>2024-07-24T06:30:55.000Z</time>
</trkpt>
<trkpt lat="46.0249990" lon="10.3753410">
	<ele>1033.00</ele>
	<time>2024-07-24T06:30:56.000Z</time>
</trkpt>
<trkpt lat="46.0250020" lon="10.3753430">
	<ele>1033.00</ele>
	<time>2024-07-24T06:30:57.000Z</time>
</trkpt>
<trkpt lat="46.0250020" lon="10.3753520">
	<ele>1033.20</ele>
	<time>2024-07-24T06:30:58.000Z</time>
</trkpt>
<trkpt lat="46.0250090" lon="10.3753660">
	<ele>1033.60</ele>
	<time>2024-07-24T06:30:59.000Z</time>
</trkpt>
<trkpt lat="46.0250280" lon="10.3753910">
	<ele>1033.80</ele>
	<time>2024-07-24T06:31:00.000Z</time>
</trkpt>
<trkpt lat="46.0250470" lon="10.3754220">
	<ele>1033.80</ele>
	<time>2024-07-24T06:31:01.000Z</time>
</trkpt>
<trkpt lat="46.0250590" lon="10.3754380">
	<ele>1034.20</ele>
	<time>2024-07-24T06:31:02.000Z</time>
</trkpt>
<trkpt lat="46.0250700" lon="10.3754550">
	<ele>1034.40</ele>
	<time>2024-07-24T06:31:03.000Z</time>
</trkpt>
<trkpt lat="46.0250850" lon="10.3754700">
	<ele>1034.60</ele>
	<time>2024-07-24T06:31:04.000Z</time>
</trkpt>
<trkpt lat="46.0250990" lon="10.3754820">
	<ele>1034.80</ele>
	<time>2024-07-24T06:31:05.000Z</time>
</trkpt>
<trkpt lat="46.0251070" lon="10.3754890">
	<ele>1035.00</ele>
	<time>2024-07-24T06:31:06.000Z</time>
</trkpt>
<trkpt lat="46.0251180" lon="10.3755040">
	<ele>1035.20</ele>
	<time>2024-07-24T06:31:07.000Z</time>
</trkpt>
<trkpt lat="46.0251310" lon="10.3755250">
	<ele>1035.40</ele>
	<time>2024-07-24T06:31:08.000Z</time>
</trkpt>
<trkpt lat="46.0251310" lon="10.3755260">
	<ele>1035.60</ele>
	<time>2024-07-24T06:31:09.000Z</time>
</trkpt>
<trkpt lat="46.0251320" lon="10.3755220">
	<ele>1035.80</ele>
	<time>2024-07-24T06:31:10.000Z</time>
</trkpt>
<trkpt lat="46.0251370" lon="10.3755280">
	<ele>1036.00</ele>
	<time>2024-07-24T06:31:11.000Z</time>
</trkpt>
<trkpt lat="46.0251400" lon="10.3755310">
	<ele>1036.20</ele>
	<time>2024-07-24T06:31:12.000Z</time>
</trkpt>
<trkpt lat="46.0251430" lon="10.3755360">
	<ele>1036.40</ele>
	<time>2024-07-24T06:31:13.000Z</time>
</trkpt>
<trkpt lat="46.0251470" lon="10.3755390">
	<ele>1036.60</ele>
	<time>2024-07-24T06:31:14.000Z</time>
</trkpt>
<trkpt lat="46.0251490" lon="10.3755480">
	<ele>1036.80</ele>
	<time>2024-07-24T06:31:15.000Z</time>
</trkpt>
<trkpt lat="46.0251550" lon="10.3755560">
	<ele>1037.00</ele>
	<time>2024-07-24T06:31:16.000Z</time>
</trkpt>
<trkpt lat="46.0251580" lon="10.3755740">
	<ele>1037.00</ele>
	<time>2024-07-24T06:31:17.000Z</time>
</trkpt>
<trkpt lat="46.0251630" lon="10.3755860">
	<ele>1037.20</ele>
	<time>2024-07-24T06:31:18.000Z</time>
</trkpt>
<trkpt lat="46.0251660" lon="10.3755920">
	<ele>1037.40</ele>
	<time>2024-07-24T06:31:19.000Z</time>
</trkpt>
<trkpt lat="46.0251730" lon="10.3755990">
	<ele>1037.60</ele>
	<time>2024-07-24T06:31:20.000Z</time>
</trkpt>
<trkpt lat="46.0251750" lon="10.3756030">
	<ele>1037.60</ele>
	<time>2024-07-24T06:31:21.000Z</time>
</trkpt>
<trkpt lat="46.0251780" lon="10.3756100">
	<ele>1037.80</ele>
	<time>2024-07-24T06:31:22.000Z</time>
</trkpt>
<trkpt lat="46.0251880" lon="10.3756300">
	<ele>1037.80</ele>
	<time>2024-07-24T06:31:23.000Z</time>
</trkpt>
<trkpt lat="46.0251990" lon="10.3756530">
	<ele>1037.80</ele>
	<time>2024-07-24T06:31:24.000Z</time>
</trkpt>
<trkpt lat="46.0252050" lon="10.3756740">
	<ele>1038.00</ele>
	<time>2024-07-24T06:31:25.000Z</time>
</trkpt>
<trkpt lat="46.0252040" lon="10.3756900">
	<ele>1038.20</ele>
	<time>2024-07-24T06:31:26.000Z</time>
</trkpt>
<trkpt lat="46.0252020" lon="10.3757040">
	<ele>1038.20</ele>
	<time>2024-07-24T06:31:27.000Z</time>
</trkpt>
<trkpt lat="46.0252040" lon="10.3757140">
	<ele>1038.40</ele>
	<time>2024-07-24T06:31:28.000Z</time>
</trkpt>
<trkpt lat="46.0252070" lon="10.3757180">
	<ele>1038.60</ele>
	<time>2024-07-24T06:31:29.000Z</time>
</trkpt>
<trkpt lat="46.0252100" lon="10.3757270">
	<ele>1038.80</ele>
	<time>2024-07-24T06:31:30.000Z</time>
</trkpt>
<trkpt lat="46.0252140" lon="10.3757380">
	<ele>1038.80</ele>
	<time>2024-07-24T06:31:31.000Z</time>
</trkpt>
<trkpt lat="46.0252220" lon="10.3757510">
	<ele>1039.00</ele>
	<time>2024-07-24T06:31:32.000Z</time>
</trkpt>
<trkpt lat="46.0252320" lon="10.3757580">
	<ele>1039.20</ele>
	<time>2024-07-24T06:31:33.000Z</time>
</trkpt>
<trkpt lat="46.0252410" lon="10.3757650">
	<ele>1039.40</ele>
	<time>2024-07-24T06:31:34.000Z</time>
</trkpt>
<trkpt lat="46.0252430" lon="10.3757750">
	<ele>1039.60</ele>
	<time>2024-07-24T06:31:35.000Z</time>
</trkpt>
<trkpt lat="46.0252450" lon="10.3757880">
	<ele>1039.60</ele>
	<time>2024-07-24T06:31:36.000Z</time>
</trkpt>
<trkpt lat="46.0252490" lon="10.3758030">
	<ele>1039.80</ele>
	<time>2024-07-24T06:31:37.000Z</time>
</trkpt>
<trkpt lat="46.0252550" lon="10.3758270">
	<ele>1040.00</ele>
	<time>2024-07-24T06:31:38.000Z</time>
</trkpt>
<trkpt lat="46.0252610" lon="10.3758420">
	<ele>1040.00</ele>
	<time>2024-07-24T06:31:39.000Z</time>
</trkpt>
<trkpt lat="46.0252660" lon="10.3758590">
	<ele>1040.20</ele>
	<time>2024-07-24T06:31:40.000Z</time>
</trkpt>
<trkpt lat="46.0252670" lon="10.3758660">
	<ele>1040.40</ele>
	<time>2024-07-24T06:31:41.000Z</time>
</trkpt>
<trkpt lat="46.0252690" lon="10.3758760">
	<ele>1040.60</ele>
	<time>2024-07-24T06:31:42.000Z</time>
</trkpt>
<trkpt lat="46.0252760" lon="10.3758870">
	<ele>1040.80</ele>
	<time>2024-07-24T06:31:43.000Z</time>
</trkpt>
<trkpt lat="46.0252790" lon="10.3758910">
	<ele>1041.00</ele>
	<time>2024-07-24T06:31:44.000Z</time>
</trkpt>
<trkpt lat="46.0252860" lon="10.3759040">
	<ele>1041.20</ele>
	<time>2024-07-24T06:31:45.000Z</time>
</trkpt>
<trkpt lat="46.0252850" lon="10.3759090">
	<ele>1041.40</ele>
	<time>2024-07-24T06:31:46.000Z</time>
</trkpt>
<trkpt lat="46.0252850" lon="10.3759260">
	<ele>1041.40</ele>
	<time>2024-07-24T06:31:47.000Z</time>
</trkpt>
<trkpt lat="46.0252860" lon="10.3759420">
	<ele>1041.60</ele>
	<time>2024-07-24T06:31:48.000Z</time>
</trkpt>
<trkpt lat="46.0252890" lon="10.3759660">
	<ele>1041.80</ele>
	<time>2024-07-24T06:31:49.000Z</time>
</trkpt>
<trkpt lat="46.0252940" lon="10.3759950">
	<ele>1042.00</ele>
	<time>2024-07-24T06:31:50.000Z</time>
</trkpt>
<trkpt lat="46.0253070" lon="10.3760180">
	<ele>1042.00</ele>
	<time>2024-07-24T06:31:51.000Z</time>
</trkpt>
<trkpt lat="46.0253160" lon="10.3760370">
	<ele>1042.20</ele>
	<time>2024-07-24T06:31:52.000Z</time>
</trkpt>
<trkpt lat="46.0253160" lon="10.3760470">
	<ele>1042.40</ele>
	<time>2024-07-24T06:31:53.000Z</time>
</trkpt>
<trkpt lat="46.0253120" lon="10.3760590">
	<ele>1042.60</ele>
	<time>2024-07-24T06:31:54.000Z</time>
</trkpt>
<trkpt lat="46.0253120" lon="10.3760740">
	<ele>1042.80</ele>
	<time>2024-07-24T06:31:55.000Z</time>
</trkpt>
<trkpt lat="46.0253120" lon="10.3760820">
	<ele>1043.00</ele>
	<time>2024-07-24T06:31:56.000Z</time>
</trkpt>
<trkpt lat="46.0253180" lon="10.3760930">
	<ele>1043.20</ele>
	<time>2024-07-24T06:31:57.000Z</time>
</trkpt>
<trkpt lat="46.0253220" lon="10.3761040">
	<ele>1043.40</ele>
	<time>2024-07-24T06:31:58.000Z</time>
</trkpt>
<trkpt lat="46.0253200" lon="10.3761130">
	<ele>1043.60</ele>
	<time>2024-07-24T06:31:59.000Z</time>
</trkpt>
<trkpt lat="46.0253150" lon="10.3761180">
	<ele>1043.60</ele>
	<time>2024-07-24T06:32:00.000Z</time>
</trkpt>
<trkpt lat="46.0253040" lon="10.3761270">
	<ele>1043.80</ele>
	<time>2024-07-24T06:32:01.000Z</time>
</trkpt>
<trkpt lat="46.0253040" lon="10.3761370">
	<ele>1044.00</ele>
	<time>2024-07-24T06:32:02.000Z</time>
</trkpt>
<trkpt lat="46.0253060" lon="10.3761450">
	<ele>1044.40</ele>
	<time>2024-07-24T06:32:03.000Z</time>
</trkpt>
<trkpt lat="46.0253030" lon="10.3761550">
	<ele>1044.40</ele>
	<time>2024-07-24T06:32:04.000Z</time>
</trkpt>
<trkpt lat="46.0253000" lon="10.3761630">
	<ele>1044.60</ele>
	<time>2024-07-24T06:32:05.000Z</time>
</trkpt>
<trkpt lat="46.0252960" lon="10.3761760">
	<ele>1044.80</ele>
	<time>2024-07-24T06:32:06.000Z</time>
</trkpt>
<trkpt lat="46.0252910" lon="10.3761870">
	<ele>1044.80</ele>
	<time>2024-07-24T06:32:07.000Z</time>
</trkpt>
<trkpt lat="46.0252860" lon="10.3761910">
	<ele>1045.00</ele>
	<time>2024-07-24T06:32:08.000Z</time>
</trkpt>
<trkpt lat="46.0252820" lon="10.3761930">
	<ele>1045.40</ele>
	<time>2024-07-24T06:32:09.000Z</time>
</trkpt>
<trkpt lat="46.0252760" lon="10.3761950">
	<ele>1045.60</ele>
	<time>2024-07-24T06:32:10.000Z</time>
</trkpt>
<trkpt lat="46.0252700" lon="10.3761980">
	<ele>1045.80</ele>
	<time>2024-07-24T06:32:11.000Z</time>
</trkpt>
<trkpt lat="46.0252640" lon="10.3762070">
	<ele>1045.80</ele>
	<time>2024-07-24T06:32:12.000Z</time>
</trkpt>
<trkpt lat="46.0252610" lon="10.3762190">
	<ele>1046.00</ele>
	<time>2024-07-24T06:32:13.000Z</time>
</trkpt>
<trkpt lat="46.0252550" lon="10.3762270">
	<ele>1046.00</ele>
	<time>2024-07-24T06:32:14.000Z</time>
</trkpt>
<trkpt lat="46.0252430" lon="10.3762320">
	<ele>1046.20</ele>
	<time>2024-07-24T06:32:15.000Z</time>
</trkpt>
<trkpt lat="46.0252340" lon="10.3762400">
	<ele>1046.20</ele>
	<time>2024-07-24T06:32:16.000Z</time>
</trkpt>
<trkpt lat="46.0252280" lon="10.3762520">
	<ele>1046.20</ele>
	<time>2024-07-24T06:32:17.000Z</time>
</trkpt>
<trkpt lat="46.0252190" lon="10.3762650">
	<ele>1046.20</ele>
	<time>2024-07-24T06:32:18.000Z</time>
</trkpt>
<trkpt lat="46.0252060" lon="10.3762780">
	<ele>1046.40</ele>
	<time>2024-07-24T06:32:19.000Z</time>
</trkpt>
<trkpt lat="46.0251990" lon="10.3762930">
	<ele>1046.40</ele>
	<time>2024-07-24T06:32:20.000Z</time>
</trkpt>
<trkpt lat="46.0251880" lon="10.3763040">
	<ele>1046.40</ele>
	<time>2024-07-24T06:32:21.000Z</time>
</trkpt>
<trkpt lat="46.0251760" lon="10.3763120">
	<ele>1046.60</ele>
	<time>2024-07-24T06:32:22.000Z</time>
</trkpt>
<trkpt lat="46.0251720" lon="10.3763310">
	<ele>1046.80</ele>
	<time>2024-07-24T06:32:23.000Z</time>
</trkpt>
<trkpt lat="46.0251690" lon="10.3763510">
	<ele>1047.00</ele>
	<time>2024-07-24T06:32:24.000Z</time>
</trkpt>
<trkpt lat="46.0251630" lon="10.3763620">
	<ele>1047.20</ele>
	<time>2024-07-24T06:32:25.000Z</time>
</trkpt>
<trkpt lat="46.0251560" lon="10.3763660">
	<ele>1047.20</ele>
	<time>2024-07-24T06:32:26.000Z</time>
</trkpt>
<trkpt lat="46.0251510" lon="10.3763620">
	<ele>1047.40</ele>
	<time>2024-07-24T06:32:27.000Z</time>
</trkpt>
<trkpt lat="46.0251440" lon="10.3763560">
	<ele>1047.40</ele>
	<time>2024-07-24T06:32:28.000Z</time>
</trkpt>
<trkpt lat="46.0251340" lon="10.3763500">
	<ele>1047.40</ele>
	<time>2024-07-24T06:32:29.000Z</time>
</trkpt>
<trkpt lat="46.0251300" lon="10.3763540">
	<ele>1047.60</ele>
	<time>2024-07-24T06:32:30.000Z</time>
</trkpt>
<trkpt lat="46.0251290" lon="10.3763550">
	<ele>1047.60</ele>
	<time>2024-07-24T06:32:31.000Z</time>
</trkpt>
<trkpt lat="46.0251250" lon="10.3763590">
	<ele>1047.60</ele>
	<time>2024-07-24T06:32:32.000Z</time>
</trkpt>
<trkpt lat="46.0251200" lon="10.3763690">
	<ele>1047.80</ele>
	<time>2024-07-24T06:32:33.000Z</time>
</trkpt>
<trkpt lat="46.0251200" lon="10.3763810">
	<ele>1048.00</ele>
	<time>2024-07-24T06:32:34.000Z</time>
</trkpt>
<trkpt lat="46.0251230" lon="10.3763920">
	<ele>1048.20</ele>
	<time>2024-07-24T06:32:35.000Z</time>
</trkpt>
<trkpt lat="46.0251170" lon="10.3764020">
	<ele>1048.40</ele>
	<time>2024-07-24T06:32:36.000Z</time>
</trkpt>
<trkpt lat="46.0251090" lon="10.3764110">
	<ele>1048.60</ele>
	<time>2024-07-24T06:32:37.000Z</time>
</trkpt>
<trkpt lat="46.0251020" lon="10.3764180">
	<ele>1048.80</ele>
	<time>2024-07-24T06:32:38.000Z</time>
</trkpt>
<trkpt lat="46.0250960" lon="10.3764210">
	<ele>1049.00</ele>
	<time>2024-07-24T06:32:39.000Z</time>
</trkpt>
<trkpt lat="46.0250840" lon="10.3764210">
	<ele>1049.00</ele>
	<time>2024-07-24T06:32:40.000Z</time>
</trkpt>
<trkpt lat="46.0250690" lon="10.3764230">
	<ele>1049.20</ele>
	<time>2024-07-24T06:32:41.000Z</time>
</trkpt>
<trkpt lat="46.0250650" lon="10.3764310">
	<ele>1049.40</ele>
	<time>2024-07-24T06:32:42.000Z</time>
</trkpt>
<trkpt lat="46.0250670" lon="10.3764460">
	<ele>1049.40</ele>
	<time>2024-07-24T06:32:43.000Z</time>
</trkpt>
<trkpt lat="46.0250720" lon="10.3764590">
	<ele>1049.60</ele>
	<time>2024-07-24T06:32:44.000Z</time>
</trkpt>
<trkpt lat="46.0250710" lon="10.3764590">
	<ele>1049.80</ele>
	<time>2024-07-24T06:32:45.000Z</time>
</trkpt>
<trkpt lat="46.0250710" lon="10.3764620">
	<ele>1050.00</ele>
	<time>2024-07-24T06:32:46.000Z</time>
</trkpt>
<trkpt lat="46.0250670" lon="10.3764660">
	<ele>1050.20</ele>
	<time>2024-07-24T06:32:47.000Z</time>
</trkpt>
<trkpt lat="46.0250650" lon="10.3764710">
	<ele>1050.60</ele>
	<time>2024-07-24T06:32:48.000Z</time>
</trkpt>
<trkpt lat="46.0250620" lon="10.3764750">
	<ele>1050.80</ele>
	<time>2024-07-24T06:32:49.000Z</time>
</trkpt>
<trkpt lat="46.0250610" lon="10.3764890">
	<ele>1050.80</ele>
	<time>2024-07-24T06:32:50.000Z</time>
</trkpt>
<trkpt lat="46.0250580" lon="10.3765000">
	<ele>1051.00</ele>
	<time>2024-07-24T06:32:51.000Z</time>
</trkpt>
<trkpt lat="46.0250530" lon="10.3765120">
	<ele>1051.20</ele>
	<time>2024-07-24T06:32:52.000Z</time>
</trkpt>
<trkpt lat="46.0250450" lon="10.3765230">
	<ele>1051.40</ele>
	<time>2024-07-24T06:32:53.000Z</time>
</trkpt>
<trkpt lat="46.0250260" lon="10.3765320">
	<ele>1051.60</ele>
	<time>2024-07-24T06:32:54.000Z</time>
</trkpt>
<trkpt lat="46.0250180" lon="10.3765420">
	<ele>1051.80</ele>
	<time>2024-07-24T06:32:55.000Z</time>
</trkpt>
<trkpt lat="46.0250150" lon="10.3765480">
	<ele>1052.00</ele>
	<time>2024-07-24T06:32:56.000Z</time>
</trkpt>
<trkpt lat="46.0250150" lon="10.3765630">
	<ele>1052.20</ele>
	<time>2024-07-24T06:32:57.000Z</time>
</trkpt>
<trkpt lat="46.0250140" lon="10.3765790">
	<ele>1052.40</ele>
	<time>2024-07-24T06:32:58.000Z</time>
</trkpt>
<trkpt lat="46.0250160" lon="10.3765980">
	<ele>1052.60</ele>
	<time>2024-07-24T06:32:59.000Z</time>
</trkpt>
<trkpt lat="46.0250160" lon="10.3766190">
	<ele>1052.80</ele>
	<time>2024-07-24T06:33:00.000Z</time>
</trkpt>
<trkpt lat="46.0250160" lon="10.3766410">
	<ele>1053.00</ele>
	<time>2024-07-24T06:33:01.000Z</time>
</trkpt>
<trkpt lat="46.0250190" lon="10.3766600">
	<ele>1053.20</ele>
	<time>2024-07-24T06:33:02.000Z</time>
</trkpt>
<trkpt lat="46.0250230" lon="10.3766770">
	<ele>1053.40</ele>
	<time>2024-07-24T06:33:03.000Z</time>
</trkpt>
<trkpt lat="46.0250270" lon="10.3766950">
	<ele>1053.40</ele>
	<time>2024-07-24T06:33:04.000Z</time>
</trkpt>
<trkpt lat="46.0250320" lon="10.3767180">
	<ele>1053.60</ele>
	<time>2024-07-24T06:33:05.000Z</time>
</trkpt>
<trkpt lat="46.0250320" lon="10.3767370">
	<ele>1054.00</ele>
	<time>2024-07-24T06:33:06.000Z</time>
</trkpt>
<trkpt lat="46.0250290" lon="10.3767610">
	<ele>1054.00</ele>
	<time>2024-07-24T06:33:07.000Z</time>
</trkpt>
<trkpt lat="46.0250250" lon="10.3767840">
	<ele>1054.20</ele>
	<time>2024-07-24T06:33:08.000Z</time>
</trkpt>
<trkpt lat="46.0250270" lon="10.3768060">
	<ele>1054.20</ele>
	<time>2024-07-24T06:33:09.000Z</time>
</trkpt>
<trkpt lat="46.0250350" lon="10.3768280">
	<ele>1054.40</ele>
	<time>2024-07-24T06:33:10.000Z</time>
</trkpt>
<trkpt lat="46.0250380" lon="10.3768500">
	<ele>1054.40</ele>
	<time>2024-07-24T06:33:11.000Z</time>
</trkpt>
<trkpt lat="46.0250410" lon="10.3768690">
	<ele>1054.40</ele>
	<time>2024-07-24T06:33:12.000Z</time>
</trkpt>
<trkpt lat="46.0250470" lon="10.3768890">
	<ele>1054.60</ele>
	<time>2024-07-24T06:33:13.000Z</time>
</trkpt>
<trkpt lat="46.0250460" lon="10.3769090">
	<ele>1054.80</ele>
	<time>2024-07-24T06:33:14.000Z</time>
</trkpt>
<trkpt lat="46.0250490" lon="10.3769290">
	<ele>1054.80</ele>
	<time>2024-07-24T06:33:15.000Z</time>
</trkpt>
<trkpt lat="46.0250550" lon="10.3769490">
	<ele>1055.00</ele>
	<time>2024-07-24T06:33:16.000Z</time>
</trkpt>
<trkpt lat="46.0250590" lon="10.3769640">
	<ele>1055.00</ele>
	<time>2024-07-24T06:33:17.000Z</time>
</trkpt>
<trkpt lat="46.0250570" lon="10.3769730">
	<ele>1055.00</ele>
	<time>2024-07-24T06:33:18.000Z</time>
</trkpt>
<trkpt lat="46.0250580" lon="10.3769840">
	<ele>1055.20</ele>
	<time>2024-07-24T06:33:19.000Z</time>
</trkpt>
<trkpt lat="46.0250710" lon="10.3770020">
	<ele>1055.20</ele>
	<time>2024-07-24T06:33:20.000Z</time>
</trkpt>
<trkpt lat="46.0250780" lon="10.3770120">
	<ele>1055.40</ele>
	<time>2024-07-24T06:33:21.000Z</time>
</trkpt>
<trkpt lat="46.0250770" lon="10.3770220">
	<ele>1055.40</ele>
	<time>2024-07-24T06:33:22.000Z</time>
</trkpt>
<trkpt lat="46.0250760" lon="10.3770370">
	<ele>1055.60</ele>
	<time>2024-07-24T06:33:23.000Z</time>
</trkpt>
<trkpt lat="46.0250780" lon="10.3770520">
	<ele>1055.80</ele>
	<time>2024-07-24T06:33:24.000Z</time>
</trkpt>
<trkpt lat="46.0250730" lon="10.3770640">
	<ele>1055.80</ele>
	<time>2024-07-24T06:33:25.000Z</time>
</trkpt>
<trkpt lat="46.0250680" lon="10.3770770">
	<ele>1056.00</ele>
	<time>2024-07-24T06:33:26.000Z</time>
</trkpt>
<trkpt lat="46.0250670" lon="10.3770910">
	<ele>1056.00</ele>
	<time>2024-07-24T06:33:27.000Z</time>
</trkpt>
<trkpt lat="46.0250660" lon="10.3771030">
	<ele>1056.20</ele>
	<time>2024-07-24T06:33:28.000Z</time>
</trkpt>
<trkpt lat="46.0250660" lon="10.3771160">
	<ele>1056.20</ele>
	<time>2024-07-24T06:33:29.000Z</time>
</trkpt>
<trkpt lat="46.0250680" lon="10.3771250">
	<ele>1056.40</ele>
	<time>2024-07-24T06:33:30.000Z</time>
</trkpt>
<trkpt lat="46.0250690" lon="10.3771360">
	<ele>1056.40</ele>
	<time>2024-07-24T06:33:31.000Z</time>
</trkpt>
<trkpt lat="46.0250670" lon="10.3771540">
	<ele>1056.60</ele>
	<time>2024-07-24T06:33:32.000Z</time>
</trkpt>
<trkpt lat="46.0250650" lon="10.3771680">
	<ele>1056.60</ele>
	<time>2024-07-24T06:33:33.000Z</time>
</trkpt>
<trkpt lat="46.0250660" lon="10.3771780">
	<ele>1056.60</ele>
	<time>2024-07-24T06:33:34.000Z</time>
</trkpt>
<trkpt lat="46.0250640" lon="10.3771860">
	<ele>1056.60</ele>
	<time>2024-07-24T06:33:35.000Z</time>
</trkpt>
<trkpt lat="46.0250690" lon="10.3772060">
	<ele>1056.80</ele>
	<time>2024-07-24T06:33:36.000Z</time>
</trkpt>
<trkpt lat="46.0250750" lon="10.3772270">
	<ele>1056.80</ele>
	<time>2024-07-24T06:33:37.000Z</time>
</trkpt>
<trkpt lat="46.0250800" lon="10.3772490">
	<ele>1056.80</ele>
	<time>2024-07-24T06:33:38.000Z</time>
</trkpt>
<trkpt lat="46.0250830" lon="10.3772650">
	<ele>1056.80</ele>
	<time>2024-07-24T06:33:39.000Z</time>
</trkpt>
<trkpt lat="46.0250840" lon="10.3772840">
	<ele>1057.00</ele>
	<time>2024-07-24T06:33:40.000Z</time>
</trkpt>
<trkpt lat="46.0250800" lon="10.3773000">
	<ele>1057.00</ele>
	<time>2024-07-24T06:33:41.000Z</time>
</trkpt>
<trkpt lat="46.0250790" lon="10.3773160">
	<ele>1057.20</ele>
	<time>2024-07-24T06:33:42.000Z</time>
</trkpt>
<trkpt lat="46.0250820" lon="10.3773300">
	<ele>1057.20</ele>
	<time>2024-07-24T06:33:43.000Z</time>
</trkpt>
<trkpt lat="46.0250840" lon="10.3773480">
	<ele>1057.40</ele>
	<time>2024-07-24T06:33:44.000Z</time>
</trkpt>
<trkpt lat="46.0250820" lon="10.3773680">
	<ele>1057.40</ele>
	<time>2024-07-24T06:33:45.000Z</time>
</trkpt>
<trkpt lat="46.0250840" lon="10.3773890">
	<ele>1057.60</ele>
	<time>2024-07-24T06:33:46.000Z</time>
</trkpt>
<trkpt lat="46.0250860" lon="10.3774030">
	<ele>1057.80</ele>
	<time>2024-07-24T06:33:47.000Z</time>
</trkpt>
<trkpt lat="46.0250860" lon="10.3774170">
	<ele>1058.00</ele>
	<time>2024-07-24T06:33:48.000Z</time>
</trkpt>
<trkpt lat="46.0250830" lon="10.3774240">
	<ele>1058.20</ele>
	<time>2024-07-24T06:33:49.000Z</time>
</trkpt>
<trkpt lat="46.0250870" lon="10.3774400">
	<ele>1058.20</ele>
	<time>2024-07-24T06:33:50.000Z</time>
</trkpt>
<trkpt lat="46.0250910" lon="10.3774600">
	<ele>1058.20</ele>
	<time>2024-07-24T06:33:51.000Z</time>
</trkpt>
<trkpt lat="46.0250900" lon="10.3774740">
	<ele>1058.40</ele>
	<time>2024-07-24T06:33:52.000Z</time>
</trkpt>
<trkpt lat="46.0250850" lon="10.3774790">
	<ele>1058.80</ele>
	<time>2024-07-24T06:33:53.000Z</time>
</trkpt>
<trkpt lat="46.0250800" lon="10.3774870">
	<ele>1059.00</ele>
	<time>2024-07-24T06:33:54.000Z</time>
</trkpt>
<trkpt lat="46.0250740" lon="10.3774980">
	<ele>1059.00</ele>
	<time>2024-07-24T06:33:55.000Z</time>
</trkpt>
<trkpt lat="46.0250710" lon="10.3775090">
	<ele>1059.20</ele>
	<time>2024-07-24T06:33:56.000Z</time>
</trkpt>
<trkpt lat="46.0250680" lon="10.3775140">
	<ele>1059.20</ele>
	<time>2024-07-24T06:33:57.000Z</time>
</trkpt>
<trkpt lat="46.0250600" lon="10.3775230">
	<ele>1059.40</ele>
	<time>2024-07-24T06:33:58.000Z</time>
</trkpt>
<trkpt lat="46.0250580" lon="10.3775370">
	<ele>1059.60</ele>
	<time>2024-07-24T06:33:59.000Z</time>
</trkpt>
<trkpt lat="46.0250560" lon="10.3775610">
	<ele>1059.80</ele>
	<time>2024-07-24T06:34:00.000Z</time>
</trkpt>
<trkpt lat="46.0250500" lon="10.3775790">
	<ele>1059.80</ele>
	<time>2024-07-24T06:34:01.000Z</time>
</trkpt>
<trkpt lat="46.0250470" lon="10.3775930">
	<ele>1060.20</ele>
	<time>2024-07-24T06:34:02.000Z</time>
</trkpt>
<trkpt lat="46.0250450" lon="10.3776010">
	<ele>1060.20</ele>
	<time>2024-07-24T06:34:03.000Z</time>
</trkpt>
<trkpt lat="46.0250440" lon="10.3776030">
	<ele>1060.40</ele>
	<time>2024-07-24T06:34:04.000Z</time>
</trkpt>
<trkpt lat="46.0250450" lon="10.3776120">
	<ele>1060.60</ele>
	<time>2024-07-24T06:34:05.000Z</time>
</trkpt>
<trkpt lat="46.0250430" lon="10.3776170">
	<ele>1060.80</ele>
	<time>2024-07-24T06:34:06.000Z</time>
</trkpt>
<trkpt lat="46.0250430" lon="10.3776240">
	<ele>1060.80</ele>
	<time>2024-07-24T06:34:07.000Z</time>
</trkpt>
<trkpt lat="46.0250400" lon="10.3776340">
	<ele>1061.00</ele>
	<time>2024-07-24T06:34:08.000Z</time>
</trkpt>
<trkpt lat="46.0250370" lon="10.3776420">
	<ele>1061.00</ele>
	<time>2024-07-24T06:34:09.000Z</time>
</trkpt>
<trkpt lat="46.0250320" lon="10.3776510">
	<ele>1061.00</ele>
	<time>2024-07-24T06:34:10.000Z</time>
</trkpt>
<trkpt lat="46.0250360" lon="10.3776650">
	<ele>1061.20</ele>
	<time>2024-07-24T06:34:11.000Z</time>
</trkpt>
<trkpt lat="46.0250360" lon="10.3776780">
	<ele>1061.20</ele>
	<time>2024-07-24T06:34:12.000Z</time>
</trkpt>
<trkpt lat="46.0250350" lon="10.3776920">
	<ele>1061.20</ele>
	<time>2024-07-24T06:34:13.000Z</time>
</trkpt>
<trkpt lat="46.0250330" lon="10.3777040">
	<ele>1061.20</ele>
	<time>2024-07-24T06:34:14.000Z</time>
</trkpt>
<trkpt lat="46.0250260" lon="10.3777060">
	<ele>1061.60</ele>
	<time>2024-07-24T06:34:15.000Z</time>
</trkpt>
<trkpt lat="46.0250180" lon="10.3777050">
	<ele>1061.80</ele>
	<time>2024-07-24T06:34:16.000Z</time>
</trkpt>
<trkpt lat="46.0250130" lon="10.3777070">
	<ele>1062.00</ele>
	<time>2024-07-24T06:34:17.000Z</time>
</trkpt>
<trkpt lat="46.0250060" lon="10.3777070">
	<ele>1062.20</ele>
	<time>2024-07-24T06:34:18.000Z</time>
</trkpt>
<trkpt lat="46.0250040" lon="10.3777100">
	<ele>1062.20</ele>
	<time>2024-07-24T06:34:19.000Z</time>
</trkpt>
<trkpt lat="46.0250010" lon="10.3777070">
	<ele>1062.60</ele>
	<time>2024-07-24T06:34:20.000Z</time>
</trkpt>
<trkpt lat="46.0250030" lon="10.3777070">
	<ele>1062.60</ele>
	<time>2024-07-24T06:34:21.000Z</time>
</trkpt>
<trkpt lat="46.0250050" lon="10.3777070">
	<ele>1062.80</ele>
	<time>2024-07-24T06:34:22.000Z</time>
</trkpt>
<trkpt lat="46.0250070" lon="10.3777120">
	<ele>1062.80</ele>
	<time>2024-07-24T06:34:23.000Z</time>
</trkpt>
<trkpt lat="46.0250070" lon="10.3777160">
	<ele>1062.60</ele>
	<time>2024-07-24T06:34:24.000Z</time>
</trkpt>
<trkpt lat="46.0250020" lon="10.3777270">
	<ele>1062.40</ele>
	<time>2024-07-24T06:34:25.000Z</time>
</trkpt>
<trkpt lat="46.0249980" lon="10.3777370">
	<ele>1062.40</ele>
	<time>2024-07-24T06:34:26.000Z</time>
</trkpt>
<trkpt lat="46.0249960" lon="10.3777490">
	<ele>1062.40</ele>
	<time>2024-07-24T06:34:27.000Z</time>
</trkpt>
<trkpt lat="46.0249900" lon="10.3777560">
	<ele>1062.60</ele>
	<time>2024-07-24T06:34:28.000Z</time>
</trkpt>
<trkpt lat="46.0249800" lon="10.3777590">
	<ele>1062.60</ele>
	<time>2024-07-24T06:34:29.000Z</time>
</trkpt>
<trkpt lat="46.0249730" lon="10.3777690">
	<ele>1062.80</ele>
	<time>2024-07-24T06:34:30.000Z</time>
</trkpt>
<trkpt lat="46.0249650" lon="10.3777790">
	<ele>1062.80</ele>
	<time>2024-07-24T06:34:31.000Z</time>
</trkpt>
<trkpt lat="46.0249570" lon="10.3777900">
	<ele>1063.00</ele>
	<time>2024-07-24T06:34:32.000Z</time>
</trkpt>
<trkpt lat="46.0249500" lon="10.3777980">
	<ele>1063.20</ele>
	<time>2024-07-24T06:34:33.000Z</time>
</trkpt>
<trkpt lat="46.0249470" lon="10.3778050">
	<ele>1063.20</ele>
	<time>2024-07-24T06:34:34.000Z</time>
</trkpt>
<trkpt lat="46.0249440" lon="10.3778080">
	<ele>1063.40</ele>
	<time>2024-07-24T06:34:35.000Z</time>
</trkpt>
<trkpt lat="46.0249410" lon="10.3778180">
	<ele>1063.40</ele>
	<time>2024-07-24T06:34:36.000Z</time>
</trkpt>
<trkpt lat="46.0249390" lon="10.3778320">
	<ele>1063.60</ele>
	<time>2024-07-24T06:34:37.000Z</time>
</trkpt>
<trkpt lat="46.0249380" lon="10.3778470">
	<ele>1063.60</ele>
	<time>2024-07-24T06:34:38.000Z</time>
</trkpt>
<trkpt lat="46.0249400" lon="10.3778530">
	<ele>1063.80</ele>
	<time>2024-07-24T06:34:39.000Z</time>
</trkpt>
<trkpt lat="46.0249470" lon="10.3778650">
	<ele>1063.80</ele>
	<time>2024-07-24T06:34:40.000Z</time>
</trkpt>
<trkpt lat="46.0249510" lon="10.3778720">
	<ele>1064.00</ele>
	<time>2024-07-24T06:34:41.000Z</time>
</trkpt>
<trkpt lat="46.0249520" lon="10.3778740">
	<ele>1064.00</ele>
	<time>2024-07-24T06:34:42.000Z</time>
</trkpt>
<trkpt lat="46.0249540" lon="10.3778750">
	<ele>1064.00</ele>
	<time>2024-07-24T06:34:43.000Z</time>
</trkpt>
<trkpt lat="46.0249550" lon="10.3778750">
	<ele>1064.20</ele>
	<time>2024-07-24T06:34:44.000Z</time>
</trkpt>
<trkpt lat="46.0249530" lon="10.3778720">
	<ele>1064.20</ele>
	<time>2024-07-24T06:34:45.000Z</time>
</trkpt>
<trkpt lat="46.0249530" lon="10.3778700">
	<ele>1064.20</ele>
	<time>2024-07-24T06:34:46.000Z</time>
</trkpt>
<trkpt lat="46.0249530" lon="10.3778710">
	<ele>1064.20</ele>
	<time>2024-07-24T06:34:47.000Z</time>
</trkpt>
<trkpt lat="46.0249540" lon="10.3778830">
	<ele>1064.20</ele>
	<time>2024-07-24T06:34:48.000Z</time>
</trkpt>
<trkpt lat="46.0249540" lon="10.3778980">
	<ele>1064.40</ele>
	<time>2024-07-24T06:34:49.000Z</time>
</trkpt>
<trkpt lat="46.0249500" lon="10.3779100">
	<ele>1064.40</ele>
	<time>2024-07-24T06:34:50.000Z</time>
</trkpt>
<trkpt lat="46.0249440" lon="10.3779200">
	<ele>1064.40</ele>
	<time>2024-07-24T06:34:51.000Z</time>
</trkpt>
<trkpt lat="46.0249450" lon="10.3779380">
	<ele>1064.60</ele>
	<time>2024-07-24T06:34:52.000Z</time>
</trkpt>
<trkpt lat="46.0249430" lon="10.3779510">
	<ele>1064.60</ele>
	<time>2024-07-24T06:34:53.000Z</time>
</trkpt>
<trkpt lat="46.0249390" lon="10.3779640">
	<ele>1064.80</ele>
	<time>2024-07-24T06:34:54.000Z</time>
</trkpt>
<trkpt lat="46.0249350" lon="10.3779760">
	<ele>1065.00</ele>
	<time>2024-07-24T06:34:55.000Z</time>
</trkpt>
<trkpt lat="46.0249360" lon="10.3779830">
	<ele>1065.20</ele>
	<time>2024-07-24T06:34:56.000Z</time>
</trkpt>
<trkpt lat="46.0249380" lon="10.3779840">
	<ele>1065.20</ele>
	<time>2024-07-24T06:34:57.000Z</time>
</trkpt>
<trkpt lat="46.0249330" lon="10.3779710">
	<ele>1065.20</ele>
	<time>2024-07-24T06:34:58.000Z</time>
</trkpt>
<trkpt lat="46.0249350" lon="10.3779640">
	<ele>1065.40</ele>
	<time>2024-07-24T06:34:59.000Z</time>
</trkpt>
<trkpt lat="46.0249350" lon="10.3779570">
	<ele>1065.40</ele>
	<time>2024-07-24T06:35:00.000Z</time>
</trkpt>
<trkpt lat="46.0249370" lon="10.3779560">
	<ele>1065.40</ele>
	<time>2024-07-24T06:35:01.000Z</time>
</trkpt>
<trkpt lat="46.0249380" lon="10.3779560">
	<ele>1065.40</ele>
	<time>2024-07-24T06:35:02.000Z</time>
</trkpt>
<trkpt lat="46.0249380" lon="10.3779560">
	<ele>1065.40</ele>
	<time>2024-07-24T06:35:03.000Z</time>
</trkpt>
<trkpt lat="46.0249310" lon="10.3779580">
	<ele>1065.40</ele>
	<time>2024-07-24T06:35:04.000Z</time>
</trkpt>
<trkpt lat="46.0249250" lon="10.3779630">
	<ele>1065.40</ele>
	<time>2024-07-24T06:35:05.000Z</time>
</trkpt>
<trkpt lat="46.0249210" lon="10.3779690">
	<ele>1065.20</ele>
	<time>2024-07-24T06:35:06.000Z</time>
</trkpt>
<trkpt lat="46.0249230" lon="10.3779720">
	<ele>1065.20</ele>
	<time>2024-07-24T06:35:07.000Z</time>
</trkpt>
<trkpt lat="46.0249270" lon="10.3779780">
	<ele>1065.20</ele>
	<time>2024-07-24T06:35:08.000Z</time>
</trkpt>
<trkpt lat="46.0249360" lon="10.3779930">
	<ele>1065.20</ele>
	<time>2024-07-24T06:35:09.000Z</time>
</trkpt>
<trkpt lat="46.0249430" lon="10.3780110">
	<ele>1065.20</ele>
	<time>2024-07-24T06:35:10.000Z</time>
</trkpt>
<trkpt lat="46.0249490" lon="10.3780250">
	<ele>1065.20</ele>
	<time>2024-07-24T06:35:11.000Z</time>
</trkpt>
<trkpt lat="46.0249510" lon="10.3780330">
	<ele>1065.40</ele>
	<time>2024-07-24T06:35:12.000Z</time>
</trkpt>
<trkpt lat="46.0249540" lon="10.3780410">
	<ele>1065.40</ele>
	<time>2024-07-24T06:35:13.000Z</time>
</trkpt>
<trkpt lat="46.0249570" lon="10.3780460">
	<ele>1065.40</ele>
	<time>2024-07-24T06:35:14.000Z</time>
</trkpt>
<trkpt lat="46.0249610" lon="10.3780500">
	<ele>1065.60</ele>
	<time>2024-07-24T06:35:15.000Z</time>
</trkpt>
<trkpt lat="46.0249590" lon="10.3780540">
	<ele>1065.80</ele>
	<time>2024-07-24T06:35:16.000Z</time>
</trkpt>
<trkpt lat="46.0249610" lon="10.3780560">
	<ele>1065.80</ele>
	<time>2024-07-24T06:35:17.000Z</time>
</trkpt>
<trkpt lat="46.0249580" lon="10.3780440">
	<ele>1066.00</ele>
	<time>2024-07-24T06:35:18.000Z</time>
</trkpt>
<trkpt lat="46.0249520" lon="10.3780390">
	<ele>1066.00</ele>
	<time>2024-07-24T06:35:19.000Z</time>
</trkpt>
<trkpt lat="46.0249460" lon="10.3780320">
	<ele>1066.20</ele>
	<time>2024-07-24T06:35:20.000Z</time>
</trkpt>
<trkpt lat="46.0249530" lon="10.3780440">
	<ele>1066.20</ele>
	<time>2024-07-24T06:35:21.000Z</time>
</trkpt>
<trkpt lat="46.0249490" lon="10.3780600">
	<ele>1066.40</ele>
	<time>2024-07-24T06:35:22.000Z</time>
</trkpt>
<trkpt lat="46.0249480" lon="10.3780750">
	<ele>1066.60</ele>
	<time>2024-07-24T06:35:23.000Z</time>
</trkpt>
<trkpt lat="46.0249500" lon="10.3780930">
	<ele>1066.60</ele>
	<time>2024-07-24T06:35:24.000Z</time>
</trkpt>
<trkpt lat="46.0249510" lon="10.3781000">
	<ele>1066.80</ele>
	<time>2024-07-24T06:35:25.000Z</time>
</trkpt>
<trkpt lat="46.0249440" lon="10.3781000">
	<ele>1067.00</ele>
	<time>2024-07-24T06:35:26.000Z</time>
</trkpt>
<trkpt lat="46.0249440" lon="10.3781060">
	<ele>1067.20</ele>
	<time>2024-07-24T06:35:27.000Z</time>
</trkpt>
<trkpt lat="46.0249460" lon="10.3781200">
	<ele>1067.20</ele>
	<time>2024-07-24T06:35:28.000Z</time>
</trkpt>
<trkpt lat="46.0249490" lon="10.3781430">
	<ele>1067.40</ele>
	<time>2024-07-24T06:35:29.000Z</time>
</trkpt>
<trkpt lat="46.0249530" lon="10.3781720">
	<ele>1067.80</ele>
	<time>2024-07-24T06:35:30.000Z</time>
</trkpt>
<trkpt lat="46.0249590" lon="10.3781950">
	<ele>1068.00</ele>
	<time>2024-07-24T06:35:31.000Z</time>
</trkpt>
<trkpt lat="46.0249610" lon="10.3782020">
	<ele>1068.20</ele>
	<time>2024-07-24T06:35:32.000Z</time>
</trkpt>
<trkpt lat="46.0249610" lon="10.3781990">
	<ele>1068.40</ele>
	<time>2024-07-24T06:35:33.000Z</time>
</trkpt>
<trkpt lat="46.0249630" lon="10.3781990">
	<ele>1068.60</ele>
	<time>2024-07-24T06:35:34.000Z</time>
</trkpt>
<trkpt lat="46.0249680" lon="10.3782060">
	<ele>1068.80</ele>
	<time>2024-07-24T06:35:35.000Z</time>
</trkpt>
<trkpt lat="46.0249670" lon="10.3782140">
	<ele>1069.20</ele>
	<time>2024-07-24T06:35:36.000Z</time>
</trkpt>
<trkpt lat="46.0249680" lon="10.3782220">
	<ele>1069.40</ele>
	<time>2024-07-24T06:35:37.000Z</time>
</trkpt>
<trkpt lat="46.0249740" lon="10.3782340">
	<ele>1069.60</ele>
	<time>2024-07-24T06:35:38.000Z</time>
</trkpt>
<trkpt lat="46.0249830" lon="10.3782490">
	<ele>1069.60</ele>
	<time>2024-07-24T06:35:39.000Z</time>
</trkpt>
<trkpt lat="46.0249910" lon="10.3782580">
	<ele>1069.80</ele>
	<time>2024-07-24T06:35:40.000Z</time>
</trkpt>
<trkpt lat="46.0249940" lon="10.3782650">
	<ele>1070.00</ele>
	<time>2024-07-24T06:35:41.000Z</time>
</trkpt>
<trkpt lat="46.0249980" lon="10.3782730">
	<ele>1070.20</ele>
	<time>2024-07-24T06:35:42.000Z</time>
</trkpt>
<trkpt lat="46.0250050" lon="10.3782820">
	<ele>1070.20</ele>
	<time>2024-07-24T06:35:43.000Z</time>
</trkpt>
<trkpt lat="46.0250160" lon="10.3782890">
	<ele>1070.40</ele>
	<time>2024-07-24T06:35:44.000Z</time>
</trkpt>
<trkpt lat="46.0250250" lon="10.3782990">
	<ele>1070.60</ele>
	<time>2024-07-24T06:35:45.000Z</time>
</trkpt>
<trkpt lat="46.0250320" lon="10.3783060">
	<ele>1070.60</ele>
	<time>2024-07-24T06:35:46.000Z</time>
</trkpt>
<trkpt lat="46.0250370" lon="10.3783100">
	<ele>1070.80</ele>
	<time>2024-07-24T06:35:47.000Z</time>
</trkpt>
<trkpt lat="46.0250470" lon="10.3783170">
	<ele>1070.80</ele>
	<time>2024-07-24T06:35:48.000Z</time>
</trkpt>
<trkpt lat="46.0250520" lon="10.3783260">
	<ele>1071.20</ele>
	<time>2024-07-24T06:35:49.000Z</time>
</trkpt>
<trkpt lat="46.0250550" lon="10.3783290">
	<ele>1071.20</ele>
	<time>2024-07-24T06:35:50.000Z</time>
</trkpt>
<trkpt lat="46.0250620" lon="10.3783390">
	<ele>1071.40</ele>
	<time>2024-07-24T06:35:51.000Z</time>
</trkpt>
<trkpt lat="46.0250700" lon="10.3783530">
	<ele>1071.60</ele>
	<time>2024-07-24T06:35:52.000Z</time>
</trkpt>
<trkpt lat="46.0250730" lon="10.3783540">
	<ele>1071.80</ele>
	<time>2024-07-24T06:35:53.000Z</time>
</trkpt>
<trkpt lat="46.0250750" lon="10.3783540">
	<ele>1072.00</ele>
	<time>2024-07-24T06:35:54.000Z</time>
</trkpt>
<trkpt lat="46.0250750" lon="10.3783560">
	<ele>1072.20</ele>
	<time>2024-07-24T06:35:55.000Z</time>
</trkpt>
<trkpt lat="46.0250720" lon="10.3783550">
	<ele>1072.40</ele>
	<time>2024-07-24T06:35:56.000Z</time>
</trkpt>
<trkpt lat="46.0250820" lon="10.3783760">
	<ele>1072.40</ele>
	<time>2024-07-24T06:35:57.000Z</time>
</trkpt>
<trkpt lat="46.0250950" lon="10.3784100">
	<ele>1072.60</ele>
	<time>2024-07-24T06:35:58.000Z</time>
</trkpt>
<trkpt lat="46.0250990" lon="10.3784380">
	<ele>1072.80</ele>
	<time>2024-07-24T06:35:59.000Z</time>
</trkpt>
<trkpt lat="46.0251020" lon="10.3784430">
	<ele>1073.00</ele>
	<time>2024-07-24T06:36:00.000Z</time>
</trkpt>
<trkpt lat="46.0251090" lon="10.3784560">
	<ele>1073.20</ele>
	<time>2024-07-24T06:36:01.000Z</time>
</trkpt>
<trkpt lat="46.0251120" lon="10.3784640">
	<ele>1073.20</ele>
	<time>2024-07-24T06:36:02.000Z</time>
</trkpt>
<trkpt lat="46.0251180" lon="10.3784680">
	<ele>1073.40</ele>
	<time>2024-07-24T06:36:03.000Z</time>
</trkpt>
<trkpt lat="46.0251230" lon="10.3784740">
	<ele>1073.40</ele>
	<time>2024-07-24T06:36:04.000Z</time>
</trkpt>
<trkpt lat="46.0251270" lon="10.3784910">
	<ele>1073.60</ele>
	<time>2024-07-24T06:36:05.000Z</time>
</trkpt>
<trkpt lat="46.0251270" lon="10.3785010">
	<ele>1073.80</ele>
	<time>2024-07-24T06:36:06.000Z</time>
</trkpt>
<trkpt lat="46.0251360" lon="10.3785170">
	<ele>1073.80</ele>
	<time>2024-07-24T06:36:07.000Z</time>
</trkpt>
<trkpt lat="46.0251480" lon="10.3785320">
	<ele>1074.00</ele>
	<time>2024-07-24T06:36:08.000Z</time>
</trkpt>
<trkpt lat="46.0251570" lon="10.3785400">
	<ele>1074.00</ele>
	<time>2024-07-24T06:36:09.000Z</time>
</trkpt>
<trkpt lat="46.0251680" lon="10.3785590">
	<ele>1074.00</ele>
	<time>2024-07-24T06:36:10.000Z</time>
</trkpt>
<trkpt lat="46.0251750" lon="10.3785720">
	<ele>1074.20</ele>
	<time>2024-07-24T06:36:11.000Z</time>
</trkpt>
<trkpt lat="46.0251780" lon="10.3785760">
	<ele>1074.20</ele>
	<time>2024-07-24T06:36:12.000Z</time>
</trkpt>
<trkpt lat="46.0251820" lon="10.3785830">
	<ele>1074.40</ele>
	<time>2024-07-24T06:36:13.000Z</time>
</trkpt>
<trkpt lat="46.0251920" lon="10.3785980">
	<ele>1074.40</ele>
	<time>2024-07-24T06:36:14.000Z</time>
</trkpt>
<trkpt lat="46.0252000" lon="10.3786190">
	<ele>1074.40</ele>
	<time>2024-07-24T06:36:15.000Z</time>
</trkpt>
<trkpt lat="46.0252070" lon="10.3786370">
	<ele>1074.40</ele>
	<time>2024-07-24T06:36:16.000Z</time>
</trkpt>
<trkpt lat="46.0252140" lon="10.3786600">
	<ele>1074.60</ele>
	<time>2024-07-24T06:36:17.000Z</time>
</trkpt>
<trkpt lat="46.0252180" lon="10.3786760">
	<ele>1074.60</ele>
	<time>2024-07-24T06:36:18.000Z</time>
</trkpt>
<trkpt lat="46.0252240" lon="10.3786900">
	<ele>1074.60</ele>
	<time>2024-07-24T06:36:19.000Z</time>
</trkpt>
<trkpt lat="46.0252330" lon="10.3787020">
	<ele>1074.80</ele>
	<time>2024-07-24T06:36:20.000Z</time>
</trkpt>
<trkpt lat="46.0252380" lon="10.3787160">
	<ele>1074.80</ele>
	<time>2024-07-24T06:36:21.000Z</time>
</trkpt>
<trkpt lat="46.0252420" lon="10.3787360">
	<ele>1075.00</ele>
	<time>2024-07-24T06:36:22.000Z</time>
</trkpt>
<trkpt lat="46.0252440" lon="10.3787580">
	<ele>1075.00</ele>
	<time>2024-07-24T06:36:23.000Z</time>
</trkpt>
<trkpt lat="46.0252480" lon="10.3787810">
	<ele>1075.20</ele>
	<time>2024-07-24T06:36:24.000Z</time>
</trkpt>
<trkpt lat="46.0252510" lon="10.3788070">
	<ele>1075.20</ele>
	<time>2024-07-24T06:36:25.000Z</time>
</trkpt>
<trkpt lat="46.0252610" lon="10.3788360">
	<ele>1075.60</ele>
	<time>2024-07-24T06:36:26.000Z</time>
</trkpt>
<trkpt lat="46.0252750" lon="10.3788600">
	<ele>1075.60</ele>
	<time>2024-07-24T06:36:27.000Z</time>
</trkpt>
<trkpt lat="46.0252880" lon="10.3788940">
	<ele>1075.80</ele>
	<time>2024-07-24T06:36:28.000Z</time>
</trkpt>
<trkpt lat="46.0252950" lon="10.3789160">
	<ele>1076.00</ele>
	<time>2024-07-24T06:36:29.000Z</time>
</trkpt>
<trkpt lat="46.0252960" lon="10.3789350">
	<ele>1076.00</ele>
	<time>2024-07-24T06:36:30.000Z</time>
</trkpt>
<trkpt lat="46.0253020" lon="10.3789540">
	<ele>1076.20</ele>
	<time>2024-07-24T06:36:31.000Z</time>
</trkpt>
<trkpt lat="46.0253090" lon="10.3789690">
	<ele>1076.20</ele>
	<time>2024-07-24T06:36:32.000Z</time>
</trkpt>
<trkpt lat="46.0253110" lon="10.3789880">
	<ele>1076.40</ele>
	<time>2024-07-24T06:36:33.000Z</time>
</trkpt>
<trkpt lat="46.0253120" lon="10.3790000">
	<ele>1076.60</ele>
	<time>2024-07-24T06:36:34.000Z</time>
</trkpt>
<trkpt lat="46.0253160" lon="10.3790190">
	<ele>1076.80</ele>
	<time>2024-07-24T06:36:35.000Z</time>
</trkpt>
<trkpt lat="46.0253170" lon="10.3790390">
	<ele>1077.00</ele>
	<time>2024-07-24T06:36:36.000Z</time>
</trkpt>
<trkpt lat="46.0253180" lon="10.3790580">
	<ele>1077.00</ele>
	<time>2024-07-24T06:36:37.000Z</time>
</trkpt>
<trkpt lat="46.0253220" lon="10.3790690">
	<ele>1077.20</ele>
	<time>2024-07-24T06:36:38.000Z</time>
</trkpt>
<trkpt lat="46.0253210" lon="10.3790820">
	<ele>1077.40</ele>
	<time>2024-07-24T06:36:39.000Z</time>
</trkpt>
<trkpt lat="46.0253260" lon="10.3790960">
	<ele>1077.40</ele>
	<time>2024-07-24T06:36:40.000Z</time>
</trkpt>
<trkpt lat="46.0253280" lon="10.3791060">
	<ele>1077.60</ele>
	<time>2024-07-24T06:36:41.000Z</time>
</trkpt>
<trkpt lat="46.0253340" lon="10.3791180">
	<ele>1077.80</ele>
	<time>2024-07-24T06:36:42.000Z</time>
</trkpt>
<trkpt lat="46.0253450" lon="10.3791420">
	<ele>1078.00</ele>
	<time>2024-07-24T06:36:43.000Z</time>
</trkpt>
<trkpt lat="46.0253450" lon="10.3791630">
	<ele>1078.00</ele>
	<time>2024-07-24T06:36:44.000Z</time>
</trkpt>
<trkpt lat="46.0253470" lon="10.3791770">
	<ele>1078.20</ele>
	<time>2024-07-24T06:36:45.000Z</time>
</trkpt>
<trkpt lat="46.0253500" lon="10.3791910">
	<ele>1078.40</ele>
	<time>2024-07-24T06:36:46.000Z</time>
</trkpt>
<trkpt lat="46.0253490" lon="10.3792040">
	<ele>1078.60</ele>
	<time>2024-07-24T06:36:47.000Z</time>
</trkpt>
<trkpt lat="46.0253470" lon="10.3792160">
	<ele>1078.80</ele>
	<time>2024-07-24T06:36:48.000Z</time>
</trkpt>
<trkpt lat="46.0253490" lon="10.3792330">
	<ele>1078.80</ele>
	<time>2024-07-24T06:36:49.000Z</time>
</trkpt>
<trkpt lat="46.0253550" lon="10.3792480">
	<ele>1079.00</ele>
	<time>2024-07-24T06:36:50.000Z</time>
</trkpt>
<trkpt lat="46.0253530" lon="10.3792660">
	<ele>1079.20</ele>
	<time>2024-07-24T06:36:51.000Z</time>
</trkpt>
<trkpt lat="46.0253530" lon="10.3792790">
	<ele>1079.40</ele>
	<time>2024-07-24T06:36:52.000Z</time>
</trkpt>
<trkpt lat="46.0253550" lon="10.3792960">
	<ele>1079.60</ele>
	<time>2024-07-24T06:36:53.000Z</time>
</trkpt>
<trkpt lat="46.0253560" lon="10.3793100">
	<ele>1079.80</ele>
	<time>2024-07-24T06:36:54.000Z</time>
</trkpt>
<trkpt lat="46.0253570" lon="10.3793190">
	<ele>1080.00</ele>
	<time>2024-07-24T06:36:55.000Z</time>
</trkpt>
<trkpt lat="46.0253590" lon="10.3793340">
	<ele>1080.20</ele>
	<time>2024-07-24T06:36:56.000Z</time>
</trkpt>
<trkpt lat="46.0253610" lon="10.3793510">
	<ele>1080.40</ele>
	<time>2024-07-24T06:36:57.000Z</time>
</trkpt>
<trkpt lat="46.0253650" lon="10.3793660">
	<ele>1080.40</ele>
	<time>2024-07-24T06:36:58.000Z</time>
</trkpt>
<trkpt lat="46.0253660" lon="10.3793790">
	<ele>1080.60</ele>
	<time>2024-07-24T06:36:59.000Z</time>
</trkpt>
<trkpt lat="46.0253650" lon="10.3793930">
	<ele>1080.80</ele>
	<time>2024-07-24T06:37:00.000Z</time>
</trkpt>
<trkpt lat="46.0253620" lon="10.3794050">
	<ele>1081.00</ele>
	<time>2024-07-24T06:37:01.000Z</time>
</trkpt>
<trkpt lat="46.0253620" lon="10.3794160">
	<ele>1081.20</ele>
	<time>2024-07-24T06:37:02.000Z</time>
</trkpt>
<trkpt lat="46.0253640" lon="10.3794290">
	<ele>1081.40</ele>
	<time>2024-07-24T06:37:03.000Z</time>
</trkpt>
<trkpt lat="46.0253660" lon="10.3794500">
	<ele>1081.60</ele>
	<time>2024-07-24T06:37:04.000Z</time>
</trkpt>
<trkpt lat="46.0253710" lon="10.3794640">
	<ele>1081.80</ele>
	<time>2024-07-24T06:37:05.000Z</time>
</trkpt>
<trkpt lat="46.0253730" lon="10.3794820">
	<ele>1082.00</ele>
	<time>2024-07-24T06:37:06.000Z</time>
</trkpt>
<trkpt lat="46.0253760" lon="10.3795010">
	<ele>1082.20</ele>
	<time>2024-07-24T06:37:07.000Z</time>
</trkpt>
<trkpt lat="46.0253770" lon="10.3795190">
	<ele>1082.40</ele>
	<time>2024-07-24T06:37:08.000Z</time>
</trkpt>
<trkpt lat="46.0253740" lon="10.3795330">
	<ele>1082.60</ele>
	<time>2024-07-24T06:37:09.000Z</time>
</trkpt>
<trkpt lat="46.0253700" lon="10.3795490">
	<ele>1082.80</ele>
	<time>2024-07-24T06:37:10.000Z</time>
</trkpt>
<trkpt lat="46.0253670" lon="10.3795640">
	<ele>1082.80</ele>
	<time>2024-07-24T06:37:11.000Z</time>
</trkpt>
<trkpt lat="46.0253630" lon="10.3795770">
	<ele>1083.00</ele>
	<time>2024-07-24T06:37:12.000Z</time>
</trkpt>
<trkpt lat="46.0253650" lon="10.3795890">
	<ele>1083.40</ele>
	<time>2024-07-24T06:37:13.000Z</time>
</trkpt>
<trkpt lat="46.0253690" lon="10.3796020">
	<ele>1083.60</ele>
	<time>2024-07-24T06:37:14.000Z</time>
</trkpt>
<trkpt lat="46.0253680" lon="10.3796170">
	<ele>1083.80</ele>
	<time>2024-07-24T06:37:15.000Z</time>
</trkpt>
<trkpt lat="46.0253690" lon="10.3796350">
	<ele>1083.80</ele>
	<time>2024-07-24T06:37:16.000Z</time>
</trkpt>
<trkpt lat="46.0253700" lon="10.3796500">
	<ele>1084.00</ele>
	<time>2024-07-24T06:37:17.000Z</time>
</trkpt>
<trkpt lat="46.0253670" lon="10.3796640">
	<ele>1084.20</ele>
	<time>2024-07-24T06:37:18.000Z</time>
</trkpt>
<trkpt lat="46.0253700" lon="10.3796750">
	<ele>1084.20</ele>
	<time>2024-07-24T06:37:19.000Z</time>
</trkpt>
<trkpt lat="46.0253720" lon="10.3796870">
	<ele>1084.40</ele>
	<time>2024-07-24T06:37:20.000Z</time>
</trkpt>
<trkpt lat="46.0253760" lon="10.3797040">
	<ele>1084.60</ele>
	<time>2024-07-24T06:37:21.000Z</time>
</trkpt>
<trkpt lat="46.0253740" lon="10.3797140">
	<ele>1085.00</ele>
	<time>2024-07-24T06:37:22.000Z</time>
</trkpt>
<trkpt lat="46.0253710" lon="10.3797310">
	<ele>1085.00</ele>
	<time>2024-07-24T06:37:23.000Z</time>
</trkpt>
<trkpt lat="46.0253660" lon="10.3797490">
	<ele>1085.20</ele>
	<time>2024-07-24T06:37:24.000Z</time>
</trkpt>
<trkpt lat="46.0253600" lon="10.3797590">
	<ele>1085.40</ele>
	<time>2024-07-24T06:37:25.000Z</time>
</trkpt>
<trkpt lat="46.0253540" lon="10.3797730">
	<ele>1085.60</ele>
	<time>2024-07-24T06:37:26.000Z</time>
</trkpt>
<trkpt lat="46.0253560" lon="10.3797890">
	<ele>1085.80</ele>
	<time>2024-07-24T06:37:27.000Z</time>
</trkpt>
<trkpt lat="46.0253570" lon="10.3798040">
	<ele>1086.00</ele>
	<time>2024-07-24T06:37:28.000Z</time>
</trkpt>
<trkpt lat="46.0253520" lon="10.3798120">
	<ele>1086.20</ele>
	<time>2024-07-24T06:37:29.000Z</time>
</trkpt>
<trkpt lat="46.0253470" lon="10.3798230">
	<ele>1086.40</ele>
	<time>2024-07-24T06:37:30.000Z</time>
</trkpt>
<trkpt lat="46.0253500" lon="10.3798340">
	<ele>1086.60</ele>
	<time>2024-07-24T06:37:31.000Z</time>
</trkpt>
<trkpt lat="46.0253480" lon="10.3798510">
	<ele>1086.80</ele>
	<time>2024-07-24T06:37:32.000Z</time>
</trkpt>
<trkpt lat="46.0253510" lon="10.3798610">
	<ele>1087.00</ele>
	<time>2024-07-24T06:37:33.000Z</time>
</trkpt>
<trkpt lat="46.0253560" lon="10.3798700">
	<ele>1087.40</ele>
	<time>2024-07-24T06:37:34.000Z</time>
</trkpt>
<trkpt lat="46.0253580" lon="10.3798800">
	<ele>1087.60</ele>
	<time>2024-07-24T06:37:35.000Z</time>
</trkpt>
<trkpt lat="46.0253670" lon="10.3798890">
	<ele>1087.80</ele>
	<time>2024-07-24T06:37:36.000Z</time>
</trkpt>
<trkpt lat="46.0253750" lon="10.3798950">
	<ele>1088.00</ele>
	<time>2024-07-24T06:37:37.000Z</time>
</trkpt>
<trkpt lat="46.0253780" lon="10.3799060">
	<ele>1088.20</ele>
	<time>2024-07-24T06:37:38.000Z</time>
</trkpt>
<trkpt lat="46.0253810" lon="10.3799180">
	<ele>1088.40</ele>
	<time>2024-07-24T06:37:39.000Z</time>
</trkpt>
<trkpt lat="46.0253830" lon="10.3799300">
	<ele>1088.60</ele>
	<time>2024-07-24T06:37:40.000Z</time>
</trkpt>
<trkpt lat="46.0253880" lon="10.3799430">
	<ele>1088.80</ele>
	<time>2024-07-24T06:37:41.000Z</time>
</trkpt>
<trkpt lat="46.0253980" lon="10.3799580">
	<ele>1089.00</ele>
	<time>2024-07-24T06:37:42.000Z</time>
</trkpt>
<trkpt lat="46.0253960" lon="10.3799770">
	<ele>1089.20</ele>
	<time>2024-07-24T06:37:43.000Z</time>
</trkpt>
<trkpt lat="46.0254000" lon="10.3799920">
	<ele>1089.40</ele>
	<time>2024-07-24T06:37:44.000Z</time>
</trkpt>
<trkpt lat="46.0254040" lon="10.3800060">
	<ele>1089.60</ele>
	<time>2024-07-24T06:37:45.000Z</time>
</trkpt>
<trkpt lat="46.0254090" lon="10.3800230">
	<ele>1089.60</ele>
	<time>2024-07-24T06:37:46.000Z</time>
</trkpt>
<trkpt lat="46.0254180" lon="10.3800370">
	<ele>1089.80</ele>
	<time>2024-07-24T06:37:47.000Z</time>
</trkpt>
<trkpt lat="46.0254180" lon="10.3800530">
	<ele>1090.00</ele>
	<time>2024-07-24T06:37:48.000Z</time>
</trkpt>
<trkpt lat="46.0254140" lon="10.3800670">
	<ele>1090.00</ele>
	<time>2024-07-24T06:37:49.000Z</time>
</trkpt>
<trkpt lat="46.0254060" lon="10.3800810">
	<ele>1090.20</ele>
	<time>2024-07-24T06:37:50.000Z</time>
</trkpt>
<trkpt lat="46.0254070" lon="10.3800940">
	<ele>1090.40</ele>
	<time>2024-07-24T06:37:51.000Z</time>
</trkpt>
<trkpt lat="46.0254100" lon="10.3801090">
	<ele>1090.80</ele>
	<time>2024-07-24T06:37:52.000Z</time>
</trkpt>
<trkpt lat="46.0254110" lon="10.3801280">
	<ele>1090.80</ele>
	<time>2024-07-24T06:37:53.000Z</time>
</trkpt>
<trkpt lat="46.0254120" lon="10.3801430">
	<ele>1091.00</ele>
	<time>2024-07-24T06:37:54.000Z</time>
</trkpt>
<trkpt lat="46.0254130" lon="10.3801640">
	<ele>1091.20</ele>
	<time>2024-07-24T06:37:55.000Z</time>
</trkpt>
<trkpt lat="46.0254070" lon="10.3801850">
	<ele>1091.20</ele>
	<time>2024-07-24T06:37:56.000Z</time>
</trkpt>
<trkpt lat="46.0253990" lon="10.3802000">
	<ele>1091.20</ele>
	<time>2024-07-24T06:37:57.000Z</time>
</trkpt>
<trkpt lat="46.0253940" lon="10.3802130">
	<ele>1091.40</ele>
	<time>2024-07-24T06:37:58.000Z</time>
</trkpt>
<trkpt lat="46.0253910" lon="10.3802260">
	<ele>1091.40</ele>
	<time>2024-07-24T06:37:59.000Z</time>
</trkpt>
<trkpt lat="46.0253850" lon="10.3802390">
	<ele>1091.60</ele>
	<time>2024-07-24T06:38:00.000Z</time>
</trkpt>
<trkpt lat="46.0253830" lon="10.3802530">
	<ele>1091.80</ele>
	<time>2024-07-24T06:38:01.000Z</time>
</trkpt>
<trkpt lat="46.0253780" lon="10.3802690">
	<ele>1092.00</ele>
	<time>2024-07-24T06:38:02.000Z</time>
</trkpt>
<trkpt lat="46.0253730" lon="10.3802820">
	<ele>1092.20</ele>
	<time>2024-07-24T06:38:03.000Z</time>
</trkpt>
<trkpt lat="46.0253720" lon="10.3802920">
	<ele>1092.20</ele>
	<time>2024-07-24T06:38:04.000Z</time>
</trkpt>
<trkpt lat="46.0253710" lon="10.3803000">
	<ele>1092.60</ele>
	<time>2024-07-24T06:38:05.000Z</time>
</trkpt>
<trkpt lat="46.0253680" lon="10.3803010">
	<ele>1092.80</ele>
	<time>2024-07-24T06:38:06.000Z</time>
</trkpt>
<trkpt lat="46.0253670" lon="10.3803010">
	<ele>1092.80</ele>
	<time>2024-07-24T06:38:07.000Z</time>
</trkpt>
<trkpt lat="46.0253670" lon="10.3802990">
	<ele>1093.00</ele>
	<time>2024-07-24T06:38:08.000Z</time>
</trkpt>
<trkpt lat="46.0253670" lon="10.3802990">
	<ele>1093.00</ele>
	<time>2024-07-24T06:38:09.000Z</time>
</trkpt>
<trkpt lat="46.0253660" lon="10.3803000">
	<ele>1093.00</ele>
	<time>2024-07-24T06:38:10.000Z</time>
</trkpt>
<trkpt lat="46.0253630" lon="10.3803010">
	<ele>1093.00</ele>
	<time>2024-07-24T06:38:11.000Z</time>
</trkpt>
<trkpt lat="46.0253610" lon="10.3803070">
	<ele>1093.00</ele>
	<time>2024-07-24T06:38:12.000Z</time>
</trkpt>
<trkpt lat="46.0253570" lon="10.3803170">
	<ele>1092.80</ele>
	<time>2024-07-24T06:38:13.000Z</time>
</trkpt>
<trkpt lat="46.0253560" lon="10.3803260">
	<ele>1092.80</ele>
	<time>2024-07-24T06:38:14.000Z</time>
</trkpt>
<trkpt lat="46.0253540" lon="10.3803360">
	<ele>1092.80</ele>
	<time>2024-07-24T06:38:15.000Z</time>
</trkpt>
<trkpt lat="46.0253530" lon="10.3803490">
	<ele>1092.80</ele>
	<time>2024-07-24T06:38:16.000Z</time>
</trkpt>
<trkpt lat="46.0253500" lon="10.3803650">
	<ele>1093.20</ele>
	<time>2024-07-24T06:38:17.000Z</time>
</trkpt>
<trkpt lat="46.0253470" lon="10.3803800">
	<ele>1093.40</ele>
	<time>2024-07-24T06:38:18.000Z</time>
</trkpt>
<trkpt lat="46.0253390" lon="10.3803870">
	<ele>1093.60</ele>
	<time>2024-07-24T06:38:19.000Z</time>
</trkpt>
<trkpt lat="46.0253350" lon="10.3803980">
	<ele>1093.80</ele>
	<time>2024-07-24T06:38:20.000Z</time>
</trkpt>
<trkpt lat="46.0253310" lon="10.3804060">
	<ele>1094.00</ele>
	<time>2024-07-24T06:38:21.000Z</time>
</trkpt>
<trkpt lat="46.0253260" lon="10.3804140">
	<ele>1094.20</ele>
	<time>2024-07-24T06:38:22.000Z</time>
</trkpt>
<trkpt lat="46.0253170" lon="10.3804250">
	<ele>1094.40</ele>
	<time>2024-07-24T06:38:23.000Z</time>
</trkpt>
<trkpt lat="46.0253090" lon="10.3804340">
	<ele>1094.40</ele>
	<time>2024-07-24T06:38:24.000Z</time>
</trkpt>
<trkpt lat="46.0252980" lon="10.3804410">
	<ele>1094.60</ele>
	<time>2024-07-24T06:38:25.000Z</time>
</trkpt>
<trkpt lat="46.0252870" lon="10.3804490">
	<ele>1094.80</ele>
	<time>2024-07-24T06:38:26.000Z</time>
</trkpt>
<trkpt lat="46.0252780" lon="10.3804570">
	<ele>1094.80</ele>
	<time>2024-07-24T06:38:27.000Z</time>
</trkpt>
<trkpt lat="46.0252720" lon="10.3804680">
	<ele>1095.00</ele>
	<time>2024-07-24T06:38:28.000Z</time>
</trkpt>
<trkpt lat="46.0252630" lon="10.3804810">
	<ele>1095.20</ele>
	<time>2024-07-24T06:38:29.000Z</time>
</trkpt>
<trkpt lat="46.0252530" lon="10.3804950">
	<ele>1095.20</ele>
	<time>2024-07-24T06:38:30.000Z</time>
</trkpt>
<trkpt lat="46.0252450" lon="10.3805080">
	<ele>1095.40</ele>
	<time>2024-07-24T06:38:31.000Z</time>
</trkpt>
<trkpt lat="46.0252370" lon="10.3805200">
	<ele>1095.40</ele>
	<time>2024-07-24T06:38:32.000Z</time>
</trkpt>
<trkpt lat="46.0252300" lon="10.3805310">
	<ele>1095.40</ele>
	<time>2024-07-24T06:38:33.000Z</time>
</trkpt>
<trkpt lat="46.0252250" lon="10.3805440">
	<ele>1095.40</ele>
	<time>2024-07-24T06:38:34.000Z</time>
</trkpt>
<trkpt lat="46.0252170" lon="10.3805540">
	<ele>1095.60</ele>
	<time>2024-07-24T06:38:35.000Z</time>
</trkpt>
<trkpt lat="46.0252060" lon="10.3805630">
	<ele>1095.60</ele>
	<time>2024-07-24T06:38:36.000Z</time>
</trkpt>
<trkpt lat="46.0251940" lon="10.3805720">
	<ele>1095.60</ele>
	<time>2024-07-24T06:38:37.000Z</time>
</trkpt>
<trkpt lat="46.0251830" lon="10.3805790">
	<ele>1095.60</ele>
	<time>2024-07-24T06:38:38.000Z</time>
</trkpt>
<trkpt lat="46.0251720" lon="10.3805880">
	<ele>1095.60</ele>
	<time>2024-07-24T06:38:39.000Z</time>
</trkpt>
<trkpt lat="46.0251640" lon="10.3805980">
	<ele>1095.80</ele>
	<time>2024-07-24T06:38:40.000Z</time>
</trkpt>
<trkpt lat="46.0251550" lon="10.3806080">
	<ele>1095.80</ele>
	<time>2024-07-24T06:38:41.000Z</time>
</trkpt>
<trkpt lat="46.0251450" lon="10.3806210">
	<ele>1095.80</ele>
	<time>2024-07-24T06:38:42.000Z</time>
</trkpt>
<trkpt lat="46.0251330" lon="10.3806360">
	<ele>1096.00</ele>
	<time>2024-07-24T06:38:43.000Z</time>
</trkpt>
<trkpt lat="46.0251230" lon="10.3806420">
	<ele>1096.00</ele>
	<time>2024-07-24T06:38:44.000Z</time>
</trkpt>
<trkpt lat="46.0251160" lon="10.3806450">
	<ele>1096.20</ele>
	<time>2024-07-24T06:38:45.000Z</time>
</trkpt>
<trkpt lat="46.0251030" lon="10.3806500">
	<ele>1096.20</ele>
	<time>2024-07-24T06:38:46.000Z</time>
</trkpt>
<trkpt lat="46.0250920" lon="10.3806580">
	<ele>1096.40</ele>
	<time>2024-07-24T06:38:47.000Z</time>
</trkpt>
<trkpt lat="46.0250840" lon="10.3806660">
	<ele>1096.40</ele>
	<time>2024-07-24T06:38:48.000Z</time>
</trkpt>
<trkpt lat="46.0250790" lon="10.3806720">
	<ele>1096.40</ele>
	<time>2024-07-24T06:38:49.000Z</time>
</trkpt>
<trkpt lat="46.0250740" lon="10.3806810">
	<ele>1096.40</ele>
	<time>2024-07-24T06:38:50.000Z</time>
</trkpt>
<trkpt lat="46.0250690" lon="10.3806860">
	<ele>1096.60</ele>
	<time>2024-07-24T06:38:51.000Z</time>
</trkpt>
<trkpt lat="46.0250650" lon="10.3806950">
	<ele>1096.60</ele>
	<time>2024-07-24T06:38:52.000Z</time>
</trkpt>
<trkpt lat="46.0250590" lon="10.3807100">
	<ele>1096.80</ele>
	<time>2024-07-24T06:38:53.000Z</time>
</trkpt>
<trkpt lat="46.0250560" lon="10.3807270">
	<ele>1096.80</ele>
	<time>2024-07-24T06:38:54.000Z</time>
</trkpt>
<trkpt lat="46.0250520" lon="10.3807380">
	<ele>1097.00</ele>
	<time>2024-07-24T06:38:55.000Z</time>
</trkpt>
<trkpt lat="46.0250460" lon="10.3807460">
	<ele>1097.40</ele>
	<time>2024-07-24T06:38:56.000Z</time>
</trkpt>
<trkpt lat="46.0250400" lon="10.3807530">
	<ele>1097.40</ele>
	<time>2024-07-24T06:38:57.000Z</time>
</trkpt>
<trkpt lat="46.0250320" lon="10.3807650">
	<ele>1097.60</ele>
	<time>2024-07-24T06:38:58.000Z</time>
</trkpt>
<trkpt lat="46.0250260" lon="10.3807790">
	<ele>1097.80</ele>
	<time>2024-07-24T06:38:59.000Z</time>
</trkpt>
<trkpt lat="46.0250220" lon="10.3807910">
	<ele>1097.80</ele>
	<time>2024-07-24T06:39:00.000Z</time>
</trkpt>
<trkpt lat="46.0250200" lon="10.3808040">
	<ele>1098.00</ele>
	<time>2024-07-24T06:39:01.000Z</time>
</trkpt>
<trkpt lat="46.0250210" lon="10.3808150">
	<ele>1098.00</ele>
	<time>2024-07-24T06:39:02.000Z</time>
</trkpt>
<trkpt lat="46.0250170" lon="10.3808280">
	<ele>1098.20</ele>
	<time>2024-07-24T06:39:03.000Z</time>
</trkpt>
<trkpt lat="46.0250140" lon="10.3808380">
	<ele>1098.20</ele>
	<time>2024-07-24T06:39:04.000Z</time>
</trkpt>
<trkpt lat="46.0250040" lon="10.3808520">
	<ele>1098.40</ele>
	<time>2024-07-24T06:39:05.000Z</time>
</trkpt>
<trkpt lat="46.0249950" lon="10.3808630">
	<ele>1098.40</ele>
	<time>2024-07-24T06:39:06.000Z</time>
</trkpt>
<trkpt lat="46.0249890" lon="10.3808830">
	<ele>1098.60</ele>
	<time>2024-07-24T06:39:07.000Z</time>
</trkpt>
<trkpt lat="46.0249790" lon="10.3808980">
	<ele>1098.60</ele>
	<time>2024-07-24T06:39:08.000Z</time>
</trkpt>
<trkpt lat="46.0249690" lon="10.3809100">
	<ele>1098.80</ele>
	<time>2024-07-24T06:39:09.000Z</time>
</trkpt>
<trkpt lat="46.0249530" lon="10.3809200">
	<ele>1099.00</ele>
	<time>2024-07-24T06:39:10.000Z</time>
</trkpt>
<trkpt lat="46.0249340" lon="10.3809290">
	<ele>1099.00</ele>
	<time>2024-07-24T06:39:11.000Z</time>
</trkpt>
<trkpt lat="46.0249340" lon="10.3809400">
	<ele>1099.20</ele>
	<time>2024-07-24T06:39:12.000Z</time>
</trkpt>
<trkpt lat="46.0249350" lon="10.3809590">
	<ele>1099.20</ele>
	<time>2024-07-24T06:39:13.000Z</time>
</trkpt>
<trkpt lat="46.0249340" lon="10.3809760">
	<ele>1099.40</ele>
	<time>2024-07-24T06:39:14.000Z</time>
</trkpt>
<trkpt lat="46.0249280" lon="10.3809900">
	<ele>1099.40</ele>
	<time>2024-07-24T06:39:15.000Z</time>
</trkpt>
<trkpt lat="46.0249250" lon="10.3810020">
	<ele>1099.40</ele>
	<time>2024-07-24T06:39:16.000Z</time>
</trkpt>
<trkpt lat="46.0249190" lon="10.3810220">
	<ele>1099.60</ele>
	<time>2024-07-24T06:39:17.000Z</time>
</trkpt>
<trkpt lat="46.0249090" lon="10.3810410">
	<ele>1099.60</ele>
	<time>2024-07-24T06:39:18.000Z</time>
</trkpt>
<trkpt lat="46.0248980" lon="10.3810500">
	<ele>1099.60</ele>
	<time>2024-07-24T06:39:19.000Z</time>
</trkpt>
<trkpt lat="46.0248870" lon="10.3810630">
	<ele>1099.60</ele>
	<time>2024-07-24T06:39:20.000Z</time>
</trkpt>
<trkpt lat="46.0248840" lon="10.3810700">
	<ele>1099.60</ele>
	<time>2024-07-24T06:39:21.000Z</time>
</trkpt>
<trkpt lat="46.0248880" lon="10.3810900">
	<ele>1099.60</ele>
	<time>2024-07-24T06:39:22.000Z</time>
</trkpt>
<trkpt lat="46.0248920" lon="10.3811070">
	<ele>1099.60</ele>
	<time>2024-07-24T06:39:23.000Z</time>
</trkpt>
<trkpt lat="46.0248940" lon="10.3811260">
	<ele>1099.40</ele>
	<time>2024-07-24T06:39:24.000Z</time>
</trkpt>
<trkpt lat="46.0248940" lon="10.3811450">
	<ele>1099.40</ele>
	<time>2024-07-24T06:39:25.000Z</time>
</trkpt>
<trkpt lat="46.0248930" lon="10.3811570">
	<ele>1099.40</ele>
	<time>2024-07-24T06:39:26.000Z</time>
</trkpt>
<trkpt lat="46.0248920" lon="10.3811710">
	<ele>1099.40</ele>
	<time>2024-07-24T06:39:27.000Z</time>
</trkpt>
<trkpt lat="46.0248930" lon="10.3811820">
	<ele>1099.60</ele>
	<time>2024-07-24T06:39:28.000Z</time>
</trkpt>
<trkpt lat="46.0248990" lon="10.3811900">
	<ele>1099.40</ele>
	<time>2024-07-24T06:39:29.000Z</time>
</trkpt>
<trkpt lat="46.0249030" lon="10.3812010">
	<ele>1099.60</ele>
	<time>2024-07-24T06:39:30.000Z</time>
</trkpt>
<trkpt lat="46.0249030" lon="10.3812130">
	<ele>1099.60</ele>
	<time>2024-07-24T06:39:31.000Z</time>
</trkpt>
<trkpt lat="46.0249060" lon="10.3812260">
	<ele>1099.60</ele>
	<time>2024-07-24T06:39:32.000Z</time>
</trkpt>
<trkpt lat="46.0249120" lon="10.3812430">
	<ele>1099.60</ele>
	<time>2024-07-24T06:39:33.000Z</time>
</trkpt>
<trkpt lat="46.0249180" lon="10.3812550">
	<ele>1099.60</ele>
	<time>2024-07-24T06:39:34.000Z</time>
</trkpt>
<trkpt lat="46.0249230" lon="10.3812690">
	<ele>1099.80</ele>
	<time>2024-07-24T06:39:35.000Z</time>
</trkpt>
<trkpt lat="46.0249250" lon="10.3812830">
	<ele>1099.80</ele>
	<time>2024-07-24T06:39:36.000Z</time>
</trkpt>
<trkpt lat="46.0249260" lon="10.3812950">
	<ele>1099.80</ele>
	<time>2024-07-24T06:39:37.000Z</time>
</trkpt>
<trkpt lat="46.0249290" lon="10.3813070">
	<ele>1100.00</ele>
	<time>2024-07-24T06:39:38.000Z</time>
</trkpt>
<trkpt lat="46.0249270" lon="10.3813210">
	<ele>1100.00</ele>
	<time>2024-07-24T06:39:39.000Z</time>
</trkpt>
<trkpt lat="46.0249260" lon="10.3813380">
	<ele>1100.00</ele>
	<time>2024-07-24T06:39:40.000Z</time>
</trkpt>
<trkpt lat="46.0249340" lon="10.3813540">
	<ele>1100.00</ele>
	<time>2024-07-24T06:39:41.000Z</time>
</trkpt>
<trkpt lat="46.0249390" lon="10.3813690">
	<ele>1100.20</ele>
	<time>2024-07-24T06:39:42.000Z</time>
</trkpt>
<trkpt lat="46.0249430" lon="10.3813790">
	<ele>1100.20</ele>
	<time>2024-07-24T06:39:43.000Z</time>
</trkpt>
<trkpt lat="46.0249490" lon="10.3813880">
	<ele>1100.40</ele>
	<time>2024-07-24T06:39:44.000Z</time>
</trkpt>
<trkpt lat="46.0249570" lon="10.3814040">
	<ele>1100.40</ele>
	<time>2024-07-24T06:39:45.000Z</time>
</trkpt>
<trkpt lat="46.0249610" lon="10.3814160">
	<ele>1100.60</ele>
	<time>2024-07-24T06:39:46.000Z</time>
</trkpt>
<trkpt lat="46.0249630" lon="10.3814290">
	<ele>1100.60</ele>
	<time>2024-07-24T06:39:47.000Z</time>
</trkpt>
<trkpt lat="46.0249630" lon="10.3814360">
	<ele>1100.80</ele>
	<time>2024-07-24T06:39:48.000Z</time>
</trkpt>
<trkpt lat="46.0249620" lon="10.3814420">
	<ele>1100.80</ele>
	<time>2024-07-24T06:39:49.000Z</time>
</trkpt>
<trkpt lat="46.0249770" lon="10.3814520">
	<ele>1101.00</ele>
	<time>2024-07-24T06:39:50.000Z</time>
</trkpt>
<trkpt lat="46.0249940" lon="10.3814590">
	<ele>1101.00</ele>
	<time>2024-07-24T06:39:51.000Z</time>
</trkpt>
<trkpt lat="46.0250070" lon="10.3814660">
	<ele>1101.20</ele>
	<time>2024-07-24T06:39:52.000Z</time>
</trkpt>
<trkpt lat="46.0250150" lon="10.3814690">
	<ele>1101.20</ele>
	<time>2024-07-24T06:39:53.000Z</time>
</trkpt>
<trkpt lat="46.0250180" lon="10.3814750">
	<ele>1101.60</ele>
	<time>2024-07-24T06:39:54.000Z</time>
</trkpt>
<trkpt lat="46.0250230" lon="10.3814820">
	<ele>1101.60</ele>
	<time>2024-07-24T06:39:55.000Z</time>
</trkpt>
<trkpt lat="46.0250260" lon="10.3814880">
	<ele>1101.80</ele>
	<time>2024-07-24T06:39:56.000Z</time>
</trkpt>
<trkpt lat="46.0250360" lon="10.3814950">
	<ele>1101.80</ele>
	<time>2024-07-24T06:39:57.000Z</time>
</trkpt>
<trkpt lat="46.0250390" lon="10.3815030">
	<ele>1102.20</ele>
	<time>2024-07-24T06:39:58.000Z</time>
</trkpt>
<trkpt lat="46.0250460" lon="10.3815190">
	<ele>1102.40</ele>
	<time>2024-07-24T06:39:59.000Z</time>
</trkpt>
<trkpt lat="46.0250510" lon="10.3815240">
	<ele>1102.40</ele>
	<time>2024-07-24T06:40:00.000Z</time>
</trkpt>
<trkpt lat="46.0250580" lon="10.3815440">
	<ele>1102.60</ele>
	<time>2024-07-24T06:40:01.000Z</time>
</trkpt>
<trkpt lat="46.0250590" lon="10.3815580">
	<ele>1102.80</ele>
	<time>2024-07-24T06:40:02.000Z</time>
</trkpt>
<trkpt lat="46.0250630" lon="10.3815650">
	<ele>1103.00</ele>
	<time>2024-07-24T06:40:03.000Z</time>
</trkpt>
<trkpt lat="46.0250680" lon="10.3815680">
	<ele>1103.40</ele>
	<time>2024-07-24T06:40:04.000Z</time>
</trkpt>
<trkpt lat="46.0250690" lon="10.3815850">
	<ele>1103.60</ele>
	<time>2024-07-24T06:40:05.000Z</time>
</trkpt>
<trkpt lat="46.0250670" lon="10.3815980">
	<ele>1103.80</ele>
	<time>2024-07-24T06:40:06.000Z</time>
</trkpt>
<trkpt lat="46.0250730" lon="10.3816240">
	<ele>1103.80</ele>
	<time>2024-07-24T06:40:07.000Z</time>
</trkpt>
<trkpt lat="46.0250760" lon="10.3816420">
	<ele>1104.00</ele>
	<time>2024-07-24T06:40:08.000Z</time>
</trkpt>
<trkpt lat="46.0250820" lon="10.3816600">
	<ele>1104.00</ele>
	<time>2024-07-24T06:40:09.000Z</time>
</trkpt>
<trkpt lat="46.0250860" lon="10.3816770">
	<ele>1104.20</ele>
	<time>2024-07-24T06:40:10.000Z</time>
</trkpt>
<trkpt lat="46.0250990" lon="10.3816920">
	<ele>1104.40</ele>
	<time>2024-07-24T06:40:11.000Z</time>
</trkpt>
<trkpt lat="46.0251100" lon="10.3817080">
	<ele>1104.60</ele>
	<time>2024-07-24T06:40:12.000Z</time>
</trkpt>
<trkpt lat="46.0251210" lon="10.3817300">
	<ele>1104.80</ele>
	<time>2024-07-24T06:40:13.000Z</time>
</trkpt>
<trkpt lat="46.0251170" lon="10.3817430">
	<ele>1105.00</ele>
	<time>2024-07-24T06:40:14.000Z</time>
</trkpt>
<trkpt lat="46.0251150" lon="10.3817540">
	<ele>1105.00</ele>
	<time>2024-07-24T06:40:15.000Z</time>
</trkpt>
<trkpt lat="46.0251070" lon="10.3817620">
	<ele>1105.20</ele>
	<time>2024-07-24T06:40:16.000Z</time>
</trkpt>
<trkpt lat="46.0251060" lon="10.3817700">
	<ele>1105.20</ele>
	<time>2024-07-24T06:40:17.000Z</time>
</trkpt>
<trkpt lat="46.0251060" lon="10.3817810">
	<ele>1105.40</ele>
	<time>2024-07-24T06:40:18.000Z</time>
</trkpt>
<trkpt lat="46.0251100" lon="10.3817910">
	<ele>1105.80</ele>
	<time>2024-07-24T06:40:19.000Z</time>
</trkpt>
<trkpt lat="46.0251150" lon="10.3818020">
	<ele>1106.00</ele>
	<time>2024-07-24T06:40:20.000Z</time>
</trkpt>
<trkpt lat="46.0251140" lon="10.3818120">
	<ele>1106.20</ele>
	<time>2024-07-24T06:40:21.000Z</time>
</trkpt>
<trkpt lat="46.0251120" lon="10.3818240">
	<ele>1106.20</ele>
	<time>2024-07-24T06:40:22.000Z</time>
</trkpt>
<trkpt lat="46.0251120" lon="10.3818400">
	<ele>1106.40</ele>
	<time>2024-07-24T06:40:23.000Z</time>
</trkpt>
<trkpt lat="46.0251160" lon="10.3818540">
	<ele>1106.80</ele>
	<time>2024-07-24T06:40:24.000Z</time>
</trkpt>
<trkpt lat="46.0251160" lon="10.3818700">
	<ele>1107.00</ele>
	<time>2024-07-24T06:40:25.000Z</time>
</trkpt>
<trkpt lat="46.0251150" lon="10.3818860">
	<ele>1107.20</ele>
	<time>2024-07-24T06:40:26.000Z</time>
</trkpt>
<trkpt lat="46.0251140" lon="10.3819040">
	<ele>1107.60</ele>
	<time>2024-07-24T06:40:27.000Z</time>
</trkpt>
<trkpt lat="46.0251100" lon="10.3819200">
	<ele>1107.80</ele>
	<time>2024-07-24T06:40:28.000Z</time>
</trkpt>
<trkpt lat="46.0251070" lon="10.3819380">
	<ele>1108.00</ele>
	<time>2024-07-24T06:40:29.000Z</time>
</trkpt>
<trkpt lat="46.0250990" lon="10.3819590">
	<ele>1108.00</ele>
	<time>2024-07-24T06:40:30.000Z</time>
</trkpt>
<trkpt lat="46.0250950" lon="10.3819900">
	<ele>1108.20</ele>
	<time>2024-07-24T06:40:31.000Z</time>
</trkpt>
<trkpt lat="46.0250990" lon="10.3820070">
	<ele>1108.60</ele>
	<time>2024-07-24T06:40:32.000Z</time>
</trkpt>
<trkpt lat="46.0251070" lon="10.3820150">
	<ele>1108.60</ele>
	<time>2024-07-24T06:40:33.000Z</time>
</trkpt>
<trkpt lat="46.0251120" lon="10.3820280">
	<ele>1108.80</ele>
	<time>2024-07-24T06:40:34.000Z</time>
</trkpt>
<trkpt lat="46.0251130" lon="10.3820400">
	<ele>1109.20</ele>
	<time>2024-07-24T06:40:35.000Z</time>
</trkpt>
<trkpt lat="46.0251170" lon="10.3820520">
	<ele>1109.20</ele>
	<time>2024-07-24T06:40:36.000Z</time>
</trkpt>
<trkpt lat="46.0251290" lon="10.3820660">
	<ele>1109.40</ele>
	<time>2024-07-24T06:40:37.000Z</time>
</trkpt>
<trkpt lat="46.0251330" lon="10.3820760">
	<ele>1109.60</ele>
	<time>2024-07-24T06:40:38.000Z</time>
</trkpt>
<trkpt lat="46.0251330" lon="10.3820870">
	<ele>1109.80</ele>
	<time>2024-07-24T06:40:39.000Z</time>
</trkpt>
<trkpt lat="46.0251340" lon="10.3821000">
	<ele>1110.00</ele>
	<time>2024-07-24T06:40:40.000Z</time>
</trkpt>
<trkpt lat="46.0251400" lon="10.3821160">
	<ele>1110.00</ele>
	<time>2024-07-24T06:40:41.000Z</time>
</trkpt>
<trkpt lat="46.0251420" lon="10.3821270">
	<ele>1110.40</ele>
	<time>2024-07-24T06:40:42.000Z</time>
</trkpt>
<trkpt lat="46.0251450" lon="10.3821350">
	<ele>1110.60</ele>
	<time>2024-07-24T06:40:43.000Z</time>
</trkpt>
<trkpt lat="46.0251470" lon="10.3821420">
	<ele>1110.60</ele>
	<time>2024-07-24T06:40:44.000Z</time>
</trkpt>
<trkpt lat="46.0251490" lon="10.3821540">
	<ele>1110.80</ele>
	<time>2024-07-24T06:40:45.000Z</time>
</trkpt>
<trkpt lat="46.0251540" lon="10.3821690">
	<ele>1111.00</ele>
	<time>2024-07-24T06:40:46.000Z</time>
</trkpt>
<trkpt lat="46.0251550" lon="10.3821850">
	<ele>1111.20</ele>
	<time>2024-07-24T06:40:47.000Z</time>
</trkpt>
<trkpt lat="46.0251540" lon="10.3821940">
	<ele>1111.20</ele>
	<time>2024-07-24T06:40:48.000Z</time>
</trkpt>
<trkpt lat="46.0251470" lon="10.3822010">
	<ele>1111.60</ele>
	<time>2024-07-24T06:40:49.000Z</time>
</trkpt>
<trkpt lat="46.0251410" lon="10.3822050">
	<ele>1111.80</ele>
	<time>2024-07-24T06:40:50.000Z</time>
</trkpt>
<trkpt lat="46.0251370" lon="10.3822150">
	<ele>1112.00</ele>
	<time>2024-07-24T06:40:51.000Z</time>
</trkpt>
<trkpt lat="46.0251320" lon="10.3822310">
	<ele>1112.00</ele>
	<time>2024-07-24T06:40:52.000Z</time>
</trkpt>
<trkpt lat="46.0251280" lon="10.3822410">
	<ele>1112.20</ele>
	<time>2024-07-24T06:40:53.000Z</time>
</trkpt>
<trkpt lat="46.0251250" lon="10.3822510">
	<ele>1112.40</ele>
	<time>2024-07-24T06:40:54.000Z</time>
</trkpt>
<trkpt lat="46.0251230" lon="10.3822560">
	<ele>1112.60</ele>
	<time>2024-07-24T06:40:55.000Z</time>
</trkpt>
<trkpt lat="46.0251270" lon="10.3822710">
	<ele>1112.80</ele>
	<time>2024-07-24T06:40:56.000Z</time>
</trkpt>
<trkpt lat="46.0251260" lon="10.3822840">
	<ele>1113.00</ele>
	<time>2024-07-24T06:40:57.000Z</time>
</trkpt>
<trkpt lat="46.0251240" lon="10.3822950">
	<ele>1113.20</ele>
	<time>2024-07-24T06:40:58.000Z</time>
</trkpt>
<trkpt lat="46.0251240" lon="10.3823100">
	<ele>1113.40</ele>
	<time>2024-07-24T06:40:59.000Z</time>
</trkpt>
<trkpt lat="46.0251200" lon="10.3823230">
	<ele>1113.60</ele>
	<time>2024-07-24T06:41:00.000Z</time>
</trkpt>
<trkpt lat="46.0251180" lon="10.3823310">
	<ele>1113.80</ele>
	<time>2024-07-24T06:41:01.000Z</time>
</trkpt>
<trkpt lat="46.0251080" lon="10.3823360">
	<ele>1113.80</ele>
	<time>2024-07-24T06:41:02.000Z</time>
</trkpt>
<trkpt lat="46.0251050" lon="10.3823410">
	<ele>1114.00</ele>
	<time>2024-07-24T06:41:03.000Z</time>
</trkpt>
<trkpt lat="46.0250990" lon="10.3823490">
	<ele>1114.40</ele>
	<time>2024-07-24T06:41:04.000Z</time>
</trkpt>
<trkpt lat="46.0250950" lon="10.3823620">
	<ele>1114.60</ele>
	<time>2024-07-24T06:41:05.000Z</time>
</trkpt>
<trkpt lat="46.0250900" lon="10.3823740">
	<ele>1114.80</ele>
	<time>2024-07-24T06:41:06.000Z</time>
</trkpt>
<trkpt lat="46.0250820" lon="10.3823850">
	<ele>1115.00</ele>
	<time>2024-07-24T06:41:07.000Z</time>
</trkpt>
<trkpt lat="46.0250760" lon="10.3823990">
	<ele>1115.20</ele>
	<time>2024-07-24T06:41:08.000Z</time>
</trkpt>
<trkpt lat="46.0250770" lon="10.3824100">
	<ele>1115.40</ele>
	<time>2024-07-24T06:41:09.000Z</time>
</trkpt>
<trkpt lat="46.0250810" lon="10.3824210">
	<ele>1115.60</ele>
	<time>2024-07-24T06:41:10.000Z</time>
</trkpt>
<trkpt lat="46.0250790" lon="10.3824230">
	<ele>1115.60</ele>
	<time>2024-07-24T06:41:11.000Z</time>
</trkpt>
<trkpt lat="46.0250810" lon="10.3824340">
	<ele>1115.60</ele>
	<time>2024-07-24T06:41:12.000Z</time>
</trkpt>
<trkpt lat="46.0250790" lon="10.3824420">
	<ele>1115.80</ele>
	<time>2024-07-24T06:41:13.000Z</time>
</trkpt>
<trkpt lat="46.0250790" lon="10.3824520">
	<ele>1116.00</ele>
	<time>2024-07-24T06:41:14.000Z</time>
</trkpt>
<trkpt lat="46.0250750" lon="10.3824630">
	<ele>1116.00</ele>
	<time>2024-07-24T06:41:15.000Z</time>
</trkpt>
<trkpt lat="46.0250710" lon="10.3824740">
	<ele>1116.20</ele>
	<time>2024-07-24T06:41:16.000Z</time>
</trkpt>
<trkpt lat="46.0250630" lon="10.3824770">
	<ele>1116.20</ele>
	<time>2024-07-24T06:41:17.000Z</time>
</trkpt>
<trkpt lat="46.0250590" lon="10.3824880">
	<ele>1116.20</ele>
	<time>2024-07-24T06:41:18.000Z</time>
</trkpt>
<trkpt lat="46.0250530" lon="10.3825040">
	<ele>1116.20</ele>
	<time>2024-07-24T06:41:19.000Z</time>
</trkpt>
<trkpt lat="46.0250510" lon="10.3825230">
	<ele>1116.40</ele>
	<time>2024-07-24T06:41:20.000Z</time>
</trkpt>
<trkpt lat="46.0250560" lon="10.3825390">
	<ele>1116.60</ele>
	<time>2024-07-24T06:41:21.000Z</time>
</trkpt>
<trkpt lat="46.0250570" lon="10.3825540">
	<ele>1116.60</ele>
	<time>2024-07-24T06:41:22.000Z</time>
</trkpt>
<trkpt lat="46.0250570" lon="10.3825680">
	<ele>1116.80</ele>
	<time>2024-07-24T06:41:23.000Z</time>
</trkpt>
<trkpt lat="46.0250550" lon="10.3825850">
	<ele>1116.80</ele>
	<time>2024-07-24T06:41:24.000Z</time>
</trkpt>
<trkpt lat="46.0250520" lon="10.3825970">
	<ele>1117.00</ele>
	<time>2024-07-24T06:41:25.000Z</time>
</trkpt>
<trkpt lat="46.0250510" lon="10.3826070">
	<ele>1117.00</ele>
	<time>2024-07-24T06:41:26.000Z</time>
</trkpt>
<trkpt lat="46.0250460" lon="10.3826160">
	<ele>1117.00</ele>
	<time>2024-07-24T06:41:27.000Z</time>
</trkpt>
<trkpt lat="46.0250370" lon="10.3826310">
	<ele>1117.20</ele>
	<time>2024-07-24T06:41:28.000Z</time>
</trkpt>
<trkpt lat="46.0250330" lon="10.3826470">
	<ele>1117.40</ele>
	<time>2024-07-24T06:41:29.000Z</time>
</trkpt>
<trkpt lat="46.0250320" lon="10.3826590">
	<ele>1117.40</ele>
	<time>2024-07-24T06:41:30.000Z</time>
</trkpt>
<trkpt lat="46.0250320" lon="10.3826750">
	<ele>1117.60</ele>
	<time>2024-07-24T06:41:31.000Z</time>
</trkpt>
<trkpt lat="46.0250320" lon="10.3826920">
	<ele>1117.80</ele>
	<time>2024-07-24T06:41:32.000Z</time>
</trkpt>
<trkpt lat="46.0250300" lon="10.3827100">
	<ele>1118.00</ele>
	<time>2024-07-24T06:41:33.000Z</time>
</trkpt>
<trkpt lat="46.0250260" lon="10.3827290">
	<ele>1118.00</ele>
	<time>2024-07-24T06:41:34.000Z</time>
</trkpt>
<trkpt lat="46.0250220" lon="10.3827420">
	<ele>1118.20</ele>
	<time>2024-07-24T06:41:35.000Z</time>
</trkpt>
<trkpt lat="46.0250170" lon="10.3827580">
	<ele>1118.20</ele>
	<time>2024-07-24T06:41:36.000Z</time>
</trkpt>
<trkpt lat="46.0250130" lon="10.3827720">
	<ele>1118.40</ele>
	<time>2024-07-24T06:41:37.000Z</time>
</trkpt>
<trkpt lat="46.0250070" lon="10.3827880">
	<ele>1118.60</ele>
	<time>2024-07-24T06:41:38.000Z</time>
</trkpt>
<trkpt lat="46.0250060" lon="10.3827990">
	<ele>1118.60</ele>
	<time>2024-07-24T06:41:39.000Z</time>
</trkpt>
<trkpt lat="46.0250000" lon="10.3828090">
	<ele>1118.80</ele>
	<time>2024-07-24T06:41:40.000Z</time>
</trkpt>
<trkpt lat="46.0249920" lon="10.3828180">
	<ele>1119.00</ele>
	<time>2024-07-24T06:41:41.000Z</time>
</trkpt>
<trkpt lat="46.0249870" lon="10.3828280">
	<ele>1119.00</ele>
	<time>2024-07-24T06:41:42.000Z</time>
</trkpt>
<trkpt lat="46.0249810" lon="10.3828400">
	<ele>1119.20</ele>
	<time>2024-07-24T06:41:43.000Z</time>
</trkpt>
<trkpt lat="46.0249720" lon="10.3828470">
	<ele>1119.20</ele>
	<time>2024-07-24T06:41:44.000Z</time>
</trkpt>
<trkpt lat="46.0249630" lon="10.3828520">
	<ele>1119.40</ele>
	<time>2024-07-24T06:41:45.000Z</time>
</trkpt>
<trkpt lat="46.0249580" lon="10.3828640">
	<ele>1119.40</ele>
	<time>2024-07-24T06:41:46.000Z</time>
</trkpt>
<trkpt lat="46.0249590" lon="10.3828790">
	<ele>1119.60</ele>
	<time>2024-07-24T06:41:47.000Z</time>
</trkpt>
<trkpt lat="46.0249610" lon="10.3828920">
	<ele>1119.80</ele>
	<time>2024-07-24T06:41:48.000Z</time>
</trkpt>
<trkpt lat="46.0249590" lon="10.3829010">
	<ele>1120.00</ele>
	<time>2024-07-24T06:41:49.000Z</time>
</trkpt>
<trkpt lat="46.0249540" lon="10.3829140">
	<ele>1120.20</ele>
	<time>2024-07-24T06:41:50.000Z</time>
</trkpt>
<trkpt lat="46.0249490" lon="10.3829260">
	<ele>1120.20</ele>
	<time>2024-07-24T06:41:51.000Z</time>
</trkpt>
<trkpt lat="46.0249490" lon="10.3829380">
	<ele>1120.20</ele>
	<time>2024-07-24T06:41:52.000Z</time>
</trkpt>
<trkpt lat="46.0249480" lon="10.3829570">
	<ele>1120.40</ele>
	<time>2024-07-24T06:41:53.000Z</time>
</trkpt>
<trkpt lat="46.0249450" lon="10.3829720">
	<ele>1120.40</ele>
	<time>2024-07-24T06:41:54.000Z</time>
</trkpt>
<trkpt lat="46.0249420" lon="10.3829860">
	<ele>1120.60</ele>
	<time>2024-07-24T06:41:55.000Z</time>
</trkpt>
<trkpt lat="46.0249460" lon="10.3830020">
	<ele>1120.60</ele>
	<time>2024-07-24T06:41:56.000Z</time>
</trkpt>
<trkpt lat="46.0249490" lon="10.3830170">
	<ele>1120.80</ele>
	<time>2024-07-24T06:41:57.000Z</time>
</trkpt>
<trkpt lat="46.0249440" lon="10.3830220">
	<ele>1121.00</ele>
	<time>2024-07-24T06:41:58.000Z</time>
</trkpt>
<trkpt lat="46.0249370" lon="10.3830270">
	<ele>1121.20</ele>
	<time>2024-07-24T06:41:59.000Z</time>
</trkpt>
<trkpt lat="46.0249230" lon="10.3830250">
	<ele>1121.20</ele>
	<time>2024-07-24T06:42:00.000Z</time>
</trkpt>
<trkpt lat="46.0249140" lon="10.3830300">
	<ele>1121.40</ele>
	<time>2024-07-24T06:42:01.000Z</time>
</trkpt>
<trkpt lat="46.0249060" lon="10.3830340">
	<ele>1121.60</ele>
	<time>2024-07-24T06:42:02.000Z</time>
</trkpt>
<trkpt lat="46.0248990" lon="10.3830410">
	<ele>1121.80</ele>
	<time>2024-07-24T06:42:03.000Z</time>
</trkpt>
<trkpt lat="46.0249010" lon="10.3830570">
	<ele>1122.00</ele>
	<time>2024-07-24T06:42:04.000Z</time>
</trkpt>
<trkpt lat="46.0249020" lon="10.3830720">
	<ele>1122.20</ele>
	<time>2024-07-24T06:42:05.000Z</time>
</trkpt>
<trkpt lat="46.0248980" lon="10.3830860">
	<ele>1122.40</ele>
	<time>2024-07-24T06:42:06.000Z</time>
</trkpt>
<trkpt lat="46.0248940" lon="10.3830940">
	<ele>1122.60</ele>
	<time>2024-07-24T06:42:07.000Z</time>
</trkpt>
<trkpt lat="46.0248910" lon="10.3831060">
	<ele>1122.60</ele>
	<time>2024-07-24T06:42:08.000Z</time>
</trkpt>
<trkpt lat="46.0248920" lon="10.3831220">
	<ele>1123.00</ele>
	<time>2024-07-24T06:42:09.000Z</time>
</trkpt>
<trkpt lat="46.0248890" lon="10.3831330">
	<ele>1123.20</ele>
	<time>2024-07-24T06:42:10.000Z</time>
</trkpt>
<trkpt lat="46.0248820" lon="10.3831420">
	<ele>1123.20</ele>
	<time>2024-07-24T06:42:11.000Z</time>
</trkpt>
<trkpt lat="46.0248710" lon="10.3831490">
	<ele>1123.40</ele>
	<time>2024-07-24T06:42:12.000Z</time>
</trkpt>
<trkpt lat="46.0248630" lon="10.3831600">
	<ele>1123.60</ele>
	<time>2024-07-24T06:42:13.000Z</time>
</trkpt>
<trkpt lat="46.0248580" lon="10.3831740">
	<ele>1123.80</ele>
	<time>2024-07-24T06:42:14.000Z</time>
</trkpt>
<trkpt lat="46.0248490" lon="10.3831890">
	<ele>1124.00</ele>
	<time>2024-07-24T06:42:15.000Z</time>
</trkpt>
<trkpt lat="46.0248420" lon="10.3832080">
	<ele>1124.40</ele>
	<time>2024-07-24T06:42:16.000Z</time>
</trkpt>
<trkpt lat="46.0248400" lon="10.3832140">
	<ele>1124.60</ele>
	<time>2024-07-24T06:42:17.000Z</time>
</trkpt>
<trkpt lat="46.0248300" lon="10.3832240">
	<ele>1124.80</ele>
	<time>2024-07-24T06:42:18.000Z</time>
</trkpt>
<trkpt lat="46.0248130" lon="10.3832330">
	<ele>1125.00</ele>
	<time>2024-07-24T06:42:19.000Z</time>
</trkpt>
<trkpt lat="46.0247970" lon="10.3832520">
	<ele>1125.20</ele>
	<time>2024-07-24T06:42:20.000Z</time>
</trkpt>
<trkpt lat="46.0247920" lon="10.3832650">
	<ele>1125.20</ele>
	<time>2024-07-24T06:42:21.000Z</time>
</trkpt>
<trkpt lat="46.0247900" lon="10.3832850">
	<ele>1125.40</ele>
	<time>2024-07-24T06:42:22.000Z</time>
</trkpt>
<trkpt lat="46.0247900" lon="10.3833040">
	<ele>1125.60</ele>
	<time>2024-07-24T06:42:23.000Z</time>
</trkpt>
<trkpt lat="46.0247880" lon="10.3833230">
	<ele>1125.80</ele>
	<time>2024-07-24T06:42:24.000Z</time>
</trkpt>
<trkpt lat="46.0247860" lon="10.3833410">
	<ele>1126.00</ele>
	<time>2024-07-24T06:42:25.000Z</time>
</trkpt>
<trkpt lat="46.0247830" lon="10.3833610">
	<ele>1126.20</ele>
	<time>2024-07-24T06:42:26.000Z</time>
</trkpt>
<trkpt lat="46.0247680" lon="10.3833840">
	<ele>1126.20</ele>
	<time>2024-07-24T06:42:27.000Z</time>
</trkpt>
<trkpt lat="46.0247580" lon="10.3834130">
	<ele>1126.40</ele>
	<time>2024-07-24T06:42:28.000Z</time>
</trkpt>
<trkpt lat="46.0247590" lon="10.3834290">
	<ele>1126.60</ele>
	<time>2024-07-24T06:42:29.000Z</time>
</trkpt>
<trkpt lat="46.0247600" lon="10.3834450">
	<ele>1126.80</ele>
	<time>2024-07-24T06:42:30.000Z</time>
</trkpt>
<trkpt lat="46.0247640" lon="10.3834660">
	<ele>1126.80</ele>
	<time>2024-07-24T06:42:31.000Z</time>
</trkpt>
<trkpt lat="46.0247740" lon="10.3834870">
	<ele>1127.00</ele>
	<time>2024-07-24T06:42:32.000Z</time>
</trkpt>
<trkpt lat="46.0247880" lon="10.3835060">
	<ele>1127.40</ele>
	<time>2024-07-24T06:42:33.000Z</time>
</trkpt>
<trkpt lat="46.0247960" lon="10.3835200">
	<ele>1127.60</ele>
	<time>2024-07-24T06:42:34.000Z</time>
</trkpt>
<trkpt lat="46.0247980" lon="10.3835300">
	<ele>1127.60</ele>
	<time>2024-07-24T06:42:35.000Z</time>
</trkpt>
<trkpt lat="46.0247990" lon="10.3835430">
	<ele>1127.80</ele>
	<time>2024-07-24T06:42:36.000Z</time>
</trkpt>
<trkpt lat="46.0247980" lon="10.3835540">
	<ele>1127.80</ele>
	<time>2024-07-24T06:42:37.000Z</time>
</trkpt>
<trkpt lat="46.0248000" lon="10.3835640">
	<ele>1128.00</ele>
	<time>2024-07-24T06:42:38.000Z</time>
</trkpt>
<trkpt lat="46.0247990" lon="10.3835860">
	<ele>1128.20</ele>
	<time>2024-07-24T06:42:39.000Z</time>
</trkpt>
<trkpt lat="46.0248040" lon="10.3836010">
	<ele>1128.20</ele>
	<time>2024-07-24T06:42:40.000Z</time>
</trkpt>
<trkpt lat="46.0248090" lon="10.3836170">
	<ele>1128.40</ele>
	<time>2024-07-24T06:42:41.000Z</time>
</trkpt>
<trkpt lat="46.0248070" lon="10.3836330">
	<ele>1128.60</ele>
	<time>2024-07-24T06:42:42.000Z</time>
</trkpt>
<trkpt lat="46.0248020" lon="10.3836500">
	<ele>1128.80</ele>
	<time>2024-07-24T06:42:43.000Z</time>
</trkpt>
<trkpt lat="46.0247990" lon="10.3836640">
	<ele>1129.00</ele>
	<time>2024-07-24T06:42:44.000Z</time>
</trkpt>
<trkpt lat="46.0247940" lon="10.3836780">
	<ele>1129.20</ele>
	<time>2024-07-24T06:42:45.000Z</time>
</trkpt>
<trkpt lat="46.0247880" lon="10.3836860">
	<ele>1129.40</ele>
	<time>2024-07-24T06:42:46.000Z</time>
</trkpt>
<trkpt lat="46.0247850" lon="10.3836880">
	<ele>1129.60</ele>
	<time>2024-07-24T06:42:47.000Z</time>
</trkpt>
<trkpt lat="46.0247820" lon="10.3836970">
	<ele>1129.80</ele>
	<time>2024-07-24T06:42:48.000Z</time>
</trkpt>
<trkpt lat="46.0247820" lon="10.3837090">
	<ele>1130.00</ele>
	<time>2024-07-24T06:42:49.000Z</time>
</trkpt>
<trkpt lat="46.0247870" lon="10.3837280">
	<ele>1130.20</ele>
	<time>2024-07-24T06:42:50.000Z</time>
</trkpt>
<trkpt lat="46.0247860" lon="10.3837450">
	<ele>1130.40</ele>
	<time>2024-07-24T06:42:51.000Z</time>
</trkpt>
<trkpt lat="46.0247930" lon="10.3837590">
	<ele>1130.60</ele>
	<time>2024-07-24T06:42:52.000Z</time>
</trkpt>
<trkpt lat="46.0247970" lon="10.3837810">
	<ele>1130.80</ele>
	<time>2024-07-24T06:42:53.000Z</time>
</trkpt>
<trkpt lat="46.0248030" lon="10.3837960">
	<ele>1131.20</ele>
	<time>2024-07-24T06:42:54.000Z</time>
</trkpt>
<trkpt lat="46.0248060" lon="10.3838100">
	<ele>1131.40</ele>
	<time>2024-07-24T06:42:55.000Z</time>
</trkpt>
<trkpt lat="46.0248060" lon="10.3838200">
	<ele>1131.60</ele>
	<time>2024-07-24T06:42:56.000Z</time>
</trkpt>
<trkpt lat="46.0248070" lon="10.3838300">
	<ele>1131.80</ele>
	<time>2024-07-24T06:42:57.000Z</time>
</trkpt>
<trkpt lat="46.0248040" lon="10.3838390">
	<ele>1132.00</ele>
	<time>2024-07-24T06:42:58.000Z</time>
</trkpt>
<trkpt lat="46.0248010" lon="10.3838500">
	<ele>1132.20</ele>
	<time>2024-07-24T06:42:59.000Z</time>
</trkpt>
<trkpt lat="46.0247960" lon="10.3838580">
	<ele>1132.40</ele>
	<time>2024-07-24T06:43:00.000Z</time>
</trkpt>
<trkpt lat="46.0247900" lon="10.3838660">
	<ele>1132.60</ele>
	<time>2024-07-24T06:43:01.000Z</time>
</trkpt>
<trkpt lat="46.0247830" lon="10.3838750">
	<ele>1132.80</ele>
	<time>2024-07-24T06:43:02.000Z</time>
</trkpt>
<trkpt lat="46.0247800" lon="10.3838920">
	<ele>1133.00</ele>
	<time>2024-07-24T06:43:03.000Z</time>
</trkpt>
<trkpt lat="46.0247750" lon="10.3839040">
	<ele>1133.20</ele>
	<time>2024-07-24T06:43:04.000Z</time>
</trkpt>
<trkpt lat="46.0247690" lon="10.3839120">
	<ele>1133.40</ele>
	<time>2024-07-24T06:43:05.000Z</time>
</trkpt>
<trkpt lat="46.0247660" lon="10.3839230">
	<ele>1133.60</ele>
	<time>2024-07-24T06:43:06.000Z</time>
</trkpt>
<trkpt lat="46.0247620" lon="10.3839350">
	<ele>1133.80</ele>
	<time>2024-07-24T06:43:07.000Z</time>
</trkpt>
<trkpt lat="46.0247600" lon="10.3839490">
	<ele>1134.00</ele>
	<time>2024-07-24T06:43:08.000Z</time>
</trkpt>
<trkpt lat="46.0247580" lon="10.3839610">
	<ele>1134.20</ele>
	<time>2024-07-24T06:43:09.000Z</time>
</trkpt>
<trkpt lat="46.0247580" lon="10.3839740">
	<ele>1134.40</ele>
	<time>2024-07-24T06:43:10.000Z</time>
</trkpt>
<trkpt lat="46.0247620" lon="10.3839880">
	<ele>1134.60</ele>
	<time>2024-07-24T06:43:11.000Z</time>
</trkpt>
<trkpt lat="46.0247610" lon="10.3840010">
	<ele>1134.80</ele>
	<time>2024-07-24T06:43:12.000Z</time>
</trkpt>
<trkpt lat="46.0247590" lon="10.3840140">
	<ele>1135.00</ele>
	<time>2024-07-24T06:43:13.000Z</time>
</trkpt>
<trkpt lat="46.0247530" lon="10.3840290">
	<ele>1135.20</ele>
	<time>2024-07-24T06:43:14.000Z</time>
</trkpt>
<trkpt lat="46.0247470" lon="10.3840430">
	<ele>1135.40</ele>
	<time>2024-07-24T06:43:15.000Z</time>
</trkpt>
<trkpt lat="46.0247410" lon="10.3840550">
	<ele>1135.60</ele>
	<time>2024-07-24T06:43:16.000Z</time>
</trkpt>
<trkpt lat="46.0247350" lon="10.3840670">
	<ele>1135.80</ele>
	<time>2024-07-24T06:43:17.000Z</time>
</trkpt>
<trkpt lat="46.0247330" lon="10.3840770">
	<ele>1136.00</ele>
	<time>2024-07-24T06:43:18.000Z</time>
</trkpt>
<trkpt lat="46.0247300" lon="10.3840860">
	<ele>1136.20</ele>
	<time>2024-07-24T06:43:19.000Z</time>
</trkpt>
<trkpt lat="46.0247250" lon="10.3840940">
	<ele>1136.40</ele>
	<time>2024-07-24T06:43:20.000Z</time>
</trkpt>
<trkpt lat="46.0247210" lon="10.3841060">
	<ele>1136.60</ele>
	<time>2024-07-24T06:43:21.000Z</time>
</trkpt>
<trkpt lat="46.0247160" lon="10.3841190">
	<ele>1136.80</ele>
	<time>2024-07-24T06:43:22.000Z</time>
</trkpt>
<trkpt lat="46.0247120" lon="10.3841310">
	<ele>1137.00</ele>
	<time>2024-07-24T06:43:23.000Z</time>
</trkpt>
<trkpt lat="46.0247090" lon="10.3841390">
	<ele>1137.00</ele>
	<time>2024-07-24T06:43:24.000Z</time>
</trkpt>
<trkpt lat="46.0247060" lon="10.3841470">
	<ele>1137.20</ele>
	<time>2024-07-24T06:43:25.000Z</time>
</trkpt>
<trkpt lat="46.0247000" lon="10.3841650">
	<ele>1137.20</ele>
	<time>2024-07-24T06:43:26.000Z</time>
</trkpt>
<trkpt lat="46.0246940" lon="10.3841770">
	<ele>1137.40</ele>
	<time>2024-07-24T06:43:27.000Z</time>
</trkpt>
<trkpt lat="46.0246920" lon="10.3841880">
	<ele>1137.80</ele>
	<time>2024-07-24T06:43:28.000Z</time>
</trkpt>
<trkpt lat="46.0246920" lon="10.3842000">
	<ele>1137.80</ele>
	<time>2024-07-24T06:43:29.000Z</time>
</trkpt>
<trkpt lat="46.0246950" lon="10.3842170">
	<ele>1138.00</ele>
	<time>2024-07-24T06:43:30.000Z</time>
</trkpt>
<trkpt lat="46.0247060" lon="10.3842360">
	<ele>1138.00</ele>
	<time>2024-07-24T06:43:31.000Z</time>
</trkpt>
<trkpt lat="46.0247090" lon="10.3842510">
	<ele>1138.00</ele>
	<time>2024-07-24T06:43:32.000Z</time>
</trkpt>
<trkpt lat="46.0247080" lon="10.3842620">
	<ele>1138.20</ele>
	<time>2024-07-24T06:43:33.000Z</time>
</trkpt>
<trkpt lat="46.0247050" lon="10.3842750">
	<ele>1138.40</ele>
	<time>2024-07-24T06:43:34.000Z</time>
</trkpt>
<trkpt lat="46.0247060" lon="10.3842880">
	<ele>1138.60</ele>
	<time>2024-07-24T06:43:35.000Z</time>
</trkpt>
<trkpt lat="46.0247050" lon="10.3843030">
	<ele>1138.60</ele>
	<time>2024-07-24T06:43:36.000Z</time>
</trkpt>
<trkpt lat="46.0247010" lon="10.3843170">
	<ele>1138.80</ele>
	<time>2024-07-24T06:43:37.000Z</time>
</trkpt>
<trkpt lat="46.0246980" lon="10.3843340">
	<ele>1138.80</ele>
	<time>2024-07-24T06:43:38.000Z</time>
</trkpt>
<trkpt lat="46.0246910" lon="10.3843470">
	<ele>1139.00</ele>
	<time>2024-07-24T06:43:39.000Z</time>
</trkpt>
<trkpt lat="46.0246840" lon="10.3843560">
	<ele>1139.20</ele>
	<time>2024-07-24T06:43:40.000Z</time>
</trkpt>
<trkpt lat="46.0246800" lon="10.3843590">
	<ele>1139.40</ele>
	<time>2024-07-24T06:43:41.000Z</time>
</trkpt>
<trkpt lat="46.0246800" lon="10.3843600">
	<ele>1139.40</ele>
	<time>2024-07-24T06:43:42.000Z</time>
</trkpt>
<trkpt lat="46.0246810" lon="10.3843630">
	<ele>1139.60</ele>
	<time>2024-07-24T06:43:43.000Z</time>
</trkpt>
<trkpt lat="46.0246780" lon="10.3843720">
	<ele>1139.60</ele>
	<time>2024-07-24T06:43:44.000Z</time>
</trkpt>
<trkpt lat="46.0246730" lon="10.3843840">
	<ele>1139.60</ele>
	<time>2024-07-24T06:43:45.000Z</time>
</trkpt>
<trkpt lat="46.0246670" lon="10.3843950">
	<ele>1139.80</ele>
	<time>2024-07-24T06:43:46.000Z</time>
</trkpt>
<trkpt lat="46.0246630" lon="10.3844020">
	<ele>1139.80</ele>
	<time>2024-07-24T06:43:47.000Z</time>
</trkpt>
<trkpt lat="46.0246590" lon="10.3844120">
	<ele>1139.80</ele>
	<time>2024-07-24T06:43:48.000Z</time>
</trkpt>
<trkpt lat="46.0246520" lon="10.3844240">
	<ele>1140.00</ele>
	<time>2024-07-24T06:43:49.000Z</time>
</trkpt>
<trkpt lat="46.0246470" lon="10.3844380">
	<ele>1140.20</ele>
	<time>2024-07-24T06:43:50.000Z</time>
</trkpt>
<trkpt lat="46.0246410" lon="10.3844500">
	<ele>1140.20</ele>
	<time>2024-07-24T06:43:51.000Z</time>
</trkpt>
<trkpt lat="46.0246400" lon="10.3844610">
	<ele>1140.40</ele>
	<time>2024-07-24T06:43:52.000Z</time>
</trkpt>
<trkpt lat="46.0246330" lon="10.3844720">
	<ele>1140.40</ele>
	<time>2024-07-24T06:43:53.000Z</time>
</trkpt>
<trkpt lat="46.0246220" lon="10.3844810">
	<ele>1140.60</ele>
	<time>2024-07-24T06:43:54.000Z</time>
</trkpt>
<trkpt lat="46.0246090" lon="10.3844940">
	<ele>1140.60</ele>
	<time>2024-07-24T06:43:55.000Z</time>
</trkpt>
<trkpt lat="46.0246010" lon="10.3845150">
	<ele>1140.60</ele>
	<time>2024-07-24T06:43:56.000Z</time>
</trkpt>
<trkpt lat="46.0245940" lon="10.3845320">
	<ele>1140.60</ele>
	<time>2024-07-24T06:43:57.000Z</time>
</trkpt>
<trkpt lat="46.0245890" lon="10.3845490">
	<ele>1140.60</ele>
	<time>2024-07-24T06:43:58.000Z</time>
</trkpt>
<trkpt lat="46.0245770" lon="10.3845590">
	<ele>1140.60</ele>
	<time>2024-07-24T06:43:59.000Z</time>
</trkpt>
<trkpt lat="46.0245690" lon="10.3845720">
	<ele>1140.80</ele>
	<time>2024-07-24T06:44:00.000Z</time>
</trkpt>
<trkpt lat="46.0245590" lon="10.3845870">
	<ele>1140.80</ele>
	<time>2024-07-24T06:44:01.000Z</time>
</trkpt>
<trkpt lat="46.0245490" lon="10.3846000">
	<ele>1140.80</ele>
	<time>2024-07-24T06:44:02.000Z</time>
</trkpt>
<trkpt lat="46.0245480" lon="10.3846270">
	<ele>1141.00</ele>
	<time>2024-07-24T06:44:03.000Z</time>
</trkpt>
<trkpt lat="46.0245400" lon="10.3846470">
	<ele>1141.00</ele>
	<time>2024-07-24T06:44:04.000Z</time>
</trkpt>
<trkpt lat="46.0245330" lon="10.3846670">
	<ele>1141.00</ele>
	<time>2024-07-24T06:44:05.000Z</time>
</trkpt>
<trkpt lat="46.0245310" lon="10.3846830">
	<ele>1141.20</ele>
	<time>2024-07-24T06:44:06.000Z</time>
</trkpt>
<trkpt lat="46.0245240" lon="10.3847000">
	<ele>1141.20</ele>
	<time>2024-07-24T06:44:07.000Z</time>
</trkpt>
<trkpt lat="46.0245160" lon="10.3847150">
	<ele>1141.40</ele>
	<time>2024-07-24T06:44:08.000Z</time>
</trkpt>
<trkpt lat="46.0245120" lon="10.3847300">
	<ele>1141.60</ele>
	<time>2024-07-24T06:44:09.000Z</time>
</trkpt>
<trkpt lat="46.0245130" lon="10.3847450">
	<ele>1141.80</ele>
	<time>2024-07-24T06:44:10.000Z</time>
</trkpt>
<trkpt lat="46.0245130" lon="10.3847600">
	<ele>1141.80</ele>
	<time>2024-07-24T06:44:11.000Z</time>
</trkpt>
<trkpt lat="46.0245210" lon="10.3847770">
	<ele>1141.80</ele>
	<time>2024-07-24T06:44:12.000Z</time>
</trkpt>
<trkpt lat="46.0245300" lon="10.3847950">
	<ele>1142.00</ele>
	<time>2024-07-24T06:44:13.000Z</time>
</trkpt>
<trkpt lat="46.0245410" lon="10.3848190">
	<ele>1142.20</ele>
	<time>2024-07-24T06:44:14.000Z</time>
</trkpt>
<trkpt lat="46.0245460" lon="10.3848410">
	<ele>1142.40</ele>
	<time>2024-07-24T06:44:15.000Z</time>
</trkpt>
<trkpt lat="46.0245550" lon="10.3848530">
	<ele>1142.40</ele>
	<time>2024-07-24T06:44:16.000Z</time>
</trkpt>
<trkpt lat="46.0245600" lon="10.3848710">
	<ele>1142.60</ele>
	<time>2024-07-24T06:44:17.000Z</time>
</trkpt>
<trkpt lat="46.0245620" lon="10.3848840">
	<ele>1142.80</ele>
	<time>2024-07-24T06:44:18.000Z</time>
</trkpt>
<trkpt lat="46.0245640" lon="10.3849000">
	<ele>1143.00</ele>
	<time>2024-07-24T06:44:19.000Z</time>
</trkpt>
<trkpt lat="46.0245620" lon="10.3849100">
	<ele>1143.00</ele>
	<time>2024-07-24T06:44:20.000Z</time>
</trkpt>
<trkpt lat="46.0245640" lon="10.3849200">
	<ele>1143.20</ele>
	<time>2024-07-24T06:44:21.000Z</time>
</trkpt>
<trkpt lat="46.0245630" lon="10.3849290">
	<ele>1143.20</ele>
	<time>2024-07-24T06:44:22.000Z</time>
</trkpt>
<trkpt lat="46.0245590" lon="10.3849400">
	<ele>1143.40</ele>
	<time>2024-07-24T06:44:23.000Z</time>
</trkpt>
<trkpt lat="46.0245550" lon="10.3849530">
	<ele>1143.60</ele>
	<time>2024-07-24T06:44:24.000Z</time>
</trkpt>
<trkpt lat="46.0245530" lon="10.3849680">
	<ele>1143.80</ele>
	<time>2024-07-24T06:44:25.000Z</time>
</trkpt>
<trkpt lat="46.0245520" lon="10.3849820">
	<ele>1143.80</ele>
	<time>2024-07-24T06:44:26.000Z</time>
</trkpt>
<trkpt lat="46.0245500" lon="10.3849920">
	<ele>1144.20</ele>
	<time>2024-07-24T06:44:27.000Z</time>
</trkpt>
<trkpt lat="46.0245500" lon="10.3850030">
	<ele>1144.40</ele>
	<time>2024-07-24T06:44:28.000Z</time>
</trkpt>
<trkpt lat="46.0245470" lon="10.3850150">
	<ele>1144.60</ele>
	<time>2024-07-24T06:44:29.000Z</time>
</trkpt>
<trkpt lat="46.0245350" lon="10.3850340">
	<ele>1144.60</ele>
	<time>2024-07-24T06:44:30.000Z</time>
</trkpt>
<trkpt lat="46.0245290" lon="10.3850540">
	<ele>1144.80</ele>
	<time>2024-07-24T06:44:31.000Z</time>
</trkpt>
<trkpt lat="46.0245210" lon="10.3850670">
	<ele>1145.00</ele>
	<time>2024-07-24T06:44:32.000Z</time>
</trkpt>
<trkpt lat="46.0245120" lon="10.3850650">
	<ele>1145.20</ele>
	<time>2024-07-24T06:44:33.000Z</time>
</trkpt>
<trkpt lat="46.0245040" lon="10.3850730">
	<ele>1145.40</ele>
	<time>2024-07-24T06:44:34.000Z</time>
</trkpt>
<trkpt lat="46.0245000" lon="10.3850850">
	<ele>1145.40</ele>
	<time>2024-07-24T06:44:35.000Z</time>
</trkpt>
<trkpt lat="46.0244970" lon="10.3850960">
	<ele>1145.60</ele>
	<time>2024-07-24T06:44:36.000Z</time>
</trkpt>
<trkpt lat="46.0244930" lon="10.3851060">
	<ele>1145.60</ele>
	<time>2024-07-24T06:44:37.000Z</time>
</trkpt>
<trkpt lat="46.0244860" lon="10.3851190">
	<ele>1145.80</ele>
	<time>2024-07-24T06:44:38.000Z</time>
</trkpt>
<trkpt lat="46.0244800" lon="10.3851310">
	<ele>1145.80</ele>
	<time>2024-07-24T06:44:39.000Z</time>
</trkpt>
<trkpt lat="46.0244730" lon="10.3851420">
	<ele>1145.80</ele>
	<time>2024-07-24T06:44:40.000Z</time>
</trkpt>
<trkpt lat="46.0244710" lon="10.3851560">
	<ele>1146.00</ele>
	<time>2024-07-24T06:44:41.000Z</time>
</trkpt>
<trkpt lat="46.0244630" lon="10.3851740">
	<ele>1146.00</ele>
	<time>2024-07-24T06:44:42.000Z</time>
</trkpt>
<trkpt lat="46.0244590" lon="10.3851960">
	<ele>1146.00</ele>
	<time>2024-07-24T06:44:43.000Z</time>
</trkpt>
<trkpt lat="46.0244560" lon="10.3852100">
	<ele>1146.20</ele>
	<time>2024-07-24T06:44:44.000Z</time>
</trkpt>
<trkpt lat="46.0244520" lon="10.3852260">
	<ele>1146.20</ele>
	<time>2024-07-24T06:44:45.000Z</time>
</trkpt>
<trkpt lat="46.0244500" lon="10.3852360">
	<ele>1146.40</ele>
	<time>2024-07-24T06:44:46.000Z</time>
</trkpt>
<trkpt lat="46.0244490" lon="10.3852480">
	<ele>1146.40</ele>
	<time>2024-07-24T06:44:47.000Z</time>
</trkpt>
<trkpt lat="46.0244470" lon="10.3852580">
	<ele>1146.60</ele>
	<time>2024-07-24T06:44:48.000Z</time>
</trkpt>
<trkpt lat="46.0244410" lon="10.3852660">
	<ele>1146.60</ele>
	<time>2024-07-24T06:44:49.000Z</time>
</trkpt>
<trkpt lat="46.0244310" lon="10.3852830">
	<ele>1146.80</ele>
	<time>2024-07-24T06:44:50.000Z</time>
</trkpt>
<trkpt lat="46.0244180" lon="10.3853010">
	<ele>1146.80</ele>
	<time>2024-07-24T06:44:51.000Z</time>
</trkpt>
<trkpt lat="46.0244120" lon="10.3853270">
	<ele>1147.00</ele>
	<time>2024-07-24T06:44:52.000Z</time>
</trkpt>
<trkpt lat="46.0244030" lon="10.3853470">
	<ele>1147.20</ele>
	<time>2024-07-24T06:44:53.000Z</time>
</trkpt>
<trkpt lat="46.0243920" lon="10.3853600">
	<ele>1147.40</ele>
	<time>2024-07-24T06:44:54.000Z</time>
</trkpt>
<trkpt lat="46.0243820" lon="10.3853680">
	<ele>1147.60</ele>
	<time>2024-07-24T06:44:55.000Z</time>
</trkpt>
<trkpt lat="46.0243770" lon="10.3853700">
	<ele>1147.60</ele>
	<time>2024-07-24T06:44:56.000Z</time>
</trkpt>
<trkpt lat="46.0243680" lon="10.3853750">
	<ele>1147.80</ele>
	<time>2024-07-24T06:44:57.000Z</time>
</trkpt>
<trkpt lat="46.0243540" lon="10.3853770">
	<ele>1148.00</ele>
	<time>2024-07-24T06:44:58.000Z</time>
</trkpt>
<trkpt lat="46.0243410" lon="10.3853830">
	<ele>1148.20</ele>
	<time>2024-07-24T06:44:59.000Z</time>
</trkpt>
<trkpt lat="46.0243320" lon="10.3854100">
	<ele>1148.40</ele>
	<time>2024-07-24T06:45:00.000Z</time>
</trkpt>
<trkpt lat="46.0243270" lon="10.3854300">
	<ele>1148.40</ele>
	<time>2024-07-24T06:45:01.000Z</time>
</trkpt>
<trkpt lat="46.0243140" lon="10.3854400">
	<ele>1148.60</ele>
	<time>2024-07-24T06:45:02.000Z</time>
</trkpt>
<trkpt lat="46.0243050" lon="10.3854490">
	<ele>1148.80</ele>
	<time>2024-07-24T06:45:03.000Z</time>
</trkpt>
<trkpt lat="46.0242940" lon="10.3854540">
	<ele>1149.00</ele>
	<time>2024-07-24T06:45:04.000Z</time>
</trkpt>
<trkpt lat="46.0242800" lon="10.3854660">
	<ele>1149.00</ele>
	<time>2024-07-24T06:45:05.000Z</time>
</trkpt>
<trkpt lat="46.0242700" lon="10.3854790">
	<ele>1149.20</ele>
	<time>2024-07-24T06:45:06.000Z</time>
</trkpt>
<trkpt lat="46.0242610" lon="10.3854920">
	<ele>1149.60</ele>
	<time>2024-07-24T06:45:07.000Z</time>
</trkpt>
<trkpt lat="46.0242620" lon="10.3855070">
	<ele>1149.80</ele>
	<time>2024-07-24T06:45:08.000Z</time>
</trkpt>
<trkpt lat="46.0242520" lon="10.3855240">
	<ele>1149.80</ele>
	<time>2024-07-24T06:45:09.000Z</time>
</trkpt>
<trkpt lat="46.0242390" lon="10.3855370">
	<ele>1150.00</ele>
	<time>2024-07-24T06:45:10.000Z</time>
</trkpt>
<trkpt lat="46.0242260" lon="10.3855500">
	<ele>1150.20</ele>
	<time>2024-07-24T06:45:11.000Z</time>
</trkpt>
<trkpt lat="46.0242310" lon="10.3855670">
	<ele>1150.40</ele>
	<time>2024-07-24T06:45:12.000Z</time>
</trkpt>
<trkpt lat="46.0242390" lon="10.3855810">
	<ele>1150.60</ele>
	<time>2024-07-24T06:45:13.000Z</time>
</trkpt>
<trkpt lat="46.0242260" lon="10.3855810">
	<ele>1150.60</ele>
	<time>2024-07-24T06:45:14.000Z</time>
</trkpt>
<trkpt lat="46.0242110" lon="10.3855870">
	<ele>1150.80</ele>
	<time>2024-07-24T06:45:15.000Z</time>
</trkpt>
<trkpt lat="46.0242010" lon="10.3855960">
	<ele>1151.00</ele>
	<time>2024-07-24T06:45:16.000Z</time>
</trkpt>
<trkpt lat="46.0241960" lon="10.3856020">
	<ele>1151.00</ele>
	<time>2024-07-24T06:45:17.000Z</time>
</trkpt>
<trkpt lat="46.0241930" lon="10.3856040">
	<ele>1151.00</ele>
	<time>2024-07-24T06:45:18.000Z</time>
</trkpt>
<trkpt lat="46.0241920" lon="10.3856050">
	<ele>1151.20</ele>
	<time>2024-07-24T06:45:19.000Z</time>
</trkpt>
<trkpt lat="46.0241900" lon="10.3856060">
	<ele>1151.20</ele>
	<time>2024-07-24T06:45:20.000Z</time>
</trkpt>
<trkpt lat="46.0241900" lon="10.3856070">
	<ele>1151.40</ele>
	<time>2024-07-24T06:45:21.000Z</time>
</trkpt>
<trkpt lat="46.0241930" lon="10.3856140">
	<ele>1151.40</ele>
	<time>2024-07-24T06:45:22.000Z</time>
</trkpt>
<trkpt lat="46.0241820" lon="10.3856190">
	<ele>1151.40</ele>
	<time>2024-07-24T06:45:23.000Z</time>
</trkpt>
<trkpt lat="46.0241770" lon="10.3856300">
	<ele>1151.40</ele>
	<time>2024-07-24T06:45:24.000Z</time>
</trkpt>
<trkpt lat="46.0241700" lon="10.3856320">
	<ele>1151.60</ele>
	<time>2024-07-24T06:45:25.000Z</time>
</trkpt>
<trkpt lat="46.0241560" lon="10.3856320">
	<ele>1151.60</ele>
	<time>2024-07-24T06:45:26.000Z</time>
</trkpt>
<trkpt lat="46.0241420" lon="10.3856330">
	<ele>1151.60</ele>
	<time>2024-07-24T06:45:27.000Z</time>
</trkpt>
<trkpt lat="46.0241270" lon="10.3856330">
	<ele>1151.80</ele>
	<time>2024-07-24T06:45:28.000Z</time>
</trkpt>
<trkpt lat="46.0241100" lon="10.3856320">
	<ele>1152.00</ele>
	<time>2024-07-24T06:45:29.000Z</time>
</trkpt>
<trkpt lat="46.0241100" lon="10.3856400">
	<ele>1152.20</ele>
	<time>2024-07-24T06:45:30.000Z</time>
</trkpt>
<trkpt lat="46.0241070" lon="10.3856510">
	<ele>1152.40</ele>
	<time>2024-07-24T06:45:31.000Z</time>
</trkpt>
<trkpt lat="46.0241020" lon="10.3856570">
	<ele>1152.60</ele>
	<time>2024-07-24T06:45:32.000Z</time>
</trkpt>
<trkpt lat="46.0241010" lon="10.3856710">
	<ele>1152.60</ele>
	<time>2024-07-24T06:45:33.000Z</time>
</trkpt>
<trkpt lat="46.0240900" lon="10.3856850">
	<ele>1152.80</ele>
	<time>2024-07-24T06:45:34.000Z</time>
</trkpt>
<trkpt lat="46.0240750" lon="10.3856920">
	<ele>1152.80</ele>
	<time>2024-07-24T06:45:35.000Z</time>
</trkpt>
<trkpt lat="46.0240630" lon="10.3856920">
	<ele>1152.80</ele>
	<time>2024-07-24T06:45:36.000Z</time>
</trkpt>
<trkpt lat="46.0240510" lon="10.3856950">
	<ele>1153.00</ele>
	<time>2024-07-24T06:45:37.000Z</time>
</trkpt>
<trkpt lat="46.0240430" lon="10.3857030">
	<ele>1153.20</ele>
	<time>2024-07-24T06:45:38.000Z</time>
</trkpt>
<trkpt lat="46.0240340" lon="10.3857150">
	<ele>1153.20</ele>
	<time>2024-07-24T06:45:39.000Z</time>
</trkpt>
<trkpt lat="46.0240260" lon="10.3857270">
	<ele>1153.20</ele>
	<time>2024-07-24T06:45:40.000Z</time>
</trkpt>
<trkpt lat="46.0240140" lon="10.3857420">
	<ele>1153.20</ele>
	<time>2024-07-24T06:45:41.000Z</time>
</trkpt>
<trkpt lat="46.0240030" lon="10.3857550">
	<ele>1153.40</ele>
	<time>2024-07-24T06:45:42.000Z</time>
</trkpt>
<trkpt lat="46.0239930" lon="10.3857620">
	<ele>1153.40</ele>
	<time>2024-07-24T06:45:43.000Z</time>
</trkpt>
<trkpt lat="46.0239840" lon="10.3857700">
	<ele>1153.40</ele>
	<time>2024-07-24T06:45:44.000Z</time>
</trkpt>
<trkpt lat="46.0239780" lon="10.3857820">
	<ele>1153.40</ele>
	<time>2024-07-24T06:45:45.000Z</time>
</trkpt>
<trkpt lat="46.0239740" lon="10.3857940">
	<ele>1153.40</ele>
	<time>2024-07-24T06:45:46.000Z</time>
</trkpt>
<trkpt lat="46.0239610" lon="10.3858020">
	<ele>1153.40</ele>
	<time>2024-07-24T06:45:47.000Z</time>
</trkpt>
<trkpt lat="46.0239490" lon="10.3858090">
	<ele>1153.40</ele>
	<time>2024-07-24T06:45:48.000Z</time>
</trkpt>
<trkpt lat="46.0239340" lon="10.3858230">
	<ele>1153.40</ele>
	<time>2024-07-24T06:45:49.000Z</time>
</trkpt>
<trkpt lat="46.0239270" lon="10.3858320">
	<ele>1153.40</ele>
	<time>2024-07-24T06:45:50.000Z</time>
</trkpt>
<trkpt lat="46.0239260" lon="10.3858360">
	<ele>1153.40</ele>
	<time>2024-07-24T06:45:51.000Z</time>
</trkpt>
<trkpt lat="46.0239260" lon="10.3858550">
	<ele>1153.40</ele>
	<time>2024-07-24T06:45:52.000Z</time>
</trkpt>
<trkpt lat="46.0239330" lon="10.3858690">
	<ele>1153.60</ele>
	<time>2024-07-24T06:45:53.000Z</time>
</trkpt>
<trkpt lat="46.0239370" lon="10.3858850">
	<ele>1153.60</ele>
	<time>2024-07-24T06:45:54.000Z</time>
</trkpt>
<trkpt lat="46.0239290" lon="10.3859050">
	<ele>1153.60</ele>
	<time>2024-07-24T06:45:55.000Z</time>
</trkpt>
<trkpt lat="46.0239220" lon="10.3859210">
	<ele>1153.80</ele>
	<time>2024-07-24T06:45:56.000Z</time>
</trkpt>
<trkpt lat="46.0239110" lon="10.3859440">
	<ele>1153.80</ele>
	<time>2024-07-24T06:45:57.000Z</time>
</trkpt>
<trkpt lat="46.0239010" lon="10.3859670">
	<ele>1153.80</ele>
	<time>2024-07-24T06:45:58.000Z</time>
</trkpt>
<trkpt lat="46.0238990" lon="10.3859930">
	<ele>1153.80</ele>
	<time>2024-07-24T06:45:59.000Z</time>
</trkpt>
<trkpt lat="46.0238960" lon="10.3860080">
	<ele>1154.00</ele>
	<time>2024-07-24T06:46:00.000Z</time>
</trkpt>
<trkpt lat="46.0238930" lon="10.3860220">
	<ele>1154.00</ele>
	<time>2024-07-24T06:46:01.000Z</time>
</trkpt>
<trkpt lat="46.0238930" lon="10.3860370">
	<ele>1154.20</ele>
	<time>2024-07-24T06:46:02.000Z</time>
</trkpt>
<trkpt lat="46.0238940" lon="10.3860530">
	<ele>1154.20</ele>
	<time>2024-07-24T06:46:03.000Z</time>
</trkpt>
<trkpt lat="46.0238930" lon="10.3860710">
	<ele>1154.40</ele>
	<time>2024-07-24T06:46:04.000Z</time>
</trkpt>
<trkpt lat="46.0238870" lon="10.3860840">
	<ele>1154.60</ele>
	<time>2024-07-24T06:46:05.000Z</time>
</trkpt>
<trkpt lat="46.0238830" lon="10.3860970">
	<ele>1154.60</ele>
	<time>2024-07-24T06:46:06.000Z</time>
</trkpt>
<trkpt lat="46.0238840" lon="10.3861110">
	<ele>1154.80</ele>
	<time>2024-07-24T06:46:07.000Z</time>
</trkpt>
<trkpt lat="46.0238770" lon="10.3861220">
	<ele>1155.00</ele>
	<time>2024-07-24T06:46:08.000Z</time>
</trkpt>
<trkpt lat="46.0238730" lon="10.3861280">
	<ele>1155.20</ele>
	<time>2024-07-24T06:46:09.000Z</time>
</trkpt>
<trkpt lat="46.0238620" lon="10.3861440">
	<ele>1155.40</ele>
	<time>2024-07-24T06:46:10.000Z</time>
</trkpt>
<trkpt lat="46.0238560" lon="10.3861540">
	<ele>1155.40</ele>
	<time>2024-07-24T06:46:11.000Z</time>
</trkpt>
<trkpt lat="46.0238510" lon="10.3861680">
	<ele>1155.80</ele>
	<time>2024-07-24T06:46:12.000Z</time>
</trkpt>
<trkpt lat="46.0238440" lon="10.3861840">
	<ele>1155.80</ele>
	<time>2024-07-24T06:46:13.000Z</time>
</trkpt>
<trkpt lat="46.0238380" lon="10.3861930">
	<ele>1156.00</ele>
	<time>2024-07-24T06:46:14.000Z</time>
</trkpt>
<trkpt lat="46.0238320" lon="10.3862020">
	<ele>1156.20</ele>
	<time>2024-07-24T06:46:15.000Z</time>
</trkpt>
<trkpt lat="46.0238250" lon="10.3862150">
	<ele>1156.60</ele>
	<time>2024-07-24T06:46:16.000Z</time>
</trkpt>
<trkpt lat="46.0238190" lon="10.3862200">
	<ele>1156.80</ele>
	<time>2024-07-24T06:46:17.000Z</time>
</trkpt>
<trkpt lat="46.0238080" lon="10.3862300">
	<ele>1157.00</ele>
	<time>2024-07-24T06:46:18.000Z</time>
</trkpt>
<trkpt lat="46.0238000" lon="10.3862350">
	<ele>1157.20</ele>
	<time>2024-07-24T06:46:19.000Z</time>
</trkpt>
<trkpt lat="46.0237910" lon="10.3862410">
	<ele>1157.40</ele>
	<time>2024-07-24T06:46:20.000Z</time>
</trkpt>
<trkpt lat="46.0237820" lon="10.3862480">
	<ele>1157.60</ele>
	<time>2024-07-24T06:46:21.000Z</time>
</trkpt>
<trkpt lat="46.0237710" lon="10.3862480">
	<ele>1157.80</ele>
	<time>2024-07-24T06:46:22.000Z</time>
</trkpt>
<trkpt lat="46.0237580" lon="10.3862500">
	<ele>1158.00</ele>
	<time>2024-07-24T06:46:23.000Z</time>
</trkpt>
<trkpt lat="46.0237530" lon="10.3862520">
	<ele>1158.20</ele>
	<time>2024-07-24T06:46:24.000Z</time>
</trkpt>
<trkpt lat="46.0237490" lon="10.3862570">
	<ele>1158.40</ele>
	<time>2024-07-24T06:46:25.000Z</time>
</trkpt>
<trkpt lat="46.0237450" lon="10.3862580">
	<ele>1158.60</ele>
	<time>2024-07-24T06:46:26.000Z</time>
</trkpt>
<trkpt lat="46.0237430" lon="10.3862580">
	<ele>1158.80</ele>
	<time>2024-07-24T06:46:27.000Z</time>
</trkpt>
<trkpt lat="46.0237340" lon="10.3862540">
	<ele>1158.80</ele>
	<time>2024-07-24T06:46:28.000Z</time>
</trkpt>
<trkpt lat="46.0237220" lon="10.3862550">
	<ele>1159.00</ele>
	<time>2024-07-24T06:46:29.000Z</time>
</trkpt>
<trkpt lat="46.0237080" lon="10.3862620">
	<ele>1159.20</ele>
	<time>2024-07-24T06:46:30.000Z</time>
</trkpt>
<trkpt lat="46.0237000" lon="10.3862710">
	<ele>1159.40</ele>
	<time>2024-07-24T06:46:31.000Z</time>
</trkpt>
<trkpt lat="46.0237000" lon="10.3862880">
	<ele>1159.60</ele>
	<time>2024-07-24T06:46:32.000Z</time>
</trkpt>
<trkpt lat="46.0236950" lon="10.3863010">
	<ele>1159.80</ele>
	<time>2024-07-24T06:46:33.000Z</time>
</trkpt>
<trkpt lat="46.0236880" lon="10.3863170">
	<ele>1159.80</ele>
	<time>2024-07-24T06:46:34.000Z</time>
</trkpt>
<trkpt lat="46.0236820" lon="10.3863380">
	<ele>1160.00</ele>
	<time>2024-07-24T06:46:35.000Z</time>
</trkpt>
<trkpt lat="46.0236760" lon="10.3863540">
	<ele>1160.00</ele>
	<time>2024-07-24T06:46:36.000Z</time>
</trkpt>
<trkpt lat="46.0236660" lon="10.3863690">
	<ele>1160.40</ele>
	<time>2024-07-24T06:46:37.000Z</time>
</trkpt>
<trkpt lat="46.0236610" lon="10.3863810">
	<ele>1160.60</ele>
	<time>2024-07-24T06:46:38.000Z</time>
</trkpt>
<trkpt lat="46.0236590" lon="10.3863870">
	<ele>1160.80</ele>
	<time>2024-07-24T06:46:39.000Z</time>
</trkpt>
<trkpt lat="46.0236580" lon="10.3863960">
	<ele>1161.00</ele>
	<time>2024-07-24T06:46:40.000Z</time>
</trkpt>
<trkpt lat="46.0236530" lon="10.3864070">
	<ele>1161.00</ele>
	<time>2024-07-24T06:46:41.000Z</time>
</trkpt>
<trkpt lat="46.0236500" lon="10.3864280">
	<ele>1161.20</ele>
	<time>2024-07-24T06:46:42.000Z</time>
</trkpt>
<trkpt lat="46.0236520" lon="10.3864410">
	<ele>1161.40</ele>
	<time>2024-07-24T06:46:43.000Z</time>
</trkpt>
<trkpt lat="46.0236480" lon="10.3864520">
	<ele>1161.60</ele>
	<time>2024-07-24T06:46:44.000Z</time>
</trkpt>
<trkpt lat="46.0236410" lon="10.3864650">
	<ele>1161.60</ele>
	<time>2024-07-24T06:46:45.000Z</time>
</trkpt>
<trkpt lat="46.0236400" lon="10.3864810">
	<ele>1161.80</ele>
	<time>2024-07-24T06:46:46.000Z</time>
</trkpt>
<trkpt lat="46.0236410" lon="10.3864970">
	<ele>1162.00</ele>
	<time>2024-07-24T06:46:47.000Z</time>
</trkpt>
<trkpt lat="46.0236390" lon="10.3865120">
	<ele>1162.40</ele>
	<time>2024-07-24T06:46:48.000Z</time>
</trkpt>
<trkpt lat="46.0236360" lon="10.3865240">
	<ele>1162.40</ele>
	<time>2024-07-24T06:46:49.000Z</time>
</trkpt>
<trkpt lat="46.0236290" lon="10.3865320">
	<ele>1162.60</ele>
	<time>2024-07-24T06:46:50.000Z</time>
</trkpt>
<trkpt lat="46.0236260" lon="10.3865410">
	<ele>1162.80</ele>
	<time>2024-07-24T06:46:51.000Z</time>
</trkpt>
<trkpt lat="46.0236250" lon="10.3865470">
	<ele>1163.20</ele>
	<time>2024-07-24T06:46:52.000Z</time>
</trkpt>
<trkpt lat="46.0236150" lon="10.3865540">
	<ele>1163.40</ele>
	<time>2024-07-24T06:46:53.000Z</time>
</trkpt>
<trkpt lat="46.0236080" lon="10.3865660">
	<ele>1163.60</ele>
	<time>2024-07-24T06:46:54.000Z</time>
</trkpt>
<trkpt lat="46.0236010" lon="10.3865800">
	<ele>1163.60</ele>
	<time>2024-07-24T06:46:55.000Z</time>
</trkpt>
<trkpt lat="46.0235970" lon="10.3865970">
	<ele>1164.00</ele>
	<time>2024-07-24T06:46:56.000Z</time>
</trkpt>
<trkpt lat="46.0235950" lon="10.3866120">
	<ele>1164.20</ele>
	<time>2024-07-24T06:46:57.000Z</time>
</trkpt>
<trkpt lat="46.0235880" lon="10.3866210">
	<ele>1164.40</ele>
	<time>2024-07-24T06:46:58.000Z</time>
</trkpt>
<trkpt lat="46.0235840" lon="10.3866330">
	<ele>1164.60</ele>
	<time>2024-07-24T06:46:59.000Z</time>
</trkpt>
<trkpt lat="46.0235850" lon="10.3866470">
	<ele>1164.80</ele>
	<time>2024-07-24T06:47:00.000Z</time>
</trkpt>
<trkpt lat="46.0235830" lon="10.3866550">
	<ele>1165.00</ele>
	<time>2024-07-24T06:47:01.000Z</time>
</trkpt>
<trkpt lat="46.0235800" lon="10.3866670">
	<ele>1165.20</ele>
	<time>2024-07-24T06:47:02.000Z</time>
</trkpt>
<trkpt lat="46.0235780" lon="10.3866800">
	<ele>1165.40</ele>
	<time>2024-07-24T06:47:03.000Z</time>
</trkpt>
<trkpt lat="46.0235780" lon="10.3866910">
	<ele>1165.60</ele>
	<time>2024-07-24T06:47:04.000Z</time>
</trkpt>
<trkpt lat="46.0235750" lon="10.3867020">
	<ele>1165.80</ele>
	<time>2024-07-24T06:47:05.000Z</time>
</trkpt>
<trkpt lat="46.0235750" lon="10.3867160">
	<ele>1166.20</ele>
	<time>2024-07-24T06:47:06.000Z</time>
</trkpt>
<trkpt lat="46.0235670" lon="10.3867320">
	<ele>1166.40</ele>
	<time>2024-07-24T06:47:07.000Z</time>
</trkpt>
<trkpt lat="46.0235640" lon="10.3867450">
	<ele>1166.60</ele>
	<time>2024-07-24T06:47:08.000Z</time>
</trkpt>
<trkpt lat="46.0235610" lon="10.3867640">
	<ele>1166.80</ele>
	<time>2024-07-24T06:47:09.000Z</time>
</trkpt>
<trkpt lat="46.0235620" lon="10.3867780">
	<ele>1167.00</ele>
	<time>2024-07-24T06:47:10.000Z</time>
</trkpt>
<trkpt lat="46.0235590" lon="10.3867930">
	<ele>1167.20</ele>
	<time>2024-07-24T06:47:11.000Z</time>
</trkpt>
<trkpt lat="46.0235600" lon="10.3868070">
	<ele>1167.20</ele>
	<time>2024-07-24T06:47:12.000Z</time>
</trkpt>
<trkpt lat="46.0235580" lon="10.3868230">
	<ele>1167.40</ele>
	<time>2024-07-24T06:47:13.000Z</time>
</trkpt>
<trkpt lat="46.0235480" lon="10.3868420">
	<ele>1167.80</ele>
	<time>2024-07-24T06:47:14.000Z</time>
</trkpt>
<trkpt lat="46.0235440" lon="10.3868550">
	<ele>1167.80</ele>
	<time>2024-07-24T06:47:15.000Z</time>
</trkpt>
<trkpt lat="46.0235400" lon="10.3868700">
	<ele>1168.00</ele>
	<time>2024-07-24T06:47:16.000Z</time>
</trkpt>
<trkpt lat="46.0235320" lon="10.3868870">
	<ele>1168.00</ele>
	<time>2024-07-24T06:47:17.000Z</time>
</trkpt>
<trkpt lat="46.0235260" lon="10.3869050">
	<ele>1168.20</ele>
	<time>2024-07-24T06:47:18.000Z</time>
</trkpt>
<trkpt lat="46.0235170" lon="10.3869180">
	<ele>1168.40</ele>
	<time>2024-07-24T06:47:19.000Z</time>
</trkpt>
<trkpt lat="46.0235120" lon="10.3869290">
	<ele>1168.60</ele>
	<time>2024-07-24T06:47:20.000Z</time>
</trkpt>
<trkpt lat="46.0235060" lon="10.3869390">
	<ele>1168.60</ele>
	<time>2024-07-24T06:47:21.000Z</time>
</trkpt>
<trkpt lat="46.0235000" lon="10.3869490">
	<ele>1168.80</ele>
	<time>2024-07-24T06:47:22.000Z</time>
</trkpt>
<trkpt lat="46.0234960" lon="10.3869590">
	<ele>1168.80</ele>
	<time>2024-07-24T06:47:23.000Z</time>
</trkpt>
<trkpt lat="46.0234920" lon="10.3869710">
	<ele>1168.80</ele>
	<time>2024-07-24T06:47:24.000Z</time>
</trkpt>
<trkpt lat="46.0234870" lon="10.3869840">
	<ele>1169.00</ele>
	<time>2024-07-24T06:47:25.000Z</time>
</trkpt>
<trkpt lat="46.0234840" lon="10.3869980">
	<ele>1169.00</ele>
	<time>2024-07-24T06:47:26.000Z</time>
</trkpt>
<trkpt lat="46.0234810" lon="10.3870110">
	<ele>1169.00</ele>
	<time>2024-07-24T06:47:27.000Z</time>
</trkpt>
<trkpt lat="46.0234750" lon="10.3870250">
	<ele>1169.20</ele>
	<time>2024-07-24T06:47:28.000Z</time>
</trkpt>
<trkpt lat="46.0234650" lon="10.3870350">
	<ele>1169.20</ele>
	<time>2024-07-24T06:47:29.000Z</time>
</trkpt>
<trkpt lat="46.0234560" lon="10.3870480">
	<ele>1169.40</ele>
	<time>2024-07-24T06:47:30.000Z</time>
</trkpt>
<trkpt lat="46.0234500" lon="10.3870590">
	<ele>1169.60</ele>
	<time>2024-07-24T06:47:31.000Z</time>
</trkpt>
<trkpt lat="46.0234460" lon="10.3870690">
	<ele>1169.60</ele>
	<time>2024-07-24T06:47:32.000Z</time>
</trkpt>
<trkpt lat="46.0234420" lon="10.3870810">
	<ele>1169.80</ele>
	<time>2024-07-24T06:47:33.000Z</time>
</trkpt>
<trkpt lat="46.0234360" lon="10.3870920">
	<ele>1169.80</ele>
	<time>2024-07-24T06:47:34.000Z</time>
</trkpt>
<trkpt lat="46.0234260" lon="10.3870980">
	<ele>1170.00</ele>
	<time>2024-07-24T06:47:35.000Z</time>
</trkpt>
<trkpt lat="46.0234140" lon="10.3871000">
	<ele>1170.00</ele>
	<time>2024-07-24T06:47:36.000Z</time>
</trkpt>
<trkpt lat="46.0234050" lon="10.3871080">
	<ele>1170.00</ele>
	<time>2024-07-24T06:47:37.000Z</time>
</trkpt>
<trkpt lat="46.0233950" lon="10.3871160">
	<ele>1170.20</ele>
	<time>2024-07-24T06:47:38.000Z</time>
</trkpt>
<trkpt lat="46.0233840" lon="10.3871220">
	<ele>1170.40</ele>
	<time>2024-07-24T06:47:39.000Z</time>
</trkpt>
<trkpt lat="46.0233720" lon="10.3871280">
	<ele>1170.60</ele>
	<time>2024-07-24T06:47:40.000Z</time>
</trkpt>
<trkpt lat="46.0233670" lon="10.3871360">
	<ele>1170.80</ele>
	<time>2024-07-24T06:47:41.000Z</time>
</trkpt>
<trkpt lat="46.0233660" lon="10.3871480">
	<ele>1170.80</ele>
	<time>2024-07-24T06:47:42.000Z</time>
</trkpt>
<trkpt lat="46.0233630" lon="10.3871630">
	<ele>1171.00</ele>
	<time>2024-07-24T06:47:43.000Z</time>
</trkpt>
<trkpt lat="46.0233580" lon="10.3871770">
	<ele>1171.20</ele>
	<time>2024-07-24T06:47:44.000Z</time>
</trkpt>
<trkpt lat="46.0233550" lon="10.3871900">
	<ele>1171.40</ele>
	<time>2024-07-24T06:47:45.000Z</time>
</trkpt>
<trkpt lat="46.0233530" lon="10.3871980">
	<ele>1171.40</ele>
	<time>2024-07-24T06:47:46.000Z</time>
</trkpt>
<trkpt lat="46.0233530" lon="10.3872080">
	<ele>1171.60</ele>
	<time>2024-07-24T06:47:47.000Z</time>
</trkpt>
<trkpt lat="46.0233540" lon="10.3872210">
	<ele>1171.80</ele>
	<time>2024-07-24T06:47:48.000Z</time>
</trkpt>
<trkpt lat="46.0233570" lon="10.3872340">
	<ele>1171.80</ele>
	<time>2024-07-24T06:47:49.000Z</time>
</trkpt>
<trkpt lat="46.0233620" lon="10.3872490">
	<ele>1172.20</ele>
	<time>2024-07-24T06:47:50.000Z</time>
</trkpt>
<trkpt lat="46.0233640" lon="10.3872660">
	<ele>1172.40</ele>
	<time>2024-07-24T06:47:51.000Z</time>
</trkpt>
<trkpt lat="46.0233570" lon="10.3872790">
	<ele>1172.60</ele>
	<time>2024-07-24T06:47:52.000Z</time>
</trkpt>
<trkpt lat="46.0233520" lon="10.3872960">
	<ele>1172.80</ele>
	<time>2024-07-24T06:47:53.000Z</time>
</trkpt>
<trkpt lat="46.0233470" lon="10.3873130">
	<ele>1173.00</ele>
	<time>2024-07-24T06:47:54.000Z</time>
</trkpt>
<trkpt lat="46.0233430" lon="10.3873320">
	<ele>1173.20</ele>
	<time>2024-07-24T06:47:55.000Z</time>
</trkpt>
<trkpt lat="46.0233340" lon="10.3873460">
	<ele>1173.40</ele>
	<time>2024-07-24T06:47:56.000Z</time>
</trkpt>
<trkpt lat="46.0233320" lon="10.3873630">
	<ele>1173.40</ele>
	<time>2024-07-24T06:47:57.000Z</time>
</trkpt>
<trkpt lat="46.0233280" lon="10.3873740">
	<ele>1173.60</ele>
	<time>2024-07-24T06:47:58.000Z</time>
</trkpt>
<trkpt lat="46.0233200" lon="10.3873810">
	<ele>1174.00</ele>
	<time>2024-07-24T06:47:59.000Z</time>
</trkpt>
<trkpt lat="46.0233050" lon="10.3873860">
	<ele>1174.20</ele>
	<time>2024-07-24T06:48:00.000Z</time>
</trkpt>
<trkpt lat="46.0232990" lon="10.3873940">
	<ele>1174.20</ele>
	<time>2024-07-24T06:48:01.000Z</time>
</trkpt>
<trkpt lat="46.0232860" lon="10.3874050">
	<ele>1174.40</ele>
	<time>2024-07-24T06:48:02.000Z</time>
</trkpt>
<trkpt lat="46.0232820" lon="10.3874180">
	<ele>1174.60</ele>
	<time>2024-07-24T06:48:03.000Z</time>
</trkpt>
<trkpt lat="46.0232750" lon="10.3874300">
	<ele>1174.80</ele>
	<time>2024-07-24T06:48:04.000Z</time>
</trkpt>
<trkpt lat="46.0232700" lon="10.3874400">
	<ele>1175.00</ele>
	<time>2024-07-24T06:48:05.000Z</time>
</trkpt>
<trkpt lat="46.0232690" lon="10.3874490">
	<ele>1175.20</ele>
	<time>2024-07-24T06:48:06.000Z</time>
</trkpt>
<trkpt lat="46.0232660" lon="10.3874640">
	<ele>1175.40</ele>
	<time>2024-07-24T06:48:07.000Z</time>
</trkpt>
<trkpt lat="46.0232610" lon="10.3874730">
	<ele>1175.60</ele>
	<time>2024-07-24T06:48:08.000Z</time>
</trkpt>
<trkpt lat="46.0232580" lon="10.3874840">
	<ele>1175.80</ele>
	<time>2024-07-24T06:48:09.000Z</time>
</trkpt>
<trkpt lat="46.0232550" lon="10.3874960">
	<ele>1176.00</ele>
	<time>2024-07-24T06:48:10.000Z</time>
</trkpt>
<trkpt lat="46.0232450" lon="10.3875110">
	<ele>1176.20</ele>
	<time>2024-07-24T06:48:11.000Z</time>
</trkpt>
<trkpt lat="46.0232360" lon="10.3875260">
	<ele>1176.40</ele>
	<time>2024-07-24T06:48:12.000Z</time>
</trkpt>
<trkpt lat="46.0232390" lon="10.3875430">
	<ele>1176.60</ele>
	<time>2024-07-24T06:48:13.000Z</time>
</trkpt>
<trkpt lat="46.0232340" lon="10.3875530">
	<ele>1176.80</ele>
	<time>2024-07-24T06:48:14.000Z</time>
</trkpt>
<trkpt lat="46.0232290" lon="10.3875580">
	<ele>1177.00</ele>
	<time>2024-07-24T06:48:15.000Z</time>
</trkpt>
<trkpt lat="46.0232240" lon="10.3875610">
	<ele>1177.20</ele>
	<time>2024-07-24T06:48:16.000Z</time>
</trkpt>
<trkpt lat="46.0232230" lon="10.3875660">
	<ele>1177.20</ele>
	<time>2024-07-24T06:48:17.000Z</time>
</trkpt>
<trkpt lat="46.0232210" lon="10.3875690">
	<ele>1177.40</ele>
	<time>2024-07-24T06:48:18.000Z</time>
</trkpt>
<trkpt lat="46.0232200" lon="10.3875690">
	<ele>1177.40</ele>
	<time>2024-07-24T06:48:19.000Z</time>
</trkpt>
<trkpt lat="46.0232210" lon="10.3875660">
	<ele>1177.40</ele>
	<time>2024-07-24T06:48:20.000Z</time>
</trkpt>
<trkpt lat="46.0232200" lon="10.3875610">
	<ele>1177.60</ele>
	<time>2024-07-24T06:48:21.000Z</time>
</trkpt>
<trkpt lat="46.0232200" lon="10.3875580">
	<ele>1177.60</ele>
	<time>2024-07-24T06:48:22.000Z</time>
</trkpt>
<trkpt lat="46.0232200" lon="10.3875580">
	<ele>1177.60</ele>
	<time>2024-07-24T06:48:23.000Z</time>
</trkpt>
<trkpt lat="46.0232200" lon="10.3875570">
	<ele>1177.60</ele>
	<time>2024-07-24T06:48:24.000Z</time>
</trkpt>
<trkpt lat="46.0232180" lon="10.3875570">
	<ele>1177.60</ele>
	<time>2024-07-24T06:48:25.000Z</time>
</trkpt>
<trkpt lat="46.0232170" lon="10.3875560">
	<ele>1177.60</ele>
	<time>2024-07-24T06:48:26.000Z</time>
</trkpt>
<trkpt lat="46.0232160" lon="10.3875550">
	<ele>1177.60</ele>
	<time>2024-07-24T06:48:27.000Z</time>
</trkpt>
<trkpt lat="46.0232180" lon="10.3875530">
	<ele>1177.60</ele>
	<time>2024-07-24T06:48:28.000Z</time>
</trkpt>
<trkpt lat="46.0232170" lon="10.3875550">
	<ele>1177.60</ele>
	<time>2024-07-24T06:48:29.000Z</time>
</trkpt>
<trkpt lat="46.0232170" lon="10.3875550">
	<ele>1177.60</ele>
	<time>2024-07-24T06:48:30.000Z</time>
</trkpt>
<trkpt lat="46.0232170" lon="10.3875550">
	<ele>1177.60</ele>
	<time>2024-07-24T06:48:31.000Z</time>
</trkpt>
<trkpt lat="46.0232170" lon="10.3875550">
	<ele>1177.60</ele>
	<time>2024-07-24T06:48:32.000Z</time>
</trkpt>
<trkpt lat="46.0232170" lon="10.3875550">
	<ele>1177.60</ele>
	<time>2024-07-24T06:48:33.000Z</time>
</trkpt>
<trkpt lat="46.0232170" lon="10.3875550">
	<ele>1177.60</ele>
	<time>2024-07-24T06:48:34.000Z</time>
</trkpt>
<trkpt lat="46.0232170" lon="10.3875550">
	<ele>1177.40</ele>
	<time>2024-07-24T06:48:35.000Z</time>
</trkpt>
<trkpt lat="46.0232170" lon="10.3875550">
	<ele>1177.40</ele>
	<time>2024-07-24T06:48:36.000Z</time>
</trkpt>
<trkpt lat="46.0232170" lon="10.3875550">
	<ele>1177.40</ele>
	<time>2024-07-24T06:48:37.000Z</time>
</trkpt>
<trkpt lat="46.0232170" lon="10.3875550">
	<ele>1177.40</ele>
	<time>2024-07-24T06:48:38.000Z</time>
</trkpt>
<trkpt lat="46.0232170" lon="10.3875550">
	<ele>1177.40</ele>
	<time>2024-07-24T06:48:39.000Z</time>
</trkpt>
<trkpt lat="46.0232170" lon="10.3875550">
	<ele>1177.40</ele>
	<time>2024-07-24T06:48:40.000Z</time>
</trkpt>
<trkpt lat="46.0232170" lon="10.3875550">
	<ele>1177.40</ele>
	<time>2024-07-24T06:48:41.000Z</time>
</trkpt>
<trkpt lat="46.0232170" lon="10.3875550">
	<ele>1177.40</ele>
	<time>2024-07-24T06:48:42.000Z</time>
</trkpt>
<trkpt lat="46.0232170" lon="10.3875550">
	<ele>1177.40</ele>
	<time>2024-07-24T06:48:43.000Z</time>
</trkpt>
<trkpt lat="46.0232170" lon="10.3875550">
	<ele>1177.40</ele>
	<time>2024-07-24T06:48:44.000Z</time>
</trkpt>
<trkpt lat="46.0232170" lon="10.3875550">
	<ele>1177.40</ele>
	<time>2024-07-24T06:48:45.000Z</time>
</trkpt>
<trkpt lat="46.0232170" lon="10.3875530">
	<ele>1177.40</ele>
	<time>2024-07-24T06:48:46.000Z</time>
</trkpt>
<trkpt lat="46.0232160" lon="10.3875530">
	<ele>1177.40</ele>
	<time>2024-07-24T06:48:47.000Z</time>
</trkpt>
<trkpt lat="46.0232160" lon="10.3875530">
	<ele>1177.40</ele>
	<time>2024-07-24T06:48:48.000Z</time>
</trkpt>
<trkpt lat="46.0232160" lon="10.3875520">
	<ele>1177.40</ele>
	<time>2024-07-24T06:48:49.000Z</time>
</trkpt>
<trkpt lat="46.0232160" lon="10.3875520">
	<ele>1177.40</ele>
	<time>2024-07-24T06:48:50.000Z</time>
</trkpt>
<trkpt lat="46.0232160" lon="10.3875510">
	<ele>1177.20</ele>
	<time>2024-07-24T06:48:51.000Z</time>
</trkpt>
<trkpt lat="46.0232160" lon="10.3875510">
	<ele>1177.20</ele>
	<time>2024-07-24T06:48:52.000Z</time>
</trkpt>
<trkpt lat="46.0232160" lon="10.3875510">
	<ele>1177.20</ele>
	<time>2024-07-24T06:48:53.000Z</time>
</trkpt>
<trkpt lat="46.0232160" lon="10.3875500">
	<ele>1177.20</ele>
	<time>2024-07-24T06:48:54.000Z</time>
</trkpt>
<trkpt lat="46.0232160" lon="10.3875500">
	<ele>1177.20</ele>
	<time>2024-07-24T06:48:55.000Z</time>
</trkpt>
<trkpt lat="46.0232160" lon="10.3875500">
	<ele>1177.20</ele>
	<time>2024-07-24T06:48:56.000Z</time>
</trkpt>
<trkpt lat="46.0232160" lon="10.3875500">
	<ele>1177.20</ele>
	<time>2024-07-24T06:48:57.000Z</time>
</trkpt>
<trkpt lat="46.0232160" lon="10.3875500">
	<ele>1177.20</ele>
	<time>2024-07-24T06:48:58.000Z</time>
</trkpt>
<trkpt lat="46.0232160" lon="10.3875490">
	<ele>1177.20</ele>
	<time>2024-07-24T06:48:59.000Z</time>
</trkpt>
<trkpt lat="46.0232160" lon="10.3875490">
	<ele>1177.20</ele>
	<time>2024-07-24T06:49:00.000Z</time>
</trkpt>
<trkpt lat="46.0232170" lon="10.3875480">
	<ele>1177.20</ele>
	<time>2024-07-24T06:49:01.000Z</time>
</trkpt>
<trkpt lat="46.0232170" lon="10.3875470">
	<ele>1177.20</ele>
	<time>2024-07-24T06:49:02.000Z</time>
</trkpt>
<trkpt lat="46.0232170" lon="10.3875460">
	<ele>1177.20</ele>
	<time>2024-07-24T06:49:03.000Z</time>
</trkpt>
<trkpt lat="46.0232170" lon="10.3875450">
	<ele>1177.20</ele>
	<time>2024-07-24T06:49:04.000Z</time>
</trkpt>
<trkpt lat="46.0232210" lon="10.3875450">
	<ele>1177.20</ele>
	<time>2024-07-24T06:49:05.000Z</time>
</trkpt>
<trkpt lat="46.0232220" lon="10.3875450">
	<ele>1177.00</ele>
	<time>2024-07-24T06:49:06.000Z</time>
</trkpt>
<trkpt lat="46.0232230" lon="10.3875450">
	<ele>1177.00</ele>
	<time>2024-07-24T06:49:07.000Z</time>
</trkpt>
<trkpt lat="46.0232240" lon="10.3875450">
	<ele>1177.00</ele>
	<time>2024-07-24T06:49:08.000Z</time>
</trkpt>
<trkpt lat="46.0232240" lon="10.3875440">
	<ele>1177.00</ele>
	<time>2024-07-24T06:49:09.000Z</time>
</trkpt>
<trkpt lat="46.0232240" lon="10.3875440">
	<ele>1177.00</ele>
	<time>2024-07-24T06:49:10.000Z</time>
</trkpt>
<trkpt lat="46.0232220" lon="10.3875450">
	<ele>1177.00</ele>
	<time>2024-07-24T06:49:11.000Z</time>
</trkpt>
<trkpt lat="46.0232180" lon="10.3875530">
	<ele>1177.00</ele>
	<time>2024-07-24T06:49:12.000Z</time>
</trkpt>
<trkpt lat="46.0232140" lon="10.3875640">
	<ele>1177.00</ele>
	<time>2024-07-24T06:49:13.000Z</time>
</trkpt>
<trkpt lat="46.0232060" lon="10.3875760">
	<ele>1177.40</ele>
	<time>2024-07-24T06:49:14.000Z</time>
</trkpt>
<trkpt lat="46.0231970" lon="10.3875900">
	<ele>1177.60</ele>
	<time>2024-07-24T06:49:15.000Z</time>
</trkpt>
<trkpt lat="46.0231910" lon="10.3876020">
	<ele>1177.80</ele>
	<time>2024-07-24T06:49:16.000Z</time>
</trkpt>
<trkpt lat="46.0231870" lon="10.3876160">
	<ele>1177.80</ele>
	<time>2024-07-24T06:49:17.000Z</time>
</trkpt>
<trkpt lat="46.0231790" lon="10.3876300">
	<ele>1178.00</ele>
	<time>2024-07-24T06:49:18.000Z</time>
</trkpt>
<trkpt lat="46.0231730" lon="10.3876450">
	<ele>1178.20</ele>
	<time>2024-07-24T06:49:19.000Z</time>
</trkpt>
<trkpt lat="46.0231690" lon="10.3876550">
	<ele>1178.40</ele>
	<time>2024-07-24T06:49:20.000Z</time>
</trkpt>
<trkpt lat="46.0231720" lon="10.3876630">
	<ele>1178.40</ele>
	<time>2024-07-24T06:49:21.000Z</time>
</trkpt>
<trkpt lat="46.0231760" lon="10.3876710">
	<ele>1178.60</ele>
	<time>2024-07-24T06:49:22.000Z</time>
</trkpt>
<trkpt lat="46.0231740" lon="10.3876760">
	<ele>1179.00</ele>
	<time>2024-07-24T06:49:23.000Z</time>
</trkpt>
<trkpt lat="46.0231750" lon="10.3876800">
	<ele>1179.00</ele>
	<time>2024-07-24T06:49:24.000Z</time>
</trkpt>
<trkpt lat="46.0231750" lon="10.3876870">
	<ele>1179.20</ele>
	<time>2024-07-24T06:49:25.000Z</time>
</trkpt>
<trkpt lat="46.0231670" lon="10.3876960">
	<ele>1179.40</ele>
	<time>2024-07-24T06:49:26.000Z</time>
</trkpt>
<trkpt lat="46.0231640" lon="10.3877160">
	<ele>1179.40</ele>
	<time>2024-07-24T06:49:27.000Z</time>
</trkpt>
<trkpt lat="46.0231600" lon="10.3877310">
	<ele>1179.60</ele>
	<time>2024-07-24T06:49:28.000Z</time>
</trkpt>
<trkpt lat="46.0231520" lon="10.3877380">
	<ele>1179.60</ele>
	<time>2024-07-24T06:49:29.000Z</time>
</trkpt>
<trkpt lat="46.0231430" lon="10.3877540">
	<ele>1179.80</ele>
	<time>2024-07-24T06:49:30.000Z</time>
</trkpt>
<trkpt lat="46.0231370" lon="10.3877690">
	<ele>1180.00</ele>
	<time>2024-07-24T06:49:31.000Z</time>
</trkpt>
<trkpt lat="46.0231350" lon="10.3877920">
	<ele>1180.20</ele>
	<time>2024-07-24T06:49:32.000Z</time>
</trkpt>
<trkpt lat="46.0231260" lon="10.3878040">
	<ele>1180.40</ele>
	<time>2024-07-24T06:49:33.000Z</time>
</trkpt>
<trkpt lat="46.0231230" lon="10.3878250">
	<ele>1180.60</ele>
	<time>2024-07-24T06:49:34.000Z</time>
</trkpt>
<trkpt lat="46.0231150" lon="10.3878360">
	<ele>1180.60</ele>
	<time>2024-07-24T06:49:35.000Z</time>
</trkpt>
<trkpt lat="46.0231140" lon="10.3878610">
	<ele>1180.80</ele>
	<time>2024-07-24T06:49:36.000Z</time>
</trkpt>
<trkpt lat="46.0231140" lon="10.3878810">
	<ele>1180.80</ele>
	<time>2024-07-24T06:49:37.000Z</time>
</trkpt>
<trkpt lat="46.0231140" lon="10.3878980">
	<ele>1181.00</ele>
	<time>2024-07-24T06:49:38.000Z</time>
</trkpt>
<trkpt lat="46.0231140" lon="10.3879110">
	<ele>1181.20</ele>
	<time>2024-07-24T06:49:39.000Z</time>
</trkpt>
<trkpt lat="46.0231120" lon="10.3879250">
	<ele>1181.40</ele>
	<time>2024-07-24T06:49:40.000Z</time>
</trkpt>
<trkpt lat="46.0231110" lon="10.3879440">
	<ele>1181.60</ele>
	<time>2024-07-24T06:49:41.000Z</time>
</trkpt>
<trkpt lat="46.0231110" lon="10.3879620">
	<ele>1181.60</ele>
	<time>2024-07-24T06:49:42.000Z</time>
</trkpt>
<trkpt lat="46.0231100" lon="10.3879790">
	<ele>1181.80</ele>
	<time>2024-07-24T06:49:43.000Z</time>
</trkpt>
<trkpt lat="46.0231070" lon="10.3879980">
	<ele>1182.00</ele>
	<time>2024-07-24T06:49:44.000Z</time>
</trkpt>
<trkpt lat="46.0231080" lon="10.3880180">
	<ele>1182.00</ele>
	<time>2024-07-24T06:49:45.000Z</time>
</trkpt>
<trkpt lat="46.0231050" lon="10.3880370">
	<ele>1182.20</ele>
	<time>2024-07-24T06:49:46.000Z</time>
</trkpt>
<trkpt lat="46.0231080" lon="10.3880540">
	<ele>1182.20</ele>
	<time>2024-07-24T06:49:47.000Z</time>
</trkpt>
<trkpt lat="46.0231110" lon="10.3880710">
	<ele>1182.60</ele>
	<time>2024-07-24T06:49:48.000Z</time>
</trkpt>
<trkpt lat="46.0231070" lon="10.3880840">
	<ele>1182.80</ele>
	<time>2024-07-24T06:49:49.000Z</time>
</trkpt>
<trkpt lat="46.0230940" lon="10.3881000">
	<ele>1183.20</ele>
	<time>2024-07-24T06:49:50.000Z</time>
</trkpt>
<trkpt lat="46.0230910" lon="10.3881110">
	<ele>1183.20</ele>
	<time>2024-07-24T06:49:51.000Z</time>
</trkpt>
<trkpt lat="46.0230870" lon="10.3881230">
	<ele>1183.40</ele>
	<time>2024-07-24T06:49:52.000Z</time>
</trkpt>
<trkpt lat="46.0230840" lon="10.3881350">
	<ele>1183.60</ele>
	<time>2024-07-24T06:49:53.000Z</time>
</trkpt>
<trkpt lat="46.0230810" lon="10.3881480">
	<ele>1183.80</ele>
	<time>2024-07-24T06:49:54.000Z</time>
</trkpt>
<trkpt lat="46.0230810" lon="10.3881650">
	<ele>1183.80</ele>
	<time>2024-07-24T06:49:55.000Z</time>
</trkpt>
<trkpt lat="46.0230840" lon="10.3881850">
	<ele>1184.00</ele>
	<time>2024-07-24T06:49:56.000Z</time>
</trkpt>
<trkpt lat="46.0230870" lon="10.3882070">
	<ele>1184.20</ele>
	<time>2024-07-24T06:49:57.000Z</time>
</trkpt>
<trkpt lat="46.0230890" lon="10.3882250">
	<ele>1184.20</ele>
	<time>2024-07-24T06:49:58.000Z</time>
</trkpt>
<trkpt lat="46.0230930" lon="10.3882450">
	<ele>1184.40</ele>
	<time>2024-07-24T06:49:59.000Z</time>
</trkpt>
<trkpt lat="46.0230920" lon="10.3882660">
	<ele>1184.60</ele>
	<time>2024-07-24T06:50:00.000Z</time>
</trkpt>
<trkpt lat="46.0230940" lon="10.3882840">
	<ele>1184.60</ele>
	<time>2024-07-24T06:50:01.000Z</time>
</trkpt>
<trkpt lat="46.0230930" lon="10.3883060">
	<ele>1184.80</ele>
	<time>2024-07-24T06:50:02.000Z</time>
</trkpt>
<trkpt lat="46.0230960" lon="10.3883270">
	<ele>1185.00</ele>
	<time>2024-07-24T06:50:03.000Z</time>
</trkpt>
<trkpt lat="46.0231000" lon="10.3883480">
	<ele>1185.40</ele>
	<time>2024-07-24T06:50:04.000Z</time>
</trkpt>
<trkpt lat="46.0231070" lon="10.3883630">
	<ele>1185.60</ele>
	<time>2024-07-24T06:50:05.000Z</time>
</trkpt>
<trkpt lat="46.0231150" lon="10.3883820">
	<ele>1185.80</ele>
	<time>2024-07-24T06:50:06.000Z</time>
</trkpt>
<trkpt lat="46.0231220" lon="10.3884030">
	<ele>1186.00</ele>
	<time>2024-07-24T06:50:07.000Z</time>
</trkpt>
<trkpt lat="46.0231260" lon="10.3884200">
	<ele>1186.40</ele>
	<time>2024-07-24T06:50:08.000Z</time>
</trkpt>
<trkpt lat="46.0231300" lon="10.3884350">
	<ele>1186.40</ele>
	<time>2024-07-24T06:50:09.000Z</time>
</trkpt>
<trkpt lat="46.0231270" lon="10.3884490">
	<ele>1186.60</ele>
	<time>2024-07-24T06:50:10.000Z</time>
</trkpt>
<trkpt lat="46.0231260" lon="10.3884680">
	<ele>1186.80</ele>
	<time>2024-07-24T06:50:11.000Z</time>
</trkpt>
<trkpt lat="46.0231260" lon="10.3884870">
	<ele>1187.00</ele>
	<time>2024-07-24T06:50:12.000Z</time>
</trkpt>
<trkpt lat="46.0231240" lon="10.3885020">
	<ele>1187.00</ele>
	<time>2024-07-24T06:50:13.000Z</time>
</trkpt>
<trkpt lat="46.0231210" lon="10.3885180">
	<ele>1187.20</ele>
	<time>2024-07-24T06:50:14.000Z</time>
</trkpt>
<trkpt lat="46.0231210" lon="10.3885300">
	<ele>1187.40</ele>
	<time>2024-07-24T06:50:15.000Z</time>
</trkpt>
<trkpt lat="46.0231190" lon="10.3885420">
	<ele>1187.40</ele>
	<time>2024-07-24T06:50:16.000Z</time>
</trkpt>
<trkpt lat="46.0231160" lon="10.3885550">
	<ele>1187.80</ele>
	<time>2024-07-24T06:50:17.000Z</time>
</trkpt>
<trkpt lat="46.0231150" lon="10.3885690">
	<ele>1188.00</ele>
	<time>2024-07-24T06:50:18.000Z</time>
</trkpt>
<trkpt lat="46.0231120" lon="10.3885820">
	<ele>1188.20</ele>
	<time>2024-07-24T06:50:19.000Z</time>
</trkpt>
<trkpt lat="46.0231090" lon="10.3885900">
	<ele>1188.40</ele>
	<time>2024-07-24T06:50:20.000Z</time>
</trkpt>
<trkpt lat="46.0231040" lon="10.3886010">
	<ele>1188.40</ele>
	<time>2024-07-24T06:50:21.000Z</time>
</trkpt>
<trkpt lat="46.0230990" lon="10.3886130">
	<ele>1188.80</ele>
	<time>2024-07-24T06:50:22.000Z</time>
</trkpt>
<trkpt lat="46.0230880" lon="10.3886250">
	<ele>1188.80</ele>
	<time>2024-07-24T06:50:23.000Z</time>
</trkpt>
<trkpt lat="46.0230860" lon="10.3886370">
	<ele>1189.00</ele>
	<time>2024-07-24T06:50:24.000Z</time>
</trkpt>
<trkpt lat="46.0230820" lon="10.3886480">
	<ele>1189.20</ele>
	<time>2024-07-24T06:50:25.000Z</time>
</trkpt>
<trkpt lat="46.0230750" lon="10.3886590">
	<ele>1189.40</ele>
	<time>2024-07-24T06:50:26.000Z</time>
</trkpt>
<trkpt lat="46.0230710" lon="10.3886720">
	<ele>1189.80</ele>
	<time>2024-07-24T06:50:27.000Z</time>
</trkpt>
<trkpt lat="46.0230690" lon="10.3886840">
	<ele>1190.00</ele>
	<time>2024-07-24T06:50:28.000Z</time>
</trkpt>
<trkpt lat="46.0230660" lon="10.3886970">
	<ele>1190.00</ele>
	<time>2024-07-24T06:50:29.000Z</time>
</trkpt>
<trkpt lat="46.0230620" lon="10.3887080">
	<ele>1190.20</ele>
	<time>2024-07-24T06:50:30.000Z</time>
</trkpt>
<trkpt lat="46.0230570" lon="10.3887190">
	<ele>1190.60</ele>
	<time>2024-07-24T06:50:31.000Z</time>
</trkpt>
<trkpt lat="46.0230520" lon="10.3887280">
	<ele>1191.00</ele>
	<time>2024-07-24T06:50:32.000Z</time>
</trkpt>
<trkpt lat="46.0230480" lon="10.3887370">
	<ele>1191.20</ele>
	<time>2024-07-24T06:50:33.000Z</time>
</trkpt>
<trkpt lat="46.0230450" lon="10.3887490">
	<ele>1191.40</ele>
	<time>2024-07-24T06:50:34.000Z</time>
</trkpt>
<trkpt lat="46.0230460" lon="10.3887600">
	<ele>1191.60</ele>
	<time>2024-07-24T06:50:35.000Z</time>
</trkpt>
<trkpt lat="46.0230440" lon="10.3887690">
	<ele>1191.60</ele>
	<time>2024-07-24T06:50:36.000Z</time>
</trkpt>
<trkpt lat="46.0230410" lon="10.3887740">
	<ele>1191.80</ele>
	<time>2024-07-24T06:50:37.000Z</time>
</trkpt>
<trkpt lat="46.0230340" lon="10.3887790">
	<ele>1192.00</ele>
	<time>2024-07-24T06:50:38.000Z</time>
</trkpt>
<trkpt lat="46.0230260" lon="10.3887890">
	<ele>1192.20</ele>
	<time>2024-07-24T06:50:39.000Z</time>
</trkpt>
<trkpt lat="46.0230200" lon="10.3887920">
	<ele>1192.40</ele>
	<time>2024-07-24T06:50:40.000Z</time>
</trkpt>
<trkpt lat="46.0230140" lon="10.3888000">
	<ele>1192.60</ele>
	<time>2024-07-24T06:50:41.000Z</time>
</trkpt>
<trkpt lat="46.0230120" lon="10.3888100">
	<ele>1192.60</ele>
	<time>2024-07-24T06:50:42.000Z</time>
</trkpt>
<trkpt lat="46.0230100" lon="10.3888240">
	<ele>1193.00</ele>
	<time>2024-07-24T06:50:43.000Z</time>
</trkpt>
<trkpt lat="46.0230010" lon="10.3888350">
	<ele>1193.20</ele>
	<time>2024-07-24T06:50:44.000Z</time>
</trkpt>
<trkpt lat="46.0229980" lon="10.3888480">
	<ele>1193.20</ele>
	<time>2024-07-24T06:50:45.000Z</time>
</trkpt>
<trkpt lat="46.0230030" lon="10.3888730">
	<ele>1193.40</ele>
	<time>2024-07-24T06:50:46.000Z</time>
</trkpt>
<trkpt lat="46.0230040" lon="10.3888970">
	<ele>1193.60</ele>
	<time>2024-07-24T06:50:47.000Z</time>
</trkpt>
<trkpt lat="46.0230070" lon="10.3889170">
	<ele>1193.80</ele>
	<time>2024-07-24T06:50:48.000Z</time>
</trkpt>
<trkpt lat="46.0230080" lon="10.3889270">
	<ele>1193.80</ele>
	<time>2024-07-24T06:50:49.000Z</time>
</trkpt>
<trkpt lat="46.0230070" lon="10.3889420">
	<ele>1194.00</ele>
	<time>2024-07-24T06:50:50.000Z</time>
</trkpt>
<trkpt lat="46.0230080" lon="10.3889460">
	<ele>1194.20</ele>
	<time>2024-07-24T06:50:51.000Z</time>
</trkpt>
<trkpt lat="46.0230020" lon="10.3889500">
	<ele>1194.40</ele>
	<time>2024-07-24T06:50:52.000Z</time>
</trkpt>
<trkpt lat="46.0230030" lon="10.3889570">
	<ele>1194.60</ele>
	<time>2024-07-24T06:50:53.000Z</time>
</trkpt>
<trkpt lat="46.0230030" lon="10.3889590">
	<ele>1194.60</ele>
	<time>2024-07-24T06:50:54.000Z</time>
</trkpt>
<trkpt lat="46.0230050" lon="10.3889600">
	<ele>1194.80</ele>
	<time>2024-07-24T06:50:55.000Z</time>
</trkpt>
<trkpt lat="46.0230010" lon="10.3889690">
	<ele>1195.20</ele>
	<time>2024-07-24T06:50:56.000Z</time>
</trkpt>
<trkpt lat="46.0230000" lon="10.3889700">
	<ele>1195.40</ele>
	<time>2024-07-24T06:50:57.000Z</time>
</trkpt>
<trkpt lat="46.0230000" lon="10.3889720">
	<ele>1195.60</ele>
	<time>2024-07-24T06:50:58.000Z</time>
</trkpt>
<trkpt lat="46.0230010" lon="10.3889770">
	<ele>1195.60</ele>
	<time>2024-07-24T06:50:59.000Z</time>
</trkpt>
<trkpt lat="46.0230030" lon="10.3889870">
	<ele>1195.60</ele>
	<time>2024-07-24T06:51:00.000Z</time>
</trkpt>
<trkpt lat="46.0230030" lon="10.3890030">
	<ele>1195.80</ele>
	<time>2024-07-24T06:51:01.000Z</time>
</trkpt>
<trkpt lat="46.0230030" lon="10.3890160">
	<ele>1195.80</ele>
	<time>2024-07-24T06:51:02.000Z</time>
</trkpt>
<trkpt lat="46.0230030" lon="10.3890240">
	<ele>1195.80</ele>
	<time>2024-07-24T06:51:03.000Z</time>
</trkpt>
<trkpt lat="46.0229980" lon="10.3890350">
	<ele>1196.00</ele>
	<time>2024-07-24T06:51:04.000Z</time>
</trkpt>
<trkpt lat="46.0229950" lon="10.3890490">
	<ele>1196.40</ele>
	<time>2024-07-24T06:51:05.000Z</time>
</trkpt>
<trkpt lat="46.0229920" lon="10.3890650">
	<ele>1196.60</ele>
	<time>2024-07-24T06:51:06.000Z</time>
</trkpt>
<trkpt lat="46.0229900" lon="10.3890780">
	<ele>1196.80</ele>
	<time>2024-07-24T06:51:07.000Z</time>
</trkpt>
<trkpt lat="46.0229880" lon="10.3890880">
	<ele>1197.00</ele>
	<time>2024-07-24T06:51:08.000Z</time>
</trkpt>
<trkpt lat="46.0229870" lon="10.3890980">
	<ele>1197.00</ele>
	<time>2024-07-24T06:51:09.000Z</time>
</trkpt>
<trkpt lat="46.0229830" lon="10.3891120">
	<ele>1197.20</ele>
	<time>2024-07-24T06:51:10.000Z</time>
</trkpt>
<trkpt lat="46.0229790" lon="10.3891250">
	<ele>1197.40</ele>
	<time>2024-07-24T06:51:11.000Z</time>
</trkpt>
<trkpt lat="46.0229750" lon="10.3891380">
	<ele>1197.40</ele>
	<time>2024-07-24T06:51:12.000Z</time>
</trkpt>
<trkpt lat="46.0229700" lon="10.3891500">
	<ele>1197.60</ele>
	<time>2024-07-24T06:51:13.000Z</time>
</trkpt>
<trkpt lat="46.0229670" lon="10.3891620">
	<ele>1197.60</ele>
	<time>2024-07-24T06:51:14.000Z</time>
</trkpt>
<trkpt lat="46.0229650" lon="10.3891730">
	<ele>1197.80</ele>
	<time>2024-07-24T06:51:15.000Z</time>
</trkpt>
<trkpt lat="46.0229670" lon="10.3891850">
	<ele>1198.00</ele>
	<time>2024-07-24T06:51:16.000Z</time>
</trkpt>
<trkpt lat="46.0229670" lon="10.3891940">
	<ele>1198.00</ele>
	<time>2024-07-24T06:51:17.000Z</time>
</trkpt>
<trkpt lat="46.0229640" lon="10.3892030">
	<ele>1198.00</ele>
	<time>2024-07-24T06:51:18.000Z</time>
</trkpt>
<trkpt lat="46.0229590" lon="10.3892130">
	<ele>1198.20</ele>
	<time>2024-07-24T06:51:19.000Z</time>
</trkpt>
<trkpt lat="46.0229520" lon="10.3892220">
	<ele>1198.40</ele>
	<time>2024-07-24T06:51:20.000Z</time>
</trkpt>
<trkpt lat="46.0229490" lon="10.3892280">
	<ele>1198.60</ele>
	<time>2024-07-24T06:51:21.000Z</time>
</trkpt>
<trkpt lat="46.0229470" lon="10.3892390">
	<ele>1198.60</ele>
	<time>2024-07-24T06:51:22.000Z</time>
</trkpt>
<trkpt lat="46.0229450" lon="10.3892520">
	<ele>1198.80</ele>
	<time>2024-07-24T06:51:23.000Z</time>
</trkpt>
<trkpt lat="46.0229390" lon="10.3892650">
	<ele>1198.80</ele>
	<time>2024-07-24T06:51:24.000Z</time>
</trkpt>
<trkpt lat="46.0229360" lon="10.3892790">
	<ele>1199.20</ele>
	<time>2024-07-24T06:51:25.000Z</time>
</trkpt>
<trkpt lat="46.0229320" lon="10.3892910">
	<ele>1199.40</ele>
	<time>2024-07-24T06:51:26.000Z</time>
</trkpt>
<trkpt lat="46.0229300" lon="10.3893090">
	<ele>1199.60</ele>
	<time>2024-07-24T06:51:27.000Z</time>
</trkpt>
<trkpt lat="46.0229260" lon="10.3893260">
	<ele>1199.80</ele>
	<time>2024-07-24T06:51:28.000Z</time>
</trkpt>
<trkpt lat="46.0229210" lon="10.3893450">
	<ele>1199.80</ele>
	<time>2024-07-24T06:51:29.000Z</time>
</trkpt>
<trkpt lat="46.0229200" lon="10.3893520">
	<ele>1200.00</ele>
	<time>2024-07-24T06:51:30.000Z</time>
</trkpt>
<trkpt lat="46.0229160" lon="10.3893620">
	<ele>1200.20</ele>
	<time>2024-07-24T06:51:31.000Z</time>
</trkpt>
<trkpt lat="46.0229090" lon="10.3893680">
	<ele>1200.40</ele>
	<time>2024-07-24T06:51:32.000Z</time>
</trkpt>
<trkpt lat="46.0228990" lon="10.3893750">
	<ele>1200.60</ele>
	<time>2024-07-24T06:51:33.000Z</time>
</trkpt>
<trkpt lat="46.0228920" lon="10.3893850">
	<ele>1200.60</ele>
	<time>2024-07-24T06:51:34.000Z</time>
</trkpt>
<trkpt lat="46.0228830" lon="10.3893910">
	<ele>1200.80</ele>
	<time>2024-07-24T06:51:35.000Z</time>
</trkpt>
<trkpt lat="46.0228730" lon="10.3894000">
	<ele>1201.00</ele>
	<time>2024-07-24T06:51:36.000Z</time>
</trkpt>
<trkpt lat="46.0228630" lon="10.3894040">
	<ele>1201.20</ele>
	<time>2024-07-24T06:51:37.000Z</time>
</trkpt>
<trkpt lat="46.0228530" lon="10.3894060">
	<ele>1201.40</ele>
	<time>2024-07-24T06:51:38.000Z</time>
</trkpt>
<trkpt lat="46.0228510" lon="10.3894210">
	<ele>1201.60</ele>
	<time>2024-07-24T06:51:39.000Z</time>
</trkpt>
<trkpt lat="46.0228440" lon="10.3894420">
	<ele>1201.80</ele>
	<time>2024-07-24T06:51:40.000Z</time>
</trkpt>
<trkpt lat="46.0228420" lon="10.3894580">
	<ele>1202.00</ele>
	<time>2024-07-24T06:51:41.000Z</time>
</trkpt>
<trkpt lat="46.0228430" lon="10.3894760">
	<ele>1202.00</ele>
	<time>2024-07-24T06:51:42.000Z</time>
</trkpt>
<trkpt lat="46.0228410" lon="10.3894890">
	<ele>1202.20</ele>
	<time>2024-07-24T06:51:43.000Z</time>
</trkpt>
<trkpt lat="46.0228360" lon="10.3894990">
	<ele>1202.40</ele>
	<time>2024-07-24T06:51:44.000Z</time>
</trkpt>
<trkpt lat="46.0228320" lon="10.3895130">
	<ele>1202.60</ele>
	<time>2024-07-24T06:51:45.000Z</time>
</trkpt>
<trkpt lat="46.0228270" lon="10.3895240">
	<ele>1202.80</ele>
	<time>2024-07-24T06:51:46.000Z</time>
</trkpt>
<trkpt lat="46.0228220" lon="10.3895400">
	<ele>1203.00</ele>
	<time>2024-07-24T06:51:47.000Z</time>
</trkpt>
<trkpt lat="46.0228190" lon="10.3895540">
	<ele>1203.00</ele>
	<time>2024-07-24T06:51:48.000Z</time>
</trkpt>
<trkpt lat="46.0228160" lon="10.3895680">
	<ele>1203.20</ele>
	<time>2024-07-24T06:51:49.000Z</time>
</trkpt>
<trkpt lat="46.0228110" lon="10.3895820">
	<ele>1203.40</ele>
	<time>2024-07-24T06:51:50.000Z</time>
</trkpt>
<trkpt lat="46.0228040" lon="10.3895960">
	<ele>1203.40</ele>
	<time>2024-07-24T06:51:51.000Z</time>
</trkpt>
<trkpt lat="46.0228000" lon="10.3896110">
	<ele>1203.40</ele>
	<time>2024-07-24T06:51:52.000Z</time>
</trkpt>
<trkpt lat="46.0227980" lon="10.3896230">
	<ele>1203.40</ele>
	<time>2024-07-24T06:51:53.000Z</time>
</trkpt>
<trkpt lat="46.0227960" lon="10.3896320">
	<ele>1203.60</ele>
	<time>2024-07-24T06:51:54.000Z</time>
</trkpt>
<trkpt lat="46.0227930" lon="10.3896380">
	<ele>1203.80</ele>
	<time>2024-07-24T06:51:55.000Z</time>
</trkpt>
<trkpt lat="46.0227910" lon="10.3896480">
	<ele>1204.00</ele>
	<time>2024-07-24T06:51:56.000Z</time>
</trkpt>
<trkpt lat="46.0227910" lon="10.3896610">
	<ele>1204.20</ele>
	<time>2024-07-24T06:51:57.000Z</time>
</trkpt>
<trkpt lat="46.0227930" lon="10.3896730">
	<ele>1204.40</ele>
	<time>2024-07-24T06:51:58.000Z</time>
</trkpt>
<trkpt lat="46.0227980" lon="10.3896890">
	<ele>1204.40</ele>
	<time>2024-07-24T06:51:59.000Z</time>
</trkpt>
<trkpt lat="46.0228020" lon="10.3897080">
	<ele>1204.40</ele>
	<time>2024-07-24T06:52:00.000Z</time>
</trkpt>
<trkpt lat="46.0228050" lon="10.3897150">
	<ele>1204.40</ele>
	<time>2024-07-24T06:52:01.000Z</time>
</trkpt>
<trkpt lat="46.0228000" lon="10.3897240">
	<ele>1204.60</ele>
	<time>2024-07-24T06:52:02.000Z</time>
</trkpt>
<trkpt lat="46.0228030" lon="10.3897300">
	<ele>1204.80</ele>
	<time>2024-07-24T06:52:03.000Z</time>
</trkpt>
<trkpt lat="46.0227990" lon="10.3897350">
	<ele>1204.80</ele>
	<time>2024-07-24T06:52:04.000Z</time>
</trkpt>
<trkpt lat="46.0228010" lon="10.3897400">
	<ele>1204.80</ele>
	<time>2024-07-24T06:52:05.000Z</time>
</trkpt>
<trkpt lat="46.0228010" lon="10.3897520">
	<ele>1205.00</ele>
	<time>2024-07-24T06:52:06.000Z</time>
</trkpt>
<trkpt lat="46.0228000" lon="10.3897620">
	<ele>1205.00</ele>
	<time>2024-07-24T06:52:07.000Z</time>
</trkpt>
<trkpt lat="46.0227980" lon="10.3897710">
	<ele>1205.40</ele>
	<time>2024-07-24T06:52:08.000Z</time>
</trkpt>
<trkpt lat="46.0227940" lon="10.3897810">
	<ele>1205.60</ele>
	<time>2024-07-24T06:52:09.000Z</time>
</trkpt>
<trkpt lat="46.0227930" lon="10.3897870">
	<ele>1205.60</ele>
	<time>2024-07-24T06:52:10.000Z</time>
</trkpt>
<trkpt lat="46.0227910" lon="10.3897970">
	<ele>1205.80</ele>
	<time>2024-07-24T06:52:11.000Z</time>
</trkpt>
<trkpt lat="46.0227930" lon="10.3898030">
	<ele>1205.80</ele>
	<time>2024-07-24T06:52:12.000Z</time>
</trkpt>
<trkpt lat="46.0227940" lon="10.3898050">
	<ele>1206.00</ele>
	<time>2024-07-24T06:52:13.000Z</time>
</trkpt>
<trkpt lat="46.0227900" lon="10.3898120">
	<ele>1206.00</ele>
	<time>2024-07-24T06:52:14.000Z</time>
</trkpt>
<trkpt lat="46.0227930" lon="10.3898160">
	<ele>1206.20</ele>
	<time>2024-07-24T06:52:15.000Z</time>
</trkpt>
<trkpt lat="46.0227940" lon="10.3898180">
	<ele>1206.20</ele>
	<time>2024-07-24T06:52:16.000Z</time>
</trkpt>
<trkpt lat="46.0227940" lon="10.3898190">
	<ele>1206.40</ele>
	<time>2024-07-24T06:52:17.000Z</time>
</trkpt>
<trkpt lat="46.0227940" lon="10.3898220">
	<ele>1206.60</ele>
	<time>2024-07-24T06:52:18.000Z</time>
</trkpt>
<trkpt lat="46.0227900" lon="10.3898390">
	<ele>1206.80</ele>
	<time>2024-07-24T06:52:19.000Z</time>
</trkpt>
<trkpt lat="46.0227790" lon="10.3898550">
	<ele>1207.00</ele>
	<time>2024-07-24T06:52:20.000Z</time>
</trkpt>
<trkpt lat="46.0227760" lon="10.3898570">
	<ele>1207.00</ele>
	<time>2024-07-24T06:52:21.000Z</time>
</trkpt>
<trkpt lat="46.0227710" lon="10.3898750">
	<ele>1207.20</ele>
	<time>2024-07-24T06:52:22.000Z</time>
</trkpt>
<trkpt lat="46.0227720" lon="10.3898950">
	<ele>1207.20</ele>
	<time>2024-07-24T06:52:23.000Z</time>
</trkpt>
<trkpt lat="46.0227740" lon="10.3899100">
	<ele>1207.40</ele>
	<time>2024-07-24T06:52:24.000Z</time>
</trkpt>
<trkpt lat="46.0227740" lon="10.3899250">
	<ele>1207.40</ele>
	<time>2024-07-24T06:52:25.000Z</time>
</trkpt>
<trkpt lat="46.0227740" lon="10.3899410">
	<ele>1207.60</ele>
	<time>2024-07-24T06:52:26.000Z</time>
</trkpt>
<trkpt lat="46.0227770" lon="10.3899490">
	<ele>1207.80</ele>
	<time>2024-07-24T06:52:27.000Z</time>
</trkpt>
<trkpt lat="46.0227780" lon="10.3899610">
	<ele>1208.00</ele>
	<time>2024-07-24T06:52:28.000Z</time>
</trkpt>
<trkpt lat="46.0227820" lon="10.3899780">
	<ele>1208.00</ele>
	<time>2024-07-24T06:52:29.000Z</time>
</trkpt>
<trkpt lat="46.0227870" lon="10.3899930">
	<ele>1208.20</ele>
	<time>2024-07-24T06:52:30.000Z</time>
</trkpt>
<trkpt lat="46.0227890" lon="10.3900060">
	<ele>1208.20</ele>
	<time>2024-07-24T06:52:31.000Z</time>
</trkpt>
<trkpt lat="46.0227880" lon="10.3900200">
	<ele>1208.40</ele>
	<time>2024-07-24T06:52:32.000Z</time>
</trkpt>
<trkpt lat="46.0227870" lon="10.3900370">
	<ele>1208.60</ele>
	<time>2024-07-24T06:52:33.000Z</time>
</trkpt>
<trkpt lat="46.0227850" lon="10.3900540">
	<ele>1208.80</ele>
	<time>2024-07-24T06:52:34.000Z</time>
</trkpt>
<trkpt lat="46.0227860" lon="10.3900690">
	<ele>1209.00</ele>
	<time>2024-07-24T06:52:35.000Z</time>
</trkpt>
<trkpt lat="46.0227840" lon="10.3900890">
	<ele>1209.00</ele>
	<time>2024-07-24T06:52:36.000Z</time>
</trkpt>
<trkpt lat="46.0227820" lon="10.3901030">
	<ele>1209.20</ele>
	<time>2024-07-24T06:52:37.000Z</time>
</trkpt>
<trkpt lat="46.0227840" lon="10.3901170">
	<ele>1209.40</ele>
	<time>2024-07-24T06:52:38.000Z</time>
</trkpt>
<trkpt lat="46.0227830" lon="10.3901340">
	<ele>1209.60</ele>
	<time>2024-07-24T06:52:39.000Z</time>
</trkpt>
<trkpt lat="46.0227820" lon="10.3901510">
	<ele>1210.00</ele>
	<time>2024-07-24T06:52:40.000Z</time>
</trkpt>
<trkpt lat="46.0227770" lon="10.3901700">
	<ele>1210.20</ele>
	<time>2024-07-24T06:52:41.000Z</time>
</trkpt>
<trkpt lat="46.0227780" lon="10.3901900">
	<ele>1210.40</ele>
	<time>2024-07-24T06:52:42.000Z</time>
</trkpt>
<trkpt lat="46.0227850" lon="10.3902120">
	<ele>1210.60</ele>
	<time>2024-07-24T06:52:43.000Z</time>
</trkpt>
<trkpt lat="46.0227870" lon="10.3902360">
	<ele>1210.80</ele>
	<time>2024-07-24T06:52:44.000Z</time>
</trkpt>
<trkpt lat="46.0227890" lon="10.3902580">
	<ele>1211.00</ele>
	<time>2024-07-24T06:52:45.000Z</time>
</trkpt>
<trkpt lat="46.0227850" lon="10.3902870">
	<ele>1211.20</ele>
	<time>2024-07-24T06:52:46.000Z</time>
</trkpt>
<trkpt lat="46.0227780" lon="10.3903100">
	<ele>1211.20</ele>
	<time>2024-07-24T06:52:47.000Z</time>
</trkpt>
<trkpt lat="46.0227730" lon="10.3903300">
	<ele>1211.20</ele>
	<time>2024-07-24T06:52:48.000Z</time>
</trkpt>
<trkpt lat="46.0227690" lon="10.3903460">
	<ele>1211.60</ele>
	<time>2024-07-24T06:52:49.000Z</time>
</trkpt>
<trkpt lat="46.0227590" lon="10.3903660">
	<ele>1211.60</ele>
	<time>2024-07-24T06:52:50.000Z</time>
</trkpt>
<trkpt lat="46.0227580" lon="10.3903870">
	<ele>1211.80</ele>
	<time>2024-07-24T06:52:51.000Z</time>
</trkpt>
<trkpt lat="46.0227560" lon="10.3904020">
	<ele>1212.00</ele>
	<time>2024-07-24T06:52:52.000Z</time>
</trkpt>
<trkpt lat="46.0227500" lon="10.3904180">
	<ele>1212.20</ele>
	<time>2024-07-24T06:52:53.000Z</time>
</trkpt>
<trkpt lat="46.0227420" lon="10.3904290">
	<ele>1212.20</ele>
	<time>2024-07-24T06:52:54.000Z</time>
</trkpt>
<trkpt lat="46.0227330" lon="10.3904410">
	<ele>1212.40</ele>
	<time>2024-07-24T06:52:55.000Z</time>
</trkpt>
<trkpt lat="46.0227290" lon="10.3904550">
	<ele>1212.60</ele>
	<time>2024-07-24T06:52:56.000Z</time>
</trkpt>
<trkpt lat="46.0227260" lon="10.3904710">
	<ele>1212.80</ele>
	<time>2024-07-24T06:52:57.000Z</time>
</trkpt>
<trkpt lat="46.0227240" lon="10.3904870">
	<ele>1213.00</ele>
	<time>2024-07-24T06:52:58.000Z</time>
</trkpt>
<trkpt lat="46.0227220" lon="10.3905020">
	<ele>1213.20</ele>
	<time>2024-07-24T06:52:59.000Z</time>
</trkpt>
<trkpt lat="46.0227180" lon="10.3905140">
	<ele>1213.20</ele>
	<time>2024-07-24T06:53:00.000Z</time>
</trkpt>
<trkpt lat="46.0227120" lon="10.3905260">
	<ele>1213.40</ele>
	<time>2024-07-24T06:53:01.000Z</time>
</trkpt>
<trkpt lat="46.0227120" lon="10.3905390">
	<ele>1213.60</ele>
	<time>2024-07-24T06:53:02.000Z</time>
</trkpt>
<trkpt lat="46.0227140" lon="10.3905530">
	<ele>1213.80</ele>
	<time>2024-07-24T06:53:03.000Z</time>
</trkpt>
<trkpt lat="46.0227110" lon="10.3905680">
	<ele>1214.00</ele>
	<time>2024-07-24T06:53:04.000Z</time>
</trkpt>
<trkpt lat="46.0227090" lon="10.3905830">
	<ele>1214.20</ele>
	<time>2024-07-24T06:53:05.000Z</time>
</trkpt>
<trkpt lat="46.0227060" lon="10.3905950">
	<ele>1214.40</ele>
	<time>2024-07-24T06:53:06.000Z</time>
</trkpt>
<trkpt lat="46.0227040" lon="10.3906060">
	<ele>1214.60</ele>
	<time>2024-07-24T06:53:07.000Z</time>
</trkpt>
<trkpt lat="46.0226990" lon="10.3906170">
	<ele>1214.80</ele>
	<time>2024-07-24T06:53:08.000Z</time>
</trkpt>
<trkpt lat="46.0226920" lon="10.3906300">
	<ele>1215.20</ele>
	<time>2024-07-24T06:53:09.000Z</time>
</trkpt>
<trkpt lat="46.0226870" lon="10.3906470">
	<ele>1215.40</ele>
	<time>2024-07-24T06:53:10.000Z</time>
</trkpt>
<trkpt lat="46.0226830" lon="10.3906640">
	<ele>1215.60</ele>
	<time>2024-07-24T06:53:11.000Z</time>
</trkpt>
<trkpt lat="46.0226820" lon="10.3906800">
	<ele>1215.80</ele>
	<time>2024-07-24T06:53:12.000Z</time>
</trkpt>
<trkpt lat="46.0226810" lon="10.3906930">
	<ele>1215.80</ele>
	<time>2024-07-24T06:53:13.000Z</time>
</trkpt>
<trkpt lat="46.0226840" lon="10.3907070">
	<ele>1216.00</ele>
	<time>2024-07-24T06:53:14.000Z</time>
</trkpt>
<trkpt lat="46.0226870" lon="10.3907220">
	<ele>1216.20</ele>
	<time>2024-07-24T06:53:15.000Z</time>
</trkpt>
<trkpt lat="46.0226860" lon="10.3907380">
	<ele>1216.40</ele>
	<time>2024-07-24T06:53:16.000Z</time>
</trkpt>
<trkpt lat="46.0226800" lon="10.3907470">
	<ele>1216.80</ele>
	<time>2024-07-24T06:53:17.000Z</time>
</trkpt>
<trkpt lat="46.0226720" lon="10.3907580">
	<ele>1217.00</ele>
	<time>2024-07-24T06:53:18.000Z</time>
</trkpt>
<trkpt lat="46.0226660" lon="10.3907700">
	<ele>1217.20</ele>
	<time>2024-07-24T06:53:19.000Z</time>
</trkpt>
<trkpt lat="46.0226640" lon="10.3907820">
	<ele>1217.40</ele>
	<time>2024-07-24T06:53:20.000Z</time>
</trkpt>
<trkpt lat="46.0226600" lon="10.3907990">
	<ele>1217.60</ele>
	<time>2024-07-24T06:53:21.000Z</time>
</trkpt>
<trkpt lat="46.0226550" lon="10.3908130">
	<ele>1217.60</ele>
	<time>2024-07-24T06:53:22.000Z</time>
</trkpt>
<trkpt lat="46.0226520" lon="10.3908240">
	<ele>1217.80</ele>
	<time>2024-07-24T06:53:23.000Z</time>
</trkpt>
<trkpt lat="46.0226460" lon="10.3908320">
	<ele>1218.00</ele>
	<time>2024-07-24T06:53:24.000Z</time>
</trkpt>
<trkpt lat="46.0226370" lon="10.3908400">
	<ele>1218.20</ele>
	<time>2024-07-24T06:53:25.000Z</time>
</trkpt>
<trkpt lat="46.0226350" lon="10.3908530">
	<ele>1218.40</ele>
	<time>2024-07-24T06:53:26.000Z</time>
</trkpt>
<trkpt lat="46.0226340" lon="10.3908640">
	<ele>1218.60</ele>
	<time>2024-07-24T06:53:27.000Z</time>
</trkpt>
<trkpt lat="46.0226350" lon="10.3908770">
	<ele>1218.80</ele>
	<time>2024-07-24T06:53:28.000Z</time>
</trkpt>
<trkpt lat="46.0226320" lon="10.3908940">
	<ele>1219.20</ele>
	<time>2024-07-24T06:53:29.000Z</time>
</trkpt>
<trkpt lat="46.0226310" lon="10.3909130">
	<ele>1219.40</ele>
	<time>2024-07-24T06:53:30.000Z</time>
</trkpt>
<trkpt lat="46.0226230" lon="10.3909330">
	<ele>1219.40</ele>
	<time>2024-07-24T06:53:31.000Z</time>
</trkpt>
<trkpt lat="46.0226080" lon="10.3909400">
	<ele>1219.60</ele>
	<time>2024-07-24T06:53:32.000Z</time>
</trkpt>
<trkpt lat="46.0226020" lon="10.3909500">
	<ele>1219.80</ele>
	<time>2024-07-24T06:53:33.000Z</time>
</trkpt>
<trkpt lat="46.0225980" lon="10.3909560">
	<ele>1219.80</ele>
	<time>2024-07-24T06:53:34.000Z</time>
</trkpt>
<trkpt lat="46.0225950" lon="10.3909660">
	<ele>1220.00</ele>
	<time>2024-07-24T06:53:35.000Z</time>
</trkpt>
<trkpt lat="46.0225900" lon="10.3909770">
	<ele>1220.20</ele>
	<time>2024-07-24T06:53:36.000Z</time>
</trkpt>
<trkpt lat="46.0225820" lon="10.3909890">
	<ele>1220.40</ele>
	<time>2024-07-24T06:53:37.000Z</time>
</trkpt>
<trkpt lat="46.0225740" lon="10.3910000">
	<ele>1220.60</ele>
	<time>2024-07-24T06:53:38.000Z</time>
</trkpt>
<trkpt lat="46.0225650" lon="10.3910070">
	<ele>1220.60</ele>
	<time>2024-07-24T06:53:39.000Z</time>
</trkpt>
<trkpt lat="46.0225560" lon="10.3910180">
	<ele>1220.80</ele>
	<time>2024-07-24T06:53:40.000Z</time>
</trkpt>
<trkpt lat="46.0225500" lon="10.3910270">
	<ele>1220.80</ele>
	<time>2024-07-24T06:53:41.000Z</time>
</trkpt>
<trkpt lat="46.0225400" lon="10.3910360">
	<ele>1221.00</ele>
	<time>2024-07-24T06:53:42.000Z</time>
</trkpt>
<trkpt lat="46.0225370" lon="10.3910530">
	<ele>1221.00</ele>
	<time>2024-07-24T06:53:43.000Z</time>
</trkpt>
<trkpt lat="46.0225280" lon="10.3910620">
	<ele>1221.20</ele>
	<time>2024-07-24T06:53:44.000Z</time>
</trkpt>
<trkpt lat="46.0225190" lon="10.3910690">
	<ele>1221.40</ele>
	<time>2024-07-24T06:53:45.000Z</time>
</trkpt>
<trkpt lat="46.0225090" lon="10.3910740">
	<ele>1221.60</ele>
	<time>2024-07-24T06:53:46.000Z</time>
</trkpt>
<trkpt lat="46.0225040" lon="10.3910870">
	<ele>1222.00</ele>
	<time>2024-07-24T06:53:47.000Z</time>
</trkpt>
<trkpt lat="46.0225010" lon="10.3910980">
	<ele>1222.20</ele>
	<time>2024-07-24T06:53:48.000Z</time>
</trkpt>
<trkpt lat="46.0224970" lon="10.3911110">
	<ele>1222.20</ele>
	<time>2024-07-24T06:53:49.000Z</time>
</trkpt>
<trkpt lat="46.0224900" lon="10.3911200">
	<ele>1222.40</ele>
	<time>2024-07-24T06:53:50.000Z</time>
</trkpt>
<trkpt lat="46.0224810" lon="10.3911330">
	<ele>1222.40</ele>
	<time>2024-07-24T06:53:51.000Z</time>
</trkpt>
<trkpt lat="46.0224740" lon="10.3911490">
	<ele>1222.80</ele>
	<time>2024-07-24T06:53:52.000Z</time>
</trkpt>
<trkpt lat="46.0224730" lon="10.3911620">
	<ele>1223.00</ele>
	<time>2024-07-24T06:53:53.000Z</time>
</trkpt>
<trkpt lat="46.0224730" lon="10.3911780">
	<ele>1223.00</ele>
	<time>2024-07-24T06:53:54.000Z</time>
</trkpt>
<trkpt lat="46.0224730" lon="10.3911930">
	<ele>1223.20</ele>
	<time>2024-07-24T06:53:55.000Z</time>
</trkpt>
<trkpt lat="46.0224730" lon="10.3912100">
	<ele>1223.40</ele>
	<time>2024-07-24T06:53:56.000Z</time>
</trkpt>
<trkpt lat="46.0224720" lon="10.3912280">
	<ele>1223.40</ele>
	<time>2024-07-24T06:53:57.000Z</time>
</trkpt>
<trkpt lat="46.0224760" lon="10.3912490">
	<ele>1223.60</ele>
	<time>2024-07-24T06:53:58.000Z</time>
</trkpt>
<trkpt lat="46.0224780" lon="10.3912640">
	<ele>1223.60</ele>
	<time>2024-07-24T06:53:59.000Z</time>
</trkpt>
<trkpt lat="46.0224610" lon="10.3912670">
	<ele>1223.80</ele>
	<time>2024-07-24T06:54:00.000Z</time>
</trkpt>
<trkpt lat="46.0224550" lon="10.3912710">
	<ele>1224.00</ele>
	<time>2024-07-24T06:54:01.000Z</time>
</trkpt>
<trkpt lat="46.0224480" lon="10.3912860">
	<ele>1224.20</ele>
	<time>2024-07-24T06:54:02.000Z</time>
</trkpt>
<trkpt lat="46.0224480" lon="10.3912980">
	<ele>1224.40</ele>
	<time>2024-07-24T06:54:03.000Z</time>
</trkpt>
<trkpt lat="46.0224510" lon="10.3913160">
	<ele>1224.60</ele>
	<time>2024-07-24T06:54:04.000Z</time>
</trkpt>
<trkpt lat="46.0224580" lon="10.3913320">
	<ele>1224.80</ele>
	<time>2024-07-24T06:54:05.000Z</time>
</trkpt>
<trkpt lat="46.0224640" lon="10.3913580">
	<ele>1225.00</ele>
	<time>2024-07-24T06:54:06.000Z</time>
</trkpt>
<trkpt lat="46.0224690" lon="10.3913760">
	<ele>1225.00</ele>
	<time>2024-07-24T06:54:07.000Z</time>
</trkpt>
<trkpt lat="46.0224670" lon="10.3913900">
	<ele>1225.20</ele>
	<time>2024-07-24T06:54:08.000Z</time>
</trkpt>
<trkpt lat="46.0224660" lon="10.3914050">
	<ele>1225.40</ele>
	<time>2024-07-24T06:54:09.000Z</time>
</trkpt>
<trkpt lat="46.0224590" lon="10.3914200">
	<ele>1225.60</ele>
	<time>2024-07-24T06:54:10.000Z</time>
</trkpt>
<trkpt lat="46.0224500" lon="10.3914310">
	<ele>1225.80</ele>
	<time>2024-07-24T06:54:11.000Z</time>
</trkpt>
<trkpt lat="46.0224470" lon="10.3914450">
	<ele>1226.00</ele>
	<time>2024-07-24T06:54:12.000Z</time>
</trkpt>
<trkpt lat="46.0224440" lon="10.3914550">
	<ele>1226.00</ele>
	<time>2024-07-24T06:54:13.000Z</time>
</trkpt>
<trkpt lat="46.0224430" lon="10.3914700">
	<ele>1226.20</ele>
	<time>2024-07-24T06:54:14.000Z</time>
</trkpt>
<trkpt lat="46.0224390" lon="10.3914890">
	<ele>1226.40</ele>
	<time>2024-07-24T06:54:15.000Z</time>
</trkpt>
<trkpt lat="46.0224330" lon="10.3915000">
	<ele>1226.80</ele>
	<time>2024-07-24T06:54:16.000Z</time>
</trkpt>
<trkpt lat="46.0224290" lon="10.3915090">
	<ele>1226.80</ele>
	<time>2024-07-24T06:54:17.000Z</time>
</trkpt>
<trkpt lat="46.0224260" lon="10.3915230">
	<ele>1227.00</ele>
	<time>2024-07-24T06:54:18.000Z</time>
</trkpt>
<trkpt lat="46.0224250" lon="10.3915430">
	<ele>1227.20</ele>
	<time>2024-07-24T06:54:19.000Z</time>
</trkpt>
<trkpt lat="46.0224240" lon="10.3915560">
	<ele>1227.20</ele>
	<time>2024-07-24T06:54:20.000Z</time>
</trkpt>
<trkpt lat="46.0224210" lon="10.3915710">
	<ele>1227.40</ele>
	<time>2024-07-24T06:54:21.000Z</time>
</trkpt>
<trkpt lat="46.0224230" lon="10.3915910">
	<ele>1227.60</ele>
	<time>2024-07-24T06:54:22.000Z</time>
</trkpt>
<trkpt lat="46.0224260" lon="10.3916080">
	<ele>1227.80</ele>
	<time>2024-07-24T06:54:23.000Z</time>
</trkpt>
<trkpt lat="46.0224310" lon="10.3916280">
	<ele>1228.00</ele>
	<time>2024-07-24T06:54:24.000Z</time>
</trkpt>
<trkpt lat="46.0224380" lon="10.3916440">
	<ele>1228.20</ele>
	<time>2024-07-24T06:54:25.000Z</time>
</trkpt>
<trkpt lat="46.0224270" lon="10.3916520">
	<ele>1228.40</ele>
	<time>2024-07-24T06:54:26.000Z</time>
</trkpt>
<trkpt lat="46.0224180" lon="10.3916570">
	<ele>1228.60</ele>
	<time>2024-07-24T06:54:27.000Z</time>
</trkpt>
<trkpt lat="46.0224050" lon="10.3916620">
	<ele>1228.80</ele>
	<time>2024-07-24T06:54:28.000Z</time>
</trkpt>
<trkpt lat="46.0223940" lon="10.3916650">
	<ele>1229.00</ele>
	<time>2024-07-24T06:54:29.000Z</time>
</trkpt>
<trkpt lat="46.0223880" lon="10.3916730">
	<ele>1229.40</ele>
	<time>2024-07-24T06:54:30.000Z</time>
</trkpt>
<trkpt lat="46.0223880" lon="10.3916880">
	<ele>1229.40</ele>
	<time>2024-07-24T06:54:31.000Z</time>
</trkpt>
<trkpt lat="46.0223930" lon="10.3917030">
	<ele>1229.60</ele>
	<time>2024-07-24T06:54:32.000Z</time>
</trkpt>
<trkpt lat="46.0223960" lon="10.3917170">
	<ele>1229.80</ele>
	<time>2024-07-24T06:54:33.000Z</time>
</trkpt>
<trkpt lat="46.0223900" lon="10.3917310">
	<ele>1229.80</ele>
	<time>2024-07-24T06:54:34.000Z</time>
</trkpt>
<trkpt lat="46.0223860" lon="10.3917410">
	<ele>1230.00</ele>
	<time>2024-07-24T06:54:35.000Z</time>
</trkpt>
<trkpt lat="46.0223830" lon="10.3917490">
	<ele>1230.20</ele>
	<time>2024-07-24T06:54:36.000Z</time>
</trkpt>
<trkpt lat="46.0223750" lon="10.3917620">
	<ele>1230.20</ele>
	<time>2024-07-24T06:54:37.000Z</time>
</trkpt>
<trkpt lat="46.0223690" lon="10.3917750">
	<ele>1230.60</ele>
	<time>2024-07-24T06:54:38.000Z</time>
</trkpt>
<trkpt lat="46.0223660" lon="10.3917880">
	<ele>1230.80</ele>
	<time>2024-07-24T06:54:39.000Z</time>
</trkpt>
<trkpt lat="46.0223590" lon="10.3917960">
	<ele>1231.00</ele>
	<time>2024-07-24T06:54:40.000Z</time>
</trkpt>
<trkpt lat="46.0223530" lon="10.3918050">
	<ele>1231.20</ele>
	<time>2024-07-24T06:54:41.000Z</time>
</trkpt>
<trkpt lat="46.0223460" lon="10.3918150">
	<ele>1231.40</ele>
	<time>2024-07-24T06:54:42.000Z</time>
</trkpt>
<trkpt lat="46.0223370" lon="10.3918290">
	<ele>1231.60</ele>
	<time>2024-07-24T06:54:43.000Z</time>
</trkpt>
<trkpt lat="46.0223300" lon="10.3918410">
	<ele>1231.80</ele>
	<time>2024-07-24T06:54:44.000Z</time>
</trkpt>
<trkpt lat="46.0223250" lon="10.3918450">
	<ele>1231.80</ele>
	<time>2024-07-24T06:54:45.000Z</time>
</trkpt>
<trkpt lat="46.0223210" lon="10.3918520">
	<ele>1232.20</ele>
	<time>2024-07-24T06:54:46.000Z</time>
</trkpt>
<trkpt lat="46.0223170" lon="10.3918620">
	<ele>1232.40</ele>
	<time>2024-07-24T06:54:47.000Z</time>
</trkpt>
<trkpt lat="46.0223150" lon="10.3918710">
	<ele>1232.60</ele>
	<time>2024-07-24T06:54:48.000Z</time>
</trkpt>
<trkpt lat="46.0223160" lon="10.3918870">
	<ele>1232.80</ele>
	<time>2024-07-24T06:54:49.000Z</time>
</trkpt>
<trkpt lat="46.0223180" lon="10.3919000">
	<ele>1232.80</ele>
	<time>2024-07-24T06:54:50.000Z</time>
</trkpt>
<trkpt lat="46.0223210" lon="10.3919180">
	<ele>1233.00</ele>
	<time>2024-07-24T06:54:51.000Z</time>
</trkpt>
<trkpt lat="46.0223250" lon="10.3919320">
	<ele>1233.40</ele>
	<time>2024-07-24T06:54:52.000Z</time>
</trkpt>
<trkpt lat="46.0223270" lon="10.3919490">
	<ele>1233.40</ele>
	<time>2024-07-24T06:54:53.000Z</time>
</trkpt>
<trkpt lat="46.0223270" lon="10.3919630">
	<ele>1233.60</ele>
	<time>2024-07-24T06:54:54.000Z</time>
</trkpt>
<trkpt lat="46.0223270" lon="10.3919790">
	<ele>1233.60</ele>
	<time>2024-07-24T06:54:55.000Z</time>
</trkpt>
<trkpt lat="46.0223240" lon="10.3919950">
	<ele>1233.80</ele>
	<time>2024-07-24T06:54:56.000Z</time>
</trkpt>
<trkpt lat="46.0223230" lon="10.3920120">
	<ele>1233.80</ele>
	<time>2024-07-24T06:54:57.000Z</time>
</trkpt>
<trkpt lat="46.0223240" lon="10.3920280">
	<ele>1234.00</ele>
	<time>2024-07-24T06:54:58.000Z</time>
</trkpt>
<trkpt lat="46.0223220" lon="10.3920350">
	<ele>1234.00</ele>
	<time>2024-07-24T06:54:59.000Z</time>
</trkpt>
<trkpt lat="46.0223210" lon="10.3920470">
	<ele>1234.00</ele>
	<time>2024-07-24T06:55:00.000Z</time>
</trkpt>
<trkpt lat="46.0223190" lon="10.3920510">
	<ele>1234.00</ele>
	<time>2024-07-24T06:55:01.000Z</time>
</trkpt>
<trkpt lat="46.0223190" lon="10.3920570">
	<ele>1234.20</ele>
	<time>2024-07-24T06:55:02.000Z</time>
</trkpt>
<trkpt lat="46.0223180" lon="10.3920590">
	<ele>1234.20</ele>
	<time>2024-07-24T06:55:03.000Z</time>
</trkpt>
<trkpt lat="46.0223190" lon="10.3920580">
	<ele>1234.20</ele>
	<time>2024-07-24T06:55:04.000Z</time>
</trkpt>
<trkpt lat="46.0223190" lon="10.3920580">
	<ele>1234.20</ele>
	<time>2024-07-24T06:55:05.000Z</time>
</trkpt>
<trkpt lat="46.0223180" lon="10.3920590">
	<ele>1234.20</ele>
	<time>2024-07-24T06:55:06.000Z</time>
</trkpt>
<trkpt lat="46.0223190" lon="10.3920600">
	<ele>1234.20</ele>
	<time>2024-07-24T06:55:07.000Z</time>
</trkpt>
<trkpt lat="46.0223190" lon="10.3920610">
	<ele>1234.40</ele>
	<time>2024-07-24T06:55:08.000Z</time>
</trkpt>
<trkpt lat="46.0223210" lon="10.3920620">
	<ele>1234.40</ele>
	<time>2024-07-24T06:55:09.000Z</time>
</trkpt>
<trkpt lat="46.0223160" lon="10.3920540">
	<ele>1234.40</ele>
	<time>2024-07-24T06:55:10.000Z</time>
</trkpt>
<trkpt lat="46.0223190" lon="10.3920540">
	<ele>1234.40</ele>
	<time>2024-07-24T06:55:11.000Z</time>
</trkpt>
<trkpt lat="46.0223180" lon="10.3920560">
	<ele>1234.60</ele>
	<time>2024-07-24T06:55:12.000Z</time>
</trkpt>
<trkpt lat="46.0223180" lon="10.3920550">
	<ele>1234.60</ele>
	<time>2024-07-24T06:55:13.000Z</time>
</trkpt>
<trkpt lat="46.0223180" lon="10.3920550">
	<ele>1234.60</ele>
	<time>2024-07-24T06:55:14.000Z</time>
</trkpt>
<trkpt lat="46.0223180" lon="10.3920550">
	<ele>1234.60</ele>
	<time>2024-07-24T06:55:15.000Z</time>
</trkpt>
<trkpt lat="46.0223180" lon="10.3920550">
	<ele>1234.60</ele>
	<time>2024-07-24T06:55:16.000Z</time>
</trkpt>
<trkpt lat="46.0223180" lon="10.3920550">
	<ele>1234.60</ele>
	<time>2024-07-24T06:55:17.000Z</time>
</trkpt>
<trkpt lat="46.0223180" lon="10.3920550">
	<ele>1234.60</ele>
	<time>2024-07-24T06:55:18.000Z</time>
</trkpt>
<trkpt lat="46.0223190" lon="10.3920570">
	<ele>1234.40</ele>
	<time>2024-07-24T06:55:19.000Z</time>
</trkpt>
<trkpt lat="46.0223190" lon="10.3920650">
	<ele>1234.40</ele>
	<time>2024-07-24T06:55:20.000Z</time>
</trkpt>
<trkpt lat="46.0223170" lon="10.3920700">
	<ele>1234.40</ele>
	<time>2024-07-24T06:55:21.000Z</time>
</trkpt>
<trkpt lat="46.0223180" lon="10.3920830">
	<ele>1234.40</ele>
	<time>2024-07-24T06:55:22.000Z</time>
</trkpt>
<trkpt lat="46.0223200" lon="10.3921040">
	<ele>1234.60</ele>
	<time>2024-07-24T06:55:23.000Z</time>
</trkpt>
<trkpt lat="46.0223200" lon="10.3921250">
	<ele>1234.80</ele>
	<time>2024-07-24T06:55:24.000Z</time>
</trkpt>
<trkpt lat="46.0223180" lon="10.3921430">
	<ele>1235.00</ele>
	<time>2024-07-24T06:55:25.000Z</time>
</trkpt>
<trkpt lat="46.0223140" lon="10.3921640">
	<ele>1235.20</ele>
	<time>2024-07-24T06:55:26.000Z</time>
</trkpt>
<trkpt lat="46.0223110" lon="10.3921800">
	<ele>1235.60</ele>
	<time>2024-07-24T06:55:27.000Z</time>
</trkpt>
<trkpt lat="46.0223080" lon="10.3921890">
	<ele>1236.00</ele>
	<time>2024-07-24T06:55:28.000Z</time>
</trkpt>
<trkpt lat="46.0223070" lon="10.3922030">
	<ele>1236.20</ele>
	<time>2024-07-24T06:55:29.000Z</time>
</trkpt>
<trkpt lat="46.0223000" lon="10.3922160">
	<ele>1236.40</ele>
	<time>2024-07-24T06:55:30.000Z</time>
</trkpt>
<trkpt lat="46.0222940" lon="10.3922310">
	<ele>1236.60</ele>
	<time>2024-07-24T06:55:31.000Z</time>
</trkpt>
<trkpt lat="46.0222910" lon="10.3922490">
	<ele>1236.60</ele>
	<time>2024-07-24T06:55:32.000Z</time>
</trkpt>
<trkpt lat="46.0222920" lon="10.3922620">
	<ele>1236.80</ele>
	<time>2024-07-24T06:55:33.000Z</time>
</trkpt>
<trkpt lat="46.0222950" lon="10.3922750">
	<ele>1237.00</ele>
	<time>2024-07-24T06:55:34.000Z</time>
</trkpt>
<trkpt lat="46.0223010" lon="10.3922900">
	<ele>1237.00</ele>
	<time>2024-07-24T06:55:35.000Z</time>
</trkpt>
<trkpt lat="46.0222990" lon="10.3923000">
	<ele>1237.20</ele>
	<time>2024-07-24T06:55:36.000Z</time>
</trkpt>
<trkpt lat="46.0222950" lon="10.3923070">
	<ele>1237.20</ele>
	<time>2024-07-24T06:55:37.000Z</time>
</trkpt>
<trkpt lat="46.0222910" lon="10.3923190">
	<ele>1237.60</ele>
	<time>2024-07-24T06:55:38.000Z</time>
</trkpt>
<trkpt lat="46.0222900" lon="10.3923320">
	<ele>1237.80</ele>
	<time>2024-07-24T06:55:39.000Z</time>
</trkpt>
<trkpt lat="46.0222930" lon="10.3923480">
	<ele>1237.80</ele>
	<time>2024-07-24T06:55:40.000Z</time>
</trkpt>
<trkpt lat="46.0222910" lon="10.3923610">
	<ele>1238.00</ele>
	<time>2024-07-24T06:55:41.000Z</time>
</trkpt>
<trkpt lat="46.0222820" lon="10.3923790">
	<ele>1238.20</ele>
	<time>2024-07-24T06:55:42.000Z</time>
</trkpt>
<trkpt lat="46.0222720" lon="10.3923950">
	<ele>1238.60</ele>
	<time>2024-07-24T06:55:43.000Z</time>
</trkpt>
<trkpt lat="46.0222690" lon="10.3924190">
	<ele>1238.80</ele>
	<time>2024-07-24T06:55:44.000Z</time>
</trkpt>
<trkpt lat="46.0222730" lon="10.3924350">
	<ele>1238.80</ele>
	<time>2024-07-24T06:55:45.000Z</time>
</trkpt>
<trkpt lat="46.0222750" lon="10.3924450">
	<ele>1239.00</ele>
	<time>2024-07-24T06:55:46.000Z</time>
</trkpt>
<trkpt lat="46.0222740" lon="10.3924700">
	<ele>1239.20</ele>
	<time>2024-07-24T06:55:47.000Z</time>
</trkpt>
<trkpt lat="46.0222720" lon="10.3924910">
	<ele>1239.20</ele>
	<time>2024-07-24T06:55:48.000Z</time>
</trkpt>
<trkpt lat="46.0222700" lon="10.3925040">
	<ele>1239.40</ele>
	<time>2024-07-24T06:55:49.000Z</time>
</trkpt>
<trkpt lat="46.0222680" lon="10.3925170">
	<ele>1239.40</ele>
	<time>2024-07-24T06:55:50.000Z</time>
</trkpt>
<trkpt lat="46.0222700" lon="10.3925340">
	<ele>1239.60</ele>
	<time>2024-07-24T06:55:51.000Z</time>
</trkpt>
<trkpt lat="46.0222710" lon="10.3925520">
	<ele>1239.60</ele>
	<time>2024-07-24T06:55:52.000Z</time>
</trkpt>
<trkpt lat="46.0222720" lon="10.3925650">
	<ele>1239.80</ele>
	<time>2024-07-24T06:55:53.000Z</time>
</trkpt>
<trkpt lat="46.0222720" lon="10.3925780">
	<ele>1239.80</ele>
	<time>2024-07-24T06:55:54.000Z</time>
</trkpt>
<trkpt lat="46.0222710" lon="10.3925990">
	<ele>1240.00</ele>
	<time>2024-07-24T06:55:55.000Z</time>
</trkpt>
<trkpt lat="46.0222730" lon="10.3926190">
	<ele>1240.20</ele>
	<time>2024-07-24T06:55:56.000Z</time>
</trkpt>
<trkpt lat="46.0222790" lon="10.3926490">
	<ele>1240.20</ele>
	<time>2024-07-24T06:55:57.000Z</time>
</trkpt>
<trkpt lat="46.0222750" lon="10.3926670">
	<ele>1240.40</ele>
	<time>2024-07-24T06:55:58.000Z</time>
</trkpt>
<trkpt lat="46.0222750" lon="10.3926960">
	<ele>1240.40</ele>
	<time>2024-07-24T06:55:59.000Z</time>
</trkpt>
<trkpt lat="46.0222760" lon="10.3927100">
	<ele>1240.60</ele>
	<time>2024-07-24T06:56:00.000Z</time>
</trkpt>
<trkpt lat="46.0222760" lon="10.3927200">
	<ele>1240.60</ele>
	<time>2024-07-24T06:56:01.000Z</time>
</trkpt>
<trkpt lat="46.0222730" lon="10.3927330">
	<ele>1240.80</ele>
	<time>2024-07-24T06:56:02.000Z</time>
</trkpt>
<trkpt lat="46.0222650" lon="10.3927530">
	<ele>1240.80</ele>
	<time>2024-07-24T06:56:03.000Z</time>
</trkpt>
<trkpt lat="46.0222570" lon="10.3927630">
	<ele>1240.80</ele>
	<time>2024-07-24T06:56:04.000Z</time>
</trkpt>
<trkpt lat="46.0222520" lon="10.3927780">
	<ele>1241.00</ele>
	<time>2024-07-24T06:56:05.000Z</time>
</trkpt>
<trkpt lat="46.0222510" lon="10.3927890">
	<ele>1241.00</ele>
	<time>2024-07-24T06:56:06.000Z</time>
</trkpt>
<trkpt lat="46.0222480" lon="10.3928020">
	<ele>1241.00</ele>
	<time>2024-07-24T06:56:07.000Z</time>
</trkpt>
<trkpt lat="46.0222430" lon="10.3928220">
	<ele>1241.20</ele>
	<time>2024-07-24T06:56:08.000Z</time>
</trkpt>
<trkpt lat="46.0222390" lon="10.3928380">
	<ele>1241.40</ele>
	<time>2024-07-24T06:56:09.000Z</time>
</trkpt>
<trkpt lat="46.0222350" lon="10.3928520">
	<ele>1241.60</ele>
	<time>2024-07-24T06:56:10.000Z</time>
</trkpt>
<trkpt lat="46.0222340" lon="10.3928640">
	<ele>1241.60</ele>
	<time>2024-07-24T06:56:11.000Z</time>
</trkpt>
<trkpt lat="46.0222320" lon="10.3928820">
	<ele>1241.60</ele>
	<time>2024-07-24T06:56:12.000Z</time>
</trkpt>
<trkpt lat="46.0222290" lon="10.3928970">
	<ele>1241.80</ele>
	<time>2024-07-24T06:56:13.000Z</time>
</trkpt>
<trkpt lat="46.0222270" lon="10.3929120">
	<ele>1242.00</ele>
	<time>2024-07-24T06:56:14.000Z</time>
</trkpt>
<trkpt lat="46.0222220" lon="10.3929270">
	<ele>1242.20</ele>
	<time>2024-07-24T06:56:15.000Z</time>
</trkpt>
<trkpt lat="46.0222230" lon="10.3929400">
	<ele>1242.40</ele>
	<time>2024-07-24T06:56:16.000Z</time>
</trkpt>
<trkpt lat="46.0222210" lon="10.3929530">
	<ele>1242.60</ele>
	<time>2024-07-24T06:56:17.000Z</time>
</trkpt>
<trkpt lat="46.0222190" lon="10.3929670">
	<ele>1242.80</ele>
	<time>2024-07-24T06:56:18.000Z</time>
</trkpt>
<trkpt lat="46.0222170" lon="10.3929810">
	<ele>1243.00</ele>
	<time>2024-07-24T06:56:19.000Z</time>
</trkpt>
<trkpt lat="46.0222150" lon="10.3929950">
	<ele>1243.20</ele>
	<time>2024-07-24T06:56:20.000Z</time>
</trkpt>
<trkpt lat="46.0222130" lon="10.3930110">
	<ele>1243.40</ele>
	<time>2024-07-24T06:56:21.000Z</time>
</trkpt>
<trkpt lat="46.0222130" lon="10.3930280">
	<ele>1243.40</ele>
	<time>2024-07-24T06:56:22.000Z</time>
</trkpt>
<trkpt lat="46.0222160" lon="10.3930410">
	<ele>1243.80</ele>
	<time>2024-07-24T06:56:23.000Z</time>
</trkpt>
<trkpt lat="46.0222210" lon="10.3930550">
	<ele>1244.00</ele>
	<time>2024-07-24T06:56:24.000Z</time>
</trkpt>
<trkpt lat="46.0222210" lon="10.3930710">
	<ele>1244.20</ele>
	<time>2024-07-24T06:56:25.000Z</time>
</trkpt>
<trkpt lat="46.0222210" lon="10.3930830">
	<ele>1244.20</ele>
	<time>2024-07-24T06:56:26.000Z</time>
</trkpt>
<trkpt lat="46.0222200" lon="10.3930950">
	<ele>1244.60</ele>
	<time>2024-07-24T06:56:27.000Z</time>
</trkpt>
<trkpt lat="46.0222170" lon="10.3931040">
	<ele>1244.60</ele>
	<time>2024-07-24T06:56:28.000Z</time>
</trkpt>
<trkpt lat="46.0222160" lon="10.3931170">
	<ele>1245.00</ele>
	<time>2024-07-24T06:56:29.000Z</time>
</trkpt>
<trkpt lat="46.0222150" lon="10.3931300">
	<ele>1245.00</ele>
	<time>2024-07-24T06:56:30.000Z</time>
</trkpt>
<trkpt lat="46.0222150" lon="10.3931530">
	<ele>1245.20</ele>
	<time>2024-07-24T06:56:31.000Z</time>
</trkpt>
<trkpt lat="46.0222140" lon="10.3931690">
	<ele>1245.40</ele>
	<time>2024-07-24T06:56:32.000Z</time>
</trkpt>
<trkpt lat="46.0222080" lon="10.3931850">
	<ele>1245.40</ele>
	<time>2024-07-24T06:56:33.000Z</time>
</trkpt>
<trkpt lat="46.0222090" lon="10.3931940">
	<ele>1245.60</ele>
	<time>2024-07-24T06:56:34.000Z</time>
</trkpt>
<trkpt lat="46.0222070" lon="10.3932100">
	<ele>1245.60</ele>
	<time>2024-07-24T06:56:35.000Z</time>
</trkpt>
<trkpt lat="46.0221990" lon="10.3932290">
	<ele>1245.80</ele>
	<time>2024-07-24T06:56:36.000Z</time>
</trkpt>
<trkpt lat="46.0221870" lon="10.3932480">
	<ele>1245.80</ele>
	<time>2024-07-24T06:56:37.000Z</time>
</trkpt>
<trkpt lat="46.0221770" lon="10.3932580">
	<ele>1245.80</ele>
	<time>2024-07-24T06:56:38.000Z</time>
</trkpt>
<trkpt lat="46.0221730" lon="10.3932720">
	<ele>1246.00</ele>
	<time>2024-07-24T06:56:39.000Z</time>
</trkpt>
<trkpt lat="46.0221680" lon="10.3932780">
	<ele>1246.20</ele>
	<time>2024-07-24T06:56:40.000Z</time>
</trkpt>
<trkpt lat="46.0221680" lon="10.3932910">
	<ele>1246.40</ele>
	<time>2024-07-24T06:56:41.000Z</time>
</trkpt>
<trkpt lat="46.0221650" lon="10.3933030">
	<ele>1246.40</ele>
	<time>2024-07-24T06:56:42.000Z</time>
</trkpt>
<trkpt lat="46.0221570" lon="10.3933140">
	<ele>1246.60</ele>
	<time>2024-07-24T06:56:43.000Z</time>
</trkpt>
<trkpt lat="46.0221520" lon="10.3933210">
	<ele>1246.80</ele>
	<time>2024-07-24T06:56:44.000Z</time>
</trkpt>
<trkpt lat="46.0221510" lon="10.3933330">
	<ele>1247.00</ele>
	<time>2024-07-24T06:56:45.000Z</time>
</trkpt>
<trkpt lat="46.0221530" lon="10.3933430">
	<ele>1247.40</ele>
	<time>2024-07-24T06:56:46.000Z</time>
</trkpt>
<trkpt lat="46.0221520" lon="10.3933480">
	<ele>1247.60</ele>
	<time>2024-07-24T06:56:47.000Z</time>
</trkpt>
<trkpt lat="46.0221520" lon="10.3933520">
	<ele>1247.80</ele>
	<time>2024-07-24T06:56:48.000Z</time>
</trkpt>
<trkpt lat="46.0221530" lon="10.3933550">
	<ele>1248.00</ele>
	<time>2024-07-24T06:56:49.000Z</time>
</trkpt>
<trkpt lat="46.0221540" lon="10.3933560">
	<ele>1248.20</ele>
	<time>2024-07-24T06:56:50.000Z</time>
</trkpt>
<trkpt lat="46.0221550" lon="10.3933580">
	<ele>1248.40</ele>
	<time>2024-07-24T06:56:51.000Z</time>
</trkpt>
<trkpt lat="46.0221560" lon="10.3933580">
	<ele>1248.40</ele>
	<time>2024-07-24T06:56:52.000Z</time>
</trkpt>
<trkpt lat="46.0221550" lon="10.3933570">
	<ele>1248.40</ele>
	<time>2024-07-24T06:56:53.000Z</time>
</trkpt>
<trkpt lat="46.0221500" lon="10.3933420">
	<ele>1248.40</ele>
	<time>2024-07-24T06:56:54.000Z</time>
</trkpt>
<trkpt lat="46.0221440" lon="10.3933300">
	<ele>1248.40</ele>
	<time>2024-07-24T06:56:55.000Z</time>
</trkpt>
<trkpt lat="46.0221380" lon="10.3933340">
	<ele>1248.40</ele>
	<time>2024-07-24T06:56:56.000Z</time>
</trkpt>
<trkpt lat="46.0221350" lon="10.3933450">
	<ele>1248.40</ele>
	<time>2024-07-24T06:56:57.000Z</time>
</trkpt>
<trkpt lat="46.0221310" lon="10.3933550">
	<ele>1248.20</ele>
	<time>2024-07-24T06:56:58.000Z</time>
</trkpt>
<trkpt lat="46.0221250" lon="10.3933620">
	<ele>1248.20</ele>
	<time>2024-07-24T06:56:59.000Z</time>
</trkpt>
<trkpt lat="46.0221210" lon="10.3933710">
	<ele>1248.20</ele>
	<time>2024-07-24T06:57:00.000Z</time>
</trkpt>
<trkpt lat="46.0221180" lon="10.3933830">
	<ele>1248.20</ele>
	<time>2024-07-24T06:57:01.000Z</time>
</trkpt>
<trkpt lat="46.0221150" lon="10.3933920">
	<ele>1248.40</ele>
	<time>2024-07-24T06:57:02.000Z</time>
</trkpt>
<trkpt lat="46.0221110" lon="10.3934000">
	<ele>1248.60</ele>
	<time>2024-07-24T06:57:03.000Z</time>
</trkpt>
<trkpt lat="46.0221100" lon="10.3934120">
	<ele>1248.80</ele>
	<time>2024-07-24T06:57:04.000Z</time>
</trkpt>
<trkpt lat="46.0221080" lon="10.3934260">
	<ele>1249.00</ele>
	<time>2024-07-24T06:57:05.000Z</time>
</trkpt>
<trkpt lat="46.0221050" lon="10.3934380">
	<ele>1249.40</ele>
	<time>2024-07-24T06:57:06.000Z</time>
</trkpt>
<trkpt lat="46.0221030" lon="10.3934530">
	<ele>1249.60</ele>
	<time>2024-07-24T06:57:07.000Z</time>
</trkpt>
<trkpt lat="46.0220980" lon="10.3934620">
	<ele>1249.80</ele>
	<time>2024-07-24T06:57:08.000Z</time>
</trkpt>
<trkpt lat="46.0220970" lon="10.3934750">
	<ele>1250.00</ele>
	<time>2024-07-24T06:57:09.000Z</time>
</trkpt>
<trkpt lat="46.0220960" lon="10.3934880">
	<ele>1250.40</ele>
	<time>2024-07-24T06:57:10.000Z</time>
</trkpt>
<trkpt lat="46.0220930" lon="10.3935010">
	<ele>1250.60</ele>
	<time>2024-07-24T06:57:11.000Z</time>
</trkpt>
<trkpt lat="46.0220900" lon="10.3935130">
	<ele>1250.80</ele>
	<time>2024-07-24T06:57:12.000Z</time>
</trkpt>
<trkpt lat="46.0220880" lon="10.3935260">
	<ele>1251.00</ele>
	<time>2024-07-24T06:57:13.000Z</time>
</trkpt>
<trkpt lat="46.0220830" lon="10.3935340">
	<ele>1251.20</ele>
	<time>2024-07-24T06:57:14.000Z</time>
</trkpt>
<trkpt lat="46.0220770" lon="10.3935460">
	<ele>1251.40</ele>
	<time>2024-07-24T06:57:15.000Z</time>
</trkpt>
<trkpt lat="46.0220730" lon="10.3935580">
	<ele>1251.80</ele>
	<time>2024-07-24T06:57:16.000Z</time>
</trkpt>
<trkpt lat="46.0220660" lon="10.3935750">
	<ele>1252.00</ele>
	<time>2024-07-24T06:57:17.000Z</time>
</trkpt>
<trkpt lat="46.0220630" lon="10.3935900">
	<ele>1252.20</ele>
	<time>2024-07-24T06:57:18.000Z</time>
</trkpt>
<trkpt lat="46.0220620" lon="10.3936010">
	<ele>1252.40</ele>
	<time>2024-07-24T06:57:19.000Z</time>
</trkpt>
<trkpt lat="46.0220590" lon="10.3936150">
	<ele>1252.60</ele>
	<time>2024-07-24T06:57:20.000Z</time>
</trkpt>
<trkpt lat="46.0220540" lon="10.3936330">
	<ele>1252.80</ele>
	<time>2024-07-24T06:57:21.000Z</time>
</trkpt>
<trkpt lat="46.0220520" lon="10.3936500">
	<ele>1252.80</ele>
	<time>2024-07-24T06:57:22.000Z</time>
</trkpt>
<trkpt lat="46.0220480" lon="10.3936630">
	<ele>1253.00</ele>
	<time>2024-07-24T06:57:23.000Z</time>
</trkpt>
<trkpt lat="46.0220420" lon="10.3936690">
	<ele>1253.20</ele>
	<time>2024-07-24T06:57:24.000Z</time>
</trkpt>
<trkpt lat="46.0220350" lon="10.3936820">
	<ele>1253.40</ele>
	<time>2024-07-24T06:57:25.000Z</time>
</trkpt>
<trkpt lat="46.0220290" lon="10.3936900">
	<ele>1253.80</ele>
	<time>2024-07-24T06:57:26.000Z</time>
</trkpt>
<trkpt lat="46.0220220" lon="10.3936980">
	<ele>1253.80</ele>
	<time>2024-07-24T06:57:27.000Z</time>
</trkpt>
<trkpt lat="46.0220170" lon="10.3937080">
	<ele>1254.00</ele>
	<time>2024-07-24T06:57:28.000Z</time>
</trkpt>
<trkpt lat="46.0220110" lon="10.3937170">
	<ele>1254.20</ele>
	<time>2024-07-24T06:57:29.000Z</time>
</trkpt>
<trkpt lat="46.0220050" lon="10.3937250">
	<ele>1254.60</ele>
	<time>2024-07-24T06:57:30.000Z</time>
</trkpt>
<trkpt lat="46.0220010" lon="10.3937350">
	<ele>1254.80</ele>
	<time>2024-07-24T06:57:31.000Z</time>
</trkpt>
<trkpt lat="46.0219950" lon="10.3937420">
	<ele>1255.00</ele>
	<time>2024-07-24T06:57:32.000Z</time>
</trkpt>
<trkpt lat="46.0219880" lon="10.3937500">
	<ele>1255.20</ele>
	<time>2024-07-24T06:57:33.000Z</time>
</trkpt>
<trkpt lat="46.0219830" lon="10.3937580">
	<ele>1255.40</ele>
	<time>2024-07-24T06:57:34.000Z</time>
</trkpt>
<trkpt lat="46.0219800" lon="10.3937720">
	<ele>1255.60</ele>
	<time>2024-07-24T06:57:35.000Z</time>
</trkpt>
<trkpt lat="46.0219740" lon="10.3937840">
	<ele>1255.80</ele>
	<time>2024-07-24T06:57:36.000Z</time>
</trkpt>
<trkpt lat="46.0219680" lon="10.3937960">
	<ele>1256.00</ele>
	<time>2024-07-24T06:57:37.000Z</time>
</trkpt>
<trkpt lat="46.0219610" lon="10.3938020">
	<ele>1256.20</ele>
	<time>2024-07-24T06:57:38.000Z</time>
</trkpt>
<trkpt lat="46.0219540" lon="10.3938050">
	<ele>1256.60</ele>
	<time>2024-07-24T06:57:39.000Z</time>
</trkpt>
<trkpt lat="46.0219440" lon="10.3938080">
	<ele>1257.00</ele>
	<time>2024-07-24T06:57:40.000Z</time>
</trkpt>
<trkpt lat="46.0219380" lon="10.3938120">
	<ele>1257.20</ele>
	<time>2024-07-24T06:57:41.000Z</time>
</trkpt>
<trkpt lat="46.0219270" lon="10.3938140">
	<ele>1257.20</ele>
	<time>2024-07-24T06:57:42.000Z</time>
</trkpt>
<trkpt lat="46.0219190" lon="10.3938150">
	<ele>1257.60</ele>
	<time>2024-07-24T06:57:43.000Z</time>
</trkpt>
<trkpt lat="46.0219120" lon="10.3938210">
	<ele>1257.80</ele>
	<time>2024-07-24T06:57:44.000Z</time>
</trkpt>
<trkpt lat="46.0219050" lon="10.3938230">
	<ele>1258.20</ele>
	<time>2024-07-24T06:57:45.000Z</time>
</trkpt>
<trkpt lat="46.0218980" lon="10.3938290">
	<ele>1258.40</ele>
	<time>2024-07-24T06:57:46.000Z</time>
</trkpt>
<trkpt lat="46.0218920" lon="10.3938350">
	<ele>1258.60</ele>
	<time>2024-07-24T06:57:47.000Z</time>
</trkpt>
<trkpt lat="46.0218890" lon="10.3938420">
	<ele>1259.00</ele>
	<time>2024-07-24T06:57:48.000Z</time>
</trkpt>
<trkpt lat="46.0218850" lon="10.3938530">
	<ele>1259.20</ele>
	<time>2024-07-24T06:57:49.000Z</time>
</trkpt>
<trkpt lat="46.0218820" lon="10.3938610">
	<ele>1259.40</ele>
	<time>2024-07-24T06:57:50.000Z</time>
</trkpt>
<trkpt lat="46.0218810" lon="10.3938680">
	<ele>1259.60</ele>
	<time>2024-07-24T06:57:51.000Z</time>
</trkpt>
<trkpt lat="46.0218780" lon="10.3938730">
	<ele>1259.80</ele>
	<time>2024-07-24T06:57:52.000Z</time>
</trkpt>
<trkpt lat="46.0218710" lon="10.3938740">
	<ele>1260.00</ele>
	<time>2024-07-24T06:57:53.000Z</time>
</trkpt>
<trkpt lat="46.0218620" lon="10.3938710">
	<ele>1260.20</ele>
	<time>2024-07-24T06:57:54.000Z</time>
</trkpt>
<trkpt lat="46.0218520" lon="10.3938720">
	<ele>1260.40</ele>
	<time>2024-07-24T06:57:55.000Z</time>
</trkpt>
<trkpt lat="46.0218470" lon="10.3938880">
	<ele>1260.60</ele>
	<time>2024-07-24T06:57:56.000Z</time>
</trkpt>
<trkpt lat="46.0218440" lon="10.3938960">
	<ele>1261.00</ele>
	<time>2024-07-24T06:57:57.000Z</time>
</trkpt>
<trkpt lat="46.0218390" lon="10.3939090">
	<ele>1261.20</ele>
	<time>2024-07-24T06:57:58.000Z</time>
</trkpt>
<trkpt lat="46.0218340" lon="10.3939160">
	<ele>1261.40</ele>
	<time>2024-07-24T06:57:59.000Z</time>
</trkpt>
<trkpt lat="46.0218260" lon="10.3939190">
	<ele>1261.60</ele>
	<time>2024-07-24T06:58:00.000Z</time>
</trkpt>
<trkpt lat="46.0218160" lon="10.3939210">
	<ele>1261.80</ele>
	<time>2024-07-24T06:58:01.000Z</time>
</trkpt>
<trkpt lat="46.0218040" lon="10.3939260">
	<ele>1262.00</ele>
	<time>2024-07-24T06:58:02.000Z</time>
</trkpt>
<trkpt lat="46.0217930" lon="10.3939340">
	<ele>1262.40</ele>
	<time>2024-07-24T06:58:03.000Z</time>
</trkpt>
<trkpt lat="46.0217840" lon="10.3939400">
	<ele>1262.60</ele>
	<time>2024-07-24T06:58:04.000Z</time>
</trkpt>
<trkpt lat="46.0217740" lon="10.3939470">
	<ele>1262.80</ele>
	<time>2024-07-24T06:58:05.000Z</time>
</trkpt>
<trkpt lat="46.0217600" lon="10.3939490">
	<ele>1263.00</ele>
	<time>2024-07-24T06:58:06.000Z</time>
</trkpt>
<trkpt lat="46.0217460" lon="10.3939550">
	<ele>1263.20</ele>
	<time>2024-07-24T06:58:07.000Z</time>
</trkpt>
<trkpt lat="46.0217360" lon="10.3939570">
	<ele>1263.20</ele>
	<time>2024-07-24T06:58:08.000Z</time>
</trkpt>
<trkpt lat="46.0217240" lon="10.3939600">
	<ele>1263.40</ele>
	<time>2024-07-24T06:58:09.000Z</time>
</trkpt>
<trkpt lat="46.0217180" lon="10.3939620">
	<ele>1263.80</ele>
	<time>2024-07-24T06:58:10.000Z</time>
</trkpt>
<trkpt lat="46.0217110" lon="10.3939630">
	<ele>1263.80</ele>
	<time>2024-07-24T06:58:11.000Z</time>
</trkpt>
<trkpt lat="46.0217090" lon="10.3939660">
	<ele>1264.00</ele>
	<time>2024-07-24T06:58:12.000Z</time>
</trkpt>
<trkpt lat="46.0217070" lon="10.3939660">
	<ele>1264.20</ele>
	<time>2024-07-24T06:58:13.000Z</time>
</trkpt>
<trkpt lat="46.0217060" lon="10.3939650">
	<ele>1264.20</ele>
	<time>2024-07-24T06:58:14.000Z</time>
</trkpt>
<trkpt lat="46.0217050" lon="10.3939650">
	<ele>1264.20</ele>
	<time>2024-07-24T06:58:15.000Z</time>
</trkpt>
<trkpt lat="46.0217040" lon="10.3939640">
	<ele>1264.20</ele>
	<time>2024-07-24T06:58:16.000Z</time>
</trkpt>
<trkpt lat="46.0217030" lon="10.3939620">
	<ele>1264.40</ele>
	<time>2024-07-24T06:58:17.000Z</time>
</trkpt>
<trkpt lat="46.0217000" lon="10.3939600">
	<ele>1264.20</ele>
	<time>2024-07-24T06:58:18.000Z</time>
</trkpt>
<trkpt lat="46.0217000" lon="10.3939600">
	<ele>1264.20</ele>
	<time>2024-07-24T06:58:19.000Z</time>
</trkpt>
<trkpt lat="46.0217000" lon="10.3939600">
	<ele>1264.20</ele>
	<time>2024-07-24T06:58:20.000Z</time>
</trkpt>
<trkpt lat="46.0217030" lon="10.3939610">
	<ele>1264.20</ele>
	<time>2024-07-24T06:58:21.000Z</time>
</trkpt>
<trkpt lat="46.0217000" lon="10.3939690">
	<ele>1264.20</ele>
	<time>2024-07-24T06:58:22.000Z</time>
</trkpt>
<trkpt lat="46.0216950" lon="10.3939810">
	<ele>1264.40</ele>
	<time>2024-07-24T06:58:23.000Z</time>
</trkpt>
<trkpt lat="46.0216930" lon="10.3939980">
	<ele>1264.40</ele>
	<time>2024-07-24T06:58:24.000Z</time>
</trkpt>
<trkpt lat="46.0216900" lon="10.3940040">
	<ele>1264.60</ele>
	<time>2024-07-24T06:58:25.000Z</time>
</trkpt>
<trkpt lat="46.0216880" lon="10.3940160">
	<ele>1264.60</ele>
	<time>2024-07-24T06:58:26.000Z</time>
</trkpt>
<trkpt lat="46.0216840" lon="10.3940270">
	<ele>1264.80</ele>
	<time>2024-07-24T06:58:27.000Z</time>
</trkpt>
<trkpt lat="46.0216780" lon="10.3940350">
	<ele>1265.20</ele>
	<time>2024-07-24T06:58:28.000Z</time>
</trkpt>
<trkpt lat="46.0216730" lon="10.3940520">
	<ele>1265.40</ele>
	<time>2024-07-24T06:58:29.000Z</time>
</trkpt>
<trkpt lat="46.0216670" lon="10.3940630">
	<ele>1265.80</ele>
	<time>2024-07-24T06:58:30.000Z</time>
</trkpt>
<trkpt lat="46.0216560" lon="10.3940730">
	<ele>1266.00</ele>
	<time>2024-07-24T06:58:31.000Z</time>
</trkpt>
<trkpt lat="46.0216480" lon="10.3940790">
	<ele>1266.20</ele>
	<time>2024-07-24T06:58:32.000Z</time>
</trkpt>
<trkpt lat="46.0216410" lon="10.3940920">
	<ele>1266.40</ele>
	<time>2024-07-24T06:58:33.000Z</time>
</trkpt>
<trkpt lat="46.0216340" lon="10.3941060">
	<ele>1266.60</ele>
	<time>2024-07-24T06:58:34.000Z</time>
</trkpt>
<trkpt lat="46.0216260" lon="10.3941160">
	<ele>1266.80</ele>
	<time>2024-07-24T06:58:35.000Z</time>
</trkpt>
<trkpt lat="46.0216210" lon="10.3941270">
	<ele>1267.00</ele>
	<time>2024-07-24T06:58:36.000Z</time>
</trkpt>
<trkpt lat="46.0216160" lon="10.3941360">
	<ele>1267.20</ele>
	<time>2024-07-24T06:58:37.000Z</time>
</trkpt>
<trkpt lat="46.0216140" lon="10.3941480">
	<ele>1267.20</ele>
	<time>2024-07-24T06:58:38.000Z</time>
</trkpt>
<trkpt lat="46.0216090" lon="10.3941600">
	<ele>1267.60</ele>
	<time>2024-07-24T06:58:39.000Z</time>
</trkpt>
<trkpt lat="46.0216050" lon="10.3941730">
	<ele>1267.80</ele>
	<time>2024-07-24T06:58:40.000Z</time>
</trkpt>
<trkpt lat="46.0216040" lon="10.3941890">
	<ele>1268.00</ele>
	<time>2024-07-24T06:58:41.000Z</time>
</trkpt>
<trkpt lat="46.0216020" lon="10.3942030">
	<ele>1268.20</ele>
	<time>2024-07-24T06:58:42.000Z</time>
</trkpt>
<trkpt lat="46.0215980" lon="10.3942210">
	<ele>1268.40</ele>
	<time>2024-07-24T06:58:43.000Z</time>
</trkpt>
<trkpt lat="46.0216010" lon="10.3942330">
	<ele>1268.60</ele>
	<time>2024-07-24T06:58:44.000Z</time>
</trkpt>
<trkpt lat="46.0216080" lon="10.3942470">
	<ele>1268.80</ele>
	<time>2024-07-24T06:58:45.000Z</time>
</trkpt>
<trkpt lat="46.0216180" lon="10.3942640">
	<ele>1269.00</ele>
	<time>2024-07-24T06:58:46.000Z</time>
</trkpt>
<trkpt lat="46.0216260" lon="10.3942800">
	<ele>1269.40</ele>
	<time>2024-07-24T06:58:47.000Z</time>
</trkpt>
<trkpt lat="46.0216290" lon="10.3942920">
	<ele>1269.60</ele>
	<time>2024-07-24T06:58:48.000Z</time>
</trkpt>
<trkpt lat="46.0216280" lon="10.3943040">
	<ele>1269.80</ele>
	<time>2024-07-24T06:58:49.000Z</time>
</trkpt>
<trkpt lat="46.0216210" lon="10.3943130">
	<ele>1270.00</ele>
	<time>2024-07-24T06:58:50.000Z</time>
</trkpt>
<trkpt lat="46.0216140" lon="10.3943190">
	<ele>1270.20</ele>
	<time>2024-07-24T06:58:51.000Z</time>
</trkpt>
<trkpt lat="46.0216110" lon="10.3943350">
	<ele>1270.40</ele>
	<time>2024-07-24T06:58:52.000Z</time>
</trkpt>
<trkpt lat="46.0216080" lon="10.3943450">
	<ele>1270.60</ele>
	<time>2024-07-24T06:58:53.000Z</time>
</trkpt>
<trkpt lat="46.0216060" lon="10.3943550">
	<ele>1270.80</ele>
	<time>2024-07-24T06:58:54.000Z</time>
</trkpt>
<trkpt lat="46.0216020" lon="10.3943630">
	<ele>1271.20</ele>
	<time>2024-07-24T06:58:55.000Z</time>
</trkpt>
<trkpt lat="46.0215960" lon="10.3943730">
	<ele>1271.40</ele>
	<time>2024-07-24T06:58:56.000Z</time>
</trkpt>
<trkpt lat="46.0215890" lon="10.3943810">
	<ele>1271.60</ele>
	<time>2024-07-24T06:58:57.000Z</time>
</trkpt>
<trkpt lat="46.0215800" lon="10.3943890">
	<ele>1272.00</ele>
	<time>2024-07-24T06:58:58.000Z</time>
</trkpt>
<trkpt lat="46.0215730" lon="10.3943980">
	<ele>1272.20</ele>
	<time>2024-07-24T06:58:59.000Z</time>
</trkpt>
<trkpt lat="46.0215670" lon="10.3944110">
	<ele>1272.40</ele>
	<time>2024-07-24T06:59:00.000Z</time>
</trkpt>
<trkpt lat="46.0215590" lon="10.3944190">
	<ele>1272.60</ele>
	<time>2024-07-24T06:59:01.000Z</time>
</trkpt>
<trkpt lat="46.0215460" lon="10.3944210">
	<ele>1272.60</ele>
	<time>2024-07-24T06:59:02.000Z</time>
</trkpt>
<trkpt lat="46.0215340" lon="10.3944220">
	<ele>1272.80</ele>
	<time>2024-07-24T06:59:03.000Z</time>
</trkpt>
<trkpt lat="46.0215240" lon="10.3944270">
	<ele>1272.80</ele>
	<time>2024-07-24T06:59:04.000Z</time>
</trkpt>
<trkpt lat="46.0215140" lon="10.3944320">
	<ele>1273.20</ele>
	<time>2024-07-24T06:59:05.000Z</time>
</trkpt>
<trkpt lat="46.0215060" lon="10.3944400">
	<ele>1273.20</ele>
	<time>2024-07-24T06:59:06.000Z</time>
</trkpt>
<trkpt lat="46.0215060" lon="10.3944540">
	<ele>1273.40</ele>
	<time>2024-07-24T06:59:07.000Z</time>
</trkpt>
<trkpt lat="46.0215030" lon="10.3944710">
	<ele>1273.60</ele>
	<time>2024-07-24T06:59:08.000Z</time>
</trkpt>
<trkpt lat="46.0214960" lon="10.3944850">
	<ele>1273.80</ele>
	<time>2024-07-24T06:59:09.000Z</time>
</trkpt>
<trkpt lat="46.0214870" lon="10.3944940">
	<ele>1274.00</ele>
	<time>2024-07-24T06:59:10.000Z</time>
</trkpt>
<trkpt lat="46.0214770" lon="10.3944970">
	<ele>1274.20</ele>
	<time>2024-07-24T06:59:11.000Z</time>
</trkpt>
<trkpt lat="46.0214620" lon="10.3945020">
	<ele>1274.40</ele>
	<time>2024-07-24T06:59:12.000Z</time>
</trkpt>
<trkpt lat="46.0214570" lon="10.3945170">
	<ele>1274.40</ele>
	<time>2024-07-24T06:59:13.000Z</time>
</trkpt>
<trkpt lat="46.0214590" lon="10.3945350">
	<ele>1274.60</ele>
	<time>2024-07-24T06:59:14.000Z</time>
</trkpt>
<trkpt lat="46.0214590" lon="10.3945490">
	<ele>1274.60</ele>
	<time>2024-07-24T06:59:15.000Z</time>
</trkpt>
<trkpt lat="46.0214580" lon="10.3945610">
	<ele>1274.80</ele>
	<time>2024-07-24T06:59:16.000Z</time>
</trkpt>
<trkpt lat="46.0214530" lon="10.3945740">
	<ele>1275.00</ele>
	<time>2024-07-24T06:59:17.000Z</time>
</trkpt>
<trkpt lat="46.0214530" lon="10.3945920">
	<ele>1275.20</ele>
	<time>2024-07-24T06:59:18.000Z</time>
</trkpt>
<trkpt lat="46.0214520" lon="10.3946070">
	<ele>1275.20</ele>
	<time>2024-07-24T06:59:19.000Z</time>
</trkpt>
<trkpt lat="46.0214500" lon="10.3946240">
	<ele>1275.40</ele>
	<time>2024-07-24T06:59:20.000Z</time>
</trkpt>
<trkpt lat="46.0214510" lon="10.3946440">
	<ele>1275.40</ele>
	<time>2024-07-24T06:59:21.000Z</time>
</trkpt>
<trkpt lat="46.0214530" lon="10.3946570">
	<ele>1275.60</ele>
	<time>2024-07-24T06:59:22.000Z</time>
</trkpt>
<trkpt lat="46.0214530" lon="10.3946680">
	<ele>1275.80</ele>
	<time>2024-07-24T06:59:23.000Z</time>
</trkpt>
<trkpt lat="46.0214550" lon="10.3946810">
	<ele>1275.80</ele>
	<time>2024-07-24T06:59:24.000Z</time>
</trkpt>
<trkpt lat="46.0214570" lon="10.3947010">
	<ele>1276.00</ele>
	<time>2024-07-24T06:59:25.000Z</time>
</trkpt>
<trkpt lat="46.0214620" lon="10.3947150">
	<ele>1276.20</ele>
	<time>2024-07-24T06:59:26.000Z</time>
</trkpt>
<trkpt lat="46.0214650" lon="10.3947270">
	<ele>1276.40</ele>
	<time>2024-07-24T06:59:27.000Z</time>
</trkpt>
<trkpt lat="46.0214720" lon="10.3947310">
	<ele>1276.80</ele>
	<time>2024-07-24T06:59:28.000Z</time>
</trkpt>
<trkpt lat="46.0214770" lon="10.3947340">
	<ele>1277.20</ele>
	<time>2024-07-24T06:59:29.000Z</time>
</trkpt>
<trkpt lat="46.0214810" lon="10.3947430">
	<ele>1277.20</ele>
	<time>2024-07-24T06:59:30.000Z</time>
</trkpt>
<trkpt lat="46.0214810" lon="10.3947470">
	<ele>1277.60</ele>
	<time>2024-07-24T06:59:31.000Z</time>
</trkpt>
<trkpt lat="46.0214840" lon="10.3947560">
	<ele>1277.60</ele>
	<time>2024-07-24T06:59:32.000Z</time>
</trkpt>
<trkpt lat="46.0214920" lon="10.3947680">
	<ele>1278.00</ele>
	<time>2024-07-24T06:59:33.000Z</time>
</trkpt>
<trkpt lat="46.0214960" lon="10.3947810">
	<ele>1278.00</ele>
	<time>2024-07-24T06:59:34.000Z</time>
</trkpt>
<trkpt lat="46.0215010" lon="10.3947910">
	<ele>1278.20</ele>
	<time>2024-07-24T06:59:35.000Z</time>
</trkpt>
<trkpt lat="46.0215030" lon="10.3948020">
	<ele>1278.40</ele>
	<time>2024-07-24T06:59:36.000Z</time>
</trkpt>
<trkpt lat="46.0215040" lon="10.3948150">
	<ele>1278.40</ele>
	<time>2024-07-24T06:59:37.000Z</time>
</trkpt>
<trkpt lat="46.0215010" lon="10.3948310">
	<ele>1278.40</ele>
	<time>2024-07-24T06:59:38.000Z</time>
</trkpt>
<trkpt lat="46.0214980" lon="10.3948450">
	<ele>1278.60</ele>
	<time>2024-07-24T06:59:39.000Z</time>
</trkpt>
<trkpt lat="46.0214990" lon="10.3948580">
	<ele>1278.80</ele>
	<time>2024-07-24T06:59:40.000Z</time>
</trkpt>
<trkpt lat="46.0215020" lon="10.3948700">
	<ele>1279.00</ele>
	<time>2024-07-24T06:59:41.000Z</time>
</trkpt>
<trkpt lat="46.0215020" lon="10.3948770">
	<ele>1279.00</ele>
	<time>2024-07-24T06:59:42.000Z</time>
</trkpt>
<trkpt lat="46.0215010" lon="10.3948840">
	<ele>1279.20</ele>
	<time>2024-07-24T06:59:43.000Z</time>
</trkpt>
<trkpt lat="46.0215010" lon="10.3948880">
	<ele>1279.20</ele>
	<time>2024-07-24T06:59:44.000Z</time>
</trkpt>
<trkpt lat="46.0215000" lon="10.3948910">
	<ele>1279.60</ele>
	<time>2024-07-24T06:59:45.000Z</time>
</trkpt>
<trkpt lat="46.0214970" lon="10.3948970">
	<ele>1279.80</ele>
	<time>2024-07-24T06:59:46.000Z</time>
</trkpt>
<trkpt lat="46.0214950" lon="10.3948970">
	<ele>1280.00</ele>
	<time>2024-07-24T06:59:47.000Z</time>
</trkpt>
<trkpt lat="46.0214940" lon="10.3949000">
	<ele>1280.00</ele>
	<time>2024-07-24T06:59:48.000Z</time>
</trkpt>
<trkpt lat="46.0214780" lon="10.3948990">
	<ele>1280.00</ele>
	<time>2024-07-24T06:59:49.000Z</time>
</trkpt>
<trkpt lat="46.0214710" lon="10.3949110">
	<ele>1280.00</ele>
	<time>2024-07-24T06:59:50.000Z</time>
</trkpt>
<trkpt lat="46.0214670" lon="10.3949340">
	<ele>1280.20</ele>
	<time>2024-07-24T06:59:51.000Z</time>
</trkpt>
<trkpt lat="46.0214630" lon="10.3949540">
	<ele>1280.20</ele>
	<time>2024-07-24T06:59:52.000Z</time>
</trkpt>
<trkpt lat="46.0214600" lon="10.3949720">
	<ele>1280.20</ele>
	<time>2024-07-24T06:59:53.000Z</time>
</trkpt>
<trkpt lat="46.0214560" lon="10.3949850">
	<ele>1280.40</ele>
	<time>2024-07-24T06:59:54.000Z</time>
</trkpt>
<trkpt lat="46.0214520" lon="10.3950010">
	<ele>1280.60</ele>
	<time>2024-07-24T06:59:55.000Z</time>
</trkpt>
<trkpt lat="46.0214490" lon="10.3950160">
	<ele>1280.60</ele>
	<time>2024-07-24T06:59:56.000Z</time>
</trkpt>
<trkpt lat="46.0214440" lon="10.3950270">
	<ele>1280.80</ele>
	<time>2024-07-24T06:59:57.000Z</time>
</trkpt>
<trkpt lat="46.0214350" lon="10.3950400">
	<ele>1280.80</ele>
	<time>2024-07-24T06:59:58.000Z</time>
</trkpt>
<trkpt lat="46.0214320" lon="10.3950510">
	<ele>1281.00</ele>
	<time>2024-07-24T06:59:59.000Z</time>
</trkpt>
<trkpt lat="46.0214320" lon="10.3950630">
	<ele>1281.20</ele>
	<time>2024-07-24T07:00:00.000Z</time>
</trkpt>
<trkpt lat="46.0214310" lon="10.3950770">
	<ele>1281.40</ele>
	<time>2024-07-24T07:00:01.000Z</time>
</trkpt>
<trkpt lat="46.0214300" lon="10.3950890">
	<ele>1281.40</ele>
	<time>2024-07-24T07:00:02.000Z</time>
</trkpt>
<trkpt lat="46.0214300" lon="10.3951010">
	<ele>1281.60</ele>
	<time>2024-07-24T07:00:03.000Z</time>
</trkpt>
<trkpt lat="46.0214400" lon="10.3951140">
	<ele>1281.80</ele>
	<time>2024-07-24T07:00:04.000Z</time>
</trkpt>
<trkpt lat="46.0214400" lon="10.3951300">
	<ele>1282.00</ele>
	<time>2024-07-24T07:00:05.000Z</time>
</trkpt>
<trkpt lat="46.0214460" lon="10.3951520">
	<ele>1282.20</ele>
	<time>2024-07-24T07:00:06.000Z</time>
</trkpt>
<trkpt lat="46.0214510" lon="10.3951710">
	<ele>1282.20</ele>
	<time>2024-07-24T07:00:07.000Z</time>
</trkpt>
<trkpt lat="46.0214510" lon="10.3951900">
	<ele>1282.40</ele>
	<time>2024-07-24T07:00:08.000Z</time>
</trkpt>
<trkpt lat="46.0214490" lon="10.3952010">
	<ele>1282.60</ele>
	<time>2024-07-24T07:00:09.000Z</time>
</trkpt>
<trkpt lat="46.0214440" lon="10.3952170">
	<ele>1282.60</ele>
	<time>2024-07-24T07:00:10.000Z</time>
</trkpt>
<trkpt lat="46.0214430" lon="10.3952330">
	<ele>1282.80</ele>
	<time>2024-07-24T07:00:11.000Z</time>
</trkpt>
<trkpt lat="46.0214410" lon="10.3952500">
	<ele>1283.00</ele>
	<time>2024-07-24T07:00:12.000Z</time>
</trkpt>
<trkpt lat="46.0214380" lon="10.3952720">
	<ele>1283.00</ele>
	<time>2024-07-24T07:00:13.000Z</time>
</trkpt>
<trkpt lat="46.0214320" lon="10.3952950">
	<ele>1283.20</ele>
	<time>2024-07-24T07:00:14.000Z</time>
</trkpt>
<trkpt lat="46.0214260" lon="10.3953120">
	<ele>1283.40</ele>
	<time>2024-07-24T07:00:15.000Z</time>
</trkpt>
<trkpt lat="46.0214280" lon="10.3953330">
	<ele>1283.60</ele>
	<time>2024-07-24T07:00:16.000Z</time>
</trkpt>
<trkpt lat="46.0214310" lon="10.3953450">
	<ele>1283.80</ele>
	<time>2024-07-24T07:00:17.000Z</time>
</trkpt>
<trkpt lat="46.0214280" lon="10.3953570">
	<ele>1284.00</ele>
	<time>2024-07-24T07:00:18.000Z</time>
</trkpt>
<trkpt lat="46.0214300" lon="10.3953620">
	<ele>1284.20</ele>
	<time>2024-07-24T07:00:19.000Z</time>
</trkpt>
<trkpt lat="46.0214210" lon="10.3953610">
	<ele>1284.20</ele>
	<time>2024-07-24T07:00:20.000Z</time>
</trkpt>
<trkpt lat="46.0214170" lon="10.3953740">
	<ele>1284.40</ele>
	<time>2024-07-24T07:00:21.000Z</time>
</trkpt>
<trkpt lat="46.0214120" lon="10.3953830">
	<ele>1284.40</ele>
	<time>2024-07-24T07:00:22.000Z</time>
</trkpt>
<trkpt lat="46.0214150" lon="10.3953980">
	<ele>1284.60</ele>
	<time>2024-07-24T07:00:23.000Z</time>
</trkpt>
<trkpt lat="46.0214120" lon="10.3954130">
	<ele>1284.80</ele>
	<time>2024-07-24T07:00:24.000Z</time>
</trkpt>
<trkpt lat="46.0214150" lon="10.3954260">
	<ele>1284.80</ele>
	<time>2024-07-24T07:00:25.000Z</time>
</trkpt>
<trkpt lat="46.0214170" lon="10.3954410">
	<ele>1285.00</ele>
	<time>2024-07-24T07:00:26.000Z</time>
</trkpt>
<trkpt lat="46.0214140" lon="10.3954580">
	<ele>1285.20</ele>
	<time>2024-07-24T07:00:27.000Z</time>
</trkpt>
<trkpt lat="46.0214110" lon="10.3954780">
	<ele>1285.20</ele>
	<time>2024-07-24T07:00:28.000Z</time>
</trkpt>
<trkpt lat="46.0214060" lon="10.3954990">
	<ele>1285.40</ele>
	<time>2024-07-24T07:00:29.000Z</time>
</trkpt>
<trkpt lat="46.0214020" lon="10.3955100">
	<ele>1285.60</ele>
	<time>2024-07-24T07:00:30.000Z</time>
</trkpt>
<trkpt lat="46.0213960" lon="10.3955260">
	<ele>1285.60</ele>
	<time>2024-07-24T07:00:31.000Z</time>
</trkpt>
<trkpt lat="46.0213990" lon="10.3955400">
	<ele>1285.80</ele>
	<time>2024-07-24T07:00:32.000Z</time>
</trkpt>
<trkpt lat="46.0213960" lon="10.3955530">
	<ele>1286.00</ele>
	<time>2024-07-24T07:00:33.000Z</time>
</trkpt>
<trkpt lat="46.0213940" lon="10.3955670">
	<ele>1286.00</ele>
	<time>2024-07-24T07:00:34.000Z</time>
</trkpt>
<trkpt lat="46.0213930" lon="10.3955830">
	<ele>1286.20</ele>
	<time>2024-07-24T07:00:35.000Z</time>
</trkpt>
<trkpt lat="46.0213900" lon="10.3956020">
	<ele>1286.20</ele>
	<time>2024-07-24T07:00:36.000Z</time>
</trkpt>
<trkpt lat="46.0213910" lon="10.3956220">
	<ele>1286.40</ele>
	<time>2024-07-24T07:00:37.000Z</time>
</trkpt>
<trkpt lat="46.0213960" lon="10.3956370">
	<ele>1286.40</ele>
	<time>2024-07-24T07:00:38.000Z</time>
</trkpt>
<trkpt lat="46.0213980" lon="10.3956530">
	<ele>1286.60</ele>
	<time>2024-07-24T07:00:39.000Z</time>
</trkpt>
<trkpt lat="46.0213980" lon="10.3956680">
	<ele>1286.60</ele>
	<time>2024-07-24T07:00:40.000Z</time>
</trkpt>
<trkpt lat="46.0214010" lon="10.3956810">
	<ele>1286.80</ele>
	<time>2024-07-24T07:00:41.000Z</time>
</trkpt>
<trkpt lat="46.0214080" lon="10.3956980">
	<ele>1286.80</ele>
	<time>2024-07-24T07:00:42.000Z</time>
</trkpt>
<trkpt lat="46.0214140" lon="10.3957150">
	<ele>1287.00</ele>
	<time>2024-07-24T07:00:43.000Z</time>
</trkpt>
<trkpt lat="46.0214150" lon="10.3957330">
	<ele>1287.20</ele>
	<time>2024-07-24T07:00:44.000Z</time>
</trkpt>
<trkpt lat="46.0214160" lon="10.3957530">
	<ele>1287.20</ele>
	<time>2024-07-24T07:00:45.000Z</time>
</trkpt>
<trkpt lat="46.0214210" lon="10.3957740">
	<ele>1287.40</ele>
	<time>2024-07-24T07:00:46.000Z</time>
</trkpt>
<trkpt lat="46.0214190" lon="10.3957910">
	<ele>1287.40</ele>
	<time>2024-07-24T07:00:47.000Z</time>
</trkpt>
<trkpt lat="46.0214190" lon="10.3958130">
	<ele>1287.40</ele>
	<time>2024-07-24T07:00:48.000Z</time>
</trkpt>
<trkpt lat="46.0214180" lon="10.3958280">
	<ele>1287.60</ele>
	<time>2024-07-24T07:00:49.000Z</time>
</trkpt>
<trkpt lat="46.0214190" lon="10.3958430">
	<ele>1287.60</ele>
	<time>2024-07-24T07:00:50.000Z</time>
</trkpt>
<trkpt lat="46.0214120" lon="10.3958580">
	<ele>1287.60</ele>
	<time>2024-07-24T07:00:51.000Z</time>
</trkpt>
<trkpt lat="46.0214100" lon="10.3958690">
	<ele>1287.60</ele>
	<time>2024-07-24T07:00:52.000Z</time>
</trkpt>
<trkpt lat="46.0214140" lon="10.3958910">
	<ele>1287.80</ele>
	<time>2024-07-24T07:00:53.000Z</time>
</trkpt>
<trkpt lat="46.0214180" lon="10.3959240">
	<ele>1287.80</ele>
	<time>2024-07-24T07:00:54.000Z</time>
</trkpt>
<trkpt lat="46.0214150" lon="10.3959370">
	<ele>1288.00</ele>
	<time>2024-07-24T07:00:55.000Z</time>
</trkpt>
<trkpt lat="46.0214140" lon="10.3959490">
	<ele>1288.00</ele>
	<time>2024-07-24T07:00:56.000Z</time>
</trkpt>
<trkpt lat="46.0214110" lon="10.3959660">
	<ele>1288.00</ele>
	<time>2024-07-24T07:00:57.000Z</time>
</trkpt>
<trkpt lat="46.0214070" lon="10.3959820">
	<ele>1288.20</ele>
	<time>2024-07-24T07:00:58.000Z</time>
</trkpt>
<trkpt lat="46.0214050" lon="10.3959940">
	<ele>1288.40</ele>
	<time>2024-07-24T07:00:59.000Z</time>
</trkpt>
<trkpt lat="46.0214020" lon="10.3960130">
	<ele>1288.40</ele>
	<time>2024-07-24T07:01:00.000Z</time>
</trkpt>
<trkpt lat="46.0214030" lon="10.3960340">
	<ele>1288.40</ele>
	<time>2024-07-24T07:01:01.000Z</time>
</trkpt>
<trkpt lat="46.0214020" lon="10.3960520">
	<ele>1288.40</ele>
	<time>2024-07-24T07:01:02.000Z</time>
</trkpt>
<trkpt lat="46.0213960" lon="10.3960680">
	<ele>1288.60</ele>
	<time>2024-07-24T07:01:03.000Z</time>
</trkpt>
<trkpt lat="46.0213900" lon="10.3960800">
	<ele>1288.60</ele>
	<time>2024-07-24T07:01:04.000Z</time>
</trkpt>
<trkpt lat="46.0213850" lon="10.3960990">
	<ele>1288.60</ele>
	<time>2024-07-24T07:01:05.000Z</time>
</trkpt>
<trkpt lat="46.0213840" lon="10.3961110">
	<ele>1288.80</ele>
	<time>2024-07-24T07:01:06.000Z</time>
</trkpt>
<trkpt lat="46.0213850" lon="10.3961260">
	<ele>1288.80</ele>
	<time>2024-07-24T07:01:07.000Z</time>
</trkpt>
<trkpt lat="46.0213860" lon="10.3961380">
	<ele>1289.00</ele>
	<time>2024-07-24T07:01:08.000Z</time>
</trkpt>
<trkpt lat="46.0213840" lon="10.3961510">
	<ele>1289.20</ele>
	<time>2024-07-24T07:01:09.000Z</time>
</trkpt>
<trkpt lat="46.0213820" lon="10.3961580">
	<ele>1289.20</ele>
	<time>2024-07-24T07:01:10.000Z</time>
</trkpt>
<trkpt lat="46.0213830" lon="10.3961730">
	<ele>1289.40</ele>
	<time>2024-07-24T07:01:11.000Z</time>
</trkpt>
<trkpt lat="46.0213820" lon="10.3961880">
	<ele>1289.60</ele>
	<time>2024-07-24T07:01:12.000Z</time>
</trkpt>
<trkpt lat="46.0213810" lon="10.3962000">
	<ele>1289.60</ele>
	<time>2024-07-24T07:01:13.000Z</time>
</trkpt>
<trkpt lat="46.0213780" lon="10.3962140">
	<ele>1289.80</ele>
	<time>2024-07-24T07:01:14.000Z</time>
</trkpt>
<trkpt lat="46.0213770" lon="10.3962280">
	<ele>1290.20</ele>
	<time>2024-07-24T07:01:15.000Z</time>
</trkpt>
<trkpt lat="46.0213760" lon="10.3962430">
	<ele>1290.20</ele>
	<time>2024-07-24T07:01:16.000Z</time>
</trkpt>
<trkpt lat="46.0213740" lon="10.3962590">
	<ele>1290.40</ele>
	<time>2024-07-24T07:01:17.000Z</time>
</trkpt>
<trkpt lat="46.0213740" lon="10.3962750">
	<ele>1290.40</ele>
	<time>2024-07-24T07:01:18.000Z</time>
</trkpt>
<trkpt lat="46.0213760" lon="10.3962900">
	<ele>1290.60</ele>
	<time>2024-07-24T07:01:19.000Z</time>
</trkpt>
<trkpt lat="46.0213790" lon="10.3963060">
	<ele>1290.80</ele>
	<time>2024-07-24T07:01:20.000Z</time>
</trkpt>
<trkpt lat="46.0213770" lon="10.3963190">
	<ele>1290.80</ele>
	<time>2024-07-24T07:01:21.000Z</time>
</trkpt>
<trkpt lat="46.0213770" lon="10.3963260">
	<ele>1291.00</ele>
	<time>2024-07-24T07:01:22.000Z</time>
</trkpt>
<trkpt lat="46.0213780" lon="10.3963280">
	<ele>1291.00</ele>
	<time>2024-07-24T07:01:23.000Z</time>
</trkpt>
<trkpt lat="46.0213790" lon="10.3963280">
	<ele>1291.00</ele>
	<time>2024-07-24T07:01:24.000Z</time>
</trkpt>
<trkpt lat="46.0213810" lon="10.3963270">
	<ele>1291.20</ele>
	<time>2024-07-24T07:01:25.000Z</time>
</trkpt>
<trkpt lat="46.0213820" lon="10.3963270">
	<ele>1291.20</ele>
	<time>2024-07-24T07:01:26.000Z</time>
</trkpt>
<trkpt lat="46.0213800" lon="10.3963300">
	<ele>1291.40</ele>
	<time>2024-07-24T07:01:27.000Z</time>
</trkpt>
<trkpt lat="46.0213780" lon="10.3963310">
	<ele>1291.40</ele>
	<time>2024-07-24T07:01:28.000Z</time>
</trkpt>
<trkpt lat="46.0213780" lon="10.3963310">
	<ele>1291.40</ele>
	<time>2024-07-24T07:01:29.000Z</time>
</trkpt>
<trkpt lat="46.0213730" lon="10.3963260">
	<ele>1291.40</ele>
	<time>2024-07-24T07:01:30.000Z</time>
</trkpt>
<trkpt lat="46.0213710" lon="10.3963220">
	<ele>1291.40</ele>
	<time>2024-07-24T07:01:31.000Z</time>
</trkpt>
<trkpt lat="46.0213700" lon="10.3963190">
	<ele>1291.40</ele>
	<time>2024-07-24T07:01:32.000Z</time>
</trkpt>
<trkpt lat="46.0213700" lon="10.3963170">
	<ele>1291.40</ele>
	<time>2024-07-24T07:01:33.000Z</time>
</trkpt>
<trkpt lat="46.0213660" lon="10.3963200">
	<ele>1291.40</ele>
	<time>2024-07-24T07:01:34.000Z</time>
</trkpt>
<trkpt lat="46.0213620" lon="10.3963170">
	<ele>1291.40</ele>
	<time>2024-07-24T07:01:35.000Z</time>
</trkpt>
<trkpt lat="46.0213610" lon="10.3963140">
	<ele>1291.60</ele>
	<time>2024-07-24T07:01:36.000Z</time>
</trkpt>
<trkpt lat="46.0213590" lon="10.3963110">
	<ele>1291.60</ele>
	<time>2024-07-24T07:01:37.000Z</time>
</trkpt>
<trkpt lat="46.0213570" lon="10.3963090">
	<ele>1291.60</ele>
	<time>2024-07-24T07:01:38.000Z</time>
</trkpt>
<trkpt lat="46.0213570" lon="10.3963090">
	<ele>1291.80</ele>
	<time>2024-07-24T07:01:39.000Z</time>
</trkpt>
<trkpt lat="46.0213570" lon="10.3963090">
	<ele>1291.80</ele>
	<time>2024-07-24T07:01:40.000Z</time>
</trkpt>
<trkpt lat="46.0213570" lon="10.3963090">
	<ele>1292.00</ele>
	<time>2024-07-24T07:01:41.000Z</time>
</trkpt>
<trkpt lat="46.0213570" lon="10.3963090">
	<ele>1292.00</ele>
	<time>2024-07-24T07:01:42.000Z</time>
</trkpt>
<trkpt lat="46.0213570" lon="10.3963090">
	<ele>1292.00</ele>
	<time>2024-07-24T07:01:43.000Z</time>
</trkpt>
<trkpt lat="46.0213570" lon="10.3963090">
	<ele>1292.00</ele>
	<time>2024-07-24T07:01:44.000Z</time>
</trkpt>
<trkpt lat="46.0213570" lon="10.3963090">
	<ele>1292.00</ele>
	<time>2024-07-24T07:01:45.000Z</time>
</trkpt>
<trkpt lat="46.0213570" lon="10.3963090">
	<ele>1292.00</ele>
	<time>2024-07-24T07:01:46.000Z</time>
</trkpt>
<trkpt lat="46.0213570" lon="10.3963090">
	<ele>1292.00</ele>
	<time>2024-07-24T07:01:47.000Z</time>
</trkpt>
<trkpt lat="46.0213570" lon="10.3963130">
	<ele>1292.00</ele>
	<time>2024-07-24T07:01:48.000Z</time>
</trkpt>
<trkpt lat="46.0213550" lon="10.3963250">
	<ele>1292.00</ele>
	<time>2024-07-24T07:01:49.000Z</time>
</trkpt>
<trkpt lat="46.0213520" lon="10.3963400">
	<ele>1292.20</ele>
	<time>2024-07-24T07:01:50.000Z</time>
</trkpt>
<trkpt lat="46.0213530" lon="10.3963530">
	<ele>1292.40</ele>
	<time>2024-07-24T07:01:51.000Z</time>
</trkpt>
<trkpt lat="46.0213540" lon="10.3963700">
	<ele>1292.60</ele>
	<time>2024-07-24T07:01:52.000Z</time>
</trkpt>
<trkpt lat="46.0213520" lon="10.3963890">
	<ele>1292.80</ele>
	<time>2024-07-24T07:01:53.000Z</time>
</trkpt>
<trkpt lat="46.0213490" lon="10.3964120">
	<ele>1293.00</ele>
	<time>2024-07-24T07:01:54.000Z</time>
</trkpt>
<trkpt lat="46.0213470" lon="10.3964260">
	<ele>1293.00</ele>
	<time>2024-07-24T07:01:55.000Z</time>
</trkpt>
<trkpt lat="46.0213450" lon="10.3964440">
	<ele>1293.40</ele>
	<time>2024-07-24T07:01:56.000Z</time>
</trkpt>
<trkpt lat="46.0213420" lon="10.3964590">
	<ele>1293.80</ele>
	<time>2024-07-24T07:01:57.000Z</time>
</trkpt>
<trkpt lat="46.0213380" lon="10.3964680">
	<ele>1294.00</ele>
	<time>2024-07-24T07:01:58.000Z</time>
</trkpt>
<trkpt lat="46.0213330" lon="10.3964780">
	<ele>1294.20</ele>
	<time>2024-07-24T07:01:59.000Z</time>
</trkpt>
<trkpt lat="46.0213290" lon="10.3964910">
	<ele>1294.20</ele>
	<time>2024-07-24T07:02:00.000Z</time>
</trkpt>
<trkpt lat="46.0213280" lon="10.3965070">
	<ele>1294.40</ele>
	<time>2024-07-24T07:02:01.000Z</time>
</trkpt>
<trkpt lat="46.0213250" lon="10.3965200">
	<ele>1294.60</ele>
	<time>2024-07-24T07:02:02.000Z</time>
</trkpt>
<trkpt lat="46.0213180" lon="10.3965320">
	<ele>1294.80</ele>
	<time>2024-07-24T07:02:03.000Z</time>
</trkpt>
<trkpt lat="46.0213160" lon="10.3965440">
	<ele>1294.80</ele>
	<time>2024-07-24T07:02:04.000Z</time>
</trkpt>
<trkpt lat="46.0213140" lon="10.3965550">
	<ele>1295.00</ele>
	<time>2024-07-24T07:02:05.000Z</time>
</trkpt>
<trkpt lat="46.0213110" lon="10.3965650">
	<ele>1295.20</ele>
	<time>2024-07-24T07:02:06.000Z</time>
</trkpt>
<trkpt lat="46.0213090" lon="10.3965770">
	<ele>1295.60</ele>
	<time>2024-07-24T07:02:07.000Z</time>
</trkpt>
<trkpt lat="46.0213070" lon="10.3965860">
	<ele>1295.80</ele>
	<time>2024-07-24T07:02:08.000Z</time>
</trkpt>
<trkpt lat="46.0213030" lon="10.3965890">
	<ele>1296.00</ele>
	<time>2024-07-24T07:02:09.000Z</time>
</trkpt>
<trkpt lat="46.0212970" lon="10.3965970">
	<ele>1296.20</ele>
	<time>2024-07-24T07:02:10.000Z</time>
</trkpt>
<trkpt lat="46.0212930" lon="10.3966060">
	<ele>1296.40</ele>
	<time>2024-07-24T07:02:11.000Z</time>
</trkpt>
<trkpt lat="46.0212910" lon="10.3966190">
	<ele>1296.40</ele>
	<time>2024-07-24T07:02:12.000Z</time>
</trkpt>
<trkpt lat="46.0212890" lon="10.3966300">
	<ele>1296.60</ele>
	<time>2024-07-24T07:02:13.000Z</time>
</trkpt>
<trkpt lat="46.0212830" lon="10.3966380">
	<ele>1297.00</ele>
	<time>2024-07-24T07:02:14.000Z</time>
</trkpt>
<trkpt lat="46.0212790" lon="10.3966470">
	<ele>1297.20</ele>
	<time>2024-07-24T07:02:15.000Z</time>
</trkpt>
<trkpt lat="46.0212770" lon="10.3966560">
	<ele>1297.20</ele>
	<time>2024-07-24T07:02:16.000Z</time>
</trkpt>
<trkpt lat="46.0212770" lon="10.3966690">
	<ele>1297.40</ele>
	<time>2024-07-24T07:02:17.000Z</time>
</trkpt>
<trkpt lat="46.0212760" lon="10.3966810">
	<ele>1297.80</ele>
	<time>2024-07-24T07:02:18.000Z</time>
</trkpt>
<trkpt lat="46.0212730" lon="10.3966890">
	<ele>1298.00</ele>
	<time>2024-07-24T07:02:19.000Z</time>
</trkpt>
<trkpt lat="46.0212700" lon="10.3966960">
	<ele>1298.00</ele>
	<time>2024-07-24T07:02:20.000Z</time>
</trkpt>
<trkpt lat="46.0212660" lon="10.3967040">
	<ele>1298.40</ele>
	<time>2024-07-24T07:02:21.000Z</time>
</trkpt>
<trkpt lat="46.0212600" lon="10.3967140">
	<ele>1298.60</ele>
	<time>2024-07-24T07:02:22.000Z</time>
</trkpt>
<trkpt lat="46.0212560" lon="10.3967250">
	<ele>1299.00</ele>
	<time>2024-07-24T07:02:23.000Z</time>
</trkpt>
<trkpt lat="46.0212530" lon="10.3967350">
	<ele>1299.20</ele>
	<time>2024-07-24T07:02:24.000Z</time>
</trkpt>
<trkpt lat="46.0212500" lon="10.3967430">
	<ele>1299.40</ele>
	<time>2024-07-24T07:02:25.000Z</time>
</trkpt>
<trkpt lat="46.0212480" lon="10.3967530">
	<ele>1299.40</ele>
	<time>2024-07-24T07:02:26.000Z</time>
</trkpt>
<trkpt lat="46.0212480" lon="10.3967620">
	<ele>1299.60</ele>
	<time>2024-07-24T07:02:27.000Z</time>
</trkpt>
<trkpt lat="46.0212470" lon="10.3967720">
	<ele>1299.80</ele>
	<time>2024-07-24T07:02:28.000Z</time>
</trkpt>
<trkpt lat="46.0212460" lon="10.3967840">
	<ele>1300.00</ele>
	<time>2024-07-24T07:02:29.000Z</time>
</trkpt>
<trkpt lat="46.0212430" lon="10.3967930">
	<ele>1300.20</ele>
	<time>2024-07-24T07:02:30.000Z</time>
</trkpt>
<trkpt lat="46.0212410" lon="10.3968010">
	<ele>1300.40</ele>
	<time>2024-07-24T07:02:31.000Z</time>
</trkpt>
<trkpt lat="46.0212370" lon="10.3968110">
	<ele>1300.60</ele>
	<time>2024-07-24T07:02:32.000Z</time>
</trkpt>
<trkpt lat="46.0212340" lon="10.3968220">
	<ele>1300.60</ele>
	<time>2024-07-24T07:02:33.000Z</time>
</trkpt>
<trkpt lat="46.0212310" lon="10.3968350">
	<ele>1301.00</ele>
	<time>2024-07-24T07:02:34.000Z</time>
</trkpt>
<trkpt lat="46.0212270" lon="10.3968440">
	<ele>1301.00</ele>
	<time>2024-07-24T07:02:35.000Z</time>
</trkpt>
<trkpt lat="46.0212220" lon="10.3968490">
	<ele>1301.40</ele>
	<time>2024-07-24T07:02:36.000Z</time>
</trkpt>
<trkpt lat="46.0212190" lon="10.3968570">
	<ele>1301.60</ele>
	<time>2024-07-24T07:02:37.000Z</time>
</trkpt>
<trkpt lat="46.0212230" lon="10.3968720">
	<ele>1301.80</ele>
	<time>2024-07-24T07:02:38.000Z</time>
</trkpt>
<trkpt lat="46.0212270" lon="10.3968810">
	<ele>1302.00</ele>
	<time>2024-07-24T07:02:39.000Z</time>
</trkpt>
<trkpt lat="46.0212280" lon="10.3968900">
	<ele>1302.00</ele>
	<time>2024-07-24T07:02:40.000Z</time>
</trkpt>
<trkpt lat="46.0212270" lon="10.3969010">
	<ele>1302.40</ele>
	<time>2024-07-24T07:02:41.000Z</time>
</trkpt>
<trkpt lat="46.0212250" lon="10.3969100">
	<ele>1302.60</ele>
	<time>2024-07-24T07:02:42.000Z</time>
</trkpt>
<trkpt lat="46.0212230" lon="10.3969220">
	<ele>1302.60</ele>
	<time>2024-07-24T07:02:43.000Z</time>
</trkpt>
<trkpt lat="46.0212240" lon="10.3969330">
	<ele>1303.00</ele>
	<time>2024-07-24T07:02:44.000Z</time>
</trkpt>
<trkpt lat="46.0212240" lon="10.3969450">
	<ele>1303.20</ele>
	<time>2024-07-24T07:02:45.000Z</time>
</trkpt>
<trkpt lat="46.0212230" lon="10.3969520">
	<ele>1303.20</ele>
	<time>2024-07-24T07:02:46.000Z</time>
</trkpt>
<trkpt lat="46.0212260" lon="10.3969560">
	<ele>1303.40</ele>
	<time>2024-07-24T07:02:47.000Z</time>
</trkpt>
<trkpt lat="46.0212240" lon="10.3969640">
	<ele>1303.80</ele>
	<time>2024-07-24T07:02:48.000Z</time>
</trkpt>
<trkpt lat="46.0212190" lon="10.3969690">
	<ele>1303.80</ele>
	<time>2024-07-24T07:02:49.000Z</time>
</trkpt>
<trkpt lat="46.0212140" lon="10.3969670">
	<ele>1304.00</ele>
	<time>2024-07-24T07:02:50.000Z</time>
</trkpt>
<trkpt lat="46.0212080" lon="10.3969710">
	<ele>1304.20</ele>
	<time>2024-07-24T07:02:51.000Z</time>
</trkpt>
<trkpt lat="46.0212060" lon="10.3969790">
	<ele>1304.40</ele>
	<time>2024-07-24T07:02:52.000Z</time>
</trkpt>
<trkpt lat="46.0212060" lon="10.3969920">
	<ele>1304.60</ele>
	<time>2024-07-24T07:02:53.000Z</time>
</trkpt>
<trkpt lat="46.0212060" lon="10.3970020">
	<ele>1304.80</ele>
	<time>2024-07-24T07:02:54.000Z</time>
</trkpt>
<trkpt lat="46.0212060" lon="10.3970110">
	<ele>1305.00</ele>
	<time>2024-07-24T07:02:55.000Z</time>
</trkpt>
<trkpt lat="46.0212100" lon="10.3970210">
	<ele>1305.40</ele>
	<time>2024-07-24T07:02:56.000Z</time>
</trkpt>
<trkpt lat="46.0212060" lon="10.3970380">
	<ele>1305.60</ele>
	<time>2024-07-24T07:02:57.000Z</time>
</trkpt>
<trkpt lat="46.0212060" lon="10.3970460">
	<ele>1305.80</ele>
	<time>2024-07-24T07:02:58.000Z</time>
</trkpt>
<trkpt lat="46.0212060" lon="10.3970530">
	<ele>1306.00</ele>
	<time>2024-07-24T07:02:59.000Z</time>
</trkpt>
<trkpt lat="46.0212060" lon="10.3970630">
	<ele>1306.20</ele>
	<time>2024-07-24T07:03:00.000Z</time>
</trkpt>
<trkpt lat="46.0212040" lon="10.3970710">
	<ele>1306.40</ele>
	<time>2024-07-24T07:03:01.000Z</time>
</trkpt>
<trkpt lat="46.0212010" lon="10.3970730">
	<ele>1306.60</ele>
	<time>2024-07-24T07:03:02.000Z</time>
</trkpt>
<trkpt lat="46.0211950" lon="10.3970800">
	<ele>1306.60</ele>
	<time>2024-07-24T07:03:03.000Z</time>
</trkpt>
<trkpt lat="46.0211920" lon="10.3970870">
	<ele>1307.00</ele>
	<time>2024-07-24T07:03:04.000Z</time>
</trkpt>
<trkpt lat="46.0211900" lon="10.3970940">
	<ele>1307.20</ele>
	<time>2024-07-24T07:03:05.000Z</time>
</trkpt>
<trkpt lat="46.0211920" lon="10.3971060">
	<ele>1307.40</ele>
	<time>2024-07-24T07:03:06.000Z</time>
</trkpt>
<trkpt lat="46.0211930" lon="10.3971120">
	<ele>1307.60</ele>
	<time>2024-07-24T07:03:07.000Z</time>
</trkpt>
<trkpt lat="46.0211920" lon="10.3971220">
	<ele>1307.80</ele>
	<time>2024-07-24T07:03:08.000Z</time>
</trkpt>
<trkpt lat="46.0211910" lon="10.3971310">
	<ele>1308.00</ele>
	<time>2024-07-24T07:03:09.000Z</time>
</trkpt>
<trkpt lat="46.0211920" lon="10.3971390">
	<ele>1308.20</ele>
	<time>2024-07-24T07:03:10.000Z</time>
</trkpt>
<trkpt lat="46.0211910" lon="10.3971480">
	<ele>1308.40</ele>
	<time>2024-07-24T07:03:11.000Z</time>
</trkpt>
<trkpt lat="46.0211870" lon="10.3971550">
	<ele>1308.60</ele>
	<time>2024-07-24T07:03:12.000Z</time>
</trkpt>
<trkpt lat="46.0211840" lon="10.3971600">
	<ele>1308.80</ele>
	<time>2024-07-24T07:03:13.000Z</time>
</trkpt>
<trkpt lat="46.0211830" lon="10.3971660">
	<ele>1309.00</ele>
	<time>2024-07-24T07:03:14.000Z</time>
</trkpt>
<trkpt lat="46.0211830" lon="10.3971730">
	<ele>1309.20</ele>
	<time>2024-07-24T07:03:15.000Z</time>
</trkpt>
<trkpt lat="46.0211860" lon="10.3971830">
	<ele>1309.40</ele>
	<time>2024-07-24T07:03:16.000Z</time>
</trkpt>
<trkpt lat="46.0211860" lon="10.3971890">
	<ele>1309.60</ele>
	<time>2024-07-24T07:03:17.000Z</time>
</trkpt>
<trkpt lat="46.0211840" lon="10.3972000">
	<ele>1309.60</ele>
	<time>2024-07-24T07:03:18.000Z</time>
</trkpt>
<trkpt lat="46.0211790" lon="10.3972030">
	<ele>1310.00</ele>
	<time>2024-07-24T07:03:19.000Z</time>
</trkpt>
<trkpt lat="46.0211740" lon="10.3972060">
	<ele>1310.20</ele>
	<time>2024-07-24T07:03:20.000Z</time>
</trkpt>
<trkpt lat="46.0211690" lon="10.3972170">
	<ele>1310.40</ele>
	<time>2024-07-24T07:03:21.000Z</time>
</trkpt>
<trkpt lat="46.0211670" lon="10.3972280">
	<ele>1310.60</ele>
	<time>2024-07-24T07:03:22.000Z</time>
</trkpt>
<trkpt lat="46.0211630" lon="10.3972380">
	<ele>1310.80</ele>
	<time>2024-07-24T07:03:23.000Z</time>
</trkpt>
<trkpt lat="46.0211600" lon="10.3972500">
	<ele>1311.00</ele>
	<time>2024-07-24T07:03:24.000Z</time>
</trkpt>
<trkpt lat="46.0211570" lon="10.3972630">
	<ele>1311.20</ele>
	<time>2024-07-24T07:03:25.000Z</time>
</trkpt>
<trkpt lat="46.0211540" lon="10.3972760">
	<ele>1311.40</ele>
	<time>2024-07-24T07:03:26.000Z</time>
</trkpt>
<trkpt lat="46.0211500" lon="10.3972880">
	<ele>1311.60</ele>
	<time>2024-07-24T07:03:27.000Z</time>
</trkpt>
<trkpt lat="46.0211470" lon="10.3972970">
	<ele>1311.60</ele>
	<time>2024-07-24T07:03:28.000Z</time>
</trkpt>
<trkpt lat="46.0211430" lon="10.3973060">
	<ele>1311.80</ele>
	<time>2024-07-24T07:03:29.000Z</time>
</trkpt>
<trkpt lat="46.0211330" lon="10.3973120">
	<ele>1311.80</ele>
	<time>2024-07-24T07:03:30.000Z</time>
</trkpt>
<trkpt lat="46.0211240" lon="10.3973170">
	<ele>1312.20</ele>
	<time>2024-07-24T07:03:31.000Z</time>
</trkpt>
<trkpt lat="46.0211190" lon="10.3973210">
	<ele>1312.20</ele>
	<time>2024-07-24T07:03:32.000Z</time>
</trkpt>
<trkpt lat="46.0211160" lon="10.3973290">
	<ele>1312.40</ele>
	<time>2024-07-24T07:03:33.000Z</time>
</trkpt>
<trkpt lat="46.0211140" lon="10.3973360">
	<ele>1312.60</ele>
	<time>2024-07-24T07:03:34.000Z</time>
</trkpt>
<trkpt lat="46.0211160" lon="10.3973570">
	<ele>1313.00</ele>
	<time>2024-07-24T07:03:35.000Z</time>
</trkpt>
<trkpt lat="46.0211150" lon="10.3973670">
	<ele>1313.00</ele>
	<time>2024-07-24T07:03:36.000Z</time>
</trkpt>
<trkpt lat="46.0211190" lon="10.3973770">
	<ele>1313.40</ele>
	<time>2024-07-24T07:03:37.000Z</time>
</trkpt>
<trkpt lat="46.0211110" lon="10.3973760">
	<ele>1313.40</ele>
	<time>2024-07-24T07:03:38.000Z</time>
</trkpt>
<trkpt lat="46.0211080" lon="10.3973790">
	<ele>1313.60</ele>
	<time>2024-07-24T07:03:39.000Z</time>
</trkpt>
<trkpt lat="46.0211010" lon="10.3973820">
	<ele>1313.80</ele>
	<time>2024-07-24T07:03:40.000Z</time>
</trkpt>
<trkpt lat="46.0210970" lon="10.3973870">
	<ele>1314.00</ele>
	<time>2024-07-24T07:03:41.000Z</time>
</trkpt>
<trkpt lat="46.0210900" lon="10.3973930">
	<ele>1314.20</ele>
	<time>2024-07-24T07:03:42.000Z</time>
</trkpt>
<trkpt lat="46.0210820" lon="10.3973990">
	<ele>1314.40</ele>
	<time>2024-07-24T07:03:43.000Z</time>
</trkpt>
<trkpt lat="46.0210740" lon="10.3974010">
	<ele>1314.80</ele>
	<time>2024-07-24T07:03:44.000Z</time>
</trkpt>
<trkpt lat="46.0210690" lon="10.3974000">
	<ele>1315.00</ele>
	<time>2024-07-24T07:03:45.000Z</time>
</trkpt>
<trkpt lat="46.0210640" lon="10.3974050">
	<ele>1315.20</ele>
	<time>2024-07-24T07:03:46.000Z</time>
</trkpt>
<trkpt lat="46.0210600" lon="10.3974110">
	<ele>1315.20</ele>
	<time>2024-07-24T07:03:47.000Z</time>
</trkpt>
<trkpt lat="46.0210560" lon="10.3974190">
	<ele>1315.40</ele>
	<time>2024-07-24T07:03:48.000Z</time>
</trkpt>
<trkpt lat="46.0210520" lon="10.3974290">
	<ele>1315.40</ele>
	<time>2024-07-24T07:03:49.000Z</time>
</trkpt>
<trkpt lat="46.0210450" lon="10.3974350">
	<ele>1315.60</ele>
	<time>2024-07-24T07:03:50.000Z</time>
</trkpt>
<trkpt lat="46.0210380" lon="10.3974360">
	<ele>1315.80</ele>
	<time>2024-07-24T07:03:51.000Z</time>
</trkpt>
<trkpt lat="46.0210310" lon="10.3974440">
	<ele>1315.80</ele>
	<time>2024-07-24T07:03:52.000Z</time>
</trkpt>
<trkpt lat="46.0210290" lon="10.3974540">
	<ele>1316.00</ele>
	<time>2024-07-24T07:03:53.000Z</time>
</trkpt>
<trkpt lat="46.0210260" lon="10.3974620">
	<ele>1316.20</ele>
	<time>2024-07-24T07:03:54.000Z</time>
</trkpt>
<trkpt lat="46.0210200" lon="10.3974660">
	<ele>1316.20</ele>
	<time>2024-07-24T07:03:55.000Z</time>
</trkpt>
<trkpt lat="46.0210120" lon="10.3974700">
	<ele>1316.40</ele>
	<time>2024-07-24T07:03:56.000Z</time>
</trkpt>
<trkpt lat="46.0210010" lon="10.3974730">
	<ele>1316.60</ele>
	<time>2024-07-24T07:03:57.000Z</time>
</trkpt>
<trkpt lat="46.0209930" lon="10.3974760">
	<ele>1316.80</ele>
	<time>2024-07-24T07:03:58.000Z</time>
</trkpt>
<trkpt lat="46.0209880" lon="10.3974840">
	<ele>1317.00</ele>
	<time>2024-07-24T07:03:59.000Z</time>
</trkpt>
<trkpt lat="46.0209860" lon="10.3974900">
	<ele>1317.20</ele>
	<time>2024-07-24T07:04:00.000Z</time>
</trkpt>
<trkpt lat="46.0209780" lon="10.3974960">
	<ele>1317.40</ele>
	<time>2024-07-24T07:04:01.000Z</time>
</trkpt>
<trkpt lat="46.0209700" lon="10.3974980">
	<ele>1317.60</ele>
	<time>2024-07-24T07:04:02.000Z</time>
</trkpt>
<trkpt lat="46.0209630" lon="10.3974980">
	<ele>1317.80</ele>
	<time>2024-07-24T07:04:03.000Z</time>
</trkpt>
<trkpt lat="46.0209600" lon="10.3975050">
	<ele>1318.00</ele>
	<time>2024-07-24T07:04:04.000Z</time>
</trkpt>
<trkpt lat="46.0209530" lon="10.3975130">
	<ele>1318.20</ele>
	<time>2024-07-24T07:04:05.000Z</time>
</trkpt>
<trkpt lat="46.0209480" lon="10.3975210">
	<ele>1318.40</ele>
	<time>2024-07-24T07:04:06.000Z</time>
</trkpt>
<trkpt lat="46.0209450" lon="10.3975320">
	<ele>1318.60</ele>
	<time>2024-07-24T07:04:07.000Z</time>
</trkpt>
<trkpt lat="46.0209410" lon="10.3975410">
	<ele>1318.80</ele>
	<time>2024-07-24T07:04:08.000Z</time>
</trkpt>
<trkpt lat="46.0209340" lon="10.3975450">
	<ele>1319.00</ele>
	<time>2024-07-24T07:04:09.000Z</time>
</trkpt>
<trkpt lat="46.0209260" lon="10.3975490">
	<ele>1319.00</ele>
	<time>2024-07-24T07:04:10.000Z</time>
</trkpt>
<trkpt lat="46.0209180" lon="10.3975490">
	<ele>1319.40</ele>
	<time>2024-07-24T07:04:11.000Z</time>
</trkpt>
<trkpt lat="46.0209130" lon="10.3975470">
	<ele>1319.60</ele>
	<time>2024-07-24T07:04:12.000Z</time>
</trkpt>
<trkpt lat="46.0209080" lon="10.3975460">
	<ele>1319.80</ele>
	<time>2024-07-24T07:04:13.000Z</time>
</trkpt>
<trkpt lat="46.0209040" lon="10.3975460">
	<ele>1319.80</ele>
	<time>2024-07-24T07:04:14.000Z</time>
</trkpt>
<trkpt lat="46.0209000" lon="10.3975440">
	<ele>1320.00</ele>
	<time>2024-07-24T07:04:15.000Z</time>
</trkpt>
<trkpt lat="46.0208960" lon="10.3975460">
	<ele>1320.00</ele>
	<time>2024-07-24T07:04:16.000Z</time>
</trkpt>
<trkpt lat="46.0208960" lon="10.3975500">
	<ele>1320.40</ele>
	<time>2024-07-24T07:04:17.000Z</time>
</trkpt>
<trkpt lat="46.0208940" lon="10.3975590">
	<ele>1320.60</ele>
	<time>2024-07-24T07:04:18.000Z</time>
</trkpt>
<trkpt lat="46.0208900" lon="10.3975670">
	<ele>1320.80</ele>
	<time>2024-07-24T07:04:19.000Z</time>
</trkpt>
<trkpt lat="46.0208890" lon="10.3975730">
	<ele>1321.00</ele>
	<time>2024-07-24T07:04:20.000Z</time>
</trkpt>
<trkpt lat="46.0208890" lon="10.3975800">
	<ele>1321.00</ele>
	<time>2024-07-24T07:04:21.000Z</time>
</trkpt>
<trkpt lat="46.0208850" lon="10.3975900">
	<ele>1321.20</ele>
	<time>2024-07-24T07:04:22.000Z</time>
</trkpt>
<trkpt lat="46.0208870" lon="10.3976020">
	<ele>1321.40</ele>
	<time>2024-07-24T07:04:23.000Z</time>
</trkpt>
<trkpt lat="46.0208900" lon="10.3976190">
	<ele>1321.60</ele>
	<time>2024-07-24T07:04:24.000Z</time>
</trkpt>
<trkpt lat="46.0208900" lon="10.3976290">
	<ele>1321.80</ele>
	<time>2024-07-24T07:04:25.000Z</time>
</trkpt>
<trkpt lat="46.0208890" lon="10.3976330">
	<ele>1322.00</ele>
	<time>2024-07-24T07:04:26.000Z</time>
</trkpt>
<trkpt lat="46.0208820" lon="10.3976390">
	<ele>1322.20</ele>
	<time>2024-07-24T07:04:27.000Z</time>
</trkpt>
<trkpt lat="46.0208770" lon="10.3976490">
	<ele>1322.40</ele>
	<time>2024-07-24T07:04:28.000Z</time>
</trkpt>
<trkpt lat="46.0208710" lon="10.3976650">
	<ele>1322.60</ele>
	<time>2024-07-24T07:04:29.000Z</time>
</trkpt>
<trkpt lat="46.0208710" lon="10.3976830">
	<ele>1322.60</ele>
	<time>2024-07-24T07:04:30.000Z</time>
</trkpt>
<trkpt lat="46.0208720" lon="10.3976930">
	<ele>1322.80</ele>
	<time>2024-07-24T07:04:31.000Z</time>
</trkpt>
<trkpt lat="46.0208710" lon="10.3977100">
	<ele>1322.80</ele>
	<time>2024-07-24T07:04:32.000Z</time>
</trkpt>
<trkpt lat="46.0208750" lon="10.3977280">
	<ele>1323.00</ele>
	<time>2024-07-24T07:04:33.000Z</time>
</trkpt>
<trkpt lat="46.0208800" lon="10.3977460">
	<ele>1323.20</ele>
	<time>2024-07-24T07:04:34.000Z</time>
</trkpt>
<trkpt lat="46.0208850" lon="10.3977580">
	<ele>1323.40</ele>
	<time>2024-07-24T07:04:35.000Z</time>
</trkpt>
<trkpt lat="46.0208970" lon="10.3977780">
	<ele>1323.40</ele>
	<time>2024-07-24T07:04:36.000Z</time>
</trkpt>
<trkpt lat="46.0209100" lon="10.3977920">
	<ele>1323.60</ele>
	<time>2024-07-24T07:04:37.000Z</time>
</trkpt>
<trkpt lat="46.0209200" lon="10.3978120">
	<ele>1323.80</ele>
	<time>2024-07-24T07:04:38.000Z</time>
</trkpt>
<trkpt lat="46.0209210" lon="10.3978260">
	<ele>1323.80</ele>
	<time>2024-07-24T07:04:39.000Z</time>
</trkpt>
<trkpt lat="46.0209170" lon="10.3978400">
	<ele>1324.00</ele>
	<time>2024-07-24T07:04:40.000Z</time>
</trkpt>
<trkpt lat="46.0209110" lon="10.3978510">
	<ele>1324.20</ele>
	<time>2024-07-24T07:04:41.000Z</time>
</trkpt>
<trkpt lat="46.0209050" lon="10.3978590">
	<ele>1324.20</ele>
	<time>2024-07-24T07:04:42.000Z</time>
</trkpt>
<trkpt lat="46.0209030" lon="10.3978650">
	<ele>1324.40</ele>
	<time>2024-07-24T07:04:43.000Z</time>
</trkpt>
<trkpt lat="46.0209050" lon="10.3978730">
	<ele>1324.40</ele>
	<time>2024-07-24T07:04:44.000Z</time>
</trkpt>
<trkpt lat="46.0209100" lon="10.3978860">
	<ele>1324.60</ele>
	<time>2024-07-24T07:04:45.000Z</time>
</trkpt>
<trkpt lat="46.0209120" lon="10.3979000">
	<ele>1324.60</ele>
	<time>2024-07-24T07:04:46.000Z</time>
</trkpt>
<trkpt lat="46.0209110" lon="10.3979110">
	<ele>1324.80</ele>
	<time>2024-07-24T07:04:47.000Z</time>
</trkpt>
<trkpt lat="46.0209070" lon="10.3979180">
	<ele>1325.00</ele>
	<time>2024-07-24T07:04:48.000Z</time>
</trkpt>
<trkpt lat="46.0209040" lon="10.3979260">
	<ele>1325.20</ele>
	<time>2024-07-24T07:04:49.000Z</time>
</trkpt>
<trkpt lat="46.0209020" lon="10.3979380">
	<ele>1325.40</ele>
	<time>2024-07-24T07:04:50.000Z</time>
</trkpt>
<trkpt lat="46.0208990" lon="10.3979530">
	<ele>1325.60</ele>
	<time>2024-07-24T07:04:51.000Z</time>
</trkpt>
<trkpt lat="46.0208920" lon="10.3979660">
	<ele>1325.80</ele>
	<time>2024-07-24T07:04:52.000Z</time>
</trkpt>
<trkpt lat="46.0208860" lon="10.3979780">
	<ele>1326.00</ele>
	<time>2024-07-24T07:04:53.000Z</time>
</trkpt>
<trkpt lat="46.0208780" lon="10.3979970">
	<ele>1326.00</ele>
	<time>2024-07-24T07:04:54.000Z</time>
</trkpt>
<trkpt lat="46.0208730" lon="10.3980100">
	<ele>1326.20</ele>
	<time>2024-07-24T07:04:55.000Z</time>
</trkpt>
<trkpt lat="46.0208720" lon="10.3980270">
	<ele>1326.20</ele>
	<time>2024-07-24T07:04:56.000Z</time>
</trkpt>
<trkpt lat="46.0208740" lon="10.3980400">
	<ele>1326.60</ele>
	<time>2024-07-24T07:04:57.000Z</time>
</trkpt>
<trkpt lat="46.0208750" lon="10.3980490">
	<ele>1326.80</ele>
	<time>2024-07-24T07:04:58.000Z</time>
</trkpt>
<trkpt lat="46.0208830" lon="10.3980660">
	<ele>1327.00</ele>
	<time>2024-07-24T07:04:59.000Z</time>
</trkpt>
<trkpt lat="46.0208930" lon="10.3980830">
	<ele>1327.00</ele>
	<time>2024-07-24T07:05:00.000Z</time>
</trkpt>
<trkpt lat="46.0208970" lon="10.3980970">
	<ele>1327.20</ele>
	<time>2024-07-24T07:05:01.000Z</time>
</trkpt>
<trkpt lat="46.0209010" lon="10.3981110">
	<ele>1327.40</ele>
	<time>2024-07-24T07:05:02.000Z</time>
</trkpt>
<trkpt lat="46.0208950" lon="10.3981170">
	<ele>1327.60</ele>
	<time>2024-07-24T07:05:03.000Z</time>
</trkpt>
<trkpt lat="46.0208880" lon="10.3981210">
	<ele>1327.80</ele>
	<time>2024-07-24T07:05:04.000Z</time>
</trkpt>
<trkpt lat="46.0208740" lon="10.3981250">
	<ele>1328.00</ele>
	<time>2024-07-24T07:05:05.000Z</time>
</trkpt>
<trkpt lat="46.0208690" lon="10.3981370">
	<ele>1328.00</ele>
	<time>2024-07-24T07:05:06.000Z</time>
</trkpt>
<trkpt lat="46.0208690" lon="10.3981490">
	<ele>1328.20</ele>
	<time>2024-07-24T07:05:07.000Z</time>
</trkpt>
<trkpt lat="46.0208640" lon="10.3981580">
	<ele>1328.20</ele>
	<time>2024-07-24T07:05:08.000Z</time>
</trkpt>
<trkpt lat="46.0208610" lon="10.3981690">
	<ele>1328.40</ele>
	<time>2024-07-24T07:05:09.000Z</time>
</trkpt>
<trkpt lat="46.0208570" lon="10.3981840">
	<ele>1328.60</ele>
	<time>2024-07-24T07:05:10.000Z</time>
</trkpt>
<trkpt lat="46.0208540" lon="10.3981940">
	<ele>1328.80</ele>
	<time>2024-07-24T07:05:11.000Z</time>
</trkpt>
<trkpt lat="46.0208510" lon="10.3982060">
	<ele>1329.00</ele>
	<time>2024-07-24T07:05:12.000Z</time>
</trkpt>
<trkpt lat="46.0208470" lon="10.3982190">
	<ele>1329.20</ele>
	<time>2024-07-24T07:05:13.000Z</time>
</trkpt>
<trkpt lat="46.0208430" lon="10.3982300">
	<ele>1329.40</ele>
	<time>2024-07-24T07:05:14.000Z</time>
</trkpt>
<trkpt lat="46.0208410" lon="10.3982390">
	<ele>1329.40</ele>
	<time>2024-07-24T07:05:15.000Z</time>
</trkpt>
<trkpt lat="46.0208380" lon="10.3982500">
	<ele>1329.60</ele>
	<time>2024-07-24T07:05:16.000Z</time>
</trkpt>
<trkpt lat="46.0208330" lon="10.3982610">
	<ele>1329.80</ele>
	<time>2024-07-24T07:05:17.000Z</time>
</trkpt>
<trkpt lat="46.0208240" lon="10.3982710">
	<ele>1330.00</ele>
	<time>2024-07-24T07:05:18.000Z</time>
</trkpt>
<trkpt lat="46.0208130" lon="10.3982810">
	<ele>1330.40</ele>
	<time>2024-07-24T07:05:19.000Z</time>
</trkpt>
<trkpt lat="46.0208080" lon="10.3982850">
	<ele>1330.60</ele>
	<time>2024-07-24T07:05:20.000Z</time>
</trkpt>
<trkpt lat="46.0207980" lon="10.3982920">
	<ele>1330.60</ele>
	<time>2024-07-24T07:05:21.000Z</time>
</trkpt>
<trkpt lat="46.0207860" lon="10.3982940">
	<ele>1331.00</ele>
	<time>2024-07-24T07:05:22.000Z</time>
</trkpt>
<trkpt lat="46.0207770" lon="10.3982990">
	<ele>1331.20</ele>
	<time>2024-07-24T07:05:23.000Z</time>
</trkpt>
<trkpt lat="46.0207700" lon="10.3983090">
	<ele>1331.20</ele>
	<time>2024-07-24T07:05:24.000Z</time>
</trkpt>
<trkpt lat="46.0207670" lon="10.3983230">
	<ele>1331.40</ele>
	<time>2024-07-24T07:05:25.000Z</time>
</trkpt>
<trkpt lat="46.0207640" lon="10.3983330">
	<ele>1331.60</ele>
	<time>2024-07-24T07:05:26.000Z</time>
</trkpt>
<trkpt lat="46.0207610" lon="10.3983470">
	<ele>1331.60</ele>
	<time>2024-07-24T07:05:27.000Z</time>
</trkpt>
<trkpt lat="46.0207590" lon="10.3983600">
	<ele>1332.00</ele>
	<time>2024-07-24T07:05:28.000Z</time>
</trkpt>
<trkpt lat="46.0207560" lon="10.3983700">
	<ele>1332.20</ele>
	<time>2024-07-24T07:05:29.000Z</time>
</trkpt>
<trkpt lat="46.0207520" lon="10.3983890">
	<ele>1332.40</ele>
	<time>2024-07-24T07:05:30.000Z</time>
</trkpt>
<trkpt lat="46.0207560" lon="10.3984070">
	<ele>1332.60</ele>
	<time>2024-07-24T07:05:31.000Z</time>
</trkpt>
<trkpt lat="46.0207570" lon="10.3984140">
	<ele>1332.60</ele>
	<time>2024-07-24T07:05:32.000Z</time>
</trkpt>
<trkpt lat="46.0207580" lon="10.3984250">
	<ele>1332.80</ele>
	<time>2024-07-24T07:05:33.000Z</time>
</trkpt>
<trkpt lat="46.0207580" lon="10.3984440">
	<ele>1332.80</ele>
	<time>2024-07-24T07:05:34.000Z</time>
</trkpt>
<trkpt lat="46.0207610" lon="10.3984610">
	<ele>1333.20</ele>
	<time>2024-07-24T07:05:35.000Z</time>
</trkpt>
<trkpt lat="46.0207540" lon="10.3984710">
	<ele>1333.40</ele>
	<time>2024-07-24T07:05:36.000Z</time>
</trkpt>
<trkpt lat="46.0207520" lon="10.3984820">
	<ele>1333.60</ele>
	<time>2024-07-24T07:05:37.000Z</time>
</trkpt>
<trkpt lat="46.0207510" lon="10.3984920">
	<ele>1333.80</ele>
	<time>2024-07-24T07:05:38.000Z</time>
</trkpt>
<trkpt lat="46.0207470" lon="10.3985060">
	<ele>1334.00</ele>
	<time>2024-07-24T07:05:39.000Z</time>
</trkpt>
<trkpt lat="46.0207530" lon="10.3985240">
	<ele>1334.20</ele>
	<time>2024-07-24T07:05:40.000Z</time>
</trkpt>
<trkpt lat="46.0207600" lon="10.3985380">
	<ele>1334.40</ele>
	<time>2024-07-24T07:05:41.000Z</time>
</trkpt>
<trkpt lat="46.0207680" lon="10.3985550">
	<ele>1334.60</ele>
	<time>2024-07-24T07:05:42.000Z</time>
</trkpt>
<trkpt lat="46.0207690" lon="10.3985690">
	<ele>1334.60</ele>
	<time>2024-07-24T07:05:43.000Z</time>
</trkpt>
<trkpt lat="46.0207670" lon="10.3985770">
	<ele>1334.80</ele>
	<time>2024-07-24T07:05:44.000Z</time>
</trkpt>
<trkpt lat="46.0207610" lon="10.3985810">
	<ele>1335.20</ele>
	<time>2024-07-24T07:05:45.000Z</time>
</trkpt>
<trkpt lat="46.0207550" lon="10.3985920">
	<ele>1335.20</ele>
	<time>2024-07-24T07:05:46.000Z</time>
</trkpt>
<trkpt lat="46.0207490" lon="10.3986060">
	<ele>1335.40</ele>
	<time>2024-07-24T07:05:47.000Z</time>
</trkpt>
<trkpt lat="46.0207430" lon="10.3986180">
	<ele>1335.60</ele>
	<time>2024-07-24T07:05:48.000Z</time>
</trkpt>
<trkpt lat="46.0207410" lon="10.3986270">
	<ele>1335.80</ele>
	<time>2024-07-24T07:05:49.000Z</time>
</trkpt>
<trkpt lat="46.0207390" lon="10.3986390">
	<ele>1336.00</ele>
	<time>2024-07-24T07:05:50.000Z</time>
</trkpt>
<trkpt lat="46.0207400" lon="10.3986500">
	<ele>1336.40</ele>
	<time>2024-07-24T07:05:51.000Z</time>
</trkpt>
<trkpt lat="46.0207390" lon="10.3986580">
	<ele>1336.60</ele>
	<time>2024-07-24T07:05:52.000Z</time>
</trkpt>
<trkpt lat="46.0207430" lon="10.3986780">
	<ele>1336.80</ele>
	<time>2024-07-24T07:05:53.000Z</time>
</trkpt>
<trkpt lat="46.0207410" lon="10.3986930">
	<ele>1337.00</ele>
	<time>2024-07-24T07:05:54.000Z</time>
</trkpt>
<trkpt lat="46.0207370" lon="10.3987020">
	<ele>1337.20</ele>
	<time>2024-07-24T07:05:55.000Z</time>
</trkpt>
<trkpt lat="46.0207380" lon="10.3987110">
	<ele>1337.20</ele>
	<time>2024-07-24T07:05:56.000Z</time>
</trkpt>
<trkpt lat="46.0207360" lon="10.3987210">
	<ele>1337.40</ele>
	<time>2024-07-24T07:05:57.000Z</time>
</trkpt>
<trkpt lat="46.0207400" lon="10.3987280">
	<ele>1337.60</ele>
	<time>2024-07-24T07:05:58.000Z</time>
</trkpt>
<trkpt lat="46.0207440" lon="10.3987360">
	<ele>1337.80</ele>
	<time>2024-07-24T07:05:59.000Z</time>
</trkpt>
<trkpt lat="46.0207460" lon="10.3987450">
	<ele>1338.00</ele>
	<time>2024-07-24T07:06:00.000Z</time>
</trkpt>
<trkpt lat="46.0207340" lon="10.3987530">
	<ele>1338.20</ele>
	<time>2024-07-24T07:06:01.000Z</time>
</trkpt>
<trkpt lat="46.0207250" lon="10.3987600">
	<ele>1338.20</ele>
	<time>2024-07-24T07:06:02.000Z</time>
</trkpt>
<trkpt lat="46.0207230" lon="10.3987700">
	<ele>1338.60</ele>
	<time>2024-07-24T07:06:03.000Z</time>
</trkpt>
<trkpt lat="46.0207220" lon="10.3987810">
	<ele>1338.80</ele>
	<time>2024-07-24T07:06:04.000Z</time>
</trkpt>
<trkpt lat="46.0207200" lon="10.3987950">
	<ele>1339.00</ele>
	<time>2024-07-24T07:06:05.000Z</time>
</trkpt>
<trkpt lat="46.0207190" lon="10.3988050">
	<ele>1339.00</ele>
	<time>2024-07-24T07:06:06.000Z</time>
</trkpt>
<trkpt lat="46.0207070" lon="10.3988110">
	<ele>1339.20</ele>
	<time>2024-07-24T07:06:07.000Z</time>
</trkpt>
<trkpt lat="46.0207000" lon="10.3988280">
	<ele>1339.40</ele>
	<time>2024-07-24T07:06:08.000Z</time>
</trkpt>
<trkpt lat="46.0206990" lon="10.3988430">
	<ele>1339.60</ele>
	<time>2024-07-24T07:06:09.000Z</time>
</trkpt>
<trkpt lat="46.0207010" lon="10.3988530">
	<ele>1340.00</ele>
	<time>2024-07-24T07:06:10.000Z</time>
</trkpt>
<trkpt lat="46.0206990" lon="10.3988620">
	<ele>1340.20</ele>
	<time>2024-07-24T07:06:11.000Z</time>
</trkpt>
<trkpt lat="46.0206970" lon="10.3988730">
	<ele>1340.20</ele>
	<time>2024-07-24T07:06:12.000Z</time>
</trkpt>
<trkpt lat="46.0206940" lon="10.3988860">
	<ele>1340.40</ele>
	<time>2024-07-24T07:06:13.000Z</time>
</trkpt>
<trkpt lat="46.0206900" lon="10.3988980">
	<ele>1340.60</ele>
	<time>2024-07-24T07:06:14.000Z</time>
</trkpt>
<trkpt lat="46.0206880" lon="10.3989120">
	<ele>1340.80</ele>
	<time>2024-07-24T07:06:15.000Z</time>
</trkpt>
<trkpt lat="46.0206880" lon="10.3989240">
	<ele>1341.00</ele>
	<time>2024-07-24T07:06:16.000Z</time>
</trkpt>
<trkpt lat="46.0206880" lon="10.3989340">
	<ele>1341.20</ele>
	<time>2024-07-24T07:06:17.000Z</time>
</trkpt>
<trkpt lat="46.0206870" lon="10.3989520">
	<ele>1341.40</ele>
	<time>2024-07-24T07:06:18.000Z</time>
</trkpt>
<trkpt lat="46.0206840" lon="10.3989620">
	<ele>1341.60</ele>
	<time>2024-07-24T07:06:19.000Z</time>
</trkpt>
<trkpt lat="46.0206800" lon="10.3989720">
	<ele>1341.60</ele>
	<time>2024-07-24T07:06:20.000Z</time>
</trkpt>
<trkpt lat="46.0206780" lon="10.3989860">
	<ele>1341.80</ele>
	<time>2024-07-24T07:06:21.000Z</time>
</trkpt>
<trkpt lat="46.0206760" lon="10.3990010">
	<ele>1342.00</ele>
	<time>2024-07-24T07:06:22.000Z</time>
</trkpt>
<trkpt lat="46.0206740" lon="10.3990130">
	<ele>1342.20</ele>
	<time>2024-07-24T07:06:23.000Z</time>
</trkpt>
<trkpt lat="46.0206730" lon="10.3990270">
	<ele>1342.20</ele>
	<time>2024-07-24T07:06:24.000Z</time>
</trkpt>
<trkpt lat="46.0206730" lon="10.3990420">
	<ele>1342.40</ele>
	<time>2024-07-24T07:06:25.000Z</time>
</trkpt>
<trkpt lat="46.0206700" lon="10.3990530">
	<ele>1342.60</ele>
	<time>2024-07-24T07:06:26.000Z</time>
</trkpt>
<trkpt lat="46.0206640" lon="10.3990600">
	<ele>1342.80</ele>
	<time>2024-07-24T07:06:27.000Z</time>
</trkpt>
<trkpt lat="46.0206570" lon="10.3990680">
	<ele>1343.00</ele>
	<time>2024-07-24T07:06:28.000Z</time>
</trkpt>
<trkpt lat="46.0206480" lon="10.3990750">
	<ele>1343.00</ele>
	<time>2024-07-24T07:06:29.000Z</time>
</trkpt>
<trkpt lat="46.0206440" lon="10.3990870">
	<ele>1343.20</ele>
	<time>2024-07-24T07:06:30.000Z</time>
</trkpt>
<trkpt lat="46.0206420" lon="10.3990980">
	<ele>1343.40</ele>
	<time>2024-07-24T07:06:31.000Z</time>
</trkpt>
<trkpt lat="46.0206400" lon="10.3991080">
	<ele>1343.60</ele>
	<time>2024-07-24T07:06:32.000Z</time>
</trkpt>
<trkpt lat="46.0206370" lon="10.3991120">
	<ele>1343.80</ele>
	<time>2024-07-24T07:06:33.000Z</time>
</trkpt>
<trkpt lat="46.0206350" lon="10.3991230">
	<ele>1343.80</ele>
	<time>2024-07-24T07:06:34.000Z</time>
</trkpt>
<trkpt lat="46.0206340" lon="10.3991390">
	<ele>1344.00</ele>
	<time>2024-07-24T07:06:35.000Z</time>
</trkpt>
<trkpt lat="46.0206310" lon="10.3991560">
	<ele>1344.20</ele>
	<time>2024-07-24T07:06:36.000Z</time>
</trkpt>
<trkpt lat="46.0206270" lon="10.3991680">
	<ele>1344.20</ele>
	<time>2024-07-24T07:06:37.000Z</time>
</trkpt>
<trkpt lat="46.0206260" lon="10.3991800">
	<ele>1344.60</ele>
	<time>2024-07-24T07:06:38.000Z</time>
</trkpt>
<trkpt lat="46.0206250" lon="10.3991910">
	<ele>1344.80</ele>
	<time>2024-07-24T07:06:39.000Z</time>
</trkpt>
<trkpt lat="46.0206250" lon="10.3992030">
	<ele>1345.00</ele>
	<time>2024-07-24T07:06:40.000Z</time>
</trkpt>
<trkpt lat="46.0206250" lon="10.3992170">
	<ele>1345.20</ele>
	<time>2024-07-24T07:06:41.000Z</time>
</trkpt>
<trkpt lat="46.0206230" lon="10.3992250">
	<ele>1345.40</ele>
	<time>2024-07-24T07:06:42.000Z</time>
</trkpt>
<trkpt lat="46.0206200" lon="10.3992390">
	<ele>1345.60</ele>
	<time>2024-07-24T07:06:43.000Z</time>
</trkpt>
<trkpt lat="46.0206160" lon="10.3992510">
	<ele>1345.60</ele>
	<time>2024-07-24T07:06:44.000Z</time>
</trkpt>
<trkpt lat="46.0206150" lon="10.3992620">
	<ele>1345.80</ele>
	<time>2024-07-24T07:06:45.000Z</time>
</trkpt>
<trkpt lat="46.0206140" lon="10.3992730">
	<ele>1345.80</ele>
	<time>2024-07-24T07:06:46.000Z</time>
</trkpt>
<trkpt lat="46.0206150" lon="10.3992870">
	<ele>1346.00</ele>
	<time>2024-07-24T07:06:47.000Z</time>
</trkpt>
<trkpt lat="46.0206140" lon="10.3992950">
	<ele>1346.20</ele>
	<time>2024-07-24T07:06:48.000Z</time>
</trkpt>
<trkpt lat="46.0206120" lon="10.3993080">
	<ele>1346.40</ele>
	<time>2024-07-24T07:06:49.000Z</time>
</trkpt>
<trkpt lat="46.0206140" lon="10.3993210">
	<ele>1346.60</ele>
	<time>2024-07-24T07:06:50.000Z</time>
</trkpt>
<trkpt lat="46.0206160" lon="10.3993380">
	<ele>1346.80</ele>
	<time>2024-07-24T07:06:51.000Z</time>
</trkpt>
<trkpt lat="46.0206150" lon="10.3993520">
	<ele>1347.00</ele>
	<time>2024-07-24T07:06:52.000Z</time>
</trkpt>
<trkpt lat="46.0206130" lon="10.3993640">
	<ele>1347.20</ele>
	<time>2024-07-24T07:06:53.000Z</time>
</trkpt>
<trkpt lat="46.0206090" lon="10.3993800">
	<ele>1347.40</ele>
	<time>2024-07-24T07:06:54.000Z</time>
</trkpt>
<trkpt lat="46.0206070" lon="10.3993960">
	<ele>1347.60</ele>
	<time>2024-07-24T07:06:55.000Z</time>
</trkpt>
<trkpt lat="46.0206020" lon="10.3994120">
	<ele>1347.60</ele>
	<time>2024-07-24T07:06:56.000Z</time>
</trkpt>
<trkpt lat="46.0205980" lon="10.3994270">
	<ele>1347.60</ele>
	<time>2024-07-24T07:06:57.000Z</time>
</trkpt>
<trkpt lat="46.0205950" lon="10.3994350">
	<ele>1348.00</ele>
	<time>2024-07-24T07:06:58.000Z</time>
</trkpt>
<trkpt lat="46.0205880" lon="10.3994480">
	<ele>1348.20</ele>
	<time>2024-07-24T07:06:59.000Z</time>
</trkpt>
<trkpt lat="46.0205850" lon="10.3994580">
	<ele>1348.20</ele>
	<time>2024-07-24T07:07:00.000Z</time>
</trkpt>
<trkpt lat="46.0205840" lon="10.3994760">
	<ele>1348.20</ele>
	<time>2024-07-24T07:07:01.000Z</time>
</trkpt>
<trkpt lat="46.0205840" lon="10.3994870">
	<ele>1348.40</ele>
	<time>2024-07-24T07:07:02.000Z</time>
</trkpt>
<trkpt lat="46.0205830" lon="10.3995040">
	<ele>1348.40</ele>
	<time>2024-07-24T07:07:03.000Z</time>
</trkpt>
<trkpt lat="46.0205800" lon="10.3995200">
	<ele>1348.40</ele>
	<time>2024-07-24T07:07:04.000Z</time>
</trkpt>
<trkpt lat="46.0205780" lon="10.3995360">
	<ele>1348.60</ele>
	<time>2024-07-24T07:07:05.000Z</time>
</trkpt>
<trkpt lat="46.0205750" lon="10.3995490">
	<ele>1348.60</ele>
	<time>2024-07-24T07:07:06.000Z</time>
</trkpt>
<trkpt lat="46.0205690" lon="10.3995660">
	<ele>1348.80</ele>
	<time>2024-07-24T07:07:07.000Z</time>
</trkpt>
<trkpt lat="46.0205660" lon="10.3995780">
	<ele>1348.80</ele>
	<time>2024-07-24T07:07:08.000Z</time>
</trkpt>
<trkpt lat="46.0205640" lon="10.3995950">
	<ele>1349.00</ele>
	<time>2024-07-24T07:07:09.000Z</time>
</trkpt>
<trkpt lat="46.0205640" lon="10.3996190">
	<ele>1349.20</ele>
	<time>2024-07-24T07:07:10.000Z</time>
</trkpt>
<trkpt lat="46.0205620" lon="10.3996350">
	<ele>1349.40</ele>
	<time>2024-07-24T07:07:11.000Z</time>
</trkpt>
<trkpt lat="46.0205620" lon="10.3996470">
	<ele>1349.40</ele>
	<time>2024-07-24T07:07:12.000Z</time>
</trkpt>
<trkpt lat="46.0205600" lon="10.3996580">
	<ele>1349.60</ele>
	<time>2024-07-24T07:07:13.000Z</time>
</trkpt>
<trkpt lat="46.0205540" lon="10.3996700">
	<ele>1349.60</ele>
	<time>2024-07-24T07:07:14.000Z</time>
</trkpt>
<trkpt lat="46.0205520" lon="10.3996900">
	<ele>1349.60</ele>
	<time>2024-07-24T07:07:15.000Z</time>
</trkpt>
<trkpt lat="46.0205510" lon="10.3997070">
	<ele>1349.80</ele>
	<time>2024-07-24T07:07:16.000Z</time>
</trkpt>
<trkpt lat="46.0205500" lon="10.3997200">
	<ele>1349.80</ele>
	<time>2024-07-24T07:07:17.000Z</time>
</trkpt>
<trkpt lat="46.0205470" lon="10.3997360">
	<ele>1350.00</ele>
	<time>2024-07-24T07:07:18.000Z</time>
</trkpt>
<trkpt lat="46.0205440" lon="10.3997520">
	<ele>1350.20</ele>
	<time>2024-07-24T07:07:19.000Z</time>
</trkpt>
<trkpt lat="46.0205440" lon="10.3997650">
	<ele>1350.20</ele>
	<time>2024-07-24T07:07:20.000Z</time>
</trkpt>
<trkpt lat="46.0205430" lon="10.3997820">
	<ele>1350.20</ele>
	<time>2024-07-24T07:07:21.000Z</time>
</trkpt>
<trkpt lat="46.0205410" lon="10.3997940">
	<ele>1350.20</ele>
	<time>2024-07-24T07:07:22.000Z</time>
</trkpt>
<trkpt lat="46.0205390" lon="10.3998090">
	<ele>1350.40</ele>
	<time>2024-07-24T07:07:23.000Z</time>
</trkpt>
<trkpt lat="46.0205390" lon="10.3998260">
	<ele>1350.40</ele>
	<time>2024-07-24T07:07:24.000Z</time>
</trkpt>
<trkpt lat="46.0205390" lon="10.3998420">
	<ele>1350.40</ele>
	<time>2024-07-24T07:07:25.000Z</time>
</trkpt>
<trkpt lat="46.0205370" lon="10.3998560">
	<ele>1350.40</ele>
	<time>2024-07-24T07:07:26.000Z</time>
</trkpt>
<trkpt lat="46.0205340" lon="10.3998660">
	<ele>1350.40</ele>
	<time>2024-07-24T07:07:27.000Z</time>
</trkpt>
<trkpt lat="46.0205330" lon="10.3998770">
	<ele>1350.60</ele>
	<time>2024-07-24T07:07:28.000Z</time>
</trkpt>
<trkpt lat="46.0205360" lon="10.3998910">
	<ele>1350.60</ele>
	<time>2024-07-24T07:07:29.000Z</time>
</trkpt>
<trkpt lat="46.0205390" lon="10.3999080">
	<ele>1350.60</ele>
	<time>2024-07-24T07:07:30.000Z</time>
</trkpt>
<trkpt lat="46.0205400" lon="10.3999200">
	<ele>1350.80</ele>
	<time>2024-07-24T07:07:31.000Z</time>
</trkpt>
<trkpt lat="46.0205420" lon="10.3999320">
	<ele>1351.00</ele>
	<time>2024-07-24T07:07:32.000Z</time>
</trkpt>
<trkpt lat="46.0205400" lon="10.3999450">
	<ele>1351.00</ele>
	<time>2024-07-24T07:07:33.000Z</time>
</trkpt>
<trkpt lat="46.0205360" lon="10.3999600">
	<ele>1351.20</ele>
	<time>2024-07-24T07:07:34.000Z</time>
</trkpt>
<trkpt lat="46.0205350" lon="10.3999740">
	<ele>1351.40</ele>
	<time>2024-07-24T07:07:35.000Z</time>
</trkpt>
<trkpt lat="46.0205340" lon="10.3999870">
	<ele>1351.60</ele>
	<time>2024-07-24T07:07:36.000Z</time>
</trkpt>
<trkpt lat="46.0205330" lon="10.3999970">
	<ele>1351.80</ele>
	<time>2024-07-24T07:07:37.000Z</time>
</trkpt>
<trkpt lat="46.0205340" lon="10.4000080">
	<ele>1352.00</ele>
	<time>2024-07-24T07:07:38.000Z</time>
</trkpt>
<trkpt lat="46.0205340" lon="10.4000220">
	<ele>1352.40</ele>
	<time>2024-07-24T07:07:39.000Z</time>
</trkpt>
<trkpt lat="46.0205320" lon="10.4000330">
	<ele>1352.60</ele>
	<time>2024-07-24T07:07:40.000Z</time>
</trkpt>
<trkpt lat="46.0205350" lon="10.4000400">
	<ele>1352.80</ele>
	<time>2024-07-24T07:07:41.000Z</time>
</trkpt>
<trkpt lat="46.0205330" lon="10.4000490">
	<ele>1353.00</ele>
	<time>2024-07-24T07:07:42.000Z</time>
</trkpt>
<trkpt lat="46.0205340" lon="10.4000570">
	<ele>1353.20</ele>
	<time>2024-07-24T07:07:43.000Z</time>
</trkpt>
<trkpt lat="46.0205330" lon="10.4000620">
	<ele>1353.40</ele>
	<time>2024-07-24T07:07:44.000Z</time>
</trkpt>
<trkpt lat="46.0205330" lon="10.4000640">
	<ele>1353.40</ele>
	<time>2024-07-24T07:07:45.000Z</time>
</trkpt>
<trkpt lat="46.0205310" lon="10.4000660">
	<ele>1353.60</ele>
	<time>2024-07-24T07:07:46.000Z</time>
</trkpt>
<trkpt lat="46.0205300" lon="10.4000680">
	<ele>1353.60</ele>
	<time>2024-07-24T07:07:47.000Z</time>
</trkpt>
<trkpt lat="46.0205300" lon="10.4000720">
	<ele>1353.60</ele>
	<time>2024-07-24T07:07:48.000Z</time>
</trkpt>
<trkpt lat="46.0205310" lon="10.4000740">
	<ele>1353.40</ele>
	<time>2024-07-24T07:07:49.000Z</time>
</trkpt>
<trkpt lat="46.0205310" lon="10.4000740">
	<ele>1353.40</ele>
	<time>2024-07-24T07:07:50.000Z</time>
</trkpt>
<trkpt lat="46.0205320" lon="10.4000740">
	<ele>1353.40</ele>
	<time>2024-07-24T07:07:51.000Z</time>
</trkpt>
<trkpt lat="46.0205340" lon="10.4000750">
	<ele>1353.20</ele>
	<time>2024-07-24T07:07:52.000Z</time>
</trkpt>
<trkpt lat="46.0205350" lon="10.4000770">
	<ele>1353.20</ele>
	<time>2024-07-24T07:07:53.000Z</time>
</trkpt>
<trkpt lat="46.0205350" lon="10.4000770">
	<ele>1353.20</ele>
	<time>2024-07-24T07:07:54.000Z</time>
</trkpt>
<trkpt lat="46.0205350" lon="10.4000780">
	<ele>1353.20</ele>
	<time>2024-07-24T07:07:55.000Z</time>
</trkpt>
<trkpt lat="46.0205350" lon="10.4000810">
	<ele>1353.20</ele>
	<time>2024-07-24T07:07:56.000Z</time>
</trkpt>
<trkpt lat="46.0205350" lon="10.4000830">
	<ele>1353.20</ele>
	<time>2024-07-24T07:07:57.000Z</time>
</trkpt>
<trkpt lat="46.0205340" lon="10.4000840">
	<ele>1353.00</ele>
	<time>2024-07-24T07:07:58.000Z</time>
</trkpt>
<trkpt lat="46.0205330" lon="10.4000850">
	<ele>1353.00</ele>
	<time>2024-07-24T07:07:59.000Z</time>
</trkpt>
<trkpt lat="46.0205340" lon="10.4000840">
	<ele>1353.00</ele>
	<time>2024-07-24T07:08:00.000Z</time>
</trkpt>
<trkpt lat="46.0205360" lon="10.4000870">
	<ele>1353.20</ele>
	<time>2024-07-24T07:08:01.000Z</time>
</trkpt>
<trkpt lat="46.0205350" lon="10.4000950">
	<ele>1353.20</ele>
	<time>2024-07-24T07:08:02.000Z</time>
</trkpt>
<trkpt lat="46.0205370" lon="10.4001040">
	<ele>1353.20</ele>
	<time>2024-07-24T07:08:03.000Z</time>
</trkpt>
<trkpt lat="46.0205410" lon="10.4001140">
	<ele>1353.20</ele>
	<time>2024-07-24T07:08:04.000Z</time>
</trkpt>
<trkpt lat="46.0205440" lon="10.4001220">
	<ele>1353.40</ele>
	<time>2024-07-24T07:08:05.000Z</time>
</trkpt>
<trkpt lat="46.0205430" lon="10.4001350">
	<ele>1353.60</ele>
	<time>2024-07-24T07:08:06.000Z</time>
</trkpt>
<trkpt lat="46.0205430" lon="10.4001470">
	<ele>1353.60</ele>
	<time>2024-07-24T07:08:07.000Z</time>
</trkpt>
<trkpt lat="46.0205430" lon="10.4001610">
	<ele>1353.80</ele>
	<time>2024-07-24T07:08:08.000Z</time>
</trkpt>
<trkpt lat="46.0205460" lon="10.4001730">
	<ele>1354.00</ele>
	<time>2024-07-24T07:08:09.000Z</time>
</trkpt>
<trkpt lat="46.0205500" lon="10.4001830">
	<ele>1354.20</ele>
	<time>2024-07-24T07:08:10.000Z</time>
</trkpt>
<trkpt lat="46.0205530" lon="10.4001940">
	<ele>1354.40</ele>
	<time>2024-07-24T07:08:11.000Z</time>
</trkpt>
<trkpt lat="46.0205540" lon="10.4002030">
	<ele>1354.40</ele>
	<time>2024-07-24T07:08:12.000Z</time>
</trkpt>
<trkpt lat="46.0205540" lon="10.4002100">
	<ele>1354.40</ele>
	<time>2024-07-24T07:08:13.000Z</time>
</trkpt>
<trkpt lat="46.0205530" lon="10.4002130">
	<ele>1354.40</ele>
	<time>2024-07-24T07:08:14.000Z</time>
</trkpt>
<trkpt lat="46.0205460" lon="10.4002140">
	<ele>1354.40</ele>
	<time>2024-07-24T07:08:15.000Z</time>
</trkpt>
<trkpt lat="46.0205460" lon="10.4002150">
	<ele>1354.60</ele>
	<time>2024-07-24T07:08:16.000Z</time>
</trkpt>
<trkpt lat="46.0205460" lon="10.4002160">
	<ele>1354.60</ele>
	<time>2024-07-24T07:08:17.000Z</time>
</trkpt>
<trkpt lat="46.0205460" lon="10.4002180">
	<ele>1354.80</ele>
	<time>2024-07-24T07:08:18.000Z</time>
</trkpt>
<trkpt lat="46.0205450" lon="10.4002190">
	<ele>1354.80</ele>
	<time>2024-07-24T07:08:19.000Z</time>
</trkpt>
<trkpt lat="46.0205440" lon="10.4002200">
	<ele>1354.80</ele>
	<time>2024-07-24T07:08:20.000Z</time>
</trkpt>
<trkpt lat="46.0205440" lon="10.4002210">
	<ele>1354.80</ele>
	<time>2024-07-24T07:08:21.000Z</time>
</trkpt>
<trkpt lat="46.0205440" lon="10.4002240">
	<ele>1354.80</ele>
	<time>2024-07-24T07:08:22.000Z</time>
</trkpt>
<trkpt lat="46.0205470" lon="10.4002260">
	<ele>1354.80</ele>
	<time>2024-07-24T07:08:23.000Z</time>
</trkpt>
<trkpt lat="46.0205500" lon="10.4002280">
	<ele>1354.60</ele>
	<time>2024-07-24T07:08:24.000Z</time>
</trkpt>
<trkpt lat="46.0205510" lon="10.4002360">
	<ele>1354.60</ele>
	<time>2024-07-24T07:08:25.000Z</time>
</trkpt>
<trkpt lat="46.0205520" lon="10.4002500">
	<ele>1354.40</ele>
	<time>2024-07-24T07:08:26.000Z</time>
</trkpt>
<trkpt lat="46.0205540" lon="10.4002640">
	<ele>1354.40</ele>
	<time>2024-07-24T07:08:27.000Z</time>
</trkpt>
<trkpt lat="46.0205610" lon="10.4002830">
	<ele>1354.40</ele>
	<time>2024-07-24T07:08:28.000Z</time>
</trkpt>
<trkpt lat="46.0205660" lon="10.4002950">
	<ele>1354.40</ele>
	<time>2024-07-24T07:08:29.000Z</time>
</trkpt>
<trkpt lat="46.0205700" lon="10.4003080">
	<ele>1354.60</ele>
	<time>2024-07-24T07:08:30.000Z</time>
</trkpt>
<trkpt lat="46.0205700" lon="10.4003210">
	<ele>1354.80</ele>
	<time>2024-07-24T07:08:31.000Z</time>
</trkpt>
<trkpt lat="46.0205650" lon="10.4003310">
	<ele>1355.00</ele>
	<time>2024-07-24T07:08:32.000Z</time>
</trkpt>
<trkpt lat="46.0205570" lon="10.4003430">
	<ele>1355.20</ele>
	<time>2024-07-24T07:08:33.000Z</time>
</trkpt>
<trkpt lat="46.0205530" lon="10.4003510">
	<ele>1355.40</ele>
	<time>2024-07-24T07:08:34.000Z</time>
</trkpt>
<trkpt lat="46.0205520" lon="10.4003600">
	<ele>1355.60</ele>
	<time>2024-07-24T07:08:35.000Z</time>
</trkpt>
<trkpt lat="46.0205510" lon="10.4003770">
	<ele>1355.80</ele>
	<time>2024-07-24T07:08:36.000Z</time>
</trkpt>
<trkpt lat="46.0205510" lon="10.4003940">
	<ele>1356.00</ele>
	<time>2024-07-24T07:08:37.000Z</time>
</trkpt>
<trkpt lat="46.0205510" lon="10.4004180">
	<ele>1356.00</ele>
	<time>2024-07-24T07:08:38.000Z</time>
</trkpt>
<trkpt lat="46.0205480" lon="10.4004390">
	<ele>1356.20</ele>
	<time>2024-07-24T07:08:39.000Z</time>
</trkpt>
<trkpt lat="46.0205440" lon="10.4004510">
	<ele>1356.20</ele>
	<time>2024-07-24T07:08:40.000Z</time>
</trkpt>
<trkpt lat="46.0205380" lon="10.4004610">
	<ele>1356.40</ele>
	<time>2024-07-24T07:08:41.000Z</time>
</trkpt>
<trkpt lat="46.0205310" lon="10.4004760">
	<ele>1356.40</ele>
	<time>2024-07-24T07:08:42.000Z</time>
</trkpt>
<trkpt lat="46.0205310" lon="10.4004960">
	<ele>1356.60</ele>
	<time>2024-07-24T07:08:43.000Z</time>
</trkpt>
<trkpt lat="46.0205290" lon="10.4005060">
	<ele>1356.60</ele>
	<time>2024-07-24T07:08:44.000Z</time>
</trkpt>
<trkpt lat="46.0205290" lon="10.4005200">
	<ele>1356.80</ele>
	<time>2024-07-24T07:08:45.000Z</time>
</trkpt>
<trkpt lat="46.0205320" lon="10.4005380">
	<ele>1357.00</ele>
	<time>2024-07-24T07:08:46.000Z</time>
</trkpt>
<trkpt lat="46.0205340" lon="10.4005450">
	<ele>1357.00</ele>
	<time>2024-07-24T07:08:47.000Z</time>
</trkpt>
<trkpt lat="46.0205330" lon="10.4005600">
	<ele>1357.20</ele>
	<time>2024-07-24T07:08:48.000Z</time>
</trkpt>
<trkpt lat="46.0205270" lon="10.4005710">
	<ele>1357.40</ele>
	<time>2024-07-24T07:08:49.000Z</time>
</trkpt>
<trkpt lat="46.0205190" lon="10.4005850">
	<ele>1357.40</ele>
	<time>2024-07-24T07:08:50.000Z</time>
</trkpt>
<trkpt lat="46.0205120" lon="10.4006040">
	<ele>1357.40</ele>
	<time>2024-07-24T07:08:51.000Z</time>
</trkpt>
<trkpt lat="46.0205090" lon="10.4006190">
	<ele>1357.60</ele>
	<time>2024-07-24T07:08:52.000Z</time>
</trkpt>
<trkpt lat="46.0205100" lon="10.4006320">
	<ele>1357.80</ele>
	<time>2024-07-24T07:08:53.000Z</time>
</trkpt>
<trkpt lat="46.0205080" lon="10.4006420">
	<ele>1358.00</ele>
	<time>2024-07-24T07:08:54.000Z</time>
</trkpt>
<trkpt lat="46.0205060" lon="10.4006550">
	<ele>1358.20</ele>
	<time>2024-07-24T07:08:55.000Z</time>
</trkpt>
<trkpt lat="46.0205020" lon="10.4006750">
	<ele>1358.20</ele>
	<time>2024-07-24T07:08:56.000Z</time>
</trkpt>
<trkpt lat="46.0205000" lon="10.4006920">
	<ele>1358.40</ele>
	<time>2024-07-24T07:08:57.000Z</time>
</trkpt>
<trkpt lat="46.0204970" lon="10.4007080">
	<ele>1358.40</ele>
	<time>2024-07-24T07:08:58.000Z</time>
</trkpt>
<trkpt lat="46.0204940" lon="10.4007220">
	<ele>1358.60</ele>
	<time>2024-07-24T07:08:59.000Z</time>
</trkpt>
<trkpt lat="46.0204870" lon="10.4007320">
	<ele>1358.80</ele>
	<time>2024-07-24T07:09:00.000Z</time>
</trkpt>
<trkpt lat="46.0204830" lon="10.4007450">
	<ele>1359.00</ele>
	<time>2024-07-24T07:09:01.000Z</time>
</trkpt>
<trkpt lat="46.0204770" lon="10.4007590">
	<ele>1359.00</ele>
	<time>2024-07-24T07:09:02.000Z</time>
</trkpt>
<trkpt lat="46.0204730" lon="10.4007730">
	<ele>1359.20</ele>
	<time>2024-07-24T07:09:03.000Z</time>
</trkpt>
<trkpt lat="46.0204680" lon="10.4007840">
	<ele>1359.20</ele>
	<time>2024-07-24T07:09:04.000Z</time>
</trkpt>
<trkpt lat="46.0204640" lon="10.4008030">
	<ele>1359.40</ele>
	<time>2024-07-24T07:09:05.000Z</time>
</trkpt>
<trkpt lat="46.0204610" lon="10.4008130">
	<ele>1359.60</ele>
	<time>2024-07-24T07:09:06.000Z</time>
</trkpt>
<trkpt lat="46.0204570" lon="10.4008280">
	<ele>1359.80</ele>
	<time>2024-07-24T07:09:07.000Z</time>
</trkpt>
<trkpt lat="46.0204540" lon="10.4008370">
	<ele>1360.00</ele>
	<time>2024-07-24T07:09:08.000Z</time>
</trkpt>
<trkpt lat="46.0204490" lon="10.4008450">
	<ele>1360.00</ele>
	<time>2024-07-24T07:09:09.000Z</time>
</trkpt>
<trkpt lat="46.0204440" lon="10.4008560">
	<ele>1360.20</ele>
	<time>2024-07-24T07:09:10.000Z</time>
</trkpt>
<trkpt lat="46.0204400" lon="10.4008660">
	<ele>1360.40</ele>
	<time>2024-07-24T07:09:11.000Z</time>
</trkpt>
<trkpt lat="46.0204360" lon="10.4008760">
	<ele>1360.60</ele>
	<time>2024-07-24T07:09:12.000Z</time>
</trkpt>
<trkpt lat="46.0204300" lon="10.4008880">
	<ele>1360.80</ele>
	<time>2024-07-24T07:09:13.000Z</time>
</trkpt>
<trkpt lat="46.0204250" lon="10.4008890">
	<ele>1361.00</ele>
	<time>2024-07-24T07:09:14.000Z</time>
</trkpt>
<trkpt lat="46.0204100" lon="10.4008850">
	<ele>1361.40</ele>
	<time>2024-07-24T07:09:15.000Z</time>
</trkpt>
<trkpt lat="46.0204010" lon="10.4008870">
	<ele>1361.40</ele>
	<time>2024-07-24T07:09:16.000Z</time>
</trkpt>
<trkpt lat="46.0203940" lon="10.4009000">
	<ele>1361.60</ele>
	<time>2024-07-24T07:09:17.000Z</time>
</trkpt>
<trkpt lat="46.0203920" lon="10.4009160">
	<ele>1361.80</ele>
	<time>2024-07-24T07:09:18.000Z</time>
</trkpt>
<trkpt lat="46.0203870" lon="10.4009230">
	<ele>1362.00</ele>
	<time>2024-07-24T07:09:19.000Z</time>
</trkpt>
<trkpt lat="46.0203830" lon="10.4009290">
	<ele>1362.00</ele>
	<time>2024-07-24T07:09:20.000Z</time>
</trkpt>
<trkpt lat="46.0203810" lon="10.4009390">
	<ele>1362.20</ele>
	<time>2024-07-24T07:09:21.000Z</time>
</trkpt>
<trkpt lat="46.0203770" lon="10.4009440">
	<ele>1362.40</ele>
	<time>2024-07-24T07:09:22.000Z</time>
</trkpt>
<trkpt lat="46.0203760" lon="10.4009510">
	<ele>1362.80</ele>
	<time>2024-07-24T07:09:23.000Z</time>
</trkpt>
<trkpt lat="46.0203730" lon="10.4009620">
	<ele>1363.00</ele>
	<time>2024-07-24T07:09:24.000Z</time>
</trkpt>
<trkpt lat="46.0203700" lon="10.4009710">
	<ele>1363.20</ele>
	<time>2024-07-24T07:09:25.000Z</time>
</trkpt>
<trkpt lat="46.0203690" lon="10.4009810">
	<ele>1363.40</ele>
	<time>2024-07-24T07:09:26.000Z</time>
</trkpt>
<trkpt lat="46.0203660" lon="10.4009950">
	<ele>1363.60</ele>
	<time>2024-07-24T07:09:27.000Z</time>
</trkpt>
<trkpt lat="46.0203650" lon="10.4010050">
	<ele>1363.80</ele>
	<time>2024-07-24T07:09:28.000Z</time>
</trkpt>
<trkpt lat="46.0203650" lon="10.4010120">
	<ele>1364.20</ele>
	<time>2024-07-24T07:09:29.000Z</time>
</trkpt>
<trkpt lat="46.0203710" lon="10.4010260">
	<ele>1364.40</ele>
	<time>2024-07-24T07:09:30.000Z</time>
</trkpt>
<trkpt lat="46.0203740" lon="10.4010350">
	<ele>1364.60</ele>
	<time>2024-07-24T07:09:31.000Z</time>
</trkpt>
<trkpt lat="46.0203760" lon="10.4010440">
	<ele>1364.80</ele>
	<time>2024-07-24T07:09:32.000Z</time>
</trkpt>
<trkpt lat="46.0203780" lon="10.4010550">
	<ele>1365.00</ele>
	<time>2024-07-24T07:09:33.000Z</time>
</trkpt>
<trkpt lat="46.0203810" lon="10.4010710">
	<ele>1365.00</ele>
	<time>2024-07-24T07:09:34.000Z</time>
</trkpt>
<trkpt lat="46.0203850" lon="10.4010870">
	<ele>1365.40</ele>
	<time>2024-07-24T07:09:35.000Z</time>
</trkpt>
<trkpt lat="46.0203890" lon="10.4010970">
	<ele>1365.60</ele>
	<time>2024-07-24T07:09:36.000Z</time>
</trkpt>
<trkpt lat="46.0203930" lon="10.4011110">
	<ele>1365.80</ele>
	<time>2024-07-24T07:09:37.000Z</time>
</trkpt>
<trkpt lat="46.0203960" lon="10.4011280">
	<ele>1366.00</ele>
	<time>2024-07-24T07:09:38.000Z</time>
</trkpt>
<trkpt lat="46.0203940" lon="10.4011430">
	<ele>1366.20</ele>
	<time>2024-07-24T07:09:39.000Z</time>
</trkpt>
<trkpt lat="46.0203930" lon="10.4011620">
	<ele>1366.20</ele>
	<time>2024-07-24T07:09:40.000Z</time>
</trkpt>
<trkpt lat="46.0203930" lon="10.4011730">
	<ele>1366.40</ele>
	<time>2024-07-24T07:09:41.000Z</time>
</trkpt>
<trkpt lat="46.0203930" lon="10.4011920">
	<ele>1366.60</ele>
	<time>2024-07-24T07:09:42.000Z</time>
</trkpt>
<trkpt lat="46.0203950" lon="10.4012000">
	<ele>1366.80</ele>
	<time>2024-07-24T07:09:43.000Z</time>
</trkpt>
<trkpt lat="46.0203990" lon="10.4012030">
	<ele>1366.80</ele>
	<time>2024-07-24T07:09:44.000Z</time>
</trkpt>
<trkpt lat="46.0204070" lon="10.4012040">
	<ele>1367.00</ele>
	<time>2024-07-24T07:09:45.000Z</time>
</trkpt>
<trkpt lat="46.0204190" lon="10.4012100">
	<ele>1367.00</ele>
	<time>2024-07-24T07:09:46.000Z</time>
</trkpt>
<trkpt lat="46.0204290" lon="10.4012110">
	<ele>1367.20</ele>
	<time>2024-07-24T07:09:47.000Z</time>
</trkpt>
<trkpt lat="46.0204390" lon="10.4012110">
	<ele>1367.20</ele>
	<time>2024-07-24T07:09:48.000Z</time>
</trkpt>
<trkpt lat="46.0204500" lon="10.4012130">
	<ele>1367.40</ele>
	<time>2024-07-24T07:09:49.000Z</time>
</trkpt>
<trkpt lat="46.0204560" lon="10.4012190">
	<ele>1367.40</ele>
	<time>2024-07-24T07:09:50.000Z</time>
</trkpt>
<trkpt lat="46.0204660" lon="10.4012260">
	<ele>1367.40</ele>
	<time>2024-07-24T07:09:51.000Z</time>
</trkpt>
<trkpt lat="46.0204770" lon="10.4012320">
	<ele>1367.40</ele>
	<time>2024-07-24T07:09:52.000Z</time>
</trkpt>
<trkpt lat="46.0204890" lon="10.4012400">
	<ele>1367.60</ele>
	<time>2024-07-24T07:09:53.000Z</time>
</trkpt>
<trkpt lat="46.0204990" lon="10.4012490">
	<ele>1367.60</ele>
	<time>2024-07-24T07:09:54.000Z</time>
</trkpt>
<trkpt lat="46.0205100" lon="10.4012610">
	<ele>1367.80</ele>
	<time>2024-07-24T07:09:55.000Z</time>
</trkpt>
<trkpt lat="46.0205190" lon="10.4012720">
	<ele>1367.80</ele>
	<time>2024-07-24T07:09:56.000Z</time>
</trkpt>
<trkpt lat="46.0205240" lon="10.4012850">
	<ele>1367.80</ele>
	<time>2024-07-24T07:09:57.000Z</time>
</trkpt>
<trkpt lat="46.0205310" lon="10.4012940">
	<ele>1367.80</ele>
	<time>2024-07-24T07:09:58.000Z</time>
</trkpt>
<trkpt lat="46.0205350" lon="10.4013050">
	<ele>1368.00</ele>
	<time>2024-07-24T07:09:59.000Z</time>
</trkpt>
<trkpt lat="46.0205410" lon="10.4013140">
	<ele>1368.00</ele>
	<time>2024-07-24T07:10:00.000Z</time>
</trkpt>
<trkpt lat="46.0205460" lon="10.4013280">
	<ele>1368.00</ele>
	<time>2024-07-24T07:10:01.000Z</time>
</trkpt>
<trkpt lat="46.0205510" lon="10.4013450">
	<ele>1368.00</ele>
	<time>2024-07-24T07:10:02.000Z</time>
</trkpt>
<trkpt lat="46.0205560" lon="10.4013580">
	<ele>1368.00</ele>
	<time>2024-07-24T07:10:03.000Z</time>
</trkpt>
<trkpt lat="46.0205670" lon="10.4013730">
	<ele>1368.00</ele>
	<time>2024-07-24T07:10:04.000Z</time>
</trkpt>
<trkpt lat="46.0205760" lon="10.4013820">
	<ele>1368.20</ele>
	<time>2024-07-24T07:10:05.000Z</time>
</trkpt>
<trkpt lat="46.0205860" lon="10.4013960">
	<ele>1368.20</ele>
	<time>2024-07-24T07:10:06.000Z</time>
</trkpt>
<trkpt lat="46.0205960" lon="10.4014090">
	<ele>1368.40</ele>
	<time>2024-07-24T07:10:07.000Z</time>
</trkpt>
<trkpt lat="46.0205980" lon="10.4014300">
	<ele>1368.40</ele>
	<time>2024-07-24T07:10:08.000Z</time>
</trkpt>
<trkpt lat="46.0206010" lon="10.4014480">
	<ele>1368.60</ele>
	<time>2024-07-24T07:10:09.000Z</time>
</trkpt>
<trkpt lat="46.0206050" lon="10.4014680">
	<ele>1368.60</ele>
	<time>2024-07-24T07:10:10.000Z</time>
</trkpt>
<trkpt lat="46.0206070" lon="10.4014890">
	<ele>1368.80</ele>
	<time>2024-07-24T07:10:11.000Z</time>
</trkpt>
<trkpt lat="46.0206120" lon="10.4015010">
	<ele>1368.80</ele>
	<time>2024-07-24T07:10:12.000Z</time>
</trkpt>
<trkpt lat="46.0206190" lon="10.4015160">
	<ele>1369.00</ele>
	<time>2024-07-24T07:10:13.000Z</time>
</trkpt>
<trkpt lat="46.0206230" lon="10.4015280">
	<ele>1369.00</ele>
	<time>2024-07-24T07:10:14.000Z</time>
</trkpt>
<trkpt lat="46.0206240" lon="10.4015380">
	<ele>1369.20</ele>
	<time>2024-07-24T07:10:15.000Z</time>
</trkpt>
<trkpt lat="46.0206250" lon="10.4015530">
	<ele>1369.20</ele>
	<time>2024-07-24T07:10:16.000Z</time>
</trkpt>
<trkpt lat="46.0206250" lon="10.4015680">
	<ele>1369.20</ele>
	<time>2024-07-24T07:10:17.000Z</time>
</trkpt>
<trkpt lat="46.0206250" lon="10.4015810">
	<ele>1369.40</ele>
	<time>2024-07-24T07:10:18.000Z</time>
</trkpt>
<trkpt lat="46.0206250" lon="10.4015950">
	<ele>1369.60</ele>
	<time>2024-07-24T07:10:19.000Z</time>
</trkpt>
<trkpt lat="46.0206260" lon="10.4016110">
	<ele>1369.60</ele>
	<time>2024-07-24T07:10:20.000Z</time>
</trkpt>
<trkpt lat="46.0206280" lon="10.4016220">
	<ele>1369.80</ele>
	<time>2024-07-24T07:10:21.000Z</time>
</trkpt>
<trkpt lat="46.0206230" lon="10.4016370">
	<ele>1370.00</ele>
	<time>2024-07-24T07:10:22.000Z</time>
</trkpt>
<trkpt lat="46.0206170" lon="10.4016530">
	<ele>1370.00</ele>
	<time>2024-07-24T07:10:23.000Z</time>
</trkpt>
<trkpt lat="46.0206140" lon="10.4016750">
	<ele>1370.20</ele>
	<time>2024-07-24T07:10:24.000Z</time>
</trkpt>
<trkpt lat="46.0206120" lon="10.4016900">
	<ele>1370.40</ele>
	<time>2024-07-24T07:10:25.000Z</time>
</trkpt>
<trkpt lat="46.0206100" lon="10.4017050">
	<ele>1370.60</ele>
	<time>2024-07-24T07:10:26.000Z</time>
</trkpt>
<trkpt lat="46.0206090" lon="10.4017210">
	<ele>1370.60</ele>
	<time>2024-07-24T07:10:27.000Z</time>
</trkpt>
<trkpt lat="46.0206120" lon="10.4017320">
	<ele>1370.80</ele>
	<time>2024-07-24T07:10:28.000Z</time>
</trkpt>
<trkpt lat="46.0206180" lon="10.4017470">
	<ele>1371.00</ele>
	<time>2024-07-24T07:10:29.000Z</time>
</trkpt>
<trkpt lat="46.0206190" lon="10.4017650">
	<ele>1371.20</ele>
	<time>2024-07-24T07:10:30.000Z</time>
</trkpt>
<trkpt lat="46.0206200" lon="10.4017790">
	<ele>1371.40</ele>
	<time>2024-07-24T07:10:31.000Z</time>
</trkpt>
<trkpt lat="46.0206180" lon="10.4017940">
	<ele>1371.40</ele>
	<time>2024-07-24T07:10:32.000Z</time>
</trkpt>
<trkpt lat="46.0206140" lon="10.4018040">
	<ele>1371.60</ele>
	<time>2024-07-24T07:10:33.000Z</time>
</trkpt>
<trkpt lat="46.0206120" lon="10.4018210">
	<ele>1371.80</ele>
	<time>2024-07-24T07:10:34.000Z</time>
</trkpt>
<trkpt lat="46.0206080" lon="10.4018310">
	<ele>1372.00</ele>
	<time>2024-07-24T07:10:35.000Z</time>
</trkpt>
<trkpt lat="46.0206070" lon="10.4018410">
	<ele>1372.00</ele>
	<time>2024-07-24T07:10:36.000Z</time>
</trkpt>
<trkpt lat="46.0206040" lon="10.4018510">
	<ele>1372.20</ele>
	<time>2024-07-24T07:10:37.000Z</time>
</trkpt>
<trkpt lat="46.0206030" lon="10.4018570">
	<ele>1372.20</ele>
	<time>2024-07-24T07:10:38.000Z</time>
</trkpt>
<trkpt lat="46.0206000" lon="10.4018710">
	<ele>1372.40</ele>
	<time>2024-07-24T07:10:39.000Z</time>
</trkpt>
<trkpt lat="46.0205990" lon="10.4018840">
	<ele>1372.60</ele>
	<time>2024-07-24T07:10:40.000Z</time>
</trkpt>
<trkpt lat="46.0205960" lon="10.4018960">
	<ele>1372.80</ele>
	<time>2024-07-24T07:10:41.000Z</time>
</trkpt>
<trkpt lat="46.0205910" lon="10.4019080">
	<ele>1373.00</ele>
	<time>2024-07-24T07:10:42.000Z</time>
</trkpt>
<trkpt lat="46.0205870" lon="10.4019250">
	<ele>1373.00</ele>
	<time>2024-07-24T07:10:43.000Z</time>
</trkpt>
<trkpt lat="46.0205840" lon="10.4019410">
	<ele>1373.20</ele>
	<time>2024-07-24T07:10:44.000Z</time>
</trkpt>
<trkpt lat="46.0205810" lon="10.4019560">
	<ele>1373.40</ele>
	<time>2024-07-24T07:10:45.000Z</time>
</trkpt>
<trkpt lat="46.0205780" lon="10.4019700">
	<ele>1373.60</ele>
	<time>2024-07-24T07:10:46.000Z</time>
</trkpt>
<trkpt lat="46.0205710" lon="10.4019810">
	<ele>1373.60</ele>
	<time>2024-07-24T07:10:47.000Z</time>
</trkpt>
<trkpt lat="46.0205650" lon="10.4019930">
	<ele>1373.80</ele>
	<time>2024-07-24T07:10:48.000Z</time>
</trkpt>
<trkpt lat="46.0205580" lon="10.4020010">
	<ele>1374.00</ele>
	<time>2024-07-24T07:10:49.000Z</time>
</trkpt>
<trkpt lat="46.0205540" lon="10.4020110">
	<ele>1374.20</ele>
	<time>2024-07-24T07:10:50.000Z</time>
</trkpt>
<trkpt lat="46.0205510" lon="10.4020250">
	<ele>1374.40</ele>
	<time>2024-07-24T07:10:51.000Z</time>
</trkpt>
<trkpt lat="46.0205460" lon="10.4020350">
	<ele>1374.40</ele>
	<time>2024-07-24T07:10:52.000Z</time>
</trkpt>
<trkpt lat="46.0205420" lon="10.4020390">
	<ele>1374.80</ele>
	<time>2024-07-24T07:10:53.000Z</time>
</trkpt>
<trkpt lat="46.0205330" lon="10.4020430">
	<ele>1375.00</ele>
	<time>2024-07-24T07:10:54.000Z</time>
</trkpt>
<trkpt lat="46.0205260" lon="10.4020470">
	<ele>1375.20</ele>
	<time>2024-07-24T07:10:55.000Z</time>
</trkpt>
<trkpt lat="46.0205190" lon="10.4020500">
	<ele>1375.20</ele>
	<time>2024-07-24T07:10:56.000Z</time>
</trkpt>
<trkpt lat="46.0205120" lon="10.4020560">
	<ele>1375.40</ele>
	<time>2024-07-24T07:10:57.000Z</time>
</trkpt>
<trkpt lat="46.0205050" lon="10.4020600">
	<ele>1375.60</ele>
	<time>2024-07-24T07:10:58.000Z</time>
</trkpt>
<trkpt lat="46.0204970" lon="10.4020690">
	<ele>1375.80</ele>
	<time>2024-07-24T07:10:59.000Z</time>
</trkpt>
<trkpt lat="46.0204910" lon="10.4020760">
	<ele>1376.00</ele>
	<time>2024-07-24T07:11:00.000Z</time>
</trkpt>
<trkpt lat="46.0204840" lon="10.4020820">
	<ele>1376.20</ele>
	<time>2024-07-24T07:11:01.000Z</time>
</trkpt>
<trkpt lat="46.0204780" lon="10.4020860">
	<ele>1376.40</ele>
	<time>2024-07-24T07:11:02.000Z</time>
</trkpt>
<trkpt lat="46.0204690" lon="10.4020930">
	<ele>1376.60</ele>
	<time>2024-07-24T07:11:03.000Z</time>
</trkpt>
<trkpt lat="46.0204610" lon="10.4021040">
	<ele>1376.60</ele>
	<time>2024-07-24T07:11:04.000Z</time>
</trkpt>
<trkpt lat="46.0204530" lon="10.4021140">
	<ele>1376.80</ele>
	<time>2024-07-24T07:11:05.000Z</time>
</trkpt>
<trkpt lat="46.0204460" lon="10.4021210">
	<ele>1377.20</ele>
	<time>2024-07-24T07:11:06.000Z</time>
</trkpt>
<trkpt lat="46.0204380" lon="10.4021310">
	<ele>1377.40</ele>
	<time>2024-07-24T07:11:07.000Z</time>
</trkpt>
<trkpt lat="46.0204310" lon="10.4021460">
	<ele>1377.60</ele>
	<time>2024-07-24T07:11:08.000Z</time>
</trkpt>
<trkpt lat="46.0204250" lon="10.4021640">
	<ele>1377.60</ele>
	<time>2024-07-24T07:11:09.000Z</time>
</trkpt>
<trkpt lat="46.0204190" lon="10.4021800">
	<ele>1377.80</ele>
	<time>2024-07-24T07:11:10.000Z</time>
</trkpt>
<trkpt lat="46.0204170" lon="10.4021950">
	<ele>1377.80</ele>
	<time>2024-07-24T07:11:11.000Z</time>
</trkpt>
<trkpt lat="46.0204140" lon="10.4022100">
	<ele>1377.80</ele>
	<time>2024-07-24T07:11:12.000Z</time>
</trkpt>
<trkpt lat="46.0204090" lon="10.4022260">
	<ele>1378.00</ele>
	<time>2024-07-24T07:11:13.000Z</time>
</trkpt>
<trkpt lat="46.0204090" lon="10.4022420">
	<ele>1378.20</ele>
	<time>2024-07-24T07:11:14.000Z</time>
</trkpt>
<trkpt lat="46.0204090" lon="10.4022620">
	<ele>1378.40</ele>
	<time>2024-07-24T07:11:15.000Z</time>
</trkpt>
<trkpt lat="46.0204090" lon="10.4022810">
	<ele>1378.40</ele>
	<time>2024-07-24T07:11:16.000Z</time>
</trkpt>
<trkpt lat="46.0204080" lon="10.4022960">
	<ele>1378.40</ele>
	<time>2024-07-24T07:11:17.000Z</time>
</trkpt>
<trkpt lat="46.0204070" lon="10.4023170">
	<ele>1378.60</ele>
	<time>2024-07-24T07:11:18.000Z</time>
</trkpt>
<trkpt lat="46.0204070" lon="10.4023350">
	<ele>1378.60</ele>
	<time>2024-07-24T07:11:19.000Z</time>
</trkpt>
<trkpt lat="46.0204050" lon="10.4023520">
	<ele>1378.60</ele>
	<time>2024-07-24T07:11:20.000Z</time>
</trkpt>
<trkpt lat="46.0204020" lon="10.4023670">
	<ele>1378.80</ele>
	<time>2024-07-24T07:11:21.000Z</time>
</trkpt>
<trkpt lat="46.0204020" lon="10.4023800">
	<ele>1378.80</ele>
	<time>2024-07-24T07:11:22.000Z</time>
</trkpt>
<trkpt lat="46.0204020" lon="10.4023940">
	<ele>1379.00</ele>
	<time>2024-07-24T07:11:23.000Z</time>
</trkpt>
<trkpt lat="46.0203960" lon="10.4024130">
	<ele>1379.00</ele>
	<time>2024-07-24T07:11:24.000Z</time>
</trkpt>
<trkpt lat="46.0203920" lon="10.4024320">
	<ele>1379.20</ele>
	<time>2024-07-24T07:11:25.000Z</time>
</trkpt>
<trkpt lat="46.0203890" lon="10.4024510">
	<ele>1379.20</ele>
	<time>2024-07-24T07:11:26.000Z</time>
</trkpt>
<trkpt lat="46.0203880" lon="10.4024690">
	<ele>1379.20</ele>
	<time>2024-07-24T07:11:27.000Z</time>
</trkpt>
<trkpt lat="46.0203870" lon="10.4024840">
	<ele>1379.40</ele>
	<time>2024-07-24T07:11:28.000Z</time>
</trkpt>
<trkpt lat="46.0203880" lon="10.4024980">
	<ele>1379.40</ele>
	<time>2024-07-24T07:11:29.000Z</time>
</trkpt>
<trkpt lat="46.0203880" lon="10.4025170">
	<ele>1379.40</ele>
	<time>2024-07-24T07:11:30.000Z</time>
</trkpt>
<trkpt lat="46.0203860" lon="10.4025370">
	<ele>1379.40</ele>
	<time>2024-07-24T07:11:31.000Z</time>
</trkpt>
<trkpt lat="46.0203810" lon="10.4025560">
	<ele>1379.60</ele>
	<time>2024-07-24T07:11:32.000Z</time>
</trkpt>
<trkpt lat="46.0203830" lon="10.4025750">
	<ele>1379.60</ele>
	<time>2024-07-24T07:11:33.000Z</time>
</trkpt>
<trkpt lat="46.0203840" lon="10.4025900">
	<ele>1379.60</ele>
	<time>2024-07-24T07:11:34.000Z</time>
</trkpt>
<trkpt lat="46.0203870" lon="10.4026050">
	<ele>1379.80</ele>
	<time>2024-07-24T07:11:35.000Z</time>
</trkpt>
<trkpt lat="46.0203920" lon="10.4026240">
	<ele>1379.80</ele>
	<time>2024-07-24T07:11:36.000Z</time>
</trkpt>
<trkpt lat="46.0203930" lon="10.4026450">
	<ele>1380.00</ele>
	<time>2024-07-24T07:11:37.000Z</time>
</trkpt>
<trkpt lat="46.0203930" lon="10.4026650">
	<ele>1380.00</ele>
	<time>2024-07-24T07:11:38.000Z</time>
</trkpt>
<trkpt lat="46.0203950" lon="10.4026840">
	<ele>1380.20</ele>
	<time>2024-07-24T07:11:39.000Z</time>
</trkpt>
<trkpt lat="46.0204000" lon="10.4027010">
	<ele>1380.20</ele>
	<time>2024-07-24T07:11:40.000Z</time>
</trkpt>
<trkpt lat="46.0204030" lon="10.4027160">
	<ele>1380.40</ele>
	<time>2024-07-24T07:11:41.000Z</time>
</trkpt>
<trkpt lat="46.0204080" lon="10.4027280">
	<ele>1380.40</ele>
	<time>2024-07-24T07:11:42.000Z</time>
</trkpt>
<trkpt lat="46.0204120" lon="10.4027420">
	<ele>1380.40</ele>
	<time>2024-07-24T07:11:43.000Z</time>
</trkpt>
<trkpt lat="46.0204170" lon="10.4027550">
	<ele>1380.60</ele>
	<time>2024-07-24T07:11:44.000Z</time>
</trkpt>
<trkpt lat="46.0204240" lon="10.4027690">
	<ele>1380.60</ele>
	<time>2024-07-24T07:11:45.000Z</time>
</trkpt>
<trkpt lat="46.0204320" lon="10.4027820">
	<ele>1380.80</ele>
	<time>2024-07-24T07:11:46.000Z</time>
</trkpt>
<trkpt lat="46.0204380" lon="10.4027980">
	<ele>1380.80</ele>
	<time>2024-07-24T07:11:47.000Z</time>
</trkpt>
<trkpt lat="46.0204490" lon="10.4028130">
	<ele>1380.80</ele>
	<time>2024-07-24T07:11:48.000Z</time>
</trkpt>
<trkpt lat="46.0204530" lon="10.4028300">
	<ele>1381.00</ele>
	<time>2024-07-24T07:11:49.000Z</time>
</trkpt>
<trkpt lat="46.0204510" lon="10.4028410">
	<ele>1381.00</ele>
	<time>2024-07-24T07:11:50.000Z</time>
</trkpt>
<trkpt lat="46.0204500" lon="10.4028500">
	<ele>1381.00</ele>
	<time>2024-07-24T07:11:51.000Z</time>
</trkpt>
<trkpt lat="46.0204500" lon="10.4028640">
	<ele>1381.00</ele>
	<time>2024-07-24T07:11:52.000Z</time>
</trkpt>
<trkpt lat="46.0204540" lon="10.4028810">
	<ele>1381.00</ele>
	<time>2024-07-24T07:11:53.000Z</time>
</trkpt>
<trkpt lat="46.0204540" lon="10.4028980">
	<ele>1381.20</ele>
	<time>2024-07-24T07:11:54.000Z</time>
</trkpt>
<trkpt lat="46.0204560" lon="10.4029140">
	<ele>1381.20</ele>
	<time>2024-07-24T07:11:55.000Z</time>
</trkpt>
<trkpt lat="46.0204570" lon="10.4029300">
	<ele>1381.40</ele>
	<time>2024-07-24T07:11:56.000Z</time>
</trkpt>
<trkpt lat="46.0204570" lon="10.4029410">
	<ele>1381.60</ele>
	<time>2024-07-24T07:11:57.000Z</time>
</trkpt>
<trkpt lat="46.0204570" lon="10.4029560">
	<ele>1381.60</ele>
	<time>2024-07-24T07:11:58.000Z</time>
</trkpt>
<trkpt lat="46.0204560" lon="10.4029770">
	<ele>1381.60</ele>
	<time>2024-07-24T07:11:59.000Z</time>
</trkpt>
<trkpt lat="46.0204540" lon="10.4029970">
	<ele>1381.60</ele>
	<time>2024-07-24T07:12:00.000Z</time>
</trkpt>
<trkpt lat="46.0204550" lon="10.4030150">
	<ele>1381.80</ele>
	<time>2024-07-24T07:12:01.000Z</time>
</trkpt>
<trkpt lat="46.0204550" lon="10.4030360">
	<ele>1381.80</ele>
	<time>2024-07-24T07:12:02.000Z</time>
</trkpt>
<trkpt lat="46.0204610" lon="10.4030510">
	<ele>1382.00</ele>
	<time>2024-07-24T07:12:03.000Z</time>
</trkpt>
<trkpt lat="46.0204600" lon="10.4030570">
	<ele>1382.20</ele>
	<time>2024-07-24T07:12:04.000Z</time>
</trkpt>
<trkpt lat="46.0204580" lon="10.4030600">
	<ele>1382.20</ele>
	<time>2024-07-24T07:12:05.000Z</time>
</trkpt>
<trkpt lat="46.0204580" lon="10.4030640">
	<ele>1382.40</ele>
	<time>2024-07-24T07:12:06.000Z</time>
</trkpt>
<trkpt lat="46.0204610" lon="10.4030680">
	<ele>1382.40</ele>
	<time>2024-07-24T07:12:07.000Z</time>
</trkpt>
<trkpt lat="46.0204620" lon="10.4030760">
	<ele>1382.40</ele>
	<time>2024-07-24T07:12:08.000Z</time>
</trkpt>
<trkpt lat="46.0204670" lon="10.4030860">
	<ele>1382.40</ele>
	<time>2024-07-24T07:12:09.000Z</time>
</trkpt>
<trkpt lat="46.0204670" lon="10.4030990">
	<ele>1382.40</ele>
	<time>2024-07-24T07:12:10.000Z</time>
</trkpt>
<trkpt lat="46.0204650" lon="10.4031100">
	<ele>1382.40</ele>
	<time>2024-07-24T07:12:11.000Z</time>
</trkpt>
<trkpt lat="46.0204590" lon="10.4031280">
	<ele>1382.40</ele>
	<time>2024-07-24T07:12:12.000Z</time>
</trkpt>
<trkpt lat="46.0204550" lon="10.4031430">
	<ele>1382.40</ele>
	<time>2024-07-24T07:12:13.000Z</time>
</trkpt>
<trkpt lat="46.0204530" lon="10.4031520">
	<ele>1382.60</ele>
	<time>2024-07-24T07:12:14.000Z</time>
</trkpt>
<trkpt lat="46.0204460" lon="10.4031700">
	<ele>1382.60</ele>
	<time>2024-07-24T07:12:15.000Z</time>
</trkpt>
<trkpt lat="46.0204440" lon="10.4031860">
	<ele>1382.80</ele>
	<time>2024-07-24T07:12:16.000Z</time>
</trkpt>
<trkpt lat="46.0204420" lon="10.4031960">
	<ele>1382.80</ele>
	<time>2024-07-24T07:12:17.000Z</time>
</trkpt>
<trkpt lat="46.0204390" lon="10.4032080">
	<ele>1382.80</ele>
	<time>2024-07-24T07:12:18.000Z</time>
</trkpt>
<trkpt lat="46.0204360" lon="10.4032150">
	<ele>1383.00</ele>
	<time>2024-07-24T07:12:19.000Z</time>
</trkpt>
<trkpt lat="46.0204340" lon="10.4032260">
	<ele>1383.00</ele>
	<time>2024-07-24T07:12:20.000Z</time>
</trkpt>
<trkpt lat="46.0204340" lon="10.4032380">
	<ele>1383.40</ele>
	<time>2024-07-24T07:12:21.000Z</time>
</trkpt>
<trkpt lat="46.0204360" lon="10.4032520">
	<ele>1383.40</ele>
	<time>2024-07-24T07:12:22.000Z</time>
</trkpt>
<trkpt lat="46.0204330" lon="10.4032640">
	<ele>1383.60</ele>
	<time>2024-07-24T07:12:23.000Z</time>
</trkpt>
<trkpt lat="46.0204290" lon="10.4032720">
	<ele>1383.80</ele>
	<time>2024-07-24T07:12:24.000Z</time>
</trkpt>
<trkpt lat="46.0204270" lon="10.4032820">
	<ele>1383.80</ele>
	<time>2024-07-24T07:12:25.000Z</time>
</trkpt>
<trkpt lat="46.0204270" lon="10.4032930">
	<ele>1384.00</ele>
	<time>2024-07-24T07:12:26.000Z</time>
</trkpt>
<trkpt lat="46.0204280" lon="10.4033080">
	<ele>1384.00</ele>
	<time>2024-07-24T07:12:27.000Z</time>
</trkpt>
<trkpt lat="46.0204290" lon="10.4033230">
	<ele>1384.20</ele>
	<time>2024-07-24T07:12:28.000Z</time>
</trkpt>
<trkpt lat="46.0204290" lon="10.4033390">
	<ele>1384.20</ele>
	<time>2024-07-24T07:12:29.000Z</time>
</trkpt>
<trkpt lat="46.0204290" lon="10.4033550">
	<ele>1384.40</ele>
	<time>2024-07-24T07:12:30.000Z</time>
</trkpt>
<trkpt lat="46.0204300" lon="10.4033710">
	<ele>1384.60</ele>
	<time>2024-07-24T07:12:31.000Z</time>
</trkpt>
<trkpt lat="46.0204390" lon="10.4033860">
	<ele>1384.60</ele>
	<time>2024-07-24T07:12:32.000Z</time>
</trkpt>
<trkpt lat="46.0204470" lon="10.4034010">
	<ele>1384.80</ele>
	<time>2024-07-24T07:12:33.000Z</time>
</trkpt>
<trkpt lat="46.0204490" lon="10.4034140">
	<ele>1384.80</ele>
	<time>2024-07-24T07:12:34.000Z</time>
</trkpt>
<trkpt lat="46.0204530" lon="10.4034300">
	<ele>1385.00</ele>
	<time>2024-07-24T07:12:35.000Z</time>
</trkpt>
<trkpt lat="46.0204580" lon="10.4034520">
	<ele>1385.00</ele>
	<time>2024-07-24T07:12:36.000Z</time>
</trkpt>
<trkpt lat="46.0204590" lon="10.4034690">
	<ele>1385.20</ele>
	<time>2024-07-24T07:12:37.000Z</time>
</trkpt>
<trkpt lat="46.0204580" lon="10.4034840">
	<ele>1385.40</ele>
	<time>2024-07-24T07:12:38.000Z</time>
</trkpt>
<trkpt lat="46.0204500" lon="10.4034950">
	<ele>1385.40</ele>
	<time>2024-07-24T07:12:39.000Z</time>
</trkpt>
<trkpt lat="46.0204390" lon="10.4035060">
	<ele>1385.60</ele>
	<time>2024-07-24T07:12:40.000Z</time>
</trkpt>
<trkpt lat="46.0204350" lon="10.4035200">
	<ele>1385.60</ele>
	<time>2024-07-24T07:12:41.000Z</time>
</trkpt>
<trkpt lat="46.0204340" lon="10.4035350">
	<ele>1385.80</ele>
	<time>2024-07-24T07:12:42.000Z</time>
</trkpt>
<trkpt lat="46.0204330" lon="10.4035460">
	<ele>1385.80</ele>
	<time>2024-07-24T07:12:43.000Z</time>
</trkpt>
<trkpt lat="46.0204300" lon="10.4035580">
	<ele>1386.00</ele>
	<time>2024-07-24T07:12:44.000Z</time>
</trkpt>
<trkpt lat="46.0204270" lon="10.4035690">
	<ele>1386.00</ele>
	<time>2024-07-24T07:12:45.000Z</time>
</trkpt>
<trkpt lat="46.0204210" lon="10.4035770">
	<ele>1386.00</ele>
	<time>2024-07-24T07:12:46.000Z</time>
</trkpt>
<trkpt lat="46.0204130" lon="10.4035770">
	<ele>1386.20</ele>
	<time>2024-07-24T07:12:47.000Z</time>
</trkpt>
<trkpt lat="46.0204130" lon="10.4035820">
	<ele>1386.20</ele>
	<time>2024-07-24T07:12:48.000Z</time>
</trkpt>
<trkpt lat="46.0204120" lon="10.4035870">
	<ele>1386.40</ele>
	<time>2024-07-24T07:12:49.000Z</time>
</trkpt>
<trkpt lat="46.0204110" lon="10.4035820">
	<ele>1386.40</ele>
	<time>2024-07-24T07:12:50.000Z</time>
</trkpt>
<trkpt lat="46.0204120" lon="10.4035820">
	<ele>1386.60</ele>
	<time>2024-07-24T07:12:51.000Z</time>
</trkpt>
<trkpt lat="46.0204100" lon="10.4035780">
	<ele>1386.60</ele>
	<time>2024-07-24T07:12:52.000Z</time>
</trkpt>
<trkpt lat="46.0204110" lon="10.4035770">
	<ele>1386.60</ele>
	<time>2024-07-24T07:12:53.000Z</time>
</trkpt>
<trkpt lat="46.0204110" lon="10.4035770">
	<ele>1386.60</ele>
	<time>2024-07-24T07:12:54.000Z</time>
</trkpt>
<trkpt lat="46.0204110" lon="10.4035760">
	<ele>1386.80</ele>
	<time>2024-07-24T07:12:55.000Z</time>
</trkpt>
<trkpt lat="46.0204130" lon="10.4035770">
	<ele>1386.80</ele>
	<time>2024-07-24T07:12:56.000Z</time>
</trkpt>
<trkpt lat="46.0204130" lon="10.4035780">
	<ele>1386.80</ele>
	<time>2024-07-24T07:12:57.000Z</time>
</trkpt>
<trkpt lat="46.0204060" lon="10.4035840">
	<ele>1386.60</ele>
	<time>2024-07-24T07:12:58.000Z</time>
</trkpt>
<trkpt lat="46.0203980" lon="10.4035980">
	<ele>1386.60</ele>
	<time>2024-07-24T07:12:59.000Z</time>
</trkpt>
<trkpt lat="46.0203930" lon="10.4036090">
	<ele>1386.60</ele>
	<time>2024-07-24T07:13:00.000Z</time>
</trkpt>
<trkpt lat="46.0203920" lon="10.4036200">
	<ele>1386.60</ele>
	<time>2024-07-24T07:13:01.000Z</time>
</trkpt>
<trkpt lat="46.0203910" lon="10.4036320">
	<ele>1386.60</ele>
	<time>2024-07-24T07:13:02.000Z</time>
</trkpt>
<trkpt lat="46.0203880" lon="10.4036460">
	<ele>1386.60</ele>
	<time>2024-07-24T07:13:03.000Z</time>
</trkpt>
<trkpt lat="46.0203840" lon="10.4036580">
	<ele>1386.80</ele>
	<time>2024-07-24T07:13:04.000Z</time>
</trkpt>
<trkpt lat="46.0203790" lon="10.4036650">
	<ele>1386.80</ele>
	<time>2024-07-24T07:13:05.000Z</time>
</trkpt>
<trkpt lat="46.0203740" lon="10.4036720">
	<ele>1387.20</ele>
	<time>2024-07-24T07:13:06.000Z</time>
</trkpt>
<trkpt lat="46.0203680" lon="10.4036770">
	<ele>1387.40</ele>
	<time>2024-07-24T07:13:07.000Z</time>
</trkpt>
<trkpt lat="46.0203650" lon="10.4036780">
	<ele>1387.40</ele>
	<time>2024-07-24T07:13:08.000Z</time>
</trkpt>
<trkpt lat="46.0203640" lon="10.4036800">
	<ele>1387.60</ele>
	<time>2024-07-24T07:13:09.000Z</time>
</trkpt>
<trkpt lat="46.0203640" lon="10.4036800">
	<ele>1387.80</ele>
	<time>2024-07-24T07:13:10.000Z</time>
</trkpt>
<trkpt lat="46.0203640" lon="10.4036790">
	<ele>1387.80</ele>
	<time>2024-07-24T07:13:11.000Z</time>
</trkpt>
<trkpt lat="46.0203660" lon="10.4036770">
	<ele>1387.80</ele>
	<time>2024-07-24T07:13:12.000Z</time>
</trkpt>
<trkpt lat="46.0203670" lon="10.4036730">
	<ele>1387.80</ele>
	<time>2024-07-24T07:13:13.000Z</time>
</trkpt>
<trkpt lat="46.0203710" lon="10.4036650">
	<ele>1387.80</ele>
	<time>2024-07-24T07:13:14.000Z</time>
</trkpt>
<trkpt lat="46.0203730" lon="10.4036560">
	<ele>1387.80</ele>
	<time>2024-07-24T07:13:15.000Z</time>
</trkpt>
<trkpt lat="46.0203770" lon="10.4036480">
	<ele>1387.80</ele>
	<time>2024-07-24T07:13:16.000Z</time>
</trkpt>
<trkpt lat="46.0203780" lon="10.4036390">
	<ele>1387.60</ele>
	<time>2024-07-24T07:13:17.000Z</time>
</trkpt>
<trkpt lat="46.0203800" lon="10.4036310">
	<ele>1387.60</ele>
	<time>2024-07-24T07:13:18.000Z</time>
</trkpt>
<trkpt lat="46.0203820" lon="10.4036200">
	<ele>1387.60</ele>
	<time>2024-07-24T07:13:19.000Z</time>
</trkpt>
<trkpt lat="46.0203840" lon="10.4036050">
	<ele>1387.60</ele>
	<time>2024-07-24T07:13:20.000Z</time>
</trkpt>
<trkpt lat="46.0203880" lon="10.4035860">
	<ele>1387.60</ele>
	<time>2024-07-24T07:13:21.000Z</time>
</trkpt>
<trkpt lat="46.0203910" lon="10.4035700">
	<ele>1387.60</ele>
	<time>2024-07-24T07:13:22.000Z</time>
</trkpt>
<trkpt lat="46.0203920" lon="10.4035570">
	<ele>1387.60</ele>
	<time>2024-07-24T07:13:23.000Z</time>
</trkpt>
<trkpt lat="46.0203910" lon="10.4035490">
	<ele>1387.40</ele>
	<time>2024-07-24T07:13:24.000Z</time>
</trkpt>
<trkpt lat="46.0203840" lon="10.4035510">
	<ele>1387.40</ele>
	<time>2024-07-24T07:13:25.000Z</time>
</trkpt>
<trkpt lat="46.0203780" lon="10.4035570">
	<ele>1387.40</ele>
	<time>2024-07-24T07:13:26.000Z</time>
</trkpt>
<trkpt lat="46.0203740" lon="10.4035650">
	<ele>1387.40</ele>
	<time>2024-07-24T07:13:27.000Z</time>
</trkpt>
<trkpt lat="46.0203740" lon="10.4035690">
	<ele>1387.40</ele>
	<time>2024-07-24T07:13:28.000Z</time>
</trkpt>
<trkpt lat="46.0203750" lon="10.4035690">
	<ele>1387.40</ele>
	<time>2024-07-24T07:13:29.000Z</time>
</trkpt>
<trkpt lat="46.0203740" lon="10.4035720">
	<ele>1387.40</ele>
	<time>2024-07-24T07:13:30.000Z</time>
</trkpt>
<trkpt lat="46.0203730" lon="10.4035700">
	<ele>1387.20</ele>
	<time>2024-07-24T07:13:31.000Z</time>
</trkpt>
<trkpt lat="46.0202560" lon="10.4035430">
	<ele>1387.60</ele>
	<time>2024-07-24T07:26:12.000Z</time>
</trkpt>
<trkpt lat="46.0203190" lon="10.4037500">
	<ele>1387.60</ele>
	<time>2024-07-24T07:26:13.000Z</time>
</trkpt>
<trkpt lat="46.0203020" lon="10.4037020">
	<ele>1387.60</ele>
	<time>2024-07-24T07:26:14.000Z</time>
</trkpt>
<trkpt lat="46.0203130" lon="10.4037070">
	<ele>1387.60</ele>
	<time>2024-07-24T07:26:15.000Z</time>
</trkpt>
<trkpt lat="46.0203060" lon="10.4037180">
	<ele>1387.60</ele>
	<time>2024-07-24T07:26:16.000Z</time>
</trkpt>
<trkpt lat="46.0202990" lon="10.4037110">
	<ele>1387.60</ele>
	<time>2024-07-24T07:26:17.000Z</time>
</trkpt>
<trkpt lat="46.0202840" lon="10.4036910">
	<ele>1387.60</ele>
	<time>2024-07-24T07:26:18.000Z</time>
</trkpt>
<trkpt lat="46.0202710" lon="10.4036890">
	<ele>1387.60</ele>
	<time>2024-07-24T07:26:19.000Z</time>
</trkpt>
<trkpt lat="46.0202630" lon="10.4036850">
	<ele>1387.60</ele>
	<time>2024-07-24T07:26:20.000Z</time>
</trkpt>
<trkpt lat="46.0202640" lon="10.4037240">
	<ele>1387.60</ele>
	<time>2024-07-24T07:26:21.000Z</time>
</trkpt>
<trkpt lat="46.0202480" lon="10.4037390">
	<ele>1387.60</ele>
	<time>2024-07-24T07:26:22.000Z</time>
</trkpt>
<trkpt lat="46.0202370" lon="10.4037280">
	<ele>1387.80</ele>
	<time>2024-07-24T07:26:23.000Z</time>
</trkpt>
<trkpt lat="46.0202240" lon="10.4037120">
	<ele>1388.00</ele>
	<time>2024-07-24T07:26:24.000Z</time>
</trkpt>
<trkpt lat="46.0202080" lon="10.4037000">
	<ele>1388.20</ele>
	<time>2024-07-24T07:26:25.000Z</time>
</trkpt>
<trkpt lat="46.0202000" lon="10.4037040">
	<ele>1388.20</ele>
	<time>2024-07-24T07:26:26.000Z</time>
</trkpt>
<trkpt lat="46.0201880" lon="10.4037130">
	<ele>1388.40</ele>
	<time>2024-07-24T07:26:27.000Z</time>
</trkpt>
<trkpt lat="46.0201800" lon="10.4037230">
	<ele>1388.40</ele>
	<time>2024-07-24T07:26:28.000Z</time>
</trkpt>
<trkpt lat="46.0201710" lon="10.4037400">
	<ele>1388.60</ele>
	<time>2024-07-24T07:26:29.000Z</time>
</trkpt>
<trkpt lat="46.0201620" lon="10.4037440">
	<ele>1388.60</ele>
	<time>2024-07-24T07:26:30.000Z</time>
</trkpt>
<trkpt lat="46.0201540" lon="10.4037380">
	<ele>1388.60</ele>
	<time>2024-07-24T07:26:31.000Z</time>
</trkpt>
<trkpt lat="46.0201480" lon="10.4037330">
	<ele>1388.80</ele>
	<time>2024-07-24T07:26:32.000Z</time>
</trkpt>
<trkpt lat="46.0201490" lon="10.4037340">
	<ele>1388.80</ele>
	<time>2024-07-24T07:26:33.000Z</time>
</trkpt>
<trkpt lat="46.0201510" lon="10.4037310">
	<ele>1388.80</ele>
	<time>2024-07-24T07:26:34.000Z</time>
</trkpt>
<trkpt lat="46.0201480" lon="10.4037320">
	<ele>1388.60</ele>
	<time>2024-07-24T07:26:35.000Z</time>
</trkpt>
<trkpt lat="46.0201500" lon="10.4037410">
	<ele>1388.80</ele>
	<time>2024-07-24T07:26:36.000Z</time>
</trkpt>
<trkpt lat="46.0201450" lon="10.4037400">
	<ele>1388.80</ele>
	<time>2024-07-24T07:26:37.000Z</time>
</trkpt>
<trkpt lat="46.0201340" lon="10.4037480">
	<ele>1388.80</ele>
	<time>2024-07-24T07:26:38.000Z</time>
</trkpt>
<trkpt lat="46.0201300" lon="10.4037520">
	<ele>1388.80</ele>
	<time>2024-07-24T07:26:39.000Z</time>
</trkpt>
<trkpt lat="46.0201270" lon="10.4037580">
	<ele>1388.80</ele>
	<time>2024-07-24T07:26:40.000Z</time>
</trkpt>
<trkpt lat="46.0201250" lon="10.4037540">
	<ele>1388.80</ele>
	<time>2024-07-24T07:26:41.000Z</time>
</trkpt>
<trkpt lat="46.0201190" lon="10.4037510">
	<ele>1389.00</ele>
	<time>2024-07-24T07:26:42.000Z</time>
</trkpt>
<trkpt lat="46.0201140" lon="10.4037540">
	<ele>1388.80</ele>
	<time>2024-07-24T07:26:43.000Z</time>
</trkpt>
<trkpt lat="46.0201130" lon="10.4037530">
	<ele>1388.80</ele>
	<time>2024-07-24T07:26:44.000Z</time>
</trkpt>
<trkpt lat="46.0201120" lon="10.4037520">
	<ele>1388.80</ele>
	<time>2024-07-24T07:26:45.000Z</time>
</trkpt>
<trkpt lat="46.0201100" lon="10.4037490">
	<ele>1389.00</ele>
	<time>2024-07-24T07:26:46.000Z</time>
</trkpt>
<trkpt lat="46.0201070" lon="10.4037480">
	<ele>1389.00</ele>
	<time>2024-07-24T07:26:47.000Z</time>
</trkpt>
<trkpt lat="46.0200970" lon="10.4037540">
	<ele>1389.20</ele>
	<time>2024-07-24T07:26:48.000Z</time>
</trkpt>
<trkpt lat="46.0200870" lon="10.4037630">
	<ele>1389.20</ele>
	<time>2024-07-24T07:26:49.000Z</time>
</trkpt>
<trkpt lat="46.0200760" lon="10.4037670">
	<ele>1389.20</ele>
	<time>2024-07-24T07:26:50.000Z</time>
</trkpt>
<trkpt lat="46.0200720" lon="10.4037640">
	<ele>1389.60</ele>
	<time>2024-07-24T07:26:51.000Z</time>
</trkpt>
<trkpt lat="46.0200680" lon="10.4037660">
	<ele>1389.60</ele>
	<time>2024-07-24T07:26:52.000Z</time>
</trkpt>
<trkpt lat="46.0200650" lon="10.4037680">
	<ele>1389.80</ele>
	<time>2024-07-24T07:26:53.000Z</time>
</trkpt>
<trkpt lat="46.0200580" lon="10.4037670">
	<ele>1390.00</ele>
	<time>2024-07-24T07:26:54.000Z</time>
</trkpt>
<trkpt lat="46.0200540" lon="10.4037690">
	<ele>1390.00</ele>
	<time>2024-07-24T07:26:55.000Z</time>
</trkpt>
<trkpt lat="46.0200460" lon="10.4037690">
	<ele>1390.20</ele>
	<time>2024-07-24T07:26:56.000Z</time>
</trkpt>
<trkpt lat="46.0200390" lon="10.4037750">
	<ele>1390.40</ele>
	<time>2024-07-24T07:26:57.000Z</time>
</trkpt>
<trkpt lat="46.0200420" lon="10.4037790">
	<ele>1390.40</ele>
	<time>2024-07-24T07:26:58.000Z</time>
</trkpt>
<trkpt lat="46.0200460" lon="10.4037740">
	<ele>1390.40</ele>
	<time>2024-07-24T07:26:59.000Z</time>
</trkpt>
<trkpt lat="46.0200470" lon="10.4037660">
	<ele>1390.40</ele>
	<time>2024-07-24T07:27:00.000Z</time>
</trkpt>
<trkpt lat="46.0200480" lon="10.4037650">
	<ele>1390.60</ele>
	<time>2024-07-24T07:27:01.000Z</time>
</trkpt>
<trkpt lat="46.0200470" lon="10.4037610">
	<ele>1390.60</ele>
	<time>2024-07-24T07:27:02.000Z</time>
</trkpt>
<trkpt lat="46.0200450" lon="10.4037580">
	<ele>1390.60</ele>
	<time>2024-07-24T07:27:03.000Z</time>
</trkpt>
<trkpt lat="46.0200460" lon="10.4037610">
	<ele>1390.60</ele>
	<time>2024-07-24T07:27:04.000Z</time>
</trkpt>
<trkpt lat="46.0200460" lon="10.4037630">
	<ele>1390.60</ele>
	<time>2024-07-24T07:27:05.000Z</time>
</trkpt>
<trkpt lat="46.0200440" lon="10.4037630">
	<ele>1390.60</ele>
	<time>2024-07-24T07:27:06.000Z</time>
</trkpt>
<trkpt lat="46.0200410" lon="10.4037660">
	<ele>1390.60</ele>
	<time>2024-07-24T07:27:07.000Z</time>
</trkpt>
<trkpt lat="46.0200390" lon="10.4037670">
	<ele>1390.60</ele>
	<time>2024-07-24T07:27:08.000Z</time>
</trkpt>
<trkpt lat="46.0200330" lon="10.4037690">
	<ele>1390.60</ele>
	<time>2024-07-24T07:27:09.000Z</time>
</trkpt>
<trkpt lat="46.0200270" lon="10.4037650">
	<ele>1390.60</ele>
	<time>2024-07-24T07:27:10.000Z</time>
</trkpt>
<trkpt lat="46.0200210" lon="10.4037640">
	<ele>1390.60</ele>
	<time>2024-07-24T07:27:11.000Z</time>
</trkpt>
<trkpt lat="46.0200210" lon="10.4037760">
	<ele>1390.60</ele>
	<time>2024-07-24T07:27:12.000Z</time>
</trkpt>
<trkpt lat="46.0200190" lon="10.4037820">
	<ele>1390.60</ele>
	<time>2024-07-24T07:27:13.000Z</time>
</trkpt>
<trkpt lat="46.0200190" lon="10.4037840">
	<ele>1390.60</ele>
	<time>2024-07-24T07:27:14.000Z</time>
</trkpt>
<trkpt lat="46.0200210" lon="10.4037860">
	<ele>1390.60</ele>
	<time>2024-07-24T07:27:15.000Z</time>
</trkpt>
<trkpt lat="46.0200210" lon="10.4037900">
	<ele>1390.60</ele>
	<time>2024-07-24T07:27:16.000Z</time>
</trkpt>
<trkpt lat="46.0200210" lon="10.4037900">
	<ele>1390.60</ele>
	<time>2024-07-24T07:27:17.000Z</time>
</trkpt>
<trkpt lat="46.0200210" lon="10.4037900">
	<ele>1390.60</ele>
	<time>2024-07-24T07:27:18.000Z</time>
</trkpt>
<trkpt lat="46.0200210" lon="10.4037900">
	<ele>1390.80</ele>
	<time>2024-07-24T07:27:19.000Z</time>
</trkpt>
<trkpt lat="46.0200210" lon="10.4037900">
	<ele>1390.60</ele>
	<time>2024-07-24T07:27:20.000Z</time>
</trkpt>
<trkpt lat="46.0200210" lon="10.4037900">
	<ele>1390.80</ele>
	<time>2024-07-24T07:27:21.000Z</time>
</trkpt>
<trkpt lat="46.0200210" lon="10.4037900">
	<ele>1390.80</ele>
	<time>2024-07-24T07:27:22.000Z</time>
</trkpt>
<trkpt lat="46.0200210" lon="10.4037900">
	<ele>1390.60</ele>
	<time>2024-07-24T07:27:23.000Z</time>
</trkpt>
<trkpt lat="46.0200210" lon="10.4037900">
	<ele>1390.60</ele>
	<time>2024-07-24T07:27:24.000Z</time>
</trkpt>
<trkpt lat="46.0200210" lon="10.4037900">
	<ele>1390.60</ele>
	<time>2024-07-24T07:27:25.000Z</time>
</trkpt>
<trkpt lat="46.0200210" lon="10.4037900">
	<ele>1390.60</ele>
	<time>2024-07-24T07:27:26.000Z</time>
</trkpt>
<trkpt lat="46.0200210" lon="10.4037900">
	<ele>1390.80</ele>
	<time>2024-07-24T07:27:27.000Z</time>
</trkpt>
<trkpt lat="46.0200210" lon="10.4037900">
	<ele>1390.80</ele>
	<time>2024-07-24T07:27:28.000Z</time>
</trkpt>
<trkpt lat="46.0200210" lon="10.4037900">
	<ele>1390.80</ele>
	<time>2024-07-24T07:27:29.000Z</time>
</trkpt>
<trkpt lat="46.0200200" lon="10.4037900">
	<ele>1390.80</ele>
	<time>2024-07-24T07:27:30.000Z</time>
</trkpt>
<trkpt lat="46.0200190" lon="10.4037900">
	<ele>1390.80</ele>
	<time>2024-07-24T07:27:31.000Z</time>
</trkpt>
<trkpt lat="46.0200190" lon="10.4037900">
	<ele>1390.80</ele>
	<time>2024-07-24T07:27:32.000Z</time>
</trkpt>
<trkpt lat="46.0200190" lon="10.4037900">
	<ele>1390.80</ele>
	<time>2024-07-24T07:27:33.000Z</time>
</trkpt>
<trkpt lat="46.0200170" lon="10.4037900">
	<ele>1390.80</ele>
	<time>2024-07-24T07:27:34.000Z</time>
</trkpt>
<trkpt lat="46.0200160" lon="10.4037900">
	<ele>1390.80</ele>
	<time>2024-07-24T07:27:35.000Z</time>
</trkpt>
<trkpt lat="46.0200150" lon="10.4037900">
	<ele>1390.80</ele>
	<time>2024-07-24T07:27:36.000Z</time>
</trkpt>
<trkpt lat="46.0200130" lon="10.4037900">
	<ele>1391.00</ele>
	<time>2024-07-24T07:27:37.000Z</time>
</trkpt>
<trkpt lat="46.0200060" lon="10.4037930">
	<ele>1391.00</ele>
	<time>2024-07-24T07:27:38.000Z</time>
</trkpt>
<trkpt lat="46.0199910" lon="10.4038000">
	<ele>1391.20</ele>
	<time>2024-07-24T07:27:39.000Z</time>
</trkpt>
<trkpt lat="46.0199750" lon="10.4038100">
	<ele>1391.20</ele>
	<time>2024-07-24T07:27:40.000Z</time>
</trkpt>
<trkpt lat="46.0199650" lon="10.4038240">
	<ele>1391.40</ele>
	<time>2024-07-24T07:27:41.000Z</time>
</trkpt>
<trkpt lat="46.0199520" lon="10.4038330">
	<ele>1391.40</ele>
	<time>2024-07-24T07:27:42.000Z</time>
</trkpt>
<trkpt lat="46.0199400" lon="10.4038450">
	<ele>1391.40</ele>
	<time>2024-07-24T07:27:43.000Z</time>
</trkpt>
<trkpt lat="46.0199310" lon="10.4038530">
	<ele>1391.60</ele>
	<time>2024-07-24T07:27:44.000Z</time>
</trkpt>
<trkpt lat="46.0199210" lon="10.4038660">
	<ele>1391.60</ele>
	<time>2024-07-24T07:27:45.000Z</time>
</trkpt>
<trkpt lat="46.0199090" lon="10.4038760">
	<ele>1391.80</ele>
	<time>2024-07-24T07:27:46.000Z</time>
</trkpt>
<trkpt lat="46.0198980" lon="10.4038880">
	<ele>1391.80</ele>
	<time>2024-07-24T07:27:47.000Z</time>
</trkpt>
<trkpt lat="46.0198940" lon="10.4038960">
	<ele>1392.00</ele>
	<time>2024-07-24T07:27:48.000Z</time>
</trkpt>
<trkpt lat="46.0198890" lon="10.4038970">
	<ele>1392.20</ele>
	<time>2024-07-24T07:27:49.000Z</time>
</trkpt>
<trkpt lat="46.0198760" lon="10.4039030">
	<ele>1392.20</ele>
	<time>2024-07-24T07:27:50.000Z</time>
</trkpt>
<trkpt lat="46.0198680" lon="10.4039090">
	<ele>1392.40</ele>
	<time>2024-07-24T07:27:51.000Z</time>
</trkpt>
<trkpt lat="46.0198590" lon="10.4039160">
	<ele>1392.40</ele>
	<time>2024-07-24T07:27:52.000Z</time>
</trkpt>
<trkpt lat="46.0198520" lon="10.4039210">
	<ele>1392.60</ele>
	<time>2024-07-24T07:27:53.000Z</time>
</trkpt>
<trkpt lat="46.0198440" lon="10.4039210">
	<ele>1392.80</ele>
	<time>2024-07-24T07:27:54.000Z</time>
</trkpt>
<trkpt lat="46.0198380" lon="10.4039240">
	<ele>1392.80</ele>
	<time>2024-07-24T07:27:55.000Z</time>
</trkpt>
<trkpt lat="46.0198310" lon="10.4039260">
	<ele>1393.00</ele>
	<time>2024-07-24T07:27:56.000Z</time>
</trkpt>
<trkpt lat="46.0198260" lon="10.4039200">
	<ele>1393.20</ele>
	<time>2024-07-24T07:27:57.000Z</time>
</trkpt>
<trkpt lat="46.0198210" lon="10.4039120">
	<ele>1393.40</ele>
	<time>2024-07-24T07:27:58.000Z</time>
</trkpt>
<trkpt lat="46.0198220" lon="10.4038960">
	<ele>1393.40</ele>
	<time>2024-07-24T07:27:59.000Z</time>
</trkpt>
<trkpt lat="46.0198290" lon="10.4038810">
	<ele>1393.40</ele>
	<time>2024-07-24T07:28:00.000Z</time>
</trkpt>
<trkpt lat="46.0198320" lon="10.4038850">
	<ele>1393.40</ele>
	<time>2024-07-24T07:28:01.000Z</time>
</trkpt>
<trkpt lat="46.0198410" lon="10.4038880">
	<ele>1393.40</ele>
	<time>2024-07-24T07:28:02.000Z</time>
</trkpt>
<trkpt lat="46.0198550" lon="10.4038920">
	<ele>1393.40</ele>
	<time>2024-07-24T07:28:03.000Z</time>
</trkpt>
<trkpt lat="46.0198640" lon="10.4038920">
	<ele>1393.20</ele>
	<time>2024-07-24T07:28:04.000Z</time>
</trkpt>
<trkpt lat="46.0198710" lon="10.4038870">
	<ele>1393.20</ele>
	<time>2024-07-24T07:28:05.000Z</time>
</trkpt>
<trkpt lat="46.0198830" lon="10.4038820">
	<ele>1393.00</ele>
	<time>2024-07-24T07:28:06.000Z</time>
</trkpt>
<trkpt lat="46.0198920" lon="10.4038770">
	<ele>1392.80</ele>
	<time>2024-07-24T07:28:07.000Z</time>
</trkpt>
<trkpt lat="46.0198970" lon="10.4038750">
	<ele>1392.60</ele>
	<time>2024-07-24T07:28:08.000Z</time>
</trkpt>
<trkpt lat="46.0199030" lon="10.4038760">
	<ele>1392.60</ele>
	<time>2024-07-24T07:28:09.000Z</time>
</trkpt>
<trkpt lat="46.0199070" lon="10.4038710">
	<ele>1392.60</ele>
	<time>2024-07-24T07:28:10.000Z</time>
</trkpt>
<trkpt lat="46.0199150" lon="10.4038660">
	<ele>1392.40</ele>
	<time>2024-07-24T07:28:11.000Z</time>
</trkpt>
<trkpt lat="46.0199210" lon="10.4038600">
	<ele>1392.40</ele>
	<time>2024-07-24T07:28:12.000Z</time>
</trkpt>
<trkpt lat="46.0199250" lon="10.4038540">
	<ele>1392.40</ele>
	<time>2024-07-24T07:28:13.000Z</time>
</trkpt>
<trkpt lat="46.0199300" lon="10.4038460">
	<ele>1392.40</ele>
	<time>2024-07-24T07:28:14.000Z</time>
</trkpt>
<trkpt lat="46.0199360" lon="10.4038390">
	<ele>1392.40</ele>
	<time>2024-07-24T07:28:15.000Z</time>
</trkpt>
<trkpt lat="46.0199390" lon="10.4038310">
	<ele>1392.40</ele>
	<time>2024-07-24T07:28:16.000Z</time>
</trkpt>
<trkpt lat="46.0199390" lon="10.4038270">
	<ele>1392.40</ele>
	<time>2024-07-24T07:28:17.000Z</time>
</trkpt>
<trkpt lat="46.0199450" lon="10.4038190">
	<ele>1392.20</ele>
	<time>2024-07-24T07:28:18.000Z</time>
</trkpt>
<trkpt lat="46.0199540" lon="10.4038180">
	<ele>1392.20</ele>
	<time>2024-07-24T07:28:19.000Z</time>
</trkpt>
<trkpt lat="46.0199610" lon="10.4038120">
	<ele>1392.00</ele>
	<time>2024-07-24T07:28:20.000Z</time>
</trkpt>
<trkpt lat="46.0199730" lon="10.4038110">
	<ele>1392.00</ele>
	<time>2024-07-24T07:28:21.000Z</time>
</trkpt>
<trkpt lat="46.0199880" lon="10.4038110">
	<ele>1392.00</ele>
	<time>2024-07-24T07:28:22.000Z</time>
</trkpt>
<trkpt lat="46.0199900" lon="10.4038030">
	<ele>1391.80</ele>
	<time>2024-07-24T07:28:23.000Z</time>
</trkpt>
<trkpt lat="46.0199850" lon="10.4038050">
	<ele>1391.80</ele>
	<time>2024-07-24T07:28:24.000Z</time>
</trkpt>
<trkpt lat="46.0199790" lon="10.4038020">
	<ele>1391.80</ele>
	<time>2024-07-24T07:28:25.000Z</time>
</trkpt>
<trkpt lat="46.0199730" lon="10.4038040">
	<ele>1391.80</ele>
	<time>2024-07-24T07:28:26.000Z</time>
</trkpt>
<trkpt lat="46.0199710" lon="10.4038060">
	<ele>1391.80</ele>
	<time>2024-07-24T07:28:27.000Z</time>
</trkpt>
<trkpt lat="46.0199680" lon="10.4038040">
	<ele>1391.80</ele>
	<time>2024-07-24T07:28:28.000Z</time>
</trkpt>
<trkpt lat="46.0199700" lon="10.4038060">
	<ele>1391.80</ele>
	<time>2024-07-24T07:28:29.000Z</time>
</trkpt>
<trkpt lat="46.0199730" lon="10.4038040">
	<ele>1391.80</ele>
	<time>2024-07-24T07:28:30.000Z</time>
</trkpt>
<trkpt lat="46.0199770" lon="10.4038030">
	<ele>1391.80</ele>
	<time>2024-07-24T07:28:31.000Z</time>
</trkpt>
<trkpt lat="46.0199750" lon="10.4038040">
	<ele>1391.80</ele>
	<time>2024-07-24T07:28:32.000Z</time>
</trkpt>
<trkpt lat="46.0199760" lon="10.4038060">
	<ele>1391.80</ele>
	<time>2024-07-24T07:28:33.000Z</time>
</trkpt>
<trkpt lat="46.0199740" lon="10.4038100">
	<ele>1391.80</ele>
	<time>2024-07-24T07:28:34.000Z</time>
</trkpt>
<trkpt lat="46.0199710" lon="10.4038140">
	<ele>1391.80</ele>
	<time>2024-07-24T07:28:35.000Z</time>
</trkpt>
<trkpt lat="46.0199680" lon="10.4038130">
	<ele>1391.80</ele>
	<time>2024-07-24T07:28:36.000Z</time>
</trkpt>
<trkpt lat="46.0199680" lon="10.4038120">
	<ele>1391.80</ele>
	<time>2024-07-24T07:28:37.000Z</time>
</trkpt>
<trkpt lat="46.0199660" lon="10.4038120">
	<ele>1391.80</ele>
	<time>2024-07-24T07:28:38.000Z</time>
</trkpt>
<trkpt lat="46.0199620" lon="10.4038110">
	<ele>1391.80</ele>
	<time>2024-07-24T07:28:39.000Z</time>
</trkpt>
<trkpt lat="46.0199620" lon="10.4038110">
	<ele>1391.80</ele>
	<time>2024-07-24T07:28:40.000Z</time>
</trkpt>
<trkpt lat="46.0199620" lon="10.4038110">
	<ele>1391.80</ele>
	<time>2024-07-24T07:28:41.000Z</time>
</trkpt>
<trkpt lat="46.0199620" lon="10.4038110">
	<ele>1391.80</ele>
	<time>2024-07-24T07:28:42.000Z</time>
</trkpt>
<trkpt lat="46.0199620" lon="10.4038110">
	<ele>1392.00</ele>
	<time>2024-07-24T07:28:43.000Z</time>
</trkpt>
<trkpt lat="46.0199620" lon="10.4038110">
	<ele>1392.00</ele>
	<time>2024-07-24T07:28:44.000Z</time>
</trkpt>
<trkpt lat="46.0199620" lon="10.4038110">
	<ele>1392.00</ele>
	<time>2024-07-24T07:28:45.000Z</time>
</trkpt>
<trkpt lat="46.0199620" lon="10.4038110">
	<ele>1392.00</ele>
	<time>2024-07-24T07:28:46.000Z</time>
</trkpt>
<trkpt lat="46.0199620" lon="10.4038110">
	<ele>1392.00</ele>
	<time>2024-07-24T07:28:47.000Z</time>
</trkpt>
<trkpt lat="46.0199620" lon="10.4038110">
	<ele>1392.20</ele>
	<time>2024-07-24T07:28:48.000Z</time>
</trkpt>
<trkpt lat="46.0199620" lon="10.4038110">
	<ele>1392.20</ele>
	<time>2024-07-24T07:28:49.000Z</time>
</trkpt>
<trkpt lat="46.0199620" lon="10.4038110">
	<ele>1392.20</ele>
	<time>2024-07-24T07:28:50.000Z</time>
</trkpt>
<trkpt lat="46.0199620" lon="10.4038110">
	<ele>1392.20</ele>
	<time>2024-07-24T07:28:51.000Z</time>
</trkpt>
<trkpt lat="46.0199620" lon="10.4038110">
	<ele>1392.20</ele>
	<time>2024-07-24T07:28:52.000Z</time>
</trkpt>
<trkpt lat="46.0199620" lon="10.4038110">
	<ele>1392.00</ele>
	<time>2024-07-24T07:28:53.000Z</time>
</trkpt>
<trkpt lat="46.0199620" lon="10.4038110">
	<ele>1392.00</ele>
	<time>2024-07-24T07:28:54.000Z</time>
</trkpt>
<trkpt lat="46.0199620" lon="10.4038110">
	<ele>1392.00</ele>
	<time>2024-07-24T07:28:55.000Z</time>
</trkpt>
<trkpt lat="46.0199610" lon="10.4038110">
	<ele>1392.00</ele>
	<time>2024-07-24T07:28:56.000Z</time>
</trkpt>
<trkpt lat="46.0199600" lon="10.4038100">
	<ele>1391.80</ele>
	<time>2024-07-24T07:28:57.000Z</time>
</trkpt>
<trkpt lat="46.0199590" lon="10.4038090">
	<ele>1391.80</ele>
	<time>2024-07-24T07:28:58.000Z</time>
</trkpt>
<trkpt lat="46.0199570" lon="10.4038080">
	<ele>1391.80</ele>
	<time>2024-07-24T07:28:59.000Z</time>
</trkpt>
<trkpt lat="46.0199560" lon="10.4038080">
	<ele>1391.80</ele>
	<time>2024-07-24T07:29:00.000Z</time>
</trkpt>
<trkpt lat="46.0199550" lon="10.4038090">
	<ele>1391.80</ele>
	<time>2024-07-24T07:29:01.000Z</time>
</trkpt>
<trkpt lat="46.0199530" lon="10.4038100">
	<ele>1391.80</ele>
	<time>2024-07-24T07:29:02.000Z</time>
</trkpt>
<trkpt lat="46.0199500" lon="10.4038110">
	<ele>1391.80</ele>
	<time>2024-07-24T07:29:03.000Z</time>
</trkpt>
<trkpt lat="46.0199500" lon="10.4038110">
	<ele>1391.60</ele>
	<time>2024-07-24T07:29:04.000Z</time>
</trkpt>
<trkpt lat="46.0199480" lon="10.4038120">
	<ele>1391.60</ele>
	<time>2024-07-24T07:29:05.000Z</time>
</trkpt>
<trkpt lat="46.0199460" lon="10.4038120">
	<ele>1391.60</ele>
	<time>2024-07-24T07:29:06.000Z</time>
</trkpt>
<trkpt lat="46.0199420" lon="10.4038120">
	<ele>1391.60</ele>
	<time>2024-07-24T07:29:07.000Z</time>
</trkpt>
<trkpt lat="46.0199370" lon="10.4038120">
	<ele>1391.60</ele>
	<time>2024-07-24T07:29:08.000Z</time>
</trkpt>
<trkpt lat="46.0199340" lon="10.4038120">
	<ele>1391.60</ele>
	<time>2024-07-24T07:29:09.000Z</time>
</trkpt>
<trkpt lat="46.0199310" lon="10.4038120">
	<ele>1391.60</ele>
	<time>2024-07-24T07:29:10.000Z</time>
</trkpt>
<trkpt lat="46.0199280" lon="10.4038120">
	<ele>1391.60</ele>
	<time>2024-07-24T07:29:11.000Z</time>
</trkpt>
<trkpt lat="46.0199260" lon="10.4038120">
	<ele>1391.60</ele>
	<time>2024-07-24T07:29:12.000Z</time>
</trkpt>
<trkpt lat="46.0199240" lon="10.4038120">
	<ele>1391.60</ele>
	<time>2024-07-24T07:29:13.000Z</time>
</trkpt>
<trkpt lat="46.0199230" lon="10.4038120">
	<ele>1391.40</ele>
	<time>2024-07-24T07:29:14.000Z</time>
</trkpt>
<trkpt lat="46.0199220" lon="10.4038150">
	<ele>1391.40</ele>
	<time>2024-07-24T07:29:15.000Z</time>
</trkpt>
<trkpt lat="46.0199210" lon="10.4038150">
	<ele>1391.40</ele>
	<time>2024-07-24T07:29:16.000Z</time>
</trkpt>
<trkpt lat="46.0199190" lon="10.4038160">
	<ele>1391.40</ele>
	<time>2024-07-24T07:29:17.000Z</time>
</trkpt>
<trkpt lat="46.0199190" lon="10.4038160">
	<ele>1391.40</ele>
	<time>2024-07-24T07:29:18.000Z</time>
</trkpt>
<trkpt lat="46.0199170" lon="10.4038160">
	<ele>1391.40</ele>
	<time>2024-07-24T07:29:19.000Z</time>
</trkpt>
<trkpt lat="46.0199150" lon="10.4038160">
	<ele>1391.40</ele>
	<time>2024-07-24T07:29:20.000Z</time>
</trkpt>
<trkpt lat="46.0199140" lon="10.4038160">
	<ele>1391.40</ele>
	<time>2024-07-24T07:29:21.000Z</time>
</trkpt>
<trkpt lat="46.0199130" lon="10.4038160">
	<ele>1391.40</ele>
	<time>2024-07-24T07:29:22.000Z</time>
</trkpt>
<trkpt lat="46.0199120" lon="10.4038160">
	<ele>1391.40</ele>
	<time>2024-07-24T07:29:23.000Z</time>
</trkpt>
<trkpt lat="46.0199120" lon="10.4038160">
	<ele>1391.40</ele>
	<time>2024-07-24T07:29:24.000Z</time>
</trkpt>
<trkpt lat="46.0199100" lon="10.4038160">
	<ele>1391.40</ele>
	<time>2024-07-24T07:29:25.000Z</time>
</trkpt>
<trkpt lat="46.0199100" lon="10.4038160">
	<ele>1391.40</ele>
	<time>2024-07-24T07:29:26.000Z</time>
</trkpt>
<trkpt lat="46.0199100" lon="10.4038160">
	<ele>1391.40</ele>
	<time>2024-07-24T07:29:27.000Z</time>
</trkpt>
<trkpt lat="46.0199130" lon="10.4038160">
	<ele>1391.40</ele>
	<time>2024-07-24T07:29:28.000Z</time>
</trkpt>
<trkpt lat="46.0199200" lon="10.4038160">
	<ele>1391.40</ele>
	<time>2024-07-24T07:29:29.000Z</time>
</trkpt>
<trkpt lat="46.0199290" lon="10.4038110">
	<ele>1391.40</ele>
	<time>2024-07-24T07:29:30.000Z</time>
</trkpt>
<trkpt lat="46.0199350" lon="10.4038080">
	<ele>1391.20</ele>
	<time>2024-07-24T07:29:31.000Z</time>
</trkpt>
<trkpt lat="46.0199350" lon="10.4038080">
	<ele>1391.20</ele>
	<time>2024-07-24T07:29:32.000Z</time>
</trkpt>
<trkpt lat="46.0199350" lon="10.4038080">
	<ele>1391.20</ele>
	<time>2024-07-24T07:29:33.000Z</time>
</trkpt>
<trkpt lat="46.0199350" lon="10.4038080">
	<ele>1391.00</ele>
	<time>2024-07-24T07:29:34.000Z</time>
</trkpt>
<trkpt lat="46.0199350" lon="10.4038080">
	<ele>1391.00</ele>
	<time>2024-07-24T07:29:35.000Z</time>
</trkpt>
<trkpt lat="46.0199350" lon="10.4038080">
	<ele>1391.00</ele>
	<time>2024-07-24T07:29:36.000Z</time>
</trkpt>
<trkpt lat="46.0199350" lon="10.4038080">
	<ele>1391.00</ele>
	<time>2024-07-24T07:29:37.000Z</time>
</trkpt>
<trkpt lat="46.0199350" lon="10.4038080">
	<ele>1391.00</ele>
	<time>2024-07-24T07:29:38.000Z</time>
</trkpt>
<trkpt lat="46.0199350" lon="10.4038080">
	<ele>1391.00</ele>
	<time>2024-07-24T07:29:39.000Z</time>
</trkpt>
<trkpt lat="46.0199350" lon="10.4038080">
	<ele>1391.00</ele>
	<time>2024-07-24T07:29:40.000Z</time>
</trkpt>
<trkpt lat="46.0199350" lon="10.4038080">
	<ele>1391.00</ele>
	<time>2024-07-24T07:29:41.000Z</time>
</trkpt>
<trkpt lat="46.0199350" lon="10.4038080">
	<ele>1391.00</ele>
	<time>2024-07-24T07:29:42.000Z</time>
</trkpt>
<trkpt lat="46.0199350" lon="10.4038080">
	<ele>1391.00</ele>
	<time>2024-07-24T07:29:43.000Z</time>
</trkpt>
<trkpt lat="46.0199350" lon="10.4038080">
	<ele>1391.00</ele>
	<time>2024-07-24T07:29:44.000Z</time>
</trkpt>
<trkpt lat="46.0199350" lon="10.4038080">
	<ele>1391.00</ele>
	<time>2024-07-24T07:29:45.000Z</time>
</trkpt>
<trkpt lat="46.0199350" lon="10.4038080">
	<ele>1391.00</ele>
	<time>2024-07-24T07:29:46.000Z</time>
</trkpt>
<trkpt lat="46.0199350" lon="10.4038090">
	<ele>1391.00</ele>
	<time>2024-07-24T07:29:47.000Z</time>
</trkpt>
<trkpt lat="46.0199350" lon="10.4038090">
	<ele>1390.80</ele>
	<time>2024-07-24T07:29:48.000Z</time>
</trkpt>
<trkpt lat="46.0199350" lon="10.4038090">
	<ele>1390.80</ele>
	<time>2024-07-24T07:29:49.000Z</time>
</trkpt>
<trkpt lat="46.0199350" lon="10.4038100">
	<ele>1390.80</ele>
	<time>2024-07-24T07:29:50.000Z</time>
</trkpt>
<trkpt lat="46.0199350" lon="10.4038100">
	<ele>1390.80</ele>
	<time>2024-07-24T07:29:51.000Z</time>
</trkpt>
<trkpt lat="46.0199350" lon="10.4038130">
	<ele>1390.80</ele>
	<time>2024-07-24T07:29:52.000Z</time>
</trkpt>
<trkpt lat="46.0199360" lon="10.4038140">
	<ele>1390.80</ele>
	<time>2024-07-24T07:29:53.000Z</time>
</trkpt>
<trkpt lat="46.0199370" lon="10.4038140">
	<ele>1390.80</ele>
	<time>2024-07-24T07:29:54.000Z</time>
</trkpt>
<trkpt lat="46.0199370" lon="10.4038150">
	<ele>1390.80</ele>
	<time>2024-07-24T07:29:55.000Z</time>
</trkpt>
<trkpt lat="46.0199370" lon="10.4038160">
	<ele>1390.80</ele>
	<time>2024-07-24T07:29:56.000Z</time>
</trkpt>
<trkpt lat="46.0199370" lon="10.4038160">
	<ele>1390.80</ele>
	<time>2024-07-24T07:29:57.000Z</time>
</trkpt>
<trkpt lat="46.0199370" lon="10.4038160">
	<ele>1390.80</ele>
	<time>2024-07-24T07:29:58.000Z</time>
</trkpt>
<trkpt lat="46.0199370" lon="10.4038170">
	<ele>1390.80</ele>
	<time>2024-07-24T07:29:59.000Z</time>
</trkpt>
<trkpt lat="46.0199370" lon="10.4038180">
	<ele>1390.80</ele>
	<time>2024-07-24T07:30:00.000Z</time>
</trkpt>
<trkpt lat="46.0199360" lon="10.4038180">
	<ele>1390.80</ele>
	<time>2024-07-24T07:30:01.000Z</time>
</trkpt>
<trkpt lat="46.0199360" lon="10.4038180">
	<ele>1390.80</ele>
	<time>2024-07-24T07:30:02.000Z</time>
</trkpt>
<trkpt lat="46.0199350" lon="10.4038190">
	<ele>1390.80</ele>
	<time>2024-07-24T07:30:03.000Z</time>
</trkpt>
<trkpt lat="46.0199350" lon="10.4038190">
	<ele>1390.80</ele>
	<time>2024-07-24T07:30:04.000Z</time>
</trkpt>
<trkpt lat="46.0199340" lon="10.4038200">
	<ele>1390.80</ele>
	<time>2024-07-24T07:30:05.000Z</time>
</trkpt>
<trkpt lat="46.0199340" lon="10.4038210">
	<ele>1390.80</ele>
	<time>2024-07-24T07:30:06.000Z</time>
</trkpt>
<trkpt lat="46.0199310" lon="10.4038220">
	<ele>1390.80</ele>
	<time>2024-07-24T07:30:07.000Z</time>
</trkpt>
<trkpt lat="46.0199310" lon="10.4038260">
	<ele>1390.80</ele>
	<time>2024-07-24T07:30:08.000Z</time>
</trkpt>
<trkpt lat="46.0199300" lon="10.4038280">
	<ele>1390.80</ele>
	<time>2024-07-24T07:30:09.000Z</time>
</trkpt>
<trkpt lat="46.0199290" lon="10.4038300">
	<ele>1390.80</ele>
	<time>2024-07-24T07:30:10.000Z</time>
</trkpt>
<trkpt lat="46.0199290" lon="10.4038300">
	<ele>1390.80</ele>
	<time>2024-07-24T07:30:11.000Z</time>
</trkpt>
<trkpt lat="46.0199280" lon="10.4038300">
	<ele>1390.80</ele>
	<time>2024-07-24T07:30:12.000Z</time>
</trkpt>
<trkpt lat="46.0199230" lon="10.4038310">
	<ele>1390.80</ele>
	<time>2024-07-24T07:30:13.000Z</time>
</trkpt>
<trkpt lat="46.0199180" lon="10.4038310">
	<ele>1390.80</ele>
	<time>2024-07-24T07:30:14.000Z</time>
</trkpt>
<trkpt lat="46.0199160" lon="10.4038320">
	<ele>1390.80</ele>
	<time>2024-07-24T07:30:15.000Z</time>
</trkpt>
<trkpt lat="46.0199160" lon="10.4038340">
	<ele>1390.80</ele>
	<time>2024-07-24T07:30:16.000Z</time>
</trkpt>
<trkpt lat="46.0199150" lon="10.4038350">
	<ele>1390.60</ele>
	<time>2024-07-24T07:30:17.000Z</time>
</trkpt>
<trkpt lat="46.0199140" lon="10.4038350">
	<ele>1390.60</ele>
	<time>2024-07-24T07:30:18.000Z</time>
</trkpt>
<trkpt lat="46.0199130" lon="10.4038360">
	<ele>1390.60</ele>
	<time>2024-07-24T07:30:19.000Z</time>
</trkpt>
<trkpt lat="46.0199130" lon="10.4038360">
	<ele>1390.60</ele>
	<time>2024-07-24T07:30:20.000Z</time>
</trkpt>
<trkpt lat="46.0199120" lon="10.4038360">
	<ele>1390.60</ele>
	<time>2024-07-24T07:30:21.000Z</time>
</trkpt>
<trkpt lat="46.0199120" lon="10.4038370">
	<ele>1390.60</ele>
	<time>2024-07-24T07:30:22.000Z</time>
</trkpt>
<trkpt lat="46.0199090" lon="10.4038390">
	<ele>1390.60</ele>
	<time>2024-07-24T07:30:23.000Z</time>
</trkpt>
<trkpt lat="46.0199080" lon="10.4038400">
	<ele>1390.60</ele>
	<time>2024-07-24T07:30:24.000Z</time>
</trkpt>
<trkpt lat="46.0199080" lon="10.4038400">
	<ele>1390.60</ele>
	<time>2024-07-24T07:30:25.000Z</time>
</trkpt>
<trkpt lat="46.0199060" lon="10.4038410">
	<ele>1390.60</ele>
	<time>2024-07-24T07:30:26.000Z</time>
</trkpt>
<trkpt lat="46.0199050" lon="10.4038420">
	<ele>1390.60</ele>
	<time>2024-07-24T07:30:27.000Z</time>
</trkpt>
<trkpt lat="46.0199030" lon="10.4038450">
	<ele>1390.60</ele>
	<time>2024-07-24T07:30:28.000Z</time>
</trkpt>
<trkpt lat="46.0199020" lon="10.4038520">
	<ele>1390.40</ele>
	<time>2024-07-24T07:30:29.000Z</time>
</trkpt>
<trkpt lat="46.0199010" lon="10.4038620">
	<ele>1390.40</ele>
	<time>2024-07-24T07:30:30.000Z</time>
</trkpt>
<trkpt lat="46.0199000" lon="10.4038700">
	<ele>1390.40</ele>
	<time>2024-07-24T07:30:31.000Z</time>
</trkpt>
<trkpt lat="46.0198970" lon="10.4038800">
	<ele>1390.40</ele>
	<time>2024-07-24T07:30:32.000Z</time>
</trkpt>
<trkpt lat="46.0198960" lon="10.4038840">
	<ele>1390.40</ele>
	<time>2024-07-24T07:30:33.000Z</time>
</trkpt>
<trkpt lat="46.0198950" lon="10.4038850">
	<ele>1390.40</ele>
	<time>2024-07-24T07:30:34.000Z</time>
</trkpt>
<trkpt lat="46.0198940" lon="10.4038860">
	<ele>1390.40</ele>
	<time>2024-07-24T07:30:35.000Z</time>
</trkpt>
<trkpt lat="46.0198940" lon="10.4038860">
	<ele>1390.40</ele>
	<time>2024-07-24T07:30:36.000Z</time>
</trkpt>
<trkpt lat="46.0198930" lon="10.4038860">
	<ele>1390.40</ele>
	<time>2024-07-24T07:30:37.000Z</time>
</trkpt>
<trkpt lat="46.0198920" lon="10.4038860">
	<ele>1390.40</ele>
	<time>2024-07-24T07:30:38.000Z</time>
</trkpt>
<trkpt lat="46.0198920" lon="10.4038860">
	<ele>1390.40</ele>
	<time>2024-07-24T07:30:39.000Z</time>
</trkpt>
<trkpt lat="46.0198910" lon="10.4038860">
	<ele>1390.40</ele>
	<time>2024-07-24T07:30:40.000Z</time>
</trkpt>
<trkpt lat="46.0198910" lon="10.4038860">
	<ele>1390.40</ele>
	<time>2024-07-24T07:30:41.000Z</time>
</trkpt>
<trkpt lat="46.0198890" lon="10.4038860">
	<ele>1390.40</ele>
	<time>2024-07-24T07:30:42.000Z</time>
</trkpt>
<trkpt lat="46.0198890" lon="10.4038860">
	<ele>1390.40</ele>
	<time>2024-07-24T07:30:43.000Z</time>
</trkpt>
<trkpt lat="46.0198880" lon="10.4038860">
	<ele>1390.40</ele>
	<time>2024-07-24T07:30:44.000Z</time>
</trkpt>
<trkpt lat="46.0198880" lon="10.4038860">
	<ele>1390.40</ele>
	<time>2024-07-24T07:30:45.000Z</time>
</trkpt>
<trkpt lat="46.0198880" lon="10.4038860">
	<ele>1390.40</ele>
	<time>2024-07-24T07:30:46.000Z</time>
</trkpt>
<trkpt lat="46.0198870" lon="10.4038860">
	<ele>1390.40</ele>
	<time>2024-07-24T07:30:47.000Z</time>
</trkpt>
<trkpt lat="46.0198870" lon="10.4038860">
	<ele>1390.40</ele>
	<time>2024-07-24T07:30:48.000Z</time>
</trkpt>
<trkpt lat="46.0198870" lon="10.4038860">
	<ele>1390.40</ele>
	<time>2024-07-24T07:30:49.000Z</time>
</trkpt>
<trkpt lat="46.0198860" lon="10.4038860">
	<ele>1390.40</ele>
	<time>2024-07-24T07:30:50.000Z</time>
</trkpt>
<trkpt lat="46.0198850" lon="10.4038850">
	<ele>1390.40</ele>
	<time>2024-07-24T07:30:51.000Z</time>
</trkpt>
<trkpt lat="46.0198850" lon="10.4038840">
	<ele>1390.40</ele>
	<time>2024-07-24T07:30:52.000Z</time>
</trkpt>
<trkpt lat="46.0198850" lon="10.4038830">
	<ele>1390.40</ele>
	<time>2024-07-24T07:30:53.000Z</time>
</trkpt>
<trkpt lat="46.0198850" lon="10.4038820">
	<ele>1390.40</ele>
	<time>2024-07-24T07:30:54.000Z</time>
</trkpt>
<trkpt lat="46.0198850" lon="10.4038810">
	<ele>1390.40</ele>
	<time>2024-07-24T07:30:55.000Z</time>
</trkpt>
<trkpt lat="46.0198850" lon="10.4038800">
	<ele>1390.40</ele>
	<time>2024-07-24T07:30:56.000Z</time>
</trkpt>
<trkpt lat="46.0198850" lon="10.4038800">
	<ele>1390.40</ele>
	<time>2024-07-24T07:30:57.000Z</time>
</trkpt>
<trkpt lat="46.0198850" lon="10.4038790">
	<ele>1390.40</ele>
	<time>2024-07-24T07:30:58.000Z</time>
</trkpt>
<trkpt lat="46.0198850" lon="10.4038760">
	<ele>1390.40</ele>
	<time>2024-07-24T07:30:59.000Z</time>
</trkpt>
<trkpt lat="46.0198850" lon="10.4038740">
	<ele>1390.40</ele>
	<time>2024-07-24T07:31:00.000Z</time>
</trkpt>
<trkpt lat="46.0198850" lon="10.4038730">
	<ele>1390.40</ele>
	<time>2024-07-24T07:31:01.000Z</time>
</trkpt>
<trkpt lat="46.0198850" lon="10.4038720">
	<ele>1390.40</ele>
	<time>2024-07-24T07:31:02.000Z</time>
</trkpt>
<trkpt lat="46.0198850" lon="10.4038720">
	<ele>1390.20</ele>
	<time>2024-07-24T07:31:03.000Z</time>
</trkpt>
<trkpt lat="46.0198860" lon="10.4038720">
	<ele>1390.20</ele>
	<time>2024-07-24T07:31:04.000Z</time>
</trkpt>
<trkpt lat="46.0198860" lon="10.4038720">
	<ele>1390.20</ele>
	<time>2024-07-24T07:31:05.000Z</time>
</trkpt>
<trkpt lat="46.0198870" lon="10.4038710">
	<ele>1390.20</ele>
	<time>2024-07-24T07:31:06.000Z</time>
</trkpt>
<trkpt lat="46.0198910" lon="10.4038690">
	<ele>1390.20</ele>
	<time>2024-07-24T07:31:07.000Z</time>
</trkpt>
<trkpt lat="46.0198940" lon="10.4038690">
	<ele>1390.40</ele>
	<time>2024-07-24T07:31:08.000Z</time>
</trkpt>
<trkpt lat="46.0198970" lon="10.4038670">
	<ele>1390.40</ele>
	<time>2024-07-24T07:31:09.000Z</time>
</trkpt>
<trkpt lat="46.0199000" lon="10.4038660">
	<ele>1390.40</ele>
	<time>2024-07-24T07:31:10.000Z</time>
</trkpt>
<trkpt lat="46.0199010" lon="10.4038650">
	<ele>1390.40</ele>
	<time>2024-07-24T07:31:11.000Z</time>
</trkpt>
<trkpt lat="46.0199040" lon="10.4038640">
	<ele>1390.60</ele>
	<time>2024-07-24T07:31:12.000Z</time>
</trkpt>
<trkpt lat="46.0199070" lon="10.4038640">
	<ele>1390.60</ele>
	<time>2024-07-24T07:31:13.000Z</time>
</trkpt>
<trkpt lat="46.0199110" lon="10.4038640">
	<ele>1390.60</ele>
	<time>2024-07-24T07:31:14.000Z</time>
</trkpt>
<trkpt lat="46.0199150" lon="10.4038640">
	<ele>1390.60</ele>
	<time>2024-07-24T07:31:15.000Z</time>
</trkpt>
<trkpt lat="46.0199170" lon="10.4038640">
	<ele>1390.60</ele>
	<time>2024-07-24T07:31:16.000Z</time>
</trkpt>
<trkpt lat="46.0199190" lon="10.4038630">
	<ele>1390.60</ele>
	<time>2024-07-24T07:31:17.000Z</time>
</trkpt>
<trkpt lat="46.0199210" lon="10.4038630">
	<ele>1390.40</ele>
	<time>2024-07-24T07:31:18.000Z</time>
</trkpt>
<trkpt lat="46.0199210" lon="10.4038640">
	<ele>1390.40</ele>
	<time>2024-07-24T07:31:19.000Z</time>
</trkpt>
<trkpt lat="46.0199220" lon="10.4038640">
	<ele>1390.20</ele>
	<time>2024-07-24T07:31:20.000Z</time>
</trkpt>
<trkpt lat="46.0199220" lon="10.4038650">
	<ele>1390.20</ele>
	<time>2024-07-24T07:31:21.000Z</time>
</trkpt>
<trkpt lat="46.0199230" lon="10.4038660">
	<ele>1390.00</ele>
	<time>2024-07-24T07:31:22.000Z</time>
</trkpt>
<trkpt lat="46.0199240" lon="10.4038660">
	<ele>1390.00</ele>
	<time>2024-07-24T07:31:23.000Z</time>
</trkpt>
<trkpt lat="46.0199240" lon="10.4038660">
	<ele>1390.00</ele>
	<time>2024-07-24T07:31:24.000Z</time>
</trkpt>
<trkpt lat="46.0199240" lon="10.4038660">
	<ele>1390.00</ele>
	<time>2024-07-24T07:31:25.000Z</time>
</trkpt>
<trkpt lat="46.0199250" lon="10.4038660">
	<ele>1390.00</ele>
	<time>2024-07-24T07:31:26.000Z</time>
</trkpt>
<trkpt lat="46.0199270" lon="10.4038650">
	<ele>1390.00</ele>
	<time>2024-07-24T07:31:27.000Z</time>
</trkpt>
<trkpt lat="46.0199320" lon="10.4038640">
	<ele>1390.00</ele>
	<time>2024-07-24T07:31:28.000Z</time>
</trkpt>
<trkpt lat="46.0199370" lon="10.4038640">
	<ele>1390.00</ele>
	<time>2024-07-24T07:31:29.000Z</time>
</trkpt>
<trkpt lat="46.0199410" lon="10.4038640">
	<ele>1390.00</ele>
	<time>2024-07-24T07:31:30.000Z</time>
</trkpt>
<trkpt lat="46.0199440" lon="10.4038630">
	<ele>1389.80</ele>
	<time>2024-07-24T07:31:31.000Z</time>
</trkpt>
<trkpt lat="46.0199450" lon="10.4038630">
	<ele>1389.80</ele>
	<time>2024-07-24T07:31:32.000Z</time>
</trkpt>
<trkpt lat="46.0199460" lon="10.4038630">
	<ele>1389.80</ele>
	<time>2024-07-24T07:31:33.000Z</time>
</trkpt>
<trkpt lat="46.0199460" lon="10.4038630">
	<ele>1389.80</ele>
	<time>2024-07-24T07:31:34.000Z</time>
</trkpt>
<trkpt lat="46.0199460" lon="10.4038630">
	<ele>1389.80</ele>
	<time>2024-07-24T07:31:35.000Z</time>
</trkpt>
<trkpt lat="46.0199470" lon="10.4038640">
	<ele>1389.80</ele>
	<time>2024-07-24T07:31:36.000Z</time>
</trkpt>
<trkpt lat="46.0199470" lon="10.4038640">
	<ele>1389.80</ele>
	<time>2024-07-24T07:31:37.000Z</time>
</trkpt>
<trkpt lat="46.0199470" lon="10.4038650">
	<ele>1389.80</ele>
	<time>2024-07-24T07:31:38.000Z</time>
</trkpt>
<trkpt lat="46.0199470" lon="10.4038650">
	<ele>1389.80</ele>
	<time>2024-07-24T07:31:39.000Z</time>
</trkpt>
<trkpt lat="46.0199470" lon="10.4038650">
	<ele>1389.80</ele>
	<time>2024-07-24T07:31:40.000Z</time>
</trkpt>
<trkpt lat="46.0199470" lon="10.4038650">
	<ele>1389.80</ele>
	<time>2024-07-24T07:31:41.000Z</time>
</trkpt>
<trkpt lat="46.0199470" lon="10.4038650">
	<ele>1389.80</ele>
	<time>2024-07-24T07:31:42.000Z</time>
</trkpt>
<trkpt lat="46.0199470" lon="10.4038650">
	<ele>1389.80</ele>
	<time>2024-07-24T07:31:43.000Z</time>
</trkpt>
<trkpt lat="46.0199470" lon="10.4038650">
	<ele>1389.80</ele>
	<time>2024-07-24T07:31:44.000Z</time>
</trkpt>
<trkpt lat="46.0199480" lon="10.4038640">
	<ele>1389.80</ele>
	<time>2024-07-24T07:31:45.000Z</time>
</trkpt>
<trkpt lat="46.0199480" lon="10.4038630">
	<ele>1389.80</ele>
	<time>2024-07-24T07:31:46.000Z</time>
</trkpt>
<trkpt lat="46.0199480" lon="10.4038620">
	<ele>1389.80</ele>
	<time>2024-07-24T07:31:47.000Z</time>
</trkpt>
<trkpt lat="46.0199480" lon="10.4038610">
	<ele>1389.80</ele>
	<time>2024-07-24T07:31:48.000Z</time>
</trkpt>
<trkpt lat="46.0199480" lon="10.4038600">
	<ele>1389.80</ele>
	<time>2024-07-24T07:31:49.000Z</time>
</trkpt>
<trkpt lat="46.0199470" lon="10.4038600">
	<ele>1390.00</ele>
	<time>2024-07-24T07:31:50.000Z</time>
</trkpt>
<trkpt lat="46.0199460" lon="10.4038590">
	<ele>1390.00</ele>
	<time>2024-07-24T07:31:51.000Z</time>
</trkpt>
<trkpt lat="46.0199450" lon="10.4038590">
	<ele>1390.20</ele>
	<time>2024-07-24T07:31:52.000Z</time>
</trkpt>
<trkpt lat="46.0199440" lon="10.4038590">
	<ele>1390.40</ele>
	<time>2024-07-24T07:31:53.000Z</time>
</trkpt>
<trkpt lat="46.0199420" lon="10.4038580">
	<ele>1390.40</ele>
	<time>2024-07-24T07:31:54.000Z</time>
</trkpt>
<trkpt lat="46.0199400" lon="10.4038580">
	<ele>1390.40</ele>
	<time>2024-07-24T07:31:55.000Z</time>
</trkpt>
<trkpt lat="46.0199390" lon="10.4038580">
	<ele>1390.60</ele>
	<time>2024-07-24T07:31:56.000Z</time>
</trkpt>
<trkpt lat="46.0199380" lon="10.4038570">
	<ele>1390.40</ele>
	<time>2024-07-24T07:31:57.000Z</time>
</trkpt>
<trkpt lat="46.0199380" lon="10.4038540">
	<ele>1390.40</ele>
	<time>2024-07-24T07:31:58.000Z</time>
</trkpt>
<trkpt lat="46.0199370" lon="10.4038520">
	<ele>1390.00</ele>
	<time>2024-07-24T07:31:59.000Z</time>
</trkpt>
<trkpt lat="46.0199370" lon="10.4038500">
	<ele>1390.00</ele>
	<time>2024-07-24T07:32:00.000Z</time>
</trkpt>
<trkpt lat="46.0199370" lon="10.4038470">
	<ele>1390.00</ele>
	<time>2024-07-24T07:32:01.000Z</time>
</trkpt>
<trkpt lat="46.0199370" lon="10.4038430">
	<ele>1390.00</ele>
	<time>2024-07-24T07:32:02.000Z</time>
</trkpt>
<trkpt lat="46.0199370" lon="10.4038400">
	<ele>1390.20</ele>
	<time>2024-07-24T07:32:03.000Z</time>
</trkpt>
<trkpt lat="46.0199360" lon="10.4038370">
	<ele>1390.20</ele>
	<time>2024-07-24T07:32:04.000Z</time>
</trkpt>
<trkpt lat="46.0199360" lon="10.4038330">
	<ele>1390.20</ele>
	<time>2024-07-24T07:32:05.000Z</time>
</trkpt>
<trkpt lat="46.0199360" lon="10.4038290">
	<ele>1390.20</ele>
	<time>2024-07-24T07:32:06.000Z</time>
</trkpt>
<trkpt lat="46.0199360" lon="10.4038270">
	<ele>1390.20</ele>
	<time>2024-07-24T07:32:07.000Z</time>
</trkpt>
<trkpt lat="46.0199360" lon="10.4038240">
	<ele>1390.20</ele>
	<time>2024-07-24T07:32:08.000Z</time>
</trkpt>
<trkpt lat="46.0199360" lon="10.4038220">
	<ele>1390.20</ele>
	<time>2024-07-24T07:32:09.000Z</time>
</trkpt>
<trkpt lat="46.0199360" lon="10.4038210">
	<ele>1390.00</ele>
	<time>2024-07-24T07:32:10.000Z</time>
</trkpt>
<trkpt lat="46.0199360" lon="10.4038180">
	<ele>1390.00</ele>
	<time>2024-07-24T07:32:11.000Z</time>
</trkpt>
<trkpt lat="46.0199360" lon="10.4038170">
	<ele>1390.00</ele>
	<time>2024-07-24T07:32:12.000Z</time>
</trkpt>
<trkpt lat="46.0199360" lon="10.4038150">
	<ele>1390.00</ele>
	<time>2024-07-24T07:32:13.000Z</time>
</trkpt>
<trkpt lat="46.0199360" lon="10.4038140">
	<ele>1390.20</ele>
	<time>2024-07-24T07:32:14.000Z</time>
</trkpt>
<trkpt lat="46.0199350" lon="10.4038130">
	<ele>1390.20</ele>
	<time>2024-07-24T07:32:15.000Z</time>
</trkpt>
<trkpt lat="46.0199350" lon="10.4038120">
	<ele>1390.20</ele>
	<time>2024-07-24T07:32:16.000Z</time>
</trkpt>
<trkpt lat="46.0199350" lon="10.4038110">
	<ele>1390.20</ele>
	<time>2024-07-24T07:32:17.000Z</time>
</trkpt>
<trkpt lat="46.0199350" lon="10.4038100">
	<ele>1390.20</ele>
	<time>2024-07-24T07:32:18.000Z</time>
</trkpt>
<trkpt lat="46.0199350" lon="10.4038090">
	<ele>1390.20</ele>
	<time>2024-07-24T07:32:19.000Z</time>
</trkpt>
<trkpt lat="46.0199350" lon="10.4038090">
	<ele>1390.20</ele>
	<time>2024-07-24T07:32:20.000Z</time>
</trkpt>
<trkpt lat="46.0199350" lon="10.4038080">
	<ele>1390.00</ele>
	<time>2024-07-24T07:32:21.000Z</time>
</trkpt>
<trkpt lat="46.0199340" lon="10.4038080">
	<ele>1390.20</ele>
	<time>2024-07-24T07:32:22.000Z</time>
</trkpt>
<trkpt lat="46.0199340" lon="10.4038080">
	<ele>1390.20</ele>
	<time>2024-07-24T07:32:23.000Z</time>
</trkpt>
<trkpt lat="46.0199330" lon="10.4038080">
	<ele>1390.20</ele>
	<time>2024-07-24T07:32:24.000Z</time>
</trkpt>
<trkpt lat="46.0199330" lon="10.4038080">
	<ele>1390.20</ele>
	<time>2024-07-24T07:32:25.000Z</time>
</trkpt>
<trkpt lat="46.0199330" lon="10.4038080">
	<ele>1390.20</ele>
	<time>2024-07-24T07:32:26.000Z</time>
</trkpt>
<trkpt lat="46.0199320" lon="10.4038080">
	<ele>1390.20</ele>
	<time>2024-07-24T07:32:27.000Z</time>
</trkpt>
<trkpt lat="46.0199310" lon="10.4038090">
	<ele>1390.20</ele>
	<time>2024-07-24T07:32:28.000Z</time>
</trkpt>
<trkpt lat="46.0199300" lon="10.4038100">
	<ele>1390.20</ele>
	<time>2024-07-24T07:32:29.000Z</time>
</trkpt>
<trkpt lat="46.0199290" lon="10.4038100">
	<ele>1390.20</ele>
	<time>2024-07-24T07:32:30.000Z</time>
</trkpt>
<trkpt lat="46.0199280" lon="10.4038110">
	<ele>1390.00</ele>
	<time>2024-07-24T07:32:31.000Z</time>
</trkpt>
<trkpt lat="46.0199260" lon="10.4038110">
	<ele>1390.00</ele>
	<time>2024-07-24T07:32:32.000Z</time>
</trkpt>
<trkpt lat="46.0199240" lon="10.4038120">
	<ele>1390.00</ele>
	<time>2024-07-24T07:32:33.000Z</time>
</trkpt>
<trkpt lat="46.0199210" lon="10.4038120">
	<ele>1390.00</ele>
	<time>2024-07-24T07:32:34.000Z</time>
</trkpt>
<trkpt lat="46.0199190" lon="10.4038130">
	<ele>1390.00</ele>
	<time>2024-07-24T07:32:35.000Z</time>
</trkpt>
<trkpt lat="46.0199170" lon="10.4038130">
	<ele>1390.00</ele>
	<time>2024-07-24T07:32:36.000Z</time>
</trkpt>
<trkpt lat="46.0199150" lon="10.4038140">
	<ele>1390.00</ele>
	<time>2024-07-24T07:32:37.000Z</time>
</trkpt>
<trkpt lat="46.0199140" lon="10.4038140">
	<ele>1390.00</ele>
	<time>2024-07-24T07:32:38.000Z</time>
</trkpt>
<trkpt lat="46.0199120" lon="10.4038140">
	<ele>1390.00</ele>
	<time>2024-07-24T07:32:39.000Z</time>
</trkpt>
<trkpt lat="46.0199110" lon="10.4038150">
	<ele>1390.00</ele>
	<time>2024-07-24T07:32:40.000Z</time>
</trkpt>
<trkpt lat="46.0199100" lon="10.4038150">
	<ele>1390.00</ele>
	<time>2024-07-24T07:32:41.000Z</time>
</trkpt>
<trkpt lat="46.0199090" lon="10.4038150">
	<ele>1390.00</ele>
	<time>2024-07-24T07:32:42.000Z</time>
</trkpt>
<trkpt lat="46.0199090" lon="10.4038160">
	<ele>1389.80</ele>
	<time>2024-07-24T07:32:43.000Z</time>
</trkpt>
<trkpt lat="46.0199080" lon="10.4038160">
	<ele>1389.80</ele>
	<time>2024-07-24T07:32:44.000Z</time>
</trkpt>
<trkpt lat="46.0199080" lon="10.4038160">
	<ele>1389.60</ele>
	<time>2024-07-24T07:32:45.000Z</time>
</trkpt>
<trkpt lat="46.0199070" lon="10.4038160">
	<ele>1389.60</ele>
	<time>2024-07-24T07:32:46.000Z</time>
</trkpt>
<trkpt lat="46.0199070" lon="10.4038160">
	<ele>1389.40</ele>
	<time>2024-07-24T07:32:47.000Z</time>
</trkpt>
<trkpt lat="46.0199070" lon="10.4038170">
	<ele>1389.40</ele>
	<time>2024-07-24T07:32:48.000Z</time>
</trkpt>
<trkpt lat="46.0199060" lon="10.4038170">
	<ele>1389.40</ele>
	<time>2024-07-24T07:32:49.000Z</time>
</trkpt>
<trkpt lat="46.0199060" lon="10.4038170">
	<ele>1389.40</ele>
	<time>2024-07-24T07:32:50.000Z</time>
</trkpt>
<trkpt lat="46.0199060" lon="10.4038170">
	<ele>1389.40</ele>
	<time>2024-07-24T07:32:51.000Z</time>
</trkpt>
<trkpt lat="46.0199050" lon="10.4038180">
	<ele>1389.40</ele>
	<time>2024-07-24T07:32:52.000Z</time>
</trkpt>
<trkpt lat="46.0199050" lon="10.4038190">
	<ele>1389.40</ele>
	<time>2024-07-24T07:32:53.000Z</time>
</trkpt>
<trkpt lat="46.0199040" lon="10.4038190">
	<ele>1389.40</ele>
	<time>2024-07-24T07:32:54.000Z</time>
</trkpt>
<trkpt lat="46.0199040" lon="10.4038200">
	<ele>1389.40</ele>
	<time>2024-07-24T07:32:55.000Z</time>
</trkpt>
<trkpt lat="46.0199040" lon="10.4038200">
	<ele>1389.40</ele>
	<time>2024-07-24T07:32:56.000Z</time>
</trkpt>
<trkpt lat="46.0199040" lon="10.4038210">
	<ele>1389.40</ele>
	<time>2024-07-24T07:32:57.000Z</time>
</trkpt>
<trkpt lat="46.0199040" lon="10.4038210">
	<ele>1389.40</ele>
	<time>2024-07-24T07:32:58.000Z</time>
</trkpt>
<trkpt lat="46.0199040" lon="10.4038220">
	<ele>1389.40</ele>
	<time>2024-07-24T07:32:59.000Z</time>
</trkpt>
<trkpt lat="46.0199040" lon="10.4038220">
	<ele>1389.40</ele>
	<time>2024-07-24T07:33:00.000Z</time>
</trkpt>
<trkpt lat="46.0199050" lon="10.4038220">
	<ele>1389.40</ele>
	<time>2024-07-24T07:33:01.000Z</time>
</trkpt>
<trkpt lat="46.0199050" lon="10.4038230">
	<ele>1389.40</ele>
	<time>2024-07-24T07:33:02.000Z</time>
</trkpt>
<trkpt lat="46.0199050" lon="10.4038240">
	<ele>1389.40</ele>
	<time>2024-07-24T07:33:03.000Z</time>
</trkpt>
<trkpt lat="46.0199050" lon="10.4038240">
	<ele>1389.40</ele>
	<time>2024-07-24T07:33:04.000Z</time>
</trkpt>
<trkpt lat="46.0199040" lon="10.4038250">
	<ele>1389.40</ele>
	<time>2024-07-24T07:33:05.000Z</time>
</trkpt>
<trkpt lat="46.0199040" lon="10.4038250">
	<ele>1389.40</ele>
	<time>2024-07-24T07:33:06.000Z</time>
</trkpt>
<trkpt lat="46.0199050" lon="10.4038260">
	<ele>1389.40</ele>
	<time>2024-07-24T07:33:07.000Z</time>
</trkpt>
<trkpt lat="46.0199050" lon="10.4038260">
	<ele>1389.40</ele>
	<time>2024-07-24T07:33:08.000Z</time>
</trkpt>
<trkpt lat="46.0199050" lon="10.4038260">
	<ele>1389.40</ele>
	<time>2024-07-24T07:33:09.000Z</time>
</trkpt>
<trkpt lat="46.0199050" lon="10.4038260">
	<ele>1389.40</ele>
	<time>2024-07-24T07:33:10.000Z</time>
</trkpt>
<trkpt lat="46.0199060" lon="10.4038260">
	<ele>1389.40</ele>
	<time>2024-07-24T07:33:11.000Z</time>
</trkpt>
<trkpt lat="46.0199060" lon="10.4038260">
	<ele>1389.40</ele>
	<time>2024-07-24T07:33:12.000Z</time>
</trkpt>
<trkpt lat="46.0199060" lon="10.4038260">
	<ele>1389.40</ele>
	<time>2024-07-24T07:33:13.000Z</time>
</trkpt>
<trkpt lat="46.0199060" lon="10.4038270">
	<ele>1389.40</ele>
	<time>2024-07-24T07:33:14.000Z</time>
</trkpt>
<trkpt lat="46.0199070" lon="10.4038270">
	<ele>1389.40</ele>
	<time>2024-07-24T07:33:15.000Z</time>
</trkpt>
<trkpt lat="46.0199070" lon="10.4038270">
	<ele>1389.40</ele>
	<time>2024-07-24T07:33:16.000Z</time>
</trkpt>
<trkpt lat="46.0199080" lon="10.4038270">
	<ele>1389.40</ele>
	<time>2024-07-24T07:33:17.000Z</time>
</trkpt>
<trkpt lat="46.0199080" lon="10.4038270">
	<ele>1389.40</ele>
	<time>2024-07-24T07:33:18.000Z</time>
</trkpt>
<trkpt lat="46.0199080" lon="10.4038270">
	<ele>1389.40</ele>
	<time>2024-07-24T07:33:19.000Z</time>
</trkpt>
<trkpt lat="46.0199080" lon="10.4038270">
	<ele>1389.40</ele>
	<time>2024-07-24T07:33:20.000Z</time>
</trkpt>
<trkpt lat="46.0199090" lon="10.4038260">
	<ele>1389.40</ele>
	<time>2024-07-24T07:33:21.000Z</time>
</trkpt>
<trkpt lat="46.0199090" lon="10.4038260">
	<ele>1389.40</ele>
	<time>2024-07-24T07:33:22.000Z</time>
</trkpt>
<trkpt lat="46.0199090" lon="10.4038260">
	<ele>1389.40</ele>
	<time>2024-07-24T07:33:23.000Z</time>
</trkpt>
<trkpt lat="46.0199100" lon="10.4038250">
	<ele>1389.40</ele>
	<time>2024-07-24T07:33:24.000Z</time>
</trkpt>
<trkpt lat="46.0199090" lon="10.4038260">
	<ele>1389.40</ele>
	<time>2024-07-24T07:33:25.000Z</time>
</trkpt>
<trkpt lat="46.0199090" lon="10.4038260">
	<ele>1389.40</ele>
	<time>2024-07-24T07:33:26.000Z</time>
</trkpt>
<trkpt lat="46.0199090" lon="10.4038280">
	<ele>1389.40</ele>
	<time>2024-07-24T07:33:27.000Z</time>
</trkpt>
<trkpt lat="46.0199090" lon="10.4038280">
	<ele>1389.40</ele>
	<time>2024-07-24T07:33:28.000Z</time>
</trkpt>
<trkpt lat="46.0199080" lon="10.4038290">
	<ele>1389.40</ele>
	<time>2024-07-24T07:33:29.000Z</time>
</trkpt>
<trkpt lat="46.0199080" lon="10.4038280">
	<ele>1389.40</ele>
	<time>2024-07-24T07:33:30.000Z</time>
</trkpt>
<trkpt lat="46.0199080" lon="10.4038280">
	<ele>1389.40</ele>
	<time>2024-07-24T07:33:31.000Z</time>
</trkpt>
<trkpt lat="46.0199130" lon="10.4038310">
	<ele>1389.40</ele>
	<time>2024-07-24T07:33:32.000Z</time>
</trkpt>
<trkpt lat="46.0199160" lon="10.4038360">
	<ele>1389.40</ele>
	<time>2024-07-24T07:33:33.000Z</time>
</trkpt>
<trkpt lat="46.0199230" lon="10.4038350">
	<ele>1389.40</ele>
	<time>2024-07-24T07:33:34.000Z</time>
</trkpt>
<trkpt lat="46.0199250" lon="10.4038370">
	<ele>1389.40</ele>
	<time>2024-07-24T07:33:35.000Z</time>
</trkpt>
<trkpt lat="46.0199260" lon="10.4038380">
	<ele>1389.40</ele>
	<time>2024-07-24T07:33:36.000Z</time>
</trkpt>
<trkpt lat="46.0199330" lon="10.4038420">
	<ele>1389.40</ele>
	<time>2024-07-24T07:33:37.000Z</time>
</trkpt>
<trkpt lat="46.0199390" lon="10.4038450">
	<ele>1389.40</ele>
	<time>2024-07-24T07:33:38.000Z</time>
</trkpt>
<trkpt lat="46.0199440" lon="10.4038460">
	<ele>1389.40</ele>
	<time>2024-07-24T07:33:39.000Z</time>
</trkpt>
<trkpt lat="46.0199460" lon="10.4038520">
	<ele>1389.40</ele>
	<time>2024-07-24T07:33:40.000Z</time>
</trkpt>
<trkpt lat="46.0199460" lon="10.4038520">
	<ele>1389.40</ele>
	<time>2024-07-24T07:33:41.000Z</time>
</trkpt>
<trkpt lat="46.0199460" lon="10.4038530">
	<ele>1389.40</ele>
	<time>2024-07-24T07:33:42.000Z</time>
</trkpt>
<trkpt lat="46.0199450" lon="10.4038540">
	<ele>1389.40</ele>
	<time>2024-07-24T07:33:43.000Z</time>
</trkpt>
<trkpt lat="46.0199420" lon="10.4038540">
	<ele>1389.40</ele>
	<time>2024-07-24T07:33:44.000Z</time>
</trkpt>
<trkpt lat="46.0199390" lon="10.4038550">
	<ele>1389.40</ele>
	<time>2024-07-24T07:33:45.000Z</time>
</trkpt>
<trkpt lat="46.0199370" lon="10.4038560">
	<ele>1389.40</ele>
	<time>2024-07-24T07:33:46.000Z</time>
</trkpt>
<trkpt lat="46.0199400" lon="10.4038620">
	<ele>1389.40</ele>
	<time>2024-07-24T07:33:47.000Z</time>
</trkpt>
<trkpt lat="46.0199440" lon="10.4038660">
	<ele>1389.40</ele>
	<time>2024-07-24T07:33:48.000Z</time>
</trkpt>
<trkpt lat="46.0199400" lon="10.4038690">
	<ele>1389.40</ele>
	<time>2024-07-24T07:33:49.000Z</time>
</trkpt>
<trkpt lat="46.0199370" lon="10.4038740">
	<ele>1389.40</ele>
	<time>2024-07-24T07:33:50.000Z</time>
</trkpt>
<trkpt lat="46.0199300" lon="10.4038790">
	<ele>1389.40</ele>
	<time>2024-07-24T07:33:52.000Z</time>
</trkpt>
<trkpt lat="46.0199300" lon="10.4038750">
	<ele>1389.40</ele>
	<time>2024-07-24T07:33:53.000Z</time>
</trkpt>
<trkpt lat="46.0199330" lon="10.4038710">
	<ele>1389.40</ele>
	<time>2024-07-24T07:33:56.000Z</time>
</trkpt>
<trkpt lat="46.0199330" lon="10.4038700">
	<ele>1389.40</ele>
	<time>2024-07-24T07:33:57.000Z</time>
</trkpt>
<trkpt lat="46.0199320" lon="10.4038740">
	<ele>1389.40</ele>
	<time>2024-07-24T07:33:58.000Z</time>
</trkpt>
<trkpt lat="46.0199310" lon="10.4038760">
	<ele>1389.40</ele>
	<time>2024-07-24T07:33:59.000Z</time>
</trkpt>
<trkpt lat="46.0199290" lon="10.4038770">
	<ele>1389.40</ele>
	<time>2024-07-24T07:34:00.000Z</time>
</trkpt>
<trkpt lat="46.0199290" lon="10.4038770">
	<ele>1389.40</ele>
	<time>2024-07-24T07:34:01.000Z</time>
</trkpt>
<trkpt lat="46.0199290" lon="10.4038770">
	<ele>1389.40</ele>
	<time>2024-07-24T07:34:02.000Z</time>
</trkpt>
<trkpt lat="46.0199290" lon="10.4038770">
	<ele>1389.40</ele>
	<time>2024-07-24T07:34:03.000Z</time>
</trkpt>
<trkpt lat="46.0199290" lon="10.4038770">
	<ele>1389.40</ele>
	<time>2024-07-24T07:34:04.000Z</time>
</trkpt>
<trkpt lat="46.0199290" lon="10.4038770">
	<ele>1389.40</ele>
	<time>2024-07-24T07:34:05.000Z</time>
</trkpt>
<trkpt lat="46.0199290" lon="10.4038770">
	<ele>1389.40</ele>
	<time>2024-07-24T07:34:06.000Z</time>
</trkpt>
<trkpt lat="46.0199290" lon="10.4038770">
	<ele>1389.40</ele>
	<time>2024-07-24T07:34:07.000Z</time>
</trkpt>
<trkpt lat="46.0199290" lon="10.4038770">
	<ele>1389.40</ele>
	<time>2024-07-24T07:34:08.000Z</time>
</trkpt>
<trkpt lat="46.0199290" lon="10.4038770">
	<ele>1389.40</ele>
	<time>2024-07-24T07:34:09.000Z</time>
</trkpt>
<trkpt lat="46.0199290" lon="10.4038770">
	<ele>1389.40</ele>
	<time>2024-07-24T07:34:10.000Z</time>
</trkpt>
<trkpt lat="46.0199290" lon="10.4038770">
	<ele>1389.40</ele>
	<time>2024-07-24T07:34:11.000Z</time>
</trkpt>
<trkpt lat="46.0199280" lon="10.4038790">
	<ele>1389.40</ele>
	<time>2024-07-24T07:34:12.000Z</time>
</trkpt>
<trkpt lat="46.0199240" lon="10.4038870">
	<ele>1389.40</ele>
	<time>2024-07-24T07:34:13.000Z</time>
</trkpt>
<trkpt lat="46.0199200" lon="10.4038990">
	<ele>1389.40</ele>
	<time>2024-07-24T07:34:14.000Z</time>
</trkpt>
<trkpt lat="46.0199170" lon="10.4039120">
	<ele>1389.40</ele>
	<time>2024-07-24T07:34:15.000Z</time>
</trkpt>
<trkpt lat="46.0199190" lon="10.4039180">
	<ele>1389.40</ele>
	<time>2024-07-24T07:34:16.000Z</time>
</trkpt>
<trkpt lat="46.0199190" lon="10.4039290">
	<ele>1389.40</ele>
	<time>2024-07-24T07:34:17.000Z</time>
</trkpt>
<trkpt lat="46.0199150" lon="10.4039380">
	<ele>1389.40</ele>
	<time>2024-07-24T07:34:18.000Z</time>
</trkpt>
<trkpt lat="46.0199130" lon="10.4039440">
	<ele>1389.40</ele>
	<time>2024-07-24T07:34:19.000Z</time>
</trkpt>
<trkpt lat="46.0199090" lon="10.4039610">
	<ele>1389.40</ele>
	<time>2024-07-24T07:34:20.000Z</time>
</trkpt>
<trkpt lat="46.0199080" lon="10.4039810">
	<ele>1389.40</ele>
	<time>2024-07-24T07:34:21.000Z</time>
</trkpt>
<trkpt lat="46.0199070" lon="10.4039900">
	<ele>1389.40</ele>
	<time>2024-07-24T07:34:22.000Z</time>
</trkpt>
<trkpt lat="46.0199060" lon="10.4039920">
	<ele>1389.40</ele>
	<time>2024-07-24T07:34:23.000Z</time>
</trkpt>
<trkpt lat="46.0199090" lon="10.4039980">
	<ele>1389.40</ele>
	<time>2024-07-24T07:34:25.000Z</time>
</trkpt>
<trkpt lat="46.0199090" lon="10.4039990">
	<ele>1389.40</ele>
	<time>2024-07-24T07:34:26.000Z</time>
</trkpt>
<trkpt lat="46.0199070" lon="10.4040000">
	<ele>1389.40</ele>
	<time>2024-07-24T07:34:27.000Z</time>
</trkpt>
<trkpt lat="46.0199050" lon="10.4039970">
	<ele>1389.40</ele>
	<time>2024-07-24T07:34:28.000Z</time>
</trkpt>
<trkpt lat="46.0199090" lon="10.4039930">
	<ele>1389.40</ele>
	<time>2024-07-24T07:34:29.000Z</time>
</trkpt>
<trkpt lat="46.0199120" lon="10.4039920">
	<ele>1389.40</ele>
	<time>2024-07-24T07:34:30.000Z</time>
</trkpt>
<trkpt lat="46.0199150" lon="10.4039840">
	<ele>1389.40</ele>
	<time>2024-07-24T07:34:31.000Z</time>
</trkpt>
<trkpt lat="46.0199150" lon="10.4039760">
	<ele>1389.40</ele>
	<time>2024-07-24T07:34:32.000Z</time>
</trkpt>
<trkpt lat="46.0199170" lon="10.4039750">
	<ele>1389.40</ele>
	<time>2024-07-24T07:34:33.000Z</time>
</trkpt>
<trkpt lat="46.0199150" lon="10.4039750">
	<ele>1389.40</ele>
	<time>2024-07-24T07:34:34.000Z</time>
</trkpt>
<trkpt lat="46.0199140" lon="10.4039780">
	<ele>1389.40</ele>
	<time>2024-07-24T07:34:35.000Z</time>
</trkpt>
<trkpt lat="46.0199160" lon="10.4039760">
	<ele>1389.40</ele>
	<time>2024-07-24T07:34:36.000Z</time>
</trkpt>
<trkpt lat="46.0199170" lon="10.4039690">
	<ele>1389.40</ele>
	<time>2024-07-24T07:34:37.000Z</time>
</trkpt>
<trkpt lat="46.0199240" lon="10.4039630">
	<ele>1389.40</ele>
	<time>2024-07-24T07:34:38.000Z</time>
</trkpt>
<trkpt lat="46.0199280" lon="10.4039550">
	<ele>1389.40</ele>
	<time>2024-07-24T07:34:39.000Z</time>
</trkpt>
<trkpt lat="46.0199330" lon="10.4039470">
	<ele>1389.40</ele>
	<time>2024-07-24T07:34:40.000Z</time>
</trkpt>
<trkpt lat="46.0199320" lon="10.4039370">
	<ele>1389.40</ele>
	<time>2024-07-24T07:34:41.000Z</time>
</trkpt>
<trkpt lat="46.0199230" lon="10.4039340">
	<ele>1389.40</ele>
	<time>2024-07-24T07:34:42.000Z</time>
</trkpt>
<trkpt lat="46.0199230" lon="10.4039300">
	<ele>1389.40</ele>
	<time>2024-07-24T07:34:43.000Z</time>
</trkpt>
<trkpt lat="46.0199210" lon="10.4039240">
	<ele>1389.40</ele>
	<time>2024-07-24T07:34:44.000Z</time>
</trkpt>
<trkpt lat="46.0199140" lon="10.4039190">
	<ele>1389.40</ele>
	<time>2024-07-24T07:34:45.000Z</time>
</trkpt>
<trkpt lat="46.0199180" lon="10.4039220">
	<ele>1389.40</ele>
	<time>2024-07-24T07:34:46.000Z</time>
</trkpt>
<trkpt lat="46.0199150" lon="10.4039170">
	<ele>1389.40</ele>
	<time>2024-07-24T07:34:47.000Z</time>
</trkpt>
<trkpt lat="46.0199150" lon="10.4039170">
	<ele>1389.40</ele>
	<time>2024-07-24T07:34:48.000Z</time>
</trkpt>
<trkpt lat="46.0199150" lon="10.4039170">
	<ele>1389.40</ele>
	<time>2024-07-24T07:34:49.000Z</time>
</trkpt>
<trkpt lat="46.0199150" lon="10.4039170">
	<ele>1389.40</ele>
	<time>2024-07-24T07:34:50.000Z</time>
</trkpt>
<trkpt lat="46.0199150" lon="10.4039170">
	<ele>1389.40</ele>
	<time>2024-07-24T07:34:51.000Z</time>
</trkpt>
<trkpt lat="46.0199150" lon="10.4039170">
	<ele>1389.40</ele>
	<time>2024-07-24T07:34:52.000Z</time>
</trkpt>
<trkpt lat="46.0199150" lon="10.4039170">
	<ele>1389.40</ele>
	<time>2024-07-24T07:34:53.000Z</time>
</trkpt>
<trkpt lat="46.0199150" lon="10.4039170">
	<ele>1389.40</ele>
	<time>2024-07-24T07:34:54.000Z</time>
</trkpt>
<trkpt lat="46.0199150" lon="10.4039170">
	<ele>1389.40</ele>
	<time>2024-07-24T07:34:55.000Z</time>
</trkpt>
<trkpt lat="46.0199190" lon="10.4039090">
	<ele>1389.40</ele>
	<time>2024-07-24T07:34:56.000Z</time>
</trkpt>
<trkpt lat="46.0199310" lon="10.4038970">
	<ele>1389.40</ele>
	<time>2024-07-24T07:34:57.000Z</time>
</trkpt>
<trkpt lat="46.0199450" lon="10.4038860">
	<ele>1389.40</ele>
	<time>2024-07-24T07:34:58.000Z</time>
</trkpt>
<trkpt lat="46.0199640" lon="10.4038760">
	<ele>1389.40</ele>
	<time>2024-07-24T07:34:59.000Z</time>
</trkpt>
<trkpt lat="46.0199800" lon="10.4038660">
	<ele>1389.40</ele>
	<time>2024-07-24T07:35:00.000Z</time>
</trkpt>
<trkpt lat="46.0199890" lon="10.4038550">
	<ele>1389.40</ele>
	<time>2024-07-24T07:35:01.000Z</time>
</trkpt>
<trkpt lat="46.0199900" lon="10.4038470">
	<ele>1389.40</ele>
	<time>2024-07-24T07:35:02.000Z</time>
</trkpt>
<trkpt lat="46.0200000" lon="10.4038290">
	<ele>1389.40</ele>
	<time>2024-07-24T07:35:03.000Z</time>
</trkpt>
<trkpt lat="46.0200100" lon="10.4038120">
	<ele>1389.40</ele>
	<time>2024-07-24T07:35:04.000Z</time>
</trkpt>
<trkpt lat="46.0200200" lon="10.4037990">
	<ele>1389.40</ele>
	<time>2024-07-24T07:35:05.000Z</time>
</trkpt>
<trkpt lat="46.0200350" lon="10.4038030">
	<ele>1389.40</ele>
	<time>2024-07-24T07:35:06.000Z</time>
</trkpt>
<trkpt lat="46.0200550" lon="10.4037990">
	<ele>1389.20</ele>
	<time>2024-07-24T07:35:07.000Z</time>
</trkpt>
<trkpt lat="46.0200700" lon="10.4037960">
	<ele>1389.00</ele>
	<time>2024-07-24T07:35:08.000Z</time>
</trkpt>
<trkpt lat="46.0200850" lon="10.4037920">
	<ele>1388.60</ele>
	<time>2024-07-24T07:35:09.000Z</time>
</trkpt>
<trkpt lat="46.0201010" lon="10.4037870">
	<ele>1388.40</ele>
	<time>2024-07-24T07:35:10.000Z</time>
</trkpt>
<trkpt lat="46.0201130" lon="10.4037790">
	<ele>1388.20</ele>
	<time>2024-07-24T07:35:11.000Z</time>
</trkpt>
<trkpt lat="46.0201210" lon="10.4037720">
	<ele>1388.20</ele>
	<time>2024-07-24T07:35:12.000Z</time>
</trkpt>
<trkpt lat="46.0201310" lon="10.4037630">
	<ele>1388.20</ele>
	<time>2024-07-24T07:35:13.000Z</time>
</trkpt>
<trkpt lat="46.0201420" lon="10.4037520">
	<ele>1388.00</ele>
	<time>2024-07-24T07:35:14.000Z</time>
</trkpt>
<trkpt lat="46.0201510" lon="10.4037390">
	<ele>1388.00</ele>
	<time>2024-07-24T07:35:15.000Z</time>
</trkpt>
<trkpt lat="46.0201610" lon="10.4037340">
	<ele>1388.00</ele>
	<time>2024-07-24T07:35:16.000Z</time>
</trkpt>
<trkpt lat="46.0201700" lon="10.4037320">
	<ele>1387.80</ele>
	<time>2024-07-24T07:35:17.000Z</time>
</trkpt>
<trkpt lat="46.0201810" lon="10.4037290">
	<ele>1387.80</ele>
	<time>2024-07-24T07:35:18.000Z</time>
</trkpt>
<trkpt lat="46.0201910" lon="10.4037270">
	<ele>1387.60</ele>
	<time>2024-07-24T07:35:19.000Z</time>
</trkpt>
<trkpt lat="46.0202010" lon="10.4037260">
	<ele>1387.60</ele>
	<time>2024-07-24T07:35:20.000Z</time>
</trkpt>
<trkpt lat="46.0202120" lon="10.4037260">
	<ele>1387.40</ele>
	<time>2024-07-24T07:35:21.000Z</time>
</trkpt>
<trkpt lat="46.0202230" lon="10.4037280">
	<ele>1387.40</ele>
	<time>2024-07-24T07:35:22.000Z</time>
</trkpt>
<trkpt lat="46.0202320" lon="10.4037230">
	<ele>1387.40</ele>
	<time>2024-07-24T07:35:23.000Z</time>
</trkpt>
<trkpt lat="46.0202430" lon="10.4037270">
	<ele>1387.20</ele>
	<time>2024-07-24T07:35:24.000Z</time>
</trkpt>
<trkpt lat="46.0202530" lon="10.4037260">
	<ele>1387.20</ele>
	<time>2024-07-24T07:35:25.000Z</time>
</trkpt>
<trkpt lat="46.0202630" lon="10.4037260">
	<ele>1387.20</ele>
	<time>2024-07-24T07:35:26.000Z</time>
</trkpt>
<trkpt lat="46.0202760" lon="10.4037240">
	<ele>1387.00</ele>
	<time>2024-07-24T07:35:27.000Z</time>
</trkpt>
<trkpt lat="46.0202880" lon="10.4037230">
	<ele>1387.00</ele>
	<time>2024-07-24T07:35:28.000Z</time>
</trkpt>
<trkpt lat="46.0203000" lon="10.4037240">
	<ele>1386.80</ele>
	<time>2024-07-24T07:35:29.000Z</time>
</trkpt>
<trkpt lat="46.0203120" lon="10.4037260">
	<ele>1386.80</ele>
	<time>2024-07-24T07:35:30.000Z</time>
</trkpt>
<trkpt lat="46.0203210" lon="10.4037290">
	<ele>1386.80</ele>
	<time>2024-07-24T07:35:31.000Z</time>
</trkpt>
<trkpt lat="46.0203250" lon="10.4037330">
	<ele>1386.80</ele>
	<time>2024-07-24T07:35:32.000Z</time>
</trkpt>
<trkpt lat="46.0203300" lon="10.4037380">
	<ele>1386.80</ele>
	<time>2024-07-24T07:35:33.000Z</time>
</trkpt>
<trkpt lat="46.0203400" lon="10.4037400">
	<ele>1386.80</ele>
	<time>2024-07-24T07:35:34.000Z</time>
</trkpt>
<trkpt lat="46.0203460" lon="10.4037430">
	<ele>1386.60</ele>
	<time>2024-07-24T07:35:35.000Z</time>
</trkpt>
<trkpt lat="46.0203460" lon="10.4037490">
	<ele>1386.60</ele>
	<time>2024-07-24T07:35:36.000Z</time>
</trkpt>
<trkpt lat="46.0203480" lon="10.4037530">
	<ele>1386.40</ele>
	<time>2024-07-24T07:35:37.000Z</time>
</trkpt>
<trkpt lat="46.0203490" lon="10.4037530">
	<ele>1386.40</ele>
	<time>2024-07-24T07:35:38.000Z</time>
</trkpt>
<trkpt lat="46.0203520" lon="10.4037490">
	<ele>1386.40</ele>
	<time>2024-07-24T07:35:39.000Z</time>
</trkpt>
<trkpt lat="46.0203550" lon="10.4037490">
	<ele>1386.60</ele>
	<time>2024-07-24T07:35:40.000Z</time>
</trkpt>
<trkpt lat="46.0203620" lon="10.4037450">
	<ele>1386.60</ele>
	<time>2024-07-24T07:35:41.000Z</time>
</trkpt>
<trkpt lat="46.0203670" lon="10.4037440">
	<ele>1386.60</ele>
	<time>2024-07-24T07:35:42.000Z</time>
</trkpt>
<trkpt lat="46.0203700" lon="10.4037410">
	<ele>1386.60</ele>
	<time>2024-07-24T07:35:43.000Z</time>
</trkpt>
<trkpt lat="46.0203710" lon="10.4037290">
	<ele>1386.60</ele>
	<time>2024-07-24T07:35:44.000Z</time>
</trkpt>
<trkpt lat="46.0203710" lon="10.4037230">
	<ele>1386.60</ele>
	<time>2024-07-24T07:35:45.000Z</time>
</trkpt>
<trkpt lat="46.0203700" lon="10.4037210">
	<ele>1386.60</ele>
	<time>2024-07-24T07:35:46.000Z</time>
</trkpt>
<trkpt lat="46.0203710" lon="10.4037150">
	<ele>1386.60</ele>
	<time>2024-07-24T07:35:47.000Z</time>
</trkpt>
<trkpt lat="46.0203740" lon="10.4037160">
	<ele>1386.80</ele>
	<time>2024-07-24T07:35:48.000Z</time>
</trkpt>
<trkpt lat="46.0203740" lon="10.4037160">
	<ele>1386.80</ele>
	<time>2024-07-24T07:35:49.000Z</time>
</trkpt>
<trkpt lat="46.0203740" lon="10.4037160">
	<ele>1386.60</ele>
	<time>2024-07-24T07:35:50.000Z</time>
</trkpt>
<trkpt lat="46.0203740" lon="10.4037160">
	<ele>1386.60</ele>
	<time>2024-07-24T07:35:51.000Z</time>
</trkpt>
<trkpt lat="46.0203740" lon="10.4037160">
	<ele>1386.80</ele>
	<time>2024-07-24T07:35:52.000Z</time>
</trkpt>
<trkpt lat="46.0203740" lon="10.4037160">
	<ele>1386.80</ele>
	<time>2024-07-24T07:35:53.000Z</time>
</trkpt>
<trkpt lat="46.0203740" lon="10.4037160">
	<ele>1386.80</ele>
	<time>2024-07-24T07:35:54.000Z</time>
</trkpt>
<trkpt lat="46.0203740" lon="10.4037160">
	<ele>1386.60</ele>
	<time>2024-07-24T07:35:55.000Z</time>
</trkpt>
<trkpt lat="46.0203740" lon="10.4037160">
	<ele>1386.60</ele>
	<time>2024-07-24T07:35:56.000Z</time>
</trkpt>
<trkpt lat="46.0203740" lon="10.4037160">
	<ele>1386.60</ele>
	<time>2024-07-24T07:35:57.000Z</time>
</trkpt>
<trkpt lat="46.0203740" lon="10.4037160">
	<ele>1386.60</ele>
	<time>2024-07-24T07:35:58.000Z</time>
</trkpt>
<trkpt lat="46.0203740" lon="10.4037160">
	<ele>1386.60</ele>
	<time>2024-07-24T07:35:59.000Z</time>
</trkpt>
<trkpt lat="46.0203740" lon="10.4037160">
	<ele>1386.60</ele>
	<time>2024-07-24T07:36:00.000Z</time>
</trkpt>
<trkpt lat="46.0203740" lon="10.4037160">
	<ele>1386.60</ele>
	<time>2024-07-24T07:36:01.000Z</time>
</trkpt>
<trkpt lat="46.0203740" lon="10.4037160">
	<ele>1386.60</ele>
	<time>2024-07-24T07:36:02.000Z</time>
</trkpt>
<trkpt lat="46.0203740" lon="10.4037160">
	<ele>1386.60</ele>
	<time>2024-07-24T07:36:03.000Z</time>
</trkpt>
<trkpt lat="46.0203740" lon="10.4037170">
	<ele>1386.80</ele>
	<time>2024-07-24T07:36:04.000Z</time>
</trkpt>
<trkpt lat="46.0203740" lon="10.4037170">
	<ele>1386.80</ele>
	<time>2024-07-24T07:36:05.000Z</time>
</trkpt>
<trkpt lat="46.0203700" lon="10.4037220">
	<ele>1386.80</ele>
	<time>2024-07-24T07:36:06.000Z</time>
</trkpt>
<trkpt lat="46.0203580" lon="10.4037340">
	<ele>1387.00</ele>
	<time>2024-07-24T07:36:07.000Z</time>
</trkpt>
<trkpt lat="46.0203480" lon="10.4037460">
	<ele>1387.00</ele>
	<time>2024-07-24T07:36:08.000Z</time>
</trkpt>
<trkpt lat="46.0203370" lon="10.4037590">
	<ele>1387.20</ele>
	<time>2024-07-24T07:36:09.000Z</time>
</trkpt>
<trkpt lat="46.0203280" lon="10.4037700">
	<ele>1387.20</ele>
	<time>2024-07-24T07:36:10.000Z</time>
</trkpt>
<trkpt lat="46.0203180" lon="10.4037830">
	<ele>1387.40</ele>
	<time>2024-07-24T07:36:11.000Z</time>
</trkpt>
<trkpt lat="46.0203080" lon="10.4038000">
	<ele>1387.60</ele>
	<time>2024-07-24T07:36:12.000Z</time>
</trkpt>
<trkpt lat="46.0203010" lon="10.4038170">
	<ele>1387.80</ele>
	<time>2024-07-24T07:36:13.000Z</time>
</trkpt>
<trkpt lat="46.0202930" lon="10.4038370">
	<ele>1388.00</ele>
	<time>2024-07-24T07:36:14.000Z</time>
</trkpt>
<trkpt lat="46.0202840" lon="10.4038550">
	<ele>1388.20</ele>
	<time>2024-07-24T07:36:15.000Z</time>
</trkpt>
<trkpt lat="46.0202790" lon="10.4038690">
	<ele>1388.40</ele>
	<time>2024-07-24T07:36:16.000Z</time>
</trkpt>
<trkpt lat="46.0202750" lon="10.4038780">
	<ele>1388.60</ele>
	<time>2024-07-24T07:36:17.000Z</time>
</trkpt>
<trkpt lat="46.0202740" lon="10.4038800">
	<ele>1388.80</ele>
	<time>2024-07-24T07:36:18.000Z</time>
</trkpt>
<trkpt lat="46.0202700" lon="10.4038890">
	<ele>1388.80</ele>
	<time>2024-07-24T07:36:19.000Z</time>
</trkpt>
<trkpt lat="46.0202660" lon="10.4039020">
	<ele>1389.00</ele>
	<time>2024-07-24T07:36:20.000Z</time>
</trkpt>
<trkpt lat="46.0202620" lon="10.4039140">
	<ele>1389.00</ele>
	<time>2024-07-24T07:36:21.000Z</time>
</trkpt>
<trkpt lat="46.0202570" lon="10.4039260">
	<ele>1389.20</ele>
	<time>2024-07-24T07:36:22.000Z</time>
</trkpt>
<trkpt lat="46.0202530" lon="10.4039390">
	<ele>1389.20</ele>
	<time>2024-07-24T07:36:23.000Z</time>
</trkpt>
<trkpt lat="46.0202460" lon="10.4039510">
	<ele>1389.40</ele>
	<time>2024-07-24T07:36:24.000Z</time>
</trkpt>
<trkpt lat="46.0202360" lon="10.4039610">
	<ele>1389.60</ele>
	<time>2024-07-24T07:36:25.000Z</time>
</trkpt>
<trkpt lat="46.0202260" lon="10.4039730">
	<ele>1389.80</ele>
	<time>2024-07-24T07:36:26.000Z</time>
</trkpt>
<trkpt lat="46.0202170" lon="10.4039840">
	<ele>1389.80</ele>
	<time>2024-07-24T07:36:27.000Z</time>
</trkpt>
<trkpt lat="46.0202090" lon="10.4039940">
	<ele>1390.00</ele>
	<time>2024-07-24T07:36:28.000Z</time>
</trkpt>
<trkpt lat="46.0202040" lon="10.4040030">
	<ele>1390.20</ele>
	<time>2024-07-24T07:36:29.000Z</time>
</trkpt>
<trkpt lat="46.0201990" lon="10.4040140">
	<ele>1390.20</ele>
	<time>2024-07-24T07:36:30.000Z</time>
</trkpt>
<trkpt lat="46.0201950" lon="10.4040250">
	<ele>1390.40</ele>
	<time>2024-07-24T07:36:31.000Z</time>
</trkpt>
<trkpt lat="46.0201910" lon="10.4040400">
	<ele>1390.40</ele>
	<time>2024-07-24T07:36:32.000Z</time>
</trkpt>
<trkpt lat="46.0201870" lon="10.4040510">
	<ele>1390.60</ele>
	<time>2024-07-24T07:36:33.000Z</time>
</trkpt>
<trkpt lat="46.0201830" lon="10.4040530">
	<ele>1390.80</ele>
	<time>2024-07-24T07:36:34.000Z</time>
</trkpt>
<trkpt lat="46.0201770" lon="10.4040550">
	<ele>1390.80</ele>
	<time>2024-07-24T07:36:35.000Z</time>
</trkpt>
<trkpt lat="46.0201730" lon="10.4040620">
	<ele>1391.00</ele>
	<time>2024-07-24T07:36:36.000Z</time>
</trkpt>
<trkpt lat="46.0201700" lon="10.4040710">
	<ele>1391.20</ele>
	<time>2024-07-24T07:36:37.000Z</time>
</trkpt>
<trkpt lat="46.0201690" lon="10.4040810">
	<ele>1391.40</ele>
	<time>2024-07-24T07:36:38.000Z</time>
</trkpt>
<trkpt lat="46.0201660" lon="10.4040910">
	<ele>1391.40</ele>
	<time>2024-07-24T07:36:39.000Z</time>
</trkpt>
<trkpt lat="46.0201590" lon="10.4040990">
	<ele>1391.60</ele>
	<time>2024-07-24T07:36:40.000Z</time>
</trkpt>
<trkpt lat="46.0201530" lon="10.4041090">
	<ele>1391.60</ele>
	<time>2024-07-24T07:36:41.000Z</time>
</trkpt>
<trkpt lat="46.0201490" lon="10.4041180">
	<ele>1391.80</ele>
	<time>2024-07-24T07:36:42.000Z</time>
</trkpt>
<trkpt lat="46.0201430" lon="10.4041250">
	<ele>1391.80</ele>
	<time>2024-07-24T07:36:43.000Z</time>
</trkpt>
<trkpt lat="46.0201390" lon="10.4041290">
	<ele>1391.80</ele>
	<time>2024-07-24T07:36:44.000Z</time>
</trkpt>
<trkpt lat="46.0201330" lon="10.4041290">
	<ele>1392.00</ele>
	<time>2024-07-24T07:36:45.000Z</time>
</trkpt>
<trkpt lat="46.0201340" lon="10.4041300">
	<ele>1392.20</ele>
	<time>2024-07-24T07:36:46.000Z</time>
</trkpt>
<trkpt lat="46.0201360" lon="10.4041340">
	<ele>1392.20</ele>
	<time>2024-07-24T07:36:47.000Z</time>
</trkpt>
<trkpt lat="46.0201370" lon="10.4041370">
	<ele>1392.40</ele>
	<time>2024-07-24T07:36:48.000Z</time>
</trkpt>
<trkpt lat="46.0201380" lon="10.4041400">
	<ele>1392.40</ele>
	<time>2024-07-24T07:36:49.000Z</time>
</trkpt>
<trkpt lat="46.0201410" lon="10.4041430">
	<ele>1392.40</ele>
	<time>2024-07-24T07:36:50.000Z</time>
</trkpt>
<trkpt lat="46.0201420" lon="10.4041440">
	<ele>1392.60</ele>
	<time>2024-07-24T07:36:51.000Z</time>
</trkpt>
<trkpt lat="46.0201430" lon="10.4041460">
	<ele>1392.60</ele>
	<time>2024-07-24T07:36:52.000Z</time>
</trkpt>
<trkpt lat="46.0201450" lon="10.4041420">
	<ele>1392.60</ele>
	<time>2024-07-24T07:36:53.000Z</time>
</trkpt>
<trkpt lat="46.0201460" lon="10.4041350">
	<ele>1392.60</ele>
	<time>2024-07-24T07:36:54.000Z</time>
</trkpt>
<trkpt lat="46.0201450" lon="10.4041260">
	<ele>1392.60</ele>
	<time>2024-07-24T07:36:55.000Z</time>
</trkpt>
<trkpt lat="46.0201470" lon="10.4041270">
	<ele>1392.40</ele>
	<time>2024-07-24T07:36:56.000Z</time>
</trkpt>
<trkpt lat="46.0201530" lon="10.4041250">
	<ele>1392.40</ele>
	<time>2024-07-24T07:36:57.000Z</time>
</trkpt>
<trkpt lat="46.0201570" lon="10.4041270">
	<ele>1392.40</ele>
	<time>2024-07-24T07:36:58.000Z</time>
</trkpt>
<trkpt lat="46.0201590" lon="10.4041290">
	<ele>1392.40</ele>
	<time>2024-07-24T07:36:59.000Z</time>
</trkpt>
<trkpt lat="46.0201610" lon="10.4041290">
	<ele>1392.40</ele>
	<time>2024-07-24T07:37:00.000Z</time>
</trkpt>
<trkpt lat="46.0201540" lon="10.4041450">
	<ele>1392.40</ele>
	<time>2024-07-24T07:37:01.000Z</time>
</trkpt>
<trkpt lat="46.0201540" lon="10.4041450">
	<ele>1392.40</ele>
	<time>2024-07-24T07:37:02.000Z</time>
</trkpt>
<trkpt lat="46.0201540" lon="10.4041450">
	<ele>1392.40</ele>
	<time>2024-07-24T07:37:03.000Z</time>
</trkpt>
<trkpt lat="46.0201540" lon="10.4041450">
	<ele>1392.40</ele>
	<time>2024-07-24T07:37:04.000Z</time>
</trkpt>
<trkpt lat="46.0201540" lon="10.4041450">
	<ele>1392.40</ele>
	<time>2024-07-24T07:37:05.000Z</time>
</trkpt>
<trkpt lat="46.0201540" lon="10.4041450">
	<ele>1392.60</ele>
	<time>2024-07-24T07:37:06.000Z</time>
</trkpt>
<trkpt lat="46.0201540" lon="10.4041450">
	<ele>1392.60</ele>
	<time>2024-07-24T07:37:07.000Z</time>
</trkpt>
<trkpt lat="46.0201540" lon="10.4041510">
	<ele>1392.60</ele>
	<time>2024-07-24T07:37:08.000Z</time>
</trkpt>
<trkpt lat="46.0201600" lon="10.4041710">
	<ele>1392.60</ele>
	<time>2024-07-24T07:37:09.000Z</time>
</trkpt>
<trkpt lat="46.0201660" lon="10.4041910">
	<ele>1392.60</ele>
	<time>2024-07-24T07:37:10.000Z</time>
</trkpt>
<trkpt lat="46.0201720" lon="10.4042100">
	<ele>1392.80</ele>
	<time>2024-07-24T07:37:11.000Z</time>
</trkpt>
<trkpt lat="46.0201780" lon="10.4042270">
	<ele>1392.80</ele>
	<time>2024-07-24T07:37:12.000Z</time>
</trkpt>
<trkpt lat="46.0201830" lon="10.4042450">
	<ele>1392.80</ele>
	<time>2024-07-24T07:37:13.000Z</time>
</trkpt>
<trkpt lat="46.0201860" lon="10.4042660">
	<ele>1393.00</ele>
	<time>2024-07-24T07:37:14.000Z</time>
</trkpt>
<trkpt lat="46.0201880" lon="10.4042800">
	<ele>1393.00</ele>
	<time>2024-07-24T07:37:15.000Z</time>
</trkpt>
<trkpt lat="46.0201910" lon="10.4043020">
	<ele>1393.20</ele>
	<time>2024-07-24T07:37:16.000Z</time>
</trkpt>
<trkpt lat="46.0201950" lon="10.4043250">
	<ele>1393.20</ele>
	<time>2024-07-24T07:37:17.000Z</time>
</trkpt>
<trkpt lat="46.0202000" lon="10.4043410">
	<ele>1393.40</ele>
	<time>2024-07-24T07:37:18.000Z</time>
</trkpt>
<trkpt lat="46.0202050" lon="10.4043520">
	<ele>1393.60</ele>
	<time>2024-07-24T07:37:19.000Z</time>
</trkpt>
<trkpt lat="46.0202070" lon="10.4043630">
	<ele>1393.80</ele>
	<time>2024-07-24T07:37:20.000Z</time>
</trkpt>
<trkpt lat="46.0202100" lon="10.4043740">
	<ele>1393.80</ele>
	<time>2024-07-24T07:37:21.000Z</time>
</trkpt>
<trkpt lat="46.0202130" lon="10.4043850">
	<ele>1394.00</ele>
	<time>2024-07-24T07:37:22.000Z</time>
</trkpt>
<trkpt lat="46.0202170" lon="10.4043980">
	<ele>1394.20</ele>
	<time>2024-07-24T07:37:23.000Z</time>
</trkpt>
<trkpt lat="46.0202200" lon="10.4044100">
	<ele>1394.40</ele>
	<time>2024-07-24T07:37:24.000Z</time>
</trkpt>
<trkpt lat="46.0202230" lon="10.4044220">
	<ele>1394.60</ele>
	<time>2024-07-24T07:37:25.000Z</time>
</trkpt>
<trkpt lat="46.0202260" lon="10.4044340">
	<ele>1394.80</ele>
	<time>2024-07-24T07:37:26.000Z</time>
</trkpt>
<trkpt lat="46.0202280" lon="10.4044480">
	<ele>1394.80</ele>
	<time>2024-07-24T07:37:27.000Z</time>
</trkpt>
<trkpt lat="46.0202300" lon="10.4044640">
	<ele>1395.20</ele>
	<time>2024-07-24T07:37:28.000Z</time>
</trkpt>
<trkpt lat="46.0202310" lon="10.4044760">
	<ele>1395.40</ele>
	<time>2024-07-24T07:37:29.000Z</time>
</trkpt>
<trkpt lat="46.0202320" lon="10.4044900">
	<ele>1395.40</ele>
	<time>2024-07-24T07:37:30.000Z</time>
</trkpt>
<trkpt lat="46.0202330" lon="10.4045060">
	<ele>1395.60</ele>
	<time>2024-07-24T07:37:31.000Z</time>
</trkpt>
<trkpt lat="46.0202340" lon="10.4045250">
	<ele>1395.80</ele>
	<time>2024-07-24T07:37:32.000Z</time>
</trkpt>
<trkpt lat="46.0202340" lon="10.4045410">
	<ele>1395.80</ele>
	<time>2024-07-24T07:37:33.000Z</time>
</trkpt>
<trkpt lat="46.0202340" lon="10.4045520">
	<ele>1396.00</ele>
	<time>2024-07-24T07:37:34.000Z</time>
</trkpt>
<trkpt lat="46.0202380" lon="10.4045630">
	<ele>1396.00</ele>
	<time>2024-07-24T07:37:35.000Z</time>
</trkpt>
<trkpt lat="46.0202410" lon="10.4045740">
	<ele>1396.20</ele>
	<time>2024-07-24T07:37:36.000Z</time>
</trkpt>
<trkpt lat="46.0202430" lon="10.4045850">
	<ele>1396.40</ele>
	<time>2024-07-24T07:37:37.000Z</time>
</trkpt>
<trkpt lat="46.0202440" lon="10.4045980">
	<ele>1396.60</ele>
	<time>2024-07-24T07:37:38.000Z</time>
</trkpt>
<trkpt lat="46.0202410" lon="10.4046100">
	<ele>1396.80</ele>
	<time>2024-07-24T07:37:39.000Z</time>
</trkpt>
<trkpt lat="46.0202400" lon="10.4046230">
	<ele>1397.00</ele>
	<time>2024-07-24T07:37:40.000Z</time>
</trkpt>
<trkpt lat="46.0202430" lon="10.4046350">
	<ele>1397.20</ele>
	<time>2024-07-24T07:37:41.000Z</time>
</trkpt>
<trkpt lat="46.0202450" lon="10.4046480">
	<ele>1397.20</ele>
	<time>2024-07-24T07:37:42.000Z</time>
</trkpt>
<trkpt lat="46.0202470" lon="10.4046630">
	<ele>1397.40</ele>
	<time>2024-07-24T07:37:43.000Z</time>
</trkpt>
<trkpt lat="46.0202490" lon="10.4046740">
	<ele>1397.40</ele>
	<time>2024-07-24T07:37:44.000Z</time>
</trkpt>
<trkpt lat="46.0202530" lon="10.4046840">
	<ele>1397.80</ele>
	<time>2024-07-24T07:37:45.000Z</time>
</trkpt>
<trkpt lat="46.0202570" lon="10.4046940">
	<ele>1398.00</ele>
	<time>2024-07-24T07:37:46.000Z</time>
</trkpt>
<trkpt lat="46.0202610" lon="10.4047040">
	<ele>1398.20</ele>
	<time>2024-07-24T07:37:47.000Z</time>
</trkpt>
<trkpt lat="46.0202610" lon="10.4047120">
	<ele>1398.40</ele>
	<time>2024-07-24T07:37:48.000Z</time>
</trkpt>
<trkpt lat="46.0202600" lon="10.4047210">
	<ele>1398.60</ele>
	<time>2024-07-24T07:37:49.000Z</time>
</trkpt>
<trkpt lat="46.0202600" lon="10.4047300">
	<ele>1398.60</ele>
	<time>2024-07-24T07:37:50.000Z</time>
</trkpt>
<trkpt lat="46.0202580" lon="10.4047410">
	<ele>1398.80</ele>
	<time>2024-07-24T07:37:51.000Z</time>
</trkpt>
<trkpt lat="46.0202590" lon="10.4047580">
	<ele>1399.00</ele>
	<time>2024-07-24T07:37:52.000Z</time>
</trkpt>
<trkpt lat="46.0202600" lon="10.4047720">
	<ele>1399.20</ele>
	<time>2024-07-24T07:37:53.000Z</time>
</trkpt>
<trkpt lat="46.0202620" lon="10.4047850">
	<ele>1399.40</ele>
	<time>2024-07-24T07:37:54.000Z</time>
</trkpt>
<trkpt lat="46.0202640" lon="10.4047970">
	<ele>1399.60</ele>
	<time>2024-07-24T07:37:55.000Z</time>
</trkpt>
<trkpt lat="46.0202680" lon="10.4048090">
	<ele>1399.80</ele>
	<time>2024-07-24T07:37:56.000Z</time>
</trkpt>
<trkpt lat="46.0202740" lon="10.4048170">
	<ele>1400.00</ele>
	<time>2024-07-24T07:37:57.000Z</time>
</trkpt>
<trkpt lat="46.0202780" lon="10.4048250">
	<ele>1400.20</ele>
	<time>2024-07-24T07:37:58.000Z</time>
</trkpt>
<trkpt lat="46.0202810" lon="10.4048350">
	<ele>1400.40</ele>
	<time>2024-07-24T07:37:59.000Z</time>
</trkpt>
<trkpt lat="46.0202850" lon="10.4048490">
	<ele>1400.40</ele>
	<time>2024-07-24T07:38:00.000Z</time>
</trkpt>
<trkpt lat="46.0202880" lon="10.4048610">
	<ele>1400.60</ele>
	<time>2024-07-24T07:38:01.000Z</time>
</trkpt>
<trkpt lat="46.0202940" lon="10.4048720">
	<ele>1400.80</ele>
	<time>2024-07-24T07:38:02.000Z</time>
</trkpt>
<trkpt lat="46.0202910" lon="10.4048950">
	<ele>1400.80</ele>
	<time>2024-07-24T07:38:03.000Z</time>
</trkpt>
<trkpt lat="46.0203000" lon="10.4049010">
	<ele>1401.00</ele>
	<time>2024-07-24T07:38:04.000Z</time>
</trkpt>
<trkpt lat="46.0203060" lon="10.4049140">
	<ele>1401.20</ele>
	<time>2024-07-24T07:38:05.000Z</time>
</trkpt>
<trkpt lat="46.0203120" lon="10.4049190">
	<ele>1401.20</ele>
	<time>2024-07-24T07:38:06.000Z</time>
</trkpt>
<trkpt lat="46.0203250" lon="10.4049200">
	<ele>1401.40</ele>
	<time>2024-07-24T07:38:07.000Z</time>
</trkpt>
<trkpt lat="46.0203350" lon="10.4049230">
	<ele>1401.40</ele>
	<time>2024-07-24T07:38:08.000Z</time>
</trkpt>
<trkpt lat="46.0203460" lon="10.4049280">
	<ele>1401.60</ele>
	<time>2024-07-24T07:38:09.000Z</time>
</trkpt>
<trkpt lat="46.0203510" lon="10.4049400">
	<ele>1401.80</ele>
	<time>2024-07-24T07:38:10.000Z</time>
</trkpt>
<trkpt lat="46.0203550" lon="10.4049510">
	<ele>1402.00</ele>
	<time>2024-07-24T07:38:11.000Z</time>
</trkpt>
<trkpt lat="46.0203610" lon="10.4049580">
	<ele>1402.20</ele>
	<time>2024-07-24T07:38:12.000Z</time>
</trkpt>
<trkpt lat="46.0203650" lon="10.4049640">
	<ele>1402.40</ele>
	<time>2024-07-24T07:38:13.000Z</time>
</trkpt>
<trkpt lat="46.0203690" lon="10.4049760">
	<ele>1402.60</ele>
	<time>2024-07-24T07:38:14.000Z</time>
</trkpt>
<trkpt lat="46.0203730" lon="10.4049830">
	<ele>1402.80</ele>
	<time>2024-07-24T07:38:15.000Z</time>
</trkpt>
<trkpt lat="46.0203770" lon="10.4049940">
	<ele>1403.00</ele>
	<time>2024-07-24T07:38:16.000Z</time>
</trkpt>
<trkpt lat="46.0203820" lon="10.4050030">
	<ele>1403.20</ele>
	<time>2024-07-24T07:38:17.000Z</time>
</trkpt>
<trkpt lat="46.0203880" lon="10.4050150">
	<ele>1403.40</ele>
	<time>2024-07-24T07:38:18.000Z</time>
</trkpt>
<trkpt lat="46.0203950" lon="10.4050250">
	<ele>1403.40</ele>
	<time>2024-07-24T07:38:19.000Z</time>
</trkpt>
<trkpt lat="46.0203990" lon="10.4050360">
	<ele>1403.60</ele>
	<time>2024-07-24T07:38:20.000Z</time>
</trkpt>
<trkpt lat="46.0204030" lon="10.4050460">
	<ele>1403.80</ele>
	<time>2024-07-24T07:38:21.000Z</time>
</trkpt>
<trkpt lat="46.0204090" lon="10.4050560">
	<ele>1404.00</ele>
	<time>2024-07-24T07:38:22.000Z</time>
</trkpt>
<trkpt lat="46.0204140" lon="10.4050640">
	<ele>1404.40</ele>
	<time>2024-07-24T07:38:23.000Z</time>
</trkpt>
<trkpt lat="46.0204200" lon="10.4050720">
	<ele>1404.60</ele>
	<time>2024-07-24T07:38:24.000Z</time>
</trkpt>
<trkpt lat="46.0204230" lon="10.4050790">
	<ele>1404.60</ele>
	<time>2024-07-24T07:38:25.000Z</time>
</trkpt>
<trkpt lat="46.0204260" lon="10.4050870">
	<ele>1404.80</ele>
	<time>2024-07-24T07:38:26.000Z</time>
</trkpt>
<trkpt lat="46.0204310" lon="10.4050970">
	<ele>1405.00</ele>
	<time>2024-07-24T07:38:27.000Z</time>
</trkpt>
<trkpt lat="46.0204380" lon="10.4051040">
	<ele>1405.20</ele>
	<time>2024-07-24T07:38:28.000Z</time>
</trkpt>
<trkpt lat="46.0204440" lon="10.4051110">
	<ele>1405.40</ele>
	<time>2024-07-24T07:38:29.000Z</time>
</trkpt>
<trkpt lat="46.0204500" lon="10.4051200">
	<ele>1405.60</ele>
	<time>2024-07-24T07:38:30.000Z</time>
</trkpt>
<trkpt lat="46.0204540" lon="10.4051280">
	<ele>1405.80</ele>
	<time>2024-07-24T07:38:31.000Z</time>
</trkpt>
<trkpt lat="46.0204580" lon="10.4051370">
	<ele>1406.00</ele>
	<time>2024-07-24T07:38:32.000Z</time>
</trkpt>
<trkpt lat="46.0204610" lon="10.4051470">
	<ele>1406.20</ele>
	<time>2024-07-24T07:38:33.000Z</time>
</trkpt>
<trkpt lat="46.0204610" lon="10.4051590">
	<ele>1406.20</ele>
	<time>2024-07-24T07:38:34.000Z</time>
</trkpt>
<trkpt lat="46.0204600" lon="10.4051690">
	<ele>1406.20</ele>
	<time>2024-07-24T07:38:35.000Z</time>
</trkpt>
<trkpt lat="46.0204590" lon="10.4051780">
	<ele>1406.40</ele>
	<time>2024-07-24T07:38:36.000Z</time>
</trkpt>
<trkpt lat="46.0204570" lon="10.4051870">
	<ele>1406.60</ele>
	<time>2024-07-24T07:38:37.000Z</time>
</trkpt>
<trkpt lat="46.0204520" lon="10.4051930">
	<ele>1406.80</ele>
	<time>2024-07-24T07:38:38.000Z</time>
</trkpt>
<trkpt lat="46.0204480" lon="10.4051970">
	<ele>1406.80</ele>
	<time>2024-07-24T07:38:39.000Z</time>
</trkpt>
<trkpt lat="46.0204400" lon="10.4052030">
	<ele>1407.00</ele>
	<time>2024-07-24T07:38:40.000Z</time>
</trkpt>
<trkpt lat="46.0204330" lon="10.4052110">
	<ele>1407.20</ele>
	<time>2024-07-24T07:38:41.000Z</time>
</trkpt>
<trkpt lat="46.0204270" lon="10.4052200">
	<ele>1407.40</ele>
	<time>2024-07-24T07:38:42.000Z</time>
</trkpt>
<trkpt lat="46.0204230" lon="10.4052260">
	<ele>1407.60</ele>
	<time>2024-07-24T07:38:43.000Z</time>
</trkpt>
<trkpt lat="46.0204210" lon="10.4052310">
	<ele>1407.80</ele>
	<time>2024-07-24T07:38:44.000Z</time>
</trkpt>
<trkpt lat="46.0204180" lon="10.4052370">
	<ele>1408.00</ele>
	<time>2024-07-24T07:38:45.000Z</time>
</trkpt>
<trkpt lat="46.0204140" lon="10.4052470">
	<ele>1408.00</ele>
	<time>2024-07-24T07:38:46.000Z</time>
</trkpt>
<trkpt lat="46.0204100" lon="10.4052580">
	<ele>1408.40</ele>
	<time>2024-07-24T07:38:47.000Z</time>
</trkpt>
<trkpt lat="46.0204070" lon="10.4052640">
	<ele>1408.60</ele>
	<time>2024-07-24T07:38:48.000Z</time>
</trkpt>
<trkpt lat="46.0204050" lon="10.4052690">
	<ele>1408.80</ele>
	<time>2024-07-24T07:38:49.000Z</time>
</trkpt>
<trkpt lat="46.0204010" lon="10.4052760">
	<ele>1408.80</ele>
	<time>2024-07-24T07:38:50.000Z</time>
</trkpt>
<trkpt lat="46.0204000" lon="10.4052880">
	<ele>1409.00</ele>
	<time>2024-07-24T07:38:51.000Z</time>
</trkpt>
<trkpt lat="46.0203990" lon="10.4053030">
	<ele>1409.20</ele>
	<time>2024-07-24T07:38:52.000Z</time>
</trkpt>
<trkpt lat="46.0203970" lon="10.4053160">
	<ele>1409.40</ele>
	<time>2024-07-24T07:38:53.000Z</time>
</trkpt>
<trkpt lat="46.0203940" lon="10.4053260">
	<ele>1409.40</ele>
	<time>2024-07-24T07:38:54.000Z</time>
</trkpt>
<trkpt lat="46.0203930" lon="10.4053370">
	<ele>1409.80</ele>
	<time>2024-07-24T07:38:55.000Z</time>
</trkpt>
<trkpt lat="46.0203900" lon="10.4053510">
	<ele>1410.00</ele>
	<time>2024-07-24T07:38:56.000Z</time>
</trkpt>
<trkpt lat="46.0203850" lon="10.4053610">
	<ele>1410.20</ele>
	<time>2024-07-24T07:38:57.000Z</time>
</trkpt>
<trkpt lat="46.0203810" lon="10.4053680">
	<ele>1410.20</ele>
	<time>2024-07-24T07:38:58.000Z</time>
</trkpt>
<trkpt lat="46.0203780" lon="10.4053780">
	<ele>1410.40</ele>
	<time>2024-07-24T07:38:59.000Z</time>
</trkpt>
<trkpt lat="46.0203740" lon="10.4053860">
	<ele>1410.60</ele>
	<time>2024-07-24T07:39:00.000Z</time>
</trkpt>
<trkpt lat="46.0203690" lon="10.4053910">
	<ele>1410.80</ele>
	<time>2024-07-24T07:39:01.000Z</time>
</trkpt>
<trkpt lat="46.0203650" lon="10.4053970">
	<ele>1410.80</ele>
	<time>2024-07-24T07:39:02.000Z</time>
</trkpt>
<trkpt lat="46.0203610" lon="10.4054060">
	<ele>1411.00</ele>
	<time>2024-07-24T07:39:03.000Z</time>
</trkpt>
<trkpt lat="46.0203570" lon="10.4054150">
	<ele>1411.00</ele>
	<time>2024-07-24T07:39:04.000Z</time>
</trkpt>
<trkpt lat="46.0203520" lon="10.4054250">
	<ele>1411.20</ele>
	<time>2024-07-24T07:39:05.000Z</time>
</trkpt>
<trkpt lat="46.0203440" lon="10.4054280">
	<ele>1411.40</ele>
	<time>2024-07-24T07:39:06.000Z</time>
</trkpt>
<trkpt lat="46.0203380" lon="10.4054350">
	<ele>1411.60</ele>
	<time>2024-07-24T07:39:07.000Z</time>
</trkpt>
<trkpt lat="46.0203300" lon="10.4054460">
	<ele>1411.60</ele>
	<time>2024-07-24T07:39:08.000Z</time>
</trkpt>
<trkpt lat="46.0203230" lon="10.4054540">
	<ele>1411.80</ele>
	<time>2024-07-24T07:39:09.000Z</time>
</trkpt>
<trkpt lat="46.0203180" lon="10.4054640">
	<ele>1412.00</ele>
	<time>2024-07-24T07:39:10.000Z</time>
</trkpt>
<trkpt lat="46.0203130" lon="10.4054710">
	<ele>1412.00</ele>
	<time>2024-07-24T07:39:11.000Z</time>
</trkpt>
<trkpt lat="46.0203050" lon="10.4054840">
	<ele>1412.40</ele>
	<time>2024-07-24T07:39:12.000Z</time>
</trkpt>
<trkpt lat="46.0203000" lon="10.4054950">
	<ele>1412.40</ele>
	<time>2024-07-24T07:39:13.000Z</time>
</trkpt>
<trkpt lat="46.0202940" lon="10.4055020">
	<ele>1412.60</ele>
	<time>2024-07-24T07:39:14.000Z</time>
</trkpt>
<trkpt lat="46.0202880" lon="10.4055040">
	<ele>1412.80</ele>
	<time>2024-07-24T07:39:15.000Z</time>
</trkpt>
<trkpt lat="46.0202780" lon="10.4055110">
	<ele>1412.80</ele>
	<time>2024-07-24T07:39:16.000Z</time>
</trkpt>
<trkpt lat="46.0202690" lon="10.4055190">
	<ele>1413.00</ele>
	<time>2024-07-24T07:39:17.000Z</time>
</trkpt>
<trkpt lat="46.0202640" lon="10.4055290">
	<ele>1413.20</ele>
	<time>2024-07-24T07:39:18.000Z</time>
</trkpt>
<trkpt lat="46.0202630" lon="10.4055410">
	<ele>1413.40</ele>
	<time>2024-07-24T07:39:19.000Z</time>
</trkpt>
<trkpt lat="46.0202610" lon="10.4055550">
	<ele>1413.60</ele>
	<time>2024-07-24T07:39:20.000Z</time>
</trkpt>
<trkpt lat="46.0202570" lon="10.4055640">
	<ele>1413.60</ele>
	<time>2024-07-24T07:39:21.000Z</time>
</trkpt>
<trkpt lat="46.0202550" lon="10.4055740">
	<ele>1413.80</ele>
	<time>2024-07-24T07:39:22.000Z</time>
</trkpt>
<trkpt lat="46.0202520" lon="10.4055840">
	<ele>1414.00</ele>
	<time>2024-07-24T07:39:23.000Z</time>
</trkpt>
<trkpt lat="46.0202500" lon="10.4055900">
	<ele>1414.20</ele>
	<time>2024-07-24T07:39:24.000Z</time>
</trkpt>
<trkpt lat="46.0202470" lon="10.4056000">
	<ele>1414.40</ele>
	<time>2024-07-24T07:39:25.000Z</time>
</trkpt>
<trkpt lat="46.0202470" lon="10.4056050">
	<ele>1414.40</ele>
	<time>2024-07-24T07:39:26.000Z</time>
</trkpt>
<trkpt lat="46.0202480" lon="10.4056080">
	<ele>1414.40</ele>
	<time>2024-07-24T07:39:27.000Z</time>
</trkpt>
<trkpt lat="46.0202500" lon="10.4056070">
	<ele>1414.40</ele>
	<time>2024-07-24T07:39:28.000Z</time>
</trkpt>
<trkpt lat="46.0202500" lon="10.4056090">
	<ele>1414.40</ele>
	<time>2024-07-24T07:39:29.000Z</time>
</trkpt>
<trkpt lat="46.0202500" lon="10.4056100">
	<ele>1414.40</ele>
	<time>2024-07-24T07:39:30.000Z</time>
</trkpt>
<trkpt lat="46.0202500" lon="10.4056070">
	<ele>1414.40</ele>
	<time>2024-07-24T07:39:31.000Z</time>
</trkpt>
<trkpt lat="46.0202490" lon="10.4056050">
	<ele>1414.40</ele>
	<time>2024-07-24T07:39:32.000Z</time>
</trkpt>
<trkpt lat="46.0202470" lon="10.4056050">
	<ele>1414.40</ele>
	<time>2024-07-24T07:39:33.000Z</time>
</trkpt>
<trkpt lat="46.0202450" lon="10.4056040">
	<ele>1414.40</ele>
	<time>2024-07-24T07:39:34.000Z</time>
</trkpt>
<trkpt lat="46.0202450" lon="10.4056050">
	<ele>1414.40</ele>
	<time>2024-07-24T07:39:35.000Z</time>
</trkpt>
<trkpt lat="46.0202440" lon="10.4056070">
	<ele>1414.40</ele>
	<time>2024-07-24T07:39:36.000Z</time>
</trkpt>
<trkpt lat="46.0202450" lon="10.4056090">
	<ele>1414.60</ele>
	<time>2024-07-24T07:39:37.000Z</time>
</trkpt>
<trkpt lat="46.0202450" lon="10.4056090">
	<ele>1414.80</ele>
	<time>2024-07-24T07:39:38.000Z</time>
</trkpt>
<trkpt lat="46.0202450" lon="10.4056090">
	<ele>1415.00</ele>
	<time>2024-07-24T07:39:39.000Z</time>
</trkpt>
<trkpt lat="46.0202450" lon="10.4056090">
	<ele>1415.00</ele>
	<time>2024-07-24T07:39:40.000Z</time>
</trkpt>
<trkpt lat="46.0202450" lon="10.4056090">
	<ele>1415.00</ele>
	<time>2024-07-24T07:39:41.000Z</time>
</trkpt>
<trkpt lat="46.0202450" lon="10.4056090">
	<ele>1415.00</ele>
	<time>2024-07-24T07:39:42.000Z</time>
</trkpt>
<trkpt lat="46.0202450" lon="10.4056090">
	<ele>1415.00</ele>
	<time>2024-07-24T07:39:43.000Z</time>
</trkpt>
<trkpt lat="46.0202450" lon="10.4056090">
	<ele>1415.00</ele>
	<time>2024-07-24T07:39:44.000Z</time>
</trkpt>
<trkpt lat="46.0202450" lon="10.4056160">
	<ele>1415.00</ele>
	<time>2024-07-24T07:39:45.000Z</time>
</trkpt>
<trkpt lat="46.0202510" lon="10.4056350">
	<ele>1415.00</ele>
	<time>2024-07-24T07:39:46.000Z</time>
</trkpt>
<trkpt lat="46.0202560" lon="10.4056560">
	<ele>1415.20</ele>
	<time>2024-07-24T07:39:47.000Z</time>
</trkpt>
<trkpt lat="46.0202610" lon="10.4056730">
	<ele>1415.40</ele>
	<time>2024-07-24T07:39:48.000Z</time>
</trkpt>
<trkpt lat="46.0202650" lon="10.4056880">
	<ele>1415.60</ele>
	<time>2024-07-24T07:39:49.000Z</time>
</trkpt>
<trkpt lat="46.0202650" lon="10.4057040">
	<ele>1415.80</ele>
	<time>2024-07-24T07:39:50.000Z</time>
</trkpt>
<trkpt lat="46.0202650" lon="10.4057210">
	<ele>1415.80</ele>
	<time>2024-07-24T07:39:51.000Z</time>
</trkpt>
<trkpt lat="46.0202640" lon="10.4057370">
	<ele>1416.00</ele>
	<time>2024-07-24T07:39:52.000Z</time>
</trkpt>
<trkpt lat="46.0202660" lon="10.4057550">
	<ele>1416.20</ele>
	<time>2024-07-24T07:39:53.000Z</time>
</trkpt>
<trkpt lat="46.0202660" lon="10.4057750">
	<ele>1416.60</ele>
	<time>2024-07-24T07:39:54.000Z</time>
</trkpt>
<trkpt lat="46.0202640" lon="10.4057870">
	<ele>1416.80</ele>
	<time>2024-07-24T07:39:55.000Z</time>
</trkpt>
<trkpt lat="46.0202650" lon="10.4058010">
	<ele>1417.00</ele>
	<time>2024-07-24T07:39:56.000Z</time>
</trkpt>
<trkpt lat="46.0202700" lon="10.4058130">
	<ele>1417.20</ele>
	<time>2024-07-24T07:39:57.000Z</time>
</trkpt>
<trkpt lat="46.0202720" lon="10.4058220">
	<ele>1417.40</ele>
	<time>2024-07-24T07:39:58.000Z</time>
</trkpt>
<trkpt lat="46.0202710" lon="10.4058340">
	<ele>1417.60</ele>
	<time>2024-07-24T07:39:59.000Z</time>
</trkpt>
<trkpt lat="46.0202700" lon="10.4058450">
	<ele>1417.80</ele>
	<time>2024-07-24T07:40:00.000Z</time>
</trkpt>
<trkpt lat="46.0202720" lon="10.4058570">
	<ele>1418.00</ele>
	<time>2024-07-24T07:40:01.000Z</time>
</trkpt>
<trkpt lat="46.0202780" lon="10.4058650">
	<ele>1418.20</ele>
	<time>2024-07-24T07:40:02.000Z</time>
</trkpt>
<trkpt lat="46.0202840" lon="10.4058730">
	<ele>1418.40</ele>
	<time>2024-07-24T07:40:03.000Z</time>
</trkpt>
<trkpt lat="46.0202930" lon="10.4058820">
	<ele>1418.40</ele>
	<time>2024-07-24T07:40:04.000Z</time>
</trkpt>
<trkpt lat="46.0203020" lon="10.4058910">
	<ele>1418.80</ele>
	<time>2024-07-24T07:40:05.000Z</time>
</trkpt>
<trkpt lat="46.0203090" lon="10.4059010">
	<ele>1419.00</ele>
	<time>2024-07-24T07:40:06.000Z</time>
</trkpt>
<trkpt lat="46.0203170" lon="10.4059090">
	<ele>1419.20</ele>
	<time>2024-07-24T07:40:07.000Z</time>
</trkpt>
<trkpt lat="46.0203220" lon="10.4059120">
	<ele>1419.20</ele>
	<time>2024-07-24T07:40:08.000Z</time>
</trkpt>
<trkpt lat="46.0203290" lon="10.4059080">
	<ele>1419.40</ele>
	<time>2024-07-24T07:40:09.000Z</time>
</trkpt>
<trkpt lat="46.0203340" lon="10.4059010">
	<ele>1419.60</ele>
	<time>2024-07-24T07:40:10.000Z</time>
</trkpt>
<trkpt lat="46.0203400" lon="10.4058950">
	<ele>1419.60</ele>
	<time>2024-07-24T07:40:11.000Z</time>
</trkpt>
<trkpt lat="46.0203490" lon="10.4058880">
	<ele>1419.80</ele>
	<time>2024-07-24T07:40:12.000Z</time>
</trkpt>
<trkpt lat="46.0203570" lon="10.4058750">
	<ele>1419.80</ele>
	<time>2024-07-24T07:40:13.000Z</time>
</trkpt>
<trkpt lat="46.0203640" lon="10.4058610">
	<ele>1420.00</ele>
	<time>2024-07-24T07:40:14.000Z</time>
</trkpt>
<trkpt lat="46.0203660" lon="10.4058520">
	<ele>1420.00</ele>
	<time>2024-07-24T07:40:15.000Z</time>
</trkpt>
<trkpt lat="46.0203680" lon="10.4058370">
	<ele>1420.20</ele>
	<time>2024-07-24T07:40:16.000Z</time>
</trkpt>
<trkpt lat="46.0203790" lon="10.4058200">
	<ele>1420.40</ele>
	<time>2024-07-24T07:40:17.000Z</time>
</trkpt>
<trkpt lat="46.0203890" lon="10.4057960">
	<ele>1420.40</ele>
	<time>2024-07-24T07:40:18.000Z</time>
</trkpt>
<trkpt lat="46.0203930" lon="10.4057800">
	<ele>1420.60</ele>
	<time>2024-07-24T07:40:19.000Z</time>
</trkpt>
<trkpt lat="46.0203940" lon="10.4057670">
	<ele>1420.60</ele>
	<time>2024-07-24T07:40:20.000Z</time>
</trkpt>
<trkpt lat="46.0203950" lon="10.4057540">
	<ele>1420.80</ele>
	<time>2024-07-24T07:40:21.000Z</time>
</trkpt>
<trkpt lat="46.0203910" lon="10.4057340">
	<ele>1420.80</ele>
	<time>2024-07-24T07:40:22.000Z</time>
</trkpt>
<trkpt lat="46.0203900" lon="10.4057160">
	<ele>1421.00</ele>
	<time>2024-07-24T07:40:23.000Z</time>
</trkpt>
<trkpt lat="46.0203960" lon="10.4057020">
	<ele>1421.00</ele>
	<time>2024-07-24T07:40:24.000Z</time>
</trkpt>
<trkpt lat="46.0204040" lon="10.4056900">
	<ele>1421.00</ele>
	<time>2024-07-24T07:40:25.000Z</time>
</trkpt>
<trkpt lat="46.0204130" lon="10.4056780">
	<ele>1421.00</ele>
	<time>2024-07-24T07:40:26.000Z</time>
</trkpt>
<trkpt lat="46.0204210" lon="10.4056670">
	<ele>1421.20</ele>
	<time>2024-07-24T07:40:27.000Z</time>
</trkpt>
<trkpt lat="46.0204300" lon="10.4056600">
	<ele>1421.20</ele>
	<time>2024-07-24T07:40:28.000Z</time>
</trkpt>
<trkpt lat="46.0204400" lon="10.4056530">
	<ele>1421.20</ele>
	<time>2024-07-24T07:40:29.000Z</time>
</trkpt>
<trkpt lat="46.0204570" lon="10.4056520">
	<ele>1421.40</ele>
	<time>2024-07-24T07:40:30.000Z</time>
</trkpt>
<trkpt lat="46.0204710" lon="10.4056460">
	<ele>1421.40</ele>
	<time>2024-07-24T07:40:31.000Z</time>
</trkpt>
<trkpt lat="46.0204820" lon="10.4056420">
	<ele>1421.60</ele>
	<time>2024-07-24T07:40:32.000Z</time>
</trkpt>
<trkpt lat="46.0204860" lon="10.4056380">
	<ele>1421.80</ele>
	<time>2024-07-24T07:40:33.000Z</time>
</trkpt>
<trkpt lat="46.0204930" lon="10.4056330">
	<ele>1421.80</ele>
	<time>2024-07-24T07:40:34.000Z</time>
</trkpt>
<trkpt lat="46.0205030" lon="10.4056270">
	<ele>1421.80</ele>
	<time>2024-07-24T07:40:35.000Z</time>
</trkpt>
<trkpt lat="46.0205070" lon="10.4056220">
	<ele>1421.80</ele>
	<time>2024-07-24T07:40:36.000Z</time>
</trkpt>
<trkpt lat="46.0205110" lon="10.4056190">
	<ele>1421.80</ele>
	<time>2024-07-24T07:40:37.000Z</time>
</trkpt>
<trkpt lat="46.0205140" lon="10.4056160">
	<ele>1421.80</ele>
	<time>2024-07-24T07:40:38.000Z</time>
</trkpt>
<trkpt lat="46.0205220" lon="10.4056100">
	<ele>1422.00</ele>
	<time>2024-07-24T07:40:39.000Z</time>
</trkpt>
<trkpt lat="46.0205240" lon="10.4056050">
	<ele>1422.20</ele>
	<time>2024-07-24T07:40:40.000Z</time>
</trkpt>
<trkpt lat="46.0205250" lon="10.4056000">
	<ele>1422.40</ele>
	<time>2024-07-24T07:40:41.000Z</time>
</trkpt>
<trkpt lat="46.0205330" lon="10.4056040">
	<ele>1422.40</ele>
	<time>2024-07-24T07:40:42.000Z</time>
</trkpt>
<trkpt lat="46.0205420" lon="10.4056030">
	<ele>1422.40</ele>
	<time>2024-07-24T07:40:43.000Z</time>
</trkpt>
<trkpt lat="46.0205520" lon="10.4056010">
	<ele>1422.60</ele>
	<time>2024-07-24T07:40:44.000Z</time>
</trkpt>
<trkpt lat="46.0205540" lon="10.4055950">
	<ele>1422.80</ele>
	<time>2024-07-24T07:40:45.000Z</time>
</trkpt>
<trkpt lat="46.0205630" lon="10.4055910">
	<ele>1422.80</ele>
	<time>2024-07-24T07:40:46.000Z</time>
</trkpt>
<trkpt lat="46.0205660" lon="10.4055860">
	<ele>1422.80</ele>
	<time>2024-07-24T07:40:47.000Z</time>
</trkpt>
<trkpt lat="46.0205710" lon="10.4055810">
	<ele>1422.80</ele>
	<time>2024-07-24T07:40:48.000Z</time>
</trkpt>
<trkpt lat="46.0205770" lon="10.4055800">
	<ele>1422.80</ele>
	<time>2024-07-24T07:40:49.000Z</time>
</trkpt>
<trkpt lat="46.0205840" lon="10.4055760">
	<ele>1422.80</ele>
	<time>2024-07-24T07:40:50.000Z</time>
</trkpt>
<trkpt lat="46.0205920" lon="10.4055750">
	<ele>1423.00</ele>
	<time>2024-07-24T07:40:51.000Z</time>
</trkpt>
<trkpt lat="46.0206010" lon="10.4055700">
	<ele>1423.20</ele>
	<time>2024-07-24T07:40:52.000Z</time>
</trkpt>
<trkpt lat="46.0206110" lon="10.4055680">
	<ele>1423.20</ele>
	<time>2024-07-24T07:40:53.000Z</time>
</trkpt>
<trkpt lat="46.0206200" lon="10.4055650">
	<ele>1423.40</ele>
	<time>2024-07-24T07:40:54.000Z</time>
</trkpt>
<trkpt lat="46.0206340" lon="10.4055600">
	<ele>1423.40</ele>
	<time>2024-07-24T07:40:55.000Z</time>
</trkpt>
<trkpt lat="46.0206450" lon="10.4055560">
	<ele>1423.60</ele>
	<time>2024-07-24T07:40:56.000Z</time>
</trkpt>
<trkpt lat="46.0206570" lon="10.4055500">
	<ele>1423.60</ele>
	<time>2024-07-24T07:40:57.000Z</time>
</trkpt>
<trkpt lat="46.0206640" lon="10.4055390">
	<ele>1423.80</ele>
	<time>2024-07-24T07:40:58.000Z</time>
</trkpt>
<trkpt lat="46.0206700" lon="10.4055370">
	<ele>1423.80</ele>
	<time>2024-07-24T07:40:59.000Z</time>
</trkpt>
<trkpt lat="46.0206820" lon="10.4055260">
	<ele>1424.00</ele>
	<time>2024-07-24T07:41:00.000Z</time>
</trkpt>
<trkpt lat="46.0206910" lon="10.4055240">
	<ele>1424.00</ele>
	<time>2024-07-24T07:41:01.000Z</time>
</trkpt>
<trkpt lat="46.0207060" lon="10.4055220">
	<ele>1424.00</ele>
	<time>2024-07-24T07:41:02.000Z</time>
</trkpt>
<trkpt lat="46.0207230" lon="10.4055140">
	<ele>1424.20</ele>
	<time>2024-07-24T07:41:03.000Z</time>
</trkpt>
<trkpt lat="46.0207400" lon="10.4055000">
	<ele>1424.20</ele>
	<time>2024-07-24T07:41:04.000Z</time>
</trkpt>
<trkpt lat="46.0207460" lon="10.4054900">
	<ele>1424.40</ele>
	<time>2024-07-24T07:41:05.000Z</time>
</trkpt>
<trkpt lat="46.0207510" lon="10.4054720">
	<ele>1424.40</ele>
	<time>2024-07-24T07:41:06.000Z</time>
</trkpt>
<trkpt lat="46.0207550" lon="10.4054560">
	<ele>1424.60</ele>
	<time>2024-07-24T07:41:07.000Z</time>
</trkpt>
<trkpt lat="46.0207630" lon="10.4054430">
	<ele>1424.80</ele>
	<time>2024-07-24T07:41:08.000Z</time>
</trkpt>
<trkpt lat="46.0207690" lon="10.4054360">
	<ele>1424.80</ele>
	<time>2024-07-24T07:41:09.000Z</time>
</trkpt>
<trkpt lat="46.0207810" lon="10.4054260">
	<ele>1425.00</ele>
	<time>2024-07-24T07:41:10.000Z</time>
</trkpt>
<trkpt lat="46.0207890" lon="10.4054180">
	<ele>1425.20</ele>
	<time>2024-07-24T07:41:11.000Z</time>
</trkpt>
<trkpt lat="46.0207940" lon="10.4054090">
	<ele>1425.40</ele>
	<time>2024-07-24T07:41:12.000Z</time>
</trkpt>
<trkpt lat="46.0207990" lon="10.4053970">
	<ele>1425.60</ele>
	<time>2024-07-24T07:41:13.000Z</time>
</trkpt>
<trkpt lat="46.0208020" lon="10.4053930">
	<ele>1425.80</ele>
	<time>2024-07-24T07:41:14.000Z</time>
</trkpt>
<trkpt lat="46.0208110" lon="10.4053840">
	<ele>1426.00</ele>
	<time>2024-07-24T07:41:15.000Z</time>
</trkpt>
<trkpt lat="46.0208130" lon="10.4053770">
	<ele>1426.00</ele>
	<time>2024-07-24T07:41:16.000Z</time>
</trkpt>
<trkpt lat="46.0208150" lon="10.4053640">
	<ele>1426.00</ele>
	<time>2024-07-24T07:41:17.000Z</time>
</trkpt>
<trkpt lat="46.0208220" lon="10.4053510">
	<ele>1426.20</ele>
	<time>2024-07-24T07:41:18.000Z</time>
</trkpt>
<trkpt lat="46.0208270" lon="10.4053310">
	<ele>1426.40</ele>
	<time>2024-07-24T07:41:19.000Z</time>
</trkpt>
<trkpt lat="46.0208370" lon="10.4053170">
	<ele>1426.40</ele>
	<time>2024-07-24T07:41:20.000Z</time>
</trkpt>
<trkpt lat="46.0208540" lon="10.4053060">
	<ele>1426.60</ele>
	<time>2024-07-24T07:41:21.000Z</time>
</trkpt>
<trkpt lat="46.0208630" lon="10.4052980">
	<ele>1426.60</ele>
	<time>2024-07-24T07:41:22.000Z</time>
</trkpt>
<trkpt lat="46.0208710" lon="10.4052860">
	<ele>1426.60</ele>
	<time>2024-07-24T07:41:23.000Z</time>
</trkpt>
<trkpt lat="46.0208780" lon="10.4052700">
	<ele>1426.80</ele>
	<time>2024-07-24T07:41:24.000Z</time>
</trkpt>
<trkpt lat="46.0208920" lon="10.4052580">
	<ele>1427.00</ele>
	<time>2024-07-24T07:41:25.000Z</time>
</trkpt>
<trkpt lat="46.0209060" lon="10.4052470">
	<ele>1427.00</ele>
	<time>2024-07-24T07:41:26.000Z</time>
</trkpt>
<trkpt lat="46.0209110" lon="10.4052290">
	<ele>1427.20</ele>
	<time>2024-07-24T07:41:27.000Z</time>
</trkpt>
<trkpt lat="46.0209080" lon="10.4052050">
	<ele>1427.20</ele>
	<time>2024-07-24T07:41:28.000Z</time>
</trkpt>
<trkpt lat="46.0209080" lon="10.4051860">
	<ele>1427.40</ele>
	<time>2024-07-24T07:41:29.000Z</time>
</trkpt>
<trkpt lat="46.0209140" lon="10.4051700">
	<ele>1427.40</ele>
	<time>2024-07-24T07:41:30.000Z</time>
</trkpt>
<trkpt lat="46.0209220" lon="10.4051570">
	<ele>1427.60</ele>
	<time>2024-07-24T07:41:31.000Z</time>
</trkpt>
<trkpt lat="46.0209380" lon="10.4051530">
	<ele>1427.60</ele>
	<time>2024-07-24T07:41:32.000Z</time>
</trkpt>
<trkpt lat="46.0209450" lon="10.4051400">
	<ele>1427.80</ele>
	<time>2024-07-24T07:41:33.000Z</time>
</trkpt>
<trkpt lat="46.0209450" lon="10.4051220">
	<ele>1427.80</ele>
	<time>2024-07-24T07:41:34.000Z</time>
</trkpt>
<trkpt lat="46.0209440" lon="10.4051040">
	<ele>1427.80</ele>
	<time>2024-07-24T07:41:35.000Z</time>
</trkpt>
<trkpt lat="46.0209470" lon="10.4050830">
	<ele>1428.00</ele>
	<time>2024-07-24T07:41:36.000Z</time>
</trkpt>
<trkpt lat="46.0209480" lon="10.4050660">
	<ele>1428.20</ele>
	<time>2024-07-24T07:41:37.000Z</time>
</trkpt>
<trkpt lat="46.0209500" lon="10.4050520">
	<ele>1428.20</ele>
	<time>2024-07-24T07:41:38.000Z</time>
</trkpt>
<trkpt lat="46.0209580" lon="10.4050430">
	<ele>1428.40</ele>
	<time>2024-07-24T07:41:39.000Z</time>
</trkpt>
<trkpt lat="46.0209650" lon="10.4050390">
	<ele>1428.40</ele>
	<time>2024-07-24T07:41:40.000Z</time>
</trkpt>
<trkpt lat="46.0209720" lon="10.4050290">
	<ele>1428.40</ele>
	<time>2024-07-24T07:41:41.000Z</time>
</trkpt>
<trkpt lat="46.0209830" lon="10.4050220">
	<ele>1428.60</ele>
	<time>2024-07-24T07:41:42.000Z</time>
</trkpt>
<trkpt lat="46.0209910" lon="10.4050130">
	<ele>1428.80</ele>
	<time>2024-07-24T07:41:43.000Z</time>
</trkpt>
<trkpt lat="46.0209970" lon="10.4050040">
	<ele>1428.80</ele>
	<time>2024-07-24T07:41:44.000Z</time>
</trkpt>
<trkpt lat="46.0210030" lon="10.4049900">
	<ele>1429.00</ele>
	<time>2024-07-24T07:41:45.000Z</time>
</trkpt>
<trkpt lat="46.0210110" lon="10.4049790">
	<ele>1429.20</ele>
	<time>2024-07-24T07:41:46.000Z</time>
</trkpt>
<trkpt lat="46.0210210" lon="10.4049670">
	<ele>1429.40</ele>
	<time>2024-07-24T07:41:47.000Z</time>
</trkpt>
<trkpt lat="46.0210310" lon="10.4049630">
	<ele>1429.40</ele>
	<time>2024-07-24T07:41:48.000Z</time>
</trkpt>
<trkpt lat="46.0210340" lon="10.4049550">
	<ele>1429.60</ele>
	<time>2024-07-24T07:41:49.000Z</time>
</trkpt>
<trkpt lat="46.0210340" lon="10.4049440">
	<ele>1429.80</ele>
	<time>2024-07-24T07:41:50.000Z</time>
</trkpt>
<trkpt lat="46.0210330" lon="10.4049280">
	<ele>1429.80</ele>
	<time>2024-07-24T07:41:51.000Z</time>
</trkpt>
<trkpt lat="46.0210400" lon="10.4049150">
	<ele>1429.80</ele>
	<time>2024-07-24T07:41:52.000Z</time>
</trkpt>
<trkpt lat="46.0210490" lon="10.4049070">
	<ele>1430.00</ele>
	<time>2024-07-24T07:41:53.000Z</time>
</trkpt>
<trkpt lat="46.0210460" lon="10.4048960">
	<ele>1430.20</ele>
	<time>2024-07-24T07:41:54.000Z</time>
</trkpt>
<trkpt lat="46.0210560" lon="10.4048870">
	<ele>1430.20</ele>
	<time>2024-07-24T07:41:55.000Z</time>
</trkpt>
<trkpt lat="46.0210660" lon="10.4048790">
	<ele>1430.40</ele>
	<time>2024-07-24T07:41:56.000Z</time>
</trkpt>
<trkpt lat="46.0210780" lon="10.4048690">
	<ele>1430.40</ele>
	<time>2024-07-24T07:41:57.000Z</time>
</trkpt>
<trkpt lat="46.0210840" lon="10.4048520">
	<ele>1430.60</ele>
	<time>2024-07-24T07:41:58.000Z</time>
</trkpt>
<trkpt lat="46.0210860" lon="10.4048330">
	<ele>1430.80</ele>
	<time>2024-07-24T07:41:59.000Z</time>
</trkpt>
<trkpt lat="46.0210920" lon="10.4048210">
	<ele>1431.00</ele>
	<time>2024-07-24T07:42:00.000Z</time>
</trkpt>
<trkpt lat="46.0211010" lon="10.4048100">
	<ele>1431.20</ele>
	<time>2024-07-24T07:42:01.000Z</time>
</trkpt>
<trkpt lat="46.0211140" lon="10.4048000">
	<ele>1431.40</ele>
	<time>2024-07-24T07:42:02.000Z</time>
</trkpt>
<trkpt lat="46.0211320" lon="10.4047900">
	<ele>1431.40</ele>
	<time>2024-07-24T07:42:03.000Z</time>
</trkpt>
<trkpt lat="46.0211420" lon="10.4047780">
	<ele>1431.60</ele>
	<time>2024-07-24T07:42:04.000Z</time>
</trkpt>
<trkpt lat="46.0211500" lon="10.4047650">
	<ele>1431.80</ele>
	<time>2024-07-24T07:42:05.000Z</time>
</trkpt>
<trkpt lat="46.0211560" lon="10.4047540">
	<ele>1431.80</ele>
	<time>2024-07-24T07:42:06.000Z</time>
</trkpt>
<trkpt lat="46.0211640" lon="10.4047400">
	<ele>1432.00</ele>
	<time>2024-07-24T07:42:07.000Z</time>
</trkpt>
<trkpt lat="46.0211700" lon="10.4047250">
	<ele>1432.20</ele>
	<time>2024-07-24T07:42:08.000Z</time>
</trkpt>
<trkpt lat="46.0211770" lon="10.4047120">
	<ele>1432.20</ele>
	<time>2024-07-24T07:42:09.000Z</time>
</trkpt>
<trkpt lat="46.0211890" lon="10.4047100">
	<ele>1432.40</ele>
	<time>2024-07-24T07:42:10.000Z</time>
</trkpt>
<trkpt lat="46.0211990" lon="10.4047050">
	<ele>1432.40</ele>
	<time>2024-07-24T07:42:11.000Z</time>
</trkpt>
<trkpt lat="46.0212110" lon="10.4046990">
	<ele>1432.60</ele>
	<time>2024-07-24T07:42:12.000Z</time>
</trkpt>
<trkpt lat="46.0212160" lon="10.4046850">
	<ele>1432.60</ele>
	<time>2024-07-24T07:42:13.000Z</time>
</trkpt>
<trkpt lat="46.0212240" lon="10.4046740">
	<ele>1432.60</ele>
	<time>2024-07-24T07:42:14.000Z</time>
</trkpt>
<trkpt lat="46.0212330" lon="10.4046620">
	<ele>1432.80</ele>
	<time>2024-07-24T07:42:15.000Z</time>
</trkpt>
<trkpt lat="46.0212380" lon="10.4046510">
	<ele>1432.80</ele>
	<time>2024-07-24T07:42:16.000Z</time>
</trkpt>
<trkpt lat="46.0212420" lon="10.4046390">
	<ele>1432.80</ele>
	<time>2024-07-24T07:42:17.000Z</time>
</trkpt>
<trkpt lat="46.0212520" lon="10.4046300">
	<ele>1433.00</ele>
	<time>2024-07-24T07:42:18.000Z</time>
</trkpt>
<trkpt lat="46.0212550" lon="10.4046270">
	<ele>1433.20</ele>
	<time>2024-07-24T07:42:19.000Z</time>
</trkpt>
<trkpt lat="46.0212610" lon="10.4046210">
	<ele>1433.40</ele>
	<time>2024-07-24T07:42:20.000Z</time>
</trkpt>
<trkpt lat="46.0212680" lon="10.4046140">
	<ele>1433.60</ele>
	<time>2024-07-24T07:42:21.000Z</time>
</trkpt>
<trkpt lat="46.0212840" lon="10.4046110">
	<ele>1433.60</ele>
	<time>2024-07-24T07:42:22.000Z</time>
</trkpt>
<trkpt lat="46.0212990" lon="10.4046080">
	<ele>1433.80</ele>
	<time>2024-07-24T07:42:23.000Z</time>
</trkpt>
<trkpt lat="46.0213030" lon="10.4046020">
	<ele>1434.00</ele>
	<time>2024-07-24T07:42:24.000Z</time>
</trkpt>
<trkpt lat="46.0213170" lon="10.4045940">
	<ele>1434.00</ele>
	<time>2024-07-24T07:42:25.000Z</time>
</trkpt>
<trkpt lat="46.0213310" lon="10.4045950">
	<ele>1434.20</ele>
	<time>2024-07-24T07:42:26.000Z</time>
</trkpt>
<trkpt lat="46.0213410" lon="10.4045910">
	<ele>1434.20</ele>
	<time>2024-07-24T07:42:27.000Z</time>
</trkpt>
<trkpt lat="46.0213500" lon="10.4045810">
	<ele>1434.40</ele>
	<time>2024-07-24T07:42:28.000Z</time>
</trkpt>
<trkpt lat="46.0213520" lon="10.4045720">
	<ele>1434.40</ele>
	<time>2024-07-24T07:42:29.000Z</time>
</trkpt>
<trkpt lat="46.0213530" lon="10.4045640">
	<ele>1434.60</ele>
	<time>2024-07-24T07:42:30.000Z</time>
</trkpt>
<trkpt lat="46.0213590" lon="10.4045600">
	<ele>1434.60</ele>
	<time>2024-07-24T07:42:31.000Z</time>
</trkpt>
<trkpt lat="46.0213660" lon="10.4045510">
	<ele>1434.80</ele>
	<time>2024-07-24T07:42:32.000Z</time>
</trkpt>
<trkpt lat="46.0213650" lon="10.4045430">
	<ele>1435.00</ele>
	<time>2024-07-24T07:42:33.000Z</time>
</trkpt>
<trkpt lat="46.0213730" lon="10.4045390">
	<ele>1435.20</ele>
	<time>2024-07-24T07:42:34.000Z</time>
</trkpt>
<trkpt lat="46.0213840" lon="10.4045310">
	<ele>1435.20</ele>
	<time>2024-07-24T07:42:35.000Z</time>
</trkpt>
<trkpt lat="46.0214020" lon="10.4045250">
	<ele>1435.20</ele>
	<time>2024-07-24T07:42:36.000Z</time>
</trkpt>
<trkpt lat="46.0214080" lon="10.4045110">
	<ele>1435.40</ele>
	<time>2024-07-24T07:42:37.000Z</time>
</trkpt>
<trkpt lat="46.0214140" lon="10.4045020">
	<ele>1435.40</ele>
	<time>2024-07-24T07:42:38.000Z</time>
</trkpt>
<trkpt lat="46.0214300" lon="10.4044980">
	<ele>1435.60</ele>
	<time>2024-07-24T07:42:39.000Z</time>
</trkpt>
<trkpt lat="46.0214380" lon="10.4044940">
	<ele>1435.60</ele>
	<time>2024-07-24T07:42:40.000Z</time>
</trkpt>
<trkpt lat="46.0214440" lon="10.4044870">
	<ele>1435.80</ele>
	<time>2024-07-24T07:42:41.000Z</time>
</trkpt>
<trkpt lat="46.0214530" lon="10.4044790">
	<ele>1436.00</ele>
	<time>2024-07-24T07:42:42.000Z</time>
</trkpt>
<trkpt lat="46.0214580" lon="10.4044670">
	<ele>1436.00</ele>
	<time>2024-07-24T07:42:43.000Z</time>
</trkpt>
<trkpt lat="46.0214690" lon="10.4044520">
	<ele>1436.20</ele>
	<time>2024-07-24T07:42:44.000Z</time>
</trkpt>
<trkpt lat="46.0214740" lon="10.4044380">
	<ele>1436.20</ele>
	<time>2024-07-24T07:42:45.000Z</time>
</trkpt>
<trkpt lat="46.0214780" lon="10.4044250">
	<ele>1436.40</ele>
	<time>2024-07-24T07:42:46.000Z</time>
</trkpt>
<trkpt lat="46.0214770" lon="10.4044100">
	<ele>1436.40</ele>
	<time>2024-07-24T07:42:47.000Z</time>
</trkpt>
<trkpt lat="46.0214750" lon="10.4043920">
	<ele>1436.40</ele>
	<time>2024-07-24T07:42:48.000Z</time>
</trkpt>
<trkpt lat="46.0214790" lon="10.4043780">
	<ele>1436.60</ele>
	<time>2024-07-24T07:42:49.000Z</time>
</trkpt>
<trkpt lat="46.0214840" lon="10.4043670">
	<ele>1436.80</ele>
	<time>2024-07-24T07:42:50.000Z</time>
</trkpt>
<trkpt lat="46.0214880" lon="10.4043480">
	<ele>1437.00</ele>
	<time>2024-07-24T07:42:51.000Z</time>
</trkpt>
<trkpt lat="46.0214910" lon="10.4043340">
	<ele>1437.20</ele>
	<time>2024-07-24T07:42:52.000Z</time>
</trkpt>
<trkpt lat="46.0214960" lon="10.4043200">
	<ele>1437.20</ele>
	<time>2024-07-24T07:42:53.000Z</time>
</trkpt>
<trkpt lat="46.0215020" lon="10.4043060">
	<ele>1437.40</ele>
	<time>2024-07-24T07:42:54.000Z</time>
</trkpt>
<trkpt lat="46.0215100" lon="10.4042910">
	<ele>1437.60</ele>
	<time>2024-07-24T07:42:55.000Z</time>
</trkpt>
<trkpt lat="46.0215140" lon="10.4042780">
	<ele>1437.80</ele>
	<time>2024-07-24T07:42:56.000Z</time>
</trkpt>
<trkpt lat="46.0215240" lon="10.4042660">
	<ele>1437.80</ele>
	<time>2024-07-24T07:42:57.000Z</time>
</trkpt>
<trkpt lat="46.0215330" lon="10.4042530">
	<ele>1438.00</ele>
	<time>2024-07-24T07:42:58.000Z</time>
</trkpt>
<trkpt lat="46.0215350" lon="10.4042370">
	<ele>1438.00</ele>
	<time>2024-07-24T07:42:59.000Z</time>
</trkpt>
<trkpt lat="46.0215430" lon="10.4042260">
	<ele>1438.00</ele>
	<time>2024-07-24T07:43:00.000Z</time>
</trkpt>
<trkpt lat="46.0215540" lon="10.4042110">
	<ele>1438.20</ele>
	<time>2024-07-24T07:43:01.000Z</time>
</trkpt>
<trkpt lat="46.0215580" lon="10.4041930">
	<ele>1438.20</ele>
	<time>2024-07-24T07:43:02.000Z</time>
</trkpt>
<trkpt lat="46.0215620" lon="10.4041750">
	<ele>1438.40</ele>
	<time>2024-07-24T07:43:03.000Z</time>
</trkpt>
<trkpt lat="46.0215690" lon="10.4041620">
	<ele>1438.40</ele>
	<time>2024-07-24T07:43:04.000Z</time>
</trkpt>
<trkpt lat="46.0215740" lon="10.4041520">
	<ele>1438.80</ele>
	<time>2024-07-24T07:43:05.000Z</time>
</trkpt>
<trkpt lat="46.0215760" lon="10.4041460">
	<ele>1438.80</ele>
	<time>2024-07-24T07:43:06.000Z</time>
</trkpt>
<trkpt lat="46.0215810" lon="10.4041370">
	<ele>1439.00</ele>
	<time>2024-07-24T07:43:07.000Z</time>
</trkpt>
<trkpt lat="46.0215890" lon="10.4041240">
	<ele>1439.00</ele>
	<time>2024-07-24T07:43:08.000Z</time>
</trkpt>
<trkpt lat="46.0216000" lon="10.4041210">
	<ele>1439.20</ele>
	<time>2024-07-24T07:43:09.000Z</time>
</trkpt>
<trkpt lat="46.0216080" lon="10.4041150">
	<ele>1439.40</ele>
	<time>2024-07-24T07:43:10.000Z</time>
</trkpt>
<trkpt lat="46.0216190" lon="10.4041050">
	<ele>1439.60</ele>
	<time>2024-07-24T07:43:11.000Z</time>
</trkpt>
<trkpt lat="46.0216310" lon="10.4040970">
	<ele>1439.60</ele>
	<time>2024-07-24T07:43:12.000Z</time>
</trkpt>
<trkpt lat="46.0216430" lon="10.4040900">
	<ele>1439.80</ele>
	<time>2024-07-24T07:43:13.000Z</time>
</trkpt>
<trkpt lat="46.0216560" lon="10.4040780">
	<ele>1440.00</ele>
	<time>2024-07-24T07:43:14.000Z</time>
</trkpt>
<trkpt lat="46.0216610" lon="10.4040700">
	<ele>1440.00</ele>
	<time>2024-07-24T07:43:15.000Z</time>
</trkpt>
<trkpt lat="46.0216610" lon="10.4040590">
	<ele>1440.20</ele>
	<time>2024-07-24T07:43:16.000Z</time>
</trkpt>
<trkpt lat="46.0216590" lon="10.4040560">
	<ele>1440.20</ele>
	<time>2024-07-24T07:43:17.000Z</time>
</trkpt>
<trkpt lat="46.0216590" lon="10.4040510">
	<ele>1440.40</ele>
	<time>2024-07-24T07:43:18.000Z</time>
</trkpt>
<trkpt lat="46.0216670" lon="10.4040470">
	<ele>1440.60</ele>
	<time>2024-07-24T07:43:19.000Z</time>
</trkpt>
<trkpt lat="46.0216730" lon="10.4040370">
	<ele>1440.60</ele>
	<time>2024-07-24T07:43:20.000Z</time>
</trkpt>
<trkpt lat="46.0216810" lon="10.4040240">
	<ele>1440.80</ele>
	<time>2024-07-24T07:43:21.000Z</time>
</trkpt>
<trkpt lat="46.0216910" lon="10.4040180">
	<ele>1441.00</ele>
	<time>2024-07-24T07:43:22.000Z</time>
</trkpt>
<trkpt lat="46.0217030" lon="10.4040130">
	<ele>1441.20</ele>
	<time>2024-07-24T07:43:23.000Z</time>
</trkpt>
<trkpt lat="46.0217090" lon="10.4040060">
	<ele>1441.20</ele>
	<time>2024-07-24T07:43:24.000Z</time>
</trkpt>
<trkpt lat="46.0217130" lon="10.4039920">
	<ele>1441.40</ele>
	<time>2024-07-24T07:43:25.000Z</time>
</trkpt>
<trkpt lat="46.0217230" lon="10.4039790">
	<ele>1441.60</ele>
	<time>2024-07-24T07:43:26.000Z</time>
</trkpt>
<trkpt lat="46.0217240" lon="10.4039680">
	<ele>1441.60</ele>
	<time>2024-07-24T07:43:27.000Z</time>
</trkpt>
<trkpt lat="46.0217320" lon="10.4039560">
	<ele>1441.60</ele>
	<time>2024-07-24T07:43:28.000Z</time>
</trkpt>
<trkpt lat="46.0217410" lon="10.4039450">
	<ele>1441.80</ele>
	<time>2024-07-24T07:43:29.000Z</time>
</trkpt>
<trkpt lat="46.0217460" lon="10.4039390">
	<ele>1442.00</ele>
	<time>2024-07-24T07:43:30.000Z</time>
</trkpt>
<trkpt lat="46.0217510" lon="10.4039350">
	<ele>1442.20</ele>
	<time>2024-07-24T07:43:31.000Z</time>
</trkpt>
<trkpt lat="46.0217550" lon="10.4039320">
	<ele>1442.20</ele>
	<time>2024-07-24T07:43:32.000Z</time>
</trkpt>
<trkpt lat="46.0217650" lon="10.4039210">
	<ele>1442.40</ele>
	<time>2024-07-24T07:43:33.000Z</time>
</trkpt>
<trkpt lat="46.0217720" lon="10.4039130">
	<ele>1442.40</ele>
	<time>2024-07-24T07:43:34.000Z</time>
</trkpt>
<trkpt lat="46.0217780" lon="10.4039060">
	<ele>1442.60</ele>
	<time>2024-07-24T07:43:35.000Z</time>
</trkpt>
<trkpt lat="46.0217910" lon="10.4039030">
	<ele>1442.60</ele>
	<time>2024-07-24T07:43:36.000Z</time>
</trkpt>
<trkpt lat="46.0218120" lon="10.4038940">
	<ele>1442.80</ele>
	<time>2024-07-24T07:43:37.000Z</time>
</trkpt>
<trkpt lat="46.0218250" lon="10.4038900">
	<ele>1442.80</ele>
	<time>2024-07-24T07:43:38.000Z</time>
</trkpt>
<trkpt lat="46.0218360" lon="10.4038890">
	<ele>1443.00</ele>
	<time>2024-07-24T07:43:39.000Z</time>
</trkpt>
<trkpt lat="46.0218470" lon="10.4038830">
	<ele>1443.20</ele>
	<time>2024-07-24T07:43:40.000Z</time>
</trkpt>
<trkpt lat="46.0218560" lon="10.4038790">
	<ele>1443.40</ele>
	<time>2024-07-24T07:43:41.000Z</time>
</trkpt>
<trkpt lat="46.0218650" lon="10.4038790">
	<ele>1443.60</ele>
	<time>2024-07-24T07:43:42.000Z</time>
</trkpt>
<trkpt lat="46.0218700" lon="10.4038810">
	<ele>1443.80</ele>
	<time>2024-07-24T07:43:43.000Z</time>
</trkpt>
<trkpt lat="46.0218750" lon="10.4038770">
	<ele>1443.80</ele>
	<time>2024-07-24T07:43:44.000Z</time>
</trkpt>
<trkpt lat="46.0218840" lon="10.4038720">
	<ele>1444.00</ele>
	<time>2024-07-24T07:43:45.000Z</time>
</trkpt>
<trkpt lat="46.0218950" lon="10.4038630">
	<ele>1444.00</ele>
	<time>2024-07-24T07:43:46.000Z</time>
</trkpt>
<trkpt lat="46.0219020" lon="10.4038610">
	<ele>1444.20</ele>
	<time>2024-07-24T07:43:47.000Z</time>
</trkpt>
<trkpt lat="46.0219090" lon="10.4038640">
	<ele>1444.20</ele>
	<time>2024-07-24T07:43:48.000Z</time>
</trkpt>
<trkpt lat="46.0219160" lon="10.4038590">
	<ele>1444.60</ele>
	<time>2024-07-24T07:43:49.000Z</time>
</trkpt>
<trkpt lat="46.0219210" lon="10.4038630">
	<ele>1444.60</ele>
	<time>2024-07-24T07:43:50.000Z</time>
</trkpt>
<trkpt lat="46.0219250" lon="10.4038720">
	<ele>1444.80</ele>
	<time>2024-07-24T07:43:51.000Z</time>
</trkpt>
<trkpt lat="46.0219300" lon="10.4038820">
	<ele>1445.00</ele>
	<time>2024-07-24T07:43:52.000Z</time>
</trkpt>
<trkpt lat="46.0219390" lon="10.4038890">
	<ele>1445.20</ele>
	<time>2024-07-24T07:43:53.000Z</time>
</trkpt>
<trkpt lat="46.0219430" lon="10.4038890">
	<ele>1445.20</ele>
	<time>2024-07-24T07:43:54.000Z</time>
</trkpt>
<trkpt lat="46.0219510" lon="10.4038840">
	<ele>1445.40</ele>
	<time>2024-07-24T07:43:55.000Z</time>
</trkpt>
<trkpt lat="46.0219600" lon="10.4038850">
	<ele>1445.40</ele>
	<time>2024-07-24T07:43:56.000Z</time>
</trkpt>
<trkpt lat="46.0219680" lon="10.4038900">
	<ele>1445.80</ele>
	<time>2024-07-24T07:43:57.000Z</time>
</trkpt>
<trkpt lat="46.0219750" lon="10.4038930">
	<ele>1445.80</ele>
	<time>2024-07-24T07:43:58.000Z</time>
</trkpt>
<trkpt lat="46.0219850" lon="10.4038930">
	<ele>1446.00</ele>
	<time>2024-07-24T07:43:59.000Z</time>
</trkpt>
<trkpt lat="46.0219920" lon="10.4038850">
	<ele>1446.00</ele>
	<time>2024-07-24T07:44:00.000Z</time>
</trkpt>
<trkpt lat="46.0219970" lon="10.4038780">
	<ele>1446.20</ele>
	<time>2024-07-24T07:44:01.000Z</time>
</trkpt>
<trkpt lat="46.0220050" lon="10.4038730">
	<ele>1446.20</ele>
	<time>2024-07-24T07:44:02.000Z</time>
</trkpt>
<trkpt lat="46.0220140" lon="10.4038690">
	<ele>1446.40</ele>
	<time>2024-07-24T07:44:03.000Z</time>
</trkpt>
<trkpt lat="46.0220140" lon="10.4038640">
	<ele>1446.40</ele>
	<time>2024-07-24T07:44:04.000Z</time>
</trkpt>
<trkpt lat="46.0220140" lon="10.4038600">
	<ele>1446.60</ele>
	<time>2024-07-24T07:44:05.000Z</time>
</trkpt>
<trkpt lat="46.0220130" lon="10.4038580">
	<ele>1446.80</ele>
	<time>2024-07-24T07:44:06.000Z</time>
</trkpt>
<trkpt lat="46.0220140" lon="10.4038580">
	<ele>1446.80</ele>
	<time>2024-07-24T07:44:07.000Z</time>
</trkpt>
<trkpt lat="46.0220130" lon="10.4038580">
	<ele>1446.80</ele>
	<time>2024-07-24T07:44:08.000Z</time>
</trkpt>
<trkpt lat="46.0220120" lon="10.4038580">
	<ele>1446.80</ele>
	<time>2024-07-24T07:44:09.000Z</time>
</trkpt>
<trkpt lat="46.0220100" lon="10.4038560">
	<ele>1446.80</ele>
	<time>2024-07-24T07:44:10.000Z</time>
</trkpt>
<trkpt lat="46.0220160" lon="10.4038570">
	<ele>1446.80</ele>
	<time>2024-07-24T07:44:11.000Z</time>
</trkpt>
<trkpt lat="46.0220160" lon="10.4038570">
	<ele>1446.80</ele>
	<time>2024-07-24T07:44:12.000Z</time>
</trkpt>
<trkpt lat="46.0220170" lon="10.4038560">
	<ele>1446.80</ele>
	<time>2024-07-24T07:44:13.000Z</time>
</trkpt>
<trkpt lat="46.0220150" lon="10.4038540">
	<ele>1446.80</ele>
	<time>2024-07-24T07:44:14.000Z</time>
</trkpt>
<trkpt lat="46.0220120" lon="10.4038530">
	<ele>1446.80</ele>
	<time>2024-07-24T07:44:15.000Z</time>
</trkpt>
<trkpt lat="46.0220090" lon="10.4038530">
	<ele>1446.80</ele>
	<time>2024-07-24T07:44:16.000Z</time>
</trkpt>
<trkpt lat="46.0220090" lon="10.4038530">
	<ele>1446.80</ele>
	<time>2024-07-24T07:44:17.000Z</time>
</trkpt>
<trkpt lat="46.0220110" lon="10.4038530">
	<ele>1446.80</ele>
	<time>2024-07-24T07:44:18.000Z</time>
</trkpt>
<trkpt lat="46.0220120" lon="10.4038520">
	<ele>1446.80</ele>
	<time>2024-07-24T07:44:19.000Z</time>
</trkpt>
<trkpt lat="46.0220140" lon="10.4038520">
	<ele>1446.80</ele>
	<time>2024-07-24T07:44:20.000Z</time>
</trkpt>
<trkpt lat="46.0220210" lon="10.4038500">
	<ele>1446.80</ele>
	<time>2024-07-24T07:44:21.000Z</time>
</trkpt>
<trkpt lat="46.0220240" lon="10.4038500">
	<ele>1446.80</ele>
	<time>2024-07-24T07:44:22.000Z</time>
</trkpt>
<trkpt lat="46.0220280" lon="10.4038400">
	<ele>1446.80</ele>
	<time>2024-07-24T07:44:23.000Z</time>
</trkpt>
<trkpt lat="46.0220340" lon="10.4038360">
	<ele>1446.80</ele>
	<time>2024-07-24T07:44:24.000Z</time>
</trkpt>
<trkpt lat="46.0220370" lon="10.4038340">
	<ele>1446.80</ele>
	<time>2024-07-24T07:44:25.000Z</time>
</trkpt>
<trkpt lat="46.0220380" lon="10.4038320">
	<ele>1446.80</ele>
	<time>2024-07-24T07:44:26.000Z</time>
</trkpt>
<trkpt lat="46.0220370" lon="10.4038300">
	<ele>1446.80</ele>
	<time>2024-07-24T07:44:27.000Z</time>
</trkpt>
<trkpt lat="46.0220370" lon="10.4038280">
	<ele>1446.80</ele>
	<time>2024-07-24T07:44:28.000Z</time>
</trkpt>
<trkpt lat="46.0220370" lon="10.4038280">
	<ele>1446.80</ele>
	<time>2024-07-24T07:44:29.000Z</time>
</trkpt>
<trkpt lat="46.0220350" lon="10.4038290">
	<ele>1447.00</ele>
	<time>2024-07-24T07:44:30.000Z</time>
</trkpt>
<trkpt lat="46.0220330" lon="10.4038300">
	<ele>1447.00</ele>
	<time>2024-07-24T07:44:31.000Z</time>
</trkpt>
<trkpt lat="46.0220320" lon="10.4038290">
	<ele>1447.00</ele>
	<time>2024-07-24T07:44:32.000Z</time>
</trkpt>
<trkpt lat="46.0220320" lon="10.4038280">
	<ele>1447.20</ele>
	<time>2024-07-24T07:44:33.000Z</time>
</trkpt>
<trkpt lat="46.0220320" lon="10.4038280">
	<ele>1447.00</ele>
	<time>2024-07-24T07:44:34.000Z</time>
</trkpt>
<trkpt lat="46.0220320" lon="10.4038280">
	<ele>1447.20</ele>
	<time>2024-07-24T07:44:35.000Z</time>
</trkpt>
<trkpt lat="46.0220320" lon="10.4038280">
	<ele>1447.20</ele>
	<time>2024-07-24T07:44:36.000Z</time>
</trkpt>
<trkpt lat="46.0220320" lon="10.4038280">
	<ele>1447.20</ele>
	<time>2024-07-24T07:44:37.000Z</time>
</trkpt>
<trkpt lat="46.0220320" lon="10.4038280">
	<ele>1447.20</ele>
	<time>2024-07-24T07:44:38.000Z</time>
</trkpt>
<trkpt lat="46.0220320" lon="10.4038280">
	<ele>1447.20</ele>
	<time>2024-07-24T07:44:39.000Z</time>
</trkpt>
<trkpt lat="46.0220320" lon="10.4038280">
	<ele>1447.00</ele>
	<time>2024-07-24T07:44:40.000Z</time>
</trkpt>
<trkpt lat="46.0220320" lon="10.4038280">
	<ele>1447.20</ele>
	<time>2024-07-24T07:44:41.000Z</time>
</trkpt>
<trkpt lat="46.0220320" lon="10.4038280">
	<ele>1447.20</ele>
	<time>2024-07-24T07:44:42.000Z</time>
</trkpt>
<trkpt lat="46.0220320" lon="10.4038280">
	<ele>1447.20</ele>
	<time>2024-07-24T07:44:43.000Z</time>
</trkpt>
<trkpt lat="46.0220320" lon="10.4038290">
	<ele>1447.20</ele>
	<time>2024-07-24T07:44:44.000Z</time>
</trkpt>
<trkpt lat="46.0220320" lon="10.4038290">
	<ele>1447.20</ele>
	<time>2024-07-24T07:44:45.000Z</time>
</trkpt>
<trkpt lat="46.0220330" lon="10.4038290">
	<ele>1447.20</ele>
	<time>2024-07-24T07:44:46.000Z</time>
</trkpt>
<trkpt lat="46.0220330" lon="10.4038300">
	<ele>1447.20</ele>
	<time>2024-07-24T07:44:47.000Z</time>
</trkpt>
<trkpt lat="46.0220340" lon="10.4038300">
	<ele>1447.20</ele>
	<time>2024-07-24T07:44:48.000Z</time>
</trkpt>
<trkpt lat="46.0220350" lon="10.4038300">
	<ele>1447.20</ele>
	<time>2024-07-24T07:44:49.000Z</time>
</trkpt>
<trkpt lat="46.0220350" lon="10.4038300">
	<ele>1447.20</ele>
	<time>2024-07-24T07:44:50.000Z</time>
</trkpt>
<trkpt lat="46.0220350" lon="10.4038310">
	<ele>1447.20</ele>
	<time>2024-07-24T07:44:51.000Z</time>
</trkpt>
<trkpt lat="46.0220350" lon="10.4038310">
	<ele>1447.20</ele>
	<time>2024-07-24T07:44:52.000Z</time>
</trkpt>
<trkpt lat="46.0220350" lon="10.4038310">
	<ele>1447.20</ele>
	<time>2024-07-24T07:44:53.000Z</time>
</trkpt>
<trkpt lat="46.0220360" lon="10.4038320">
	<ele>1447.00</ele>
	<time>2024-07-24T07:44:54.000Z</time>
</trkpt>
<trkpt lat="46.0220360" lon="10.4038320">
	<ele>1447.00</ele>
	<time>2024-07-24T07:44:55.000Z</time>
</trkpt>
<trkpt lat="46.0220360" lon="10.4038320">
	<ele>1447.20</ele>
	<time>2024-07-24T07:44:56.000Z</time>
</trkpt>
<trkpt lat="46.0220360" lon="10.4038320">
	<ele>1447.20</ele>
	<time>2024-07-24T07:44:57.000Z</time>
</trkpt>
<trkpt lat="46.0220360" lon="10.4038330">
	<ele>1447.20</ele>
	<time>2024-07-24T07:44:58.000Z</time>
</trkpt>
<trkpt lat="46.0220360" lon="10.4038330">
	<ele>1447.20</ele>
	<time>2024-07-24T07:44:59.000Z</time>
</trkpt>
<trkpt lat="46.0220360" lon="10.4038330">
	<ele>1447.20</ele>
	<time>2024-07-24T07:45:00.000Z</time>
</trkpt>
<trkpt lat="46.0220360" lon="10.4038330">
	<ele>1447.20</ele>
	<time>2024-07-24T07:45:01.000Z</time>
</trkpt>
<trkpt lat="46.0220360" lon="10.4038340">
	<ele>1447.40</ele>
	<time>2024-07-24T07:45:02.000Z</time>
</trkpt>
<trkpt lat="46.0220360" lon="10.4038340">
	<ele>1447.40</ele>
	<time>2024-07-24T07:45:03.000Z</time>
</trkpt>
<trkpt lat="46.0220360" lon="10.4038340">
	<ele>1447.40</ele>
	<time>2024-07-24T07:45:04.000Z</time>
</trkpt>
<trkpt lat="46.0220360" lon="10.4038350">
	<ele>1447.40</ele>
	<time>2024-07-24T07:45:05.000Z</time>
</trkpt>
<trkpt lat="46.0220360" lon="10.4038350">
	<ele>1447.40</ele>
	<time>2024-07-24T07:45:06.000Z</time>
</trkpt>
<trkpt lat="46.0220360" lon="10.4038350">
	<ele>1447.20</ele>
	<time>2024-07-24T07:45:07.000Z</time>
</trkpt>
<trkpt lat="46.0220360" lon="10.4038350">
	<ele>1447.20</ele>
	<time>2024-07-24T07:45:08.000Z</time>
</trkpt>
<trkpt lat="46.0220360" lon="10.4038350">
	<ele>1447.00</ele>
	<time>2024-07-24T07:45:09.000Z</time>
</trkpt>
<trkpt lat="46.0220360" lon="10.4038350">
	<ele>1447.20</ele>
	<time>2024-07-24T07:45:10.000Z</time>
</trkpt>
<trkpt lat="46.0220360" lon="10.4038350">
	<ele>1447.20</ele>
	<time>2024-07-24T07:45:11.000Z</time>
</trkpt>
<trkpt lat="46.0220360" lon="10.4038360">
	<ele>1447.20</ele>
	<time>2024-07-24T07:45:12.000Z</time>
</trkpt>
<trkpt lat="46.0220360" lon="10.4038360">
	<ele>1447.40</ele>
	<time>2024-07-24T07:45:13.000Z</time>
</trkpt>
<trkpt lat="46.0220360" lon="10.4038360">
	<ele>1447.40</ele>
	<time>2024-07-24T07:45:14.000Z</time>
</trkpt>
<trkpt lat="46.0220360" lon="10.4038360">
	<ele>1447.40</ele>
	<time>2024-07-24T07:45:15.000Z</time>
</trkpt>
<trkpt lat="46.0220360" lon="10.4038360">
	<ele>1447.40</ele>
	<time>2024-07-24T07:45:16.000Z</time>
</trkpt>
<trkpt lat="46.0220360" lon="10.4038360">
	<ele>1447.40</ele>
	<time>2024-07-24T07:45:17.000Z</time>
</trkpt>
<trkpt lat="46.0220350" lon="10.4038360">
	<ele>1447.40</ele>
	<time>2024-07-24T07:45:18.000Z</time>
</trkpt>
<trkpt lat="46.0220340" lon="10.4038360">
	<ele>1447.40</ele>
	<time>2024-07-24T07:45:19.000Z</time>
</trkpt>
<trkpt lat="46.0220340" lon="10.4038360">
	<ele>1447.40</ele>
	<time>2024-07-24T07:45:20.000Z</time>
</trkpt>
<trkpt lat="46.0220340" lon="10.4038350">
	<ele>1447.20</ele>
	<time>2024-07-24T07:45:21.000Z</time>
</trkpt>
<trkpt lat="46.0220330" lon="10.4038350">
	<ele>1447.20</ele>
	<time>2024-07-24T07:45:22.000Z</time>
</trkpt>
<trkpt lat="46.0220330" lon="10.4038340">
	<ele>1447.20</ele>
	<time>2024-07-24T07:45:23.000Z</time>
</trkpt>
<trkpt lat="46.0220320" lon="10.4038340">
	<ele>1447.20</ele>
	<time>2024-07-24T07:45:24.000Z</time>
</trkpt>
<trkpt lat="46.0220320" lon="10.4038340">
	<ele>1447.40</ele>
	<time>2024-07-24T07:45:25.000Z</time>
</trkpt>
<trkpt lat="46.0220310" lon="10.4038340">
	<ele>1447.40</ele>
	<time>2024-07-24T07:45:26.000Z</time>
</trkpt>
<trkpt lat="46.0220310" lon="10.4038330">
	<ele>1447.60</ele>
	<time>2024-07-24T07:45:27.000Z</time>
</trkpt>
<trkpt lat="46.0220310" lon="10.4038330">
	<ele>1447.60</ele>
	<time>2024-07-24T07:45:28.000Z</time>
</trkpt>
<trkpt lat="46.0220310" lon="10.4038330">
	<ele>1447.80</ele>
	<time>2024-07-24T07:45:29.000Z</time>
</trkpt>
<trkpt lat="46.0220310" lon="10.4038320">
	<ele>1447.80</ele>
	<time>2024-07-24T07:45:30.000Z</time>
</trkpt>
<trkpt lat="46.0220300" lon="10.4038320">
	<ele>1447.80</ele>
	<time>2024-07-24T07:45:31.000Z</time>
</trkpt>
<trkpt lat="46.0220300" lon="10.4038320">
	<ele>1447.80</ele>
	<time>2024-07-24T07:45:32.000Z</time>
</trkpt>
<trkpt lat="46.0220290" lon="10.4038320">
	<ele>1447.80</ele>
	<time>2024-07-24T07:45:33.000Z</time>
</trkpt>
<trkpt lat="46.0220290" lon="10.4038310">
	<ele>1447.80</ele>
	<time>2024-07-24T07:45:34.000Z</time>
</trkpt>
<trkpt lat="46.0220250" lon="10.4038290">
	<ele>1447.80</ele>
	<time>2024-07-24T07:45:35.000Z</time>
</trkpt>
<trkpt lat="46.0220170" lon="10.4038330">
	<ele>1447.60</ele>
	<time>2024-07-24T07:45:36.000Z</time>
</trkpt>
<trkpt lat="46.0220110" lon="10.4038350">
	<ele>1447.40</ele>
	<time>2024-07-24T07:45:37.000Z</time>
</trkpt>
<trkpt lat="46.0220090" lon="10.4038370">
	<ele>1447.40</ele>
	<time>2024-07-24T07:45:38.000Z</time>
</trkpt>
<trkpt lat="46.0220020" lon="10.4038320">
	<ele>1447.40</ele>
	<time>2024-07-24T07:45:39.000Z</time>
</trkpt>
<trkpt lat="46.0219950" lon="10.4038290">
	<ele>1447.40</ele>
	<time>2024-07-24T07:45:40.000Z</time>
</trkpt>
<trkpt lat="46.0219890" lon="10.4038290">
	<ele>1447.40</ele>
	<time>2024-07-24T07:45:41.000Z</time>
</trkpt>
<trkpt lat="46.0219860" lon="10.4038240">
	<ele>1447.60</ele>
	<time>2024-07-24T07:45:42.000Z</time>
</trkpt>
<trkpt lat="46.0219800" lon="10.4038210">
	<ele>1447.60</ele>
	<time>2024-07-24T07:45:43.000Z</time>
</trkpt>
<trkpt lat="46.0219740" lon="10.4038200">
	<ele>1447.80</ele>
	<time>2024-07-24T07:45:44.000Z</time>
</trkpt>
<trkpt lat="46.0219730" lon="10.4038250">
	<ele>1448.00</ele>
	<time>2024-07-24T07:45:45.000Z</time>
</trkpt>
<trkpt lat="46.0219700" lon="10.4038330">
	<ele>1448.20</ele>
	<time>2024-07-24T07:45:46.000Z</time>
</trkpt>
<trkpt lat="46.0219730" lon="10.4038440">
	<ele>1448.40</ele>
	<time>2024-07-24T07:45:47.000Z</time>
</trkpt>
<trkpt lat="46.0219790" lon="10.4038610">
	<ele>1448.60</ele>
	<time>2024-07-24T07:45:48.000Z</time>
</trkpt>
<trkpt lat="46.0219830" lon="10.4038760">
	<ele>1449.00</ele>
	<time>2024-07-24T07:45:49.000Z</time>
</trkpt>
<trkpt lat="46.0219900" lon="10.4038860">
	<ele>1449.20</ele>
	<time>2024-07-24T07:45:50.000Z</time>
</trkpt>
<trkpt lat="46.0219950" lon="10.4038960">
	<ele>1449.40</ele>
	<time>2024-07-24T07:45:51.000Z</time>
</trkpt>
<trkpt lat="46.0219950" lon="10.4039040">
	<ele>1449.60</ele>
	<time>2024-07-24T07:45:52.000Z</time>
</trkpt>
<trkpt lat="46.0219870" lon="10.4039070">
	<ele>1449.60</ele>
	<time>2024-07-24T07:45:53.000Z</time>
</trkpt>
<trkpt lat="46.0219790" lon="10.4039070">
	<ele>1449.80</ele>
	<time>2024-07-24T07:45:54.000Z</time>
</trkpt>
<trkpt lat="46.0219670" lon="10.4039090">
	<ele>1449.80</ele>
	<time>2024-07-24T07:45:55.000Z</time>
</trkpt>
<trkpt lat="46.0219630" lon="10.4039090">
	<ele>1450.20</ele>
	<time>2024-07-24T07:45:56.000Z</time>
</trkpt>
<trkpt lat="46.0219600" lon="10.4039090">
	<ele>1450.20</ele>
	<time>2024-07-24T07:45:57.000Z</time>
</trkpt>
<trkpt lat="46.0219530" lon="10.4039090">
	<ele>1450.40</ele>
	<time>2024-07-24T07:45:58.000Z</time>
</trkpt>
<trkpt lat="46.0219500" lon="10.4039130">
	<ele>1450.60</ele>
	<time>2024-07-24T07:45:59.000Z</time>
</trkpt>
<trkpt lat="46.0219400" lon="10.4039170">
	<ele>1450.80</ele>
	<time>2024-07-24T07:46:00.000Z</time>
</trkpt>
<trkpt lat="46.0219290" lon="10.4039200">
	<ele>1450.80</ele>
	<time>2024-07-24T07:46:01.000Z</time>
</trkpt>
<trkpt lat="46.0219240" lon="10.4039240">
	<ele>1451.20</ele>
	<time>2024-07-24T07:46:02.000Z</time>
</trkpt>
<trkpt lat="46.0219200" lon="10.4039290">
	<ele>1451.20</ele>
	<time>2024-07-24T07:46:03.000Z</time>
</trkpt>
<trkpt lat="46.0219150" lon="10.4039300">
	<ele>1451.40</ele>
	<time>2024-07-24T07:46:04.000Z</time>
</trkpt>
<trkpt lat="46.0219090" lon="10.4039340">
	<ele>1451.60</ele>
	<time>2024-07-24T07:46:05.000Z</time>
</trkpt>
<trkpt lat="46.0219020" lon="10.4039430">
	<ele>1451.80</ele>
	<time>2024-07-24T07:46:06.000Z</time>
</trkpt>
<trkpt lat="46.0218960" lon="10.4039550">
	<ele>1451.80</ele>
	<time>2024-07-24T07:46:07.000Z</time>
</trkpt>
<trkpt lat="46.0218890" lon="10.4039690">
	<ele>1451.80</ele>
	<time>2024-07-24T07:46:08.000Z</time>
</trkpt>
<trkpt lat="46.0218840" lon="10.4039860">
	<ele>1451.80</ele>
	<time>2024-07-24T07:46:09.000Z</time>
</trkpt>
<trkpt lat="46.0218810" lon="10.4040060">
	<ele>1452.00</ele>
	<time>2024-07-24T07:46:10.000Z</time>
</trkpt>
<trkpt lat="46.0218810" lon="10.4040230">
	<ele>1452.20</ele>
	<time>2024-07-24T07:46:11.000Z</time>
</trkpt>
<trkpt lat="46.0218810" lon="10.4040310">
	<ele>1452.40</ele>
	<time>2024-07-24T07:46:12.000Z</time>
</trkpt>
<trkpt lat="46.0218810" lon="10.4040420">
	<ele>1452.60</ele>
	<time>2024-07-24T07:46:13.000Z</time>
</trkpt>
<trkpt lat="46.0218820" lon="10.4040600">
	<ele>1452.80</ele>
	<time>2024-07-24T07:46:14.000Z</time>
</trkpt>
<trkpt lat="46.0218850" lon="10.4040790">
	<ele>1453.20</ele>
	<time>2024-07-24T07:46:15.000Z</time>
</trkpt>
<trkpt lat="46.0218850" lon="10.4040950">
	<ele>1453.40</ele>
	<time>2024-07-24T07:46:16.000Z</time>
</trkpt>
<trkpt lat="46.0218850" lon="10.4041060">
	<ele>1453.60</ele>
	<time>2024-07-24T07:46:17.000Z</time>
</trkpt>
<trkpt lat="46.0218850" lon="10.4041160">
	<ele>1453.80</ele>
	<time>2024-07-24T07:46:18.000Z</time>
</trkpt>
<trkpt lat="46.0218850" lon="10.4041300">
	<ele>1453.80</ele>
	<time>2024-07-24T07:46:19.000Z</time>
</trkpt>
<trkpt lat="46.0218810" lon="10.4041410">
	<ele>1454.00</ele>
	<time>2024-07-24T07:46:20.000Z</time>
</trkpt>
<trkpt lat="46.0218770" lon="10.4041520">
	<ele>1454.20</ele>
	<time>2024-07-24T07:46:21.000Z</time>
</trkpt>
<trkpt lat="46.0218750" lon="10.4041640">
	<ele>1454.40</ele>
	<time>2024-07-24T07:46:22.000Z</time>
</trkpt>
<trkpt lat="46.0218660" lon="10.4041830">
	<ele>1454.40</ele>
	<time>2024-07-24T07:46:23.000Z</time>
</trkpt>
<trkpt lat="46.0218550" lon="10.4042030">
	<ele>1454.60</ele>
	<time>2024-07-24T07:46:24.000Z</time>
</trkpt>
<trkpt lat="46.0218440" lon="10.4042160">
	<ele>1454.60</ele>
	<time>2024-07-24T07:46:25.000Z</time>
</trkpt>
<trkpt lat="46.0218390" lon="10.4042310">
	<ele>1454.80</ele>
	<time>2024-07-24T07:46:26.000Z</time>
</trkpt>
<trkpt lat="46.0218300" lon="10.4042400">
	<ele>1454.80</ele>
	<time>2024-07-24T07:46:27.000Z</time>
</trkpt>
<trkpt lat="46.0218240" lon="10.4042470">
	<ele>1455.00</ele>
	<time>2024-07-24T07:46:28.000Z</time>
</trkpt>
<trkpt lat="46.0218210" lon="10.4042540">
	<ele>1455.20</ele>
	<time>2024-07-24T07:46:29.000Z</time>
</trkpt>
<trkpt lat="46.0218200" lon="10.4042660">
	<ele>1455.40</ele>
	<time>2024-07-24T07:46:30.000Z</time>
</trkpt>
<trkpt lat="46.0218170" lon="10.4042780">
	<ele>1455.80</ele>
	<time>2024-07-24T07:46:31.000Z</time>
</trkpt>
<trkpt lat="46.0218130" lon="10.4042900">
	<ele>1456.00</ele>
	<time>2024-07-24T07:46:32.000Z</time>
</trkpt>
<trkpt lat="46.0218100" lon="10.4042980">
	<ele>1456.00</ele>
	<time>2024-07-24T07:46:33.000Z</time>
</trkpt>
<trkpt lat="46.0218070" lon="10.4043110">
	<ele>1456.20</ele>
	<time>2024-07-24T07:46:34.000Z</time>
</trkpt>
<trkpt lat="46.0218040" lon="10.4043260">
	<ele>1456.20</ele>
	<time>2024-07-24T07:46:35.000Z</time>
</trkpt>
<trkpt lat="46.0217990" lon="10.4043380">
	<ele>1456.40</ele>
	<time>2024-07-24T07:46:36.000Z</time>
</trkpt>
<trkpt lat="46.0217930" lon="10.4043420">
	<ele>1456.60</ele>
	<time>2024-07-24T07:46:37.000Z</time>
</trkpt>
<trkpt lat="46.0217880" lon="10.4043470">
	<ele>1456.80</ele>
	<time>2024-07-24T07:46:38.000Z</time>
</trkpt>
<trkpt lat="46.0217820" lon="10.4043560">
	<ele>1457.00</ele>
	<time>2024-07-24T07:46:39.000Z</time>
</trkpt>
<trkpt lat="46.0217720" lon="10.4043620">
	<ele>1457.00</ele>
	<time>2024-07-24T07:46:40.000Z</time>
</trkpt>
<trkpt lat="46.0217590" lon="10.4043610">
	<ele>1457.00</ele>
	<time>2024-07-24T07:46:41.000Z</time>
</trkpt>
<trkpt lat="46.0217570" lon="10.4043620">
	<ele>1457.20</ele>
	<time>2024-07-24T07:46:42.000Z</time>
</trkpt>
<trkpt lat="46.0217510" lon="10.4043770">
	<ele>1457.40</ele>
	<time>2024-07-24T07:46:43.000Z</time>
</trkpt>
<trkpt lat="46.0217450" lon="10.4043820">
	<ele>1457.40</ele>
	<time>2024-07-24T07:46:44.000Z</time>
</trkpt>
<trkpt lat="46.0217450" lon="10.4043900">
	<ele>1457.60</ele>
	<time>2024-07-24T07:46:45.000Z</time>
</trkpt>
<trkpt lat="46.0217440" lon="10.4043960">
	<ele>1457.80</ele>
	<time>2024-07-24T07:46:46.000Z</time>
</trkpt>
<trkpt lat="46.0217380" lon="10.4044030">
	<ele>1458.00</ele>
	<time>2024-07-24T07:46:47.000Z</time>
</trkpt>
<trkpt lat="46.0217350" lon="10.4044130">
	<ele>1458.00</ele>
	<time>2024-07-24T07:46:48.000Z</time>
</trkpt>
<trkpt lat="46.0217280" lon="10.4044340">
	<ele>1458.20</ele>
	<time>2024-07-24T07:46:49.000Z</time>
</trkpt>
<trkpt lat="46.0217190" lon="10.4044510">
	<ele>1458.20</ele>
	<time>2024-07-24T07:46:50.000Z</time>
</trkpt>
<trkpt lat="46.0217150" lon="10.4044620">
	<ele>1458.40</ele>
	<time>2024-07-24T07:46:51.000Z</time>
</trkpt>
<trkpt lat="46.0217130" lon="10.4044740">
	<ele>1458.60</ele>
	<time>2024-07-24T07:46:52.000Z</time>
</trkpt>
<trkpt lat="46.0217120" lon="10.4044880">
	<ele>1458.80</ele>
	<time>2024-07-24T07:46:53.000Z</time>
</trkpt>
<trkpt lat="46.0217100" lon="10.4044950">
	<ele>1459.00</ele>
	<time>2024-07-24T07:46:54.000Z</time>
</trkpt>
<trkpt lat="46.0217080" lon="10.4045060">
	<ele>1459.40</ele>
	<time>2024-07-24T07:46:55.000Z</time>
</trkpt>
<trkpt lat="46.0217020" lon="10.4045190">
	<ele>1459.60</ele>
	<time>2024-07-24T07:46:56.000Z</time>
</trkpt>
<trkpt lat="46.0216960" lon="10.4045320">
	<ele>1459.60</ele>
	<time>2024-07-24T07:46:57.000Z</time>
</trkpt>
<trkpt lat="46.0216930" lon="10.4045400">
	<ele>1459.80</ele>
	<time>2024-07-24T07:46:58.000Z</time>
</trkpt>
<trkpt lat="46.0216900" lon="10.4045470">
	<ele>1459.80</ele>
	<time>2024-07-24T07:46:59.000Z</time>
</trkpt>
<trkpt lat="46.0216880" lon="10.4045510">
	<ele>1460.00</ele>
	<time>2024-07-24T07:47:00.000Z</time>
</trkpt>
<trkpt lat="46.0216810" lon="10.4045610">
	<ele>1460.20</ele>
	<time>2024-07-24T07:47:01.000Z</time>
</trkpt>
<trkpt lat="46.0216740" lon="10.4045710">
	<ele>1460.40</ele>
	<time>2024-07-24T07:47:02.000Z</time>
</trkpt>
<trkpt lat="46.0216670" lon="10.4045790">
	<ele>1460.40</ele>
	<time>2024-07-24T07:47:03.000Z</time>
</trkpt>
<trkpt lat="46.0216600" lon="10.4045790">
	<ele>1460.60</ele>
	<time>2024-07-24T07:47:04.000Z</time>
</trkpt>
<trkpt lat="46.0216530" lon="10.4045810">
	<ele>1460.60</ele>
	<time>2024-07-24T07:47:05.000Z</time>
</trkpt>
<trkpt lat="46.0216500" lon="10.4045850">
	<ele>1460.80</ele>
	<time>2024-07-24T07:47:06.000Z</time>
</trkpt>
<trkpt lat="46.0216460" lon="10.4045980">
	<ele>1461.00</ele>
	<time>2024-07-24T07:47:07.000Z</time>
</trkpt>
<trkpt lat="46.0216420" lon="10.4046110">
	<ele>1461.00</ele>
	<time>2024-07-24T07:47:08.000Z</time>
</trkpt>
<trkpt lat="46.0216360" lon="10.4046290">
	<ele>1461.20</ele>
	<time>2024-07-24T07:47:09.000Z</time>
</trkpt>
<trkpt lat="46.0216300" lon="10.4046420">
	<ele>1461.60</ele>
	<time>2024-07-24T07:47:10.000Z</time>
</trkpt>
<trkpt lat="46.0216240" lon="10.4046560">
	<ele>1461.60</ele>
	<time>2024-07-24T07:47:11.000Z</time>
</trkpt>
<trkpt lat="46.0216170" lon="10.4046690">
	<ele>1461.80</ele>
	<time>2024-07-24T07:47:12.000Z</time>
</trkpt>
<trkpt lat="46.0216150" lon="10.4046820">
	<ele>1462.00</ele>
	<time>2024-07-24T07:47:13.000Z</time>
</trkpt>
<trkpt lat="46.0216120" lon="10.4046970">
	<ele>1462.20</ele>
	<time>2024-07-24T07:47:14.000Z</time>
</trkpt>
<trkpt lat="46.0216130" lon="10.4047080">
	<ele>1462.20</ele>
	<time>2024-07-24T07:47:15.000Z</time>
</trkpt>
<trkpt lat="46.0216130" lon="10.4047130">
	<ele>1462.40</ele>
	<time>2024-07-24T07:47:16.000Z</time>
</trkpt>
<trkpt lat="46.0216130" lon="10.4047210">
	<ele>1462.60</ele>
	<time>2024-07-24T07:47:17.000Z</time>
</trkpt>
<trkpt lat="46.0216140" lon="10.4047320">
	<ele>1462.80</ele>
	<time>2024-07-24T07:47:18.000Z</time>
</trkpt>
<trkpt lat="46.0216130" lon="10.4047450">
	<ele>1463.00</ele>
	<time>2024-07-24T07:47:19.000Z</time>
</trkpt>
<trkpt lat="46.0216110" lon="10.4047600">
	<ele>1463.20</ele>
	<time>2024-07-24T07:47:20.000Z</time>
</trkpt>
<trkpt lat="46.0216080" lon="10.4047700">
	<ele>1463.60</ele>
	<time>2024-07-24T07:47:21.000Z</time>
</trkpt>
<trkpt lat="46.0216040" lon="10.4047770">
	<ele>1463.80</ele>
	<time>2024-07-24T07:47:22.000Z</time>
</trkpt>
<trkpt lat="46.0216020" lon="10.4047940">
	<ele>1463.80</ele>
	<time>2024-07-24T07:47:23.000Z</time>
</trkpt>
<trkpt lat="46.0215990" lon="10.4048110">
	<ele>1464.00</ele>
	<time>2024-07-24T07:47:24.000Z</time>
</trkpt>
<trkpt lat="46.0215960" lon="10.4048330">
	<ele>1464.20</ele>
	<time>2024-07-24T07:47:25.000Z</time>
</trkpt>
<trkpt lat="46.0215910" lon="10.4048410">
	<ele>1464.40</ele>
	<time>2024-07-24T07:47:26.000Z</time>
</trkpt>
<trkpt lat="46.0215880" lon="10.4048500">
	<ele>1464.40</ele>
	<time>2024-07-24T07:47:27.000Z</time>
</trkpt>
<trkpt lat="46.0215820" lon="10.4048650">
	<ele>1464.60</ele>
	<time>2024-07-24T07:47:28.000Z</time>
</trkpt>
<trkpt lat="46.0215780" lon="10.4048850">
	<ele>1464.80</ele>
	<time>2024-07-24T07:47:29.000Z</time>
</trkpt>
<trkpt lat="46.0215730" lon="10.4049000">
	<ele>1465.00</ele>
	<time>2024-07-24T07:47:30.000Z</time>
</trkpt>
<trkpt lat="46.0215700" lon="10.4049130">
	<ele>1465.00</ele>
	<time>2024-07-24T07:47:31.000Z</time>
</trkpt>
<trkpt lat="46.0215720" lon="10.4049250">
	<ele>1465.20</ele>
	<time>2024-07-24T07:47:32.000Z</time>
</trkpt>
<trkpt lat="46.0215700" lon="10.4049430">
	<ele>1465.20</ele>
	<time>2024-07-24T07:47:33.000Z</time>
</trkpt>
<trkpt lat="46.0215650" lon="10.4049520">
	<ele>1465.40</ele>
	<time>2024-07-24T07:47:34.000Z</time>
</trkpt>
<trkpt lat="46.0215580" lon="10.4049630">
	<ele>1465.60</ele>
	<time>2024-07-24T07:47:35.000Z</time>
</trkpt>
<trkpt lat="46.0215530" lon="10.4049750">
	<ele>1465.80</ele>
	<time>2024-07-24T07:47:36.000Z</time>
</trkpt>
<trkpt lat="46.0215510" lon="10.4049890">
	<ele>1466.00</ele>
	<time>2024-07-24T07:47:37.000Z</time>
</trkpt>
<trkpt lat="46.0215500" lon="10.4050050">
	<ele>1466.20</ele>
	<time>2024-07-24T07:47:38.000Z</time>
</trkpt>
<trkpt lat="46.0215470" lon="10.4050160">
	<ele>1466.20</ele>
	<time>2024-07-24T07:47:39.000Z</time>
</trkpt>
<trkpt lat="46.0215460" lon="10.4050260">
	<ele>1466.40</ele>
	<time>2024-07-24T07:47:40.000Z</time>
</trkpt>
<trkpt lat="46.0215450" lon="10.4050400">
	<ele>1466.40</ele>
	<time>2024-07-24T07:47:41.000Z</time>
</trkpt>
<trkpt lat="46.0215460" lon="10.4050430">
	<ele>1466.60</ele>
	<time>2024-07-24T07:47:42.000Z</time>
</trkpt>
<trkpt lat="46.0215440" lon="10.4050470">
	<ele>1466.80</ele>
	<time>2024-07-24T07:47:43.000Z</time>
</trkpt>
<trkpt lat="46.0215340" lon="10.4050570">
	<ele>1466.80</ele>
	<time>2024-07-24T07:47:44.000Z</time>
</trkpt>
<trkpt lat="46.0215290" lon="10.4050720">
	<ele>1467.20</ele>
	<time>2024-07-24T07:47:45.000Z</time>
</trkpt>
<trkpt lat="46.0215290" lon="10.4050870">
	<ele>1467.40</ele>
	<time>2024-07-24T07:47:46.000Z</time>
</trkpt>
<trkpt lat="46.0215250" lon="10.4051010">
	<ele>1467.60</ele>
	<time>2024-07-24T07:47:47.000Z</time>
</trkpt>
<trkpt lat="46.0215150" lon="10.4051130">
	<ele>1467.80</ele>
	<time>2024-07-24T07:47:48.000Z</time>
</trkpt>
<trkpt lat="46.0215070" lon="10.4051320">
	<ele>1468.00</ele>
	<time>2024-07-24T07:47:49.000Z</time>
</trkpt>
<trkpt lat="46.0215060" lon="10.4051520">
	<ele>1468.00</ele>
	<time>2024-07-24T07:47:50.000Z</time>
</trkpt>
<trkpt lat="46.0215080" lon="10.4051680">
	<ele>1468.20</ele>
	<time>2024-07-24T07:47:51.000Z</time>
</trkpt>
<trkpt lat="46.0215070" lon="10.4051900">
	<ele>1468.20</ele>
	<time>2024-07-24T07:47:52.000Z</time>
</trkpt>
<trkpt lat="46.0215050" lon="10.4052070">
	<ele>1468.40</ele>
	<time>2024-07-24T07:47:53.000Z</time>
</trkpt>
<trkpt lat="46.0215140" lon="10.4052240">
	<ele>1468.60</ele>
	<time>2024-07-24T07:47:54.000Z</time>
</trkpt>
<trkpt lat="46.0215180" lon="10.4052460">
	<ele>1468.60</ele>
	<time>2024-07-24T07:47:55.000Z</time>
</trkpt>
<trkpt lat="46.0215170" lon="10.4052680">
	<ele>1469.00</ele>
	<time>2024-07-24T07:47:56.000Z</time>
</trkpt>
<trkpt lat="46.0215170" lon="10.4052840">
	<ele>1469.20</ele>
	<time>2024-07-24T07:47:57.000Z</time>
</trkpt>
<trkpt lat="46.0215180" lon="10.4052890">
	<ele>1469.20</ele>
	<time>2024-07-24T07:47:58.000Z</time>
</trkpt>
<trkpt lat="46.0215170" lon="10.4053110">
	<ele>1469.40</ele>
	<time>2024-07-24T07:47:59.000Z</time>
</trkpt>
<trkpt lat="46.0215190" lon="10.4053280">
	<ele>1469.40</ele>
	<time>2024-07-24T07:48:00.000Z</time>
</trkpt>
<trkpt lat="46.0215190" lon="10.4053320">
	<ele>1469.40</ele>
	<time>2024-07-24T07:48:01.000Z</time>
</trkpt>
<trkpt lat="46.0215190" lon="10.4053350">
	<ele>1469.60</ele>
	<time>2024-07-24T07:48:02.000Z</time>
</trkpt>
<trkpt lat="46.0215110" lon="10.4053400">
	<ele>1469.80</ele>
	<time>2024-07-24T07:48:03.000Z</time>
</trkpt>
<trkpt lat="46.0215030" lon="10.4053480">
	<ele>1469.80</ele>
	<time>2024-07-24T07:48:04.000Z</time>
</trkpt>
<trkpt lat="46.0214990" lon="10.4053500">
	<ele>1470.00</ele>
	<time>2024-07-24T07:48:05.000Z</time>
</trkpt>
<trkpt lat="46.0215050" lon="10.4053520">
	<ele>1470.00</ele>
	<time>2024-07-24T07:48:06.000Z</time>
</trkpt>
<trkpt lat="46.0215090" lon="10.4053510">
	<ele>1470.00</ele>
	<time>2024-07-24T07:48:07.000Z</time>
</trkpt>
<trkpt lat="46.0215080" lon="10.4053530">
	<ele>1470.00</ele>
	<time>2024-07-24T07:48:08.000Z</time>
</trkpt>
<trkpt lat="46.0215060" lon="10.4053590">
	<ele>1470.00</ele>
	<time>2024-07-24T07:48:09.000Z</time>
</trkpt>
<trkpt lat="46.0214990" lon="10.4053750">
	<ele>1470.20</ele>
	<time>2024-07-24T07:48:10.000Z</time>
</trkpt>
<trkpt lat="46.0214930" lon="10.4054030">
	<ele>1470.20</ele>
	<time>2024-07-24T07:48:11.000Z</time>
</trkpt>
<trkpt lat="46.0214870" lon="10.4054140">
	<ele>1470.40</ele>
	<time>2024-07-24T07:48:12.000Z</time>
</trkpt>
<trkpt lat="46.0214870" lon="10.4054300">
	<ele>1470.60</ele>
	<time>2024-07-24T07:48:13.000Z</time>
</trkpt>
<trkpt lat="46.0214890" lon="10.4054440">
	<ele>1470.60</ele>
	<time>2024-07-24T07:48:14.000Z</time>
</trkpt>
<trkpt lat="46.0214890" lon="10.4054590">
	<ele>1471.00</ele>
	<time>2024-07-24T07:48:15.000Z</time>
</trkpt>
<trkpt lat="46.0214880" lon="10.4054700">
	<ele>1471.20</ele>
	<time>2024-07-24T07:48:16.000Z</time>
</trkpt>
<trkpt lat="46.0214870" lon="10.4054810">
	<ele>1471.40</ele>
	<time>2024-07-24T07:48:17.000Z</time>
</trkpt>
<trkpt lat="46.0214880" lon="10.4054890">
	<ele>1471.40</ele>
	<time>2024-07-24T07:48:18.000Z</time>
</trkpt>
<trkpt lat="46.0214900" lon="10.4054990">
	<ele>1471.60</ele>
	<time>2024-07-24T07:48:19.000Z</time>
</trkpt>
<trkpt lat="46.0214950" lon="10.4055090">
	<ele>1471.80</ele>
	<time>2024-07-24T07:48:20.000Z</time>
</trkpt>
<trkpt lat="46.0214970" lon="10.4055180">
	<ele>1472.00</ele>
	<time>2024-07-24T07:48:21.000Z</time>
</trkpt>
<trkpt lat="46.0214990" lon="10.4055260">
	<ele>1472.20</ele>
	<time>2024-07-24T07:48:22.000Z</time>
</trkpt>
<trkpt lat="46.0215010" lon="10.4055330">
	<ele>1472.40</ele>
	<time>2024-07-24T07:48:23.000Z</time>
</trkpt>
<trkpt lat="46.0214950" lon="10.4055440">
	<ele>1472.60</ele>
	<time>2024-07-24T07:48:24.000Z</time>
</trkpt>
<trkpt lat="46.0214920" lon="10.4055620">
	<ele>1472.60</ele>
	<time>2024-07-24T07:48:25.000Z</time>
</trkpt>
<trkpt lat="46.0214910" lon="10.4055700">
	<ele>1472.60</ele>
	<time>2024-07-24T07:48:26.000Z</time>
</trkpt>
<trkpt lat="46.0214860" lon="10.4055740">
	<ele>1473.00</ele>
	<time>2024-07-24T07:48:27.000Z</time>
</trkpt>
<trkpt lat="46.0214840" lon="10.4055810">
	<ele>1473.20</ele>
	<time>2024-07-24T07:48:28.000Z</time>
</trkpt>
<trkpt lat="46.0214790" lon="10.4055920">
	<ele>1473.40</ele>
	<time>2024-07-24T07:48:29.000Z</time>
</trkpt>
<trkpt lat="46.0214740" lon="10.4056050">
	<ele>1473.40</ele>
	<time>2024-07-24T07:48:30.000Z</time>
</trkpt>
<trkpt lat="46.0214730" lon="10.4056190">
	<ele>1473.60</ele>
	<time>2024-07-24T07:48:31.000Z</time>
</trkpt>
<trkpt lat="46.0214770" lon="10.4056370">
	<ele>1473.80</ele>
	<time>2024-07-24T07:48:32.000Z</time>
</trkpt>
<trkpt lat="46.0214810" lon="10.4056550">
	<ele>1473.80</ele>
	<time>2024-07-24T07:48:33.000Z</time>
</trkpt>
<trkpt lat="46.0214880" lon="10.4056760">
	<ele>1474.00</ele>
	<time>2024-07-24T07:48:34.000Z</time>
</trkpt>
<trkpt lat="46.0214940" lon="10.4056930">
	<ele>1474.20</ele>
	<time>2024-07-24T07:48:35.000Z</time>
</trkpt>
<trkpt lat="46.0214960" lon="10.4057080">
	<ele>1474.40</ele>
	<time>2024-07-24T07:48:36.000Z</time>
</trkpt>
<trkpt lat="46.0214940" lon="10.4057180">
	<ele>1474.60</ele>
	<time>2024-07-24T07:48:37.000Z</time>
</trkpt>
<trkpt lat="46.0214960" lon="10.4057300">
	<ele>1474.80</ele>
	<time>2024-07-24T07:48:38.000Z</time>
</trkpt>
<trkpt lat="46.0214950" lon="10.4057450">
	<ele>1475.00</ele>
	<time>2024-07-24T07:48:39.000Z</time>
</trkpt>
<trkpt lat="46.0214900" lon="10.4057640">
	<ele>1475.00</ele>
	<time>2024-07-24T07:48:40.000Z</time>
</trkpt>
<trkpt lat="46.0214850" lon="10.4057810">
	<ele>1475.20</ele>
	<time>2024-07-24T07:48:41.000Z</time>
</trkpt>
<trkpt lat="46.0214810" lon="10.4058020">
	<ele>1475.20</ele>
	<time>2024-07-24T07:48:42.000Z</time>
</trkpt>
<trkpt lat="46.0214760" lon="10.4058180">
	<ele>1475.20</ele>
	<time>2024-07-24T07:48:43.000Z</time>
</trkpt>
<trkpt lat="46.0214710" lon="10.4058320">
	<ele>1475.40</ele>
	<time>2024-07-24T07:48:44.000Z</time>
</trkpt>
<trkpt lat="46.0214750" lon="10.4058410">
	<ele>1475.60</ele>
	<time>2024-07-24T07:48:45.000Z</time>
</trkpt>
<trkpt lat="46.0214710" lon="10.4058490">
	<ele>1475.80</ele>
	<time>2024-07-24T07:48:46.000Z</time>
</trkpt>
<trkpt lat="46.0214700" lon="10.4058610">
	<ele>1475.80</ele>
	<time>2024-07-24T07:48:47.000Z</time>
</trkpt>
<trkpt lat="46.0214630" lon="10.4058760">
	<ele>1476.00</ele>
	<time>2024-07-24T07:48:48.000Z</time>
</trkpt>
<trkpt lat="46.0214600" lon="10.4058920">
	<ele>1476.00</ele>
	<time>2024-07-24T07:48:49.000Z</time>
</trkpt>
<trkpt lat="46.0214590" lon="10.4059030">
	<ele>1476.20</ele>
	<time>2024-07-24T07:48:50.000Z</time>
</trkpt>
<trkpt lat="46.0214580" lon="10.4059130">
	<ele>1476.60</ele>
	<time>2024-07-24T07:48:51.000Z</time>
</trkpt>
<trkpt lat="46.0214590" lon="10.4059190">
	<ele>1476.60</ele>
	<time>2024-07-24T07:48:52.000Z</time>
</trkpt>
<trkpt lat="46.0214580" lon="10.4059310">
	<ele>1476.80</ele>
	<time>2024-07-24T07:48:53.000Z</time>
</trkpt>
<trkpt lat="46.0214570" lon="10.4059430">
	<ele>1476.80</ele>
	<time>2024-07-24T07:48:54.000Z</time>
</trkpt>
<trkpt lat="46.0214530" lon="10.4059530">
	<ele>1477.00</ele>
	<time>2024-07-24T07:48:55.000Z</time>
</trkpt>
<trkpt lat="46.0214480" lon="10.4059630">
	<ele>1477.00</ele>
	<time>2024-07-24T07:48:56.000Z</time>
</trkpt>
<trkpt lat="46.0214430" lon="10.4059750">
	<ele>1477.20</ele>
	<time>2024-07-24T07:48:57.000Z</time>
</trkpt>
<trkpt lat="46.0214410" lon="10.4059860">
	<ele>1477.40</ele>
	<time>2024-07-24T07:48:58.000Z</time>
</trkpt>
<trkpt lat="46.0214380" lon="10.4059960">
	<ele>1477.60</ele>
	<time>2024-07-24T07:48:59.000Z</time>
</trkpt>
<trkpt lat="46.0214340" lon="10.4060030">
	<ele>1477.80</ele>
	<time>2024-07-24T07:49:00.000Z</time>
</trkpt>
<trkpt lat="46.0214320" lon="10.4060180">
	<ele>1478.00</ele>
	<time>2024-07-24T07:49:01.000Z</time>
</trkpt>
<trkpt lat="46.0214300" lon="10.4060290">
	<ele>1478.20</ele>
	<time>2024-07-24T07:49:02.000Z</time>
</trkpt>
<trkpt lat="46.0214290" lon="10.4060420">
	<ele>1478.20</ele>
	<time>2024-07-24T07:49:03.000Z</time>
</trkpt>
<trkpt lat="46.0214270" lon="10.4060520">
	<ele>1478.40</ele>
	<time>2024-07-24T07:49:04.000Z</time>
</trkpt>
<trkpt lat="46.0214260" lon="10.4060640">
	<ele>1478.60</ele>
	<time>2024-07-24T07:49:05.000Z</time>
</trkpt>
<trkpt lat="46.0214230" lon="10.4060730">
	<ele>1478.80</ele>
	<time>2024-07-24T07:49:06.000Z</time>
</trkpt>
<trkpt lat="46.0214230" lon="10.4060810">
	<ele>1479.00</ele>
	<time>2024-07-24T07:49:07.000Z</time>
</trkpt>
<trkpt lat="46.0214260" lon="10.4060870">
	<ele>1479.00</ele>
	<time>2024-07-24T07:49:08.000Z</time>
</trkpt>
<trkpt lat="46.0214290" lon="10.4061000">
	<ele>1479.20</ele>
	<time>2024-07-24T07:49:09.000Z</time>
</trkpt>
<trkpt lat="46.0214360" lon="10.4061140">
	<ele>1479.40</ele>
	<time>2024-07-24T07:49:10.000Z</time>
</trkpt>
<trkpt lat="46.0214430" lon="10.4061310">
	<ele>1479.40</ele>
	<time>2024-07-24T07:49:11.000Z</time>
</trkpt>
<trkpt lat="46.0214520" lon="10.4061440">
	<ele>1479.60</ele>
	<time>2024-07-24T07:49:12.000Z</time>
</trkpt>
<trkpt lat="46.0214660" lon="10.4061580">
	<ele>1479.60</ele>
	<time>2024-07-24T07:49:13.000Z</time>
</trkpt>
<trkpt lat="46.0214780" lon="10.4061690">
	<ele>1479.60</ele>
	<time>2024-07-24T07:49:14.000Z</time>
</trkpt>
<trkpt lat="46.0214870" lon="10.4061670">
	<ele>1479.80</ele>
	<time>2024-07-24T07:49:15.000Z</time>
</trkpt>
<trkpt lat="46.0214950" lon="10.4061610">
	<ele>1480.00</ele>
	<time>2024-07-24T07:49:16.000Z</time>
</trkpt>
<trkpt lat="46.0215020" lon="10.4061570">
	<ele>1480.00</ele>
	<time>2024-07-24T07:49:17.000Z</time>
</trkpt>
<trkpt lat="46.0215080" lon="10.4061500">
	<ele>1480.20</ele>
	<time>2024-07-24T07:49:18.000Z</time>
</trkpt>
<trkpt lat="46.0215150" lon="10.4061410">
	<ele>1480.20</ele>
	<time>2024-07-24T07:49:19.000Z</time>
</trkpt>
<trkpt lat="46.0215280" lon="10.4061360">
	<ele>1480.40</ele>
	<time>2024-07-24T07:49:20.000Z</time>
</trkpt>
<trkpt lat="46.0215320" lon="10.4061270">
	<ele>1480.40</ele>
	<time>2024-07-24T07:49:21.000Z</time>
</trkpt>
<trkpt lat="46.0215380" lon="10.4061180">
	<ele>1480.60</ele>
	<time>2024-07-24T07:49:22.000Z</time>
</trkpt>
<trkpt lat="46.0215500" lon="10.4061140">
	<ele>1480.80</ele>
	<time>2024-07-24T07:49:23.000Z</time>
</trkpt>
<trkpt lat="46.0215570" lon="10.4061050">
	<ele>1481.00</ele>
	<time>2024-07-24T07:49:24.000Z</time>
</trkpt>
<trkpt lat="46.0215630" lon="10.4060960">
	<ele>1481.00</ele>
	<time>2024-07-24T07:49:25.000Z</time>
</trkpt>
<trkpt lat="46.0215640" lon="10.4060770">
	<ele>1481.20</ele>
	<time>2024-07-24T07:49:26.000Z</time>
</trkpt>
<trkpt lat="46.0215700" lon="10.4060680">
	<ele>1481.40</ele>
	<time>2024-07-24T07:49:27.000Z</time>
</trkpt>
<trkpt lat="46.0215810" lon="10.4060610">
	<ele>1481.60</ele>
	<time>2024-07-24T07:49:28.000Z</time>
</trkpt>
<trkpt lat="46.0215910" lon="10.4060540">
	<ele>1481.80</ele>
	<time>2024-07-24T07:49:29.000Z</time>
</trkpt>
<trkpt lat="46.0216010" lon="10.4060480">
	<ele>1482.00</ele>
	<time>2024-07-24T07:49:30.000Z</time>
</trkpt>
<trkpt lat="46.0216090" lon="10.4060380">
	<ele>1482.20</ele>
	<time>2024-07-24T07:49:31.000Z</time>
</trkpt>
<trkpt lat="46.0216140" lon="10.4060270">
	<ele>1482.20</ele>
	<time>2024-07-24T07:49:32.000Z</time>
</trkpt>
<trkpt lat="46.0216220" lon="10.4060180">
	<ele>1482.40</ele>
	<time>2024-07-24T07:49:33.000Z</time>
</trkpt>
<trkpt lat="46.0216280" lon="10.4060120">
	<ele>1482.60</ele>
	<time>2024-07-24T07:49:34.000Z</time>
</trkpt>
<trkpt lat="46.0216350" lon="10.4060040">
	<ele>1482.60</ele>
	<time>2024-07-24T07:49:35.000Z</time>
</trkpt>
<trkpt lat="46.0216400" lon="10.4059930">
	<ele>1482.80</ele>
	<time>2024-07-24T07:49:36.000Z</time>
</trkpt>
<trkpt lat="46.0216520" lon="10.4059860">
	<ele>1483.00</ele>
	<time>2024-07-24T07:49:37.000Z</time>
</trkpt>
<trkpt lat="46.0216650" lon="10.4059770">
	<ele>1483.20</ele>
	<time>2024-07-24T07:49:38.000Z</time>
</trkpt>
<trkpt lat="46.0216750" lon="10.4059680">
	<ele>1483.20</ele>
	<time>2024-07-24T07:49:39.000Z</time>
</trkpt>
<trkpt lat="46.0216750" lon="10.4059470">
	<ele>1483.40</ele>
	<time>2024-07-24T07:49:40.000Z</time>
</trkpt>
<trkpt lat="46.0216820" lon="10.4059350">
	<ele>1483.40</ele>
	<time>2024-07-24T07:49:41.000Z</time>
</trkpt>
<trkpt lat="46.0216870" lon="10.4059270">
	<ele>1483.60</ele>
	<time>2024-07-24T07:49:42.000Z</time>
</trkpt>
<trkpt lat="46.0216950" lon="10.4059140">
	<ele>1483.60</ele>
	<time>2024-07-24T07:49:43.000Z</time>
</trkpt>
<trkpt lat="46.0217030" lon="10.4059020">
	<ele>1483.80</ele>
	<time>2024-07-24T07:49:44.000Z</time>
</trkpt>
<trkpt lat="46.0217110" lon="10.4058860">
	<ele>1483.80</ele>
	<time>2024-07-24T07:49:45.000Z</time>
</trkpt>
<trkpt lat="46.0217150" lon="10.4058750">
	<ele>1484.20</ele>
	<time>2024-07-24T07:49:46.000Z</time>
</trkpt>
<trkpt lat="46.0217210" lon="10.4058670">
	<ele>1484.20</ele>
	<time>2024-07-24T07:49:47.000Z</time>
</trkpt>
<trkpt lat="46.0217290" lon="10.4058580">
	<ele>1484.40</ele>
	<time>2024-07-24T07:49:48.000Z</time>
</trkpt>
<trkpt lat="46.0217380" lon="10.4058510">
	<ele>1484.40</ele>
	<time>2024-07-24T07:49:49.000Z</time>
</trkpt>
<trkpt lat="46.0217500" lon="10.4058460">
	<ele>1484.60</ele>
	<time>2024-07-24T07:49:50.000Z</time>
</trkpt>
<trkpt lat="46.0217590" lon="10.4058460">
	<ele>1484.60</ele>
	<time>2024-07-24T07:49:51.000Z</time>
</trkpt>
<trkpt lat="46.0217630" lon="10.4058350">
	<ele>1484.60</ele>
	<time>2024-07-24T07:49:52.000Z</time>
</trkpt>
<trkpt lat="46.0217700" lon="10.4058210">
	<ele>1484.80</ele>
	<time>2024-07-24T07:49:53.000Z</time>
</trkpt>
<trkpt lat="46.0217800" lon="10.4058060">
	<ele>1484.80</ele>
	<time>2024-07-24T07:49:54.000Z</time>
</trkpt>
<trkpt lat="46.0217960" lon="10.4057990">
	<ele>1485.00</ele>
	<time>2024-07-24T07:49:55.000Z</time>
</trkpt>
<trkpt lat="46.0218030" lon="10.4057920">
	<ele>1485.00</ele>
	<time>2024-07-24T07:49:56.000Z</time>
</trkpt>
<trkpt lat="46.0218080" lon="10.4057820">
	<ele>1485.20</ele>
	<time>2024-07-24T07:49:57.000Z</time>
</trkpt>
<trkpt lat="46.0218150" lon="10.4057760">
	<ele>1485.20</ele>
	<time>2024-07-24T07:49:58.000Z</time>
</trkpt>
<trkpt lat="46.0218220" lon="10.4057740">
	<ele>1485.40</ele>
	<time>2024-07-24T07:49:59.000Z</time>
</trkpt>
<trkpt lat="46.0218300" lon="10.4057680">
	<ele>1485.40</ele>
	<time>2024-07-24T07:50:00.000Z</time>
</trkpt>
<trkpt lat="46.0218320" lon="10.4057620">
	<ele>1485.60</ele>
	<time>2024-07-24T07:50:01.000Z</time>
</trkpt>
<trkpt lat="46.0218340" lon="10.4057550">
	<ele>1485.80</ele>
	<time>2024-07-24T07:50:02.000Z</time>
</trkpt>
<trkpt lat="46.0218380" lon="10.4057450">
	<ele>1485.80</ele>
	<time>2024-07-24T07:50:03.000Z</time>
</trkpt>
<trkpt lat="46.0218410" lon="10.4057370">
	<ele>1486.00</ele>
	<time>2024-07-24T07:50:04.000Z</time>
</trkpt>
<trkpt lat="46.0218430" lon="10.4057380">
	<ele>1486.00</ele>
	<time>2024-07-24T07:50:05.000Z</time>
</trkpt>
<trkpt lat="46.0218490" lon="10.4057320">
	<ele>1486.20</ele>
	<time>2024-07-24T07:50:06.000Z</time>
</trkpt>
<trkpt lat="46.0218600" lon="10.4057370">
	<ele>1486.20</ele>
	<time>2024-07-24T07:50:07.000Z</time>
</trkpt>
<trkpt lat="46.0218680" lon="10.4057360">
	<ele>1486.40</ele>
	<time>2024-07-24T07:50:08.000Z</time>
</trkpt>
<trkpt lat="46.0218790" lon="10.4057290">
	<ele>1486.60</ele>
	<time>2024-07-24T07:50:09.000Z</time>
</trkpt>
<trkpt lat="46.0219010" lon="10.4057160">
	<ele>1486.80</ele>
	<time>2024-07-24T07:50:10.000Z</time>
</trkpt>
<trkpt lat="46.0219220" lon="10.4057040">
	<ele>1486.80</ele>
	<time>2024-07-24T07:50:11.000Z</time>
</trkpt>
<trkpt lat="46.0219430" lon="10.4056930">
	<ele>1487.00</ele>
	<time>2024-07-24T07:50:12.000Z</time>
</trkpt>
<trkpt lat="46.0219570" lon="10.4056830">
	<ele>1487.00</ele>
	<time>2024-07-24T07:50:13.000Z</time>
</trkpt>
<trkpt lat="46.0219600" lon="10.4056800">
	<ele>1487.20</ele>
	<time>2024-07-24T07:50:14.000Z</time>
</trkpt>
<trkpt lat="46.0219650" lon="10.4056820">
	<ele>1487.20</ele>
	<time>2024-07-24T07:50:15.000Z</time>
</trkpt>
<trkpt lat="46.0219690" lon="10.4056820">
	<ele>1487.20</ele>
	<time>2024-07-24T07:50:16.000Z</time>
</trkpt>
<trkpt lat="46.0219800" lon="10.4056900">
	<ele>1487.40</ele>
	<time>2024-07-24T07:50:17.000Z</time>
</trkpt>
<trkpt lat="46.0219890" lon="10.4056930">
	<ele>1487.40</ele>
	<time>2024-07-24T07:50:18.000Z</time>
</trkpt>
<trkpt lat="46.0219970" lon="10.4056900">
	<ele>1487.60</ele>
	<time>2024-07-24T07:50:19.000Z</time>
</trkpt>
<trkpt lat="46.0220010" lon="10.4056770">
	<ele>1487.60</ele>
	<time>2024-07-24T07:50:20.000Z</time>
</trkpt>
<trkpt lat="46.0220070" lon="10.4056630">
	<ele>1487.60</ele>
	<time>2024-07-24T07:50:21.000Z</time>
</trkpt>
<trkpt lat="46.0220140" lon="10.4056510">
	<ele>1487.80</ele>
	<time>2024-07-24T07:50:22.000Z</time>
</trkpt>
<trkpt lat="46.0220200" lon="10.4056400">
	<ele>1487.80</ele>
	<time>2024-07-24T07:50:23.000Z</time>
</trkpt>
<trkpt lat="46.0220240" lon="10.4056340">
	<ele>1487.80</ele>
	<time>2024-07-24T07:50:24.000Z</time>
</trkpt>
<trkpt lat="46.0220400" lon="10.4056260">
	<ele>1487.80</ele>
	<time>2024-07-24T07:50:25.000Z</time>
</trkpt>
<trkpt lat="46.0220520" lon="10.4056160">
	<ele>1487.80</ele>
	<time>2024-07-24T07:50:26.000Z</time>
</trkpt>
<trkpt lat="46.0220590" lon="10.4056070">
	<ele>1487.80</ele>
	<time>2024-07-24T07:50:27.000Z</time>
</trkpt>
<trkpt lat="46.0220650" lon="10.4055880">
	<ele>1488.00</ele>
	<time>2024-07-24T07:50:28.000Z</time>
</trkpt>
<trkpt lat="46.0220720" lon="10.4055680">
	<ele>1488.00</ele>
	<time>2024-07-24T07:50:29.000Z</time>
</trkpt>
<trkpt lat="46.0220830" lon="10.4055460">
	<ele>1488.00</ele>
	<time>2024-07-24T07:50:30.000Z</time>
</trkpt>
<trkpt lat="46.0220950" lon="10.4055280">
	<ele>1488.00</ele>
	<time>2024-07-24T07:50:31.000Z</time>
</trkpt>
<trkpt lat="46.0221150" lon="10.4055210">
	<ele>1488.00</ele>
	<time>2024-07-24T07:50:32.000Z</time>
</trkpt>
<trkpt lat="46.0221300" lon="10.4055100">
	<ele>1488.20</ele>
	<time>2024-07-24T07:50:33.000Z</time>
</trkpt>
<trkpt lat="46.0221420" lon="10.4054900">
	<ele>1488.20</ele>
	<time>2024-07-24T07:50:34.000Z</time>
</trkpt>
<trkpt lat="46.0221480" lon="10.4054720">
	<ele>1488.40</ele>
	<time>2024-07-24T07:50:35.000Z</time>
</trkpt>
<trkpt lat="46.0221530" lon="10.4054550">
	<ele>1488.40</ele>
	<time>2024-07-24T07:50:36.000Z</time>
</trkpt>
<trkpt lat="46.0221610" lon="10.4054350">
	<ele>1488.40</ele>
	<time>2024-07-24T07:50:37.000Z</time>
</trkpt>
<trkpt lat="46.0221650" lon="10.4054130">
	<ele>1488.40</ele>
	<time>2024-07-24T07:50:38.000Z</time>
</trkpt>
<trkpt lat="46.0221770" lon="10.4053960">
	<ele>1488.40</ele>
	<time>2024-07-24T07:50:39.000Z</time>
</trkpt>
<trkpt lat="46.0221860" lon="10.4053760">
	<ele>1488.40</ele>
	<time>2024-07-24T07:50:40.000Z</time>
</trkpt>
<trkpt lat="46.0221840" lon="10.4053650">
	<ele>1488.40</ele>
	<time>2024-07-24T07:50:41.000Z</time>
</trkpt>
<trkpt lat="46.0221920" lon="10.4053570">
	<ele>1488.40</ele>
	<time>2024-07-24T07:50:42.000Z</time>
</trkpt>
<trkpt lat="46.0221980" lon="10.4053450">
	<ele>1488.60</ele>
	<time>2024-07-24T07:50:43.000Z</time>
</trkpt>
<trkpt lat="46.0222080" lon="10.4053240">
	<ele>1488.80</ele>
	<time>2024-07-24T07:50:44.000Z</time>
</trkpt>
<trkpt lat="46.0222120" lon="10.4053050">
	<ele>1488.80</ele>
	<time>2024-07-24T07:50:45.000Z</time>
</trkpt>
<trkpt lat="46.0222170" lon="10.4052870">
	<ele>1489.00</ele>
	<time>2024-07-24T07:50:46.000Z</time>
</trkpt>
<trkpt lat="46.0222240" lon="10.4052740">
	<ele>1489.00</ele>
	<time>2024-07-24T07:50:47.000Z</time>
</trkpt>
<trkpt lat="46.0222270" lon="10.4052660">
	<ele>1489.00</ele>
	<time>2024-07-24T07:50:48.000Z</time>
</trkpt>
<trkpt lat="46.0222310" lon="10.4052530">
	<ele>1489.20</ele>
	<time>2024-07-24T07:50:49.000Z</time>
</trkpt>
<trkpt lat="46.0222380" lon="10.4052410">
	<ele>1489.20</ele>
	<time>2024-07-24T07:50:50.000Z</time>
</trkpt>
<trkpt lat="46.0222440" lon="10.4052250">
	<ele>1489.20</ele>
	<time>2024-07-24T07:50:51.000Z</time>
</trkpt>
<trkpt lat="46.0222520" lon="10.4052100">
	<ele>1489.40</ele>
	<time>2024-07-24T07:50:52.000Z</time>
</trkpt>
<trkpt lat="46.0222600" lon="10.4051960">
	<ele>1489.60</ele>
	<time>2024-07-24T07:50:53.000Z</time>
</trkpt>
<trkpt lat="46.0222640" lon="10.4051810">
	<ele>1489.60</ele>
	<time>2024-07-24T07:50:54.000Z</time>
</trkpt>
<trkpt lat="46.0222670" lon="10.4051670">
	<ele>1489.80</ele>
	<time>2024-07-24T07:50:55.000Z</time>
</trkpt>
<trkpt lat="46.0222750" lon="10.4051490">
	<ele>1490.00</ele>
	<time>2024-07-24T07:50:56.000Z</time>
</trkpt>
<trkpt lat="46.0222840" lon="10.4051350">
	<ele>1490.00</ele>
	<time>2024-07-24T07:50:57.000Z</time>
</trkpt>
<trkpt lat="46.0222910" lon="10.4051190">
	<ele>1490.20</ele>
	<time>2024-07-24T07:50:58.000Z</time>
</trkpt>
<trkpt lat="46.0223010" lon="10.4051100">
	<ele>1490.20</ele>
	<time>2024-07-24T07:50:59.000Z</time>
</trkpt>
<trkpt lat="46.0223110" lon="10.4050990">
	<ele>1490.40</ele>
	<time>2024-07-24T07:51:00.000Z</time>
</trkpt>
<trkpt lat="46.0223160" lon="10.4050900">
	<ele>1490.60</ele>
	<time>2024-07-24T07:51:01.000Z</time>
</trkpt>
<trkpt lat="46.0223350" lon="10.4050800">
	<ele>1490.60</ele>
	<time>2024-07-24T07:51:02.000Z</time>
</trkpt>
<trkpt lat="46.0223460" lon="10.4050780">
	<ele>1490.80</ele>
	<time>2024-07-24T07:51:03.000Z</time>
</trkpt>
<trkpt lat="46.0223520" lon="10.4050760">
	<ele>1491.00</ele>
	<time>2024-07-24T07:51:04.000Z</time>
</trkpt>
<trkpt lat="46.0223660" lon="10.4050700">
	<ele>1491.00</ele>
	<time>2024-07-24T07:51:05.000Z</time>
</trkpt>
<trkpt lat="46.0223800" lon="10.4050700">
	<ele>1491.20</ele>
	<time>2024-07-24T07:51:06.000Z</time>
</trkpt>
<trkpt lat="46.0223880" lon="10.4050660">
	<ele>1491.40</ele>
	<time>2024-07-24T07:51:07.000Z</time>
</trkpt>
<trkpt lat="46.0223950" lon="10.4050650">
	<ele>1491.60</ele>
	<time>2024-07-24T07:51:08.000Z</time>
</trkpt>
<trkpt lat="46.0224040" lon="10.4050640">
	<ele>1491.80</ele>
	<time>2024-07-24T07:51:09.000Z</time>
</trkpt>
<trkpt lat="46.0224060" lon="10.4050740">
	<ele>1492.00</ele>
	<time>2024-07-24T07:51:10.000Z</time>
</trkpt>
<trkpt lat="46.0224130" lon="10.4050850">
	<ele>1492.20</ele>
	<time>2024-07-24T07:51:11.000Z</time>
</trkpt>
<trkpt lat="46.0224220" lon="10.4050880">
	<ele>1492.40</ele>
	<time>2024-07-24T07:51:12.000Z</time>
</trkpt>
<trkpt lat="46.0224240" lon="10.4050980">
	<ele>1492.60</ele>
	<time>2024-07-24T07:51:13.000Z</time>
</trkpt>
<trkpt lat="46.0224230" lon="10.4051070">
	<ele>1492.80</ele>
	<time>2024-07-24T07:51:14.000Z</time>
</trkpt>
<trkpt lat="46.0224230" lon="10.4051150">
	<ele>1492.80</ele>
	<time>2024-07-24T07:51:15.000Z</time>
</trkpt>
<trkpt lat="46.0224210" lon="10.4051240">
	<ele>1493.00</ele>
	<time>2024-07-24T07:51:16.000Z</time>
</trkpt>
<trkpt lat="46.0224150" lon="10.4051210">
	<ele>1493.00</ele>
	<time>2024-07-24T07:51:17.000Z</time>
</trkpt>
<trkpt lat="46.0224080" lon="10.4051200">
	<ele>1493.20</ele>
	<time>2024-07-24T07:51:18.000Z</time>
</trkpt>
<trkpt lat="46.0224020" lon="10.4051270">
	<ele>1493.40</ele>
	<time>2024-07-24T07:51:19.000Z</time>
</trkpt>
<trkpt lat="46.0223920" lon="10.4051320">
	<ele>1493.60</ele>
	<time>2024-07-24T07:51:20.000Z</time>
</trkpt>
<trkpt lat="46.0223860" lon="10.4051370">
	<ele>1493.60</ele>
	<time>2024-07-24T07:51:21.000Z</time>
</trkpt>
<trkpt lat="46.0223790" lon="10.4051420">
	<ele>1493.80</ele>
	<time>2024-07-24T07:51:22.000Z</time>
</trkpt>
<trkpt lat="46.0223710" lon="10.4051490">
	<ele>1494.00</ele>
	<time>2024-07-24T07:51:23.000Z</time>
</trkpt>
<trkpt lat="46.0223640" lon="10.4051540">
	<ele>1494.20</ele>
	<time>2024-07-24T07:51:24.000Z</time>
</trkpt>
<trkpt lat="46.0223620" lon="10.4051580">
	<ele>1494.20</ele>
	<time>2024-07-24T07:51:25.000Z</time>
</trkpt>
<trkpt lat="46.0223610" lon="10.4051640">
	<ele>1494.40</ele>
	<time>2024-07-24T07:51:26.000Z</time>
</trkpt>
<trkpt lat="46.0223610" lon="10.4051660">
	<ele>1494.40</ele>
	<time>2024-07-24T07:51:27.000Z</time>
</trkpt>
<trkpt lat="46.0223690" lon="10.4051730">
	<ele>1494.60</ele>
	<time>2024-07-24T07:51:28.000Z</time>
</trkpt>
<trkpt lat="46.0223710" lon="10.4051730">
	<ele>1494.80</ele>
	<time>2024-07-24T07:51:29.000Z</time>
</trkpt>
<trkpt lat="46.0223690" lon="10.4051730">
	<ele>1494.80</ele>
	<time>2024-07-24T07:51:30.000Z</time>
</trkpt>
<trkpt lat="46.0223690" lon="10.4051720">
	<ele>1494.80</ele>
	<time>2024-07-24T07:51:31.000Z</time>
</trkpt>
<trkpt lat="46.0223700" lon="10.4051720">
	<ele>1495.00</ele>
	<time>2024-07-24T07:51:32.000Z</time>
</trkpt>
<trkpt lat="46.0223720" lon="10.4051720">
	<ele>1495.00</ele>
	<time>2024-07-24T07:51:33.000Z</time>
</trkpt>
<trkpt lat="46.0223720" lon="10.4051720">
	<ele>1494.80</ele>
	<time>2024-07-24T07:51:34.000Z</time>
</trkpt>
<trkpt lat="46.0223710" lon="10.4051710">
	<ele>1494.80</ele>
	<time>2024-07-24T07:51:35.000Z</time>
</trkpt>
<trkpt lat="46.0223720" lon="10.4051700">
	<ele>1494.80</ele>
	<time>2024-07-24T07:51:36.000Z</time>
</trkpt>
<trkpt lat="46.0223740" lon="10.4051710">
	<ele>1494.80</ele>
	<time>2024-07-24T07:51:37.000Z</time>
</trkpt>
<trkpt lat="46.0223800" lon="10.4051770">
	<ele>1494.80</ele>
	<time>2024-07-24T07:51:38.000Z</time>
</trkpt>
<trkpt lat="46.0223730" lon="10.4051860">
	<ele>1495.00</ele>
	<time>2024-07-24T07:51:39.000Z</time>
</trkpt>
<trkpt lat="46.0223640" lon="10.4051920">
	<ele>1495.00</ele>
	<time>2024-07-24T07:51:40.000Z</time>
</trkpt>
<trkpt lat="46.0223610" lon="10.4051990">
	<ele>1495.20</ele>
	<time>2024-07-24T07:51:41.000Z</time>
</trkpt>
<trkpt lat="46.0223560" lon="10.4052080">
	<ele>1495.20</ele>
	<time>2024-07-24T07:51:42.000Z</time>
</trkpt>
<trkpt lat="46.0223530" lon="10.4052100">
	<ele>1495.40</ele>
	<time>2024-07-24T07:51:43.000Z</time>
</trkpt>
<trkpt lat="46.0223520" lon="10.4052130">
	<ele>1495.40</ele>
	<time>2024-07-24T07:51:44.000Z</time>
</trkpt>
<trkpt lat="46.0223580" lon="10.4052140">
	<ele>1495.60</ele>
	<time>2024-07-24T07:51:45.000Z</time>
</trkpt>
<trkpt lat="46.0223660" lon="10.4052200">
	<ele>1495.60</ele>
	<time>2024-07-24T07:51:46.000Z</time>
</trkpt>
<trkpt lat="46.0223740" lon="10.4052320">
	<ele>1495.80</ele>
	<time>2024-07-24T07:51:47.000Z</time>
</trkpt>
<trkpt lat="46.0223750" lon="10.4052470">
	<ele>1495.80</ele>
	<time>2024-07-24T07:51:48.000Z</time>
</trkpt>
<trkpt lat="46.0223720" lon="10.4052650">
	<ele>1496.00</ele>
	<time>2024-07-24T07:51:49.000Z</time>
</trkpt>
<trkpt lat="46.0223650" lon="10.4052720">
	<ele>1496.00</ele>
	<time>2024-07-24T07:51:50.000Z</time>
</trkpt>
<trkpt lat="46.0223570" lon="10.4052810">
	<ele>1496.40</ele>
	<time>2024-07-24T07:51:51.000Z</time>
</trkpt>
<trkpt lat="46.0223500" lon="10.4052940">
	<ele>1496.40</ele>
	<time>2024-07-24T07:51:52.000Z</time>
</trkpt>
<trkpt lat="46.0223470" lon="10.4053050">
	<ele>1496.60</ele>
	<time>2024-07-24T07:51:53.000Z</time>
</trkpt>
<trkpt lat="46.0223450" lon="10.4053230">
	<ele>1496.80</ele>
	<time>2024-07-24T07:51:54.000Z</time>
</trkpt>
<trkpt lat="46.0223450" lon="10.4053440">
	<ele>1496.80</ele>
	<time>2024-07-24T07:51:55.000Z</time>
</trkpt>
<trkpt lat="46.0223430" lon="10.4053630">
	<ele>1497.00</ele>
	<time>2024-07-24T07:51:56.000Z</time>
</trkpt>
<trkpt lat="46.0223460" lon="10.4053830">
	<ele>1497.20</ele>
	<time>2024-07-24T07:51:57.000Z</time>
</trkpt>
<trkpt lat="46.0223440" lon="10.4053990">
	<ele>1497.40</ele>
	<time>2024-07-24T07:51:58.000Z</time>
</trkpt>
<trkpt lat="46.0223470" lon="10.4054150">
	<ele>1497.40</ele>
	<time>2024-07-24T07:51:59.000Z</time>
</trkpt>
<trkpt lat="46.0223430" lon="10.4054350">
	<ele>1497.80</ele>
	<time>2024-07-24T07:52:00.000Z</time>
</trkpt>
<trkpt lat="46.0223360" lon="10.4054410">
	<ele>1498.00</ele>
	<time>2024-07-24T07:52:01.000Z</time>
</trkpt>
<trkpt lat="46.0223340" lon="10.4054390">
	<ele>1498.20</ele>
	<time>2024-07-24T07:52:02.000Z</time>
</trkpt>
<trkpt lat="46.0223200" lon="10.4054440">
	<ele>1498.40</ele>
	<time>2024-07-24T07:52:03.000Z</time>
</trkpt>
<trkpt lat="46.0223230" lon="10.4054570">
	<ele>1498.60</ele>
	<time>2024-07-24T07:52:04.000Z</time>
</trkpt>
<trkpt lat="46.0223290" lon="10.4054780">
	<ele>1498.80</ele>
	<time>2024-07-24T07:52:05.000Z</time>
</trkpt>
<trkpt lat="46.0223370" lon="10.4054980">
	<ele>1499.00</ele>
	<time>2024-07-24T07:52:06.000Z</time>
</trkpt>
<trkpt lat="46.0223330" lon="10.4055200">
	<ele>1499.20</ele>
	<time>2024-07-24T07:52:07.000Z</time>
</trkpt>
<trkpt lat="46.0223320" lon="10.4055190">
	<ele>1499.20</ele>
	<time>2024-07-24T07:52:08.000Z</time>
</trkpt>
<trkpt lat="46.0223330" lon="10.4055160">
	<ele>1499.40</ele>
	<time>2024-07-24T07:52:09.000Z</time>
</trkpt>
<trkpt lat="46.0223350" lon="10.4055240">
	<ele>1499.60</ele>
	<time>2024-07-24T07:52:10.000Z</time>
</trkpt>
<trkpt lat="46.0223350" lon="10.4055390">
	<ele>1500.00</ele>
	<time>2024-07-24T07:52:11.000Z</time>
</trkpt>
<trkpt lat="46.0223330" lon="10.4055670">
	<ele>1500.20</ele>
	<time>2024-07-24T07:52:12.000Z</time>
</trkpt>
<trkpt lat="46.0223380" lon="10.4056080">
	<ele>1500.40</ele>
	<time>2024-07-24T07:52:13.000Z</time>
</trkpt>
<trkpt lat="46.0223310" lon="10.4056150">
	<ele>1500.60</ele>
	<time>2024-07-24T07:52:14.000Z</time>
</trkpt>
<trkpt lat="46.0223250" lon="10.4056240">
	<ele>1500.80</ele>
	<time>2024-07-24T07:52:15.000Z</time>
</trkpt>
<trkpt lat="46.0223240" lon="10.4056420">
	<ele>1500.80</ele>
	<time>2024-07-24T07:52:16.000Z</time>
</trkpt>
<trkpt lat="46.0223230" lon="10.4056530">
	<ele>1501.00</ele>
	<time>2024-07-24T07:52:17.000Z</time>
</trkpt>
<trkpt lat="46.0223190" lon="10.4056670">
	<ele>1501.20</ele>
	<time>2024-07-24T07:52:18.000Z</time>
</trkpt>
<trkpt lat="46.0223130" lon="10.4056850">
	<ele>1501.40</ele>
	<time>2024-07-24T07:52:19.000Z</time>
</trkpt>
<trkpt lat="46.0223040" lon="10.4056960">
	<ele>1501.40</ele>
	<time>2024-07-24T07:52:20.000Z</time>
</trkpt>
<trkpt lat="46.0222930" lon="10.4057080">
	<ele>1501.60</ele>
	<time>2024-07-24T07:52:21.000Z</time>
</trkpt>
<trkpt lat="46.0222880" lon="10.4057220">
	<ele>1501.80</ele>
	<time>2024-07-24T07:52:22.000Z</time>
</trkpt>
<trkpt lat="46.0222850" lon="10.4057300">
	<ele>1501.80</ele>
	<time>2024-07-24T07:52:23.000Z</time>
</trkpt>
<trkpt lat="46.0222840" lon="10.4057420">
	<ele>1501.80</ele>
	<time>2024-07-24T07:52:24.000Z</time>
</trkpt>
<trkpt lat="46.0222840" lon="10.4057580">
	<ele>1502.00</ele>
	<time>2024-07-24T07:52:25.000Z</time>
</trkpt>
<trkpt lat="46.0222860" lon="10.4057720">
	<ele>1502.00</ele>
	<time>2024-07-24T07:52:26.000Z</time>
</trkpt>
<trkpt lat="46.0222850" lon="10.4057860">
	<ele>1502.00</ele>
	<time>2024-07-24T07:52:27.000Z</time>
</trkpt>
<trkpt lat="46.0222860" lon="10.4057990">
	<ele>1502.20</ele>
	<time>2024-07-24T07:52:28.000Z</time>
</trkpt>
<trkpt lat="46.0222870" lon="10.4058080">
	<ele>1502.40</ele>
	<time>2024-07-24T07:52:29.000Z</time>
</trkpt>
<trkpt lat="46.0222880" lon="10.4058180">
	<ele>1502.60</ele>
	<time>2024-07-24T07:52:30.000Z</time>
</trkpt>
<trkpt lat="46.0222900" lon="10.4058290">
	<ele>1502.60</ele>
	<time>2024-07-24T07:52:31.000Z</time>
</trkpt>
<trkpt lat="46.0222910" lon="10.4058380">
	<ele>1502.60</ele>
	<time>2024-07-24T07:52:32.000Z</time>
</trkpt>
<trkpt lat="46.0222910" lon="10.4058530">
	<ele>1502.60</ele>
	<time>2024-07-24T07:52:33.000Z</time>
</trkpt>
<trkpt lat="46.0222920" lon="10.4058670">
	<ele>1502.80</ele>
	<time>2024-07-24T07:52:34.000Z</time>
</trkpt>
<trkpt lat="46.0222930" lon="10.4058740">
	<ele>1502.80</ele>
	<time>2024-07-24T07:52:35.000Z</time>
</trkpt>
<trkpt lat="46.0222940" lon="10.4058840">
	<ele>1502.80</ele>
	<time>2024-07-24T07:52:36.000Z</time>
</trkpt>
<trkpt lat="46.0222970" lon="10.4058860">
	<ele>1503.00</ele>
	<time>2024-07-24T07:52:37.000Z</time>
</trkpt>
<trkpt lat="46.0222990" lon="10.4058900">
	<ele>1503.20</ele>
	<time>2024-07-24T07:52:38.000Z</time>
</trkpt>
<trkpt lat="46.0223000" lon="10.4058900">
	<ele>1503.20</ele>
	<time>2024-07-24T07:52:39.000Z</time>
</trkpt>
<trkpt lat="46.0223000" lon="10.4058900">
	<ele>1503.40</ele>
	<time>2024-07-24T07:52:40.000Z</time>
</trkpt>
<trkpt lat="46.0223000" lon="10.4058890">
	<ele>1503.40</ele>
	<time>2024-07-24T07:52:41.000Z</time>
</trkpt>
<trkpt lat="46.0223000" lon="10.4058900">
	<ele>1503.40</ele>
	<time>2024-07-24T07:52:42.000Z</time>
</trkpt>
<trkpt lat="46.0222990" lon="10.4058900">
	<ele>1503.40</ele>
	<time>2024-07-24T07:52:43.000Z</time>
</trkpt>
<trkpt lat="46.0222970" lon="10.4058900">
	<ele>1503.40</ele>
	<time>2024-07-24T07:52:44.000Z</time>
</trkpt>
<trkpt lat="46.0222920" lon="10.4058800">
	<ele>1503.60</ele>
	<time>2024-07-24T07:52:45.000Z</time>
</trkpt>
<trkpt lat="46.0222810" lon="10.4058710">
	<ele>1503.60</ele>
	<time>2024-07-24T07:52:46.000Z</time>
</trkpt>
<trkpt lat="46.0222690" lon="10.4058670">
	<ele>1503.60</ele>
	<time>2024-07-24T07:52:47.000Z</time>
</trkpt>
<trkpt lat="46.0222650" lon="10.4058790">
	<ele>1503.60</ele>
	<time>2024-07-24T07:52:48.000Z</time>
</trkpt>
<trkpt lat="46.0222620" lon="10.4058930">
	<ele>1503.60</ele>
	<time>2024-07-24T07:52:49.000Z</time>
</trkpt>
<trkpt lat="46.0222610" lon="10.4059090">
	<ele>1503.60</ele>
	<time>2024-07-24T07:52:50.000Z</time>
</trkpt>
<trkpt lat="46.0222590" lon="10.4059160">
	<ele>1503.60</ele>
	<time>2024-07-24T07:52:51.000Z</time>
</trkpt>
<trkpt lat="46.0222580" lon="10.4059260">
	<ele>1503.80</ele>
	<time>2024-07-24T07:52:52.000Z</time>
</trkpt>
<trkpt lat="46.0222540" lon="10.4059370">
	<ele>1503.80</ele>
	<time>2024-07-24T07:52:53.000Z</time>
</trkpt>
<trkpt lat="46.0222530" lon="10.4059440">
	<ele>1503.80</ele>
	<time>2024-07-24T07:52:54.000Z</time>
</trkpt>
<trkpt lat="46.0222500" lon="10.4059480">
	<ele>1504.00</ele>
	<time>2024-07-24T07:52:55.000Z</time>
</trkpt>
<trkpt lat="46.0222460" lon="10.4059640">
	<ele>1504.00</ele>
	<time>2024-07-24T07:52:56.000Z</time>
</trkpt>
<trkpt lat="46.0222380" lon="10.4059790">
	<ele>1504.20</ele>
	<time>2024-07-24T07:52:57.000Z</time>
</trkpt>
<trkpt lat="46.0222390" lon="10.4059950">
	<ele>1504.40</ele>
	<time>2024-07-24T07:52:58.000Z</time>
</trkpt>
<trkpt lat="46.0222320" lon="10.4059960">
	<ele>1504.60</ele>
	<time>2024-07-24T07:52:59.000Z</time>
</trkpt>
<trkpt lat="46.0222280" lon="10.4060030">
	<ele>1504.80</ele>
	<time>2024-07-24T07:53:00.000Z</time>
</trkpt>
<trkpt lat="46.0222280" lon="10.4060170">
	<ele>1505.00</ele>
	<time>2024-07-24T07:53:01.000Z</time>
</trkpt>
<trkpt lat="46.0222260" lon="10.4060220">
	<ele>1505.20</ele>
	<time>2024-07-24T07:53:02.000Z</time>
</trkpt>
<trkpt lat="46.0222220" lon="10.4060270">
	<ele>1505.60</ele>
	<time>2024-07-24T07:53:03.000Z</time>
</trkpt>
<trkpt lat="46.0222200" lon="10.4060350">
	<ele>1505.60</ele>
	<time>2024-07-24T07:53:04.000Z</time>
</trkpt>
<trkpt lat="46.0222220" lon="10.4060470">
	<ele>1506.00</ele>
	<time>2024-07-24T07:53:05.000Z</time>
</trkpt>
<trkpt lat="46.0222190" lon="10.4060610">
	<ele>1506.00</ele>
	<time>2024-07-24T07:53:06.000Z</time>
</trkpt>
<trkpt lat="46.0222170" lon="10.4060770">
	<ele>1506.20</ele>
	<time>2024-07-24T07:53:07.000Z</time>
</trkpt>
<trkpt lat="46.0222140" lon="10.4060930">
	<ele>1506.20</ele>
	<time>2024-07-24T07:53:08.000Z</time>
</trkpt>
<trkpt lat="46.0222090" lon="10.4061070">
	<ele>1506.40</ele>
	<time>2024-07-24T07:53:09.000Z</time>
</trkpt>
<trkpt lat="46.0222030" lon="10.4061220">
	<ele>1506.40</ele>
	<time>2024-07-24T07:53:10.000Z</time>
</trkpt>
<trkpt lat="46.0222050" lon="10.4061400">
	<ele>1506.80</ele>
	<time>2024-07-24T07:53:11.000Z</time>
</trkpt>
<trkpt lat="46.0222090" lon="10.4061550">
	<ele>1506.80</ele>
	<time>2024-07-24T07:53:12.000Z</time>
</trkpt>
<trkpt lat="46.0222090" lon="10.4061730">
	<ele>1507.00</ele>
	<time>2024-07-24T07:53:13.000Z</time>
</trkpt>
<trkpt lat="46.0222080" lon="10.4061880">
	<ele>1507.40</ele>
	<time>2024-07-24T07:53:14.000Z</time>
</trkpt>
<trkpt lat="46.0222070" lon="10.4062000">
	<ele>1507.60</ele>
	<time>2024-07-24T07:53:15.000Z</time>
</trkpt>
<trkpt lat="46.0222080" lon="10.4062170">
	<ele>1507.80</ele>
	<time>2024-07-24T07:53:16.000Z</time>
</trkpt>
<trkpt lat="46.0222080" lon="10.4062400">
	<ele>1507.80</ele>
	<time>2024-07-24T07:53:17.000Z</time>
</trkpt>
<trkpt lat="46.0222030" lon="10.4062570">
	<ele>1508.20</ele>
	<time>2024-07-24T07:53:18.000Z</time>
</trkpt>
<trkpt lat="46.0221950" lon="10.4062840">
	<ele>1508.20</ele>
	<time>2024-07-24T07:53:19.000Z</time>
</trkpt>
<trkpt lat="46.0221760" lon="10.4063010">
	<ele>1508.40</ele>
	<time>2024-07-24T07:53:20.000Z</time>
</trkpt>
<trkpt lat="46.0221640" lon="10.4063200">
	<ele>1508.40</ele>
	<time>2024-07-24T07:53:21.000Z</time>
</trkpt>
<trkpt lat="46.0221480" lon="10.4063310">
	<ele>1508.40</ele>
	<time>2024-07-24T07:53:22.000Z</time>
</trkpt>
<trkpt lat="46.0221410" lon="10.4063450">
	<ele>1508.40</ele>
	<time>2024-07-24T07:53:23.000Z</time>
</trkpt>
<trkpt lat="46.0221350" lon="10.4063620">
	<ele>1508.60</ele>
	<time>2024-07-24T07:53:24.000Z</time>
</trkpt>
<trkpt lat="46.0221340" lon="10.4063730">
	<ele>1508.60</ele>
	<time>2024-07-24T07:53:25.000Z</time>
</trkpt>
<trkpt lat="46.0221310" lon="10.4063800">
	<ele>1508.80</ele>
	<time>2024-07-24T07:53:26.000Z</time>
</trkpt>
<trkpt lat="46.0221240" lon="10.4063790">
	<ele>1508.80</ele>
	<time>2024-07-24T07:53:27.000Z</time>
</trkpt>
<trkpt lat="46.0221110" lon="10.4063730">
	<ele>1509.00</ele>
	<time>2024-07-24T07:53:28.000Z</time>
</trkpt>
<trkpt lat="46.0221010" lon="10.4063730">
	<ele>1509.20</ele>
	<time>2024-07-24T07:53:29.000Z</time>
</trkpt>
<trkpt lat="46.0220980" lon="10.4063900">
	<ele>1509.40</ele>
	<time>2024-07-24T07:53:30.000Z</time>
</trkpt>
<trkpt lat="46.0221050" lon="10.4064110">
	<ele>1509.60</ele>
	<time>2024-07-24T07:53:31.000Z</time>
</trkpt>
<trkpt lat="46.0221020" lon="10.4064240">
	<ele>1509.80</ele>
	<time>2024-07-24T07:53:32.000Z</time>
</trkpt>
<trkpt lat="46.0220970" lon="10.4064470">
	<ele>1509.80</ele>
	<time>2024-07-24T07:53:33.000Z</time>
</trkpt>
<trkpt lat="46.0220970" lon="10.4064610">
	<ele>1510.00</ele>
	<time>2024-07-24T07:53:34.000Z</time>
</trkpt>
<trkpt lat="46.0220950" lon="10.4064770">
	<ele>1510.20</ele>
	<time>2024-07-24T07:53:35.000Z</time>
</trkpt>
<trkpt lat="46.0220880" lon="10.4064850">
	<ele>1510.40</ele>
	<time>2024-07-24T07:53:36.000Z</time>
</trkpt>
<trkpt lat="46.0220780" lon="10.4064980">
	<ele>1510.40</ele>
	<time>2024-07-24T07:53:37.000Z</time>
</trkpt>
<trkpt lat="46.0220690" lon="10.4065120">
	<ele>1510.60</ele>
	<time>2024-07-24T07:53:38.000Z</time>
</trkpt>
<trkpt lat="46.0220680" lon="10.4065330">
	<ele>1510.60</ele>
	<time>2024-07-24T07:53:39.000Z</time>
</trkpt>
<trkpt lat="46.0220690" lon="10.4065540">
	<ele>1510.80</ele>
	<time>2024-07-24T07:53:40.000Z</time>
</trkpt>
<trkpt lat="46.0220670" lon="10.4065800">
	<ele>1511.00</ele>
	<time>2024-07-24T07:53:41.000Z</time>
</trkpt>
<trkpt lat="46.0220710" lon="10.4066020">
	<ele>1511.00</ele>
	<time>2024-07-24T07:53:42.000Z</time>
</trkpt>
<trkpt lat="46.0220770" lon="10.4066210">
	<ele>1511.20</ele>
	<time>2024-07-24T07:53:43.000Z</time>
</trkpt>
<trkpt lat="46.0220740" lon="10.4066310">
	<ele>1511.40</ele>
	<time>2024-07-24T07:53:44.000Z</time>
</trkpt>
<trkpt lat="46.0220710" lon="10.4066450">
	<ele>1511.40</ele>
	<time>2024-07-24T07:53:45.000Z</time>
</trkpt>
<trkpt lat="46.0220680" lon="10.4066600">
	<ele>1511.60</ele>
	<time>2024-07-24T07:53:46.000Z</time>
</trkpt>
<trkpt lat="46.0220680" lon="10.4066730">
	<ele>1511.60</ele>
	<time>2024-07-24T07:53:47.000Z</time>
</trkpt>
<trkpt lat="46.0220750" lon="10.4067000">
	<ele>1511.80</ele>
	<time>2024-07-24T07:53:48.000Z</time>
</trkpt>
<trkpt lat="46.0220860" lon="10.4067340">
	<ele>1511.80</ele>
	<time>2024-07-24T07:53:49.000Z</time>
</trkpt>
<trkpt lat="46.0220900" lon="10.4067550">
	<ele>1512.00</ele>
	<time>2024-07-24T07:53:50.000Z</time>
</trkpt>
<trkpt lat="46.0220930" lon="10.4067730">
	<ele>1512.00</ele>
	<time>2024-07-24T07:53:51.000Z</time>
</trkpt>
<trkpt lat="46.0220950" lon="10.4067910">
	<ele>1512.20</ele>
	<time>2024-07-24T07:53:52.000Z</time>
</trkpt>
<trkpt lat="46.0220950" lon="10.4067990">
	<ele>1512.40</ele>
	<time>2024-07-24T07:53:53.000Z</time>
</trkpt>
<trkpt lat="46.0220960" lon="10.4068050">
	<ele>1512.60</ele>
	<time>2024-07-24T07:53:54.000Z</time>
</trkpt>
<trkpt lat="46.0220900" lon="10.4068120">
	<ele>1512.80</ele>
	<time>2024-07-24T07:53:55.000Z</time>
</trkpt>
<trkpt lat="46.0220870" lon="10.4068270">
	<ele>1512.80</ele>
	<time>2024-07-24T07:53:56.000Z</time>
</trkpt>
<trkpt lat="46.0220870" lon="10.4068370">
	<ele>1513.20</ele>
	<time>2024-07-24T07:53:57.000Z</time>
</trkpt>
<trkpt lat="46.0220880" lon="10.4068490">
	<ele>1513.20</ele>
	<time>2024-07-24T07:53:58.000Z</time>
</trkpt>
<trkpt lat="46.0220950" lon="10.4068620">
	<ele>1513.40</ele>
	<time>2024-07-24T07:53:59.000Z</time>
</trkpt>
<trkpt lat="46.0221030" lon="10.4068710">
	<ele>1513.60</ele>
	<time>2024-07-24T07:54:00.000Z</time>
</trkpt>
<trkpt lat="46.0221130" lon="10.4068770">
	<ele>1514.00</ele>
	<time>2024-07-24T07:54:01.000Z</time>
</trkpt>
<trkpt lat="46.0221160" lon="10.4068840">
	<ele>1514.20</ele>
	<time>2024-07-24T07:54:02.000Z</time>
</trkpt>
<trkpt lat="46.0221160" lon="10.4068960">
	<ele>1514.40</ele>
	<time>2024-07-24T07:54:03.000Z</time>
</trkpt>
<trkpt lat="46.0221150" lon="10.4069170">
	<ele>1514.60</ele>
	<time>2024-07-24T07:54:04.000Z</time>
</trkpt>
<trkpt lat="46.0221140" lon="10.4069450">
	<ele>1514.60</ele>
	<time>2024-07-24T07:54:05.000Z</time>
</trkpt>
<trkpt lat="46.0221150" lon="10.4069690">
	<ele>1514.80</ele>
	<time>2024-07-24T07:54:06.000Z</time>
</trkpt>
<trkpt lat="46.0221150" lon="10.4069930">
	<ele>1514.80</ele>
	<time>2024-07-24T07:54:07.000Z</time>
</trkpt>
<trkpt lat="46.0221180" lon="10.4070110">
	<ele>1515.00</ele>
	<time>2024-07-24T07:54:08.000Z</time>
</trkpt>
<trkpt lat="46.0221180" lon="10.4070280">
	<ele>1515.40</ele>
	<time>2024-07-24T07:54:09.000Z</time>
</trkpt>
<trkpt lat="46.0221160" lon="10.4070370">
	<ele>1515.60</ele>
	<time>2024-07-24T07:54:10.000Z</time>
</trkpt>
<trkpt lat="46.0221150" lon="10.4070520">
	<ele>1515.60</ele>
	<time>2024-07-24T07:54:11.000Z</time>
</trkpt>
<trkpt lat="46.0221150" lon="10.4070690">
	<ele>1515.80</ele>
	<time>2024-07-24T07:54:12.000Z</time>
</trkpt>
<trkpt lat="46.0221160" lon="10.4070860">
	<ele>1516.00</ele>
	<time>2024-07-24T07:54:13.000Z</time>
</trkpt>
<trkpt lat="46.0221200" lon="10.4071090">
	<ele>1516.20</ele>
	<time>2024-07-24T07:54:14.000Z</time>
</trkpt>
<trkpt lat="46.0221250" lon="10.4071290">
	<ele>1516.20</ele>
	<time>2024-07-24T07:54:15.000Z</time>
</trkpt>
<trkpt lat="46.0221250" lon="10.4071440">
	<ele>1516.60</ele>
	<time>2024-07-24T07:54:16.000Z</time>
</trkpt>
<trkpt lat="46.0221310" lon="10.4071530">
	<ele>1516.80</ele>
	<time>2024-07-24T07:54:17.000Z</time>
</trkpt>
<trkpt lat="46.0221320" lon="10.4071650">
	<ele>1516.80</ele>
	<time>2024-07-24T07:54:18.000Z</time>
</trkpt>
<trkpt lat="46.0221310" lon="10.4071780">
	<ele>1517.00</ele>
	<time>2024-07-24T07:54:19.000Z</time>
</trkpt>
<trkpt lat="46.0221280" lon="10.4071900">
	<ele>1517.20</ele>
	<time>2024-07-24T07:54:20.000Z</time>
</trkpt>
<trkpt lat="46.0221240" lon="10.4072000">
	<ele>1517.40</ele>
	<time>2024-07-24T07:54:21.000Z</time>
</trkpt>
<trkpt lat="46.0221210" lon="10.4072090">
	<ele>1517.80</ele>
	<time>2024-07-24T07:54:22.000Z</time>
</trkpt>
<trkpt lat="46.0221160" lon="10.4072160">
	<ele>1518.00</ele>
	<time>2024-07-24T07:54:23.000Z</time>
</trkpt>
<trkpt lat="46.0221090" lon="10.4072230">
	<ele>1518.00</ele>
	<time>2024-07-24T07:54:24.000Z</time>
</trkpt>
<trkpt lat="46.0221060" lon="10.4072340">
	<ele>1518.20</ele>
	<time>2024-07-24T07:54:25.000Z</time>
</trkpt>
<trkpt lat="46.0221010" lon="10.4072420">
	<ele>1518.20</ele>
	<time>2024-07-24T07:54:26.000Z</time>
</trkpt>
<trkpt lat="46.0220990" lon="10.4072510">
	<ele>1518.40</ele>
	<time>2024-07-24T07:54:27.000Z</time>
</trkpt>
<trkpt lat="46.0220960" lon="10.4072600">
	<ele>1518.60</ele>
	<time>2024-07-24T07:54:28.000Z</time>
</trkpt>
<trkpt lat="46.0220850" lon="10.4072660">
	<ele>1519.00</ele>
	<time>2024-07-24T07:54:29.000Z</time>
</trkpt>
<trkpt lat="46.0220800" lon="10.4072770">
	<ele>1519.40</ele>
	<time>2024-07-24T07:54:30.000Z</time>
</trkpt>
<trkpt lat="46.0220780" lon="10.4072830">
	<ele>1519.40</ele>
	<time>2024-07-24T07:54:31.000Z</time>
</trkpt>
<trkpt lat="46.0220700" lon="10.4072800">
	<ele>1519.80</ele>
	<time>2024-07-24T07:54:32.000Z</time>
</trkpt>
<trkpt lat="46.0220590" lon="10.4072820">
	<ele>1520.20</ele>
	<time>2024-07-24T07:54:33.000Z</time>
</trkpt>
<trkpt lat="46.0220500" lon="10.4072870">
	<ele>1520.40</ele>
	<time>2024-07-24T07:54:34.000Z</time>
</trkpt>
<trkpt lat="46.0220410" lon="10.4072940">
	<ele>1520.60</ele>
	<time>2024-07-24T07:54:35.000Z</time>
</trkpt>
<trkpt lat="46.0220340" lon="10.4072970">
	<ele>1520.80</ele>
	<time>2024-07-24T07:54:36.000Z</time>
</trkpt>
<trkpt lat="46.0220280" lon="10.4073030">
	<ele>1521.00</ele>
	<time>2024-07-24T07:54:37.000Z</time>
</trkpt>
<trkpt lat="46.0220220" lon="10.4073120">
	<ele>1521.40</ele>
	<time>2024-07-24T07:54:38.000Z</time>
</trkpt>
<trkpt lat="46.0220160" lon="10.4073200">
	<ele>1521.40</ele>
	<time>2024-07-24T07:54:39.000Z</time>
</trkpt>
<trkpt lat="46.0220120" lon="10.4073280">
	<ele>1521.80</ele>
	<time>2024-07-24T07:54:40.000Z</time>
</trkpt>
<trkpt lat="46.0220060" lon="10.4073360">
	<ele>1522.00</ele>
	<time>2024-07-24T07:54:41.000Z</time>
</trkpt>
<trkpt lat="46.0220000" lon="10.4073400">
	<ele>1522.20</ele>
	<time>2024-07-24T07:54:42.000Z</time>
</trkpt>
<trkpt lat="46.0219950" lon="10.4073470">
	<ele>1522.40</ele>
	<time>2024-07-24T07:54:43.000Z</time>
</trkpt>
<trkpt lat="46.0219900" lon="10.4073600">
	<ele>1522.60</ele>
	<time>2024-07-24T07:54:44.000Z</time>
</trkpt>
<trkpt lat="46.0219820" lon="10.4073750">
	<ele>1522.80</ele>
	<time>2024-07-24T07:54:45.000Z</time>
</trkpt>
<trkpt lat="46.0219750" lon="10.4073900">
	<ele>1523.00</ele>
	<time>2024-07-24T07:54:46.000Z</time>
</trkpt>
<trkpt lat="46.0219690" lon="10.4074010">
	<ele>1523.20</ele>
	<time>2024-07-24T07:54:47.000Z</time>
</trkpt>
<trkpt lat="46.0219630" lon="10.4074080">
	<ele>1523.40</ele>
	<time>2024-07-24T07:54:48.000Z</time>
</trkpt>
<trkpt lat="46.0219600" lon="10.4074170">
	<ele>1523.60</ele>
	<time>2024-07-24T07:54:49.000Z</time>
</trkpt>
<trkpt lat="46.0219570" lon="10.4074220">
	<ele>1523.60</ele>
	<time>2024-07-24T07:54:50.000Z</time>
</trkpt>
<trkpt lat="46.0219560" lon="10.4074280">
	<ele>1523.80</ele>
	<time>2024-07-24T07:54:51.000Z</time>
</trkpt>
<trkpt lat="46.0219510" lon="10.4074340">
	<ele>1524.00</ele>
	<time>2024-07-24T07:54:52.000Z</time>
</trkpt>
<trkpt lat="46.0219480" lon="10.4074420">
	<ele>1524.20</ele>
	<time>2024-07-24T07:54:53.000Z</time>
</trkpt>
<trkpt lat="46.0219470" lon="10.4074580">
	<ele>1524.20</ele>
	<time>2024-07-24T07:54:54.000Z</time>
</trkpt>
<trkpt lat="46.0219480" lon="10.4074730">
	<ele>1524.60</ele>
	<time>2024-07-24T07:54:55.000Z</time>
</trkpt>
<trkpt lat="46.0219440" lon="10.4074850">
	<ele>1524.60</ele>
	<time>2024-07-24T07:54:56.000Z</time>
</trkpt>
<trkpt lat="46.0219390" lon="10.4074990">
	<ele>1524.80</ele>
	<time>2024-07-24T07:54:57.000Z</time>
</trkpt>
<trkpt lat="46.0219310" lon="10.4075170">
	<ele>1524.80</ele>
	<time>2024-07-24T07:54:58.000Z</time>
</trkpt>
<trkpt lat="46.0219330" lon="10.4075340">
	<ele>1525.00</ele>
	<time>2024-07-24T07:54:59.000Z</time>
</trkpt>
<trkpt lat="46.0219380" lon="10.4075580">
	<ele>1525.00</ele>
	<time>2024-07-24T07:55:00.000Z</time>
</trkpt>
<trkpt lat="46.0219380" lon="10.4075680">
	<ele>1525.20</ele>
	<time>2024-07-24T07:55:01.000Z</time>
</trkpt>
<trkpt lat="46.0219390" lon="10.4075870">
	<ele>1525.40</ele>
	<time>2024-07-24T07:55:02.000Z</time>
</trkpt>
<trkpt lat="46.0219400" lon="10.4076030">
	<ele>1525.40</ele>
	<time>2024-07-24T07:55:03.000Z</time>
</trkpt>
<trkpt lat="46.0219400" lon="10.4076190">
	<ele>1525.60</ele>
	<time>2024-07-24T07:55:04.000Z</time>
</trkpt>
<trkpt lat="46.0219390" lon="10.4076350">
	<ele>1525.80</ele>
	<time>2024-07-24T07:55:05.000Z</time>
</trkpt>
<trkpt lat="46.0219390" lon="10.4076560">
	<ele>1526.00</ele>
	<time>2024-07-24T07:55:06.000Z</time>
</trkpt>
<trkpt lat="46.0219370" lon="10.4076790">
	<ele>1526.00</ele>
	<time>2024-07-24T07:55:07.000Z</time>
</trkpt>
<trkpt lat="46.0219330" lon="10.4077000">
	<ele>1526.00</ele>
	<time>2024-07-24T07:55:08.000Z</time>
</trkpt>
<trkpt lat="46.0219320" lon="10.4077150">
	<ele>1526.00</ele>
	<time>2024-07-24T07:55:09.000Z</time>
</trkpt>
<trkpt lat="46.0219310" lon="10.4077270">
	<ele>1526.00</ele>
	<time>2024-07-24T07:55:10.000Z</time>
</trkpt>
<trkpt lat="46.0219260" lon="10.4077390">
	<ele>1526.20</ele>
	<time>2024-07-24T07:55:11.000Z</time>
</trkpt>
<trkpt lat="46.0219240" lon="10.4077570">
	<ele>1526.20</ele>
	<time>2024-07-24T07:55:12.000Z</time>
</trkpt>
<trkpt lat="46.0219210" lon="10.4077690">
	<ele>1526.20</ele>
	<time>2024-07-24T07:55:13.000Z</time>
</trkpt>
<trkpt lat="46.0219180" lon="10.4077800">
	<ele>1526.60</ele>
	<time>2024-07-24T07:55:14.000Z</time>
</trkpt>
<trkpt lat="46.0219200" lon="10.4077850">
	<ele>1526.60</ele>
	<time>2024-07-24T07:55:15.000Z</time>
</trkpt>
<trkpt lat="46.0219230" lon="10.4077840">
	<ele>1526.80</ele>
	<time>2024-07-24T07:55:16.000Z</time>
</trkpt>
<trkpt lat="46.0219260" lon="10.4077840">
	<ele>1527.00</ele>
	<time>2024-07-24T07:55:17.000Z</time>
</trkpt>
<trkpt lat="46.0219280" lon="10.4077850">
	<ele>1527.00</ele>
	<time>2024-07-24T07:55:18.000Z</time>
</trkpt>
<trkpt lat="46.0219280" lon="10.4077850">
	<ele>1527.00</ele>
	<time>2024-07-24T07:55:19.000Z</time>
</trkpt>
<trkpt lat="46.0219310" lon="10.4077910">
	<ele>1527.00</ele>
	<time>2024-07-24T07:55:20.000Z</time>
</trkpt>
<trkpt lat="46.0219310" lon="10.4078030">
	<ele>1527.00</ele>
	<time>2024-07-24T07:55:21.000Z</time>
</trkpt>
<trkpt lat="46.0219290" lon="10.4078170">
	<ele>1527.00</ele>
	<time>2024-07-24T07:55:22.000Z</time>
</trkpt>
<trkpt lat="46.0219280" lon="10.4078260">
	<ele>1527.00</ele>
	<time>2024-07-24T07:55:23.000Z</time>
</trkpt>
<trkpt lat="46.0219250" lon="10.4078340">
	<ele>1527.20</ele>
	<time>2024-07-24T07:55:24.000Z</time>
</trkpt>
<trkpt lat="46.0219260" lon="10.4078420">
	<ele>1527.20</ele>
	<time>2024-07-24T07:55:25.000Z</time>
</trkpt>
<trkpt lat="46.0219320" lon="10.4078500">
	<ele>1527.40</ele>
	<time>2024-07-24T07:55:26.000Z</time>
</trkpt>
<trkpt lat="46.0219370" lon="10.4078500">
	<ele>1527.40</ele>
	<time>2024-07-24T07:55:27.000Z</time>
</trkpt>
<trkpt lat="46.0219390" lon="10.4078510">
	<ele>1527.60</ele>
	<time>2024-07-24T07:55:28.000Z</time>
</trkpt>
<trkpt lat="46.0219430" lon="10.4078480">
	<ele>1527.80</ele>
	<time>2024-07-24T07:55:29.000Z</time>
</trkpt>
<trkpt lat="46.0219440" lon="10.4078490">
	<ele>1528.00</ele>
	<time>2024-07-24T07:55:30.000Z</time>
</trkpt>
<trkpt lat="46.0219450" lon="10.4078500">
	<ele>1528.20</ele>
	<time>2024-07-24T07:55:31.000Z</time>
</trkpt>
<trkpt lat="46.0219440" lon="10.4078540">
	<ele>1528.40</ele>
	<time>2024-07-24T07:55:32.000Z</time>
</trkpt>
<trkpt lat="46.0219460" lon="10.4078580">
	<ele>1528.40</ele>
	<time>2024-07-24T07:55:33.000Z</time>
</trkpt>
<trkpt lat="46.0219500" lon="10.4078590">
	<ele>1528.60</ele>
	<time>2024-07-24T07:55:34.000Z</time>
</trkpt>
<trkpt lat="46.0219530" lon="10.4078570">
	<ele>1528.60</ele>
	<time>2024-07-24T07:55:35.000Z</time>
</trkpt>
<trkpt lat="46.0219560" lon="10.4078550">
	<ele>1528.60</ele>
	<time>2024-07-24T07:55:36.000Z</time>
</trkpt>
<trkpt lat="46.0219670" lon="10.4078480">
	<ele>1528.40</ele>
	<time>2024-07-24T07:55:37.000Z</time>
</trkpt>
<trkpt lat="46.0219780" lon="10.4078370">
	<ele>1528.40</ele>
	<time>2024-07-24T07:55:38.000Z</time>
</trkpt>
<trkpt lat="46.0219830" lon="10.4078270">
	<ele>1528.20</ele>
	<time>2024-07-24T07:55:39.000Z</time>
</trkpt>
<trkpt lat="46.0219890" lon="10.4078160">
	<ele>1528.20</ele>
	<time>2024-07-24T07:55:40.000Z</time>
</trkpt>
<trkpt lat="46.0219960" lon="10.4078000">
	<ele>1528.20</ele>
	<time>2024-07-24T07:55:41.000Z</time>
</trkpt>
<trkpt lat="46.0219990" lon="10.4077830">
	<ele>1528.20</ele>
	<time>2024-07-24T07:55:42.000Z</time>
</trkpt>
<trkpt lat="46.0220010" lon="10.4077700">
	<ele>1528.20</ele>
	<time>2024-07-24T07:55:43.000Z</time>
</trkpt>
<trkpt lat="46.0220070" lon="10.4077500">
	<ele>1528.20</ele>
	<time>2024-07-24T07:55:44.000Z</time>
</trkpt>
<trkpt lat="46.0220130" lon="10.4077400">
	<ele>1528.40</ele>
	<time>2024-07-24T07:55:45.000Z</time>
</trkpt>
<trkpt lat="46.0220150" lon="10.4077300">
	<ele>1528.60</ele>
	<time>2024-07-24T07:55:46.000Z</time>
</trkpt>
<trkpt lat="46.0220150" lon="10.4077160">
	<ele>1528.60</ele>
	<time>2024-07-24T07:55:47.000Z</time>
</trkpt>
<trkpt lat="46.0220160" lon="10.4077120">
	<ele>1528.80</ele>
	<time>2024-07-24T07:55:48.000Z</time>
</trkpt>
<trkpt lat="46.0220210" lon="10.4077040">
	<ele>1529.00</ele>
	<time>2024-07-24T07:55:49.000Z</time>
</trkpt>
<trkpt lat="46.0220280" lon="10.4076960">
	<ele>1529.00</ele>
	<time>2024-07-24T07:55:50.000Z</time>
</trkpt>
<trkpt lat="46.0220350" lon="10.4076900">
	<ele>1529.00</ele>
	<time>2024-07-24T07:55:51.000Z</time>
</trkpt>
<trkpt lat="46.0220390" lon="10.4076790">
	<ele>1529.20</ele>
	<time>2024-07-24T07:55:52.000Z</time>
</trkpt>
<trkpt lat="46.0220440" lon="10.4076670">
	<ele>1529.20</ele>
	<time>2024-07-24T07:55:53.000Z</time>
</trkpt>
<trkpt lat="46.0220530" lon="10.4076510">
	<ele>1529.20</ele>
	<time>2024-07-24T07:55:54.000Z</time>
</trkpt>
<trkpt lat="46.0220630" lon="10.4076440">
	<ele>1529.40</ele>
	<time>2024-07-24T07:55:55.000Z</time>
</trkpt>
<trkpt lat="46.0220740" lon="10.4076380">
	<ele>1529.40</ele>
	<time>2024-07-24T07:55:56.000Z</time>
</trkpt>
<trkpt lat="46.0220820" lon="10.4076320">
	<ele>1529.40</ele>
	<time>2024-07-24T07:55:57.000Z</time>
</trkpt>
<trkpt lat="46.0220880" lon="10.4076260">
	<ele>1529.40</ele>
	<time>2024-07-24T07:55:58.000Z</time>
</trkpt>
<trkpt lat="46.0220910" lon="10.4076200">
	<ele>1529.60</ele>
	<time>2024-07-24T07:55:59.000Z</time>
</trkpt>
<trkpt lat="46.0221010" lon="10.4076060">
	<ele>1529.60</ele>
	<time>2024-07-24T07:56:00.000Z</time>
</trkpt>
<trkpt lat="46.0221110" lon="10.4075910">
	<ele>1529.60</ele>
	<time>2024-07-24T07:56:01.000Z</time>
</trkpt>
<trkpt lat="46.0221190" lon="10.4075760">
	<ele>1529.60</ele>
	<time>2024-07-24T07:56:02.000Z</time>
</trkpt>
<trkpt lat="46.0221250" lon="10.4075570">
	<ele>1529.80</ele>
	<time>2024-07-24T07:56:03.000Z</time>
</trkpt>
<trkpt lat="46.0221350" lon="10.4075450">
	<ele>1530.00</ele>
	<time>2024-07-24T07:56:04.000Z</time>
</trkpt>
<trkpt lat="46.0221380" lon="10.4075390">
	<ele>1530.00</ele>
	<time>2024-07-24T07:56:05.000Z</time>
</trkpt>
<trkpt lat="46.0221450" lon="10.4075260">
	<ele>1530.20</ele>
	<time>2024-07-24T07:56:06.000Z</time>
</trkpt>
<trkpt lat="46.0221450" lon="10.4075180">
	<ele>1530.20</ele>
	<time>2024-07-24T07:56:07.000Z</time>
</trkpt>
<trkpt lat="46.0221520" lon="10.4075040">
	<ele>1530.40</ele>
	<time>2024-07-24T07:56:08.000Z</time>
</trkpt>
<trkpt lat="46.0221660" lon="10.4074930">
	<ele>1530.40</ele>
	<time>2024-07-24T07:56:09.000Z</time>
</trkpt>
<trkpt lat="46.0221760" lon="10.4074820">
	<ele>1530.40</ele>
	<time>2024-07-24T07:56:10.000Z</time>
</trkpt>
<trkpt lat="46.0221840" lon="10.4074670">
	<ele>1530.20</ele>
	<time>2024-07-24T07:56:11.000Z</time>
</trkpt>
<trkpt lat="46.0221960" lon="10.4074510">
	<ele>1530.20</ele>
	<time>2024-07-24T07:56:12.000Z</time>
</trkpt>
<trkpt lat="46.0222010" lon="10.4074360">
	<ele>1530.20</ele>
	<time>2024-07-24T07:56:13.000Z</time>
</trkpt>
<trkpt lat="46.0222040" lon="10.4074170">
	<ele>1530.20</ele>
	<time>2024-07-24T07:56:14.000Z</time>
</trkpt>
<trkpt lat="46.0222060" lon="10.4073960">
	<ele>1530.20</ele>
	<time>2024-07-24T07:56:15.000Z</time>
</trkpt>
<trkpt lat="46.0222070" lon="10.4073800">
	<ele>1530.20</ele>
	<time>2024-07-24T07:56:16.000Z</time>
</trkpt>
<trkpt lat="46.0222070" lon="10.4073690">
	<ele>1530.00</ele>
	<time>2024-07-24T07:56:17.000Z</time>
</trkpt>
<trkpt lat="46.0222280" lon="10.4073570">
	<ele>1530.00</ele>
	<time>2024-07-24T07:56:18.000Z</time>
</trkpt>
<trkpt lat="46.0222460" lon="10.4073470">
	<ele>1530.00</ele>
	<time>2024-07-24T07:56:19.000Z</time>
</trkpt>
<trkpt lat="46.0222630" lon="10.4073300">
	<ele>1530.00</ele>
	<time>2024-07-24T07:56:20.000Z</time>
</trkpt>
<trkpt lat="46.0222690" lon="10.4073140">
	<ele>1530.20</ele>
	<time>2024-07-24T07:56:21.000Z</time>
</trkpt>
<trkpt lat="46.0222750" lon="10.4073040">
	<ele>1530.20</ele>
	<time>2024-07-24T07:56:22.000Z</time>
</trkpt>
<trkpt lat="46.0222860" lon="10.4072920">
	<ele>1530.20</ele>
	<time>2024-07-24T07:56:23.000Z</time>
</trkpt>
<trkpt lat="46.0222930" lon="10.4072820">
	<ele>1530.20</ele>
	<time>2024-07-24T07:56:24.000Z</time>
</trkpt>
<trkpt lat="46.0222970" lon="10.4072720">
	<ele>1530.40</ele>
	<time>2024-07-24T07:56:25.000Z</time>
</trkpt>
<trkpt lat="46.0223050" lon="10.4072620">
	<ele>1530.40</ele>
	<time>2024-07-24T07:56:26.000Z</time>
</trkpt>
<trkpt lat="46.0223110" lon="10.4072580">
	<ele>1530.40</ele>
	<time>2024-07-24T07:56:27.000Z</time>
</trkpt>
<trkpt lat="46.0223200" lon="10.4072480">
	<ele>1530.40</ele>
	<time>2024-07-24T07:56:28.000Z</time>
</trkpt>
<trkpt lat="46.0223290" lon="10.4072350">
	<ele>1530.40</ele>
	<time>2024-07-24T07:56:29.000Z</time>
</trkpt>
<trkpt lat="46.0223300" lon="10.4072230">
	<ele>1530.60</ele>
	<time>2024-07-24T07:56:30.000Z</time>
</trkpt>
<trkpt lat="46.0223360" lon="10.4072080">
	<ele>1530.60</ele>
	<time>2024-07-24T07:56:31.000Z</time>
</trkpt>
<trkpt lat="46.0223410" lon="10.4071900">
	<ele>1530.80</ele>
	<time>2024-07-24T07:56:32.000Z</time>
</trkpt>
<trkpt lat="46.0223420" lon="10.4071780">
	<ele>1530.80</ele>
	<time>2024-07-24T07:56:33.000Z</time>
</trkpt>
<trkpt lat="46.0223430" lon="10.4071600">
	<ele>1531.00</ele>
	<time>2024-07-24T07:56:34.000Z</time>
</trkpt>
<trkpt lat="46.0223540" lon="10.4071480">
	<ele>1531.00</ele>
	<time>2024-07-24T07:56:35.000Z</time>
</trkpt>
<trkpt lat="46.0223650" lon="10.4071310">
	<ele>1531.20</ele>
	<time>2024-07-24T07:56:36.000Z</time>
</trkpt>
<trkpt lat="46.0223740" lon="10.4071200">
	<ele>1531.40</ele>
	<time>2024-07-24T07:56:37.000Z</time>
</trkpt>
<trkpt lat="46.0223780" lon="10.4071070">
	<ele>1531.40</ele>
	<time>2024-07-24T07:56:38.000Z</time>
</trkpt>
<trkpt lat="46.0223760" lon="10.4070950">
	<ele>1531.60</ele>
	<time>2024-07-24T07:56:39.000Z</time>
</trkpt>
<trkpt lat="46.0223720" lon="10.4070770">
	<ele>1531.80</ele>
	<time>2024-07-24T07:56:40.000Z</time>
</trkpt>
<trkpt lat="46.0223750" lon="10.4070600">
	<ele>1532.00</ele>
	<time>2024-07-24T07:56:41.000Z</time>
</trkpt>
<trkpt lat="46.0223760" lon="10.4070410">
	<ele>1532.20</ele>
	<time>2024-07-24T07:56:42.000Z</time>
</trkpt>
<trkpt lat="46.0223780" lon="10.4070280">
	<ele>1532.40</ele>
	<time>2024-07-24T07:56:43.000Z</time>
</trkpt>
<trkpt lat="46.0223820" lon="10.4070120">
	<ele>1532.40</ele>
	<time>2024-07-24T07:56:44.000Z</time>
</trkpt>
<trkpt lat="46.0223840" lon="10.4069960">
	<ele>1532.60</ele>
	<time>2024-07-24T07:56:45.000Z</time>
</trkpt>
<trkpt lat="46.0223860" lon="10.4069700">
	<ele>1532.60</ele>
	<time>2024-07-24T07:56:46.000Z</time>
</trkpt>
<trkpt lat="46.0223820" lon="10.4069510">
	<ele>1532.80</ele>
	<time>2024-07-24T07:56:47.000Z</time>
</trkpt>
<trkpt lat="46.0223860" lon="10.4069300">
	<ele>1533.00</ele>
	<time>2024-07-24T07:56:48.000Z</time>
</trkpt>
<trkpt lat="46.0223930" lon="10.4069110">
	<ele>1533.00</ele>
	<time>2024-07-24T07:56:49.000Z</time>
</trkpt>
<trkpt lat="46.0223980" lon="10.4068980">
	<ele>1533.20</ele>
	<time>2024-07-24T07:56:50.000Z</time>
</trkpt>
<trkpt lat="46.0224010" lon="10.4068840">
	<ele>1533.20</ele>
	<time>2024-07-24T07:56:51.000Z</time>
</trkpt>
<trkpt lat="46.0224090" lon="10.4068720">
	<ele>1533.20</ele>
	<time>2024-07-24T07:56:52.000Z</time>
</trkpt>
<trkpt lat="46.0224130" lon="10.4068610">
	<ele>1533.20</ele>
	<time>2024-07-24T07:56:53.000Z</time>
</trkpt>
<trkpt lat="46.0224170" lon="10.4068470">
	<ele>1533.20</ele>
	<time>2024-07-24T07:56:54.000Z</time>
</trkpt>
<trkpt lat="46.0224200" lon="10.4068280">
	<ele>1533.20</ele>
	<time>2024-07-24T07:56:55.000Z</time>
</trkpt>
<trkpt lat="46.0224260" lon="10.4068100">
	<ele>1533.20</ele>
	<time>2024-07-24T07:56:56.000Z</time>
</trkpt>
<trkpt lat="46.0224360" lon="10.4067970">
	<ele>1533.20</ele>
	<time>2024-07-24T07:56:57.000Z</time>
</trkpt>
<trkpt lat="46.0224500" lon="10.4067910">
	<ele>1533.20</ele>
	<time>2024-07-24T07:56:58.000Z</time>
</trkpt>
<trkpt lat="46.0224680" lon="10.4067830">
	<ele>1533.20</ele>
	<time>2024-07-24T07:56:59.000Z</time>
</trkpt>
<trkpt lat="46.0224840" lon="10.4067720">
	<ele>1533.20</ele>
	<time>2024-07-24T07:57:00.000Z</time>
</trkpt>
<trkpt lat="46.0224980" lon="10.4067660">
	<ele>1533.20</ele>
	<time>2024-07-24T07:57:01.000Z</time>
</trkpt>
<trkpt lat="46.0225160" lon="10.4067570">
	<ele>1533.00</ele>
	<time>2024-07-24T07:57:02.000Z</time>
</trkpt>
<trkpt lat="46.0225370" lon="10.4067490">
	<ele>1533.00</ele>
	<time>2024-07-24T07:57:03.000Z</time>
</trkpt>
<trkpt lat="46.0225420" lon="10.4067500">
	<ele>1532.80</ele>
	<time>2024-07-24T07:57:04.000Z</time>
</trkpt>
<trkpt lat="46.0225540" lon="10.4067490">
	<ele>1532.80</ele>
	<time>2024-07-24T07:57:05.000Z</time>
</trkpt>
<trkpt lat="46.0225630" lon="10.4067480">
	<ele>1532.80</ele>
	<time>2024-07-24T07:57:06.000Z</time>
</trkpt>
<trkpt lat="46.0225690" lon="10.4067380">
	<ele>1532.80</ele>
	<time>2024-07-24T07:57:07.000Z</time>
</trkpt>
<trkpt lat="46.0225720" lon="10.4067180">
	<ele>1532.80</ele>
	<time>2024-07-24T07:57:08.000Z</time>
</trkpt>
<trkpt lat="46.0225740" lon="10.4067040">
	<ele>1532.60</ele>
	<time>2024-07-24T07:57:09.000Z</time>
</trkpt>
<trkpt lat="46.0225790" lon="10.4066920">
	<ele>1532.60</ele>
	<time>2024-07-24T07:57:10.000Z</time>
</trkpt>
<trkpt lat="46.0225900" lon="10.4066800">
	<ele>1532.60</ele>
	<time>2024-07-24T07:57:11.000Z</time>
</trkpt>
<trkpt lat="46.0225990" lon="10.4066600">
	<ele>1532.60</ele>
	<time>2024-07-24T07:57:12.000Z</time>
</trkpt>
<trkpt lat="46.0226120" lon="10.4066500">
	<ele>1532.60</ele>
	<time>2024-07-24T07:57:13.000Z</time>
</trkpt>
<trkpt lat="46.0226190" lon="10.4066410">
	<ele>1532.60</ele>
	<time>2024-07-24T07:57:14.000Z</time>
</trkpt>
<trkpt lat="46.0226260" lon="10.4066220">
	<ele>1532.40</ele>
	<time>2024-07-24T07:57:15.000Z</time>
</trkpt>
<trkpt lat="46.0226380" lon="10.4066030">
	<ele>1532.40</ele>
	<time>2024-07-24T07:57:16.000Z</time>
</trkpt>
<trkpt lat="46.0226500" lon="10.4065900">
	<ele>1532.40</ele>
	<time>2024-07-24T07:57:17.000Z</time>
</trkpt>
<trkpt lat="46.0226560" lon="10.4065830">
	<ele>1532.40</ele>
	<time>2024-07-24T07:57:18.000Z</time>
</trkpt>
<trkpt lat="46.0226600" lon="10.4065570">
	<ele>1532.40</ele>
	<time>2024-07-24T07:57:19.000Z</time>
</trkpt>
<trkpt lat="46.0226670" lon="10.4065340">
	<ele>1532.40</ele>
	<time>2024-07-24T07:57:20.000Z</time>
</trkpt>
<trkpt lat="46.0226760" lon="10.4065120">
	<ele>1532.40</ele>
	<time>2024-07-24T07:57:21.000Z</time>
</trkpt>
<trkpt lat="46.0226790" lon="10.4064940">
	<ele>1532.40</ele>
	<time>2024-07-24T07:57:22.000Z</time>
</trkpt>
<trkpt lat="46.0226790" lon="10.4064720">
	<ele>1532.60</ele>
	<time>2024-07-24T07:57:23.000Z</time>
</trkpt>
<trkpt lat="46.0226760" lon="10.4064470">
	<ele>1532.60</ele>
	<time>2024-07-24T07:57:24.000Z</time>
</trkpt>
<trkpt lat="46.0226750" lon="10.4064320">
	<ele>1532.60</ele>
	<time>2024-07-24T07:57:25.000Z</time>
</trkpt>
<trkpt lat="46.0226760" lon="10.4064120">
	<ele>1532.60</ele>
	<time>2024-07-24T07:57:26.000Z</time>
</trkpt>
<trkpt lat="46.0226740" lon="10.4064010">
	<ele>1532.60</ele>
	<time>2024-07-24T07:57:27.000Z</time>
</trkpt>
<trkpt lat="46.0226690" lon="10.4063940">
	<ele>1532.60</ele>
	<time>2024-07-24T07:57:28.000Z</time>
</trkpt>
<trkpt lat="46.0226710" lon="10.4063890">
	<ele>1532.60</ele>
	<time>2024-07-24T07:57:29.000Z</time>
</trkpt>
<trkpt lat="46.0226690" lon="10.4063780">
	<ele>1532.60</ele>
	<time>2024-07-24T07:57:30.000Z</time>
</trkpt>
<trkpt lat="46.0226640" lon="10.4063670">
	<ele>1532.60</ele>
	<time>2024-07-24T07:57:31.000Z</time>
</trkpt>
<trkpt lat="46.0226600" lon="10.4063540">
	<ele>1532.60</ele>
	<time>2024-07-24T07:57:32.000Z</time>
</trkpt>
<trkpt lat="46.0226520" lon="10.4063400">
	<ele>1532.60</ele>
	<time>2024-07-24T07:57:33.000Z</time>
</trkpt>
<trkpt lat="46.0226470" lon="10.4063200">
	<ele>1532.60</ele>
	<time>2024-07-24T07:57:34.000Z</time>
</trkpt>
<trkpt lat="46.0226550" lon="10.4063040">
	<ele>1532.60</ele>
	<time>2024-07-24T07:57:35.000Z</time>
</trkpt>
<trkpt lat="46.0226670" lon="10.4062860">
	<ele>1532.60</ele>
	<time>2024-07-24T07:57:36.000Z</time>
</trkpt>
<trkpt lat="46.0226790" lon="10.4062620">
	<ele>1532.60</ele>
	<time>2024-07-24T07:57:37.000Z</time>
</trkpt>
<trkpt lat="46.0226900" lon="10.4062490">
	<ele>1532.60</ele>
	<time>2024-07-24T07:57:38.000Z</time>
</trkpt>
<trkpt lat="46.0226980" lon="10.4062430">
	<ele>1532.60</ele>
	<time>2024-07-24T07:57:39.000Z</time>
</trkpt>
<trkpt lat="46.0227010" lon="10.4062310">
	<ele>1532.60</ele>
	<time>2024-07-24T07:57:40.000Z</time>
</trkpt>
<trkpt lat="46.0226970" lon="10.4062070">
	<ele>1532.60</ele>
	<time>2024-07-24T07:57:41.000Z</time>
</trkpt>
<trkpt lat="46.0226910" lon="10.4061820">
	<ele>1532.60</ele>
	<time>2024-07-24T07:57:42.000Z</time>
</trkpt>
<trkpt lat="46.0226900" lon="10.4061700">
	<ele>1532.60</ele>
	<time>2024-07-24T07:57:43.000Z</time>
</trkpt>
<trkpt lat="46.0226910" lon="10.4061580">
	<ele>1532.60</ele>
	<time>2024-07-24T07:57:44.000Z</time>
</trkpt>
<trkpt lat="46.0226980" lon="10.4061450">
	<ele>1532.60</ele>
	<time>2024-07-24T07:57:45.000Z</time>
</trkpt>
<trkpt lat="46.0227120" lon="10.4061320">
	<ele>1532.60</ele>
	<time>2024-07-24T07:57:46.000Z</time>
</trkpt>
<trkpt lat="46.0227200" lon="10.4061240">
	<ele>1532.60</ele>
	<time>2024-07-24T07:57:47.000Z</time>
</trkpt>
<trkpt lat="46.0227280" lon="10.4061140">
	<ele>1532.60</ele>
	<time>2024-07-24T07:57:48.000Z</time>
</trkpt>
<trkpt lat="46.0227400" lon="10.4061020">
	<ele>1532.60</ele>
	<time>2024-07-24T07:57:49.000Z</time>
</trkpt>
<trkpt lat="46.0227490" lon="10.4060860">
	<ele>1532.40</ele>
	<time>2024-07-24T07:57:50.000Z</time>
</trkpt>
<trkpt lat="46.0227570" lon="10.4060690">
	<ele>1532.60</ele>
	<time>2024-07-24T07:57:51.000Z</time>
</trkpt>
<trkpt lat="46.0227670" lon="10.4060630">
	<ele>1532.60</ele>
	<time>2024-07-24T07:57:52.000Z</time>
</trkpt>
<trkpt lat="46.0227780" lon="10.4060540">
	<ele>1532.60</ele>
	<time>2024-07-24T07:57:53.000Z</time>
</trkpt>
<trkpt lat="46.0227900" lon="10.4060460">
	<ele>1532.60</ele>
	<time>2024-07-24T07:57:54.000Z</time>
</trkpt>
<trkpt lat="46.0227970" lon="10.4060380">
	<ele>1532.60</ele>
	<time>2024-07-24T07:57:55.000Z</time>
</trkpt>
<trkpt lat="46.0228070" lon="10.4060330">
	<ele>1532.60</ele>
	<time>2024-07-24T07:57:56.000Z</time>
</trkpt>
<trkpt lat="46.0228170" lon="10.4060290">
	<ele>1532.60</ele>
	<time>2024-07-24T07:57:57.000Z</time>
</trkpt>
<trkpt lat="46.0228350" lon="10.4060190">
	<ele>1532.60</ele>
	<time>2024-07-24T07:57:58.000Z</time>
</trkpt>
<trkpt lat="46.0228530" lon="10.4060150">
	<ele>1532.60</ele>
	<time>2024-07-24T07:57:59.000Z</time>
</trkpt>
<trkpt lat="46.0228700" lon="10.4060140">
	<ele>1532.60</ele>
	<time>2024-07-24T07:58:00.000Z</time>
</trkpt>
<trkpt lat="46.0228840" lon="10.4060120">
	<ele>1532.60</ele>
	<time>2024-07-24T07:58:01.000Z</time>
</trkpt>
<trkpt lat="46.0228990" lon="10.4060130">
	<ele>1532.60</ele>
	<time>2024-07-24T07:58:02.000Z</time>
</trkpt>
<trkpt lat="46.0229100" lon="10.4060130">
	<ele>1532.60</ele>
	<time>2024-07-24T07:58:03.000Z</time>
</trkpt>
<trkpt lat="46.0229170" lon="10.4060100">
	<ele>1532.80</ele>
	<time>2024-07-24T07:58:04.000Z</time>
</trkpt>
<trkpt lat="46.0229320" lon="10.4060050">
	<ele>1532.80</ele>
	<time>2024-07-24T07:58:05.000Z</time>
</trkpt>
<trkpt lat="46.0229440" lon="10.4059980">
	<ele>1532.80</ele>
	<time>2024-07-24T07:58:06.000Z</time>
</trkpt>
<trkpt lat="46.0229570" lon="10.4059940">
	<ele>1532.80</ele>
	<time>2024-07-24T07:58:07.000Z</time>
</trkpt>
<trkpt lat="46.0229680" lon="10.4059850">
	<ele>1533.00</ele>
	<time>2024-07-24T07:58:08.000Z</time>
</trkpt>
<trkpt lat="46.0229810" lon="10.4059870">
	<ele>1532.80</ele>
	<time>2024-07-24T07:58:09.000Z</time>
</trkpt>
<trkpt lat="46.0229960" lon="10.4059900">
	<ele>1532.80</ele>
	<time>2024-07-24T07:58:10.000Z</time>
</trkpt>
<trkpt lat="46.0230120" lon="10.4059860">
	<ele>1532.80</ele>
	<time>2024-07-24T07:58:11.000Z</time>
</trkpt>
<trkpt lat="46.0230290" lon="10.4059840">
	<ele>1532.80</ele>
	<time>2024-07-24T07:58:12.000Z</time>
</trkpt>
<trkpt lat="46.0230470" lon="10.4059770">
	<ele>1532.80</ele>
	<time>2024-07-24T07:58:13.000Z</time>
</trkpt>
<trkpt lat="46.0230590" lon="10.4059700">
	<ele>1532.80</ele>
	<time>2024-07-24T07:58:14.000Z</time>
</trkpt>
<trkpt lat="46.0230790" lon="10.4059650">
	<ele>1532.80</ele>
	<time>2024-07-24T07:58:15.000Z</time>
</trkpt>
<trkpt lat="46.0231030" lon="10.4059600">
	<ele>1532.80</ele>
	<time>2024-07-24T07:58:16.000Z</time>
</trkpt>
<trkpt lat="46.0231230" lon="10.4059510">
	<ele>1532.80</ele>
	<time>2024-07-24T07:58:17.000Z</time>
</trkpt>
<trkpt lat="46.0231390" lon="10.4059430">
	<ele>1532.80</ele>
	<time>2024-07-24T07:58:18.000Z</time>
</trkpt>
<trkpt lat="46.0231530" lon="10.4059320">
	<ele>1532.80</ele>
	<time>2024-07-24T07:58:19.000Z</time>
</trkpt>
<trkpt lat="46.0231650" lon="10.4059230">
	<ele>1532.80</ele>
	<time>2024-07-24T07:58:20.000Z</time>
</trkpt>
<trkpt lat="46.0231720" lon="10.4059110">
	<ele>1532.80</ele>
	<time>2024-07-24T07:58:21.000Z</time>
</trkpt>
<trkpt lat="46.0231790" lon="10.4058930">
	<ele>1533.00</ele>
	<time>2024-07-24T07:58:22.000Z</time>
</trkpt>
<trkpt lat="46.0231800" lon="10.4058840">
	<ele>1533.00</ele>
	<time>2024-07-24T07:58:23.000Z</time>
</trkpt>
<trkpt lat="46.0231880" lon="10.4058730">
	<ele>1533.00</ele>
	<time>2024-07-24T07:58:24.000Z</time>
</trkpt>
<trkpt lat="46.0231990" lon="10.4058590">
	<ele>1533.20</ele>
	<time>2024-07-24T07:58:25.000Z</time>
</trkpt>
<trkpt lat="46.0232190" lon="10.4058550">
	<ele>1533.20</ele>
	<time>2024-07-24T07:58:26.000Z</time>
</trkpt>
<trkpt lat="46.0232250" lon="10.4058410">
	<ele>1533.20</ele>
	<time>2024-07-24T07:58:27.000Z</time>
</trkpt>
<trkpt lat="46.0232310" lon="10.4058260">
	<ele>1533.20</ele>
	<time>2024-07-24T07:58:28.000Z</time>
</trkpt>
<trkpt lat="46.0232360" lon="10.4058080">
	<ele>1533.20</ele>
	<time>2024-07-24T07:58:29.000Z</time>
</trkpt>
<trkpt lat="46.0232400" lon="10.4057970">
	<ele>1533.20</ele>
	<time>2024-07-24T07:58:30.000Z</time>
</trkpt>
<trkpt lat="46.0232460" lon="10.4057680">
	<ele>1533.20</ele>
	<time>2024-07-24T07:58:31.000Z</time>
</trkpt>
<trkpt lat="46.0232480" lon="10.4057410">
	<ele>1533.20</ele>
	<time>2024-07-24T07:58:32.000Z</time>
</trkpt>
<trkpt lat="46.0232430" lon="10.4057200">
	<ele>1533.00</ele>
	<time>2024-07-24T07:58:33.000Z</time>
</trkpt>
<trkpt lat="46.0232470" lon="10.4057150">
	<ele>1533.20</ele>
	<time>2024-07-24T07:58:34.000Z</time>
</trkpt>
<trkpt lat="46.0232530" lon="10.4057050">
	<ele>1533.20</ele>
	<time>2024-07-24T07:58:35.000Z</time>
</trkpt>
<trkpt lat="46.0232620" lon="10.4056960">
	<ele>1533.20</ele>
	<time>2024-07-24T07:58:36.000Z</time>
</trkpt>
<trkpt lat="46.0232570" lon="10.4056860">
	<ele>1533.40</ele>
	<time>2024-07-24T07:58:37.000Z</time>
</trkpt>
<trkpt lat="46.0232470" lon="10.4056640">
	<ele>1533.40</ele>
	<time>2024-07-24T07:58:38.000Z</time>
</trkpt>
<trkpt lat="46.0232380" lon="10.4056390">
	<ele>1533.40</ele>
	<time>2024-07-24T07:58:39.000Z</time>
</trkpt>
<trkpt lat="46.0232390" lon="10.4056120">
	<ele>1533.40</ele>
	<time>2024-07-24T07:58:40.000Z</time>
</trkpt>
<trkpt lat="46.0232410" lon="10.4055870">
	<ele>1533.60</ele>
	<time>2024-07-24T07:58:41.000Z</time>
</trkpt>
<trkpt lat="46.0232430" lon="10.4055630">
	<ele>1533.60</ele>
	<time>2024-07-24T07:58:42.000Z</time>
</trkpt>
<trkpt lat="46.0232460" lon="10.4055440">
	<ele>1533.60</ele>
	<time>2024-07-24T07:58:43.000Z</time>
</trkpt>
<trkpt lat="46.0232510" lon="10.4055260">
	<ele>1533.80</ele>
	<time>2024-07-24T07:58:44.000Z</time>
</trkpt>
<trkpt lat="46.0232640" lon="10.4055120">
	<ele>1533.80</ele>
	<time>2024-07-24T07:58:45.000Z</time>
</trkpt>
<trkpt lat="46.0232780" lon="10.4055000">
	<ele>1533.80</ele>
	<time>2024-07-24T07:58:46.000Z</time>
</trkpt>
<trkpt lat="46.0232860" lon="10.4054860">
	<ele>1533.80</ele>
	<time>2024-07-24T07:58:47.000Z</time>
</trkpt>
<trkpt lat="46.0232970" lon="10.4054760">
	<ele>1533.60</ele>
	<time>2024-07-24T07:58:48.000Z</time>
</trkpt>
<trkpt lat="46.0233150" lon="10.4054710">
	<ele>1533.60</ele>
	<time>2024-07-24T07:58:49.000Z</time>
</trkpt>
<trkpt lat="46.0233280" lon="10.4054560">
	<ele>1533.60</ele>
	<time>2024-07-24T07:58:50.000Z</time>
</trkpt>
<trkpt lat="46.0233370" lon="10.4054390">
	<ele>1533.60</ele>
	<time>2024-07-24T07:58:51.000Z</time>
</trkpt>
<trkpt lat="46.0233390" lon="10.4054160">
	<ele>1533.60</ele>
	<time>2024-07-24T07:58:52.000Z</time>
</trkpt>
<trkpt lat="46.0233330" lon="10.4053950">
	<ele>1533.60</ele>
	<time>2024-07-24T07:58:53.000Z</time>
</trkpt>
<trkpt lat="46.0233260" lon="10.4053750">
	<ele>1533.60</ele>
	<time>2024-07-24T07:58:54.000Z</time>
</trkpt>
<trkpt lat="46.0233220" lon="10.4053630">
	<ele>1533.60</ele>
	<time>2024-07-24T07:58:55.000Z</time>
</trkpt>
<trkpt lat="46.0233220" lon="10.4053540">
	<ele>1533.60</ele>
	<time>2024-07-24T07:58:56.000Z</time>
</trkpt>
<trkpt lat="46.0233310" lon="10.4053410">
	<ele>1533.80</ele>
	<time>2024-07-24T07:58:57.000Z</time>
</trkpt>
<trkpt lat="46.0233390" lon="10.4053270">
	<ele>1533.80</ele>
	<time>2024-07-24T07:58:58.000Z</time>
</trkpt>
<trkpt lat="46.0233500" lon="10.4053110">
	<ele>1533.80</ele>
	<time>2024-07-24T07:58:59.000Z</time>
</trkpt>
<trkpt lat="46.0233620" lon="10.4052970">
	<ele>1534.00</ele>
	<time>2024-07-24T07:59:00.000Z</time>
</trkpt>
<trkpt lat="46.0233730" lon="10.4052870">
	<ele>1534.00</ele>
	<time>2024-07-24T07:59:01.000Z</time>
</trkpt>
<trkpt lat="46.0233810" lon="10.4052780">
	<ele>1534.00</ele>
	<time>2024-07-24T07:59:02.000Z</time>
</trkpt>
<trkpt lat="46.0233830" lon="10.4052640">
	<ele>1534.00</ele>
	<time>2024-07-24T07:59:03.000Z</time>
</trkpt>
<trkpt lat="46.0233810" lon="10.4052520">
	<ele>1534.00</ele>
	<time>2024-07-24T07:59:04.000Z</time>
</trkpt>
<trkpt lat="46.0233860" lon="10.4052380">
	<ele>1534.00</ele>
	<time>2024-07-24T07:59:05.000Z</time>
</trkpt>
<trkpt lat="46.0233900" lon="10.4052210">
	<ele>1534.00</ele>
	<time>2024-07-24T07:59:06.000Z</time>
</trkpt>
<trkpt lat="46.0233930" lon="10.4052020">
	<ele>1534.20</ele>
	<time>2024-07-24T07:59:07.000Z</time>
</trkpt>
<trkpt lat="46.0233910" lon="10.4051860">
	<ele>1534.20</ele>
	<time>2024-07-24T07:59:08.000Z</time>
</trkpt>
<trkpt lat="46.0233890" lon="10.4051680">
	<ele>1534.20</ele>
	<time>2024-07-24T07:59:09.000Z</time>
</trkpt>
<trkpt lat="46.0233910" lon="10.4051540">
	<ele>1534.20</ele>
	<time>2024-07-24T07:59:10.000Z</time>
</trkpt>
<trkpt lat="46.0233990" lon="10.4051340">
	<ele>1534.20</ele>
	<time>2024-07-24T07:59:11.000Z</time>
</trkpt>
<trkpt lat="46.0234070" lon="10.4051200">
	<ele>1534.20</ele>
	<time>2024-07-24T07:59:12.000Z</time>
</trkpt>
<trkpt lat="46.0234170" lon="10.4051070">
	<ele>1534.40</ele>
	<time>2024-07-24T07:59:13.000Z</time>
</trkpt>
<trkpt lat="46.0234280" lon="10.4050940">
	<ele>1534.40</ele>
	<time>2024-07-24T07:59:14.000Z</time>
</trkpt>
<trkpt lat="46.0234290" lon="10.4050820">
	<ele>1534.40</ele>
	<time>2024-07-24T07:59:15.000Z</time>
</trkpt>
<trkpt lat="46.0234280" lon="10.4050650">
	<ele>1534.40</ele>
	<time>2024-07-24T07:59:16.000Z</time>
</trkpt>
<trkpt lat="46.0234320" lon="10.4050550">
	<ele>1534.40</ele>
	<time>2024-07-24T07:59:17.000Z</time>
</trkpt>
<trkpt lat="46.0234350" lon="10.4050360">
	<ele>1534.20</ele>
	<time>2024-07-24T07:59:18.000Z</time>
</trkpt>
<trkpt lat="46.0234350" lon="10.4050110">
	<ele>1534.20</ele>
	<time>2024-07-24T07:59:19.000Z</time>
</trkpt>
<trkpt lat="46.0234400" lon="10.4049780">
	<ele>1534.00</ele>
	<time>2024-07-24T07:59:20.000Z</time>
</trkpt>
<trkpt lat="46.0234410" lon="10.4049580">
	<ele>1534.00</ele>
	<time>2024-07-24T07:59:21.000Z</time>
</trkpt>
<trkpt lat="46.0234470" lon="10.4049470">
	<ele>1534.00</ele>
	<time>2024-07-24T07:59:22.000Z</time>
</trkpt>
<trkpt lat="46.0234550" lon="10.4049280">
	<ele>1534.00</ele>
	<time>2024-07-24T07:59:23.000Z</time>
</trkpt>
<trkpt lat="46.0234540" lon="10.4049070">
	<ele>1534.20</ele>
	<time>2024-07-24T07:59:24.000Z</time>
</trkpt>
<trkpt lat="46.0234530" lon="10.4049010">
	<ele>1534.20</ele>
	<time>2024-07-24T07:59:25.000Z</time>
</trkpt>
<trkpt lat="46.0234550" lon="10.4048860">
	<ele>1534.20</ele>
	<time>2024-07-24T07:59:26.000Z</time>
</trkpt>
<trkpt lat="46.0234570" lon="10.4048710">
	<ele>1534.20</ele>
	<time>2024-07-24T07:59:27.000Z</time>
</trkpt>
<trkpt lat="46.0234600" lon="10.4048640">
	<ele>1534.20</ele>
	<time>2024-07-24T07:59:28.000Z</time>
</trkpt>
<trkpt lat="46.0234690" lon="10.4048490">
	<ele>1534.00</ele>
	<time>2024-07-24T07:59:29.000Z</time>
</trkpt>
<trkpt lat="46.0234790" lon="10.4048330">
	<ele>1534.00</ele>
	<time>2024-07-24T07:59:30.000Z</time>
</trkpt>
<trkpt lat="46.0234760" lon="10.4048210">
	<ele>1534.00</ele>
	<time>2024-07-24T07:59:31.000Z</time>
</trkpt>
<trkpt lat="46.0234790" lon="10.4048010">
	<ele>1534.00</ele>
	<time>2024-07-24T07:59:32.000Z</time>
</trkpt>
<trkpt lat="46.0234800" lon="10.4047780">
	<ele>1534.00</ele>
	<time>2024-07-24T07:59:33.000Z</time>
</trkpt>
<trkpt lat="46.0234810" lon="10.4047580">
	<ele>1534.00</ele>
	<time>2024-07-24T07:59:34.000Z</time>
</trkpt>
<trkpt lat="46.0234800" lon="10.4047410">
	<ele>1534.00</ele>
	<time>2024-07-24T07:59:35.000Z</time>
</trkpt>
<trkpt lat="46.0234860" lon="10.4047260">
	<ele>1534.00</ele>
	<time>2024-07-24T07:59:36.000Z</time>
</trkpt>
<trkpt lat="46.0234950" lon="10.4047120">
	<ele>1534.00</ele>
	<time>2024-07-24T07:59:37.000Z</time>
</trkpt>
<trkpt lat="46.0234990" lon="10.4047080">
	<ele>1534.00</ele>
	<time>2024-07-24T07:59:38.000Z</time>
</trkpt>
<trkpt lat="46.0234950" lon="10.4047030">
	<ele>1534.00</ele>
	<time>2024-07-24T07:59:39.000Z</time>
</trkpt>
<trkpt lat="46.0234980" lon="10.4046900">
	<ele>1534.00</ele>
	<time>2024-07-24T07:59:40.000Z</time>
</trkpt>
<trkpt lat="46.0234980" lon="10.4046820">
	<ele>1534.00</ele>
	<time>2024-07-24T07:59:41.000Z</time>
</trkpt>
<trkpt lat="46.0235080" lon="10.4046710">
	<ele>1533.80</ele>
	<time>2024-07-24T07:59:42.000Z</time>
</trkpt>
<trkpt lat="46.0235090" lon="10.4046660">
	<ele>1533.80</ele>
	<time>2024-07-24T07:59:43.000Z</time>
</trkpt>
<trkpt lat="46.0235200" lon="10.4046510">
	<ele>1533.80</ele>
	<time>2024-07-24T07:59:44.000Z</time>
</trkpt>
<trkpt lat="46.0235310" lon="10.4046360">
	<ele>1533.60</ele>
	<time>2024-07-24T07:59:45.000Z</time>
</trkpt>
<trkpt lat="46.0235440" lon="10.4046180">
	<ele>1533.40</ele>
	<time>2024-07-24T07:59:46.000Z</time>
</trkpt>
<trkpt lat="46.0235500" lon="10.4046020">
	<ele>1533.40</ele>
	<time>2024-07-24T07:59:47.000Z</time>
</trkpt>
<trkpt lat="46.0235500" lon="10.4045890">
	<ele>1533.20</ele>
	<time>2024-07-24T07:59:48.000Z</time>
</trkpt>
<trkpt lat="46.0235500" lon="10.4045780">
	<ele>1533.20</ele>
	<time>2024-07-24T07:59:49.000Z</time>
</trkpt>
<trkpt lat="46.0235640" lon="10.4045610">
	<ele>1533.20</ele>
	<time>2024-07-24T07:59:50.000Z</time>
</trkpt>
<trkpt lat="46.0235810" lon="10.4045440">
	<ele>1533.00</ele>
	<time>2024-07-24T07:59:51.000Z</time>
</trkpt>
<trkpt lat="46.0235960" lon="10.4045280">
	<ele>1533.00</ele>
	<time>2024-07-24T07:59:52.000Z</time>
</trkpt>
<trkpt lat="46.0236180" lon="10.4045050">
	<ele>1533.00</ele>
	<time>2024-07-24T07:59:53.000Z</time>
</trkpt>
<trkpt lat="46.0236180" lon="10.4044940">
	<ele>1532.80</ele>
	<time>2024-07-24T07:59:54.000Z</time>
</trkpt>
<trkpt lat="46.0236130" lon="10.4044840">
	<ele>1532.60</ele>
	<time>2024-07-24T07:59:55.000Z</time>
</trkpt>
<trkpt lat="46.0236170" lon="10.4044780">
	<ele>1532.60</ele>
	<time>2024-07-24T07:59:56.000Z</time>
</trkpt>
<trkpt lat="46.0236290" lon="10.4044700">
	<ele>1532.40</ele>
	<time>2024-07-24T07:59:57.000Z</time>
</trkpt>
<trkpt lat="46.0236370" lon="10.4044600">
	<ele>1532.40</ele>
	<time>2024-07-24T07:59:58.000Z</time>
</trkpt>
<trkpt lat="46.0236450" lon="10.4044430">
	<ele>1532.40</ele>
	<time>2024-07-24T07:59:59.000Z</time>
</trkpt>
<trkpt lat="46.0236460" lon="10.4044300">
	<ele>1532.20</ele>
	<time>2024-07-24T08:00:00.000Z</time>
</trkpt>
<trkpt lat="46.0236490" lon="10.4044110">
	<ele>1532.20</ele>
	<time>2024-07-24T08:00:01.000Z</time>
</trkpt>
<trkpt lat="46.0236530" lon="10.4044010">
	<ele>1532.00</ele>
	<time>2024-07-24T08:00:02.000Z</time>
</trkpt>
<trkpt lat="46.0236530" lon="10.4043920">
	<ele>1532.00</ele>
	<time>2024-07-24T08:00:03.000Z</time>
</trkpt>
<trkpt lat="46.0236570" lon="10.4043840">
	<ele>1531.80</ele>
	<time>2024-07-24T08:00:04.000Z</time>
</trkpt>
<trkpt lat="46.0236590" lon="10.4043700">
	<ele>1531.60</ele>
	<time>2024-07-24T08:00:05.000Z</time>
</trkpt>
<trkpt lat="46.0236650" lon="10.4043530">
	<ele>1531.40</ele>
	<time>2024-07-24T08:00:06.000Z</time>
</trkpt>
<trkpt lat="46.0236700" lon="10.4043380">
	<ele>1531.40</ele>
	<time>2024-07-24T08:00:07.000Z</time>
</trkpt>
<trkpt lat="46.0236790" lon="10.4043240">
	<ele>1531.20</ele>
	<time>2024-07-24T08:00:08.000Z</time>
</trkpt>
<trkpt lat="46.0236830" lon="10.4043080">
	<ele>1531.20</ele>
	<time>2024-07-24T08:00:09.000Z</time>
</trkpt>
<trkpt lat="46.0236890" lon="10.4042960">
	<ele>1531.00</ele>
	<time>2024-07-24T08:00:10.000Z</time>
</trkpt>
<trkpt lat="46.0236950" lon="10.4042850">
	<ele>1530.80</ele>
	<time>2024-07-24T08:00:11.000Z</time>
</trkpt>
<trkpt lat="46.0237020" lon="10.4042690">
	<ele>1530.80</ele>
	<time>2024-07-24T08:00:12.000Z</time>
</trkpt>
<trkpt lat="46.0237090" lon="10.4042550">
	<ele>1530.60</ele>
	<time>2024-07-24T08:00:13.000Z</time>
</trkpt>
<trkpt lat="46.0237240" lon="10.4042420">
	<ele>1530.60</ele>
	<time>2024-07-24T08:00:14.000Z</time>
</trkpt>
<trkpt lat="46.0237380" lon="10.4042220">
	<ele>1530.60</ele>
	<time>2024-07-24T08:00:15.000Z</time>
</trkpt>
<trkpt lat="46.0237420" lon="10.4042070">
	<ele>1530.40</ele>
	<time>2024-07-24T08:00:16.000Z</time>
</trkpt>
<trkpt lat="46.0237430" lon="10.4041900">
	<ele>1530.40</ele>
	<time>2024-07-24T08:00:17.000Z</time>
</trkpt>
<trkpt lat="46.0237450" lon="10.4041660">
	<ele>1530.40</ele>
	<time>2024-07-24T08:00:18.000Z</time>
</trkpt>
<trkpt lat="46.0237480" lon="10.4041440">
	<ele>1530.20</ele>
	<time>2024-07-24T08:00:19.000Z</time>
</trkpt>
<trkpt lat="46.0237470" lon="10.4041200">
	<ele>1530.20</ele>
	<time>2024-07-24T08:00:20.000Z</time>
</trkpt>
<trkpt lat="46.0237470" lon="10.4040970">
	<ele>1530.20</ele>
	<time>2024-07-24T08:00:21.000Z</time>
</trkpt>
<trkpt lat="46.0237480" lon="10.4040830">
	<ele>1530.00</ele>
	<time>2024-07-24T08:00:22.000Z</time>
</trkpt>
<trkpt lat="46.0237470" lon="10.4040700">
	<ele>1530.00</ele>
	<time>2024-07-24T08:00:23.000Z</time>
</trkpt>
<trkpt lat="46.0237400" lon="10.4040510">
	<ele>1530.00</ele>
	<time>2024-07-24T08:00:24.000Z</time>
</trkpt>
<trkpt lat="46.0237290" lon="10.4040310">
	<ele>1529.80</ele>
	<time>2024-07-24T08:00:25.000Z</time>
</trkpt>
<trkpt lat="46.0237250" lon="10.4040150">
	<ele>1529.80</ele>
	<time>2024-07-24T08:00:26.000Z</time>
</trkpt>
<trkpt lat="46.0237290" lon="10.4040000">
	<ele>1529.80</ele>
	<time>2024-07-24T08:00:27.000Z</time>
</trkpt>
<trkpt lat="46.0237340" lon="10.4039860">
	<ele>1529.80</ele>
	<time>2024-07-24T08:00:28.000Z</time>
</trkpt>
<trkpt lat="46.0237410" lon="10.4039750">
	<ele>1529.80</ele>
	<time>2024-07-24T08:00:29.000Z</time>
</trkpt>
<trkpt lat="46.0237520" lon="10.4039670">
	<ele>1529.60</ele>
	<time>2024-07-24T08:00:30.000Z</time>
</trkpt>
<trkpt lat="46.0237580" lon="10.4039480">
	<ele>1529.60</ele>
	<time>2024-07-24T08:00:31.000Z</time>
</trkpt>
<trkpt lat="46.0237610" lon="10.4039300">
	<ele>1529.60</ele>
	<time>2024-07-24T08:00:32.000Z</time>
</trkpt>
<trkpt lat="46.0237610" lon="10.4039120">
	<ele>1529.60</ele>
	<time>2024-07-24T08:00:33.000Z</time>
</trkpt>
<trkpt lat="46.0237620" lon="10.4038950">
	<ele>1529.60</ele>
	<time>2024-07-24T08:00:34.000Z</time>
</trkpt>
<trkpt lat="46.0237660" lon="10.4038740">
	<ele>1529.60</ele>
	<time>2024-07-24T08:00:35.000Z</time>
</trkpt>
<trkpt lat="46.0237710" lon="10.4038530">
	<ele>1529.60</ele>
	<time>2024-07-24T08:00:36.000Z</time>
</trkpt>
<trkpt lat="46.0237750" lon="10.4038330">
	<ele>1529.60</ele>
	<time>2024-07-24T08:00:37.000Z</time>
</trkpt>
<trkpt lat="46.0237830" lon="10.4038130">
	<ele>1529.40</ele>
	<time>2024-07-24T08:00:38.000Z</time>
</trkpt>
<trkpt lat="46.0237820" lon="10.4038060">
	<ele>1529.40</ele>
	<time>2024-07-24T08:00:39.000Z</time>
</trkpt>
<trkpt lat="46.0237750" lon="10.4038020">
	<ele>1529.40</ele>
	<time>2024-07-24T08:00:40.000Z</time>
</trkpt>
<trkpt lat="46.0237730" lon="10.4038010">
	<ele>1529.20</ele>
	<time>2024-07-24T08:00:41.000Z</time>
</trkpt>
<trkpt lat="46.0237740" lon="10.4038040">
	<ele>1529.20</ele>
	<time>2024-07-24T08:00:42.000Z</time>
</trkpt>
<trkpt lat="46.0237750" lon="10.4038100">
	<ele>1529.20</ele>
	<time>2024-07-24T08:00:43.000Z</time>
</trkpt>
<trkpt lat="46.0237710" lon="10.4038100">
	<ele>1529.20</ele>
	<time>2024-07-24T08:00:44.000Z</time>
</trkpt>
<trkpt lat="46.0237700" lon="10.4038090">
	<ele>1529.20</ele>
	<time>2024-07-24T08:00:45.000Z</time>
</trkpt>
<trkpt lat="46.0237700" lon="10.4038090">
	<ele>1529.40</ele>
	<time>2024-07-24T08:00:46.000Z</time>
</trkpt>
<trkpt lat="46.0237700" lon="10.4038120">
	<ele>1529.40</ele>
	<time>2024-07-24T08:00:47.000Z</time>
</trkpt>
<trkpt lat="46.0237670" lon="10.4038140">
	<ele>1529.40</ele>
	<time>2024-07-24T08:00:48.000Z</time>
</trkpt>
<trkpt lat="46.0237670" lon="10.4038170">
	<ele>1529.40</ele>
	<time>2024-07-24T08:00:49.000Z</time>
</trkpt>
<trkpt lat="46.0237670" lon="10.4038180">
	<ele>1529.40</ele>
	<time>2024-07-24T08:00:50.000Z</time>
</trkpt>
<trkpt lat="46.0237670" lon="10.4038180">
	<ele>1529.40</ele>
	<time>2024-07-24T08:00:51.000Z</time>
</trkpt>
<trkpt lat="46.0237670" lon="10.4038180">
	<ele>1529.40</ele>
	<time>2024-07-24T08:00:52.000Z</time>
</trkpt>
<trkpt lat="46.0237670" lon="10.4038180">
	<ele>1529.40</ele>
	<time>2024-07-24T08:00:53.000Z</time>
</trkpt>
<trkpt lat="46.0237670" lon="10.4038180">
	<ele>1529.40</ele>
	<time>2024-07-24T08:00:54.000Z</time>
</trkpt>
<trkpt lat="46.0237670" lon="10.4038180">
	<ele>1529.40</ele>
	<time>2024-07-24T08:00:55.000Z</time>
</trkpt>
<trkpt lat="46.0237670" lon="10.4038180">
	<ele>1529.40</ele>
	<time>2024-07-24T08:00:56.000Z</time>
</trkpt>
<trkpt lat="46.0237700" lon="10.4038090">
	<ele>1529.40</ele>
	<time>2024-07-24T08:00:57.000Z</time>
</trkpt>
<trkpt lat="46.0237800" lon="10.4037810">
	<ele>1529.40</ele>
	<time>2024-07-24T08:00:58.000Z</time>
</trkpt>
<trkpt lat="46.0237880" lon="10.4037500">
	<ele>1529.40</ele>
	<time>2024-07-24T08:00:59.000Z</time>
</trkpt>
<trkpt lat="46.0237890" lon="10.4037220">
	<ele>1529.40</ele>
	<time>2024-07-24T08:01:00.000Z</time>
</trkpt>
<trkpt lat="46.0237860" lon="10.4036880">
	<ele>1529.40</ele>
	<time>2024-07-24T08:01:01.000Z</time>
</trkpt>
<trkpt lat="46.0237870" lon="10.4036530">
	<ele>1529.40</ele>
	<time>2024-07-24T08:01:02.000Z</time>
</trkpt>
<trkpt lat="46.0238030" lon="10.4036250">
	<ele>1529.40</ele>
	<time>2024-07-24T08:01:03.000Z</time>
</trkpt>
<trkpt lat="46.0238150" lon="10.4035930">
	<ele>1528.80</ele>
	<time>2024-07-24T08:01:04.000Z</time>
</trkpt>
<trkpt lat="46.0238190" lon="10.4035550">
	<ele>1528.60</ele>
	<time>2024-07-24T08:01:05.000Z</time>
</trkpt>
<trkpt lat="46.0238200" lon="10.4035260">
	<ele>1528.40</ele>
	<time>2024-07-24T08:01:06.000Z</time>
</trkpt>
<trkpt lat="46.0238260" lon="10.4035100">
	<ele>1528.20</ele>
	<time>2024-07-24T08:01:07.000Z</time>
</trkpt>
<trkpt lat="46.0238270" lon="10.4034880">
	<ele>1528.20</ele>
	<time>2024-07-24T08:01:08.000Z</time>
</trkpt>
<trkpt lat="46.0238270" lon="10.4034730">
	<ele>1528.20</ele>
	<time>2024-07-24T08:01:09.000Z</time>
</trkpt>
<trkpt lat="46.0238290" lon="10.4034640">
	<ele>1528.20</ele>
	<time>2024-07-24T08:01:10.000Z</time>
</trkpt>
<trkpt lat="46.0238400" lon="10.4034500">
	<ele>1528.20</ele>
	<time>2024-07-24T08:01:11.000Z</time>
</trkpt>
<trkpt lat="46.0238500" lon="10.4034380">
	<ele>1528.00</ele>
	<time>2024-07-24T08:01:12.000Z</time>
</trkpt>
<trkpt lat="46.0238610" lon="10.4034210">
	<ele>1527.80</ele>
	<time>2024-07-24T08:01:13.000Z</time>
</trkpt>
<trkpt lat="46.0238690" lon="10.4034040">
	<ele>1527.80</ele>
	<time>2024-07-24T08:01:14.000Z</time>
</trkpt>
<trkpt lat="46.0238740" lon="10.4033870">
	<ele>1527.60</ele>
	<time>2024-07-24T08:01:15.000Z</time>
</trkpt>
<trkpt lat="46.0238870" lon="10.4033660">
	<ele>1527.60</ele>
	<time>2024-07-24T08:01:16.000Z</time>
</trkpt>
<trkpt lat="46.0238890" lon="10.4033540">
	<ele>1527.40</ele>
	<time>2024-07-24T08:01:17.000Z</time>
</trkpt>
<trkpt lat="46.0238960" lon="10.4033410">
	<ele>1527.40</ele>
	<time>2024-07-24T08:01:18.000Z</time>
</trkpt>
<trkpt lat="46.0239020" lon="10.4033290">
	<ele>1527.20</ele>
	<time>2024-07-24T08:01:19.000Z</time>
</trkpt>
<trkpt lat="46.0239040" lon="10.4033060">
	<ele>1527.00</ele>
	<time>2024-07-24T08:01:20.000Z</time>
</trkpt>
<trkpt lat="46.0239070" lon="10.4033020">
	<ele>1527.00</ele>
	<time>2024-07-24T08:01:21.000Z</time>
</trkpt>
<trkpt lat="46.0239080" lon="10.4033030">
	<ele>1527.00</ele>
	<time>2024-07-24T08:01:22.000Z</time>
</trkpt>
<trkpt lat="46.0239100" lon="10.4033050">
	<ele>1527.00</ele>
	<time>2024-07-24T08:01:23.000Z</time>
</trkpt>
<trkpt lat="46.0239110" lon="10.4033070">
	<ele>1527.00</ele>
	<time>2024-07-24T08:01:24.000Z</time>
</trkpt>
<trkpt lat="46.0239110" lon="10.4033080">
	<ele>1527.00</ele>
	<time>2024-07-24T08:01:25.000Z</time>
</trkpt>
<trkpt lat="46.0239120" lon="10.4032970">
	<ele>1526.80</ele>
	<time>2024-07-24T08:01:26.000Z</time>
</trkpt>
<trkpt lat="46.0239100" lon="10.4032850">
	<ele>1526.60</ele>
	<time>2024-07-24T08:01:27.000Z</time>
</trkpt>
<trkpt lat="46.0239110" lon="10.4032740">
	<ele>1526.60</ele>
	<time>2024-07-24T08:01:28.000Z</time>
</trkpt>
<trkpt lat="46.0239110" lon="10.4032590">
	<ele>1526.60</ele>
	<time>2024-07-24T08:01:29.000Z</time>
</trkpt>
<trkpt lat="46.0239110" lon="10.4032480">
	<ele>1526.40</ele>
	<time>2024-07-24T08:01:30.000Z</time>
</trkpt>
<trkpt lat="46.0239130" lon="10.4032320">
	<ele>1526.20</ele>
	<time>2024-07-24T08:01:31.000Z</time>
</trkpt>
<trkpt lat="46.0239170" lon="10.4032210">
	<ele>1526.20</ele>
	<time>2024-07-24T08:01:32.000Z</time>
</trkpt>
<trkpt lat="46.0239220" lon="10.4032110">
	<ele>1526.20</ele>
	<time>2024-07-24T08:01:33.000Z</time>
</trkpt>
<trkpt lat="46.0239320" lon="10.4031970">
	<ele>1526.00</ele>
	<time>2024-07-24T08:01:34.000Z</time>
</trkpt>
<trkpt lat="46.0239460" lon="10.4031840">
	<ele>1526.00</ele>
	<time>2024-07-24T08:01:35.000Z</time>
</trkpt>
<trkpt lat="46.0239590" lon="10.4031720">
	<ele>1526.00</ele>
	<time>2024-07-24T08:01:36.000Z</time>
</trkpt>
<trkpt lat="46.0239730" lon="10.4031550">
	<ele>1525.80</ele>
	<time>2024-07-24T08:01:37.000Z</time>
</trkpt>
<trkpt lat="46.0239830" lon="10.4031380">
	<ele>1525.80</ele>
	<time>2024-07-24T08:01:38.000Z</time>
</trkpt>
<trkpt lat="46.0239920" lon="10.4031190">
	<ele>1525.60</ele>
	<time>2024-07-24T08:01:39.000Z</time>
</trkpt>
<trkpt lat="46.0240030" lon="10.4031010">
	<ele>1525.40</ele>
	<time>2024-07-24T08:01:40.000Z</time>
</trkpt>
<trkpt lat="46.0240160" lon="10.4030850">
	<ele>1525.40</ele>
	<time>2024-07-24T08:01:41.000Z</time>
</trkpt>
<trkpt lat="46.0240290" lon="10.4030720">
	<ele>1525.20</ele>
	<time>2024-07-24T08:01:42.000Z</time>
</trkpt>
<trkpt lat="46.0240400" lon="10.4030560">
	<ele>1525.20</ele>
	<time>2024-07-24T08:01:43.000Z</time>
</trkpt>
<trkpt lat="46.0240450" lon="10.4030440">
	<ele>1525.20</ele>
	<time>2024-07-24T08:01:44.000Z</time>
</trkpt>
<trkpt lat="46.0240530" lon="10.4030290">
	<ele>1525.20</ele>
	<time>2024-07-24T08:01:45.000Z</time>
</trkpt>
<trkpt lat="46.0240530" lon="10.4030070">
	<ele>1525.20</ele>
	<time>2024-07-24T08:01:46.000Z</time>
</trkpt>
<trkpt lat="46.0240570" lon="10.4029910">
	<ele>1525.20</ele>
	<time>2024-07-24T08:01:47.000Z</time>
</trkpt>
<trkpt lat="46.0240630" lon="10.4029780">
	<ele>1525.20</ele>
	<time>2024-07-24T08:01:48.000Z</time>
</trkpt>
<trkpt lat="46.0240610" lon="10.4029600">
	<ele>1525.20</ele>
	<time>2024-07-24T08:01:49.000Z</time>
</trkpt>
<trkpt lat="46.0240590" lon="10.4029430">
	<ele>1525.00</ele>
	<time>2024-07-24T08:01:50.000Z</time>
</trkpt>
<trkpt lat="46.0240640" lon="10.4029290">
	<ele>1525.00</ele>
	<time>2024-07-24T08:01:51.000Z</time>
</trkpt>
<trkpt lat="46.0240770" lon="10.4029190">
	<ele>1525.00</ele>
	<time>2024-07-24T08:01:52.000Z</time>
</trkpt>
<trkpt lat="46.0240910" lon="10.4029070">
	<ele>1524.80</ele>
	<time>2024-07-24T08:01:53.000Z</time>
</trkpt>
<trkpt lat="46.0241050" lon="10.4028950">
	<ele>1524.80</ele>
	<time>2024-07-24T08:01:54.000Z</time>
</trkpt>
<trkpt lat="46.0241170" lon="10.4028750">
	<ele>1524.80</ele>
	<time>2024-07-24T08:01:55.000Z</time>
</trkpt>
<trkpt lat="46.0241240" lon="10.4028640">
	<ele>1524.60</ele>
	<time>2024-07-24T08:01:56.000Z</time>
</trkpt>
<trkpt lat="46.0241340" lon="10.4028510">
	<ele>1524.60</ele>
	<time>2024-07-24T08:01:57.000Z</time>
</trkpt>
<trkpt lat="46.0241360" lon="10.4028400">
	<ele>1524.40</ele>
	<time>2024-07-24T08:01:58.000Z</time>
</trkpt>
<trkpt lat="46.0241360" lon="10.4028290">
	<ele>1524.40</ele>
	<time>2024-07-24T08:01:59.000Z</time>
</trkpt>
<trkpt lat="46.0241410" lon="10.4028200">
	<ele>1524.20</ele>
	<time>2024-07-24T08:02:00.000Z</time>
</trkpt>
<trkpt lat="46.0241470" lon="10.4028090">
	<ele>1524.20</ele>
	<time>2024-07-24T08:02:01.000Z</time>
</trkpt>
<trkpt lat="46.0241540" lon="10.4027980">
	<ele>1524.00</ele>
	<time>2024-07-24T08:02:02.000Z</time>
</trkpt>
<trkpt lat="46.0241660" lon="10.4027860">
	<ele>1524.00</ele>
	<time>2024-07-24T08:02:03.000Z</time>
</trkpt>
<trkpt lat="46.0241800" lon="10.4027760">
	<ele>1524.00</ele>
	<time>2024-07-24T08:02:04.000Z</time>
</trkpt>
<trkpt lat="46.0241900" lon="10.4027640">
	<ele>1523.80</ele>
	<time>2024-07-24T08:02:05.000Z</time>
</trkpt>
<trkpt lat="46.0242000" lon="10.4027510">
	<ele>1523.80</ele>
	<time>2024-07-24T08:02:06.000Z</time>
</trkpt>
<trkpt lat="46.0242130" lon="10.4027300">
	<ele>1523.80</ele>
	<time>2024-07-24T08:02:07.000Z</time>
</trkpt>
<trkpt lat="46.0242240" lon="10.4027110">
	<ele>1523.80</ele>
	<time>2024-07-24T08:02:08.000Z</time>
</trkpt>
<trkpt lat="46.0242350" lon="10.4026960">
	<ele>1523.60</ele>
	<time>2024-07-24T08:02:09.000Z</time>
</trkpt>
<trkpt lat="46.0242470" lon="10.4026820">
	<ele>1523.60</ele>
	<time>2024-07-24T08:02:10.000Z</time>
</trkpt>
<trkpt lat="46.0242550" lon="10.4026660">
	<ele>1523.40</ele>
	<time>2024-07-24T08:02:11.000Z</time>
</trkpt>
<trkpt lat="46.0242670" lon="10.4026490">
	<ele>1523.40</ele>
	<time>2024-07-24T08:02:12.000Z</time>
</trkpt>
<trkpt lat="46.0242740" lon="10.4026390">
	<ele>1523.40</ele>
	<time>2024-07-24T08:02:13.000Z</time>
</trkpt>
<trkpt lat="46.0242780" lon="10.4026290">
	<ele>1523.20</ele>
	<time>2024-07-24T08:02:14.000Z</time>
</trkpt>
<trkpt lat="46.0242850" lon="10.4026130">
	<ele>1523.20</ele>
	<time>2024-07-24T08:02:15.000Z</time>
</trkpt>
<trkpt lat="46.0242980" lon="10.4025930">
	<ele>1523.20</ele>
	<time>2024-07-24T08:02:16.000Z</time>
</trkpt>
<trkpt lat="46.0243050" lon="10.4025700">
	<ele>1523.00</ele>
	<time>2024-07-24T08:02:17.000Z</time>
</trkpt>
<trkpt lat="46.0243110" lon="10.4025460">
	<ele>1523.00</ele>
	<time>2024-07-24T08:02:18.000Z</time>
</trkpt>
<trkpt lat="46.0243150" lon="10.4025300">
	<ele>1523.00</ele>
	<time>2024-07-24T08:02:19.000Z</time>
</trkpt>
<trkpt lat="46.0243190" lon="10.4025150">
	<ele>1522.80</ele>
	<time>2024-07-24T08:02:20.000Z</time>
</trkpt>
<trkpt lat="46.0243180" lon="10.4025030">
	<ele>1522.80</ele>
	<time>2024-07-24T08:02:21.000Z</time>
</trkpt>
<trkpt lat="46.0243170" lon="10.4024900">
	<ele>1522.80</ele>
	<time>2024-07-24T08:02:22.000Z</time>
</trkpt>
<trkpt lat="46.0243230" lon="10.4024760">
	<ele>1522.60</ele>
	<time>2024-07-24T08:02:23.000Z</time>
</trkpt>
<trkpt lat="46.0243320" lon="10.4024630">
	<ele>1522.60</ele>
	<time>2024-07-24T08:02:24.000Z</time>
</trkpt>
<trkpt lat="46.0243390" lon="10.4024460">
	<ele>1522.60</ele>
	<time>2024-07-24T08:02:25.000Z</time>
</trkpt>
<trkpt lat="46.0243480" lon="10.4024330">
	<ele>1522.40</ele>
	<time>2024-07-24T08:02:26.000Z</time>
</trkpt>
<trkpt lat="46.0243520" lon="10.4024240">
	<ele>1522.40</ele>
	<time>2024-07-24T08:02:27.000Z</time>
</trkpt>
<trkpt lat="46.0243580" lon="10.4024040">
	<ele>1522.40</ele>
	<time>2024-07-24T08:02:28.000Z</time>
</trkpt>
<trkpt lat="46.0243680" lon="10.4023850">
	<ele>1522.40</ele>
	<time>2024-07-24T08:02:29.000Z</time>
</trkpt>
<trkpt lat="46.0243770" lon="10.4023740">
	<ele>1522.40</ele>
	<time>2024-07-24T08:02:30.000Z</time>
</trkpt>
<trkpt lat="46.0243810" lon="10.4023660">
	<ele>1522.40</ele>
	<time>2024-07-24T08:02:31.000Z</time>
</trkpt>
<trkpt lat="46.0243800" lon="10.4023490">
	<ele>1522.40</ele>
	<time>2024-07-24T08:02:32.000Z</time>
</trkpt>
<trkpt lat="46.0243730" lon="10.4023340">
	<ele>1522.40</ele>
	<time>2024-07-24T08:02:33.000Z</time>
</trkpt>
<trkpt lat="46.0243740" lon="10.4023150">
	<ele>1522.40</ele>
	<time>2024-07-24T08:02:34.000Z</time>
</trkpt>
<trkpt lat="46.0243750" lon="10.4022950">
	<ele>1522.20</ele>
	<time>2024-07-24T08:02:35.000Z</time>
</trkpt>
<trkpt lat="46.0243810" lon="10.4022740">
	<ele>1522.20</ele>
	<time>2024-07-24T08:02:36.000Z</time>
</trkpt>
<trkpt lat="46.0243880" lon="10.4022630">
	<ele>1522.20</ele>
	<time>2024-07-24T08:02:37.000Z</time>
</trkpt>
<trkpt lat="46.0243930" lon="10.4022490">
	<ele>1522.00</ele>
	<time>2024-07-24T08:02:38.000Z</time>
</trkpt>
<trkpt lat="46.0243990" lon="10.4022340">
	<ele>1522.00</ele>
	<time>2024-07-24T08:02:39.000Z</time>
</trkpt>
<trkpt lat="46.0244100" lon="10.4022110">
	<ele>1522.00</ele>
	<time>2024-07-24T08:02:40.000Z</time>
</trkpt>
<trkpt lat="46.0244170" lon="10.4021940">
	<ele>1521.80</ele>
	<time>2024-07-24T08:02:41.000Z</time>
</trkpt>
<trkpt lat="46.0244240" lon="10.4021880">
	<ele>1521.80</ele>
	<time>2024-07-24T08:02:42.000Z</time>
</trkpt>
<trkpt lat="46.0244240" lon="10.4021740">
	<ele>1521.60</ele>
	<time>2024-07-24T08:02:43.000Z</time>
</trkpt>
<trkpt lat="46.0244280" lon="10.4021590">
	<ele>1521.60</ele>
	<time>2024-07-24T08:02:44.000Z</time>
</trkpt>
<trkpt lat="46.0244330" lon="10.4021390">
	<ele>1521.60</ele>
	<time>2024-07-24T08:02:45.000Z</time>
</trkpt>
<trkpt lat="46.0244440" lon="10.4021200">
	<ele>1521.60</ele>
	<time>2024-07-24T08:02:46.000Z</time>
</trkpt>
<trkpt lat="46.0244570" lon="10.4021000">
	<ele>1521.60</ele>
	<time>2024-07-24T08:02:47.000Z</time>
</trkpt>
<trkpt lat="46.0244720" lon="10.4020840">
	<ele>1521.40</ele>
	<time>2024-07-24T08:02:48.000Z</time>
</trkpt>
<trkpt lat="46.0244830" lon="10.4020780">
	<ele>1521.40</ele>
	<time>2024-07-24T08:02:49.000Z</time>
</trkpt>
<trkpt lat="46.0244920" lon="10.4020700">
	<ele>1521.40</ele>
	<time>2024-07-24T08:02:50.000Z</time>
</trkpt>
<trkpt lat="46.0244950" lon="10.4020610">
	<ele>1521.20</ele>
	<time>2024-07-24T08:02:51.000Z</time>
</trkpt>
<trkpt lat="46.0244970" lon="10.4020520">
	<ele>1521.20</ele>
	<time>2024-07-24T08:02:52.000Z</time>
</trkpt>
<trkpt lat="46.0244990" lon="10.4020370">
	<ele>1521.00</ele>
	<time>2024-07-24T08:02:53.000Z</time>
</trkpt>
<trkpt lat="46.0245040" lon="10.4020230">
	<ele>1521.00</ele>
	<time>2024-07-24T08:02:54.000Z</time>
</trkpt>
<trkpt lat="46.0245100" lon="10.4020080">
	<ele>1521.00</ele>
	<time>2024-07-24T08:02:55.000Z</time>
</trkpt>
<trkpt lat="46.0245180" lon="10.4019920">
	<ele>1520.80</ele>
	<time>2024-07-24T08:02:56.000Z</time>
</trkpt>
<trkpt lat="46.0245230" lon="10.4019870">
	<ele>1520.80</ele>
	<time>2024-07-24T08:02:57.000Z</time>
</trkpt>
<trkpt lat="46.0245240" lon="10.4019750">
	<ele>1520.80</ele>
	<time>2024-07-24T08:02:58.000Z</time>
</trkpt>
<trkpt lat="46.0245330" lon="10.4019670">
	<ele>1520.60</ele>
	<time>2024-07-24T08:02:59.000Z</time>
</trkpt>
<trkpt lat="46.0245390" lon="10.4019610">
	<ele>1520.60</ele>
	<time>2024-07-24T08:03:00.000Z</time>
</trkpt>
<trkpt lat="46.0245400" lon="10.4019570">
	<ele>1520.60</ele>
	<time>2024-07-24T08:03:01.000Z</time>
</trkpt>
<trkpt lat="46.0245410" lon="10.4019550">
	<ele>1520.40</ele>
	<time>2024-07-24T08:03:02.000Z</time>
</trkpt>
<trkpt lat="46.0245400" lon="10.4019540">
	<ele>1520.40</ele>
	<time>2024-07-24T08:03:03.000Z</time>
</trkpt>
<trkpt lat="46.0245400" lon="10.4019530">
	<ele>1520.40</ele>
	<time>2024-07-24T08:03:04.000Z</time>
</trkpt>
<trkpt lat="46.0245410" lon="10.4019540">
	<ele>1520.40</ele>
	<time>2024-07-24T08:03:05.000Z</time>
</trkpt>
<trkpt lat="46.0245410" lon="10.4019550">
	<ele>1520.40</ele>
	<time>2024-07-24T08:03:06.000Z</time>
</trkpt>
<trkpt lat="46.0245450" lon="10.4019550">
	<ele>1520.40</ele>
	<time>2024-07-24T08:03:07.000Z</time>
</trkpt>
<trkpt lat="46.0245490" lon="10.4019540">
	<ele>1520.60</ele>
	<time>2024-07-24T08:03:08.000Z</time>
</trkpt>
<trkpt lat="46.0245520" lon="10.4019510">
	<ele>1520.60</ele>
	<time>2024-07-24T08:03:09.000Z</time>
</trkpt>
<trkpt lat="46.0245540" lon="10.4019490">
	<ele>1520.60</ele>
	<time>2024-07-24T08:03:10.000Z</time>
</trkpt>
<trkpt lat="46.0245570" lon="10.4019480">
	<ele>1520.60</ele>
	<time>2024-07-24T08:03:11.000Z</time>
</trkpt>
<trkpt lat="46.0245600" lon="10.4019480">
	<ele>1520.60</ele>
	<time>2024-07-24T08:03:12.000Z</time>
</trkpt>
<trkpt lat="46.0245630" lon="10.4019470">
	<ele>1520.40</ele>
	<time>2024-07-24T08:03:13.000Z</time>
</trkpt>
<trkpt lat="46.0245730" lon="10.4019440">
	<ele>1520.40</ele>
	<time>2024-07-24T08:03:14.000Z</time>
</trkpt>
<trkpt lat="46.0245840" lon="10.4019360">
	<ele>1520.40</ele>
	<time>2024-07-24T08:03:15.000Z</time>
</trkpt>
<trkpt lat="46.0245940" lon="10.4019300">
	<ele>1520.20</ele>
	<time>2024-07-24T08:03:16.000Z</time>
</trkpt>
<trkpt lat="46.0246050" lon="10.4019250">
	<ele>1520.20</ele>
	<time>2024-07-24T08:03:17.000Z</time>
</trkpt>
<trkpt lat="46.0246100" lon="10.4019150">
	<ele>1520.00</ele>
	<time>2024-07-24T08:03:18.000Z</time>
</trkpt>
<trkpt lat="46.0246160" lon="10.4019000">
	<ele>1520.00</ele>
	<time>2024-07-24T08:03:19.000Z</time>
</trkpt>
<trkpt lat="46.0246250" lon="10.4018870">
	<ele>1520.00</ele>
	<time>2024-07-24T08:03:20.000Z</time>
</trkpt>
<trkpt lat="46.0246320" lon="10.4018790">
	<ele>1520.00</ele>
	<time>2024-07-24T08:03:21.000Z</time>
</trkpt>
<trkpt lat="46.0246370" lon="10.4018670">
	<ele>1519.80</ele>
	<time>2024-07-24T08:03:22.000Z</time>
</trkpt>
<trkpt lat="46.0246410" lon="10.4018520">
	<ele>1519.80</ele>
	<time>2024-07-24T08:03:23.000Z</time>
</trkpt>
<trkpt lat="46.0246420" lon="10.4018360">
	<ele>1519.60</ele>
	<time>2024-07-24T08:03:24.000Z</time>
</trkpt>
<trkpt lat="46.0246450" lon="10.4018230">
	<ele>1519.60</ele>
	<time>2024-07-24T08:03:25.000Z</time>
</trkpt>
<trkpt lat="46.0246480" lon="10.4018090">
	<ele>1519.40</ele>
	<time>2024-07-24T08:03:26.000Z</time>
</trkpt>
<trkpt lat="46.0246520" lon="10.4017910">
	<ele>1519.40</ele>
	<time>2024-07-24T08:03:27.000Z</time>
</trkpt>
<trkpt lat="46.0246610" lon="10.4017790">
	<ele>1519.40</ele>
	<time>2024-07-24T08:03:28.000Z</time>
</trkpt>
<trkpt lat="46.0246650" lon="10.4017640">
	<ele>1519.40</ele>
	<time>2024-07-24T08:03:29.000Z</time>
</trkpt>
<trkpt lat="46.0246680" lon="10.4017500">
	<ele>1519.40</ele>
	<time>2024-07-24T08:03:30.000Z</time>
</trkpt>
<trkpt lat="46.0246780" lon="10.4017410">
	<ele>1519.40</ele>
	<time>2024-07-24T08:03:31.000Z</time>
</trkpt>
<trkpt lat="46.0246870" lon="10.4017300">
	<ele>1519.20</ele>
	<time>2024-07-24T08:03:32.000Z</time>
</trkpt>
<trkpt lat="46.0246950" lon="10.4017180">
	<ele>1519.20</ele>
	<time>2024-07-24T08:03:33.000Z</time>
</trkpt>
<trkpt lat="46.0247060" lon="10.4017030">
	<ele>1519.00</ele>
	<time>2024-07-24T08:03:34.000Z</time>
</trkpt>
<trkpt lat="46.0247020" lon="10.4016810">
	<ele>1519.00</ele>
	<time>2024-07-24T08:03:35.000Z</time>
</trkpt>
<trkpt lat="46.0247020" lon="10.4016570">
	<ele>1518.80</ele>
	<time>2024-07-24T08:03:36.000Z</time>
</trkpt>
<trkpt lat="46.0247100" lon="10.4016420">
	<ele>1518.60</ele>
	<time>2024-07-24T08:03:37.000Z</time>
</trkpt>
<trkpt lat="46.0247210" lon="10.4016330">
	<ele>1518.40</ele>
	<time>2024-07-24T08:03:38.000Z</time>
</trkpt>
<trkpt lat="46.0247300" lon="10.4016230">
	<ele>1518.40</ele>
	<time>2024-07-24T08:03:39.000Z</time>
</trkpt>
<trkpt lat="46.0247350" lon="10.4016120">
	<ele>1518.20</ele>
	<time>2024-07-24T08:03:40.000Z</time>
</trkpt>
<trkpt lat="46.0247380" lon="10.4015960">
	<ele>1518.20</ele>
	<time>2024-07-24T08:03:41.000Z</time>
</trkpt>
<trkpt lat="46.0247440" lon="10.4015770">
	<ele>1518.00</ele>
	<time>2024-07-24T08:03:42.000Z</time>
</trkpt>
<trkpt lat="46.0247470" lon="10.4015620">
	<ele>1517.80</ele>
	<time>2024-07-24T08:03:43.000Z</time>
</trkpt>
<trkpt lat="46.0247530" lon="10.4015490">
	<ele>1517.80</ele>
	<time>2024-07-24T08:03:44.000Z</time>
</trkpt>
<trkpt lat="46.0247630" lon="10.4015340">
	<ele>1517.80</ele>
	<time>2024-07-24T08:03:45.000Z</time>
</trkpt>
<trkpt lat="46.0247730" lon="10.4015200">
	<ele>1517.60</ele>
	<time>2024-07-24T08:03:46.000Z</time>
</trkpt>
<trkpt lat="46.0247830" lon="10.4015080">
	<ele>1517.60</ele>
	<time>2024-07-24T08:03:47.000Z</time>
</trkpt>
<trkpt lat="46.0248010" lon="10.4014860">
	<ele>1517.40</ele>
	<time>2024-07-24T08:03:48.000Z</time>
</trkpt>
<trkpt lat="46.0248220" lon="10.4014640">
	<ele>1517.20</ele>
	<time>2024-07-24T08:03:49.000Z</time>
</trkpt>
<trkpt lat="46.0248310" lon="10.4014490">
	<ele>1517.20</ele>
	<time>2024-07-24T08:03:50.000Z</time>
</trkpt>
<trkpt lat="46.0248350" lon="10.4014320">
	<ele>1516.80</ele>
	<time>2024-07-24T08:03:51.000Z</time>
</trkpt>
<trkpt lat="46.0248450" lon="10.4014230">
	<ele>1516.80</ele>
	<time>2024-07-24T08:03:52.000Z</time>
</trkpt>
<trkpt lat="46.0248570" lon="10.4014060">
	<ele>1516.60</ele>
	<time>2024-07-24T08:03:53.000Z</time>
</trkpt>
<trkpt lat="46.0248630" lon="10.4013890">
	<ele>1516.60</ele>
	<time>2024-07-24T08:03:54.000Z</time>
</trkpt>
<trkpt lat="46.0248730" lon="10.4013670">
	<ele>1516.60</ele>
	<time>2024-07-24T08:03:55.000Z</time>
</trkpt>
<trkpt lat="46.0248780" lon="10.4013440">
	<ele>1516.40</ele>
	<time>2024-07-24T08:03:56.000Z</time>
</trkpt>
<trkpt lat="46.0248800" lon="10.4013190">
	<ele>1516.40</ele>
	<time>2024-07-24T08:03:57.000Z</time>
</trkpt>
<trkpt lat="46.0248800" lon="10.4013000">
	<ele>1516.20</ele>
	<time>2024-07-24T08:03:58.000Z</time>
</trkpt>
<trkpt lat="46.0248760" lon="10.4012780">
	<ele>1516.20</ele>
	<time>2024-07-24T08:03:59.000Z</time>
</trkpt>
<trkpt lat="46.0248680" lon="10.4012510">
	<ele>1516.00</ele>
	<time>2024-07-24T08:04:00.000Z</time>
</trkpt>
<trkpt lat="46.0248630" lon="10.4012300">
	<ele>1516.00</ele>
	<time>2024-07-24T08:04:01.000Z</time>
</trkpt>
<trkpt lat="46.0248700" lon="10.4012200">
	<ele>1515.80</ele>
	<time>2024-07-24T08:04:02.000Z</time>
</trkpt>
<trkpt lat="46.0248810" lon="10.4012140">
	<ele>1515.80</ele>
	<time>2024-07-24T08:04:03.000Z</time>
</trkpt>
<trkpt lat="46.0248950" lon="10.4011920">
	<ele>1515.60</ele>
	<time>2024-07-24T08:04:04.000Z</time>
</trkpt>
<trkpt lat="46.0249070" lon="10.4011710">
	<ele>1515.60</ele>
	<time>2024-07-24T08:04:05.000Z</time>
</trkpt>
<trkpt lat="46.0249140" lon="10.4011590">
	<ele>1515.40</ele>
	<time>2024-07-24T08:04:06.000Z</time>
</trkpt>
<trkpt lat="46.0249230" lon="10.4011450">
	<ele>1515.20</ele>
	<time>2024-07-24T08:04:07.000Z</time>
</trkpt>
<trkpt lat="46.0249300" lon="10.4011250">
	<ele>1515.20</ele>
	<time>2024-07-24T08:04:08.000Z</time>
</trkpt>
<trkpt lat="46.0249350" lon="10.4011110">
	<ele>1515.00</ele>
	<time>2024-07-24T08:04:09.000Z</time>
</trkpt>
<trkpt lat="46.0249410" lon="10.4010880">
	<ele>1514.80</ele>
	<time>2024-07-24T08:04:10.000Z</time>
</trkpt>
<trkpt lat="46.0249480" lon="10.4010700">
	<ele>1514.80</ele>
	<time>2024-07-24T08:04:11.000Z</time>
</trkpt>
<trkpt lat="46.0249520" lon="10.4010570">
	<ele>1514.60</ele>
	<time>2024-07-24T08:04:12.000Z</time>
</trkpt>
<trkpt lat="46.0249550" lon="10.4010440">
	<ele>1514.60</ele>
	<time>2024-07-24T08:04:13.000Z</time>
</trkpt>
<trkpt lat="46.0249680" lon="10.4010210">
	<ele>1514.60</ele>
	<time>2024-07-24T08:04:14.000Z</time>
</trkpt>
<trkpt lat="46.0249740" lon="10.4009970">
	<ele>1514.40</ele>
	<time>2024-07-24T08:04:15.000Z</time>
</trkpt>
<trkpt lat="46.0249840" lon="10.4009900">
	<ele>1514.40</ele>
	<time>2024-07-24T08:04:16.000Z</time>
</trkpt>
<trkpt lat="46.0249940" lon="10.4009810">
	<ele>1514.20</ele>
	<time>2024-07-24T08:04:17.000Z</time>
</trkpt>
<trkpt lat="46.0250030" lon="10.4009690">
	<ele>1514.00</ele>
	<time>2024-07-24T08:04:18.000Z</time>
</trkpt>
<trkpt lat="46.0250100" lon="10.4009650">
	<ele>1513.80</ele>
	<time>2024-07-24T08:04:19.000Z</time>
</trkpt>
<trkpt lat="46.0250150" lon="10.4009670">
	<ele>1513.80</ele>
	<time>2024-07-24T08:04:20.000Z</time>
</trkpt>
<trkpt lat="46.0250180" lon="10.4009710">
	<ele>1513.60</ele>
	<time>2024-07-24T08:04:21.000Z</time>
</trkpt>
<trkpt lat="46.0250180" lon="10.4009730">
	<ele>1513.60</ele>
	<time>2024-07-24T08:04:22.000Z</time>
</trkpt>
<trkpt lat="46.0250180" lon="10.4009740">
	<ele>1513.40</ele>
	<time>2024-07-24T08:04:23.000Z</time>
</trkpt>
<trkpt lat="46.0250220" lon="10.4009750">
	<ele>1513.60</ele>
	<time>2024-07-24T08:04:24.000Z</time>
</trkpt>
<trkpt lat="46.0250230" lon="10.4009770">
	<ele>1513.60</ele>
	<time>2024-07-24T08:04:25.000Z</time>
</trkpt>
<trkpt lat="46.0250230" lon="10.4009770">
	<ele>1513.60</ele>
	<time>2024-07-24T08:04:26.000Z</time>
</trkpt>
<trkpt lat="46.0250220" lon="10.4009770">
	<ele>1513.60</ele>
	<time>2024-07-24T08:04:27.000Z</time>
</trkpt>
<trkpt lat="46.0250240" lon="10.4009770">
	<ele>1513.60</ele>
	<time>2024-07-24T08:04:28.000Z</time>
</trkpt>
<trkpt lat="46.0250270" lon="10.4009750">
	<ele>1513.60</ele>
	<time>2024-07-24T08:04:29.000Z</time>
</trkpt>
<trkpt lat="46.0250340" lon="10.4009690">
	<ele>1513.40</ele>
	<time>2024-07-24T08:04:30.000Z</time>
</trkpt>
<trkpt lat="46.0250410" lon="10.4009640">
	<ele>1513.20</ele>
	<time>2024-07-24T08:04:31.000Z</time>
</trkpt>
<trkpt lat="46.0250420" lon="10.4009490">
	<ele>1513.20</ele>
	<time>2024-07-24T08:04:32.000Z</time>
</trkpt>
<trkpt lat="46.0250460" lon="10.4009320">
	<ele>1513.00</ele>
	<time>2024-07-24T08:04:33.000Z</time>
</trkpt>
<trkpt lat="46.0250480" lon="10.4009170">
	<ele>1513.00</ele>
	<time>2024-07-24T08:04:34.000Z</time>
</trkpt>
<trkpt lat="46.0250510" lon="10.4009020">
	<ele>1513.00</ele>
	<time>2024-07-24T08:04:35.000Z</time>
</trkpt>
<trkpt lat="46.0250550" lon="10.4008860">
	<ele>1513.00</ele>
	<time>2024-07-24T08:04:36.000Z</time>
</trkpt>
<trkpt lat="46.0250620" lon="10.4008750">
	<ele>1513.00</ele>
	<time>2024-07-24T08:04:37.000Z</time>
</trkpt>
<trkpt lat="46.0250670" lon="10.4008570">
	<ele>1513.00</ele>
	<time>2024-07-24T08:04:38.000Z</time>
</trkpt>
<trkpt lat="46.0250670" lon="10.4008390">
	<ele>1512.80</ele>
	<time>2024-07-24T08:04:39.000Z</time>
</trkpt>
<trkpt lat="46.0250740" lon="10.4008260">
	<ele>1512.40</ele>
	<time>2024-07-24T08:04:40.000Z</time>
</trkpt>
<trkpt lat="46.0250810" lon="10.4008120">
	<ele>1512.20</ele>
	<time>2024-07-24T08:04:41.000Z</time>
</trkpt>
<trkpt lat="46.0250860" lon="10.4007970">
	<ele>1512.20</ele>
	<time>2024-07-24T08:04:42.000Z</time>
</trkpt>
<trkpt lat="46.0250880" lon="10.4007810">
	<ele>1512.20</ele>
	<time>2024-07-24T08:04:43.000Z</time>
</trkpt>
<trkpt lat="46.0250870" lon="10.4007610">
	<ele>1512.00</ele>
	<time>2024-07-24T08:04:44.000Z</time>
</trkpt>
<trkpt lat="46.0250880" lon="10.4007430">
	<ele>1512.00</ele>
	<time>2024-07-24T08:04:45.000Z</time>
</trkpt>
<trkpt lat="46.0250900" lon="10.4007280">
	<ele>1511.80</ele>
	<time>2024-07-24T08:04:46.000Z</time>
</trkpt>
<trkpt lat="46.0250930" lon="10.4007120">
	<ele>1511.80</ele>
	<time>2024-07-24T08:04:47.000Z</time>
</trkpt>
<trkpt lat="46.0251010" lon="10.4006970">
	<ele>1511.60</ele>
	<time>2024-07-24T08:04:48.000Z</time>
</trkpt>
<trkpt lat="46.0251080" lon="10.4006840">
	<ele>1511.60</ele>
	<time>2024-07-24T08:04:49.000Z</time>
</trkpt>
<trkpt lat="46.0251200" lon="10.4006760">
	<ele>1511.40</ele>
	<time>2024-07-24T08:04:50.000Z</time>
</trkpt>
<trkpt lat="46.0251290" lon="10.4006660">
	<ele>1511.40</ele>
	<time>2024-07-24T08:04:51.000Z</time>
</trkpt>
<trkpt lat="46.0251410" lon="10.4006510">
	<ele>1511.20</ele>
	<time>2024-07-24T08:04:52.000Z</time>
</trkpt>
<trkpt lat="46.0251460" lon="10.4006300">
	<ele>1511.00</ele>
	<time>2024-07-24T08:04:53.000Z</time>
</trkpt>
<trkpt lat="46.0251540" lon="10.4006170">
	<ele>1511.00</ele>
	<time>2024-07-24T08:04:54.000Z</time>
</trkpt>
<trkpt lat="46.0251600" lon="10.4006050">
	<ele>1510.80</ele>
	<time>2024-07-24T08:04:55.000Z</time>
</trkpt>
<trkpt lat="46.0251700" lon="10.4005850">
	<ele>1510.60</ele>
	<time>2024-07-24T08:04:56.000Z</time>
</trkpt>
<trkpt lat="46.0251750" lon="10.4005660">
	<ele>1510.40</ele>
	<time>2024-07-24T08:04:57.000Z</time>
</trkpt>
<trkpt lat="46.0251810" lon="10.4005520">
	<ele>1510.40</ele>
	<time>2024-07-24T08:04:58.000Z</time>
</trkpt>
<trkpt lat="46.0251820" lon="10.4005330">
	<ele>1510.20</ele>
	<time>2024-07-24T08:04:59.000Z</time>
</trkpt>
<trkpt lat="46.0251790" lon="10.4005130">
	<ele>1510.20</ele>
	<time>2024-07-24T08:05:00.000Z</time>
</trkpt>
<trkpt lat="46.0251780" lon="10.4005020">
	<ele>1510.00</ele>
	<time>2024-07-24T08:05:01.000Z</time>
</trkpt>
<trkpt lat="46.0251780" lon="10.4004870">
	<ele>1510.00</ele>
	<time>2024-07-24T08:05:02.000Z</time>
</trkpt>
<trkpt lat="46.0251790" lon="10.4004680">
	<ele>1509.80</ele>
	<time>2024-07-24T08:05:03.000Z</time>
</trkpt>
<trkpt lat="46.0251900" lon="10.4004510">
	<ele>1509.60</ele>
	<time>2024-07-24T08:05:04.000Z</time>
</trkpt>
<trkpt lat="46.0251990" lon="10.4004390">
	<ele>1509.40</ele>
	<time>2024-07-24T08:05:05.000Z</time>
</trkpt>
<trkpt lat="46.0252060" lon="10.4004390">
	<ele>1509.40</ele>
	<time>2024-07-24T08:05:06.000Z</time>
</trkpt>
<trkpt lat="46.0252120" lon="10.4004220">
	<ele>1509.20</ele>
	<time>2024-07-24T08:05:07.000Z</time>
</trkpt>
<trkpt lat="46.0252150" lon="10.4004100">
	<ele>1509.00</ele>
	<time>2024-07-24T08:05:08.000Z</time>
</trkpt>
<trkpt lat="46.0252190" lon="10.4003920">
	<ele>1509.00</ele>
	<time>2024-07-24T08:05:09.000Z</time>
</trkpt>
<trkpt lat="46.0252250" lon="10.4003780">
	<ele>1508.80</ele>
	<time>2024-07-24T08:05:10.000Z</time>
</trkpt>
<trkpt lat="46.0252340" lon="10.4003590">
	<ele>1508.80</ele>
	<time>2024-07-24T08:05:11.000Z</time>
</trkpt>
<trkpt lat="46.0252480" lon="10.4003400">
	<ele>1508.60</ele>
	<time>2024-07-24T08:05:12.000Z</time>
</trkpt>
<trkpt lat="46.0252610" lon="10.4003230">
	<ele>1508.60</ele>
	<time>2024-07-24T08:05:13.000Z</time>
</trkpt>
<trkpt lat="46.0252720" lon="10.4003020">
	<ele>1508.60</ele>
	<time>2024-07-24T08:05:14.000Z</time>
</trkpt>
<trkpt lat="46.0252780" lon="10.4002820">
	<ele>1508.60</ele>
	<time>2024-07-24T08:05:15.000Z</time>
</trkpt>
<trkpt lat="46.0252840" lon="10.4002630">
	<ele>1508.40</ele>
	<time>2024-07-24T08:05:16.000Z</time>
</trkpt>
<trkpt lat="46.0252910" lon="10.4002490">
	<ele>1508.20</ele>
	<time>2024-07-24T08:05:17.000Z</time>
</trkpt>
<trkpt lat="46.0253020" lon="10.4002350">
	<ele>1508.00</ele>
	<time>2024-07-24T08:05:18.000Z</time>
</trkpt>
<trkpt lat="46.0253130" lon="10.4002260">
	<ele>1507.80</ele>
	<time>2024-07-24T08:05:19.000Z</time>
</trkpt>
<trkpt lat="46.0253210" lon="10.4002170">
	<ele>1507.80</ele>
	<time>2024-07-24T08:05:20.000Z</time>
</trkpt>
<trkpt lat="46.0253290" lon="10.4002070">
	<ele>1507.80</ele>
	<time>2024-07-24T08:05:21.000Z</time>
</trkpt>
<trkpt lat="46.0253380" lon="10.4001980">
	<ele>1507.60</ele>
	<time>2024-07-24T08:05:22.000Z</time>
</trkpt>
<trkpt lat="46.0253450" lon="10.4001880">
	<ele>1507.60</ele>
	<time>2024-07-24T08:05:23.000Z</time>
</trkpt>
<trkpt lat="46.0253570" lon="10.4001800">
	<ele>1507.60</ele>
	<time>2024-07-24T08:05:24.000Z</time>
</trkpt>
<trkpt lat="46.0253650" lon="10.4001700">
	<ele>1507.40</ele>
	<time>2024-07-24T08:05:25.000Z</time>
</trkpt>
<trkpt lat="46.0253720" lon="10.4001600">
	<ele>1507.20</ele>
	<time>2024-07-24T08:05:26.000Z</time>
</trkpt>
<trkpt lat="46.0253770" lon="10.4001500">
	<ele>1507.20</ele>
	<time>2024-07-24T08:05:27.000Z</time>
</trkpt>
<trkpt lat="46.0253790" lon="10.4001410">
	<ele>1507.20</ele>
	<time>2024-07-24T08:05:28.000Z</time>
</trkpt>
<trkpt lat="46.0253850" lon="10.4001360">
	<ele>1507.00</ele>
	<time>2024-07-24T08:05:29.000Z</time>
</trkpt>
<trkpt lat="46.0253890" lon="10.4001310">
	<ele>1507.00</ele>
	<time>2024-07-24T08:05:30.000Z</time>
</trkpt>
<trkpt lat="46.0253980" lon="10.4001250">
	<ele>1507.00</ele>
	<time>2024-07-24T08:05:31.000Z</time>
</trkpt>
<trkpt lat="46.0254070" lon="10.4001150">
	<ele>1506.80</ele>
	<time>2024-07-24T08:05:32.000Z</time>
</trkpt>
<trkpt lat="46.0254190" lon="10.4001070">
	<ele>1506.80</ele>
	<time>2024-07-24T08:05:33.000Z</time>
</trkpt>
<trkpt lat="46.0254310" lon="10.4000830">
	<ele>1506.80</ele>
	<time>2024-07-24T08:05:34.000Z</time>
</trkpt>
<trkpt lat="46.0254440" lon="10.4000580">
	<ele>1506.60</ele>
	<time>2024-07-24T08:05:35.000Z</time>
</trkpt>
<trkpt lat="46.0254530" lon="10.4000310">
	<ele>1506.60</ele>
	<time>2024-07-24T08:05:36.000Z</time>
</trkpt>
<trkpt lat="46.0254650" lon="10.4000100">
	<ele>1506.60</ele>
	<time>2024-07-24T08:05:37.000Z</time>
</trkpt>
<trkpt lat="46.0254780" lon="10.3999920">
	<ele>1506.40</ele>
	<time>2024-07-24T08:05:38.000Z</time>
</trkpt>
<trkpt lat="46.0254890" lon="10.3999780">
	<ele>1506.40</ele>
	<time>2024-07-24T08:05:39.000Z</time>
</trkpt>
<trkpt lat="46.0255000" lon="10.3999650">
	<ele>1506.20</ele>
	<time>2024-07-24T08:05:40.000Z</time>
</trkpt>
<trkpt lat="46.0255060" lon="10.3999470">
	<ele>1506.20</ele>
	<time>2024-07-24T08:05:41.000Z</time>
</trkpt>
<trkpt lat="46.0255080" lon="10.3999320">
	<ele>1506.00</ele>
	<time>2024-07-24T08:05:42.000Z</time>
</trkpt>
<trkpt lat="46.0255140" lon="10.3999210">
	<ele>1506.00</ele>
	<time>2024-07-24T08:05:43.000Z</time>
</trkpt>
<trkpt lat="46.0255200" lon="10.3999120">
	<ele>1505.80</ele>
	<time>2024-07-24T08:05:44.000Z</time>
</trkpt>
<trkpt lat="46.0255270" lon="10.3999050">
	<ele>1505.80</ele>
	<time>2024-07-24T08:05:45.000Z</time>
</trkpt>
<trkpt lat="46.0255300" lon="10.3998910">
	<ele>1505.80</ele>
	<time>2024-07-24T08:05:46.000Z</time>
</trkpt>
<trkpt lat="46.0255330" lon="10.3998690">
	<ele>1505.60</ele>
	<time>2024-07-24T08:05:47.000Z</time>
</trkpt>
<trkpt lat="46.0255360" lon="10.3998360">
	<ele>1505.60</ele>
	<time>2024-07-24T08:05:48.000Z</time>
</trkpt>
<trkpt lat="46.0255460" lon="10.3998080">
	<ele>1505.60</ele>
	<time>2024-07-24T08:05:49.000Z</time>
</trkpt>
<trkpt lat="46.0255590" lon="10.3997950">
	<ele>1505.40</ele>
	<time>2024-07-24T08:05:50.000Z</time>
</trkpt>
<trkpt lat="46.0255600" lon="10.3997790">
	<ele>1505.20</ele>
	<time>2024-07-24T08:05:51.000Z</time>
</trkpt>
<trkpt lat="46.0255630" lon="10.3997620">
	<ele>1505.20</ele>
	<time>2024-07-24T08:05:52.000Z</time>
</trkpt>
<trkpt lat="46.0255710" lon="10.3997500">
	<ele>1505.00</ele>
	<time>2024-07-24T08:05:53.000Z</time>
</trkpt>
<trkpt lat="46.0255780" lon="10.3997390">
	<ele>1505.00</ele>
	<time>2024-07-24T08:05:54.000Z</time>
</trkpt>
<trkpt lat="46.0255820" lon="10.3997210">
	<ele>1505.00</ele>
	<time>2024-07-24T08:05:55.000Z</time>
</trkpt>
<trkpt lat="46.0255850" lon="10.3997070">
	<ele>1504.80</ele>
	<time>2024-07-24T08:05:56.000Z</time>
</trkpt>
<trkpt lat="46.0255900" lon="10.3996960">
	<ele>1504.80</ele>
	<time>2024-07-24T08:05:57.000Z</time>
</trkpt>
<trkpt lat="46.0256010" lon="10.3996840">
	<ele>1504.80</ele>
	<time>2024-07-24T08:05:58.000Z</time>
</trkpt>
<trkpt lat="46.0256090" lon="10.3996670">
	<ele>1504.60</ele>
	<time>2024-07-24T08:05:59.000Z</time>
</trkpt>
<trkpt lat="46.0256150" lon="10.3996560">
	<ele>1504.60</ele>
	<time>2024-07-24T08:06:00.000Z</time>
</trkpt>
<trkpt lat="46.0256160" lon="10.3996490">
	<ele>1504.40</ele>
	<time>2024-07-24T08:06:01.000Z</time>
</trkpt>
<trkpt lat="46.0256160" lon="10.3996460">
	<ele>1504.40</ele>
	<time>2024-07-24T08:06:02.000Z</time>
</trkpt>
<trkpt lat="46.0256230" lon="10.3996450">
	<ele>1504.40</ele>
	<time>2024-07-24T08:06:03.000Z</time>
</trkpt>
<trkpt lat="46.0256260" lon="10.3996470">
	<ele>1504.20</ele>
	<time>2024-07-24T08:06:04.000Z</time>
</trkpt>
<trkpt lat="46.0256280" lon="10.3996470">
	<ele>1504.20</ele>
	<time>2024-07-24T08:06:05.000Z</time>
</trkpt>
<trkpt lat="46.0256270" lon="10.3996460">
	<ele>1504.20</ele>
	<time>2024-07-24T08:06:06.000Z</time>
</trkpt>
<trkpt lat="46.0256250" lon="10.3996470">
	<ele>1504.20</ele>
	<time>2024-07-24T08:06:07.000Z</time>
</trkpt>
<trkpt lat="46.0256250" lon="10.3996460">
	<ele>1504.20</ele>
	<time>2024-07-24T08:06:08.000Z</time>
</trkpt>
<trkpt lat="46.0256210" lon="10.3996410">
	<ele>1504.20</ele>
	<time>2024-07-24T08:06:09.000Z</time>
</trkpt>
<trkpt lat="46.0256200" lon="10.3996370">
	<ele>1504.20</ele>
	<time>2024-07-24T08:06:10.000Z</time>
</trkpt>
<trkpt lat="46.0256190" lon="10.3996350">
	<ele>1504.20</ele>
	<time>2024-07-24T08:06:11.000Z</time>
</trkpt>
<trkpt lat="46.0256200" lon="10.3996360">
	<ele>1504.20</ele>
	<time>2024-07-24T08:06:12.000Z</time>
</trkpt>
<trkpt lat="46.0256200" lon="10.3996350">
	<ele>1504.40</ele>
	<time>2024-07-24T08:06:13.000Z</time>
</trkpt>
<trkpt lat="46.0256200" lon="10.3996350">
	<ele>1504.40</ele>
	<time>2024-07-24T08:06:14.000Z</time>
</trkpt>
<trkpt lat="46.0256200" lon="10.3996350">
	<ele>1504.40</ele>
	<time>2024-07-24T08:06:15.000Z</time>
</trkpt>
<trkpt lat="46.0256200" lon="10.3996350">
	<ele>1504.40</ele>
	<time>2024-07-24T08:06:16.000Z</time>
</trkpt>
<trkpt lat="46.0256200" lon="10.3996350">
	<ele>1504.40</ele>
	<time>2024-07-24T08:06:17.000Z</time>
</trkpt>
<trkpt lat="46.0256200" lon="10.3996350">
	<ele>1504.40</ele>
	<time>2024-07-24T08:06:18.000Z</time>
</trkpt>
<trkpt lat="46.0256200" lon="10.3996300">
	<ele>1504.20</ele>
	<time>2024-07-24T08:06:19.000Z</time>
</trkpt>
<trkpt lat="46.0256190" lon="10.3996080">
	<ele>1504.20</ele>
	<time>2024-07-24T08:06:20.000Z</time>
</trkpt>
<trkpt lat="46.0256250" lon="10.3995850">
	<ele>1504.00</ele>
	<time>2024-07-24T08:06:21.000Z</time>
</trkpt>
<trkpt lat="46.0256340" lon="10.3995660">
	<ele>1504.00</ele>
	<time>2024-07-24T08:06:22.000Z</time>
</trkpt>
<trkpt lat="46.0256390" lon="10.3995460">
	<ele>1504.00</ele>
	<time>2024-07-24T08:06:23.000Z</time>
</trkpt>
<trkpt lat="46.0256430" lon="10.3995250">
	<ele>1504.00</ele>
	<time>2024-07-24T08:06:24.000Z</time>
</trkpt>
<trkpt lat="46.0256500" lon="10.3995040">
	<ele>1504.00</ele>
	<time>2024-07-24T08:06:25.000Z</time>
</trkpt>
<trkpt lat="46.0256540" lon="10.3994850">
	<ele>1504.00</ele>
	<time>2024-07-24T08:06:26.000Z</time>
</trkpt>
<trkpt lat="46.0256590" lon="10.3994660">
	<ele>1504.20</ele>
	<time>2024-07-24T08:06:27.000Z</time>
</trkpt>
<trkpt lat="46.0256630" lon="10.3994490">
	<ele>1504.20</ele>
	<time>2024-07-24T08:06:28.000Z</time>
</trkpt>
<trkpt lat="46.0256680" lon="10.3994380">
	<ele>1504.20</ele>
	<time>2024-07-24T08:06:29.000Z</time>
</trkpt>
<trkpt lat="46.0256730" lon="10.3994240">
	<ele>1504.20</ele>
	<time>2024-07-24T08:06:30.000Z</time>
</trkpt>
<trkpt lat="46.0256800" lon="10.3994080">
	<ele>1504.20</ele>
	<time>2024-07-24T08:06:31.000Z</time>
</trkpt>
<trkpt lat="46.0256910" lon="10.3993860">
	<ele>1504.40</ele>
	<time>2024-07-24T08:06:32.000Z</time>
</trkpt>
<trkpt lat="46.0256960" lon="10.3993690">
	<ele>1504.40</ele>
	<time>2024-07-24T08:06:33.000Z</time>
</trkpt>
<trkpt lat="46.0257000" lon="10.3993640">
	<ele>1504.40</ele>
	<time>2024-07-24T08:06:34.000Z</time>
</trkpt>
<trkpt lat="46.0257000" lon="10.3993510">
	<ele>1504.60</ele>
	<time>2024-07-24T08:06:35.000Z</time>
</trkpt>
<trkpt lat="46.0257000" lon="10.3993350">
	<ele>1504.60</ele>
	<time>2024-07-24T08:06:36.000Z</time>
</trkpt>
<trkpt lat="46.0256980" lon="10.3993170">
	<ele>1504.80</ele>
	<time>2024-07-24T08:06:37.000Z</time>
</trkpt>
<trkpt lat="46.0256900" lon="10.3992970">
	<ele>1504.80</ele>
	<time>2024-07-24T08:06:38.000Z</time>
</trkpt>
<trkpt lat="46.0256950" lon="10.3992900">
	<ele>1505.00</ele>
	<time>2024-07-24T08:06:39.000Z</time>
</trkpt>
<trkpt lat="46.0257030" lon="10.3992810">
	<ele>1505.00</ele>
	<time>2024-07-24T08:06:40.000Z</time>
</trkpt>
<trkpt lat="46.0257140" lon="10.3992670">
	<ele>1505.00</ele>
	<time>2024-07-24T08:06:41.000Z</time>
</trkpt>
<trkpt lat="46.0257130" lon="10.3992570">
	<ele>1505.20</ele>
	<time>2024-07-24T08:06:42.000Z</time>
</trkpt>
<trkpt lat="46.0257170" lon="10.3992460">
	<ele>1505.40</ele>
	<time>2024-07-24T08:06:43.000Z</time>
</trkpt>
<trkpt lat="46.0257240" lon="10.3992380">
	<ele>1505.40</ele>
	<time>2024-07-24T08:06:44.000Z</time>
</trkpt>
<trkpt lat="46.0257300" lon="10.3992320">
	<ele>1505.60</ele>
	<time>2024-07-24T08:06:45.000Z</time>
</trkpt>
<trkpt lat="46.0257320" lon="10.3992260">
	<ele>1505.80</ele>
	<time>2024-07-24T08:06:46.000Z</time>
</trkpt>
<trkpt lat="46.0257340" lon="10.3992230">
	<ele>1505.80</ele>
	<time>2024-07-24T08:06:47.000Z</time>
</trkpt>
<trkpt lat="46.0257360" lon="10.3992160">
	<ele>1505.80</ele>
	<time>2024-07-24T08:06:48.000Z</time>
</trkpt>
<trkpt lat="46.0257340" lon="10.3992090">
	<ele>1506.00</ele>
	<time>2024-07-24T08:06:49.000Z</time>
</trkpt>
<trkpt lat="46.0257360" lon="10.3992020">
	<ele>1506.00</ele>
	<time>2024-07-24T08:06:50.000Z</time>
</trkpt>
<trkpt lat="46.0257410" lon="10.3991900">
	<ele>1506.00</ele>
	<time>2024-07-24T08:06:51.000Z</time>
</trkpt>
<trkpt lat="46.0257430" lon="10.3991870">
	<ele>1506.20</ele>
	<time>2024-07-24T08:06:52.000Z</time>
</trkpt>
<trkpt lat="46.0257430" lon="10.3991840">
	<ele>1506.20</ele>
	<time>2024-07-24T08:06:53.000Z</time>
</trkpt>
<trkpt lat="46.0257480" lon="10.3991790">
	<ele>1506.40</ele>
	<time>2024-07-24T08:06:54.000Z</time>
</trkpt>
<trkpt lat="46.0257540" lon="10.3991690">
	<ele>1506.60</ele>
	<time>2024-07-24T08:06:55.000Z</time>
</trkpt>
<trkpt lat="46.0257610" lon="10.3991590">
	<ele>1506.60</ele>
	<time>2024-07-24T08:06:56.000Z</time>
</trkpt>
<trkpt lat="46.0257680" lon="10.3991530">
	<ele>1506.80</ele>
	<time>2024-07-24T08:06:57.000Z</time>
</trkpt>
<trkpt lat="46.0257690" lon="10.3991430">
	<ele>1506.80</ele>
	<time>2024-07-24T08:06:58.000Z</time>
</trkpt>
<trkpt lat="46.0257730" lon="10.3991350">
	<ele>1507.00</ele>
	<time>2024-07-24T08:06:59.000Z</time>
</trkpt>
<trkpt lat="46.0257740" lon="10.3991210">
	<ele>1507.20</ele>
	<time>2024-07-24T08:07:00.000Z</time>
</trkpt>
<trkpt lat="46.0257750" lon="10.3991100">
	<ele>1507.40</ele>
	<time>2024-07-24T08:07:01.000Z</time>
</trkpt>
<trkpt lat="46.0257790" lon="10.3990970">
	<ele>1507.60</ele>
	<time>2024-07-24T08:07:02.000Z</time>
</trkpt>
<trkpt lat="46.0257900" lon="10.3990890">
	<ele>1507.60</ele>
	<time>2024-07-24T08:07:03.000Z</time>
</trkpt>
<trkpt lat="46.0258050" lon="10.3990840">
	<ele>1507.80</ele>
	<time>2024-07-24T08:07:04.000Z</time>
</trkpt>
<trkpt lat="46.0258190" lon="10.3990780">
	<ele>1507.80</ele>
	<time>2024-07-24T08:07:05.000Z</time>
</trkpt>
<trkpt lat="46.0258320" lon="10.3990670">
	<ele>1508.00</ele>
	<time>2024-07-24T08:07:06.000Z</time>
</trkpt>
<trkpt lat="46.0258450" lon="10.3990500">
	<ele>1508.20</ele>
	<time>2024-07-24T08:07:07.000Z</time>
</trkpt>
<trkpt lat="46.0258580" lon="10.3990330">
	<ele>1508.40</ele>
	<time>2024-07-24T08:07:08.000Z</time>
</trkpt>
<trkpt lat="46.0258700" lon="10.3990190">
	<ele>1508.60</ele>
	<time>2024-07-24T08:07:09.000Z</time>
</trkpt>
<trkpt lat="46.0258880" lon="10.3990060">
	<ele>1508.60</ele>
	<time>2024-07-24T08:07:10.000Z</time>
</trkpt>
<trkpt lat="46.0259050" lon="10.3989840">
	<ele>1508.60</ele>
	<time>2024-07-24T08:07:11.000Z</time>
</trkpt>
<trkpt lat="46.0259240" lon="10.3989630">
	<ele>1508.60</ele>
	<time>2024-07-24T08:07:12.000Z</time>
</trkpt>
<trkpt lat="46.0259330" lon="10.3989520">
	<ele>1508.60</ele>
	<time>2024-07-24T08:07:13.000Z</time>
</trkpt>
<trkpt lat="46.0259410" lon="10.3989350">
	<ele>1508.60</ele>
	<time>2024-07-24T08:07:14.000Z</time>
</trkpt>
<trkpt lat="46.0259520" lon="10.3989160">
	<ele>1508.60</ele>
	<time>2024-07-24T08:07:15.000Z</time>
</trkpt>
<trkpt lat="46.0259650" lon="10.3988940">
	<ele>1508.80</ele>
	<time>2024-07-24T08:07:16.000Z</time>
</trkpt>
<trkpt lat="46.0259740" lon="10.3988790">
	<ele>1508.80</ele>
	<time>2024-07-24T08:07:17.000Z</time>
</trkpt>
<trkpt lat="46.0259830" lon="10.3988650">
	<ele>1508.80</ele>
	<time>2024-07-24T08:07:18.000Z</time>
</trkpt>
<trkpt lat="46.0259920" lon="10.3988520">
	<ele>1508.60</ele>
	<time>2024-07-24T08:07:19.000Z</time>
</trkpt>
<trkpt lat="46.0260000" lon="10.3988400">
	<ele>1508.80</ele>
	<time>2024-07-24T08:07:20.000Z</time>
</trkpt>
<trkpt lat="46.0260080" lon="10.3988230">
	<ele>1508.80</ele>
	<time>2024-07-24T08:07:21.000Z</time>
</trkpt>
<trkpt lat="46.0260160" lon="10.3988100">
	<ele>1508.80</ele>
	<time>2024-07-24T08:07:22.000Z</time>
</trkpt>
<trkpt lat="46.0260240" lon="10.3987980">
	<ele>1508.60</ele>
	<time>2024-07-24T08:07:23.000Z</time>
</trkpt>
<trkpt lat="46.0260340" lon="10.3987860">
	<ele>1508.80</ele>
	<time>2024-07-24T08:07:24.000Z</time>
</trkpt>
<trkpt lat="46.0260520" lon="10.3987720">
	<ele>1508.80</ele>
	<time>2024-07-24T08:07:25.000Z</time>
</trkpt>
<trkpt lat="46.0260630" lon="10.3987590">
	<ele>1508.80</ele>
	<time>2024-07-24T08:07:26.000Z</time>
</trkpt>
<trkpt lat="46.0260740" lon="10.3987470">
	<ele>1508.60</ele>
	<time>2024-07-24T08:07:27.000Z</time>
</trkpt>
<trkpt lat="46.0260790" lon="10.3987290">
	<ele>1508.60</ele>
	<time>2024-07-24T08:07:28.000Z</time>
</trkpt>
<trkpt lat="46.0260860" lon="10.3987130">
	<ele>1508.60</ele>
	<time>2024-07-24T08:07:29.000Z</time>
</trkpt>
<trkpt lat="46.0260930" lon="10.3987010">
	<ele>1508.60</ele>
	<time>2024-07-24T08:07:30.000Z</time>
</trkpt>
<trkpt lat="46.0261100" lon="10.3986940">
	<ele>1508.60</ele>
	<time>2024-07-24T08:07:31.000Z</time>
</trkpt>
<trkpt lat="46.0261220" lon="10.3986820">
	<ele>1508.60</ele>
	<time>2024-07-24T08:07:32.000Z</time>
</trkpt>
<trkpt lat="46.0261370" lon="10.3986700">
	<ele>1508.80</ele>
	<time>2024-07-24T08:07:33.000Z</time>
</trkpt>
<trkpt lat="46.0261440" lon="10.3986550">
	<ele>1508.80</ele>
	<time>2024-07-24T08:07:34.000Z</time>
</trkpt>
<trkpt lat="46.0261590" lon="10.3986400">
	<ele>1508.80</ele>
	<time>2024-07-24T08:07:35.000Z</time>
</trkpt>
<trkpt lat="46.0261640" lon="10.3986190">
	<ele>1509.00</ele>
	<time>2024-07-24T08:07:36.000Z</time>
</trkpt>
<trkpt lat="46.0261770" lon="10.3985970">
	<ele>1509.00</ele>
	<time>2024-07-24T08:07:37.000Z</time>
</trkpt>
<trkpt lat="46.0261970" lon="10.3985840">
	<ele>1509.00</ele>
	<time>2024-07-24T08:07:38.000Z</time>
</trkpt>
<trkpt lat="46.0262200" lon="10.3985810">
	<ele>1509.00</ele>
	<time>2024-07-24T08:07:39.000Z</time>
</trkpt>
<trkpt lat="46.0262330" lon="10.3985810">
	<ele>1509.00</ele>
	<time>2024-07-24T08:07:40.000Z</time>
</trkpt>
<trkpt lat="46.0262480" lon="10.3985820">
	<ele>1509.20</ele>
	<time>2024-07-24T08:07:41.000Z</time>
</trkpt>
<trkpt lat="46.0262590" lon="10.3985830">
	<ele>1509.20</ele>
	<time>2024-07-24T08:07:42.000Z</time>
</trkpt>
<trkpt lat="46.0262690" lon="10.3985840">
	<ele>1509.20</ele>
	<time>2024-07-24T08:07:43.000Z</time>
</trkpt>
<trkpt lat="46.0262760" lon="10.3985810">
	<ele>1509.20</ele>
	<time>2024-07-24T08:07:44.000Z</time>
</trkpt>
<trkpt lat="46.0262790" lon="10.3985690">
	<ele>1509.00</ele>
	<time>2024-07-24T08:07:45.000Z</time>
</trkpt>
<trkpt lat="46.0262830" lon="10.3985580">
	<ele>1509.00</ele>
	<time>2024-07-24T08:07:46.000Z</time>
</trkpt>
<trkpt lat="46.0262910" lon="10.3985450">
	<ele>1509.00</ele>
	<time>2024-07-24T08:07:47.000Z</time>
</trkpt>
<trkpt lat="46.0262960" lon="10.3985330">
	<ele>1509.00</ele>
	<time>2024-07-24T08:07:48.000Z</time>
</trkpt>
<trkpt lat="46.0263030" lon="10.3985190">
	<ele>1509.00</ele>
	<time>2024-07-24T08:07:49.000Z</time>
</trkpt>
<trkpt lat="46.0263110" lon="10.3985060">
	<ele>1509.00</ele>
	<time>2024-07-24T08:07:50.000Z</time>
</trkpt>
<trkpt lat="46.0263220" lon="10.3984950">
	<ele>1509.00</ele>
	<time>2024-07-24T08:07:51.000Z</time>
</trkpt>
<trkpt lat="46.0263230" lon="10.3984820">
	<ele>1508.80</ele>
	<time>2024-07-24T08:07:52.000Z</time>
</trkpt>
<trkpt lat="46.0263230" lon="10.3984690">
	<ele>1508.80</ele>
	<time>2024-07-24T08:07:53.000Z</time>
</trkpt>
<trkpt lat="46.0263290" lon="10.3984580">
	<ele>1508.80</ele>
	<time>2024-07-24T08:07:54.000Z</time>
</trkpt>
<trkpt lat="46.0263380" lon="10.3984430">
	<ele>1508.60</ele>
	<time>2024-07-24T08:07:55.000Z</time>
</trkpt>
<trkpt lat="46.0263490" lon="10.3984260">
	<ele>1508.60</ele>
	<time>2024-07-24T08:07:56.000Z</time>
</trkpt>
<trkpt lat="46.0263650" lon="10.3984120">
	<ele>1508.60</ele>
	<time>2024-07-24T08:07:57.000Z</time>
</trkpt>
<trkpt lat="46.0263740" lon="10.3983980">
	<ele>1508.40</ele>
	<time>2024-07-24T08:07:58.000Z</time>
</trkpt>
<trkpt lat="46.0263780" lon="10.3983860">
	<ele>1508.40</ele>
	<time>2024-07-24T08:07:59.000Z</time>
</trkpt>
<trkpt lat="46.0263920" lon="10.3983740">
	<ele>1508.20</ele>
	<time>2024-07-24T08:08:00.000Z</time>
</trkpt>
<trkpt lat="46.0264060" lon="10.3983530">
	<ele>1508.20</ele>
	<time>2024-07-24T08:08:01.000Z</time>
</trkpt>
<trkpt lat="46.0264220" lon="10.3983420">
	<ele>1508.00</ele>
	<time>2024-07-24T08:08:02.000Z</time>
</trkpt>
<trkpt lat="46.0264380" lon="10.3983380">
	<ele>1508.00</ele>
	<time>2024-07-24T08:08:03.000Z</time>
</trkpt>
<trkpt lat="46.0264560" lon="10.3983280">
	<ele>1507.80</ele>
	<time>2024-07-24T08:08:04.000Z</time>
</trkpt>
<trkpt lat="46.0264700" lon="10.3983150">
	<ele>1507.80</ele>
	<time>2024-07-24T08:08:05.000Z</time>
</trkpt>
<trkpt lat="46.0264780" lon="10.3983110">
	<ele>1507.80</ele>
	<time>2024-07-24T08:08:06.000Z</time>
</trkpt>
<trkpt lat="46.0264830" lon="10.3983000">
	<ele>1507.80</ele>
	<time>2024-07-24T08:08:07.000Z</time>
</trkpt>
<trkpt lat="46.0264900" lon="10.3982940">
	<ele>1507.80</ele>
	<time>2024-07-24T08:08:08.000Z</time>
</trkpt>
<trkpt lat="46.0264970" lon="10.3982820">
	<ele>1507.80</ele>
	<time>2024-07-24T08:08:09.000Z</time>
</trkpt>
<trkpt lat="46.0265020" lon="10.3982770">
	<ele>1507.80</ele>
	<time>2024-07-24T08:08:10.000Z</time>
</trkpt>
<trkpt lat="46.0265080" lon="10.3982750">
	<ele>1507.60</ele>
	<time>2024-07-24T08:08:11.000Z</time>
</trkpt>
<trkpt lat="46.0265210" lon="10.3982720">
	<ele>1507.40</ele>
	<time>2024-07-24T08:08:12.000Z</time>
</trkpt>
<trkpt lat="46.0265310" lon="10.3982670">
	<ele>1507.40</ele>
	<time>2024-07-24T08:08:13.000Z</time>
</trkpt>
<trkpt lat="46.0265400" lon="10.3982590">
	<ele>1507.40</ele>
	<time>2024-07-24T08:08:14.000Z</time>
</trkpt>
<trkpt lat="46.0265450" lon="10.3982520">
	<ele>1507.20</ele>
	<time>2024-07-24T08:08:15.000Z</time>
</trkpt>
<trkpt lat="46.0265490" lon="10.3982420">
	<ele>1507.00</ele>
	<time>2024-07-24T08:08:16.000Z</time>
</trkpt>
<trkpt lat="46.0265530" lon="10.3982330">
	<ele>1507.00</ele>
	<time>2024-07-24T08:08:17.000Z</time>
</trkpt>
<trkpt lat="46.0265620" lon="10.3982270">
	<ele>1506.80</ele>
	<time>2024-07-24T08:08:18.000Z</time>
</trkpt>
<trkpt lat="46.0265710" lon="10.3982210">
	<ele>1506.60</ele>
	<time>2024-07-24T08:08:19.000Z</time>
</trkpt>
<trkpt lat="46.0265790" lon="10.3982060">
	<ele>1506.40</ele>
	<time>2024-07-24T08:08:20.000Z</time>
</trkpt>
<trkpt lat="46.0265860" lon="10.3981910">
	<ele>1506.40</ele>
	<time>2024-07-24T08:08:21.000Z</time>
</trkpt>
<trkpt lat="46.0265900" lon="10.3981790">
	<ele>1506.20</ele>
	<time>2024-07-24T08:08:22.000Z</time>
</trkpt>
<trkpt lat="46.0265950" lon="10.3981760">
	<ele>1506.20</ele>
	<time>2024-07-24T08:08:23.000Z</time>
</trkpt>
<trkpt lat="46.0266050" lon="10.3981810">
	<ele>1506.00</ele>
	<time>2024-07-24T08:08:24.000Z</time>
</trkpt>
<trkpt lat="46.0266160" lon="10.3981840">
	<ele>1505.80</ele>
	<time>2024-07-24T08:08:25.000Z</time>
</trkpt>
<trkpt lat="46.0266250" lon="10.3981850">
	<ele>1505.60</ele>
	<time>2024-07-24T08:08:26.000Z</time>
</trkpt>
<trkpt lat="46.0266290" lon="10.3981840">
	<ele>1505.60</ele>
	<time>2024-07-24T08:08:27.000Z</time>
</trkpt>
<trkpt lat="46.0266400" lon="10.3981870">
	<ele>1505.40</ele>
	<time>2024-07-24T08:08:28.000Z</time>
</trkpt>
<trkpt lat="46.0266450" lon="10.3981840">
	<ele>1505.40</ele>
	<time>2024-07-24T08:08:29.000Z</time>
</trkpt>
<trkpt lat="46.0266520" lon="10.3981770">
	<ele>1505.20</ele>
	<time>2024-07-24T08:08:30.000Z</time>
</trkpt>
<trkpt lat="46.0266590" lon="10.3981690">
	<ele>1505.00</ele>
	<time>2024-07-24T08:08:31.000Z</time>
</trkpt>
<trkpt lat="46.0266670" lon="10.3981630">
	<ele>1504.80</ele>
	<time>2024-07-24T08:08:32.000Z</time>
</trkpt>
<trkpt lat="46.0266740" lon="10.3981560">
	<ele>1504.60</ele>
	<time>2024-07-24T08:08:33.000Z</time>
</trkpt>
<trkpt lat="46.0266810" lon="10.3981530">
	<ele>1504.60</ele>
	<time>2024-07-24T08:08:34.000Z</time>
</trkpt>
<trkpt lat="46.0266940" lon="10.3981440">
	<ele>1504.40</ele>
	<time>2024-07-24T08:08:35.000Z</time>
</trkpt>
<trkpt lat="46.0267100" lon="10.3981370">
	<ele>1504.40</ele>
	<time>2024-07-24T08:08:36.000Z</time>
</trkpt>
<trkpt lat="46.0267170" lon="10.3981370">
	<ele>1504.20</ele>
	<time>2024-07-24T08:08:37.000Z</time>
</trkpt>
<trkpt lat="46.0267150" lon="10.3981350">
	<ele>1504.00</ele>
	<time>2024-07-24T08:08:38.000Z</time>
</trkpt>
<trkpt lat="46.0267120" lon="10.3981340">
	<ele>1503.80</ele>
	<time>2024-07-24T08:08:39.000Z</time>
</trkpt>
<trkpt lat="46.0267180" lon="10.3981320">
	<ele>1503.60</ele>
	<time>2024-07-24T08:08:40.000Z</time>
</trkpt>
<trkpt lat="46.0267210" lon="10.3981170">
	<ele>1503.40</ele>
	<time>2024-07-24T08:08:41.000Z</time>
</trkpt>
<trkpt lat="46.0267310" lon="10.3981060">
	<ele>1503.40</ele>
	<time>2024-07-24T08:08:42.000Z</time>
</trkpt>
<trkpt lat="46.0267410" lon="10.3981030">
	<ele>1503.20</ele>
	<time>2024-07-24T08:08:43.000Z</time>
</trkpt>
<trkpt lat="46.0267510" lon="10.3981090">
	<ele>1503.20</ele>
	<time>2024-07-24T08:08:44.000Z</time>
</trkpt>
<trkpt lat="46.0267580" lon="10.3981180">
	<ele>1503.00</ele>
	<time>2024-07-24T08:08:45.000Z</time>
</trkpt>
<trkpt lat="46.0267680" lon="10.3981210">
	<ele>1503.00</ele>
	<time>2024-07-24T08:08:46.000Z</time>
</trkpt>
<trkpt lat="46.0267810" lon="10.3981220">
	<ele>1502.80</ele>
	<time>2024-07-24T08:08:47.000Z</time>
</trkpt>
<trkpt lat="46.0267930" lon="10.3981250">
	<ele>1502.60</ele>
	<time>2024-07-24T08:08:48.000Z</time>
</trkpt>
<trkpt lat="46.0268090" lon="10.3981260">
	<ele>1502.40</ele>
	<time>2024-07-24T08:08:49.000Z</time>
</trkpt>
<trkpt lat="46.0268240" lon="10.3981230">
	<ele>1502.20</ele>
	<time>2024-07-24T08:08:50.000Z</time>
</trkpt>
<trkpt lat="46.0268380" lon="10.3981180">
	<ele>1502.20</ele>
	<time>2024-07-24T08:08:51.000Z</time>
</trkpt>
<trkpt lat="46.0268510" lon="10.3981090">
	<ele>1502.00</ele>
	<time>2024-07-24T08:08:52.000Z</time>
</trkpt>
<trkpt lat="46.0268660" lon="10.3981060">
	<ele>1501.80</ele>
	<time>2024-07-24T08:08:53.000Z</time>
</trkpt>
<trkpt lat="46.0268790" lon="10.3981040">
	<ele>1501.80</ele>
	<time>2024-07-24T08:08:54.000Z</time>
</trkpt>
<trkpt lat="46.0268900" lon="10.3981050">
	<ele>1501.80</ele>
	<time>2024-07-24T08:08:55.000Z</time>
</trkpt>
<trkpt lat="46.0268980" lon="10.3981030">
	<ele>1501.60</ele>
	<time>2024-07-24T08:08:56.000Z</time>
</trkpt>
<trkpt lat="46.0269100" lon="10.3980970">
	<ele>1501.60</ele>
	<time>2024-07-24T08:08:57.000Z</time>
</trkpt>
<trkpt lat="46.0269260" lon="10.3980940">
	<ele>1501.40</ele>
	<time>2024-07-24T08:08:58.000Z</time>
</trkpt>
<trkpt lat="46.0269420" lon="10.3980990">
	<ele>1501.40</ele>
	<time>2024-07-24T08:08:59.000Z</time>
</trkpt>
<trkpt lat="46.0269550" lon="10.3981010">
	<ele>1501.40</ele>
	<time>2024-07-24T08:09:00.000Z</time>
</trkpt>
<trkpt lat="46.0269660" lon="10.3980940">
	<ele>1501.00</ele>
	<time>2024-07-24T08:09:01.000Z</time>
</trkpt>
<trkpt lat="46.0269760" lon="10.3980880">
	<ele>1500.80</ele>
	<time>2024-07-24T08:09:02.000Z</time>
</trkpt>
<trkpt lat="46.0269870" lon="10.3980820">
	<ele>1500.80</ele>
	<time>2024-07-24T08:09:03.000Z</time>
</trkpt>
<trkpt lat="46.0269960" lon="10.3980710">
	<ele>1500.60</ele>
	<time>2024-07-24T08:09:04.000Z</time>
</trkpt>
<trkpt lat="46.0269940" lon="10.3980630">
	<ele>1500.60</ele>
	<time>2024-07-24T08:09:05.000Z</time>
</trkpt>
<trkpt lat="46.0269960" lon="10.3980600">
	<ele>1500.60</ele>
	<time>2024-07-24T08:09:06.000Z</time>
</trkpt>
<trkpt lat="46.0270080" lon="10.3980590">
	<ele>1500.40</ele>
	<time>2024-07-24T08:09:07.000Z</time>
</trkpt>
<trkpt lat="46.0270260" lon="10.3980630">
	<ele>1500.40</ele>
	<time>2024-07-24T08:09:08.000Z</time>
</trkpt>
<trkpt lat="46.0270380" lon="10.3980660">
	<ele>1500.20</ele>
	<time>2024-07-24T08:09:09.000Z</time>
</trkpt>
<trkpt lat="46.0270460" lon="10.3980760">
	<ele>1500.00</ele>
	<time>2024-07-24T08:09:10.000Z</time>
</trkpt>
<trkpt lat="46.0270530" lon="10.3980760">
	<ele>1499.80</ele>
	<time>2024-07-24T08:09:11.000Z</time>
</trkpt>
<trkpt lat="46.0270490" lon="10.3980730">
	<ele>1499.40</ele>
	<time>2024-07-24T08:09:12.000Z</time>
</trkpt>
<trkpt lat="46.0270600" lon="10.3980690">
	<ele>1499.20</ele>
	<time>2024-07-24T08:09:13.000Z</time>
</trkpt>
<trkpt lat="46.0270670" lon="10.3980680">
	<ele>1499.00</ele>
	<time>2024-07-24T08:09:14.000Z</time>
</trkpt>
<trkpt lat="46.0270690" lon="10.3980690">
	<ele>1499.00</ele>
	<time>2024-07-24T08:09:15.000Z</time>
</trkpt>
<trkpt lat="46.0270710" lon="10.3980690">
	<ele>1499.00</ele>
	<time>2024-07-24T08:09:16.000Z</time>
</trkpt>
<trkpt lat="46.0270730" lon="10.3980720">
	<ele>1498.80</ele>
	<time>2024-07-24T08:09:17.000Z</time>
</trkpt>
<trkpt lat="46.0270750" lon="10.3980750">
	<ele>1498.80</ele>
	<time>2024-07-24T08:09:18.000Z</time>
</trkpt>
<trkpt lat="46.0270810" lon="10.3980820">
	<ele>1498.80</ele>
	<time>2024-07-24T08:09:19.000Z</time>
</trkpt>
<trkpt lat="46.0270920" lon="10.3980890">
	<ele>1498.80</ele>
	<time>2024-07-24T08:09:20.000Z</time>
</trkpt>
<trkpt lat="46.0271210" lon="10.3980980">
	<ele>1498.80</ele>
	<time>2024-07-24T08:09:21.000Z</time>
</trkpt>
<trkpt lat="46.0271300" lon="10.3981030">
	<ele>1498.80</ele>
	<time>2024-07-24T08:09:22.000Z</time>
</trkpt>
<trkpt lat="46.0271410" lon="10.3981100">
	<ele>1498.60</ele>
	<time>2024-07-24T08:09:23.000Z</time>
</trkpt>
<trkpt lat="46.0271390" lon="10.3981110">
	<ele>1498.60</ele>
	<time>2024-07-24T08:09:24.000Z</time>
</trkpt>
<trkpt lat="46.0271360" lon="10.3981130">
	<ele>1498.60</ele>
	<time>2024-07-24T08:09:25.000Z</time>
</trkpt>
<trkpt lat="46.0271380" lon="10.3981140">
	<ele>1498.60</ele>
	<time>2024-07-24T08:09:26.000Z</time>
</trkpt>
<trkpt lat="46.0271390" lon="10.3981170">
	<ele>1498.60</ele>
	<time>2024-07-24T08:09:27.000Z</time>
</trkpt>
<trkpt lat="46.0271400" lon="10.3981230">
	<ele>1498.60</ele>
	<time>2024-07-24T08:09:28.000Z</time>
</trkpt>
<trkpt lat="46.0271410" lon="10.3981250">
	<ele>1498.80</ele>
	<time>2024-07-24T08:09:29.000Z</time>
</trkpt>
<trkpt lat="46.0271460" lon="10.3981290">
	<ele>1498.80</ele>
	<time>2024-07-24T08:09:30.000Z</time>
</trkpt>
<trkpt lat="46.0271500" lon="10.3981330">
	<ele>1498.80</ele>
	<time>2024-07-24T08:09:31.000Z</time>
</trkpt>
<trkpt lat="46.0271540" lon="10.3981360">
	<ele>1498.80</ele>
	<time>2024-07-24T08:09:32.000Z</time>
</trkpt>
<trkpt lat="46.0271700" lon="10.3981450">
	<ele>1498.80</ele>
	<time>2024-07-24T08:09:33.000Z</time>
</trkpt>
<trkpt lat="46.0271800" lon="10.3981500">
	<ele>1499.00</ele>
	<time>2024-07-24T08:09:34.000Z</time>
</trkpt>
<trkpt lat="46.0271770" lon="10.3981480">
	<ele>1499.00</ele>
	<time>2024-07-24T08:09:35.000Z</time>
</trkpt>
<trkpt lat="46.0271780" lon="10.3981510">
	<ele>1499.00</ele>
	<time>2024-07-24T08:09:36.000Z</time>
</trkpt>
<trkpt lat="46.0271790" lon="10.3981520">
	<ele>1499.00</ele>
	<time>2024-07-24T08:09:37.000Z</time>
</trkpt>
<trkpt lat="46.0271780" lon="10.3981400">
	<ele>1499.00</ele>
	<time>2024-07-24T08:09:38.000Z</time>
</trkpt>
<trkpt lat="46.0271750" lon="10.3981270">
	<ele>1498.80</ele>
	<time>2024-07-24T08:09:39.000Z</time>
</trkpt>
<trkpt lat="46.0271750" lon="10.3981190">
	<ele>1498.80</ele>
	<time>2024-07-24T08:09:40.000Z</time>
</trkpt>
<trkpt lat="46.0271700" lon="10.3981070">
	<ele>1498.80</ele>
	<time>2024-07-24T08:09:41.000Z</time>
</trkpt>
<trkpt lat="46.0271700" lon="10.3981010">
	<ele>1498.80</ele>
	<time>2024-07-24T08:09:42.000Z</time>
</trkpt>
<trkpt lat="46.0271710" lon="10.3980970">
	<ele>1498.40</ele>
	<time>2024-07-24T08:09:43.000Z</time>
</trkpt>
<trkpt lat="46.0271710" lon="10.3980900">
	<ele>1498.20</ele>
	<time>2024-07-24T08:09:44.000Z</time>
</trkpt>
<trkpt lat="46.0271720" lon="10.3980810">
	<ele>1498.20</ele>
	<time>2024-07-24T08:09:45.000Z</time>
</trkpt>
<trkpt lat="46.0271750" lon="10.3980710">
	<ele>1498.00</ele>
	<time>2024-07-24T08:09:46.000Z</time>
</trkpt>
<trkpt lat="46.0271910" lon="10.3980600">
	<ele>1497.80</ele>
	<time>2024-07-24T08:09:47.000Z</time>
</trkpt>
<trkpt lat="46.0271980" lon="10.3980500">
	<ele>1497.60</ele>
	<time>2024-07-24T08:09:48.000Z</time>
</trkpt>
<trkpt lat="46.0272000" lon="10.3980380">
	<ele>1497.20</ele>
	<time>2024-07-24T08:09:49.000Z</time>
</trkpt>
<trkpt lat="46.0271920" lon="10.3980370">
	<ele>1497.20</ele>
	<time>2024-07-24T08:09:50.000Z</time>
</trkpt>
<trkpt lat="46.0271980" lon="10.3980340">
	<ele>1497.00</ele>
	<time>2024-07-24T08:09:51.000Z</time>
</trkpt>
<trkpt lat="46.0272020" lon="10.3980290">
	<ele>1496.80</ele>
	<time>2024-07-24T08:09:52.000Z</time>
</trkpt>
<trkpt lat="46.0272070" lon="10.3980320">
	<ele>1496.80</ele>
	<time>2024-07-24T08:09:53.000Z</time>
</trkpt>
<trkpt lat="46.0272070" lon="10.3980350">
	<ele>1496.60</ele>
	<time>2024-07-24T08:09:54.000Z</time>
</trkpt>
<trkpt lat="46.0272110" lon="10.3980320">
	<ele>1496.60</ele>
	<time>2024-07-24T08:09:55.000Z</time>
</trkpt>
<trkpt lat="46.0272180" lon="10.3980240">
	<ele>1496.40</ele>
	<time>2024-07-24T08:09:56.000Z</time>
</trkpt>
<trkpt lat="46.0272220" lon="10.3980100">
	<ele>1496.20</ele>
	<time>2024-07-24T08:09:57.000Z</time>
</trkpt>
<trkpt lat="46.0272280" lon="10.3980040">
	<ele>1495.80</ele>
	<time>2024-07-24T08:09:58.000Z</time>
</trkpt>
<trkpt lat="46.0272360" lon="10.3980010">
	<ele>1495.60</ele>
	<time>2024-07-24T08:09:59.000Z</time>
</trkpt>
<trkpt lat="46.0272450" lon="10.3979970">
	<ele>1495.40</ele>
	<time>2024-07-24T08:10:00.000Z</time>
</trkpt>
<trkpt lat="46.0272520" lon="10.3979920">
	<ele>1495.20</ele>
	<time>2024-07-24T08:10:01.000Z</time>
</trkpt>
<trkpt lat="46.0272600" lon="10.3979920">
	<ele>1495.20</ele>
	<time>2024-07-24T08:10:02.000Z</time>
</trkpt>
<trkpt lat="46.0272660" lon="10.3979940">
	<ele>1495.00</ele>
	<time>2024-07-24T08:10:03.000Z</time>
</trkpt>
<trkpt lat="46.0272690" lon="10.3979970">
	<ele>1494.80</ele>
	<time>2024-07-24T08:10:04.000Z</time>
</trkpt>
<trkpt lat="46.0272760" lon="10.3979950">
	<ele>1494.60</ele>
	<time>2024-07-24T08:10:05.000Z</time>
</trkpt>
<trkpt lat="46.0272860" lon="10.3979950">
	<ele>1494.60</ele>
	<time>2024-07-24T08:10:06.000Z</time>
</trkpt>
<trkpt lat="46.0272970" lon="10.3980030">
	<ele>1494.40</ele>
	<time>2024-07-24T08:10:07.000Z</time>
</trkpt>
<trkpt lat="46.0273070" lon="10.3980040">
	<ele>1494.20</ele>
	<time>2024-07-24T08:10:08.000Z</time>
</trkpt>
<trkpt lat="46.0273000" lon="10.3980050">
	<ele>1494.00</ele>
	<time>2024-07-24T08:10:09.000Z</time>
</trkpt>
<trkpt lat="46.0273010" lon="10.3980030">
	<ele>1493.80</ele>
	<time>2024-07-24T08:10:10.000Z</time>
</trkpt>
<trkpt lat="46.0273020" lon="10.3979980">
	<ele>1493.40</ele>
	<time>2024-07-24T08:10:11.000Z</time>
</trkpt>
<trkpt lat="46.0273070" lon="10.3979950">
	<ele>1493.20</ele>
	<time>2024-07-24T08:10:12.000Z</time>
</trkpt>
<trkpt lat="46.0273220" lon="10.3979950">
	<ele>1493.20</ele>
	<time>2024-07-24T08:10:13.000Z</time>
</trkpt>
<trkpt lat="46.0273330" lon="10.3979900">
	<ele>1493.00</ele>
	<time>2024-07-24T08:10:14.000Z</time>
</trkpt>
<trkpt lat="46.0273400" lon="10.3979830">
	<ele>1492.80</ele>
	<time>2024-07-24T08:10:15.000Z</time>
</trkpt>
<trkpt lat="46.0273440" lon="10.3979780">
	<ele>1492.80</ele>
	<time>2024-07-24T08:10:16.000Z</time>
</trkpt>
<trkpt lat="46.0273520" lon="10.3979710">
	<ele>1492.80</ele>
	<time>2024-07-24T08:10:17.000Z</time>
</trkpt>
<trkpt lat="46.0273580" lon="10.3979690">
	<ele>1492.80</ele>
	<time>2024-07-24T08:10:18.000Z</time>
</trkpt>
<trkpt lat="46.0273650" lon="10.3979660">
	<ele>1492.60</ele>
	<time>2024-07-24T08:10:19.000Z</time>
</trkpt>
<trkpt lat="46.0273740" lon="10.3979640">
	<ele>1492.40</ele>
	<time>2024-07-24T08:10:20.000Z</time>
</trkpt>
<trkpt lat="46.0273860" lon="10.3979610">
	<ele>1492.20</ele>
	<time>2024-07-24T08:10:21.000Z</time>
</trkpt>
<trkpt lat="46.0273980" lon="10.3979600">
	<ele>1492.20</ele>
	<time>2024-07-24T08:10:22.000Z</time>
</trkpt>
<trkpt lat="46.0274090" lon="10.3979530">
	<ele>1492.00</ele>
	<time>2024-07-24T08:10:23.000Z</time>
</trkpt>
<trkpt lat="46.0274150" lon="10.3979550">
	<ele>1492.00</ele>
	<time>2024-07-24T08:10:24.000Z</time>
</trkpt>
<trkpt lat="46.0274270" lon="10.3979460">
	<ele>1491.80</ele>
	<time>2024-07-24T08:10:25.000Z</time>
</trkpt>
<trkpt lat="46.0274390" lon="10.3979450">
	<ele>1491.80</ele>
	<time>2024-07-24T08:10:26.000Z</time>
</trkpt>
<trkpt lat="46.0274420" lon="10.3979500">
	<ele>1491.80</ele>
	<time>2024-07-24T08:10:27.000Z</time>
</trkpt>
<trkpt lat="46.0274470" lon="10.3979580">
	<ele>1491.40</ele>
	<time>2024-07-24T08:10:28.000Z</time>
</trkpt>
<trkpt lat="46.0274540" lon="10.3979630">
	<ele>1491.40</ele>
	<time>2024-07-24T08:10:29.000Z</time>
</trkpt>
<trkpt lat="46.0274610" lon="10.3979680">
	<ele>1491.20</ele>
	<time>2024-07-24T08:10:30.000Z</time>
</trkpt>
<trkpt lat="46.0274650" lon="10.3979660">
	<ele>1491.00</ele>
	<time>2024-07-24T08:10:31.000Z</time>
</trkpt>
<trkpt lat="46.0274780" lon="10.3979630">
	<ele>1491.00</ele>
	<time>2024-07-24T08:10:32.000Z</time>
</trkpt>
<trkpt lat="46.0274900" lon="10.3979530">
	<ele>1490.80</ele>
	<time>2024-07-24T08:10:33.000Z</time>
</trkpt>
<trkpt lat="46.0275010" lon="10.3979530">
	<ele>1490.60</ele>
	<time>2024-07-24T08:10:34.000Z</time>
</trkpt>
<trkpt lat="46.0275070" lon="10.3979590">
	<ele>1490.40</ele>
	<time>2024-07-24T08:10:35.000Z</time>
</trkpt>
<trkpt lat="46.0275170" lon="10.3979630">
	<ele>1490.20</ele>
	<time>2024-07-24T08:10:36.000Z</time>
</trkpt>
<trkpt lat="46.0275350" lon="10.3979600">
	<ele>1490.00</ele>
	<time>2024-07-24T08:10:37.000Z</time>
</trkpt>
<trkpt lat="46.0275470" lon="10.3979610">
	<ele>1489.80</ele>
	<time>2024-07-24T08:10:38.000Z</time>
</trkpt>
<trkpt lat="46.0275630" lon="10.3979610">
	<ele>1489.60</ele>
	<time>2024-07-24T08:10:39.000Z</time>
</trkpt>
<trkpt lat="46.0275770" lon="10.3979560">
	<ele>1489.60</ele>
	<time>2024-07-24T08:10:40.000Z</time>
</trkpt>
<trkpt lat="46.0275980" lon="10.3979560">
	<ele>1489.40</ele>
	<time>2024-07-24T08:10:41.000Z</time>
</trkpt>
<trkpt lat="46.0276150" lon="10.3979570">
	<ele>1489.20</ele>
	<time>2024-07-24T08:10:42.000Z</time>
</trkpt>
<trkpt lat="46.0276250" lon="10.3979600">
	<ele>1489.00</ele>
	<time>2024-07-24T08:10:43.000Z</time>
</trkpt>
<trkpt lat="46.0276370" lon="10.3979590">
	<ele>1489.00</ele>
	<time>2024-07-24T08:10:44.000Z</time>
</trkpt>
<trkpt lat="46.0276470" lon="10.3979700">
	<ele>1488.80</ele>
	<time>2024-07-24T08:10:45.000Z</time>
</trkpt>
<trkpt lat="46.0276560" lon="10.3979730">
	<ele>1488.80</ele>
	<time>2024-07-24T08:10:46.000Z</time>
</trkpt>
<trkpt lat="46.0276690" lon="10.3979790">
	<ele>1488.60</ele>
	<time>2024-07-24T08:10:47.000Z</time>
</trkpt>
<trkpt lat="46.0276860" lon="10.3979830">
	<ele>1488.40</ele>
	<time>2024-07-24T08:10:48.000Z</time>
</trkpt>
<trkpt lat="46.0276960" lon="10.3979850">
	<ele>1488.20</ele>
	<time>2024-07-24T08:10:49.000Z</time>
</trkpt>
<trkpt lat="46.0277070" lon="10.3979890">
	<ele>1488.20</ele>
	<time>2024-07-24T08:10:50.000Z</time>
</trkpt>
<trkpt lat="46.0277210" lon="10.3979920">
	<ele>1488.00</ele>
	<time>2024-07-24T08:10:51.000Z</time>
</trkpt>
<trkpt lat="46.0277370" lon="10.3979950">
	<ele>1488.00</ele>
	<time>2024-07-24T08:10:52.000Z</time>
</trkpt>
<trkpt lat="46.0277490" lon="10.3980020">
	<ele>1487.80</ele>
	<time>2024-07-24T08:10:53.000Z</time>
</trkpt>
<trkpt lat="46.0277570" lon="10.3980110">
	<ele>1487.80</ele>
	<time>2024-07-24T08:10:54.000Z</time>
</trkpt>
<trkpt lat="46.0277650" lon="10.3980190">
	<ele>1487.60</ele>
	<time>2024-07-24T08:10:55.000Z</time>
</trkpt>
<trkpt lat="46.0277730" lon="10.3980210">
	<ele>1487.40</ele>
	<time>2024-07-24T08:10:56.000Z</time>
</trkpt>
<trkpt lat="46.0277760" lon="10.3980220">
	<ele>1487.20</ele>
	<time>2024-07-24T08:10:57.000Z</time>
</trkpt>
<trkpt lat="46.0277760" lon="10.3980180">
	<ele>1487.20</ele>
	<time>2024-07-24T08:10:58.000Z</time>
</trkpt>
<trkpt lat="46.0277840" lon="10.3980130">
	<ele>1487.00</ele>
	<time>2024-07-24T08:10:59.000Z</time>
</trkpt>
<trkpt lat="46.0277920" lon="10.3980080">
	<ele>1487.00</ele>
	<time>2024-07-24T08:11:00.000Z</time>
</trkpt>
<trkpt lat="46.0277980" lon="10.3980100">
	<ele>1487.00</ele>
	<time>2024-07-24T08:11:01.000Z</time>
</trkpt>
<trkpt lat="46.0278110" lon="10.3980170">
	<ele>1486.80</ele>
	<time>2024-07-24T08:11:02.000Z</time>
</trkpt>
<trkpt lat="46.0278220" lon="10.3980230">
	<ele>1486.80</ele>
	<time>2024-07-24T08:11:03.000Z</time>
</trkpt>
<trkpt lat="46.0278300" lon="10.3980210">
	<ele>1486.60</ele>
	<time>2024-07-24T08:11:04.000Z</time>
</trkpt>
<trkpt lat="46.0278440" lon="10.3980180">
	<ele>1486.60</ele>
	<time>2024-07-24T08:11:05.000Z</time>
</trkpt>
<trkpt lat="46.0278560" lon="10.3980150">
	<ele>1486.40</ele>
	<time>2024-07-24T08:11:06.000Z</time>
</trkpt>
<trkpt lat="46.0278670" lon="10.3980140">
	<ele>1486.40</ele>
	<time>2024-07-24T08:11:07.000Z</time>
</trkpt>
<trkpt lat="46.0278810" lon="10.3980130">
	<ele>1486.20</ele>
	<time>2024-07-24T08:11:08.000Z</time>
</trkpt>
<trkpt lat="46.0278950" lon="10.3980100">
	<ele>1486.20</ele>
	<time>2024-07-24T08:11:09.000Z</time>
</trkpt>
<trkpt lat="46.0279070" lon="10.3980130">
	<ele>1486.20</ele>
	<time>2024-07-24T08:11:10.000Z</time>
</trkpt>
<trkpt lat="46.0279140" lon="10.3980200">
	<ele>1486.00</ele>
	<time>2024-07-24T08:11:11.000Z</time>
</trkpt>
<trkpt lat="46.0279230" lon="10.3980230">
	<ele>1485.80</ele>
	<time>2024-07-24T08:11:12.000Z</time>
</trkpt>
<trkpt lat="46.0279270" lon="10.3980250">
	<ele>1485.80</ele>
	<time>2024-07-24T08:11:13.000Z</time>
</trkpt>
<trkpt lat="46.0279380" lon="10.3980320">
	<ele>1485.60</ele>
	<time>2024-07-24T08:11:14.000Z</time>
</trkpt>
<trkpt lat="46.0279540" lon="10.3980410">
	<ele>1485.40</ele>
	<time>2024-07-24T08:11:15.000Z</time>
</trkpt>
<trkpt lat="46.0279660" lon="10.3980540">
	<ele>1485.40</ele>
	<time>2024-07-24T08:11:16.000Z</time>
</trkpt>
<trkpt lat="46.0279750" lon="10.3980590">
	<ele>1485.20</ele>
	<time>2024-07-24T08:11:17.000Z</time>
</trkpt>
<trkpt lat="46.0279830" lon="10.3980640">
	<ele>1485.20</ele>
	<time>2024-07-24T08:11:18.000Z</time>
</trkpt>
<trkpt lat="46.0279860" lon="10.3980700">
	<ele>1485.20</ele>
	<time>2024-07-24T08:11:19.000Z</time>
</trkpt>
<trkpt lat="46.0279880" lon="10.3980770">
	<ele>1485.20</ele>
	<time>2024-07-24T08:11:20.000Z</time>
</trkpt>
<trkpt lat="46.0279930" lon="10.3980760">
	<ele>1485.20</ele>
	<time>2024-07-24T08:11:21.000Z</time>
</trkpt>
<trkpt lat="46.0280010" lon="10.3980730">
	<ele>1485.00</ele>
	<time>2024-07-24T08:11:22.000Z</time>
</trkpt>
<trkpt lat="46.0280130" lon="10.3980750">
	<ele>1485.00</ele>
	<time>2024-07-24T08:11:23.000Z</time>
</trkpt>
<trkpt lat="46.0280270" lon="10.3980790">
	<ele>1485.00</ele>
	<time>2024-07-24T08:11:24.000Z</time>
</trkpt>
<trkpt lat="46.0280410" lon="10.3980810">
	<ele>1485.00</ele>
	<time>2024-07-24T08:11:25.000Z</time>
</trkpt>
<trkpt lat="46.0280530" lon="10.3980840">
	<ele>1485.00</ele>
	<time>2024-07-24T08:11:26.000Z</time>
</trkpt>
<trkpt lat="46.0280630" lon="10.3980990">
	<ele>1485.00</ele>
	<time>2024-07-24T08:11:27.000Z</time>
</trkpt>
<trkpt lat="46.0280670" lon="10.3981020">
	<ele>1485.20</ele>
	<time>2024-07-24T08:11:28.000Z</time>
</trkpt>
<trkpt lat="46.0280810" lon="10.3981110">
	<ele>1485.20</ele>
	<time>2024-07-24T08:11:29.000Z</time>
</trkpt>
<trkpt lat="46.0280950" lon="10.3981230">
	<ele>1485.20</ele>
	<time>2024-07-24T08:11:30.000Z</time>
</trkpt>
<trkpt lat="46.0281100" lon="10.3981370">
	<ele>1485.40</ele>
	<time>2024-07-24T08:11:31.000Z</time>
</trkpt>
<trkpt lat="46.0281250" lon="10.3981500">
	<ele>1485.40</ele>
	<time>2024-07-24T08:11:32.000Z</time>
</trkpt>
<trkpt lat="46.0281450" lon="10.3981560">
	<ele>1485.40</ele>
	<time>2024-07-24T08:11:33.000Z</time>
</trkpt>
<trkpt lat="46.0281600" lon="10.3981660">
	<ele>1485.40</ele>
	<time>2024-07-24T08:11:34.000Z</time>
</trkpt>
<trkpt lat="46.0281780" lon="10.3981680">
	<ele>1485.40</ele>
	<time>2024-07-24T08:11:35.000Z</time>
</trkpt>
<trkpt lat="46.0281990" lon="10.3981680">
	<ele>1485.60</ele>
	<time>2024-07-24T08:11:36.000Z</time>
</trkpt>
<trkpt lat="46.0282140" lon="10.3981720">
	<ele>1485.80</ele>
	<time>2024-07-24T08:11:37.000Z</time>
</trkpt>
<trkpt lat="46.0282290" lon="10.3981820">
	<ele>1485.80</ele>
	<time>2024-07-24T08:11:38.000Z</time>
</trkpt>
<trkpt lat="46.0282370" lon="10.3981880">
	<ele>1485.80</ele>
	<time>2024-07-24T08:11:39.000Z</time>
</trkpt>
<trkpt lat="46.0282420" lon="10.3981940">
	<ele>1486.00</ele>
	<time>2024-07-24T08:11:40.000Z</time>
</trkpt>
<trkpt lat="46.0282450" lon="10.3981960">
	<ele>1486.00</ele>
	<time>2024-07-24T08:11:41.000Z</time>
</trkpt>
<trkpt lat="46.0282510" lon="10.3981930">
	<ele>1486.00</ele>
	<time>2024-07-24T08:11:42.000Z</time>
</trkpt>
<trkpt lat="46.0282620" lon="10.3981900">
	<ele>1486.00</ele>
	<time>2024-07-24T08:11:43.000Z</time>
</trkpt>
<trkpt lat="46.0282700" lon="10.3981920">
	<ele>1486.00</ele>
	<time>2024-07-24T08:11:44.000Z</time>
</trkpt>
<trkpt lat="46.0282820" lon="10.3981940">
	<ele>1486.20</ele>
	<time>2024-07-24T08:11:45.000Z</time>
</trkpt>
<trkpt lat="46.0282990" lon="10.3981960">
	<ele>1486.40</ele>
	<time>2024-07-24T08:11:46.000Z</time>
</trkpt>
<trkpt lat="46.0283060" lon="10.3982000">
	<ele>1486.40</ele>
	<time>2024-07-24T08:11:47.000Z</time>
</trkpt>
<trkpt lat="46.0283180" lon="10.3982060">
	<ele>1486.40</ele>
	<time>2024-07-24T08:11:48.000Z</time>
</trkpt>
<trkpt lat="46.0283350" lon="10.3982200">
	<ele>1486.60</ele>
	<time>2024-07-24T08:11:49.000Z</time>
</trkpt>
<trkpt lat="46.0283450" lon="10.3982340">
	<ele>1486.80</ele>
	<time>2024-07-24T08:11:50.000Z</time>
</trkpt>
<trkpt lat="46.0283530" lon="10.3982410">
	<ele>1486.80</ele>
	<time>2024-07-24T08:11:51.000Z</time>
</trkpt>
<trkpt lat="46.0283630" lon="10.3982480">
	<ele>1486.80</ele>
	<time>2024-07-24T08:11:52.000Z</time>
</trkpt>
<trkpt lat="46.0283720" lon="10.3982550">
	<ele>1487.00</ele>
	<time>2024-07-24T08:11:53.000Z</time>
</trkpt>
<trkpt lat="46.0283850" lon="10.3982630">
	<ele>1487.00</ele>
	<time>2024-07-24T08:11:54.000Z</time>
</trkpt>
<trkpt lat="46.0283990" lon="10.3982680">
	<ele>1487.00</ele>
	<time>2024-07-24T08:11:55.000Z</time>
</trkpt>
<trkpt lat="46.0284150" lon="10.3982750">
	<ele>1487.00</ele>
	<time>2024-07-24T08:11:56.000Z</time>
</trkpt>
<trkpt lat="46.0284340" lon="10.3982770">
	<ele>1487.00</ele>
	<time>2024-07-24T08:11:57.000Z</time>
</trkpt>
<trkpt lat="46.0284450" lon="10.3982830">
	<ele>1487.00</ele>
	<time>2024-07-24T08:11:58.000Z</time>
</trkpt>
<trkpt lat="46.0284530" lon="10.3982860">
	<ele>1487.00</ele>
	<time>2024-07-24T08:11:59.000Z</time>
</trkpt>
<trkpt lat="46.0284610" lon="10.3982900">
	<ele>1487.00</ele>
	<time>2024-07-24T08:12:00.000Z</time>
</trkpt>
<trkpt lat="46.0284750" lon="10.3982860">
	<ele>1487.00</ele>
	<time>2024-07-24T08:12:01.000Z</time>
</trkpt>
<trkpt lat="46.0284950" lon="10.3982830">
	<ele>1487.00</ele>
	<time>2024-07-24T08:12:02.000Z</time>
</trkpt>
<trkpt lat="46.0285010" lon="10.3982830">
	<ele>1487.00</ele>
	<time>2024-07-24T08:12:03.000Z</time>
</trkpt>
<trkpt lat="46.0285100" lon="10.3982850">
	<ele>1487.00</ele>
	<time>2024-07-24T08:12:04.000Z</time>
</trkpt>
<trkpt lat="46.0285210" lon="10.3982890">
	<ele>1487.00</ele>
	<time>2024-07-24T08:12:05.000Z</time>
</trkpt>
<trkpt lat="46.0285330" lon="10.3982850">
	<ele>1487.00</ele>
	<time>2024-07-24T08:12:06.000Z</time>
</trkpt>
<trkpt lat="46.0285370" lon="10.3982860">
	<ele>1487.00</ele>
	<time>2024-07-24T08:12:07.000Z</time>
</trkpt>
<trkpt lat="46.0285450" lon="10.3982880">
	<ele>1487.00</ele>
	<time>2024-07-24T08:12:08.000Z</time>
</trkpt>
<trkpt lat="46.0285480" lon="10.3982920">
	<ele>1487.00</ele>
	<time>2024-07-24T08:12:09.000Z</time>
</trkpt>
<trkpt lat="46.0285480" lon="10.3982940">
	<ele>1487.00</ele>
	<time>2024-07-24T08:12:10.000Z</time>
</trkpt>
<trkpt lat="46.0285540" lon="10.3982920">
	<ele>1487.00</ele>
	<time>2024-07-24T08:12:11.000Z</time>
</trkpt>
<trkpt lat="46.0285600" lon="10.3982930">
	<ele>1487.00</ele>
	<time>2024-07-24T08:12:12.000Z</time>
</trkpt>
<trkpt lat="46.0285680" lon="10.3982960">
	<ele>1487.20</ele>
	<time>2024-07-24T08:12:13.000Z</time>
</trkpt>
<trkpt lat="46.0285800" lon="10.3982970">
	<ele>1487.20</ele>
	<time>2024-07-24T08:12:14.000Z</time>
</trkpt>
<trkpt lat="46.0285930" lon="10.3982940">
	<ele>1487.20</ele>
	<time>2024-07-24T08:12:15.000Z</time>
</trkpt>
<trkpt lat="46.0285970" lon="10.3982900">
	<ele>1487.20</ele>
	<time>2024-07-24T08:12:16.000Z</time>
</trkpt>
<trkpt lat="46.0286050" lon="10.3982860">
	<ele>1487.20</ele>
	<time>2024-07-24T08:12:17.000Z</time>
</trkpt>
<trkpt lat="46.0286200" lon="10.3982830">
	<ele>1487.40</ele>
	<time>2024-07-24T08:12:18.000Z</time>
</trkpt>
<trkpt lat="46.0286370" lon="10.3982800">
	<ele>1487.40</ele>
	<time>2024-07-24T08:12:19.000Z</time>
</trkpt>
<trkpt lat="46.0286490" lon="10.3982820">
	<ele>1487.40</ele>
	<time>2024-07-24T08:12:20.000Z</time>
</trkpt>
<trkpt lat="46.0286620" lon="10.3982830">
	<ele>1487.40</ele>
	<time>2024-07-24T08:12:21.000Z</time>
</trkpt>
<trkpt lat="46.0286720" lon="10.3982840">
	<ele>1487.40</ele>
	<time>2024-07-24T08:12:22.000Z</time>
</trkpt>
<trkpt lat="46.0286780" lon="10.3982850">
	<ele>1487.40</ele>
	<time>2024-07-24T08:12:23.000Z</time>
</trkpt>
<trkpt lat="46.0286820" lon="10.3982860">
	<ele>1487.40</ele>
	<time>2024-07-24T08:12:24.000Z</time>
</trkpt>
<trkpt lat="46.0286830" lon="10.3982870">
	<ele>1487.60</ele>
	<time>2024-07-24T08:12:25.000Z</time>
</trkpt>
<trkpt lat="46.0286840" lon="10.3982870">
	<ele>1487.60</ele>
	<time>2024-07-24T08:12:26.000Z</time>
</trkpt>
<trkpt lat="46.0286960" lon="10.3982910">
	<ele>1487.60</ele>
	<time>2024-07-24T08:12:27.000Z</time>
</trkpt>
<trkpt lat="46.0287080" lon="10.3982950">
	<ele>1487.60</ele>
	<time>2024-07-24T08:12:28.000Z</time>
</trkpt>
<trkpt lat="46.0287250" lon="10.3982910">
	<ele>1487.60</ele>
	<time>2024-07-24T08:12:29.000Z</time>
</trkpt>
<trkpt lat="46.0287380" lon="10.3982900">
	<ele>1487.60</ele>
	<time>2024-07-24T08:12:30.000Z</time>
</trkpt>
<trkpt lat="46.0287490" lon="10.3982910">
	<ele>1487.60</ele>
	<time>2024-07-24T08:12:31.000Z</time>
</trkpt>
<trkpt lat="46.0287590" lon="10.3982960">
	<ele>1487.60</ele>
	<time>2024-07-24T08:12:32.000Z</time>
</trkpt>
<trkpt lat="46.0287680" lon="10.3983030">
	<ele>1487.60</ele>
	<time>2024-07-24T08:12:33.000Z</time>
</trkpt>
<trkpt lat="46.0287790" lon="10.3983100">
	<ele>1487.60</ele>
	<time>2024-07-24T08:12:34.000Z</time>
</trkpt>
<trkpt lat="46.0287960" lon="10.3983120">
	<ele>1487.40</ele>
	<time>2024-07-24T08:12:35.000Z</time>
</trkpt>
<trkpt lat="46.0288140" lon="10.3983190">
	<ele>1487.40</ele>
	<time>2024-07-24T08:12:36.000Z</time>
</trkpt>
<trkpt lat="46.0288360" lon="10.3983240">
	<ele>1487.40</ele>
	<time>2024-07-24T08:12:37.000Z</time>
</trkpt>
<trkpt lat="46.0288480" lon="10.3983300">
	<ele>1487.40</ele>
	<time>2024-07-24T08:12:38.000Z</time>
</trkpt>
<trkpt lat="46.0288560" lon="10.3983420">
	<ele>1487.60</ele>
	<time>2024-07-24T08:12:39.000Z</time>
</trkpt>
<trkpt lat="46.0288710" lon="10.3983480">
	<ele>1487.60</ele>
	<time>2024-07-24T08:12:40.000Z</time>
</trkpt>
<trkpt lat="46.0288850" lon="10.3983550">
	<ele>1487.60</ele>
	<time>2024-07-24T08:12:41.000Z</time>
</trkpt>
<trkpt lat="46.0288940" lon="10.3983640">
	<ele>1487.60</ele>
	<time>2024-07-24T08:12:42.000Z</time>
</trkpt>
<trkpt lat="46.0289060" lon="10.3983700">
	<ele>1487.60</ele>
	<time>2024-07-24T08:12:43.000Z</time>
</trkpt>
<trkpt lat="46.0289160" lon="10.3983850">
	<ele>1487.60</ele>
	<time>2024-07-24T08:12:44.000Z</time>
</trkpt>
<trkpt lat="46.0289260" lon="10.3983950">
	<ele>1487.80</ele>
	<time>2024-07-24T08:12:45.000Z</time>
</trkpt>
<trkpt lat="46.0289400" lon="10.3984020">
	<ele>1487.80</ele>
	<time>2024-07-24T08:12:46.000Z</time>
</trkpt>
<trkpt lat="46.0289540" lon="10.3984110">
	<ele>1487.80</ele>
	<time>2024-07-24T08:12:47.000Z</time>
</trkpt>
<trkpt lat="46.0289680" lon="10.3984190">
	<ele>1487.80</ele>
	<time>2024-07-24T08:12:48.000Z</time>
</trkpt>
<trkpt lat="46.0289880" lon="10.3984190">
	<ele>1487.80</ele>
	<time>2024-07-24T08:12:49.000Z</time>
</trkpt>
<trkpt lat="46.0289980" lon="10.3984270">
	<ele>1487.80</ele>
	<time>2024-07-24T08:12:50.000Z</time>
</trkpt>
<trkpt lat="46.0290090" lon="10.3984400">
	<ele>1487.80</ele>
	<time>2024-07-24T08:12:51.000Z</time>
</trkpt>
<trkpt lat="46.0290250" lon="10.3984480">
	<ele>1487.80</ele>
	<time>2024-07-24T08:12:52.000Z</time>
</trkpt>
<trkpt lat="46.0290370" lon="10.3984560">
	<ele>1487.80</ele>
	<time>2024-07-24T08:12:53.000Z</time>
</trkpt>
<trkpt lat="46.0290490" lon="10.3984610">
	<ele>1487.80</ele>
	<time>2024-07-24T08:12:54.000Z</time>
</trkpt>
<trkpt lat="46.0290580" lon="10.3984660">
	<ele>1487.80</ele>
	<time>2024-07-24T08:12:55.000Z</time>
</trkpt>
<trkpt lat="46.0290690" lon="10.3984690">
	<ele>1487.80</ele>
	<time>2024-07-24T08:12:56.000Z</time>
</trkpt>
<trkpt lat="46.0290800" lon="10.3984760">
	<ele>1487.80</ele>
	<time>2024-07-24T08:12:57.000Z</time>
</trkpt>
<trkpt lat="46.0290910" lon="10.3984820">
	<ele>1487.80</ele>
	<time>2024-07-24T08:12:58.000Z</time>
</trkpt>
<trkpt lat="46.0291010" lon="10.3984860">
	<ele>1487.80</ele>
	<time>2024-07-24T08:12:59.000Z</time>
</trkpt>
<trkpt lat="46.0291110" lon="10.3984880">
	<ele>1487.80</ele>
	<time>2024-07-24T08:13:00.000Z</time>
</trkpt>
<trkpt lat="46.0291170" lon="10.3984890">
	<ele>1487.80</ele>
	<time>2024-07-24T08:13:01.000Z</time>
</trkpt>
<trkpt lat="46.0291170" lon="10.3984890">
	<ele>1487.80</ele>
	<time>2024-07-24T08:13:02.000Z</time>
</trkpt>
<trkpt lat="46.0291140" lon="10.3984900">
	<ele>1487.80</ele>
	<time>2024-07-24T08:13:03.000Z</time>
</trkpt>
<trkpt lat="46.0291110" lon="10.3984910">
	<ele>1487.80</ele>
	<time>2024-07-24T08:13:04.000Z</time>
</trkpt>
<trkpt lat="46.0291110" lon="10.3984910">
	<ele>1488.00</ele>
	<time>2024-07-24T08:13:05.000Z</time>
</trkpt>
<trkpt lat="46.0291120" lon="10.3984920">
	<ele>1488.00</ele>
	<time>2024-07-24T08:13:06.000Z</time>
</trkpt>
<trkpt lat="46.0291140" lon="10.3984930">
	<ele>1488.00</ele>
	<time>2024-07-24T08:13:07.000Z</time>
</trkpt>
<trkpt lat="46.0291160" lon="10.3984950">
	<ele>1488.00</ele>
	<time>2024-07-24T08:13:08.000Z</time>
</trkpt>
<trkpt lat="46.0291180" lon="10.3984960">
	<ele>1488.00</ele>
	<time>2024-07-24T08:13:09.000Z</time>
</trkpt>
<trkpt lat="46.0291180" lon="10.3984990">
	<ele>1488.00</ele>
	<time>2024-07-24T08:13:10.000Z</time>
</trkpt>
<trkpt lat="46.0291220" lon="10.3985030">
	<ele>1488.00</ele>
	<time>2024-07-24T08:13:11.000Z</time>
</trkpt>
<trkpt lat="46.0291280" lon="10.3985080">
	<ele>1488.20</ele>
	<time>2024-07-24T08:13:12.000Z</time>
</trkpt>
<trkpt lat="46.0291340" lon="10.3985130">
	<ele>1488.00</ele>
	<time>2024-07-24T08:13:13.000Z</time>
</trkpt>
<trkpt lat="46.0291420" lon="10.3985120">
	<ele>1488.00</ele>
	<time>2024-07-24T08:13:14.000Z</time>
</trkpt>
<trkpt lat="46.0291510" lon="10.3985110">
	<ele>1488.00</ele>
	<time>2024-07-24T08:13:15.000Z</time>
</trkpt>
<trkpt lat="46.0291590" lon="10.3985100">
	<ele>1488.00</ele>
	<time>2024-07-24T08:13:16.000Z</time>
</trkpt>
<trkpt lat="46.0291670" lon="10.3985120">
	<ele>1488.00</ele>
	<time>2024-07-24T08:13:17.000Z</time>
</trkpt>
<trkpt lat="46.0291720" lon="10.3985140">
	<ele>1488.00</ele>
	<time>2024-07-24T08:13:18.000Z</time>
</trkpt>
<trkpt lat="46.0291800" lon="10.3985210">
	<ele>1488.00</ele>
	<time>2024-07-24T08:13:19.000Z</time>
</trkpt>
<trkpt lat="46.0291880" lon="10.3985280">
	<ele>1488.00</ele>
	<time>2024-07-24T08:13:20.000Z</time>
</trkpt>
<trkpt lat="46.0291970" lon="10.3985340">
	<ele>1488.20</ele>
	<time>2024-07-24T08:13:21.000Z</time>
</trkpt>
<trkpt lat="46.0292080" lon="10.3985390">
	<ele>1488.20</ele>
	<time>2024-07-24T08:13:22.000Z</time>
</trkpt>
<trkpt lat="46.0292160" lon="10.3985430">
	<ele>1488.20</ele>
	<time>2024-07-24T08:13:23.000Z</time>
</trkpt>
<trkpt lat="46.0292210" lon="10.3985480">
	<ele>1488.40</ele>
	<time>2024-07-24T08:13:24.000Z</time>
</trkpt>
<trkpt lat="46.0292280" lon="10.3985560">
	<ele>1488.40</ele>
	<time>2024-07-24T08:13:25.000Z</time>
</trkpt>
<trkpt lat="46.0292390" lon="10.3985680">
	<ele>1488.40</ele>
	<time>2024-07-24T08:13:26.000Z</time>
</trkpt>
<trkpt lat="46.0292530" lon="10.3985790">
	<ele>1488.40</ele>
	<time>2024-07-24T08:13:27.000Z</time>
</trkpt>
<trkpt lat="46.0292660" lon="10.3985890">
	<ele>1488.60</ele>
	<time>2024-07-24T08:13:28.000Z</time>
</trkpt>
<trkpt lat="46.0292780" lon="10.3986000">
	<ele>1488.60</ele>
	<time>2024-07-24T08:13:29.000Z</time>
</trkpt>
<trkpt lat="46.0292900" lon="10.3986150">
	<ele>1488.60</ele>
	<time>2024-07-24T08:13:30.000Z</time>
</trkpt>
<trkpt lat="46.0293000" lon="10.3986280">
	<ele>1488.80</ele>
	<time>2024-07-24T08:13:31.000Z</time>
</trkpt>
<trkpt lat="46.0293120" lon="10.3986390">
	<ele>1488.80</ele>
	<time>2024-07-24T08:13:32.000Z</time>
</trkpt>
<trkpt lat="46.0293280" lon="10.3986500">
	<ele>1488.80</ele>
	<time>2024-07-24T08:13:33.000Z</time>
</trkpt>
<trkpt lat="46.0293420" lon="10.3986600">
	<ele>1488.80</ele>
	<time>2024-07-24T08:13:34.000Z</time>
</trkpt>
<trkpt lat="46.0293500" lon="10.3986740">
	<ele>1489.00</ele>
	<time>2024-07-24T08:13:35.000Z</time>
</trkpt>
<trkpt lat="46.0293560" lon="10.3986910">
	<ele>1489.00</ele>
	<time>2024-07-24T08:13:36.000Z</time>
</trkpt>
<trkpt lat="46.0293660" lon="10.3987070">
	<ele>1489.00</ele>
	<time>2024-07-24T08:13:37.000Z</time>
</trkpt>
<trkpt lat="46.0293750" lon="10.3987190">
	<ele>1489.00</ele>
	<time>2024-07-24T08:13:38.000Z</time>
</trkpt>
<trkpt lat="46.0293830" lon="10.3987320">
	<ele>1489.00</ele>
	<time>2024-07-24T08:13:39.000Z</time>
</trkpt>
<trkpt lat="46.0293910" lon="10.3987440">
	<ele>1489.00</ele>
	<time>2024-07-24T08:13:40.000Z</time>
</trkpt>
<trkpt lat="46.0294000" lon="10.3987540">
	<ele>1489.20</ele>
	<time>2024-07-24T08:13:41.000Z</time>
</trkpt>
<trkpt lat="46.0294080" lon="10.3987680">
	<ele>1489.20</ele>
	<time>2024-07-24T08:13:42.000Z</time>
</trkpt>
<trkpt lat="46.0294150" lon="10.3987830">
	<ele>1489.20</ele>
	<time>2024-07-24T08:13:43.000Z</time>
</trkpt>
<trkpt lat="46.0294230" lon="10.3987950">
	<ele>1489.20</ele>
	<time>2024-07-24T08:13:44.000Z</time>
</trkpt>
<trkpt lat="46.0294310" lon="10.3988080">
	<ele>1489.20</ele>
	<time>2024-07-24T08:13:45.000Z</time>
</trkpt>
<trkpt lat="46.0294420" lon="10.3988190">
	<ele>1489.20</ele>
	<time>2024-07-24T08:13:46.000Z</time>
</trkpt>
<trkpt lat="46.0294520" lon="10.3988260">
	<ele>1489.40</ele>
	<time>2024-07-24T08:13:47.000Z</time>
</trkpt>
<trkpt lat="46.0294610" lon="10.3988380">
	<ele>1489.40</ele>
	<time>2024-07-24T08:13:48.000Z</time>
</trkpt>
<trkpt lat="46.0294710" lon="10.3988500">
	<ele>1489.60</ele>
	<time>2024-07-24T08:13:49.000Z</time>
</trkpt>
<trkpt lat="46.0294790" lon="10.3988590">
	<ele>1489.60</ele>
	<time>2024-07-24T08:13:50.000Z</time>
</trkpt>
<trkpt lat="46.0294880" lon="10.3988710">
	<ele>1489.60</ele>
	<time>2024-07-24T08:13:51.000Z</time>
</trkpt>
<trkpt lat="46.0294960" lon="10.3988840">
	<ele>1489.80</ele>
	<time>2024-07-24T08:13:52.000Z</time>
</trkpt>
<trkpt lat="46.0295040" lon="10.3989000">
	<ele>1489.80</ele>
	<time>2024-07-24T08:13:53.000Z</time>
</trkpt>
<trkpt lat="46.0295150" lon="10.3989130">
	<ele>1489.80</ele>
	<time>2024-07-24T08:13:54.000Z</time>
</trkpt>
<trkpt lat="46.0295260" lon="10.3989250">
	<ele>1489.80</ele>
	<time>2024-07-24T08:13:55.000Z</time>
</trkpt>
<trkpt lat="46.0295350" lon="10.3989350">
	<ele>1489.80</ele>
	<time>2024-07-24T08:13:56.000Z</time>
</trkpt>
<trkpt lat="46.0295430" lon="10.3989470">
	<ele>1489.80</ele>
	<time>2024-07-24T08:13:57.000Z</time>
</trkpt>
<trkpt lat="46.0295520" lon="10.3989580">
	<ele>1489.80</ele>
	<time>2024-07-24T08:13:58.000Z</time>
</trkpt>
<trkpt lat="46.0295630" lon="10.3989670">
	<ele>1490.00</ele>
	<time>2024-07-24T08:13:59.000Z</time>
</trkpt>
<trkpt lat="46.0295740" lon="10.3989770">
	<ele>1490.00</ele>
	<time>2024-07-24T08:14:00.000Z</time>
</trkpt>
<trkpt lat="46.0295840" lon="10.3989870">
	<ele>1490.00</ele>
	<time>2024-07-24T08:14:01.000Z</time>
</trkpt>
<trkpt lat="46.0295930" lon="10.3990030">
	<ele>1490.00</ele>
	<time>2024-07-24T08:14:02.000Z</time>
</trkpt>
<trkpt lat="46.0296000" lon="10.3990160">
	<ele>1490.00</ele>
	<time>2024-07-24T08:14:03.000Z</time>
</trkpt>
<trkpt lat="46.0296060" lon="10.3990280">
	<ele>1490.00</ele>
	<time>2024-07-24T08:14:04.000Z</time>
</trkpt>
<trkpt lat="46.0296140" lon="10.3990390">
	<ele>1490.00</ele>
	<time>2024-07-24T08:14:05.000Z</time>
</trkpt>
<trkpt lat="46.0296220" lon="10.3990510">
	<ele>1490.00</ele>
	<time>2024-07-24T08:14:06.000Z</time>
</trkpt>
<trkpt lat="46.0296320" lon="10.3990630">
	<ele>1490.00</ele>
	<time>2024-07-24T08:14:07.000Z</time>
</trkpt>
<trkpt lat="46.0296430" lon="10.3990700">
	<ele>1490.20</ele>
	<time>2024-07-24T08:14:08.000Z</time>
</trkpt>
<trkpt lat="46.0296560" lon="10.3990810">
	<ele>1490.20</ele>
	<time>2024-07-24T08:14:09.000Z</time>
</trkpt>
<trkpt lat="46.0296660" lon="10.3990950">
	<ele>1490.20</ele>
	<time>2024-07-24T08:14:10.000Z</time>
</trkpt>
<trkpt lat="46.0296780" lon="10.3991080">
	<ele>1490.40</ele>
	<time>2024-07-24T08:14:11.000Z</time>
</trkpt>
<trkpt lat="46.0296860" lon="10.3991170">
	<ele>1490.40</ele>
	<time>2024-07-24T08:14:12.000Z</time>
</trkpt>
<trkpt lat="46.0296930" lon="10.3991280">
	<ele>1490.40</ele>
	<time>2024-07-24T08:14:13.000Z</time>
</trkpt>
<trkpt lat="46.0297010" lon="10.3991410">
	<ele>1490.40</ele>
	<time>2024-07-24T08:14:14.000Z</time>
</trkpt>
<trkpt lat="46.0297090" lon="10.3991540">
	<ele>1490.40</ele>
	<time>2024-07-24T08:14:15.000Z</time>
</trkpt>
<trkpt lat="46.0297170" lon="10.3991680">
	<ele>1490.40</ele>
	<time>2024-07-24T08:14:16.000Z</time>
</trkpt>
<trkpt lat="46.0297290" lon="10.3991790">
	<ele>1490.40</ele>
	<time>2024-07-24T08:14:17.000Z</time>
</trkpt>
<trkpt lat="46.0297400" lon="10.3991900">
	<ele>1490.60</ele>
	<time>2024-07-24T08:14:18.000Z</time>
</trkpt>
<trkpt lat="46.0297490" lon="10.3992030">
	<ele>1490.60</ele>
	<time>2024-07-24T08:14:19.000Z</time>
</trkpt>
<trkpt lat="46.0297550" lon="10.3992160">
	<ele>1490.80</ele>
	<time>2024-07-24T08:14:20.000Z</time>
</trkpt>
<trkpt lat="46.0297630" lon="10.3992260">
	<ele>1490.80</ele>
	<time>2024-07-24T08:14:21.000Z</time>
</trkpt>
<trkpt lat="46.0297690" lon="10.3992350">
	<ele>1490.80</ele>
	<time>2024-07-24T08:14:22.000Z</time>
</trkpt>
<trkpt lat="46.0297770" lon="10.3992440">
	<ele>1490.80</ele>
	<time>2024-07-24T08:14:23.000Z</time>
</trkpt>
<trkpt lat="46.0297860" lon="10.3992550">
	<ele>1491.00</ele>
	<time>2024-07-24T08:14:24.000Z</time>
</trkpt>
<trkpt lat="46.0297970" lon="10.3992660">
	<ele>1491.20</ele>
	<time>2024-07-24T08:14:25.000Z</time>
</trkpt>
<trkpt lat="46.0298070" lon="10.3992750">
	<ele>1491.20</ele>
	<time>2024-07-24T08:14:26.000Z</time>
</trkpt>
<trkpt lat="46.0298160" lon="10.3992850">
	<ele>1491.40</ele>
	<time>2024-07-24T08:14:27.000Z</time>
</trkpt>
<trkpt lat="46.0298250" lon="10.3992940">
	<ele>1491.40</ele>
	<time>2024-07-24T08:14:28.000Z</time>
</trkpt>
<trkpt lat="46.0298350" lon="10.3993070">
	<ele>1491.60</ele>
	<time>2024-07-24T08:14:29.000Z</time>
</trkpt>
<trkpt lat="46.0298450" lon="10.3993150">
	<ele>1491.60</ele>
	<time>2024-07-24T08:14:30.000Z</time>
</trkpt>
<trkpt lat="46.0298580" lon="10.3993220">
	<ele>1491.80</ele>
	<time>2024-07-24T08:14:31.000Z</time>
</trkpt>
<trkpt lat="46.0298710" lon="10.3993290">
	<ele>1491.80</ele>
	<time>2024-07-24T08:14:32.000Z</time>
</trkpt>
<trkpt lat="46.0298830" lon="10.3993370">
	<ele>1491.80</ele>
	<time>2024-07-24T08:14:33.000Z</time>
</trkpt>
<trkpt lat="46.0298940" lon="10.3993450">
	<ele>1492.00</ele>
	<time>2024-07-24T08:14:34.000Z</time>
</trkpt>
<trkpt lat="46.0299050" lon="10.3993480">
	<ele>1492.00</ele>
	<time>2024-07-24T08:14:35.000Z</time>
</trkpt>
<trkpt lat="46.0299150" lon="10.3993520">
	<ele>1492.00</ele>
	<time>2024-07-24T08:14:36.000Z</time>
</trkpt>
<trkpt lat="46.0299280" lon="10.3993530">
	<ele>1492.00</ele>
	<time>2024-07-24T08:14:37.000Z</time>
</trkpt>
<trkpt lat="46.0299410" lon="10.3993580">
	<ele>1492.00</ele>
	<time>2024-07-24T08:14:38.000Z</time>
</trkpt>
<trkpt lat="46.0299550" lon="10.3993630">
	<ele>1492.00</ele>
	<time>2024-07-24T08:14:39.000Z</time>
</trkpt>
<trkpt lat="46.0299680" lon="10.3993680">
	<ele>1492.20</ele>
	<time>2024-07-24T08:14:40.000Z</time>
</trkpt>
<trkpt lat="46.0299780" lon="10.3993730">
	<ele>1492.20</ele>
	<time>2024-07-24T08:14:41.000Z</time>
</trkpt>
<trkpt lat="46.0299870" lon="10.3993760">
	<ele>1492.40</ele>
	<time>2024-07-24T08:14:42.000Z</time>
</trkpt>
<trkpt lat="46.0299970" lon="10.3993770">
	<ele>1492.60</ele>
	<time>2024-07-24T08:14:43.000Z</time>
</trkpt>
<trkpt lat="46.0300080" lon="10.3993750">
	<ele>1492.60</ele>
	<time>2024-07-24T08:14:44.000Z</time>
</trkpt>
<trkpt lat="46.0300190" lon="10.3993740">
	<ele>1492.80</ele>
	<time>2024-07-24T08:14:45.000Z</time>
</trkpt>
<trkpt lat="46.0300310" lon="10.3993730">
	<ele>1492.80</ele>
	<time>2024-07-24T08:14:46.000Z</time>
</trkpt>
<trkpt lat="46.0300420" lon="10.3993720">
	<ele>1492.80</ele>
	<time>2024-07-24T08:14:47.000Z</time>
</trkpt>
<trkpt lat="46.0300520" lon="10.3993750">
	<ele>1492.80</ele>
	<time>2024-07-24T08:14:48.000Z</time>
</trkpt>
<trkpt lat="46.0300630" lon="10.3993780">
	<ele>1493.00</ele>
	<time>2024-07-24T08:14:49.000Z</time>
</trkpt>
<trkpt lat="46.0300750" lon="10.3993780">
	<ele>1493.00</ele>
	<time>2024-07-24T08:14:50.000Z</time>
</trkpt>
<trkpt lat="46.0300880" lon="10.3993770">
	<ele>1493.00</ele>
	<time>2024-07-24T08:14:51.000Z</time>
</trkpt>
<trkpt lat="46.0301000" lon="10.3993790">
	<ele>1493.20</ele>
	<time>2024-07-24T08:14:52.000Z</time>
</trkpt>
<trkpt lat="46.0301110" lon="10.3993810">
	<ele>1493.20</ele>
	<time>2024-07-24T08:14:53.000Z</time>
</trkpt>
<trkpt lat="46.0301180" lon="10.3993890">
	<ele>1493.40</ele>
	<time>2024-07-24T08:14:54.000Z</time>
</trkpt>
<trkpt lat="46.0301280" lon="10.3993960">
	<ele>1493.40</ele>
	<time>2024-07-24T08:14:55.000Z</time>
</trkpt>
<trkpt lat="46.0301370" lon="10.3994020">
	<ele>1493.60</ele>
	<time>2024-07-24T08:14:56.000Z</time>
</trkpt>
<trkpt lat="46.0301470" lon="10.3994080">
	<ele>1493.60</ele>
	<time>2024-07-24T08:14:57.000Z</time>
</trkpt>
<trkpt lat="46.0301560" lon="10.3994150">
	<ele>1493.80</ele>
	<time>2024-07-24T08:14:58.000Z</time>
</trkpt>
<trkpt lat="46.0301640" lon="10.3994210">
	<ele>1494.00</ele>
	<time>2024-07-24T08:14:59.000Z</time>
</trkpt>
<trkpt lat="46.0301730" lon="10.3994290">
	<ele>1494.20</ele>
	<time>2024-07-24T08:15:00.000Z</time>
</trkpt>
<trkpt lat="46.0301830" lon="10.3994310">
	<ele>1494.40</ele>
	<time>2024-07-24T08:15:01.000Z</time>
</trkpt>
<trkpt lat="46.0301950" lon="10.3994330">
	<ele>1494.40</ele>
	<time>2024-07-24T08:15:02.000Z</time>
</trkpt>
<trkpt lat="46.0302060" lon="10.3994310">
	<ele>1494.40</ele>
	<time>2024-07-24T08:15:03.000Z</time>
</trkpt>
<trkpt lat="46.0302160" lon="10.3994340">
	<ele>1494.40</ele>
	<time>2024-07-24T08:15:04.000Z</time>
</trkpt>
<trkpt lat="46.0302280" lon="10.3994430">
	<ele>1494.60</ele>
	<time>2024-07-24T08:15:05.000Z</time>
</trkpt>
<trkpt lat="46.0302430" lon="10.3994510">
	<ele>1494.60</ele>
	<time>2024-07-24T08:15:06.000Z</time>
</trkpt>
<trkpt lat="46.0302580" lon="10.3994620">
	<ele>1494.40</ele>
	<time>2024-07-24T08:15:07.000Z</time>
</trkpt>
<trkpt lat="46.0302700" lon="10.3994700">
	<ele>1494.40</ele>
	<time>2024-07-24T08:15:08.000Z</time>
</trkpt>
<trkpt lat="46.0302810" lon="10.3994740">
	<ele>1494.20</ele>
	<time>2024-07-24T08:15:09.000Z</time>
</trkpt>
<trkpt lat="46.0302910" lon="10.3994810">
	<ele>1494.20</ele>
	<time>2024-07-24T08:15:10.000Z</time>
</trkpt>
<trkpt lat="46.0303020" lon="10.3994820">
	<ele>1494.20</ele>
	<time>2024-07-24T08:15:11.000Z</time>
</trkpt>
<trkpt lat="46.0303150" lon="10.3994860">
	<ele>1494.40</ele>
	<time>2024-07-24T08:15:12.000Z</time>
</trkpt>
<trkpt lat="46.0303280" lon="10.3994890">
	<ele>1494.40</ele>
	<time>2024-07-24T08:15:13.000Z</time>
</trkpt>
<trkpt lat="46.0303400" lon="10.3994940">
	<ele>1494.40</ele>
	<time>2024-07-24T08:15:14.000Z</time>
</trkpt>
<trkpt lat="46.0303510" lon="10.3995020">
	<ele>1494.40</ele>
	<time>2024-07-24T08:15:15.000Z</time>
</trkpt>
<trkpt lat="46.0303600" lon="10.3995120">
	<ele>1494.40</ele>
	<time>2024-07-24T08:15:16.000Z</time>
</trkpt>
<trkpt lat="46.0303690" lon="10.3995230">
	<ele>1494.40</ele>
	<time>2024-07-24T08:15:17.000Z</time>
</trkpt>
<trkpt lat="46.0303800" lon="10.3995340">
	<ele>1494.40</ele>
	<time>2024-07-24T08:15:18.000Z</time>
</trkpt>
<trkpt lat="46.0303900" lon="10.3995410">
	<ele>1494.40</ele>
	<time>2024-07-24T08:15:19.000Z</time>
</trkpt>
<trkpt lat="46.0303980" lon="10.3995460">
	<ele>1494.40</ele>
	<time>2024-07-24T08:15:20.000Z</time>
</trkpt>
<trkpt lat="46.0304080" lon="10.3995550">
	<ele>1494.40</ele>
	<time>2024-07-24T08:15:21.000Z</time>
</trkpt>
<trkpt lat="46.0304190" lon="10.3995660">
	<ele>1494.40</ele>
	<time>2024-07-24T08:15:22.000Z</time>
</trkpt>
<trkpt lat="46.0304310" lon="10.3995670">
	<ele>1494.40</ele>
	<time>2024-07-24T08:15:23.000Z</time>
</trkpt>
<trkpt lat="46.0304420" lon="10.3995720">
	<ele>1494.20</ele>
	<time>2024-07-24T08:15:24.000Z</time>
</trkpt>
<trkpt lat="46.0304520" lon="10.3995770">
	<ele>1494.20</ele>
	<time>2024-07-24T08:15:25.000Z</time>
</trkpt>
<trkpt lat="46.0304650" lon="10.3995790">
	<ele>1494.20</ele>
	<time>2024-07-24T08:15:26.000Z</time>
</trkpt>
<trkpt lat="46.0304770" lon="10.3995850">
	<ele>1494.00</ele>
	<time>2024-07-24T08:15:27.000Z</time>
</trkpt>
<trkpt lat="46.0304860" lon="10.3995930">
	<ele>1493.80</ele>
	<time>2024-07-24T08:15:28.000Z</time>
</trkpt>
<trkpt lat="46.0304980" lon="10.3995990">
	<ele>1493.80</ele>
	<time>2024-07-24T08:15:29.000Z</time>
</trkpt>
<trkpt lat="46.0305110" lon="10.3996070">
	<ele>1493.80</ele>
	<time>2024-07-24T08:15:30.000Z</time>
</trkpt>
<trkpt lat="46.0305200" lon="10.3996160">
	<ele>1493.80</ele>
	<time>2024-07-24T08:15:31.000Z</time>
</trkpt>
<trkpt lat="46.0305320" lon="10.3996270">
	<ele>1493.80</ele>
	<time>2024-07-24T08:15:32.000Z</time>
</trkpt>
<trkpt lat="46.0305440" lon="10.3996400">
	<ele>1493.80</ele>
	<time>2024-07-24T08:15:33.000Z</time>
</trkpt>
<trkpt lat="46.0305560" lon="10.3996520">
	<ele>1493.60</ele>
	<time>2024-07-24T08:15:34.000Z</time>
</trkpt>
<trkpt lat="46.0305700" lon="10.3996610">
	<ele>1493.60</ele>
	<time>2024-07-24T08:15:35.000Z</time>
</trkpt>
<trkpt lat="46.0305850" lon="10.3996660">
	<ele>1493.60</ele>
	<time>2024-07-24T08:15:36.000Z</time>
</trkpt>
<trkpt lat="46.0305990" lon="10.3996720">
	<ele>1493.60</ele>
	<time>2024-07-24T08:15:37.000Z</time>
</trkpt>
<trkpt lat="46.0306100" lon="10.3996790">
	<ele>1493.60</ele>
	<time>2024-07-24T08:15:38.000Z</time>
</trkpt>
<trkpt lat="46.0306190" lon="10.3996860">
	<ele>1493.60</ele>
	<time>2024-07-24T08:15:39.000Z</time>
</trkpt>
<trkpt lat="46.0306290" lon="10.3996930">
	<ele>1493.60</ele>
	<time>2024-07-24T08:15:40.000Z</time>
</trkpt>
<trkpt lat="46.0306400" lon="10.3996990">
	<ele>1493.60</ele>
	<time>2024-07-24T08:15:41.000Z</time>
</trkpt>
<trkpt lat="46.0306510" lon="10.3997050">
	<ele>1493.80</ele>
	<time>2024-07-24T08:15:42.000Z</time>
</trkpt>
<trkpt lat="46.0306600" lon="10.3997100">
	<ele>1493.80</ele>
	<time>2024-07-24T08:15:43.000Z</time>
</trkpt>
<trkpt lat="46.0306680" lon="10.3997200">
	<ele>1494.00</ele>
	<time>2024-07-24T08:15:44.000Z</time>
</trkpt>
<trkpt lat="46.0306770" lon="10.3997300">
	<ele>1494.00</ele>
	<time>2024-07-24T08:15:45.000Z</time>
</trkpt>
<trkpt lat="46.0306870" lon="10.3997360">
	<ele>1494.00</ele>
	<time>2024-07-24T08:15:46.000Z</time>
</trkpt>
<trkpt lat="46.0306990" lon="10.3997410">
	<ele>1494.20</ele>
	<time>2024-07-24T08:15:47.000Z</time>
</trkpt>
<trkpt lat="46.0307110" lon="10.3997450">
	<ele>1494.20</ele>
	<time>2024-07-24T08:15:48.000Z</time>
</trkpt>
<trkpt lat="46.0307210" lon="10.3997540">
	<ele>1494.00</ele>
	<time>2024-07-24T08:15:49.000Z</time>
</trkpt>
<trkpt lat="46.0307270" lon="10.3997680">
	<ele>1494.00</ele>
	<time>2024-07-24T08:15:50.000Z</time>
</trkpt>
<trkpt lat="46.0307260" lon="10.3997830">
	<ele>1493.80</ele>
	<time>2024-07-24T08:15:51.000Z</time>
</trkpt>
<trkpt lat="46.0307280" lon="10.3997960">
	<ele>1493.60</ele>
	<time>2024-07-24T08:15:52.000Z</time>
</trkpt>
<trkpt lat="46.0307200" lon="10.3998080">
	<ele>1493.40</ele>
	<time>2024-07-24T08:15:53.000Z</time>
</trkpt>
<trkpt lat="46.0307120" lon="10.3998190">
	<ele>1493.20</ele>
	<time>2024-07-24T08:15:54.000Z</time>
</trkpt>
<trkpt lat="46.0307140" lon="10.3998320">
	<ele>1493.20</ele>
	<time>2024-07-24T08:15:55.000Z</time>
</trkpt>
<trkpt lat="46.0307080" lon="10.3998480">
	<ele>1493.00</ele>
	<time>2024-07-24T08:15:56.000Z</time>
</trkpt>
<trkpt lat="46.0306970" lon="10.3998640">
	<ele>1493.00</ele>
	<time>2024-07-24T08:15:57.000Z</time>
</trkpt>
<trkpt lat="46.0306830" lon="10.3998800">
	<ele>1493.00</ele>
	<time>2024-07-24T08:15:58.000Z</time>
</trkpt>
<trkpt lat="46.0306710" lon="10.3998950">
	<ele>1492.80</ele>
	<time>2024-07-24T08:15:59.000Z</time>
</trkpt>
<trkpt lat="46.0306590" lon="10.3999160">
	<ele>1492.80</ele>
	<time>2024-07-24T08:16:00.000Z</time>
</trkpt>
<trkpt lat="46.0306560" lon="10.3999330">
	<ele>1492.80</ele>
	<time>2024-07-24T08:16:01.000Z</time>
</trkpt>
<trkpt lat="46.0306620" lon="10.3999500">
	<ele>1493.00</ele>
	<time>2024-07-24T08:16:02.000Z</time>
</trkpt>
<trkpt lat="46.0306670" lon="10.3999680">
	<ele>1493.00</ele>
	<time>2024-07-24T08:16:03.000Z</time>
</trkpt>
<trkpt lat="46.0306690" lon="10.3999840">
	<ele>1493.00</ele>
	<time>2024-07-24T08:16:04.000Z</time>
</trkpt>
<trkpt lat="46.0306710" lon="10.3999940">
	<ele>1493.00</ele>
	<time>2024-07-24T08:16:05.000Z</time>
</trkpt>
<trkpt lat="46.0306650" lon="10.4000030">
	<ele>1493.00</ele>
	<time>2024-07-24T08:16:06.000Z</time>
</trkpt>
<trkpt lat="46.0306600" lon="10.4000080">
	<ele>1493.00</ele>
	<time>2024-07-24T08:16:07.000Z</time>
</trkpt>
<trkpt lat="46.0306560" lon="10.4000130">
	<ele>1492.80</ele>
	<time>2024-07-24T08:16:08.000Z</time>
</trkpt>
<trkpt lat="46.0306540" lon="10.4000150">
	<ele>1492.60</ele>
	<time>2024-07-24T08:16:09.000Z</time>
</trkpt>
<trkpt lat="46.0306410" lon="10.4000170">
	<ele>1492.60</ele>
	<time>2024-07-24T08:16:10.000Z</time>
</trkpt>
<trkpt lat="46.0306410" lon="10.4000070">
	<ele>1492.60</ele>
	<time>2024-07-24T08:16:11.000Z</time>
</trkpt>
<trkpt lat="46.0306400" lon="10.4000020">
	<ele>1492.60</ele>
	<time>2024-07-24T08:16:12.000Z</time>
</trkpt>
<trkpt lat="46.0306370" lon="10.4000010">
	<ele>1492.60</ele>
	<time>2024-07-24T08:16:13.000Z</time>
</trkpt>
<trkpt lat="46.0306360" lon="10.4000010">
	<ele>1492.60</ele>
	<time>2024-07-24T08:16:14.000Z</time>
</trkpt>
<trkpt lat="46.0306370" lon="10.4000010">
	<ele>1492.60</ele>
	<time>2024-07-24T08:16:15.000Z</time>
</trkpt>
<trkpt lat="46.0306430" lon="10.4000010">
	<ele>1492.60</ele>
	<time>2024-07-24T08:16:16.000Z</time>
</trkpt>
<trkpt lat="46.0306460" lon="10.4000040">
	<ele>1492.60</ele>
	<time>2024-07-24T08:16:17.000Z</time>
</trkpt>
<trkpt lat="46.0306470" lon="10.4000170">
	<ele>1492.40</ele>
	<time>2024-07-24T08:16:18.000Z</time>
</trkpt>
<trkpt lat="46.0306510" lon="10.4000300">
	<ele>1492.40</ele>
	<time>2024-07-24T08:16:19.000Z</time>
</trkpt>
<trkpt lat="46.0306600" lon="10.4000370">
	<ele>1492.20</ele>
	<time>2024-07-24T08:16:20.000Z</time>
</trkpt>
<trkpt lat="46.0306750" lon="10.4000430">
	<ele>1492.20</ele>
	<time>2024-07-24T08:16:21.000Z</time>
</trkpt>
<trkpt lat="46.0306910" lon="10.4000540">
	<ele>1492.00</ele>
	<time>2024-07-24T08:16:22.000Z</time>
</trkpt>
<trkpt lat="46.0307030" lon="10.4000700">
	<ele>1492.00</ele>
	<time>2024-07-24T08:16:23.000Z</time>
</trkpt>
<trkpt lat="46.0307100" lon="10.4000830">
	<ele>1491.80</ele>
	<time>2024-07-24T08:16:24.000Z</time>
</trkpt>
<trkpt lat="46.0307170" lon="10.4000960">
	<ele>1491.80</ele>
	<time>2024-07-24T08:16:25.000Z</time>
</trkpt>
<trkpt lat="46.0307310" lon="10.4001060">
	<ele>1491.60</ele>
	<time>2024-07-24T08:16:26.000Z</time>
</trkpt>
<trkpt lat="46.0307420" lon="10.4001090">
	<ele>1491.40</ele>
	<time>2024-07-24T08:16:27.000Z</time>
</trkpt>
<trkpt lat="46.0307530" lon="10.4001090">
	<ele>1491.40</ele>
	<time>2024-07-24T08:16:28.000Z</time>
</trkpt>
<trkpt lat="46.0307680" lon="10.4001050">
	<ele>1491.40</ele>
	<time>2024-07-24T08:16:29.000Z</time>
</trkpt>
<trkpt lat="46.0307820" lon="10.4000960">
	<ele>1491.40</ele>
	<time>2024-07-24T08:16:30.000Z</time>
</trkpt>
<trkpt lat="46.0307980" lon="10.4000860">
	<ele>1491.20</ele>
	<time>2024-07-24T08:16:31.000Z</time>
</trkpt>
<trkpt lat="46.0308140" lon="10.4000800">
	<ele>1491.20</ele>
	<time>2024-07-24T08:16:32.000Z</time>
</trkpt>
<trkpt lat="46.0308300" lon="10.4000730">
	<ele>1491.20</ele>
	<time>2024-07-24T08:16:33.000Z</time>
</trkpt>
<trkpt lat="46.0308420" lon="10.4000540">
	<ele>1491.00</ele>
	<time>2024-07-24T08:16:34.000Z</time>
</trkpt>
<trkpt lat="46.0308420" lon="10.4000400">
	<ele>1490.80</ele>
	<time>2024-07-24T08:16:35.000Z</time>
</trkpt>
<trkpt lat="46.0308480" lon="10.4000240">
	<ele>1490.80</ele>
	<time>2024-07-24T08:16:36.000Z</time>
</trkpt>
<trkpt lat="46.0308500" lon="10.4000070">
	<ele>1490.80</ele>
	<time>2024-07-24T08:16:37.000Z</time>
</trkpt>
<trkpt lat="46.0308530" lon="10.4000010">
	<ele>1490.60</ele>
	<time>2024-07-24T08:16:38.000Z</time>
</trkpt>
<trkpt lat="46.0308610" lon="10.3999980">
	<ele>1490.60</ele>
	<time>2024-07-24T08:16:39.000Z</time>
</trkpt>
<trkpt lat="46.0308660" lon="10.3999940">
	<ele>1490.60</ele>
	<time>2024-07-24T08:16:40.000Z</time>
</trkpt>
<trkpt lat="46.0308710" lon="10.3999880">
	<ele>1490.60</ele>
	<time>2024-07-24T08:16:41.000Z</time>
</trkpt>
<trkpt lat="46.0308830" lon="10.3999840">
	<ele>1490.40</ele>
	<time>2024-07-24T08:16:42.000Z</time>
</trkpt>
<trkpt lat="46.0308920" lon="10.3999730">
	<ele>1490.40</ele>
	<time>2024-07-24T08:16:43.000Z</time>
</trkpt>
<trkpt lat="46.0309060" lon="10.3999590">
	<ele>1490.40</ele>
	<time>2024-07-24T08:16:44.000Z</time>
</trkpt>
<trkpt lat="46.0309160" lon="10.3999420">
	<ele>1490.40</ele>
	<time>2024-07-24T08:16:45.000Z</time>
</trkpt>
<trkpt lat="46.0309260" lon="10.3999270">
	<ele>1490.40</ele>
	<time>2024-07-24T08:16:46.000Z</time>
</trkpt>
<trkpt lat="46.0309320" lon="10.3999160">
	<ele>1490.40</ele>
	<time>2024-07-24T08:16:47.000Z</time>
</trkpt>
<trkpt lat="46.0309370" lon="10.3999060">
	<ele>1490.40</ele>
	<time>2024-07-24T08:16:48.000Z</time>
</trkpt>
<trkpt lat="46.0309410" lon="10.3998920">
	<ele>1490.20</ele>
	<time>2024-07-24T08:16:49.000Z</time>
</trkpt>
<trkpt lat="46.0309460" lon="10.3998810">
	<ele>1490.20</ele>
	<time>2024-07-24T08:16:50.000Z</time>
</trkpt>
<trkpt lat="46.0309560" lon="10.3998650">
	<ele>1490.20</ele>
	<time>2024-07-24T08:16:51.000Z</time>
</trkpt>
<trkpt lat="46.0309640" lon="10.3998450">
	<ele>1490.00</ele>
	<time>2024-07-24T08:16:52.000Z</time>
</trkpt>
<trkpt lat="46.0309740" lon="10.3998270">
	<ele>1490.00</ele>
	<time>2024-07-24T08:16:53.000Z</time>
</trkpt>
<trkpt lat="46.0309850" lon="10.3998100">
	<ele>1489.80</ele>
	<time>2024-07-24T08:16:54.000Z</time>
</trkpt>
<trkpt lat="46.0309950" lon="10.3997960">
	<ele>1489.80</ele>
	<time>2024-07-24T08:16:55.000Z</time>
</trkpt>
<trkpt lat="46.0310130" lon="10.3997850">
	<ele>1489.80</ele>
	<time>2024-07-24T08:16:56.000Z</time>
</trkpt>
<trkpt lat="46.0310320" lon="10.3997740">
	<ele>1489.80</ele>
	<time>2024-07-24T08:16:57.000Z</time>
</trkpt>
<trkpt lat="46.0310500" lon="10.3997650">
	<ele>1489.80</ele>
	<time>2024-07-24T08:16:58.000Z</time>
</trkpt>
<trkpt lat="46.0310620" lon="10.3997490">
	<ele>1489.60</ele>
	<time>2024-07-24T08:16:59.000Z</time>
</trkpt>
<trkpt lat="46.0310660" lon="10.3997330">
	<ele>1489.60</ele>
	<time>2024-07-24T08:17:00.000Z</time>
</trkpt>
<trkpt lat="46.0310710" lon="10.3997200">
	<ele>1489.60</ele>
	<time>2024-07-24T08:17:01.000Z</time>
</trkpt>
<trkpt lat="46.0310730" lon="10.3997050">
	<ele>1489.60</ele>
	<time>2024-07-24T08:17:02.000Z</time>
</trkpt>
<trkpt lat="46.0310780" lon="10.3996870">
	<ele>1489.60</ele>
	<time>2024-07-24T08:17:03.000Z</time>
</trkpt>
<trkpt lat="46.0310840" lon="10.3996670">
	<ele>1489.60</ele>
	<time>2024-07-24T08:17:04.000Z</time>
</trkpt>
<trkpt lat="46.0310910" lon="10.3996470">
	<ele>1489.60</ele>
	<time>2024-07-24T08:17:05.000Z</time>
</trkpt>
<trkpt lat="46.0311010" lon="10.3996270">
	<ele>1489.60</ele>
	<time>2024-07-24T08:17:06.000Z</time>
</trkpt>
<trkpt lat="46.0311050" lon="10.3996070">
	<ele>1489.60</ele>
	<time>2024-07-24T08:17:07.000Z</time>
</trkpt>
<trkpt lat="46.0311070" lon="10.3995910">
	<ele>1489.40</ele>
	<time>2024-07-24T08:17:08.000Z</time>
</trkpt>
<trkpt lat="46.0311070" lon="10.3995780">
	<ele>1489.40</ele>
	<time>2024-07-24T08:17:09.000Z</time>
</trkpt>
<trkpt lat="46.0311130" lon="10.3995620">
	<ele>1489.40</ele>
	<time>2024-07-24T08:17:10.000Z</time>
</trkpt>
<trkpt lat="46.0311210" lon="10.3995440">
	<ele>1489.40</ele>
	<time>2024-07-24T08:17:11.000Z</time>
</trkpt>
<trkpt lat="46.0311270" lon="10.3995300">
	<ele>1489.40</ele>
	<time>2024-07-24T08:17:12.000Z</time>
</trkpt>
<trkpt lat="46.0311330" lon="10.3995130">
	<ele>1489.40</ele>
	<time>2024-07-24T08:17:13.000Z</time>
</trkpt>
<trkpt lat="46.0311410" lon="10.3994980">
	<ele>1489.40</ele>
	<time>2024-07-24T08:17:14.000Z</time>
</trkpt>
<trkpt lat="46.0311550" lon="10.3994850">
	<ele>1489.40</ele>
	<time>2024-07-24T08:17:15.000Z</time>
</trkpt>
<trkpt lat="46.0311670" lon="10.3994640">
	<ele>1489.40</ele>
	<time>2024-07-24T08:17:16.000Z</time>
</trkpt>
<trkpt lat="46.0311780" lon="10.3994470">
	<ele>1489.40</ele>
	<time>2024-07-24T08:17:17.000Z</time>
</trkpt>
<trkpt lat="46.0311780" lon="10.3994340">
	<ele>1489.40</ele>
	<time>2024-07-24T08:17:18.000Z</time>
</trkpt>
<trkpt lat="46.0311840" lon="10.3994200">
	<ele>1489.40</ele>
	<time>2024-07-24T08:17:19.000Z</time>
</trkpt>
<trkpt lat="46.0311940" lon="10.3994070">
	<ele>1489.40</ele>
	<time>2024-07-24T08:17:20.000Z</time>
</trkpt>
<trkpt lat="46.0312040" lon="10.3993890">
	<ele>1489.40</ele>
	<time>2024-07-24T08:17:21.000Z</time>
</trkpt>
<trkpt lat="46.0312110" lon="10.3993780">
	<ele>1489.40</ele>
	<time>2024-07-24T08:17:22.000Z</time>
</trkpt>
<trkpt lat="46.0312220" lon="10.3993660">
	<ele>1489.40</ele>
	<time>2024-07-24T08:17:23.000Z</time>
</trkpt>
<trkpt lat="46.0312350" lon="10.3993520">
	<ele>1489.40</ele>
	<time>2024-07-24T08:17:24.000Z</time>
</trkpt>
<trkpt lat="46.0312460" lon="10.3993410">
	<ele>1489.40</ele>
	<time>2024-07-24T08:17:25.000Z</time>
</trkpt>
<trkpt lat="46.0312570" lon="10.3993340">
	<ele>1489.40</ele>
	<time>2024-07-24T08:17:26.000Z</time>
</trkpt>
<trkpt lat="46.0312660" lon="10.3993270">
	<ele>1489.40</ele>
	<time>2024-07-24T08:17:27.000Z</time>
</trkpt>
<trkpt lat="46.0312720" lon="10.3993200">
	<ele>1489.40</ele>
	<time>2024-07-24T08:17:28.000Z</time>
</trkpt>
<trkpt lat="46.0312800" lon="10.3993120">
	<ele>1489.40</ele>
	<time>2024-07-24T08:17:29.000Z</time>
</trkpt>
<trkpt lat="46.0312870" lon="10.3993060">
	<ele>1489.40</ele>
	<time>2024-07-24T08:17:30.000Z</time>
</trkpt>
<trkpt lat="46.0312970" lon="10.3992990">
	<ele>1489.40</ele>
	<time>2024-07-24T08:17:31.000Z</time>
</trkpt>
<trkpt lat="46.0313070" lon="10.3992960">
	<ele>1489.40</ele>
	<time>2024-07-24T08:17:32.000Z</time>
</trkpt>
<trkpt lat="46.0313160" lon="10.3992920">
	<ele>1489.40</ele>
	<time>2024-07-24T08:17:33.000Z</time>
</trkpt>
<trkpt lat="46.0313260" lon="10.3992870">
	<ele>1489.40</ele>
	<time>2024-07-24T08:17:34.000Z</time>
</trkpt>
<trkpt lat="46.0313340" lon="10.3992800">
	<ele>1489.20</ele>
	<time>2024-07-24T08:17:35.000Z</time>
</trkpt>
<trkpt lat="46.0313420" lon="10.3992720">
	<ele>1489.20</ele>
	<time>2024-07-24T08:17:36.000Z</time>
</trkpt>
<trkpt lat="46.0313480" lon="10.3992670">
	<ele>1489.20</ele>
	<time>2024-07-24T08:17:37.000Z</time>
</trkpt>
<trkpt lat="46.0313520" lon="10.3992620">
	<ele>1489.00</ele>
	<time>2024-07-24T08:17:38.000Z</time>
</trkpt>
<trkpt lat="46.0313580" lon="10.3992600">
	<ele>1489.00</ele>
	<time>2024-07-24T08:17:39.000Z</time>
</trkpt>
<trkpt lat="46.0313680" lon="10.3992620">
	<ele>1489.00</ele>
	<time>2024-07-24T08:17:40.000Z</time>
</trkpt>
<trkpt lat="46.0313770" lon="10.3992650">
	<ele>1488.80</ele>
	<time>2024-07-24T08:17:41.000Z</time>
</trkpt>
<trkpt lat="46.0313840" lon="10.3992700">
	<ele>1488.80</ele>
	<time>2024-07-24T08:17:42.000Z</time>
</trkpt>
<trkpt lat="46.0313880" lon="10.3992720">
	<ele>1488.60</ele>
	<time>2024-07-24T08:17:43.000Z</time>
</trkpt>
<trkpt lat="46.0313920" lon="10.3992730">
	<ele>1488.60</ele>
	<time>2024-07-24T08:17:44.000Z</time>
</trkpt>
<trkpt lat="46.0313940" lon="10.3992740">
	<ele>1488.60</ele>
	<time>2024-07-24T08:17:45.000Z</time>
</trkpt>
<trkpt lat="46.0313950" lon="10.3992730">
	<ele>1488.60</ele>
	<time>2024-07-24T08:17:46.000Z</time>
</trkpt>
<trkpt lat="46.0313960" lon="10.3992720">
	<ele>1488.60</ele>
	<time>2024-07-24T08:17:47.000Z</time>
</trkpt>
<trkpt lat="46.0313970" lon="10.3992710">
	<ele>1488.60</ele>
	<time>2024-07-24T08:17:48.000Z</time>
</trkpt>
<trkpt lat="46.0313970" lon="10.3992690">
	<ele>1488.60</ele>
	<time>2024-07-24T08:17:49.000Z</time>
</trkpt>
<trkpt lat="46.0313980" lon="10.3992690">
	<ele>1488.80</ele>
	<time>2024-07-24T08:17:50.000Z</time>
</trkpt>
<trkpt lat="46.0313980" lon="10.3992690">
	<ele>1488.80</ele>
	<time>2024-07-24T08:17:51.000Z</time>
</trkpt>
<trkpt lat="46.0314000" lon="10.3992680">
	<ele>1488.80</ele>
	<time>2024-07-24T08:17:52.000Z</time>
</trkpt>
<trkpt lat="46.0314000" lon="10.3992680">
	<ele>1488.80</ele>
	<time>2024-07-24T08:17:53.000Z</time>
</trkpt>
<trkpt lat="46.0314010" lon="10.3992680">
	<ele>1488.80</ele>
	<time>2024-07-24T08:17:54.000Z</time>
</trkpt>
<trkpt lat="46.0314000" lon="10.3992610">
	<ele>1488.80</ele>
	<time>2024-07-24T08:17:55.000Z</time>
</trkpt>
<trkpt lat="46.0314050" lon="10.3992540">
	<ele>1488.40</ele>
	<time>2024-07-24T08:17:56.000Z</time>
</trkpt>
<trkpt lat="46.0314120" lon="10.3992530">
	<ele>1488.20</ele>
	<time>2024-07-24T08:17:57.000Z</time>
</trkpt>
<trkpt lat="46.0314180" lon="10.3992550">
	<ele>1488.20</ele>
	<time>2024-07-24T08:17:58.000Z</time>
</trkpt>
<trkpt lat="46.0314200" lon="10.3992570">
	<ele>1488.00</ele>
	<time>2024-07-24T08:17:59.000Z</time>
</trkpt>
<trkpt lat="46.0314210" lon="10.3992590">
	<ele>1488.00</ele>
	<time>2024-07-24T08:18:00.000Z</time>
</trkpt>
<trkpt lat="46.0314210" lon="10.3992600">
	<ele>1488.00</ele>
	<time>2024-07-24T08:18:01.000Z</time>
</trkpt>
<trkpt lat="46.0314210" lon="10.3992600">
	<ele>1488.00</ele>
	<time>2024-07-24T08:18:02.000Z</time>
</trkpt>
<trkpt lat="46.0314210" lon="10.3992600">
	<ele>1488.00</ele>
	<time>2024-07-24T08:18:03.000Z</time>
</trkpt>
<trkpt lat="46.0314210" lon="10.3992600">
	<ele>1488.20</ele>
	<time>2024-07-24T08:18:04.000Z</time>
</trkpt>
<trkpt lat="46.0314210" lon="10.3992600">
	<ele>1488.20</ele>
	<time>2024-07-24T08:18:05.000Z</time>
</trkpt>
<trkpt lat="46.0314210" lon="10.3992600">
	<ele>1488.20</ele>
	<time>2024-07-24T08:18:06.000Z</time>
</trkpt>
<trkpt lat="46.0314210" lon="10.3992600">
	<ele>1488.40</ele>
	<time>2024-07-24T08:18:07.000Z</time>
</trkpt>
<trkpt lat="46.0314210" lon="10.3992600">
	<ele>1488.40</ele>
	<time>2024-07-24T08:18:08.000Z</time>
</trkpt>
<trkpt lat="46.0314210" lon="10.3992600">
	<ele>1488.40</ele>
	<time>2024-07-24T08:18:09.000Z</time>
</trkpt>
<trkpt lat="46.0314210" lon="10.3992600">
	<ele>1488.40</ele>
	<time>2024-07-24T08:18:10.000Z</time>
</trkpt>
<trkpt lat="46.0314210" lon="10.3992600">
	<ele>1488.40</ele>
	<time>2024-07-24T08:18:11.000Z</time>
</trkpt>
<trkpt lat="46.0314210" lon="10.3992600">
	<ele>1488.40</ele>
	<time>2024-07-24T08:18:12.000Z</time>
</trkpt>
<trkpt lat="46.0314210" lon="10.3992590">
	<ele>1488.40</ele>
	<time>2024-07-24T08:18:13.000Z</time>
</trkpt>
<trkpt lat="46.0314210" lon="10.3992590">
	<ele>1488.20</ele>
	<time>2024-07-24T08:18:14.000Z</time>
</trkpt>
<trkpt lat="46.0314210" lon="10.3992580">
	<ele>1488.20</ele>
	<time>2024-07-24T08:18:15.000Z</time>
</trkpt>
<trkpt lat="46.0314210" lon="10.3992570">
	<ele>1488.00</ele>
	<time>2024-07-24T08:18:16.000Z</time>
</trkpt>
<trkpt lat="46.0314260" lon="10.3992540">
	<ele>1488.00</ele>
	<time>2024-07-24T08:18:17.000Z</time>
</trkpt>
<trkpt lat="46.0314410" lon="10.3992430">
	<ele>1488.00</ele>
	<time>2024-07-24T08:18:18.000Z</time>
</trkpt>
<trkpt lat="46.0314550" lon="10.3992300">
	<ele>1488.00</ele>
	<time>2024-07-24T08:18:19.000Z</time>
</trkpt>
<trkpt lat="46.0314700" lon="10.3992180">
	<ele>1488.00</ele>
	<time>2024-07-24T08:18:20.000Z</time>
</trkpt>
<trkpt lat="46.0314830" lon="10.3992060">
	<ele>1487.80</ele>
	<time>2024-07-24T08:18:21.000Z</time>
</trkpt>
<trkpt lat="46.0314960" lon="10.3991890">
	<ele>1487.80</ele>
	<time>2024-07-24T08:18:22.000Z</time>
</trkpt>
<trkpt lat="46.0315110" lon="10.3991710">
	<ele>1487.60</ele>
	<time>2024-07-24T08:18:23.000Z</time>
</trkpt>
<trkpt lat="46.0315320" lon="10.3991590">
	<ele>1487.60</ele>
	<time>2024-07-24T08:18:24.000Z</time>
</trkpt>
<trkpt lat="46.0315510" lon="10.3991490">
	<ele>1487.40</ele>
	<time>2024-07-24T08:18:25.000Z</time>
</trkpt>
<trkpt lat="46.0315690" lon="10.3991280">
	<ele>1487.40</ele>
	<time>2024-07-24T08:18:26.000Z</time>
</trkpt>
<trkpt lat="46.0315790" lon="10.3991130">
	<ele>1487.40</ele>
	<time>2024-07-24T08:18:27.000Z</time>
</trkpt>
<trkpt lat="46.0315850" lon="10.3990990">
	<ele>1487.40</ele>
	<time>2024-07-24T08:18:28.000Z</time>
</trkpt>
<trkpt lat="46.0315900" lon="10.3990870">
	<ele>1487.20</ele>
	<time>2024-07-24T08:18:29.000Z</time>
</trkpt>
<trkpt lat="46.0315980" lon="10.3990750">
	<ele>1487.20</ele>
	<time>2024-07-24T08:18:30.000Z</time>
</trkpt>
<trkpt lat="46.0316070" lon="10.3990640">
	<ele>1487.20</ele>
	<time>2024-07-24T08:18:31.000Z</time>
</trkpt>
<trkpt lat="46.0316140" lon="10.3990510">
	<ele>1487.20</ele>
	<time>2024-07-24T08:18:32.000Z</time>
</trkpt>
<trkpt lat="46.0316200" lon="10.3990370">
	<ele>1487.00</ele>
	<time>2024-07-24T08:18:33.000Z</time>
</trkpt>
<trkpt lat="46.0316290" lon="10.3990270">
	<ele>1487.00</ele>
	<time>2024-07-24T08:18:34.000Z</time>
</trkpt>
<trkpt lat="46.0316370" lon="10.3990200">
	<ele>1487.00</ele>
	<time>2024-07-24T08:18:35.000Z</time>
</trkpt>
<trkpt lat="46.0316450" lon="10.3990100">
	<ele>1487.00</ele>
	<time>2024-07-24T08:18:36.000Z</time>
</trkpt>
<trkpt lat="46.0316520" lon="10.3989970">
	<ele>1486.80</ele>
	<time>2024-07-24T08:18:37.000Z</time>
</trkpt>
<trkpt lat="46.0316540" lon="10.3989840">
	<ele>1486.80</ele>
	<time>2024-07-24T08:18:38.000Z</time>
</trkpt>
<trkpt lat="46.0316570" lon="10.3989710">
	<ele>1486.80</ele>
	<time>2024-07-24T08:18:39.000Z</time>
</trkpt>
<trkpt lat="46.0316630" lon="10.3989580">
	<ele>1486.80</ele>
	<time>2024-07-24T08:18:40.000Z</time>
</trkpt>
<trkpt lat="46.0316730" lon="10.3989420">
	<ele>1486.80</ele>
	<time>2024-07-24T08:18:41.000Z</time>
</trkpt>
<trkpt lat="46.0316810" lon="10.3989250">
	<ele>1486.60</ele>
	<time>2024-07-24T08:18:42.000Z</time>
</trkpt>
<trkpt lat="46.0316860" lon="10.3989090">
	<ele>1486.60</ele>
	<time>2024-07-24T08:18:43.000Z</time>
</trkpt>
<trkpt lat="46.0316940" lon="10.3988900">
	<ele>1486.80</ele>
	<time>2024-07-24T08:18:44.000Z</time>
</trkpt>
<trkpt lat="46.0317020" lon="10.3988730">
	<ele>1486.60</ele>
	<time>2024-07-24T08:18:45.000Z</time>
</trkpt>
<trkpt lat="46.0317080" lon="10.3988590">
	<ele>1486.60</ele>
	<time>2024-07-24T08:18:46.000Z</time>
</trkpt>
<trkpt lat="46.0317080" lon="10.3988440">
	<ele>1486.60</ele>
	<time>2024-07-24T08:18:47.000Z</time>
</trkpt>
<trkpt lat="46.0317120" lon="10.3988270">
	<ele>1486.80</ele>
	<time>2024-07-24T08:18:48.000Z</time>
</trkpt>
<trkpt lat="46.0317170" lon="10.3988090">
	<ele>1486.80</ele>
	<time>2024-07-24T08:18:49.000Z</time>
</trkpt>
<trkpt lat="46.0317260" lon="10.3987910">
	<ele>1486.80</ele>
	<time>2024-07-24T08:18:50.000Z</time>
</trkpt>
<trkpt lat="46.0317360" lon="10.3987730">
	<ele>1487.00</ele>
	<time>2024-07-24T08:18:51.000Z</time>
</trkpt>
<trkpt lat="46.0317370" lon="10.3987560">
	<ele>1487.00</ele>
	<time>2024-07-24T08:18:52.000Z</time>
</trkpt>
<trkpt lat="46.0317430" lon="10.3987370">
	<ele>1487.00</ele>
	<time>2024-07-24T08:18:53.000Z</time>
</trkpt>
<trkpt lat="46.0317460" lon="10.3987210">
	<ele>1487.00</ele>
	<time>2024-07-24T08:18:54.000Z</time>
</trkpt>
<trkpt lat="46.0317440" lon="10.3987130">
	<ele>1486.80</ele>
	<time>2024-07-24T08:18:55.000Z</time>
</trkpt>
<trkpt lat="46.0317430" lon="10.3987100">
	<ele>1486.80</ele>
	<time>2024-07-24T08:18:56.000Z</time>
</trkpt>
<trkpt lat="46.0317370" lon="10.3987130">
	<ele>1486.80</ele>
	<time>2024-07-24T08:18:57.000Z</time>
</trkpt>
<trkpt lat="46.0317320" lon="10.3987190">
	<ele>1486.80</ele>
	<time>2024-07-24T08:18:58.000Z</time>
</trkpt>
<trkpt lat="46.0317300" lon="10.3987340">
	<ele>1486.80</ele>
	<time>2024-07-24T08:18:59.000Z</time>
</trkpt>
<trkpt lat="46.0317380" lon="10.3987420">
	<ele>1486.80</ele>
	<time>2024-07-24T08:19:00.000Z</time>
</trkpt>
<trkpt lat="46.0317370" lon="10.3987470">
	<ele>1486.80</ele>
	<time>2024-07-24T08:19:01.000Z</time>
</trkpt>
<trkpt lat="46.0317360" lon="10.3987480">
	<ele>1486.80</ele>
	<time>2024-07-24T08:19:02.000Z</time>
</trkpt>
<trkpt lat="46.0317350" lon="10.3987480">
	<ele>1486.80</ele>
	<time>2024-07-24T08:19:03.000Z</time>
</trkpt>
<trkpt lat="46.0317340" lon="10.3987470">
	<ele>1486.80</ele>
	<time>2024-07-24T08:19:04.000Z</time>
</trkpt>
<trkpt lat="46.0317360" lon="10.3987450">
	<ele>1486.80</ele>
	<time>2024-07-24T08:19:05.000Z</time>
</trkpt>
<trkpt lat="46.0317360" lon="10.3987450">
	<ele>1486.80</ele>
	<time>2024-07-24T08:19:06.000Z</time>
</trkpt>
<trkpt lat="46.0317360" lon="10.3987450">
	<ele>1487.00</ele>
	<time>2024-07-24T08:19:07.000Z</time>
</trkpt>
<trkpt lat="46.0317360" lon="10.3987450">
	<ele>1487.00</ele>
	<time>2024-07-24T08:19:08.000Z</time>
</trkpt>
<trkpt lat="46.0317360" lon="10.3987450">
	<ele>1486.80</ele>
	<time>2024-07-24T08:19:09.000Z</time>
</trkpt>
<trkpt lat="46.0317360" lon="10.3987450">
	<ele>1486.80</ele>
	<time>2024-07-24T08:19:10.000Z</time>
</trkpt>
<trkpt lat="46.0317360" lon="10.3987450">
	<ele>1486.80</ele>
	<time>2024-07-24T08:19:11.000Z</time>
</trkpt>
<trkpt lat="46.0317380" lon="10.3987400">
	<ele>1486.80</ele>
	<time>2024-07-24T08:19:12.000Z</time>
</trkpt>
<trkpt lat="46.0317350" lon="10.3987180">
	<ele>1486.80</ele>
	<time>2024-07-24T08:19:13.000Z</time>
</trkpt>
<trkpt lat="46.0317390" lon="10.3986950">
	<ele>1486.80</ele>
	<time>2024-07-24T08:19:14.000Z</time>
</trkpt>
<trkpt lat="46.0317360" lon="10.3986760">
	<ele>1486.80</ele>
	<time>2024-07-24T08:19:15.000Z</time>
</trkpt>
<trkpt lat="46.0317320" lon="10.3986600">
	<ele>1487.00</ele>
	<time>2024-07-24T08:19:16.000Z</time>
</trkpt>
<trkpt lat="46.0317270" lon="10.3986480">
	<ele>1487.00</ele>
	<time>2024-07-24T08:19:17.000Z</time>
</trkpt>
<trkpt lat="46.0317210" lon="10.3986380">
	<ele>1487.00</ele>
	<time>2024-07-24T08:19:18.000Z</time>
</trkpt>
<trkpt lat="46.0317200" lon="10.3986220">
	<ele>1487.00</ele>
	<time>2024-07-24T08:19:19.000Z</time>
</trkpt>
<trkpt lat="46.0317220" lon="10.3986020">
	<ele>1487.00</ele>
	<time>2024-07-24T08:19:20.000Z</time>
</trkpt>
<trkpt lat="46.0317250" lon="10.3985890">
	<ele>1487.20</ele>
	<time>2024-07-24T08:19:21.000Z</time>
</trkpt>
<trkpt lat="46.0317240" lon="10.3985730">
	<ele>1487.20</ele>
	<time>2024-07-24T08:19:22.000Z</time>
</trkpt>
<trkpt lat="46.0317230" lon="10.3985580">
	<ele>1487.20</ele>
	<time>2024-07-24T08:19:23.000Z</time>
</trkpt>
<trkpt lat="46.0317240" lon="10.3985450">
	<ele>1487.20</ele>
	<time>2024-07-24T08:19:24.000Z</time>
</trkpt>
<trkpt lat="46.0317250" lon="10.3985350">
	<ele>1487.20</ele>
	<time>2024-07-24T08:19:25.000Z</time>
</trkpt>
<trkpt lat="46.0317260" lon="10.3985240">
	<ele>1487.20</ele>
	<time>2024-07-24T08:19:26.000Z</time>
</trkpt>
<trkpt lat="46.0317290" lon="10.3985070">
	<ele>1487.20</ele>
	<time>2024-07-24T08:19:27.000Z</time>
</trkpt>
<trkpt lat="46.0317350" lon="10.3984920">
	<ele>1487.20</ele>
	<time>2024-07-24T08:19:28.000Z</time>
</trkpt>
<trkpt lat="46.0317400" lon="10.3984740">
	<ele>1487.20</ele>
	<time>2024-07-24T08:19:29.000Z</time>
</trkpt>
<trkpt lat="46.0317400" lon="10.3984590">
	<ele>1487.00</ele>
	<time>2024-07-24T08:19:30.000Z</time>
</trkpt>
<trkpt lat="46.0317390" lon="10.3984520">
	<ele>1487.00</ele>
	<time>2024-07-24T08:19:31.000Z</time>
</trkpt>
<trkpt lat="46.0317360" lon="10.3984420">
	<ele>1487.00</ele>
	<time>2024-07-24T08:19:32.000Z</time>
</trkpt>
<trkpt lat="46.0317430" lon="10.3984320">
	<ele>1487.00</ele>
	<time>2024-07-24T08:19:33.000Z</time>
</trkpt>
<trkpt lat="46.0317510" lon="10.3984280">
	<ele>1487.00</ele>
	<time>2024-07-24T08:19:34.000Z</time>
</trkpt>
<trkpt lat="46.0317630" lon="10.3984280">
	<ele>1487.00</ele>
	<time>2024-07-24T08:19:35.000Z</time>
</trkpt>
<trkpt lat="46.0317750" lon="10.3984280">
	<ele>1486.60</ele>
	<time>2024-07-24T08:19:36.000Z</time>
</trkpt>
<trkpt lat="46.0317830" lon="10.3984260">
	<ele>1486.60</ele>
	<time>2024-07-24T08:19:37.000Z</time>
</trkpt>
<trkpt lat="46.0317970" lon="10.3984180">
	<ele>1486.40</ele>
	<time>2024-07-24T08:19:38.000Z</time>
</trkpt>
<trkpt lat="46.0318090" lon="10.3984090">
	<ele>1486.40</ele>
	<time>2024-07-24T08:19:39.000Z</time>
</trkpt>
<trkpt lat="46.0318190" lon="10.3984080">
	<ele>1486.40</ele>
	<time>2024-07-24T08:19:40.000Z</time>
</trkpt>
<trkpt lat="46.0318330" lon="10.3984070">
	<ele>1486.40</ele>
	<time>2024-07-24T08:19:41.000Z</time>
</trkpt>
<trkpt lat="46.0318420" lon="10.3984060">
	<ele>1486.40</ele>
	<time>2024-07-24T08:19:42.000Z</time>
</trkpt>
<trkpt lat="46.0318490" lon="10.3984050">
	<ele>1486.40</ele>
	<time>2024-07-24T08:19:43.000Z</time>
</trkpt>
<trkpt lat="46.0318610" lon="10.3984020">
	<ele>1486.40</ele>
	<time>2024-07-24T08:19:44.000Z</time>
</trkpt>
<trkpt lat="46.0318740" lon="10.3984000">
	<ele>1486.20</ele>
	<time>2024-07-24T08:19:45.000Z</time>
</trkpt>
<trkpt lat="46.0318890" lon="10.3983950">
	<ele>1486.20</ele>
	<time>2024-07-24T08:19:46.000Z</time>
</trkpt>
<trkpt lat="46.0319090" lon="10.3983820">
	<ele>1486.20</ele>
	<time>2024-07-24T08:19:47.000Z</time>
</trkpt>
<trkpt lat="46.0319160" lon="10.3983810">
	<ele>1486.20</ele>
	<time>2024-07-24T08:19:48.000Z</time>
</trkpt>
<trkpt lat="46.0319190" lon="10.3983760">
	<ele>1486.20</ele>
	<time>2024-07-24T08:19:49.000Z</time>
</trkpt>
<trkpt lat="46.0319310" lon="10.3983680">
	<ele>1486.20</ele>
	<time>2024-07-24T08:19:50.000Z</time>
</trkpt>
<trkpt lat="46.0319470" lon="10.3983640">
	<ele>1486.00</ele>
	<time>2024-07-24T08:19:51.000Z</time>
</trkpt>
<trkpt lat="46.0319580" lon="10.3983620">
	<ele>1486.00</ele>
	<time>2024-07-24T08:19:52.000Z</time>
</trkpt>
<trkpt lat="46.0319670" lon="10.3983580">
	<ele>1486.00</ele>
	<time>2024-07-24T08:19:53.000Z</time>
</trkpt>
<trkpt lat="46.0319790" lon="10.3983510">
	<ele>1486.00</ele>
	<time>2024-07-24T08:19:54.000Z</time>
</trkpt>
<trkpt lat="46.0319950" lon="10.3983370">
	<ele>1486.20</ele>
	<time>2024-07-24T08:19:55.000Z</time>
</trkpt>
<trkpt lat="46.0320140" lon="10.3983290">
	<ele>1486.20</ele>
	<time>2024-07-24T08:19:56.000Z</time>
</trkpt>
<trkpt lat="46.0320410" lon="10.3983140">
	<ele>1486.20</ele>
	<time>2024-07-24T08:19:57.000Z</time>
</trkpt>
<trkpt lat="46.0320640" lon="10.3983060">
	<ele>1486.20</ele>
	<time>2024-07-24T08:19:58.000Z</time>
</trkpt>
<trkpt lat="46.0320730" lon="10.3983020">
	<ele>1486.20</ele>
	<time>2024-07-24T08:19:59.000Z</time>
</trkpt>
<trkpt lat="46.0320800" lon="10.3982920">
	<ele>1486.20</ele>
	<time>2024-07-24T08:20:00.000Z</time>
</trkpt>
<trkpt lat="46.0320930" lon="10.3982810">
	<ele>1486.00</ele>
	<time>2024-07-24T08:20:01.000Z</time>
</trkpt>
<trkpt lat="46.0320950" lon="10.3982760">
	<ele>1486.00</ele>
	<time>2024-07-24T08:20:02.000Z</time>
</trkpt>
<trkpt lat="46.0320950" lon="10.3982740">
	<ele>1486.00</ele>
	<time>2024-07-24T08:20:03.000Z</time>
</trkpt>
<trkpt lat="46.0320970" lon="10.3982740">
	<ele>1486.00</ele>
	<time>2024-07-24T08:20:04.000Z</time>
</trkpt>
<trkpt lat="46.0321110" lon="10.3982750">
	<ele>1486.00</ele>
	<time>2024-07-24T08:20:05.000Z</time>
</trkpt>
<trkpt lat="46.0321120" lon="10.3982760">
	<ele>1486.00</ele>
	<time>2024-07-24T08:20:06.000Z</time>
</trkpt>
<trkpt lat="46.0321120" lon="10.3982760">
	<ele>1486.20</ele>
	<time>2024-07-24T08:20:07.000Z</time>
</trkpt>
<trkpt lat="46.0321130" lon="10.3982730">
	<ele>1486.20</ele>
	<time>2024-07-24T08:20:08.000Z</time>
</trkpt>
<trkpt lat="46.0321150" lon="10.3982700">
	<ele>1486.20</ele>
	<time>2024-07-24T08:20:09.000Z</time>
</trkpt>
<trkpt lat="46.0321130" lon="10.3982670">
	<ele>1486.20</ele>
	<time>2024-07-24T08:20:10.000Z</time>
</trkpt>
<trkpt lat="46.0321120" lon="10.3982670">
	<ele>1486.20</ele>
	<time>2024-07-24T08:20:11.000Z</time>
</trkpt>
<trkpt lat="46.0321210" lon="10.3982620">
	<ele>1486.20</ele>
	<time>2024-07-24T08:20:12.000Z</time>
</trkpt>
<trkpt lat="46.0321230" lon="10.3982590">
	<ele>1486.20</ele>
	<time>2024-07-24T08:20:13.000Z</time>
</trkpt>
<trkpt lat="46.0321300" lon="10.3982570">
	<ele>1486.00</ele>
	<time>2024-07-24T08:20:14.000Z</time>
</trkpt>
<trkpt lat="46.0321300" lon="10.3982540">
	<ele>1486.00</ele>
	<time>2024-07-24T08:20:15.000Z</time>
</trkpt>
<trkpt lat="46.0321320" lon="10.3982520">
	<ele>1486.00</ele>
	<time>2024-07-24T08:20:16.000Z</time>
</trkpt>
<trkpt lat="46.0321320" lon="10.3982520">
	<ele>1486.00</ele>
	<time>2024-07-24T08:20:17.000Z</time>
</trkpt>
<trkpt lat="46.0321310" lon="10.3982530">
	<ele>1486.00</ele>
	<time>2024-07-24T08:20:18.000Z</time>
</trkpt>
<trkpt lat="46.0321310" lon="10.3982530">
	<ele>1486.00</ele>
	<time>2024-07-24T08:20:19.000Z</time>
</trkpt>
<trkpt lat="46.0321310" lon="10.3982530">
	<ele>1485.80</ele>
	<time>2024-07-24T08:20:20.000Z</time>
</trkpt>
<trkpt lat="46.0321310" lon="10.3982530">
	<ele>1485.80</ele>
	<time>2024-07-24T08:20:21.000Z</time>
</trkpt>
<trkpt lat="46.0321310" lon="10.3982530">
	<ele>1485.80</ele>
	<time>2024-07-24T08:20:22.000Z</time>
</trkpt>
<trkpt lat="46.0321310" lon="10.3982530">
	<ele>1485.80</ele>
	<time>2024-07-24T08:20:23.000Z</time>
</trkpt>
<trkpt lat="46.0321310" lon="10.3982530">
	<ele>1485.80</ele>
	<time>2024-07-24T08:20:24.000Z</time>
</trkpt>
<trkpt lat="46.0321310" lon="10.3982530">
	<ele>1485.60</ele>
	<time>2024-07-24T08:20:25.000Z</time>
</trkpt>
<trkpt lat="46.0321310" lon="10.3982530">
	<ele>1485.60</ele>
	<time>2024-07-24T08:20:26.000Z</time>
</trkpt>
<trkpt lat="46.0321310" lon="10.3982530">
	<ele>1485.60</ele>
	<time>2024-07-24T08:20:27.000Z</time>
</trkpt>
<trkpt lat="46.0321310" lon="10.3982530">
	<ele>1485.60</ele>
	<time>2024-07-24T08:20:28.000Z</time>
</trkpt>
<trkpt lat="46.0321310" lon="10.3982530">
	<ele>1485.60</ele>
	<time>2024-07-24T08:20:29.000Z</time>
</trkpt>
<trkpt lat="46.0321310" lon="10.3982530">
	<ele>1485.60</ele>
	<time>2024-07-24T08:20:30.000Z</time>
</trkpt>
<trkpt lat="46.0321300" lon="10.3982530">
	<ele>1485.60</ele>
	<time>2024-07-24T08:20:31.000Z</time>
</trkpt>
<trkpt lat="46.0321300" lon="10.3982530">
	<ele>1485.60</ele>
	<time>2024-07-24T08:20:32.000Z</time>
</trkpt>
<trkpt lat="46.0321290" lon="10.3982530">
	<ele>1485.60</ele>
	<time>2024-07-24T08:20:33.000Z</time>
</trkpt>
<trkpt lat="46.0321280" lon="10.3982530">
	<ele>1485.60</ele>
	<time>2024-07-24T08:20:34.000Z</time>
</trkpt>
<trkpt lat="46.0321260" lon="10.3982540">
	<ele>1485.60</ele>
	<time>2024-07-24T08:20:35.000Z</time>
</trkpt>
<trkpt lat="46.0321240" lon="10.3982540">
	<ele>1485.60</ele>
	<time>2024-07-24T08:20:36.000Z</time>
</trkpt>
<trkpt lat="46.0321230" lon="10.3982540">
	<ele>1485.60</ele>
	<time>2024-07-24T08:20:37.000Z</time>
</trkpt>
<trkpt lat="46.0321210" lon="10.3982540">
	<ele>1485.60</ele>
	<time>2024-07-24T08:20:38.000Z</time>
</trkpt>
<trkpt lat="46.0321210" lon="10.3982540">
	<ele>1485.60</ele>
	<time>2024-07-24T08:20:39.000Z</time>
</trkpt>
<trkpt lat="46.0321210" lon="10.3982540">
	<ele>1485.60</ele>
	<time>2024-07-24T08:20:40.000Z</time>
</trkpt>
<trkpt lat="46.0321210" lon="10.3982540">
	<ele>1485.60</ele>
	<time>2024-07-24T08:20:41.000Z</time>
</trkpt>
<trkpt lat="46.0321200" lon="10.3982540">
	<ele>1485.60</ele>
	<time>2024-07-24T08:20:42.000Z</time>
</trkpt>
<trkpt lat="46.0321190" lon="10.3982540">
	<ele>1485.60</ele>
	<time>2024-07-24T08:20:43.000Z</time>
</trkpt>
<trkpt lat="46.0321170" lon="10.3982540">
	<ele>1485.60</ele>
	<time>2024-07-24T08:20:44.000Z</time>
</trkpt>
<trkpt lat="46.0321170" lon="10.3982540">
	<ele>1485.60</ele>
	<time>2024-07-24T08:20:45.000Z</time>
</trkpt>
<trkpt lat="46.0321170" lon="10.3982540">
	<ele>1485.60</ele>
	<time>2024-07-24T08:20:46.000Z</time>
</trkpt>
<trkpt lat="46.0321170" lon="10.3982540">
	<ele>1485.60</ele>
	<time>2024-07-24T08:20:47.000Z</time>
</trkpt>
<trkpt lat="46.0321170" lon="10.3982540">
	<ele>1485.40</ele>
	<time>2024-07-24T08:20:48.000Z</time>
</trkpt>
<trkpt lat="46.0321170" lon="10.3982540">
	<ele>1485.40</ele>
	<time>2024-07-24T08:20:49.000Z</time>
</trkpt>
<trkpt lat="46.0321170" lon="10.3982540">
	<ele>1485.40</ele>
	<time>2024-07-24T08:20:50.000Z</time>
</trkpt>
<trkpt lat="46.0321170" lon="10.3982540">
	<ele>1485.40</ele>
	<time>2024-07-24T08:20:51.000Z</time>
</trkpt>
<trkpt lat="46.0321170" lon="10.3982540">
	<ele>1485.20</ele>
	<time>2024-07-24T08:20:52.000Z</time>
</trkpt>
<trkpt lat="46.0321220" lon="10.3982490">
	<ele>1485.20</ele>
	<time>2024-07-24T08:20:53.000Z</time>
</trkpt>
<trkpt lat="46.0321330" lon="10.3982350">
	<ele>1485.20</ele>
	<time>2024-07-24T08:20:54.000Z</time>
</trkpt>
<trkpt lat="46.0321470" lon="10.3982200">
	<ele>1485.20</ele>
	<time>2024-07-24T08:20:55.000Z</time>
</trkpt>
<trkpt lat="46.0321600" lon="10.3982070">
	<ele>1485.20</ele>
	<time>2024-07-24T08:20:56.000Z</time>
</trkpt>
<trkpt lat="46.0321770" lon="10.3981930">
	<ele>1485.20</ele>
	<time>2024-07-24T08:20:57.000Z</time>
</trkpt>
<trkpt lat="46.0321930" lon="10.3981790">
	<ele>1485.20</ele>
	<time>2024-07-24T08:20:58.000Z</time>
</trkpt>
<trkpt lat="46.0322090" lon="10.3981650">
	<ele>1485.20</ele>
	<time>2024-07-24T08:20:59.000Z</time>
</trkpt>
<trkpt lat="46.0322200" lon="10.3981480">
	<ele>1485.20</ele>
	<time>2024-07-24T08:21:00.000Z</time>
</trkpt>
<trkpt lat="46.0322390" lon="10.3981330">
	<ele>1485.20</ele>
	<time>2024-07-24T08:21:01.000Z</time>
</trkpt>
<trkpt lat="46.0322540" lon="10.3981180">
	<ele>1485.20</ele>
	<time>2024-07-24T08:21:02.000Z</time>
</trkpt>
<trkpt lat="46.0322670" lon="10.3981120">
	<ele>1485.00</ele>
	<time>2024-07-24T08:21:03.000Z</time>
</trkpt>
<trkpt lat="46.0322850" lon="10.3980910">
	<ele>1485.00</ele>
	<time>2024-07-24T08:21:04.000Z</time>
</trkpt>
<trkpt lat="46.0323020" lon="10.3980760">
	<ele>1485.00</ele>
	<time>2024-07-24T08:21:05.000Z</time>
</trkpt>
<trkpt lat="46.0323080" lon="10.3980630">
	<ele>1485.00</ele>
	<time>2024-07-24T08:21:06.000Z</time>
</trkpt>
<trkpt lat="46.0323160" lon="10.3980520">
	<ele>1485.00</ele>
	<time>2024-07-24T08:21:07.000Z</time>
</trkpt>
<trkpt lat="46.0323250" lon="10.3980400">
	<ele>1485.00</ele>
	<time>2024-07-24T08:21:08.000Z</time>
</trkpt>
<trkpt lat="46.0323290" lon="10.3980260">
	<ele>1485.00</ele>
	<time>2024-07-24T08:21:09.000Z</time>
</trkpt>
<trkpt lat="46.0323380" lon="10.3980090">
	<ele>1485.00</ele>
	<time>2024-07-24T08:21:10.000Z</time>
</trkpt>
<trkpt lat="46.0323450" lon="10.3979960">
	<ele>1485.00</ele>
	<time>2024-07-24T08:21:11.000Z</time>
</trkpt>
<trkpt lat="46.0323500" lon="10.3979820">
	<ele>1485.00</ele>
	<time>2024-07-24T08:21:12.000Z</time>
</trkpt>
<trkpt lat="46.0323500" lon="10.3979710">
	<ele>1485.00</ele>
	<time>2024-07-24T08:21:13.000Z</time>
</trkpt>
<trkpt lat="46.0323490" lon="10.3979570">
	<ele>1485.00</ele>
	<time>2024-07-24T08:21:14.000Z</time>
</trkpt>
<trkpt lat="46.0323480" lon="10.3979390">
	<ele>1485.00</ele>
	<time>2024-07-24T08:21:15.000Z</time>
</trkpt>
<trkpt lat="46.0323470" lon="10.3979170">
	<ele>1485.00</ele>
	<time>2024-07-24T08:21:16.000Z</time>
</trkpt>
<trkpt lat="46.0323480" lon="10.3978980">
	<ele>1485.00</ele>
	<time>2024-07-24T08:21:17.000Z</time>
</trkpt>
<trkpt lat="46.0323460" lon="10.3978800">
	<ele>1485.00</ele>
	<time>2024-07-24T08:21:18.000Z</time>
</trkpt>
<trkpt lat="46.0323480" lon="10.3978610">
	<ele>1485.00</ele>
	<time>2024-07-24T08:21:19.000Z</time>
</trkpt>
<trkpt lat="46.0323540" lon="10.3978410">
	<ele>1485.00</ele>
	<time>2024-07-24T08:21:20.000Z</time>
</trkpt>
<trkpt lat="46.0323580" lon="10.3978260">
	<ele>1485.00</ele>
	<time>2024-07-24T08:21:21.000Z</time>
</trkpt>
<trkpt lat="46.0323610" lon="10.3978130">
	<ele>1485.00</ele>
	<time>2024-07-24T08:21:22.000Z</time>
</trkpt>
<trkpt lat="46.0323610" lon="10.3978010">
	<ele>1485.00</ele>
	<time>2024-07-24T08:21:23.000Z</time>
</trkpt>
<trkpt lat="46.0323600" lon="10.3977860">
	<ele>1485.00</ele>
	<time>2024-07-24T08:21:24.000Z</time>
</trkpt>
<trkpt lat="46.0323600" lon="10.3977710">
	<ele>1485.00</ele>
	<time>2024-07-24T08:21:25.000Z</time>
</trkpt>
<trkpt lat="46.0323540" lon="10.3977600">
	<ele>1485.00</ele>
	<time>2024-07-24T08:21:26.000Z</time>
</trkpt>
<trkpt lat="46.0323530" lon="10.3977500">
	<ele>1485.00</ele>
	<time>2024-07-24T08:21:27.000Z</time>
</trkpt>
<trkpt lat="46.0323580" lon="10.3977370">
	<ele>1485.00</ele>
	<time>2024-07-24T08:21:28.000Z</time>
</trkpt>
<trkpt lat="46.0323650" lon="10.3977250">
	<ele>1485.00</ele>
	<time>2024-07-24T08:21:29.000Z</time>
</trkpt>
<trkpt lat="46.0323660" lon="10.3977110">
	<ele>1485.00</ele>
	<time>2024-07-24T08:21:30.000Z</time>
</trkpt>
<trkpt lat="46.0323630" lon="10.3977050">
	<ele>1485.00</ele>
	<time>2024-07-24T08:21:31.000Z</time>
</trkpt>
<trkpt lat="46.0323600" lon="10.3977060">
	<ele>1485.00</ele>
	<time>2024-07-24T08:21:32.000Z</time>
</trkpt>
<trkpt lat="46.0323590" lon="10.3976980">
	<ele>1485.00</ele>
	<time>2024-07-24T08:21:33.000Z</time>
</trkpt>
<trkpt lat="46.0323590" lon="10.3976850">
	<ele>1485.00</ele>
	<time>2024-07-24T08:21:34.000Z</time>
</trkpt>
<trkpt lat="46.0323630" lon="10.3976730">
	<ele>1485.20</ele>
	<time>2024-07-24T08:21:35.000Z</time>
</trkpt>
<trkpt lat="46.0323580" lon="10.3976630">
	<ele>1485.00</ele>
	<time>2024-07-24T08:21:36.000Z</time>
</trkpt>
<trkpt lat="46.0323530" lon="10.3976550">
	<ele>1485.00</ele>
	<time>2024-07-24T08:21:37.000Z</time>
</trkpt>
<trkpt lat="46.0323550" lon="10.3976400">
	<ele>1485.00</ele>
	<time>2024-07-24T08:21:38.000Z</time>
</trkpt>
<trkpt lat="46.0323580" lon="10.3976260">
	<ele>1485.00</ele>
	<time>2024-07-24T08:21:39.000Z</time>
</trkpt>
<trkpt lat="46.0323700" lon="10.3976060">
	<ele>1485.00</ele>
	<time>2024-07-24T08:21:40.000Z</time>
</trkpt>
<trkpt lat="46.0323850" lon="10.3975810">
	<ele>1485.00</ele>
	<time>2024-07-24T08:21:41.000Z</time>
</trkpt>
<trkpt lat="46.0323960" lon="10.3975590">
	<ele>1485.00</ele>
	<time>2024-07-24T08:21:42.000Z</time>
</trkpt>
<trkpt lat="46.0324060" lon="10.3975430">
	<ele>1485.00</ele>
	<time>2024-07-24T08:21:43.000Z</time>
</trkpt>
<trkpt lat="46.0324120" lon="10.3975220">
	<ele>1485.00</ele>
	<time>2024-07-24T08:21:44.000Z</time>
</trkpt>
<trkpt lat="46.0324170" lon="10.3975040">
	<ele>1484.80</ele>
	<time>2024-07-24T08:21:45.000Z</time>
</trkpt>
<trkpt lat="46.0324240" lon="10.3974870">
	<ele>1484.80</ele>
	<time>2024-07-24T08:21:46.000Z</time>
</trkpt>
<trkpt lat="46.0324300" lon="10.3974750">
	<ele>1485.00</ele>
	<time>2024-07-24T08:21:47.000Z</time>
</trkpt>
<trkpt lat="46.0324400" lon="10.3974540">
	<ele>1484.80</ele>
	<time>2024-07-24T08:21:48.000Z</time>
</trkpt>
<trkpt lat="46.0324400" lon="10.3974370">
	<ele>1484.80</ele>
	<time>2024-07-24T08:21:49.000Z</time>
</trkpt>
<trkpt lat="46.0324460" lon="10.3974220">
	<ele>1485.00</ele>
	<time>2024-07-24T08:21:50.000Z</time>
</trkpt>
<trkpt lat="46.0324560" lon="10.3974060">
	<ele>1485.00</ele>
	<time>2024-07-24T08:21:51.000Z</time>
</trkpt>
<trkpt lat="46.0324610" lon="10.3973860">
	<ele>1485.00</ele>
	<time>2024-07-24T08:21:52.000Z</time>
</trkpt>
<trkpt lat="46.0324780" lon="10.3973680">
	<ele>1485.00</ele>
	<time>2024-07-24T08:21:53.000Z</time>
</trkpt>
<trkpt lat="46.0324870" lon="10.3973550">
	<ele>1484.80</ele>
	<time>2024-07-24T08:21:54.000Z</time>
</trkpt>
<trkpt lat="46.0324920" lon="10.3973410">
	<ele>1484.80</ele>
	<time>2024-07-24T08:21:55.000Z</time>
</trkpt>
<trkpt lat="46.0324970" lon="10.3973290">
	<ele>1484.80</ele>
	<time>2024-07-24T08:21:56.000Z</time>
</trkpt>
<trkpt lat="46.0325020" lon="10.3973190">
	<ele>1484.80</ele>
	<time>2024-07-24T08:21:57.000Z</time>
</trkpt>
<trkpt lat="46.0325050" lon="10.3973110">
	<ele>1484.60</ele>
	<time>2024-07-24T08:21:58.000Z</time>
</trkpt>
<trkpt lat="46.0325040" lon="10.3973030">
	<ele>1484.60</ele>
	<time>2024-07-24T08:21:59.000Z</time>
</trkpt>
<trkpt lat="46.0324990" lon="10.3972940">
	<ele>1484.60</ele>
	<time>2024-07-24T08:22:00.000Z</time>
</trkpt>
<trkpt lat="46.0325010" lon="10.3972870">
	<ele>1484.60</ele>
	<time>2024-07-24T08:22:01.000Z</time>
</trkpt>
<trkpt lat="46.0325010" lon="10.3972840">
	<ele>1484.40</ele>
	<time>2024-07-24T08:22:02.000Z</time>
</trkpt>
<trkpt lat="46.0325020" lon="10.3972770">
	<ele>1484.40</ele>
	<time>2024-07-24T08:22:03.000Z</time>
</trkpt>
<trkpt lat="46.0325130" lon="10.3972670">
	<ele>1484.40</ele>
	<time>2024-07-24T08:22:04.000Z</time>
</trkpt>
<trkpt lat="46.0325190" lon="10.3972610">
	<ele>1484.40</ele>
	<time>2024-07-24T08:22:05.000Z</time>
</trkpt>
<trkpt lat="46.0325210" lon="10.3972600">
	<ele>1484.40</ele>
	<time>2024-07-24T08:22:06.000Z</time>
</trkpt>
<trkpt lat="46.0325210" lon="10.3972590">
	<ele>1484.40</ele>
	<time>2024-07-24T08:22:07.000Z</time>
</trkpt>
<trkpt lat="46.0325220" lon="10.3972580">
	<ele>1484.40</ele>
	<time>2024-07-24T08:22:08.000Z</time>
</trkpt>
<trkpt lat="46.0325240" lon="10.3972580">
	<ele>1484.40</ele>
	<time>2024-07-24T08:22:09.000Z</time>
</trkpt>
<trkpt lat="46.0325340" lon="10.3972590">
	<ele>1484.40</ele>
	<time>2024-07-24T08:22:10.000Z</time>
</trkpt>
<trkpt lat="46.0325380" lon="10.3972600">
	<ele>1484.20</ele>
	<time>2024-07-24T08:22:11.000Z</time>
</trkpt>
<trkpt lat="46.0325410" lon="10.3972570">
	<ele>1484.00</ele>
	<time>2024-07-24T08:22:12.000Z</time>
</trkpt>
<trkpt lat="46.0325490" lon="10.3972500">
	<ele>1484.00</ele>
	<time>2024-07-24T08:22:13.000Z</time>
</trkpt>
<trkpt lat="46.0325620" lon="10.3972430">
	<ele>1484.00</ele>
	<time>2024-07-24T08:22:14.000Z</time>
</trkpt>
<trkpt lat="46.0325800" lon="10.3972370">
	<ele>1484.00</ele>
	<time>2024-07-24T08:22:15.000Z</time>
</trkpt>
<trkpt lat="46.0325940" lon="10.3972300">
	<ele>1484.00</ele>
	<time>2024-07-24T08:22:16.000Z</time>
</trkpt>
<trkpt lat="46.0326030" lon="10.3972260">
	<ele>1484.00</ele>
	<time>2024-07-24T08:22:17.000Z</time>
</trkpt>
<trkpt lat="46.0326140" lon="10.3972220">
	<ele>1484.00</ele>
	<time>2024-07-24T08:22:18.000Z</time>
</trkpt>
<trkpt lat="46.0326280" lon="10.3972160">
	<ele>1483.80</ele>
	<time>2024-07-24T08:22:19.000Z</time>
</trkpt>
<trkpt lat="46.0326400" lon="10.3972050">
	<ele>1483.80</ele>
	<time>2024-07-24T08:22:20.000Z</time>
</trkpt>
<trkpt lat="46.0326440" lon="10.3971990">
	<ele>1483.80</ele>
	<time>2024-07-24T08:22:21.000Z</time>
</trkpt>
<trkpt lat="46.0326530" lon="10.3971860">
	<ele>1483.80</ele>
	<time>2024-07-24T08:22:22.000Z</time>
</trkpt>
<trkpt lat="46.0326650" lon="10.3971790">
	<ele>1483.80</ele>
	<time>2024-07-24T08:22:23.000Z</time>
</trkpt>
<trkpt lat="46.0326690" lon="10.3971750">
	<ele>1483.80</ele>
	<time>2024-07-24T08:22:24.000Z</time>
</trkpt>
<trkpt lat="46.0326680" lon="10.3971770">
	<ele>1483.80</ele>
	<time>2024-07-24T08:22:25.000Z</time>
</trkpt>
<trkpt lat="46.0326680" lon="10.3971780">
	<ele>1483.80</ele>
	<time>2024-07-24T08:22:26.000Z</time>
</trkpt>
<trkpt lat="46.0326700" lon="10.3971800">
	<ele>1483.60</ele>
	<time>2024-07-24T08:22:27.000Z</time>
</trkpt>
<trkpt lat="46.0326740" lon="10.3971770">
	<ele>1483.60</ele>
	<time>2024-07-24T08:22:28.000Z</time>
</trkpt>
<trkpt lat="46.0326960" lon="10.3971730">
	<ele>1483.60</ele>
	<time>2024-07-24T08:22:29.000Z</time>
</trkpt>
<trkpt lat="46.0327160" lon="10.3971610">
	<ele>1483.60</ele>
	<time>2024-07-24T08:22:30.000Z</time>
</trkpt>
<trkpt lat="46.0327310" lon="10.3971490">
	<ele>1483.40</ele>
	<time>2024-07-24T08:22:31.000Z</time>
</trkpt>
<trkpt lat="46.0327390" lon="10.3971330">
	<ele>1483.40</ele>
	<time>2024-07-24T08:22:32.000Z</time>
</trkpt>
<trkpt lat="46.0327520" lon="10.3971190">
	<ele>1483.40</ele>
	<time>2024-07-24T08:22:33.000Z</time>
</trkpt>
<trkpt lat="46.0327660" lon="10.3971140">
	<ele>1483.40</ele>
	<time>2024-07-24T08:22:34.000Z</time>
</trkpt>
<trkpt lat="46.0327800" lon="10.3971050">
	<ele>1483.40</ele>
	<time>2024-07-24T08:22:35.000Z</time>
</trkpt>
<trkpt lat="46.0327920" lon="10.3970940">
	<ele>1483.40</ele>
	<time>2024-07-24T08:22:36.000Z</time>
</trkpt>
<trkpt lat="46.0328110" lon="10.3970890">
	<ele>1483.40</ele>
	<time>2024-07-24T08:22:37.000Z</time>
</trkpt>
<trkpt lat="46.0328320" lon="10.3970850">
	<ele>1483.40</ele>
	<time>2024-07-24T08:22:38.000Z</time>
</trkpt>
<trkpt lat="46.0328490" lon="10.3970820">
	<ele>1483.40</ele>
	<time>2024-07-24T08:22:39.000Z</time>
</trkpt>
<trkpt lat="46.0328650" lon="10.3970740">
	<ele>1483.40</ele>
	<time>2024-07-24T08:22:40.000Z</time>
</trkpt>
<trkpt lat="46.0328790" lon="10.3970700">
	<ele>1483.20</ele>
	<time>2024-07-24T08:22:41.000Z</time>
</trkpt>
<trkpt lat="46.0328850" lon="10.3970620">
	<ele>1483.20</ele>
	<time>2024-07-24T08:22:42.000Z</time>
</trkpt>
<trkpt lat="46.0328920" lon="10.3970560">
	<ele>1483.20</ele>
	<time>2024-07-24T08:22:43.000Z</time>
</trkpt>
<trkpt lat="46.0329070" lon="10.3970550">
	<ele>1483.20</ele>
	<time>2024-07-24T08:22:44.000Z</time>
</trkpt>
<trkpt lat="46.0329270" lon="10.3970480">
	<ele>1483.20</ele>
	<time>2024-07-24T08:22:45.000Z</time>
</trkpt>
<trkpt lat="46.0329440" lon="10.3970410">
	<ele>1483.20</ele>
	<time>2024-07-24T08:22:46.000Z</time>
</trkpt>
<trkpt lat="46.0329630" lon="10.3970330">
	<ele>1483.20</ele>
	<time>2024-07-24T08:22:47.000Z</time>
</trkpt>
<trkpt lat="46.0329770" lon="10.3970210">
	<ele>1483.40</ele>
	<time>2024-07-24T08:22:48.000Z</time>
</trkpt>
<trkpt lat="46.0329900" lon="10.3970080">
	<ele>1483.20</ele>
	<time>2024-07-24T08:22:49.000Z</time>
</trkpt>
<trkpt lat="46.0330000" lon="10.3969950">
	<ele>1483.20</ele>
	<time>2024-07-24T08:22:50.000Z</time>
</trkpt>
<trkpt lat="46.0330110" lon="10.3969880">
	<ele>1483.20</ele>
	<time>2024-07-24T08:22:51.000Z</time>
</trkpt>
<trkpt lat="46.0330150" lon="10.3969850">
	<ele>1483.40</ele>
	<time>2024-07-24T08:22:52.000Z</time>
</trkpt>
<trkpt lat="46.0330180" lon="10.3969810">
	<ele>1483.40</ele>
	<time>2024-07-24T08:22:53.000Z</time>
</trkpt>
<trkpt lat="46.0330220" lon="10.3969810">
	<ele>1483.20</ele>
	<time>2024-07-24T08:22:54.000Z</time>
</trkpt>
<trkpt lat="46.0330310" lon="10.3969740">
	<ele>1483.20</ele>
	<time>2024-07-24T08:22:55.000Z</time>
</trkpt>
<trkpt lat="46.0330450" lon="10.3969670">
	<ele>1483.20</ele>
	<time>2024-07-24T08:22:56.000Z</time>
</trkpt>
<trkpt lat="46.0330630" lon="10.3969620">
	<ele>1483.20</ele>
	<time>2024-07-24T08:22:57.000Z</time>
</trkpt>
<trkpt lat="46.0330820" lon="10.3969580">
	<ele>1483.20</ele>
	<time>2024-07-24T08:22:58.000Z</time>
</trkpt>
<trkpt lat="46.0331010" lon="10.3969590">
	<ele>1483.20</ele>
	<time>2024-07-24T08:22:59.000Z</time>
</trkpt>
<trkpt lat="46.0331190" lon="10.3969530">
	<ele>1483.20</ele>
	<time>2024-07-24T08:23:00.000Z</time>
</trkpt>
<trkpt lat="46.0331360" lon="10.3969460">
	<ele>1483.00</ele>
	<time>2024-07-24T08:23:01.000Z</time>
</trkpt>
<trkpt lat="46.0331500" lon="10.3969420">
	<ele>1483.00</ele>
	<time>2024-07-24T08:23:02.000Z</time>
</trkpt>
<trkpt lat="46.0331600" lon="10.3969340">
	<ele>1483.00</ele>
	<time>2024-07-24T08:23:03.000Z</time>
</trkpt>
<trkpt lat="46.0331730" lon="10.3969240">
	<ele>1483.00</ele>
	<time>2024-07-24T08:23:04.000Z</time>
</trkpt>
<trkpt lat="46.0331910" lon="10.3969140">
	<ele>1483.00</ele>
	<time>2024-07-24T08:23:05.000Z</time>
</trkpt>
<trkpt lat="46.0332100" lon="10.3969050">
	<ele>1483.00</ele>
	<time>2024-07-24T08:23:06.000Z</time>
</trkpt>
<trkpt lat="46.0332270" lon="10.3968910">
	<ele>1482.80</ele>
	<time>2024-07-24T08:23:07.000Z</time>
</trkpt>
<trkpt lat="46.0332340" lon="10.3968780">
	<ele>1482.80</ele>
	<time>2024-07-24T08:23:08.000Z</time>
</trkpt>
<trkpt lat="46.0332390" lon="10.3968730">
	<ele>1482.80</ele>
	<time>2024-07-24T08:23:09.000Z</time>
</trkpt>
<trkpt lat="46.0332400" lon="10.3968720">
	<ele>1482.80</ele>
	<time>2024-07-24T08:23:10.000Z</time>
</trkpt>
<trkpt lat="46.0332380" lon="10.3968720">
	<ele>1482.80</ele>
	<time>2024-07-24T08:23:11.000Z</time>
</trkpt>
<trkpt lat="46.0332390" lon="10.3968730">
	<ele>1482.80</ele>
	<time>2024-07-24T08:23:12.000Z</time>
</trkpt>
<trkpt lat="46.0332400" lon="10.3968730">
	<ele>1482.80</ele>
	<time>2024-07-24T08:23:13.000Z</time>
</trkpt>
<trkpt lat="46.0332410" lon="10.3968710">
	<ele>1482.60</ele>
	<time>2024-07-24T08:23:14.000Z</time>
</trkpt>
<trkpt lat="46.0332430" lon="10.3968700">
	<ele>1482.60</ele>
	<time>2024-07-24T08:23:15.000Z</time>
</trkpt>
<trkpt lat="46.0332450" lon="10.3968700">
	<ele>1482.60</ele>
	<time>2024-07-24T08:23:16.000Z</time>
</trkpt>
<trkpt lat="46.0332470" lon="10.3968700">
	<ele>1482.60</ele>
	<time>2024-07-24T08:23:17.000Z</time>
</trkpt>
<trkpt lat="46.0332480" lon="10.3968740">
	<ele>1482.60</ele>
	<time>2024-07-24T08:23:18.000Z</time>
</trkpt>
<trkpt lat="46.0332500" lon="10.3968770">
	<ele>1482.60</ele>
	<time>2024-07-24T08:23:19.000Z</time>
</trkpt>
<trkpt lat="46.0332540" lon="10.3968780">
	<ele>1482.60</ele>
	<time>2024-07-24T08:23:20.000Z</time>
</trkpt>
<trkpt lat="46.0332580" lon="10.3968780">
	<ele>1482.60</ele>
	<time>2024-07-24T08:23:21.000Z</time>
</trkpt>
<trkpt lat="46.0332610" lon="10.3968760">
	<ele>1482.60</ele>
	<time>2024-07-24T08:23:22.000Z</time>
</trkpt>
<trkpt lat="46.0332580" lon="10.3968750">
	<ele>1482.60</ele>
	<time>2024-07-24T08:23:23.000Z</time>
</trkpt>
<trkpt lat="46.0332560" lon="10.3968750">
	<ele>1482.60</ele>
	<time>2024-07-24T08:23:24.000Z</time>
</trkpt>
<trkpt lat="46.0332550" lon="10.3968740">
	<ele>1482.40</ele>
	<time>2024-07-24T08:23:25.000Z</time>
</trkpt>
<trkpt lat="46.0332520" lon="10.3968760">
	<ele>1482.40</ele>
	<time>2024-07-24T08:23:26.000Z</time>
</trkpt>
<trkpt lat="46.0332520" lon="10.3968750">
	<ele>1482.40</ele>
	<time>2024-07-24T08:23:27.000Z</time>
</trkpt>
<trkpt lat="46.0332550" lon="10.3968720">
	<ele>1482.40</ele>
	<time>2024-07-24T08:23:28.000Z</time>
</trkpt>
<trkpt lat="46.0332680" lon="10.3968670">
	<ele>1482.40</ele>
	<time>2024-07-24T08:23:29.000Z</time>
</trkpt>
<trkpt lat="46.0332740" lon="10.3968610">
	<ele>1482.40</ele>
	<time>2024-07-24T08:23:30.000Z</time>
</trkpt>
<trkpt lat="46.0332820" lon="10.3968530">
	<ele>1482.20</ele>
	<time>2024-07-24T08:23:31.000Z</time>
</trkpt>
<trkpt lat="46.0332960" lon="10.3968460">
	<ele>1482.20</ele>
	<time>2024-07-24T08:23:32.000Z</time>
</trkpt>
<trkpt lat="46.0333060" lon="10.3968330">
	<ele>1482.40</ele>
	<time>2024-07-24T08:23:33.000Z</time>
</trkpt>
<trkpt lat="46.0333100" lon="10.3968210">
	<ele>1482.40</ele>
	<time>2024-07-24T08:23:34.000Z</time>
</trkpt>
<trkpt lat="46.0333180" lon="10.3968140">
	<ele>1482.40</ele>
	<time>2024-07-24T08:23:35.000Z</time>
</trkpt>
<trkpt lat="46.0333290" lon="10.3968070">
	<ele>1482.40</ele>
	<time>2024-07-24T08:23:36.000Z</time>
</trkpt>
<trkpt lat="46.0333420" lon="10.3967990">
	<ele>1482.40</ele>
	<time>2024-07-24T08:23:37.000Z</time>
</trkpt>
<trkpt lat="46.0333530" lon="10.3967900">
	<ele>1482.40</ele>
	<time>2024-07-24T08:23:38.000Z</time>
</trkpt>
<trkpt lat="46.0333640" lon="10.3967800">
	<ele>1482.40</ele>
	<time>2024-07-24T08:23:39.000Z</time>
</trkpt>
<trkpt lat="46.0333730" lon="10.3967700">
	<ele>1482.40</ele>
	<time>2024-07-24T08:23:40.000Z</time>
</trkpt>
<trkpt lat="46.0333810" lon="10.3967560">
	<ele>1482.40</ele>
	<time>2024-07-24T08:23:41.000Z</time>
</trkpt>
<trkpt lat="46.0333850" lon="10.3967400">
	<ele>1482.40</ele>
	<time>2024-07-24T08:23:42.000Z</time>
</trkpt>
<trkpt lat="46.0333950" lon="10.3967240">
	<ele>1482.40</ele>
	<time>2024-07-24T08:23:43.000Z</time>
</trkpt>
<trkpt lat="46.0334070" lon="10.3967080">
	<ele>1482.40</ele>
	<time>2024-07-24T08:23:44.000Z</time>
</trkpt>
<trkpt lat="46.0334140" lon="10.3966940">
	<ele>1482.40</ele>
	<time>2024-07-24T08:23:45.000Z</time>
</trkpt>
<trkpt lat="46.0334200" lon="10.3966850">
	<ele>1482.40</ele>
	<time>2024-07-24T08:23:46.000Z</time>
</trkpt>
<trkpt lat="46.0334230" lon="10.3966730">
	<ele>1482.40</ele>
	<time>2024-07-24T08:23:47.000Z</time>
</trkpt>
<trkpt lat="46.0334290" lon="10.3966660">
	<ele>1482.40</ele>
	<time>2024-07-24T08:23:48.000Z</time>
</trkpt>
<trkpt lat="46.0334190" lon="10.3966640">
	<ele>1482.20</ele>
	<time>2024-07-24T08:23:49.000Z</time>
</trkpt>
<trkpt lat="46.0334190" lon="10.3966500">
	<ele>1482.20</ele>
	<time>2024-07-24T08:23:50.000Z</time>
</trkpt>
<trkpt lat="46.0334210" lon="10.3966370">
	<ele>1482.20</ele>
	<time>2024-07-24T08:23:51.000Z</time>
</trkpt>
<trkpt lat="46.0334280" lon="10.3966220">
	<ele>1482.20</ele>
	<time>2024-07-24T08:23:52.000Z</time>
</trkpt>
<trkpt lat="46.0334420" lon="10.3966140">
	<ele>1482.20</ele>
	<time>2024-07-24T08:23:53.000Z</time>
</trkpt>
<trkpt lat="46.0334410" lon="10.3966160">
	<ele>1482.40</ele>
	<time>2024-07-24T08:23:54.000Z</time>
</trkpt>
<trkpt lat="46.0334400" lon="10.3966180">
	<ele>1482.40</ele>
	<time>2024-07-24T08:23:55.000Z</time>
</trkpt>
<trkpt lat="46.0334380" lon="10.3966180">
	<ele>1482.40</ele>
	<time>2024-07-24T08:23:56.000Z</time>
</trkpt>
<trkpt lat="46.0334390" lon="10.3966150">
	<ele>1482.40</ele>
	<time>2024-07-24T08:23:57.000Z</time>
</trkpt>
<trkpt lat="46.0334400" lon="10.3966070">
	<ele>1482.40</ele>
	<time>2024-07-24T08:23:58.000Z</time>
</trkpt>
<trkpt lat="46.0334380" lon="10.3965970">
	<ele>1482.40</ele>
	<time>2024-07-24T08:23:59.000Z</time>
</trkpt>
<trkpt lat="46.0334380" lon="10.3965840">
	<ele>1482.20</ele>
	<time>2024-07-24T08:24:00.000Z</time>
</trkpt>
<trkpt lat="46.0334390" lon="10.3965690">
	<ele>1482.00</ele>
	<time>2024-07-24T08:24:01.000Z</time>
</trkpt>
<trkpt lat="46.0334410" lon="10.3965570">
	<ele>1482.00</ele>
	<time>2024-07-24T08:24:02.000Z</time>
</trkpt>
<trkpt lat="46.0334450" lon="10.3965410">
	<ele>1481.80</ele>
	<time>2024-07-24T08:24:03.000Z</time>
</trkpt>
<trkpt lat="46.0334520" lon="10.3965270">
	<ele>1481.80</ele>
	<time>2024-07-24T08:24:04.000Z</time>
</trkpt>
<trkpt lat="46.0334580" lon="10.3965130">
	<ele>1481.80</ele>
	<time>2024-07-24T08:24:05.000Z</time>
</trkpt>
<trkpt lat="46.0334640" lon="10.3964990">
	<ele>1481.80</ele>
	<time>2024-07-24T08:24:06.000Z</time>
</trkpt>
<trkpt lat="46.0334640" lon="10.3964840">
	<ele>1481.80</ele>
	<time>2024-07-24T08:24:07.000Z</time>
</trkpt>
<trkpt lat="46.0334630" lon="10.3964670">
	<ele>1481.80</ele>
	<time>2024-07-24T08:24:08.000Z</time>
</trkpt>
<trkpt lat="46.0334610" lon="10.3964480">
	<ele>1481.60</ele>
	<time>2024-07-24T08:24:09.000Z</time>
</trkpt>
<trkpt lat="46.0334580" lon="10.3964310">
	<ele>1481.60</ele>
	<time>2024-07-24T08:24:10.000Z</time>
</trkpt>
<trkpt lat="46.0334600" lon="10.3964080">
	<ele>1481.40</ele>
	<time>2024-07-24T08:24:11.000Z</time>
</trkpt>
<trkpt lat="46.0334590" lon="10.3963910">
	<ele>1481.40</ele>
	<time>2024-07-24T08:24:12.000Z</time>
</trkpt>
<trkpt lat="46.0334570" lon="10.3963750">
	<ele>1481.40</ele>
	<time>2024-07-24T08:24:13.000Z</time>
</trkpt>
<trkpt lat="46.0334550" lon="10.3963510">
	<ele>1481.40</ele>
	<time>2024-07-24T08:24:14.000Z</time>
</trkpt>
<trkpt lat="46.0334520" lon="10.3963230">
	<ele>1481.20</ele>
	<time>2024-07-24T08:24:15.000Z</time>
</trkpt>
<trkpt lat="46.0334480" lon="10.3963080">
	<ele>1481.20</ele>
	<time>2024-07-24T08:24:16.000Z</time>
</trkpt>
<trkpt lat="46.0334550" lon="10.3962930">
	<ele>1481.00</ele>
	<time>2024-07-24T08:24:17.000Z</time>
</trkpt>
<trkpt lat="46.0334610" lon="10.3962810">
	<ele>1481.00</ele>
	<time>2024-07-24T08:24:18.000Z</time>
</trkpt>
<trkpt lat="46.0334740" lon="10.3962650">
	<ele>1481.00</ele>
	<time>2024-07-24T08:24:19.000Z</time>
</trkpt>
<trkpt lat="46.0334790" lon="10.3962450">
	<ele>1480.80</ele>
	<time>2024-07-24T08:24:20.000Z</time>
</trkpt>
<trkpt lat="46.0334900" lon="10.3962250">
	<ele>1480.80</ele>
	<time>2024-07-24T08:24:21.000Z</time>
</trkpt>
<trkpt lat="46.0334990" lon="10.3962050">
	<ele>1480.80</ele>
	<time>2024-07-24T08:24:22.000Z</time>
</trkpt>
<trkpt lat="46.0335080" lon="10.3961840">
	<ele>1480.80</ele>
	<time>2024-07-24T08:24:23.000Z</time>
</trkpt>
<trkpt lat="46.0335100" lon="10.3961670">
	<ele>1480.60</ele>
	<time>2024-07-24T08:24:24.000Z</time>
</trkpt>
<trkpt lat="46.0335150" lon="10.3961490">
	<ele>1480.60</ele>
	<time>2024-07-24T08:24:25.000Z</time>
</trkpt>
<trkpt lat="46.0335180" lon="10.3961320">
	<ele>1480.40</ele>
	<time>2024-07-24T08:24:26.000Z</time>
</trkpt>
<trkpt lat="46.0335220" lon="10.3961100">
	<ele>1480.40</ele>
	<time>2024-07-24T08:24:27.000Z</time>
</trkpt>
<trkpt lat="46.0335210" lon="10.3960890">
	<ele>1480.40</ele>
	<time>2024-07-24T08:24:28.000Z</time>
</trkpt>
<trkpt lat="46.0335160" lon="10.3960730">
	<ele>1480.40</ele>
	<time>2024-07-24T08:24:29.000Z</time>
</trkpt>
<trkpt lat="46.0335130" lon="10.3960540">
	<ele>1480.20</ele>
	<time>2024-07-24T08:24:30.000Z</time>
</trkpt>
<trkpt lat="46.0335150" lon="10.3960420">
	<ele>1480.20</ele>
	<time>2024-07-24T08:24:31.000Z</time>
</trkpt>
<trkpt lat="46.0335100" lon="10.3960310">
	<ele>1480.20</ele>
	<time>2024-07-24T08:24:32.000Z</time>
</trkpt>
<trkpt lat="46.0335020" lon="10.3960210">
	<ele>1480.20</ele>
	<time>2024-07-24T08:24:33.000Z</time>
</trkpt>
<trkpt lat="46.0334910" lon="10.3960100">
	<ele>1480.20</ele>
	<time>2024-07-24T08:24:34.000Z</time>
</trkpt>
<trkpt lat="46.0334850" lon="10.3959940">
	<ele>1480.20</ele>
	<time>2024-07-24T08:24:35.000Z</time>
</trkpt>
<trkpt lat="46.0334780" lon="10.3959750">
	<ele>1480.00</ele>
	<time>2024-07-24T08:24:36.000Z</time>
</trkpt>
<trkpt lat="46.0334680" lon="10.3959550">
	<ele>1480.00</ele>
	<time>2024-07-24T08:24:37.000Z</time>
</trkpt>
<trkpt lat="46.0334640" lon="10.3959340">
	<ele>1479.80</ele>
	<time>2024-07-24T08:24:38.000Z</time>
</trkpt>
<trkpt lat="46.0334580" lon="10.3959150">
	<ele>1479.80</ele>
	<time>2024-07-24T08:24:39.000Z</time>
</trkpt>
<trkpt lat="46.0334490" lon="10.3958970">
	<ele>1479.80</ele>
	<time>2024-07-24T08:24:40.000Z</time>
</trkpt>
<trkpt lat="46.0334400" lon="10.3958810">
	<ele>1479.80</ele>
	<time>2024-07-24T08:24:41.000Z</time>
</trkpt>
<trkpt lat="46.0334310" lon="10.3958620">
	<ele>1479.80</ele>
	<time>2024-07-24T08:24:42.000Z</time>
</trkpt>
<trkpt lat="46.0334230" lon="10.3958430">
	<ele>1479.80</ele>
	<time>2024-07-24T08:24:43.000Z</time>
</trkpt>
<trkpt lat="46.0334180" lon="10.3958260">
	<ele>1479.80</ele>
	<time>2024-07-24T08:24:44.000Z</time>
</trkpt>
<trkpt lat="46.0334130" lon="10.3958090">
	<ele>1479.80</ele>
	<time>2024-07-24T08:24:45.000Z</time>
</trkpt>
<trkpt lat="46.0334100" lon="10.3957920">
	<ele>1479.80</ele>
	<time>2024-07-24T08:24:46.000Z</time>
</trkpt>
<trkpt lat="46.0334040" lon="10.3957750">
	<ele>1479.60</ele>
	<time>2024-07-24T08:24:47.000Z</time>
</trkpt>
<trkpt lat="46.0334030" lon="10.3957550">
	<ele>1479.60</ele>
	<time>2024-07-24T08:24:48.000Z</time>
</trkpt>
<trkpt lat="46.0334010" lon="10.3957380">
	<ele>1479.60</ele>
	<time>2024-07-24T08:24:49.000Z</time>
</trkpt>
<trkpt lat="46.0334040" lon="10.3957250">
	<ele>1479.60</ele>
	<time>2024-07-24T08:24:50.000Z</time>
</trkpt>
<trkpt lat="46.0334010" lon="10.3957140">
	<ele>1479.60</ele>
	<time>2024-07-24T08:24:51.000Z</time>
</trkpt>
<trkpt lat="46.0334030" lon="10.3957010">
	<ele>1479.60</ele>
	<time>2024-07-24T08:24:52.000Z</time>
</trkpt>
<trkpt lat="46.0334090" lon="10.3956850">
	<ele>1479.60</ele>
	<time>2024-07-24T08:24:53.000Z</time>
</trkpt>
<trkpt lat="46.0334130" lon="10.3956700">
	<ele>1479.60</ele>
	<time>2024-07-24T08:24:54.000Z</time>
</trkpt>
<trkpt lat="46.0334190" lon="10.3956570">
	<ele>1479.60</ele>
	<time>2024-07-24T08:24:55.000Z</time>
</trkpt>
<trkpt lat="46.0334270" lon="10.3956430">
	<ele>1479.60</ele>
	<time>2024-07-24T08:24:56.000Z</time>
</trkpt>
<trkpt lat="46.0334380" lon="10.3956310">
	<ele>1479.40</ele>
	<time>2024-07-24T08:24:57.000Z</time>
</trkpt>
<trkpt lat="46.0334500" lon="10.3956210">
	<ele>1479.40</ele>
	<time>2024-07-24T08:24:58.000Z</time>
</trkpt>
<trkpt lat="46.0334600" lon="10.3956100">
	<ele>1479.40</ele>
	<time>2024-07-24T08:24:59.000Z</time>
</trkpt>
<trkpt lat="46.0334710" lon="10.3955960">
	<ele>1479.40</ele>
	<time>2024-07-24T08:25:00.000Z</time>
</trkpt>
<trkpt lat="46.0334780" lon="10.3955820">
	<ele>1479.40</ele>
	<time>2024-07-24T08:25:01.000Z</time>
</trkpt>
<trkpt lat="46.0334860" lon="10.3955720">
	<ele>1479.40</ele>
	<time>2024-07-24T08:25:02.000Z</time>
</trkpt>
<trkpt lat="46.0334960" lon="10.3955620">
	<ele>1479.40</ele>
	<time>2024-07-24T08:25:03.000Z</time>
</trkpt>
<trkpt lat="46.0335050" lon="10.3955500">
	<ele>1479.40</ele>
	<time>2024-07-24T08:25:04.000Z</time>
</trkpt>
<trkpt lat="46.0335060" lon="10.3955350">
	<ele>1479.40</ele>
	<time>2024-07-24T08:25:05.000Z</time>
</trkpt>
<trkpt lat="46.0335100" lon="10.3955230">
	<ele>1479.40</ele>
	<time>2024-07-24T08:25:06.000Z</time>
</trkpt>
<trkpt lat="46.0335180" lon="10.3955090">
	<ele>1479.40</ele>
	<time>2024-07-24T08:25:07.000Z</time>
</trkpt>
<trkpt lat="46.0335270" lon="10.3954950">
	<ele>1479.40</ele>
	<time>2024-07-24T08:25:08.000Z</time>
</trkpt>
<trkpt lat="46.0335400" lon="10.3954910">
	<ele>1479.40</ele>
	<time>2024-07-24T08:25:09.000Z</time>
</trkpt>
<trkpt lat="46.0335560" lon="10.3954780">
	<ele>1479.40</ele>
	<time>2024-07-24T08:25:10.000Z</time>
</trkpt>
<trkpt lat="46.0335650" lon="10.3954670">
	<ele>1479.20</ele>
	<time>2024-07-24T08:25:11.000Z</time>
</trkpt>
<trkpt lat="46.0335730" lon="10.3954650">
	<ele>1479.20</ele>
	<time>2024-07-24T08:25:12.000Z</time>
</trkpt>
<trkpt lat="46.0335740" lon="10.3954600">
	<ele>1479.20</ele>
	<time>2024-07-24T08:25:13.000Z</time>
</trkpt>
<trkpt lat="46.0335900" lon="10.3954550">
	<ele>1479.00</ele>
	<time>2024-07-24T08:25:14.000Z</time>
</trkpt>
<trkpt lat="46.0336020" lon="10.3954590">
	<ele>1479.00</ele>
	<time>2024-07-24T08:25:15.000Z</time>
</trkpt>
<trkpt lat="46.0336140" lon="10.3954610">
	<ele>1478.80</ele>
	<time>2024-07-24T08:25:16.000Z</time>
</trkpt>
<trkpt lat="46.0336260" lon="10.3954610">
	<ele>1478.60</ele>
	<time>2024-07-24T08:25:17.000Z</time>
</trkpt>
<trkpt lat="46.0336330" lon="10.3954520">
	<ele>1478.60</ele>
	<time>2024-07-24T08:25:18.000Z</time>
</trkpt>
<trkpt lat="46.0336430" lon="10.3954440">
	<ele>1478.40</ele>
	<time>2024-07-24T08:25:19.000Z</time>
</trkpt>
<trkpt lat="46.0336500" lon="10.3954290">
	<ele>1478.20</ele>
	<time>2024-07-24T08:25:20.000Z</time>
</trkpt>
<trkpt lat="46.0336560" lon="10.3954200">
	<ele>1478.20</ele>
	<time>2024-07-24T08:25:21.000Z</time>
</trkpt>
<trkpt lat="46.0336650" lon="10.3954170">
	<ele>1478.00</ele>
	<time>2024-07-24T08:25:22.000Z</time>
</trkpt>
<trkpt lat="46.0336730" lon="10.3954170">
	<ele>1478.00</ele>
	<time>2024-07-24T08:25:23.000Z</time>
</trkpt>
<trkpt lat="46.0336820" lon="10.3954150">
	<ele>1477.80</ele>
	<time>2024-07-24T08:25:24.000Z</time>
</trkpt>
<trkpt lat="46.0336920" lon="10.3954130">
	<ele>1477.80</ele>
	<time>2024-07-24T08:25:25.000Z</time>
</trkpt>
<trkpt lat="46.0337040" lon="10.3954090">
	<ele>1477.60</ele>
	<time>2024-07-24T08:25:26.000Z</time>
</trkpt>
<trkpt lat="46.0337210" lon="10.3954030">
	<ele>1477.60</ele>
	<time>2024-07-24T08:25:27.000Z</time>
</trkpt>
<trkpt lat="46.0337390" lon="10.3953940">
	<ele>1477.40</ele>
	<time>2024-07-24T08:25:28.000Z</time>
</trkpt>
<trkpt lat="46.0337540" lon="10.3953870">
	<ele>1477.40</ele>
	<time>2024-07-24T08:25:29.000Z</time>
</trkpt>
<trkpt lat="46.0337650" lon="10.3953830">
	<ele>1477.20</ele>
	<time>2024-07-24T08:25:30.000Z</time>
</trkpt>
<trkpt lat="46.0337750" lon="10.3953790">
	<ele>1477.20</ele>
	<time>2024-07-24T08:25:31.000Z</time>
</trkpt>
<trkpt lat="46.0337830" lon="10.3953760">
	<ele>1477.00</ele>
	<time>2024-07-24T08:25:32.000Z</time>
</trkpt>
<trkpt lat="46.0337870" lon="10.3953740">
	<ele>1476.80</ele>
	<time>2024-07-24T08:25:33.000Z</time>
</trkpt>
<trkpt lat="46.0337890" lon="10.3953580">
	<ele>1476.60</ele>
	<time>2024-07-24T08:25:34.000Z</time>
</trkpt>
<trkpt lat="46.0337840" lon="10.3953380">
	<ele>1476.60</ele>
	<time>2024-07-24T08:25:35.000Z</time>
</trkpt>
<trkpt lat="46.0337990" lon="10.3953140">
	<ele>1476.40</ele>
	<time>2024-07-24T08:25:36.000Z</time>
</trkpt>
<trkpt lat="46.0338070" lon="10.3953010">
	<ele>1476.40</ele>
	<time>2024-07-24T08:25:37.000Z</time>
</trkpt>
<trkpt lat="46.0338210" lon="10.3952870">
	<ele>1476.40</ele>
	<time>2024-07-24T08:25:38.000Z</time>
</trkpt>
<trkpt lat="46.0338290" lon="10.3952750">
	<ele>1476.20</ele>
	<time>2024-07-24T08:25:39.000Z</time>
</trkpt>
<trkpt lat="46.0338350" lon="10.3952590">
	<ele>1476.20</ele>
	<time>2024-07-24T08:25:40.000Z</time>
</trkpt>
<trkpt lat="46.0338410" lon="10.3952450">
	<ele>1476.20</ele>
	<time>2024-07-24T08:25:41.000Z</time>
</trkpt>
<trkpt lat="46.0338450" lon="10.3952380">
	<ele>1476.00</ele>
	<time>2024-07-24T08:25:42.000Z</time>
</trkpt>
<trkpt lat="46.0338530" lon="10.3952280">
	<ele>1475.80</ele>
	<time>2024-07-24T08:25:43.000Z</time>
</trkpt>
<trkpt lat="46.0338620" lon="10.3952160">
	<ele>1475.80</ele>
	<time>2024-07-24T08:25:44.000Z</time>
</trkpt>
<trkpt lat="46.0338680" lon="10.3952040">
	<ele>1475.60</ele>
	<time>2024-07-24T08:25:45.000Z</time>
</trkpt>
<trkpt lat="46.0338740" lon="10.3951890">
	<ele>1475.60</ele>
	<time>2024-07-24T08:25:46.000Z</time>
</trkpt>
<trkpt lat="46.0338840" lon="10.3951820">
	<ele>1475.60</ele>
	<time>2024-07-24T08:25:47.000Z</time>
</trkpt>
<trkpt lat="46.0338930" lon="10.3951740">
	<ele>1475.60</ele>
	<time>2024-07-24T08:25:48.000Z</time>
</trkpt>
<trkpt lat="46.0339060" lon="10.3951640">
	<ele>1475.60</ele>
	<time>2024-07-24T08:25:49.000Z</time>
</trkpt>
<trkpt lat="46.0339100" lon="10.3951510">
	<ele>1475.60</ele>
	<time>2024-07-24T08:25:50.000Z</time>
</trkpt>
<trkpt lat="46.0339160" lon="10.3951410">
	<ele>1475.60</ele>
	<time>2024-07-24T08:25:51.000Z</time>
</trkpt>
<trkpt lat="46.0339270" lon="10.3951290">
	<ele>1475.40</ele>
	<time>2024-07-24T08:25:52.000Z</time>
</trkpt>
<trkpt lat="46.0339380" lon="10.3951150">
	<ele>1475.20</ele>
	<time>2024-07-24T08:25:53.000Z</time>
</trkpt>
<trkpt lat="46.0339480" lon="10.3950980">
	<ele>1475.20</ele>
	<time>2024-07-24T08:25:54.000Z</time>
</trkpt>
<trkpt lat="46.0339580" lon="10.3950860">
	<ele>1475.00</ele>
	<time>2024-07-24T08:25:55.000Z</time>
</trkpt>
<trkpt lat="46.0339690" lon="10.3950740">
	<ele>1475.00</ele>
	<time>2024-07-24T08:25:56.000Z</time>
</trkpt>
<trkpt lat="46.0339770" lon="10.3950620">
	<ele>1474.80</ele>
	<time>2024-07-24T08:25:57.000Z</time>
</trkpt>
<trkpt lat="46.0339860" lon="10.3950480">
	<ele>1474.80</ele>
	<time>2024-07-24T08:25:58.000Z</time>
</trkpt>
<trkpt lat="46.0339940" lon="10.3950320">
	<ele>1474.60</ele>
	<time>2024-07-24T08:25:59.000Z</time>
</trkpt>
<trkpt lat="46.0340060" lon="10.3950140">
	<ele>1474.60</ele>
	<time>2024-07-24T08:26:00.000Z</time>
</trkpt>
<trkpt lat="46.0340180" lon="10.3949940">
	<ele>1474.60</ele>
	<time>2024-07-24T08:26:01.000Z</time>
</trkpt>
<trkpt lat="46.0340350" lon="10.3949720">
	<ele>1474.40</ele>
	<time>2024-07-24T08:26:02.000Z</time>
</trkpt>
<trkpt lat="46.0340550" lon="10.3949560">
	<ele>1474.40</ele>
	<time>2024-07-24T08:26:03.000Z</time>
</trkpt>
<trkpt lat="46.0340700" lon="10.3949450">
	<ele>1474.40</ele>
	<time>2024-07-24T08:26:04.000Z</time>
</trkpt>
<trkpt lat="46.0340820" lon="10.3949290">
	<ele>1474.40</ele>
	<time>2024-07-24T08:26:05.000Z</time>
</trkpt>
<trkpt lat="46.0340920" lon="10.3949210">
	<ele>1474.20</ele>
	<time>2024-07-24T08:26:06.000Z</time>
</trkpt>
<trkpt lat="46.0341010" lon="10.3949130">
	<ele>1474.20</ele>
	<time>2024-07-24T08:26:07.000Z</time>
</trkpt>
<trkpt lat="46.0341120" lon="10.3949040">
	<ele>1474.20</ele>
	<time>2024-07-24T08:26:08.000Z</time>
</trkpt>
<trkpt lat="46.0341200" lon="10.3948950">
	<ele>1474.20</ele>
	<time>2024-07-24T08:26:09.000Z</time>
</trkpt>
<trkpt lat="46.0341310" lon="10.3948890">
	<ele>1474.20</ele>
	<time>2024-07-24T08:26:10.000Z</time>
</trkpt>
<trkpt lat="46.0341400" lon="10.3948830">
	<ele>1474.00</ele>
	<time>2024-07-24T08:26:11.000Z</time>
</trkpt>
<trkpt lat="46.0341530" lon="10.3948770">
	<ele>1474.00</ele>
	<time>2024-07-24T08:26:12.000Z</time>
</trkpt>
<trkpt lat="46.0341650" lon="10.3948720">
	<ele>1474.00</ele>
	<time>2024-07-24T08:26:13.000Z</time>
</trkpt>
<trkpt lat="46.0341740" lon="10.3948650">
	<ele>1474.00</ele>
	<time>2024-07-24T08:26:14.000Z</time>
</trkpt>
<trkpt lat="46.0341790" lon="10.3948540">
	<ele>1473.80</ele>
	<time>2024-07-24T08:26:15.000Z</time>
</trkpt>
<trkpt lat="46.0341850" lon="10.3948410">
	<ele>1473.60</ele>
	<time>2024-07-24T08:26:16.000Z</time>
</trkpt>
<trkpt lat="46.0341940" lon="10.3948220">
	<ele>1473.40</ele>
	<time>2024-07-24T08:26:17.000Z</time>
</trkpt>
<trkpt lat="46.0342040" lon="10.3948030">
	<ele>1473.20</ele>
	<time>2024-07-24T08:26:18.000Z</time>
</trkpt>
<trkpt lat="46.0342140" lon="10.3947930">
	<ele>1473.00</ele>
	<time>2024-07-24T08:26:19.000Z</time>
</trkpt>
<trkpt lat="46.0342250" lon="10.3947900">
	<ele>1473.00</ele>
	<time>2024-07-24T08:26:20.000Z</time>
</trkpt>
<trkpt lat="46.0342380" lon="10.3947920">
	<ele>1472.80</ele>
	<time>2024-07-24T08:26:21.000Z</time>
</trkpt>
<trkpt lat="46.0342520" lon="10.3947940">
	<ele>1472.80</ele>
	<time>2024-07-24T08:26:22.000Z</time>
</trkpt>
<trkpt lat="46.0342630" lon="10.3947990">
	<ele>1472.80</ele>
	<time>2024-07-24T08:26:23.000Z</time>
</trkpt>
<trkpt lat="46.0342720" lon="10.3948040">
	<ele>1472.80</ele>
	<time>2024-07-24T08:26:24.000Z</time>
</trkpt>
<trkpt lat="46.0342820" lon="10.3948110">
	<ele>1472.60</ele>
	<time>2024-07-24T08:26:25.000Z</time>
</trkpt>
<trkpt lat="46.0342850" lon="10.3948120">
	<ele>1472.80</ele>
	<time>2024-07-24T08:26:26.000Z</time>
</trkpt>
<trkpt lat="46.0342880" lon="10.3948100">
	<ele>1472.80</ele>
	<time>2024-07-24T08:26:27.000Z</time>
</trkpt>
<trkpt lat="46.0342920" lon="10.3948110">
	<ele>1472.80</ele>
	<time>2024-07-24T08:26:28.000Z</time>
</trkpt>
<trkpt lat="46.0342930" lon="10.3948120">
	<ele>1472.80</ele>
	<time>2024-07-24T08:26:29.000Z</time>
</trkpt>
<trkpt lat="46.0342950" lon="10.3948150">
	<ele>1472.80</ele>
	<time>2024-07-24T08:26:30.000Z</time>
</trkpt>
<trkpt lat="46.0342950" lon="10.3948170">
	<ele>1472.80</ele>
	<time>2024-07-24T08:26:31.000Z</time>
</trkpt>
<trkpt lat="46.0342970" lon="10.3948180">
	<ele>1472.80</ele>
	<time>2024-07-24T08:26:32.000Z</time>
</trkpt>
<trkpt lat="46.0342950" lon="10.3948190">
	<ele>1472.80</ele>
	<time>2024-07-24T08:26:33.000Z</time>
</trkpt>
<trkpt lat="46.0342960" lon="10.3948220">
	<ele>1472.60</ele>
	<time>2024-07-24T08:26:34.000Z</time>
</trkpt>
<trkpt lat="46.0342980" lon="10.3948230">
	<ele>1472.60</ele>
	<time>2024-07-24T08:26:35.000Z</time>
</trkpt>
<trkpt lat="46.0343050" lon="10.3948210">
	<ele>1472.60</ele>
	<time>2024-07-24T08:26:36.000Z</time>
</trkpt>
<trkpt lat="46.0343110" lon="10.3948200">
	<ele>1472.40</ele>
	<time>2024-07-24T08:26:37.000Z</time>
</trkpt>
<trkpt lat="46.0343170" lon="10.3948200">
	<ele>1472.40</ele>
	<time>2024-07-24T08:26:38.000Z</time>
</trkpt>
<trkpt lat="46.0343190" lon="10.3948190">
	<ele>1472.40</ele>
	<time>2024-07-24T08:26:39.000Z</time>
</trkpt>
<trkpt lat="46.0343180" lon="10.3948200">
	<ele>1472.40</ele>
	<time>2024-07-24T08:26:40.000Z</time>
</trkpt>
<trkpt lat="46.0343180" lon="10.3948200">
	<ele>1472.40</ele>
	<time>2024-07-24T08:26:41.000Z</time>
</trkpt>
<trkpt lat="46.0343180" lon="10.3948200">
	<ele>1472.40</ele>
	<time>2024-07-24T08:26:42.000Z</time>
</trkpt>
<trkpt lat="46.0343180" lon="10.3948200">
	<ele>1472.40</ele>
	<time>2024-07-24T08:26:43.000Z</time>
</trkpt>
<trkpt lat="46.0343180" lon="10.3948200">
	<ele>1472.40</ele>
	<time>2024-07-24T08:26:44.000Z</time>
</trkpt>
<trkpt lat="46.0343180" lon="10.3948200">
	<ele>1472.40</ele>
	<time>2024-07-24T08:26:45.000Z</time>
</trkpt>
<trkpt lat="46.0343180" lon="10.3948200">
	<ele>1472.40</ele>
	<time>2024-07-24T08:26:46.000Z</time>
</trkpt>
<trkpt lat="46.0343180" lon="10.3948200">
	<ele>1472.40</ele>
	<time>2024-07-24T08:26:47.000Z</time>
</trkpt>
<trkpt lat="46.0343180" lon="10.3948200">
	<ele>1472.40</ele>
	<time>2024-07-24T08:26:48.000Z</time>
</trkpt>
<trkpt lat="46.0343170" lon="10.3948200">
	<ele>1472.40</ele>
	<time>2024-07-24T08:26:49.000Z</time>
</trkpt>
<trkpt lat="46.0343120" lon="10.3948200">
	<ele>1472.20</ele>
	<time>2024-07-24T08:26:50.000Z</time>
</trkpt>
<trkpt lat="46.0343110" lon="10.3948200">
	<ele>1472.20</ele>
	<time>2024-07-24T08:26:51.000Z</time>
</trkpt>
<trkpt lat="46.0343100" lon="10.3948200">
	<ele>1472.20</ele>
	<time>2024-07-24T08:26:52.000Z</time>
</trkpt>
<trkpt lat="46.0343080" lon="10.3948200">
	<ele>1472.20</ele>
	<time>2024-07-24T08:26:53.000Z</time>
</trkpt>
<trkpt lat="46.0343060" lon="10.3948190">
	<ele>1472.20</ele>
	<time>2024-07-24T08:26:54.000Z</time>
</trkpt>
<trkpt lat="46.0343060" lon="10.3948190">
	<ele>1472.40</ele>
	<time>2024-07-24T08:26:55.000Z</time>
</trkpt>
<trkpt lat="46.0343050" lon="10.3948190">
	<ele>1472.40</ele>
	<time>2024-07-24T08:26:56.000Z</time>
</trkpt>
<trkpt lat="46.0343050" lon="10.3948190">
	<ele>1472.40</ele>
	<time>2024-07-24T08:26:57.000Z</time>
</trkpt>
<trkpt lat="46.0343050" lon="10.3948180">
	<ele>1472.40</ele>
	<time>2024-07-24T08:26:58.000Z</time>
</trkpt>
<trkpt lat="46.0343050" lon="10.3948180">
	<ele>1472.60</ele>
	<time>2024-07-24T08:26:59.000Z</time>
</trkpt>
<trkpt lat="46.0342990" lon="10.3948180">
	<ele>1472.60</ele>
	<time>2024-07-24T08:27:00.000Z</time>
</trkpt>
<trkpt lat="46.0342970" lon="10.3948170">
	<ele>1472.40</ele>
	<time>2024-07-24T08:27:01.000Z</time>
</trkpt>
<trkpt lat="46.0342970" lon="10.3948140">
	<ele>1472.40</ele>
	<time>2024-07-24T08:27:02.000Z</time>
</trkpt>
<trkpt lat="46.0342970" lon="10.3948130">
	<ele>1472.40</ele>
	<time>2024-07-24T08:27:03.000Z</time>
</trkpt>
<trkpt lat="46.0342980" lon="10.3948110">
	<ele>1472.40</ele>
	<time>2024-07-24T08:27:04.000Z</time>
</trkpt>
<trkpt lat="46.0343000" lon="10.3948080">
	<ele>1472.40</ele>
	<time>2024-07-24T08:27:05.000Z</time>
</trkpt>
<trkpt lat="46.0343010" lon="10.3948050">
	<ele>1472.40</ele>
	<time>2024-07-24T08:27:06.000Z</time>
</trkpt>
<trkpt lat="46.0343010" lon="10.3948040">
	<ele>1472.20</ele>
	<time>2024-07-24T08:27:07.000Z</time>
</trkpt>
<trkpt lat="46.0343010" lon="10.3948030">
	<ele>1472.20</ele>
	<time>2024-07-24T08:27:08.000Z</time>
</trkpt>
<trkpt lat="46.0343010" lon="10.3948030">
	<ele>1472.20</ele>
	<time>2024-07-24T08:27:09.000Z</time>
</trkpt>
<trkpt lat="46.0343010" lon="10.3948030">
	<ele>1472.20</ele>
	<time>2024-07-24T08:27:10.000Z</time>
</trkpt>
<trkpt lat="46.0343010" lon="10.3948020">
	<ele>1472.20</ele>
	<time>2024-07-24T08:27:11.000Z</time>
</trkpt>
<trkpt lat="46.0343010" lon="10.3948000">
	<ele>1472.20</ele>
	<time>2024-07-24T08:27:12.000Z</time>
</trkpt>
<trkpt lat="46.0343010" lon="10.3948000">
	<ele>1472.40</ele>
	<time>2024-07-24T08:27:13.000Z</time>
</trkpt>
<trkpt lat="46.0343010" lon="10.3948000">
	<ele>1472.40</ele>
	<time>2024-07-24T08:27:14.000Z</time>
</trkpt>
<trkpt lat="46.0343010" lon="10.3947990">
	<ele>1472.40</ele>
	<time>2024-07-24T08:27:15.000Z</time>
</trkpt>
<trkpt lat="46.0343010" lon="10.3947990">
	<ele>1472.40</ele>
	<time>2024-07-24T08:27:16.000Z</time>
</trkpt>
<trkpt lat="46.0343010" lon="10.3947990">
	<ele>1472.40</ele>
	<time>2024-07-24T08:27:17.000Z</time>
</trkpt>
<trkpt lat="46.0343010" lon="10.3947990">
	<ele>1472.20</ele>
	<time>2024-07-24T08:27:18.000Z</time>
</trkpt>
<trkpt lat="46.0343020" lon="10.3947990">
	<ele>1472.20</ele>
	<time>2024-07-24T08:27:19.000Z</time>
</trkpt>
<trkpt lat="46.0343050" lon="10.3947990">
	<ele>1472.20</ele>
	<time>2024-07-24T08:27:20.000Z</time>
</trkpt>
<trkpt lat="46.0343070" lon="10.3947990">
	<ele>1472.20</ele>
	<time>2024-07-24T08:27:21.000Z</time>
</trkpt>
<trkpt lat="46.0343100" lon="10.3947990">
	<ele>1472.20</ele>
	<time>2024-07-24T08:27:22.000Z</time>
</trkpt>
<trkpt lat="46.0343120" lon="10.3947990">
	<ele>1472.20</ele>
	<time>2024-07-24T08:27:23.000Z</time>
</trkpt>
<trkpt lat="46.0343160" lon="10.3947990">
	<ele>1472.20</ele>
	<time>2024-07-24T08:27:24.000Z</time>
</trkpt>
<trkpt lat="46.0343190" lon="10.3947990">
	<ele>1472.20</ele>
	<time>2024-07-24T08:27:25.000Z</time>
</trkpt>
<trkpt lat="46.0343190" lon="10.3947990">
	<ele>1472.20</ele>
	<time>2024-07-24T08:27:26.000Z</time>
</trkpt>
<trkpt lat="46.0343190" lon="10.3948000">
	<ele>1472.20</ele>
	<time>2024-07-24T08:27:27.000Z</time>
</trkpt>
<trkpt lat="46.0343190" lon="10.3948000">
	<ele>1472.20</ele>
	<time>2024-07-24T08:27:28.000Z</time>
</trkpt>
<trkpt lat="46.0343190" lon="10.3948010">
	<ele>1472.20</ele>
	<time>2024-07-24T08:27:29.000Z</time>
</trkpt>
<trkpt lat="46.0343190" lon="10.3948010">
	<ele>1472.20</ele>
	<time>2024-07-24T08:27:30.000Z</time>
</trkpt>
<trkpt lat="46.0343190" lon="10.3948020">
	<ele>1472.20</ele>
	<time>2024-07-24T08:27:31.000Z</time>
</trkpt>
<trkpt lat="46.0343190" lon="10.3948020">
	<ele>1472.20</ele>
	<time>2024-07-24T08:27:32.000Z</time>
</trkpt>
<trkpt lat="46.0343190" lon="10.3948020">
	<ele>1472.20</ele>
	<time>2024-07-24T08:27:33.000Z</time>
</trkpt>
<trkpt lat="46.0343190" lon="10.3948020">
	<ele>1472.40</ele>
	<time>2024-07-24T08:27:34.000Z</time>
</trkpt>
<trkpt lat="46.0343190" lon="10.3948020">
	<ele>1472.40</ele>
	<time>2024-07-24T08:27:35.000Z</time>
</trkpt>
<trkpt lat="46.0343190" lon="10.3948020">
	<ele>1472.40</ele>
	<time>2024-07-24T08:27:36.000Z</time>
</trkpt>
<trkpt lat="46.0343190" lon="10.3948020">
	<ele>1472.40</ele>
	<time>2024-07-24T08:27:37.000Z</time>
</trkpt>
<trkpt lat="46.0343190" lon="10.3948020">
	<ele>1472.40</ele>
	<time>2024-07-24T08:27:38.000Z</time>
</trkpt>
<trkpt lat="46.0343190" lon="10.3948030">
	<ele>1472.40</ele>
	<time>2024-07-24T08:27:39.000Z</time>
</trkpt>
<trkpt lat="46.0343190" lon="10.3948030">
	<ele>1472.40</ele>
	<time>2024-07-24T08:27:40.000Z</time>
</trkpt>
<trkpt lat="46.0343190" lon="10.3948030">
	<ele>1472.40</ele>
	<time>2024-07-24T08:27:41.000Z</time>
</trkpt>
<trkpt lat="46.0343180" lon="10.3948030">
	<ele>1472.40</ele>
	<time>2024-07-24T08:27:42.000Z</time>
</trkpt>
<trkpt lat="46.0343180" lon="10.3948030">
	<ele>1472.40</ele>
	<time>2024-07-24T08:27:43.000Z</time>
</trkpt>
<trkpt lat="46.0343180" lon="10.3948030">
	<ele>1472.40</ele>
	<time>2024-07-24T08:27:44.000Z</time>
</trkpt>
<trkpt lat="46.0343180" lon="10.3948030">
	<ele>1472.40</ele>
	<time>2024-07-24T08:27:45.000Z</time>
</trkpt>
<trkpt lat="46.0343180" lon="10.3948050">
	<ele>1472.40</ele>
	<time>2024-07-24T08:27:46.000Z</time>
</trkpt>
<trkpt lat="46.0343180" lon="10.3948050">
	<ele>1472.40</ele>
	<time>2024-07-24T08:27:47.000Z</time>
</trkpt>
<trkpt lat="46.0343180" lon="10.3948050">
	<ele>1472.40</ele>
	<time>2024-07-24T08:27:48.000Z</time>
</trkpt>
<trkpt lat="46.0343180" lon="10.3948050">
	<ele>1472.40</ele>
	<time>2024-07-24T08:27:49.000Z</time>
</trkpt>
<trkpt lat="46.0343180" lon="10.3948050">
	<ele>1472.40</ele>
	<time>2024-07-24T08:27:50.000Z</time>
</trkpt>
<trkpt lat="46.0343180" lon="10.3948050">
	<ele>1472.40</ele>
	<time>2024-07-24T08:27:51.000Z</time>
</trkpt>
<trkpt lat="46.0343180" lon="10.3948050">
	<ele>1472.40</ele>
	<time>2024-07-24T08:27:52.000Z</time>
</trkpt>
<trkpt lat="46.0343180" lon="10.3948050">
	<ele>1472.40</ele>
	<time>2024-07-24T08:27:53.000Z</time>
</trkpt>
<trkpt lat="46.0343180" lon="10.3948050">
	<ele>1472.40</ele>
	<time>2024-07-24T08:27:54.000Z</time>
</trkpt>
<trkpt lat="46.0343180" lon="10.3948050">
	<ele>1472.40</ele>
	<time>2024-07-24T08:27:55.000Z</time>
</trkpt>
<trkpt lat="46.0343180" lon="10.3948070">
	<ele>1472.20</ele>
	<time>2024-07-24T08:27:56.000Z</time>
</trkpt>
<trkpt lat="46.0343200" lon="10.3948090">
	<ele>1472.20</ele>
	<time>2024-07-24T08:27:57.000Z</time>
</trkpt>
<trkpt lat="46.0343210" lon="10.3948090">
	<ele>1472.20</ele>
	<time>2024-07-24T08:27:58.000Z</time>
</trkpt>
<trkpt lat="46.0343210" lon="10.3948090">
	<ele>1472.20</ele>
	<time>2024-07-24T08:27:59.000Z</time>
</trkpt>
<trkpt lat="46.0343220" lon="10.3948100">
	<ele>1472.20</ele>
	<time>2024-07-24T08:28:00.000Z</time>
</trkpt>
<trkpt lat="46.0343220" lon="10.3948100">
	<ele>1472.20</ele>
	<time>2024-07-24T08:28:01.000Z</time>
</trkpt>
<trkpt lat="46.0343220" lon="10.3948100">
	<ele>1472.20</ele>
	<time>2024-07-24T08:28:02.000Z</time>
</trkpt>
<trkpt lat="46.0343220" lon="10.3948100">
	<ele>1472.20</ele>
	<time>2024-07-24T08:28:03.000Z</time>
</trkpt>
<trkpt lat="46.0343220" lon="10.3948100">
	<ele>1472.20</ele>
	<time>2024-07-24T08:28:04.000Z</time>
</trkpt>
<trkpt lat="46.0343220" lon="10.3948100">
	<ele>1472.20</ele>
	<time>2024-07-24T08:28:05.000Z</time>
</trkpt>
<trkpt lat="46.0343220" lon="10.3948100">
	<ele>1472.20</ele>
	<time>2024-07-24T08:28:06.000Z</time>
</trkpt>
<trkpt lat="46.0343220" lon="10.3948100">
	<ele>1472.20</ele>
	<time>2024-07-24T08:28:07.000Z</time>
</trkpt>
<trkpt lat="46.0343220" lon="10.3948100">
	<ele>1472.20</ele>
	<time>2024-07-24T08:28:08.000Z</time>
</trkpt>
<trkpt lat="46.0343220" lon="10.3948100">
	<ele>1472.20</ele>
	<time>2024-07-24T08:28:09.000Z</time>
</trkpt>
<trkpt lat="46.0343220" lon="10.3948100">
	<ele>1472.20</ele>
	<time>2024-07-24T08:28:10.000Z</time>
</trkpt>
<trkpt lat="46.0343220" lon="10.3948100">
	<ele>1472.20</ele>
	<time>2024-07-24T08:28:11.000Z</time>
</trkpt>
<trkpt lat="46.0343210" lon="10.3948090">
	<ele>1472.20</ele>
	<time>2024-07-24T08:28:12.000Z</time>
</trkpt>
<trkpt lat="46.0343210" lon="10.3948090">
	<ele>1472.20</ele>
	<time>2024-07-24T08:28:13.000Z</time>
</trkpt>
<trkpt lat="46.0343200" lon="10.3948090">
	<ele>1472.20</ele>
	<time>2024-07-24T08:28:14.000Z</time>
</trkpt>
<trkpt lat="46.0343200" lon="10.3948080">
	<ele>1472.20</ele>
	<time>2024-07-24T08:28:15.000Z</time>
</trkpt>
<trkpt lat="46.0343190" lon="10.3948080">
	<ele>1472.20</ele>
	<time>2024-07-24T08:28:16.000Z</time>
</trkpt>
<trkpt lat="46.0343180" lon="10.3948060">
	<ele>1472.20</ele>
	<time>2024-07-24T08:28:17.000Z</time>
</trkpt>
<trkpt lat="46.0343160" lon="10.3948030">
	<ele>1472.20</ele>
	<time>2024-07-24T08:28:18.000Z</time>
</trkpt>
<trkpt lat="46.0343140" lon="10.3947990">
	<ele>1472.20</ele>
	<time>2024-07-24T08:28:19.000Z</time>
</trkpt>
<trkpt lat="46.0343130" lon="10.3947970">
	<ele>1472.20</ele>
	<time>2024-07-24T08:28:20.000Z</time>
</trkpt>
<trkpt lat="46.0343130" lon="10.3947960">
	<ele>1472.20</ele>
	<time>2024-07-24T08:28:21.000Z</time>
</trkpt>
<trkpt lat="46.0343130" lon="10.3947960">
	<ele>1472.20</ele>
	<time>2024-07-24T08:28:22.000Z</time>
</trkpt>
<trkpt lat="46.0343120" lon="10.3947950">
	<ele>1472.20</ele>
	<time>2024-07-24T08:28:23.000Z</time>
</trkpt>
<trkpt lat="46.0343120" lon="10.3947950">
	<ele>1472.20</ele>
	<time>2024-07-24T08:28:24.000Z</time>
</trkpt>
<trkpt lat="46.0343120" lon="10.3947940">
	<ele>1472.20</ele>
	<time>2024-07-24T08:28:25.000Z</time>
</trkpt>
<trkpt lat="46.0343120" lon="10.3947940">
	<ele>1472.20</ele>
	<time>2024-07-24T08:28:26.000Z</time>
</trkpt>
<trkpt lat="46.0343120" lon="10.3947930">
	<ele>1472.20</ele>
	<time>2024-07-24T08:28:27.000Z</time>
</trkpt>
<trkpt lat="46.0343120" lon="10.3947930">
	<ele>1472.20</ele>
	<time>2024-07-24T08:28:28.000Z</time>
</trkpt>
<trkpt lat="46.0343120" lon="10.3947920">
	<ele>1472.20</ele>
	<time>2024-07-24T08:28:29.000Z</time>
</trkpt>
<trkpt lat="46.0343120" lon="10.3947920">
	<ele>1472.20</ele>
	<time>2024-07-24T08:28:30.000Z</time>
</trkpt>
<trkpt lat="46.0343120" lon="10.3947920">
	<ele>1472.20</ele>
	<time>2024-07-24T08:28:31.000Z</time>
</trkpt>
<trkpt lat="46.0343120" lon="10.3947920">
	<ele>1472.20</ele>
	<time>2024-07-24T08:28:32.000Z</time>
</trkpt>
<trkpt lat="46.0343120" lon="10.3947920">
	<ele>1472.20</ele>
	<time>2024-07-24T08:28:33.000Z</time>
</trkpt>
<trkpt lat="46.0343120" lon="10.3947920">
	<ele>1472.20</ele>
	<time>2024-07-24T08:28:34.000Z</time>
</trkpt>
<trkpt lat="46.0343130" lon="10.3947920">
	<ele>1472.20</ele>
	<time>2024-07-24T08:28:35.000Z</time>
</trkpt>
<trkpt lat="46.0343130" lon="10.3947920">
	<ele>1472.20</ele>
	<time>2024-07-24T08:28:36.000Z</time>
</trkpt>
<trkpt lat="46.0343130" lon="10.3947920">
	<ele>1472.20</ele>
	<time>2024-07-24T08:28:37.000Z</time>
</trkpt>
<trkpt lat="46.0343130" lon="10.3947920">
	<ele>1472.20</ele>
	<time>2024-07-24T08:28:38.000Z</time>
</trkpt>
<trkpt lat="46.0343130" lon="10.3947920">
	<ele>1472.20</ele>
	<time>2024-07-24T08:28:39.000Z</time>
</trkpt>
<trkpt lat="46.0343130" lon="10.3947920">
	<ele>1472.20</ele>
	<time>2024-07-24T08:28:40.000Z</time>
</trkpt>
<trkpt lat="46.0343130" lon="10.3947930">
	<ele>1472.20</ele>
	<time>2024-07-24T08:28:41.000Z</time>
</trkpt>
<trkpt lat="46.0343130" lon="10.3947940">
	<ele>1472.20</ele>
	<time>2024-07-24T08:28:42.000Z</time>
</trkpt>
<trkpt lat="46.0343130" lon="10.3947940">
	<ele>1472.20</ele>
	<time>2024-07-24T08:28:43.000Z</time>
</trkpt>
<trkpt lat="46.0343130" lon="10.3947940">
	<ele>1472.20</ele>
	<time>2024-07-24T08:28:44.000Z</time>
</trkpt>
<trkpt lat="46.0343130" lon="10.3947950">
	<ele>1472.20</ele>
	<time>2024-07-24T08:28:45.000Z</time>
</trkpt>
<trkpt lat="46.0343130" lon="10.3947950">
	<ele>1472.20</ele>
	<time>2024-07-24T08:28:46.000Z</time>
</trkpt>
<trkpt lat="46.0343130" lon="10.3947960">
	<ele>1472.20</ele>
	<time>2024-07-24T08:28:47.000Z</time>
</trkpt>
<trkpt lat="46.0343130" lon="10.3947970">
	<ele>1472.20</ele>
	<time>2024-07-24T08:28:48.000Z</time>
</trkpt>
<trkpt lat="46.0343130" lon="10.3947980">
	<ele>1472.20</ele>
	<time>2024-07-24T08:28:49.000Z</time>
</trkpt>
<trkpt lat="46.0343130" lon="10.3947990">
	<ele>1472.20</ele>
	<time>2024-07-24T08:28:50.000Z</time>
</trkpt>
<trkpt lat="46.0343130" lon="10.3947990">
	<ele>1472.20</ele>
	<time>2024-07-24T08:28:51.000Z</time>
</trkpt>
<trkpt lat="46.0343120" lon="10.3947990">
	<ele>1472.20</ele>
	<time>2024-07-24T08:28:52.000Z</time>
</trkpt>
<trkpt lat="46.0343120" lon="10.3948000">
	<ele>1472.20</ele>
	<time>2024-07-24T08:28:53.000Z</time>
</trkpt>
<trkpt lat="46.0343110" lon="10.3948000">
	<ele>1472.20</ele>
	<time>2024-07-24T08:28:54.000Z</time>
</trkpt>
<trkpt lat="46.0343110" lon="10.3948000">
	<ele>1472.20</ele>
	<time>2024-07-24T08:28:55.000Z</time>
</trkpt>
<trkpt lat="46.0343100" lon="10.3948010">
	<ele>1472.20</ele>
	<time>2024-07-24T08:28:56.000Z</time>
</trkpt>
<trkpt lat="46.0343100" lon="10.3948020">
	<ele>1472.20</ele>
	<time>2024-07-24T08:28:57.000Z</time>
</trkpt>
<trkpt lat="46.0343090" lon="10.3948030">
	<ele>1472.20</ele>
	<time>2024-07-24T08:28:58.000Z</time>
</trkpt>
<trkpt lat="46.0343090" lon="10.3948040">
	<ele>1472.20</ele>
	<time>2024-07-24T08:28:59.000Z</time>
</trkpt>
<trkpt lat="46.0343080" lon="10.3948050">
	<ele>1472.20</ele>
	<time>2024-07-24T08:29:00.000Z</time>
</trkpt>
<trkpt lat="46.0343080" lon="10.3948070">
	<ele>1472.20</ele>
	<time>2024-07-24T08:29:01.000Z</time>
</trkpt>
<trkpt lat="46.0343080" lon="10.3948090">
	<ele>1472.20</ele>
	<time>2024-07-24T08:29:02.000Z</time>
</trkpt>
<trkpt lat="46.0343070" lon="10.3948100">
	<ele>1472.20</ele>
	<time>2024-07-24T08:29:03.000Z</time>
</trkpt>
<trkpt lat="46.0343070" lon="10.3948120">
	<ele>1472.20</ele>
	<time>2024-07-24T08:29:04.000Z</time>
</trkpt>
<trkpt lat="46.0343070" lon="10.3948130">
	<ele>1472.20</ele>
	<time>2024-07-24T08:29:05.000Z</time>
</trkpt>
<trkpt lat="46.0343060" lon="10.3948140">
	<ele>1472.20</ele>
	<time>2024-07-24T08:29:06.000Z</time>
</trkpt>
<trkpt lat="46.0343060" lon="10.3948140">
	<ele>1472.20</ele>
	<time>2024-07-24T08:29:07.000Z</time>
</trkpt>
<trkpt lat="46.0343030" lon="10.3948150">
	<ele>1472.20</ele>
	<time>2024-07-24T08:29:08.000Z</time>
</trkpt>
<trkpt lat="46.0343010" lon="10.3948160">
	<ele>1472.20</ele>
	<time>2024-07-24T08:29:09.000Z</time>
</trkpt>
<trkpt lat="46.0342990" lon="10.3948180">
	<ele>1472.20</ele>
	<time>2024-07-24T08:29:10.000Z</time>
</trkpt>
<trkpt lat="46.0342970" lon="10.3948210">
	<ele>1472.20</ele>
	<time>2024-07-24T08:29:11.000Z</time>
</trkpt>
<trkpt lat="46.0342960" lon="10.3948230">
	<ele>1472.20</ele>
	<time>2024-07-24T08:29:12.000Z</time>
</trkpt>
<trkpt lat="46.0342950" lon="10.3948250">
	<ele>1472.20</ele>
	<time>2024-07-24T08:29:13.000Z</time>
</trkpt>
<trkpt lat="46.0342940" lon="10.3948260">
	<ele>1472.20</ele>
	<time>2024-07-24T08:29:14.000Z</time>
</trkpt>
<trkpt lat="46.0342930" lon="10.3948280">
	<ele>1472.20</ele>
	<time>2024-07-24T08:29:15.000Z</time>
</trkpt>
<trkpt lat="46.0342920" lon="10.3948290">
	<ele>1472.20</ele>
	<time>2024-07-24T08:29:16.000Z</time>
</trkpt>
<trkpt lat="46.0342920" lon="10.3948290">
	<ele>1472.20</ele>
	<time>2024-07-24T08:29:17.000Z</time>
</trkpt>
<trkpt lat="46.0342910" lon="10.3948300">
	<ele>1472.20</ele>
	<time>2024-07-24T08:29:18.000Z</time>
</trkpt>
<trkpt lat="46.0342910" lon="10.3948310">
	<ele>1472.20</ele>
	<time>2024-07-24T08:29:19.000Z</time>
</trkpt>
<trkpt lat="46.0342900" lon="10.3948310">
	<ele>1472.20</ele>
	<time>2024-07-24T08:29:20.000Z</time>
</trkpt>
<trkpt lat="46.0342890" lon="10.3948320">
	<ele>1472.20</ele>
	<time>2024-07-24T08:29:21.000Z</time>
</trkpt>
<trkpt lat="46.0342890" lon="10.3948320">
	<ele>1472.20</ele>
	<time>2024-07-24T08:29:22.000Z</time>
</trkpt>
<trkpt lat="46.0342880" lon="10.3948330">
	<ele>1472.20</ele>
	<time>2024-07-24T08:29:23.000Z</time>
</trkpt>
<trkpt lat="46.0342870" lon="10.3948340">
	<ele>1472.20</ele>
	<time>2024-07-24T08:29:24.000Z</time>
</trkpt>
<trkpt lat="46.0342870" lon="10.3948350">
	<ele>1472.20</ele>
	<time>2024-07-24T08:29:25.000Z</time>
</trkpt>
<trkpt lat="46.0342870" lon="10.3948360">
	<ele>1472.20</ele>
	<time>2024-07-24T08:29:26.000Z</time>
</trkpt>
<trkpt lat="46.0342860" lon="10.3948370">
	<ele>1472.20</ele>
	<time>2024-07-24T08:29:27.000Z</time>
</trkpt>
<trkpt lat="46.0342860" lon="10.3948370">
	<ele>1472.20</ele>
	<time>2024-07-24T08:29:28.000Z</time>
</trkpt>
<trkpt lat="46.0342860" lon="10.3948380">
	<ele>1472.20</ele>
	<time>2024-07-24T08:29:29.000Z</time>
</trkpt>
<trkpt lat="46.0342850" lon="10.3948380">
	<ele>1472.20</ele>
	<time>2024-07-24T08:29:30.000Z</time>
</trkpt>
<trkpt lat="46.0342850" lon="10.3948390">
	<ele>1472.20</ele>
	<time>2024-07-24T08:29:31.000Z</time>
</trkpt>
<trkpt lat="46.0342850" lon="10.3948390">
	<ele>1472.20</ele>
	<time>2024-07-24T08:29:32.000Z</time>
</trkpt>
<trkpt lat="46.0342850" lon="10.3948390">
	<ele>1472.20</ele>
	<time>2024-07-24T08:29:33.000Z</time>
</trkpt>
<trkpt lat="46.0342850" lon="10.3948390">
	<ele>1472.20</ele>
	<time>2024-07-24T08:29:34.000Z</time>
</trkpt>
<trkpt lat="46.0342850" lon="10.3948400">
	<ele>1472.20</ele>
	<time>2024-07-24T08:29:35.000Z</time>
</trkpt>
<trkpt lat="46.0342850" lon="10.3948400">
	<ele>1472.20</ele>
	<time>2024-07-24T08:29:36.000Z</time>
</trkpt>
<trkpt lat="46.0342850" lon="10.3948400">
	<ele>1472.20</ele>
	<time>2024-07-24T08:29:37.000Z</time>
</trkpt>
<trkpt lat="46.0342850" lon="10.3948400">
	<ele>1472.20</ele>
	<time>2024-07-24T08:29:38.000Z</time>
</trkpt>
<trkpt lat="46.0342850" lon="10.3948400">
	<ele>1472.20</ele>
	<time>2024-07-24T08:29:39.000Z</time>
</trkpt>
<trkpt lat="46.0342850" lon="10.3948400">
	<ele>1472.20</ele>
	<time>2024-07-24T08:29:40.000Z</time>
</trkpt>
<trkpt lat="46.0342850" lon="10.3948390">
	<ele>1472.20</ele>
	<time>2024-07-24T08:29:41.000Z</time>
</trkpt>
<trkpt lat="46.0342850" lon="10.3948380">
	<ele>1472.20</ele>
	<time>2024-07-24T08:29:42.000Z</time>
</trkpt>
<trkpt lat="46.0342860" lon="10.3948360">
	<ele>1472.20</ele>
	<time>2024-07-24T08:29:43.000Z</time>
</trkpt>
<trkpt lat="46.0342880" lon="10.3948330">
	<ele>1472.20</ele>
	<time>2024-07-24T08:29:44.000Z</time>
</trkpt>
<trkpt lat="46.0342900" lon="10.3948300">
	<ele>1472.20</ele>
	<time>2024-07-24T08:29:45.000Z</time>
</trkpt>
<trkpt lat="46.0342920" lon="10.3948270">
	<ele>1472.20</ele>
	<time>2024-07-24T08:29:46.000Z</time>
</trkpt>
<trkpt lat="46.0342930" lon="10.3948240">
	<ele>1472.20</ele>
	<time>2024-07-24T08:29:47.000Z</time>
</trkpt>
<trkpt lat="46.0342950" lon="10.3948200">
	<ele>1472.20</ele>
	<time>2024-07-24T08:29:48.000Z</time>
</trkpt>
<trkpt lat="46.0342960" lon="10.3948160">
	<ele>1472.20</ele>
	<time>2024-07-24T08:29:49.000Z</time>
</trkpt>
<trkpt lat="46.0342970" lon="10.3948120">
	<ele>1472.20</ele>
	<time>2024-07-24T08:29:50.000Z</time>
</trkpt>
<trkpt lat="46.0342980" lon="10.3948090">
	<ele>1472.20</ele>
	<time>2024-07-24T08:29:51.000Z</time>
</trkpt>
<trkpt lat="46.0342990" lon="10.3948060">
	<ele>1472.20</ele>
	<time>2024-07-24T08:29:52.000Z</time>
</trkpt>
<trkpt lat="46.0343000" lon="10.3948030">
	<ele>1472.20</ele>
	<time>2024-07-24T08:29:53.000Z</time>
</trkpt>
<trkpt lat="46.0343010" lon="10.3948010">
	<ele>1472.20</ele>
	<time>2024-07-24T08:29:54.000Z</time>
</trkpt>
<trkpt lat="46.0343010" lon="10.3948000">
	<ele>1472.20</ele>
	<time>2024-07-24T08:29:55.000Z</time>
</trkpt>
<trkpt lat="46.0343020" lon="10.3947980">
	<ele>1472.20</ele>
	<time>2024-07-24T08:29:56.000Z</time>
</trkpt>
<trkpt lat="46.0343020" lon="10.3947970">
	<ele>1472.20</ele>
	<time>2024-07-24T08:29:57.000Z</time>
</trkpt>
<trkpt lat="46.0343020" lon="10.3947960">
	<ele>1472.20</ele>
	<time>2024-07-24T08:29:58.000Z</time>
</trkpt>
<trkpt lat="46.0343020" lon="10.3947960">
	<ele>1472.20</ele>
	<time>2024-07-24T08:29:59.000Z</time>
</trkpt>
<trkpt lat="46.0343030" lon="10.3947950">
	<ele>1472.20</ele>
	<time>2024-07-24T08:30:00.000Z</time>
</trkpt>
<trkpt lat="46.0343030" lon="10.3947950">
	<ele>1472.20</ele>
	<time>2024-07-24T08:30:01.000Z</time>
</trkpt>
<trkpt lat="46.0343030" lon="10.3947950">
	<ele>1472.20</ele>
	<time>2024-07-24T08:30:02.000Z</time>
</trkpt>
<trkpt lat="46.0343040" lon="10.3947940">
	<ele>1472.20</ele>
	<time>2024-07-24T08:30:03.000Z</time>
</trkpt>
<trkpt lat="46.0343040" lon="10.3947940">
	<ele>1472.20</ele>
	<time>2024-07-24T08:30:04.000Z</time>
</trkpt>
<trkpt lat="46.0343040" lon="10.3947940">
	<ele>1472.20</ele>
	<time>2024-07-24T08:30:05.000Z</time>
</trkpt>
<trkpt lat="46.0343040" lon="10.3947930">
	<ele>1472.20</ele>
	<time>2024-07-24T08:30:06.000Z</time>
</trkpt>
<trkpt lat="46.0343050" lon="10.3947930">
	<ele>1472.20</ele>
	<time>2024-07-24T08:30:07.000Z</time>
</trkpt>
<trkpt lat="46.0343050" lon="10.3947930">
	<ele>1472.20</ele>
	<time>2024-07-24T08:30:08.000Z</time>
</trkpt>
<trkpt lat="46.0343050" lon="10.3947930">
	<ele>1472.20</ele>
	<time>2024-07-24T08:30:09.000Z</time>
</trkpt>
<trkpt lat="46.0343050" lon="10.3947940">
	<ele>1472.20</ele>
	<time>2024-07-24T08:30:10.000Z</time>
</trkpt>
<trkpt lat="46.0343060" lon="10.3947880">
	<ele>1472.20</ele>
	<time>2024-07-24T08:30:11.000Z</time>
</trkpt>
<trkpt lat="46.0343050" lon="10.3947840">
	<ele>1472.20</ele>
	<time>2024-07-24T08:30:12.000Z</time>
</trkpt>
<trkpt lat="46.0343010" lon="10.3947800">
	<ele>1472.20</ele>
	<time>2024-07-24T08:30:13.000Z</time>
</trkpt>
<trkpt lat="46.0342990" lon="10.3947750">
	<ele>1472.20</ele>
	<time>2024-07-24T08:30:14.000Z</time>
</trkpt>
<trkpt lat="46.0342960" lon="10.3947680">
	<ele>1472.20</ele>
	<time>2024-07-24T08:30:15.000Z</time>
</trkpt>
<trkpt lat="46.0342980" lon="10.3947610">
	<ele>1472.20</ele>
	<time>2024-07-24T08:30:16.000Z</time>
</trkpt>
<trkpt lat="46.0343030" lon="10.3947520">
	<ele>1472.20</ele>
	<time>2024-07-24T08:30:17.000Z</time>
</trkpt>
<trkpt lat="46.0343070" lon="10.3947430">
	<ele>1472.20</ele>
	<time>2024-07-24T08:30:18.000Z</time>
</trkpt>
<trkpt lat="46.0343090" lon="10.3947350">
	<ele>1472.20</ele>
	<time>2024-07-24T08:30:19.000Z</time>
</trkpt>
<trkpt lat="46.0343090" lon="10.3947350">
	<ele>1472.20</ele>
	<time>2024-07-24T08:30:20.000Z</time>
</trkpt>
<trkpt lat="46.0343090" lon="10.3947350">
	<ele>1472.20</ele>
	<time>2024-07-24T08:30:21.000Z</time>
</trkpt>
<trkpt lat="46.0343090" lon="10.3947350">
	<ele>1472.20</ele>
	<time>2024-07-24T08:30:22.000Z</time>
</trkpt>
<trkpt lat="46.0343090" lon="10.3947350">
	<ele>1472.20</ele>
	<time>2024-07-24T08:30:23.000Z</time>
</trkpt>
<trkpt lat="46.0343090" lon="10.3947350">
	<ele>1472.20</ele>
	<time>2024-07-24T08:30:24.000Z</time>
</trkpt>
<trkpt lat="46.0343090" lon="10.3947350">
	<ele>1472.20</ele>
	<time>2024-07-24T08:30:25.000Z</time>
</trkpt>
<trkpt lat="46.0343090" lon="10.3947350">
	<ele>1472.20</ele>
	<time>2024-07-24T08:30:26.000Z</time>
</trkpt>
<trkpt lat="46.0343070" lon="10.3947350">
	<ele>1472.20</ele>
	<time>2024-07-24T08:30:27.000Z</time>
</trkpt>
<trkpt lat="46.0343060" lon="10.3947350">
	<ele>1472.20</ele>
	<time>2024-07-24T08:30:28.000Z</time>
</trkpt>
<trkpt lat="46.0343060" lon="10.3947350">
	<ele>1472.20</ele>
	<time>2024-07-24T08:30:29.000Z</time>
</trkpt>
<trkpt lat="46.0343060" lon="10.3947350">
	<ele>1472.20</ele>
	<time>2024-07-24T08:30:30.000Z</time>
</trkpt>
<trkpt lat="46.0343060" lon="10.3947350">
	<ele>1472.20</ele>
	<time>2024-07-24T08:30:31.000Z</time>
</trkpt>
<trkpt lat="46.0343060" lon="10.3947350">
	<ele>1472.20</ele>
	<time>2024-07-24T08:30:32.000Z</time>
</trkpt>
<trkpt lat="46.0343060" lon="10.3947350">
	<ele>1472.20</ele>
	<time>2024-07-24T08:30:33.000Z</time>
</trkpt>
<trkpt lat="46.0343060" lon="10.3947350">
	<ele>1472.20</ele>
	<time>2024-07-24T08:30:34.000Z</time>
</trkpt>
<trkpt lat="46.0343060" lon="10.3947350">
	<ele>1472.20</ele>
	<time>2024-07-24T08:30:35.000Z</time>
</trkpt>
<trkpt lat="46.0343060" lon="10.3947350">
	<ele>1472.20</ele>
	<time>2024-07-24T08:30:36.000Z</time>
</trkpt>
<trkpt lat="46.0343060" lon="10.3947350">
	<ele>1472.20</ele>
	<time>2024-07-24T08:30:37.000Z</time>
</trkpt>
<trkpt lat="46.0343060" lon="10.3947350">
	<ele>1472.20</ele>
	<time>2024-07-24T08:30:38.000Z</time>
</trkpt>
<trkpt lat="46.0343060" lon="10.3947350">
	<ele>1472.20</ele>
	<time>2024-07-24T08:30:39.000Z</time>
</trkpt>
<trkpt lat="46.0343060" lon="10.3947340">
	<ele>1472.20</ele>
	<time>2024-07-24T08:30:40.000Z</time>
</trkpt>
<trkpt lat="46.0343070" lon="10.3947340">
	<ele>1472.20</ele>
	<time>2024-07-24T08:30:41.000Z</time>
</trkpt>
<trkpt lat="46.0343070" lon="10.3947340">
	<ele>1472.20</ele>
	<time>2024-07-24T08:30:42.000Z</time>
</trkpt>
<trkpt lat="46.0343080" lon="10.3947340">
	<ele>1472.20</ele>
	<time>2024-07-24T08:30:43.000Z</time>
</trkpt>
<trkpt lat="46.0343090" lon="10.3947340">
	<ele>1472.20</ele>
	<time>2024-07-24T08:30:44.000Z</time>
</trkpt>
<trkpt lat="46.0343130" lon="10.3947350">
	<ele>1472.20</ele>
	<time>2024-07-24T08:30:45.000Z</time>
</trkpt>
<trkpt lat="46.0343270" lon="10.3947270">
	<ele>1472.20</ele>
	<time>2024-07-24T08:30:46.000Z</time>
</trkpt>
<trkpt lat="46.0343410" lon="10.3947200">
	<ele>1472.20</ele>
	<time>2024-07-24T08:30:47.000Z</time>
</trkpt>
<trkpt lat="46.0343550" lon="10.3947150">
	<ele>1472.20</ele>
	<time>2024-07-24T08:30:48.000Z</time>
</trkpt>
<trkpt lat="46.0343650" lon="10.3947120">
	<ele>1472.20</ele>
	<time>2024-07-24T08:30:49.000Z</time>
</trkpt>
<trkpt lat="46.0343750" lon="10.3947090">
	<ele>1472.20</ele>
	<time>2024-07-24T08:30:50.000Z</time>
</trkpt>
<trkpt lat="46.0343790" lon="10.3947050">
	<ele>1472.20</ele>
	<time>2024-07-24T08:30:51.000Z</time>
</trkpt>
<trkpt lat="46.0343860" lon="10.3947000">
	<ele>1472.20</ele>
	<time>2024-07-24T08:30:52.000Z</time>
</trkpt>
<trkpt lat="46.0343940" lon="10.3946990">
	<ele>1472.20</ele>
	<time>2024-07-24T08:30:53.000Z</time>
</trkpt>
<trkpt lat="46.0344000" lon="10.3946980">
	<ele>1472.20</ele>
	<time>2024-07-24T08:30:54.000Z</time>
</trkpt>
<trkpt lat="46.0344040" lon="10.3946940">
	<ele>1472.20</ele>
	<time>2024-07-24T08:30:55.000Z</time>
</trkpt>
<trkpt lat="46.0344090" lon="10.3946910">
	<ele>1472.20</ele>
	<time>2024-07-24T08:30:56.000Z</time>
</trkpt>
<trkpt lat="46.0344170" lon="10.3946880">
	<ele>1472.20</ele>
	<time>2024-07-24T08:30:57.000Z</time>
</trkpt>
<trkpt lat="46.0344230" lon="10.3946850">
	<ele>1472.20</ele>
	<time>2024-07-24T08:30:58.000Z</time>
</trkpt>
<trkpt lat="46.0344240" lon="10.3946850">
	<ele>1472.40</ele>
	<time>2024-07-24T08:30:59.000Z</time>
</trkpt>
<trkpt lat="46.0344230" lon="10.3946870">
	<ele>1472.40</ele>
	<time>2024-07-24T08:31:00.000Z</time>
</trkpt>
<trkpt lat="46.0344300" lon="10.3946840">
	<ele>1472.40</ele>
	<time>2024-07-24T08:31:01.000Z</time>
</trkpt>
<trkpt lat="46.0344330" lon="10.3946820">
	<ele>1472.60</ele>
	<time>2024-07-24T08:31:02.000Z</time>
</trkpt>
<trkpt lat="46.0344320" lon="10.3946810">
	<ele>1472.60</ele>
	<time>2024-07-24T08:31:03.000Z</time>
</trkpt>
<trkpt lat="46.0344340" lon="10.3946790">
	<ele>1472.60</ele>
	<time>2024-07-24T08:31:04.000Z</time>
</trkpt>
<trkpt lat="46.0344430" lon="10.3946800">
	<ele>1472.60</ele>
	<time>2024-07-24T08:31:05.000Z</time>
</trkpt>
<trkpt lat="46.0344450" lon="10.3946810">
	<ele>1472.60</ele>
	<time>2024-07-24T08:31:06.000Z</time>
</trkpt>
<trkpt lat="46.0344470" lon="10.3946830">
	<ele>1472.60</ele>
	<time>2024-07-24T08:31:07.000Z</time>
</trkpt>
<trkpt lat="46.0344460" lon="10.3946840">
	<ele>1472.60</ele>
	<time>2024-07-24T08:31:08.000Z</time>
</trkpt>
<trkpt lat="46.0344450" lon="10.3946850">
	<ele>1472.60</ele>
	<time>2024-07-24T08:31:09.000Z</time>
</trkpt>
<trkpt lat="46.0344450" lon="10.3946850">
	<ele>1472.60</ele>
	<time>2024-07-24T08:31:10.000Z</time>
</trkpt>
<trkpt lat="46.0344440" lon="10.3946850">
	<ele>1472.60</ele>
	<time>2024-07-24T08:31:11.000Z</time>
</trkpt>
<trkpt lat="46.0344440" lon="10.3946850">
	<ele>1472.60</ele>
	<time>2024-07-24T08:31:12.000Z</time>
</trkpt>
<trkpt lat="46.0344440" lon="10.3946850">
	<ele>1472.60</ele>
	<time>2024-07-24T08:31:13.000Z</time>
</trkpt>
<trkpt lat="46.0344440" lon="10.3946850">
	<ele>1472.60</ele>
	<time>2024-07-24T08:31:14.000Z</time>
</trkpt>
<trkpt lat="46.0344440" lon="10.3946850">
	<ele>1472.60</ele>
	<time>2024-07-24T08:31:15.000Z</time>
</trkpt>
<trkpt lat="46.0344440" lon="10.3946850">
	<ele>1472.60</ele>
	<time>2024-07-24T08:31:16.000Z</time>
</trkpt>
<trkpt lat="46.0344440" lon="10.3946850">
	<ele>1472.60</ele>
	<time>2024-07-24T08:31:17.000Z</time>
</trkpt>
<trkpt lat="46.0344440" lon="10.3946850">
	<ele>1472.40</ele>
	<time>2024-07-24T08:31:18.000Z</time>
</trkpt>
<trkpt lat="46.0344440" lon="10.3946850">
	<ele>1472.40</ele>
	<time>2024-07-24T08:31:19.000Z</time>
</trkpt>
<trkpt lat="46.0344440" lon="10.3946850">
	<ele>1472.40</ele>
	<time>2024-07-24T08:31:20.000Z</time>
</trkpt>
<trkpt lat="46.0344440" lon="10.3946850">
	<ele>1472.60</ele>
	<time>2024-07-24T08:31:21.000Z</time>
</trkpt>
<trkpt lat="46.0344440" lon="10.3946850">
	<ele>1472.60</ele>
	<time>2024-07-24T08:31:22.000Z</time>
</trkpt>
<trkpt lat="46.0344440" lon="10.3946850">
	<ele>1472.60</ele>
	<time>2024-07-24T08:31:23.000Z</time>
</trkpt>
<trkpt lat="46.0344440" lon="10.3946850">
	<ele>1472.60</ele>
	<time>2024-07-24T08:31:24.000Z</time>
</trkpt>
<trkpt lat="46.0344480" lon="10.3946800">
	<ele>1472.80</ele>
	<time>2024-07-24T08:31:25.000Z</time>
</trkpt>
<trkpt lat="46.0344550" lon="10.3946670">
	<ele>1473.00</ele>
	<time>2024-07-24T08:31:26.000Z</time>
</trkpt>
<trkpt lat="46.0344630" lon="10.3946520">
	<ele>1473.20</ele>
	<time>2024-07-24T08:31:27.000Z</time>
</trkpt>
<trkpt lat="46.0344690" lon="10.3946400">
	<ele>1473.40</ele>
	<time>2024-07-24T08:31:28.000Z</time>
</trkpt>
<trkpt lat="46.0344820" lon="10.3946240">
	<ele>1473.60</ele>
	<time>2024-07-24T08:31:29.000Z</time>
</trkpt>
<trkpt lat="46.0344960" lon="10.3946140">
	<ele>1473.60</ele>
	<time>2024-07-24T08:31:30.000Z</time>
</trkpt>
<trkpt lat="46.0345160" lon="10.3946080">
	<ele>1473.80</ele>
	<time>2024-07-24T08:31:31.000Z</time>
</trkpt>
<trkpt lat="46.0345350" lon="10.3945980">
	<ele>1474.00</ele>
	<time>2024-07-24T08:31:32.000Z</time>
</trkpt>
<trkpt lat="46.0345490" lon="10.3945900">
	<ele>1474.20</ele>
	<time>2024-07-24T08:31:33.000Z</time>
</trkpt>
<trkpt lat="46.0345630" lon="10.3945840">
	<ele>1474.40</ele>
	<time>2024-07-24T08:31:34.000Z</time>
</trkpt>
<trkpt lat="46.0345730" lon="10.3945820">
	<ele>1474.60</ele>
	<time>2024-07-24T08:31:35.000Z</time>
</trkpt>
<trkpt lat="46.0345840" lon="10.3945790">
	<ele>1474.60</ele>
	<time>2024-07-24T08:31:36.000Z</time>
</trkpt>
<trkpt lat="46.0345930" lon="10.3945770">
	<ele>1474.80</ele>
	<time>2024-07-24T08:31:37.000Z</time>
</trkpt>
<trkpt lat="46.0345990" lon="10.3945730">
	<ele>1474.80</ele>
	<time>2024-07-24T08:31:38.000Z</time>
</trkpt>
<trkpt lat="46.0346090" lon="10.3945650">
	<ele>1475.00</ele>
	<time>2024-07-24T08:31:39.000Z</time>
</trkpt>
<trkpt lat="46.0346200" lon="10.3945560">
	<ele>1475.00</ele>
	<time>2024-07-24T08:31:40.000Z</time>
</trkpt>
<trkpt lat="46.0346250" lon="10.3945530">
	<ele>1475.20</ele>
	<time>2024-07-24T08:31:41.000Z</time>
</trkpt>
<trkpt lat="46.0346320" lon="10.3945520">
	<ele>1475.20</ele>
	<time>2024-07-24T08:31:42.000Z</time>
</trkpt>
<trkpt lat="46.0346380" lon="10.3945490">
	<ele>1475.60</ele>
	<time>2024-07-24T08:31:43.000Z</time>
</trkpt>
<trkpt lat="46.0346480" lon="10.3945430">
	<ele>1475.80</ele>
	<time>2024-07-24T08:31:44.000Z</time>
</trkpt>
<trkpt lat="46.0346580" lon="10.3945350">
	<ele>1476.00</ele>
	<time>2024-07-24T08:31:45.000Z</time>
</trkpt>
<trkpt lat="46.0346790" lon="10.3945290">
	<ele>1476.20</ele>
	<time>2024-07-24T08:31:46.000Z</time>
</trkpt>
<trkpt lat="46.0346990" lon="10.3945240">
	<ele>1476.20</ele>
	<time>2024-07-24T08:31:47.000Z</time>
</trkpt>
<trkpt lat="46.0347190" lon="10.3945190">
	<ele>1476.40</ele>
	<time>2024-07-24T08:31:48.000Z</time>
</trkpt>
<trkpt lat="46.0347280" lon="10.3945120">
	<ele>1476.60</ele>
	<time>2024-07-24T08:31:49.000Z</time>
</trkpt>
<trkpt lat="46.0347330" lon="10.3945050">
	<ele>1476.60</ele>
	<time>2024-07-24T08:31:50.000Z</time>
</trkpt>
<trkpt lat="46.0347350" lon="10.3944970">
	<ele>1476.80</ele>
	<time>2024-07-24T08:31:51.000Z</time>
</trkpt>
<trkpt lat="46.0347470" lon="10.3944970">
	<ele>1477.00</ele>
	<time>2024-07-24T08:31:52.000Z</time>
</trkpt>
<trkpt lat="46.0347660" lon="10.3944920">
	<ele>1477.00</ele>
	<time>2024-07-24T08:31:53.000Z</time>
</trkpt>
<trkpt lat="46.0347710" lon="10.3944890">
	<ele>1477.20</ele>
	<time>2024-07-24T08:31:54.000Z</time>
</trkpt>
<trkpt lat="46.0347840" lon="10.3944900">
	<ele>1477.40</ele>
	<time>2024-07-24T08:31:55.000Z</time>
</trkpt>
<trkpt lat="46.0348000" lon="10.3944840">
	<ele>1477.60</ele>
	<time>2024-07-24T08:31:56.000Z</time>
</trkpt>
<trkpt lat="46.0348140" lon="10.3944840">
	<ele>1477.80</ele>
	<time>2024-07-24T08:31:57.000Z</time>
</trkpt>
<trkpt lat="46.0348250" lon="10.3944890">
	<ele>1478.00</ele>
	<time>2024-07-24T08:31:58.000Z</time>
</trkpt>
<trkpt lat="46.0348370" lon="10.3944880">
	<ele>1478.20</ele>
	<time>2024-07-24T08:31:59.000Z</time>
</trkpt>
<trkpt lat="46.0348450" lon="10.3944820">
	<ele>1478.40</ele>
	<time>2024-07-24T08:32:00.000Z</time>
</trkpt>
<trkpt lat="46.0348580" lon="10.3944770">
	<ele>1478.60</ele>
	<time>2024-07-24T08:32:01.000Z</time>
</trkpt>
<trkpt lat="46.0348640" lon="10.3944810">
	<ele>1478.80</ele>
	<time>2024-07-24T08:32:02.000Z</time>
</trkpt>
<trkpt lat="46.0348710" lon="10.3944830">
	<ele>1478.80</ele>
	<time>2024-07-24T08:32:03.000Z</time>
</trkpt>
<trkpt lat="46.0348790" lon="10.3944820">
	<ele>1479.00</ele>
	<time>2024-07-24T08:32:04.000Z</time>
</trkpt>
<trkpt lat="46.0348840" lon="10.3944780">
	<ele>1479.20</ele>
	<time>2024-07-24T08:32:05.000Z</time>
</trkpt>
<trkpt lat="46.0348890" lon="10.3944740">
	<ele>1479.40</ele>
	<time>2024-07-24T08:32:06.000Z</time>
</trkpt>
<trkpt lat="46.0348950" lon="10.3944680">
	<ele>1479.60</ele>
	<time>2024-07-24T08:32:07.000Z</time>
</trkpt>
<trkpt lat="46.0349030" lon="10.3944620">
	<ele>1479.60</ele>
	<time>2024-07-24T08:32:08.000Z</time>
</trkpt>
<trkpt lat="46.0349120" lon="10.3944550">
	<ele>1480.00</ele>
	<time>2024-07-24T08:32:09.000Z</time>
</trkpt>
<trkpt lat="46.0349190" lon="10.3944490">
	<ele>1480.20</ele>
	<time>2024-07-24T08:32:10.000Z</time>
</trkpt>
<trkpt lat="46.0349310" lon="10.3944400">
	<ele>1480.40</ele>
	<time>2024-07-24T08:32:11.000Z</time>
</trkpt>
<trkpt lat="46.0349420" lon="10.3944320">
	<ele>1480.60</ele>
	<time>2024-07-24T08:32:12.000Z</time>
</trkpt>
<trkpt lat="46.0349580" lon="10.3944210">
	<ele>1480.80</ele>
	<time>2024-07-24T08:32:13.000Z</time>
</trkpt>
<trkpt lat="46.0349680" lon="10.3944060">
	<ele>1481.00</ele>
	<time>2024-07-24T08:32:14.000Z</time>
</trkpt>
<trkpt lat="46.0349800" lon="10.3943930">
	<ele>1481.20</ele>
	<time>2024-07-24T08:32:15.000Z</time>
</trkpt>
<trkpt lat="46.0349890" lon="10.3943750">
	<ele>1481.40</ele>
	<time>2024-07-24T08:32:16.000Z</time>
</trkpt>
<trkpt lat="46.0349950" lon="10.3943690">
	<ele>1481.40</ele>
	<time>2024-07-24T08:32:17.000Z</time>
</trkpt>
<trkpt lat="46.0350040" lon="10.3943620">
	<ele>1481.40</ele>
	<time>2024-07-24T08:32:18.000Z</time>
</trkpt>
<trkpt lat="46.0350110" lon="10.3943560">
	<ele>1481.60</ele>
	<time>2024-07-24T08:32:19.000Z</time>
</trkpt>
<trkpt lat="46.0350110" lon="10.3943560">
	<ele>1481.80</ele>
	<time>2024-07-24T08:32:20.000Z</time>
</trkpt>
<trkpt lat="46.0350100" lon="10.3943560">
	<ele>1481.80</ele>
	<time>2024-07-24T08:32:21.000Z</time>
</trkpt>
<trkpt lat="46.0350110" lon="10.3943530">
	<ele>1482.00</ele>
	<time>2024-07-24T08:32:22.000Z</time>
</trkpt>
<trkpt lat="46.0350120" lon="10.3943440">
	<ele>1482.00</ele>
	<time>2024-07-24T08:32:23.000Z</time>
</trkpt>
<trkpt lat="46.0350110" lon="10.3943360">
	<ele>1482.00</ele>
	<time>2024-07-24T08:32:24.000Z</time>
</trkpt>
<trkpt lat="46.0350100" lon="10.3943310">
	<ele>1482.00</ele>
	<time>2024-07-24T08:32:25.000Z</time>
</trkpt>
<trkpt lat="46.0350150" lon="10.3943350">
	<ele>1482.00</ele>
	<time>2024-07-24T08:32:26.000Z</time>
</trkpt>
<trkpt lat="46.0350140" lon="10.3943380">
	<ele>1482.00</ele>
	<time>2024-07-24T08:32:27.000Z</time>
</trkpt>
<trkpt lat="46.0350120" lon="10.3943370">
	<ele>1482.00</ele>
	<time>2024-07-24T08:32:28.000Z</time>
</trkpt>
<trkpt lat="46.0350120" lon="10.3943360">
	<ele>1482.00</ele>
	<time>2024-07-24T08:32:29.000Z</time>
</trkpt>
<trkpt lat="46.0350130" lon="10.3943350">
	<ele>1482.00</ele>
	<time>2024-07-24T08:32:30.000Z</time>
</trkpt>
<trkpt lat="46.0350150" lon="10.3943330">
	<ele>1482.00</ele>
	<time>2024-07-24T08:32:31.000Z</time>
</trkpt>
<trkpt lat="46.0350160" lon="10.3943350">
	<ele>1482.00</ele>
	<time>2024-07-24T08:32:32.000Z</time>
</trkpt>
<trkpt lat="46.0350190" lon="10.3943330">
	<ele>1482.00</ele>
	<time>2024-07-24T08:32:33.000Z</time>
</trkpt>
<trkpt lat="46.0350190" lon="10.3943310">
	<ele>1481.80</ele>
	<time>2024-07-24T08:32:34.000Z</time>
</trkpt>
<trkpt lat="46.0350200" lon="10.3943290">
	<ele>1482.00</ele>
	<time>2024-07-24T08:32:35.000Z</time>
</trkpt>
<trkpt lat="46.0350210" lon="10.3943260">
	<ele>1482.00</ele>
	<time>2024-07-24T08:32:36.000Z</time>
</trkpt>
<trkpt lat="46.0350220" lon="10.3943240">
	<ele>1481.80</ele>
	<time>2024-07-24T08:32:37.000Z</time>
</trkpt>
<trkpt lat="46.0350190" lon="10.3943290">
	<ele>1481.80</ele>
	<time>2024-07-24T08:32:38.000Z</time>
</trkpt>
<trkpt lat="46.0350190" lon="10.3943270">
	<ele>1481.80</ele>
	<time>2024-07-24T08:32:39.000Z</time>
</trkpt>
<trkpt lat="46.0350190" lon="10.3943240">
	<ele>1481.80</ele>
	<time>2024-07-24T08:32:40.000Z</time>
</trkpt>
<trkpt lat="46.0350220" lon="10.3943200">
	<ele>1481.80</ele>
	<time>2024-07-24T08:32:41.000Z</time>
</trkpt>
<trkpt lat="46.0350230" lon="10.3943190">
	<ele>1481.80</ele>
	<time>2024-07-24T08:32:42.000Z</time>
</trkpt>
<trkpt lat="46.0350300" lon="10.3943130">
	<ele>1482.00</ele>
	<time>2024-07-24T08:32:43.000Z</time>
</trkpt>
<trkpt lat="46.0350350" lon="10.3943110">
	<ele>1482.00</ele>
	<time>2024-07-24T08:32:44.000Z</time>
</trkpt>
<trkpt lat="46.0350400" lon="10.3943080">
	<ele>1482.00</ele>
	<time>2024-07-24T08:32:45.000Z</time>
</trkpt>
<trkpt lat="46.0350460" lon="10.3943000">
	<ele>1482.00</ele>
	<time>2024-07-24T08:32:46.000Z</time>
</trkpt>
<trkpt lat="46.0350480" lon="10.3942920">
	<ele>1482.00</ele>
	<time>2024-07-24T08:32:47.000Z</time>
</trkpt>
<trkpt lat="46.0350510" lon="10.3942860">
	<ele>1482.00</ele>
	<time>2024-07-24T08:32:48.000Z</time>
</trkpt>
<trkpt lat="46.0350520" lon="10.3942790">
	<ele>1482.00</ele>
	<time>2024-07-24T08:32:49.000Z</time>
</trkpt>
<trkpt lat="46.0350580" lon="10.3942740">
	<ele>1482.20</ele>
	<time>2024-07-24T08:32:50.000Z</time>
</trkpt>
<trkpt lat="46.0350650" lon="10.3942700">
	<ele>1482.20</ele>
	<time>2024-07-24T08:32:51.000Z</time>
</trkpt>
<trkpt lat="46.0350760" lon="10.3942660">
	<ele>1482.40</ele>
	<time>2024-07-24T08:32:52.000Z</time>
</trkpt>
<trkpt lat="46.0350800" lon="10.3942520">
	<ele>1482.40</ele>
	<time>2024-07-24T08:32:53.000Z</time>
</trkpt>
<trkpt lat="46.0350810" lon="10.3942410">
	<ele>1482.40</ele>
	<time>2024-07-24T08:32:54.000Z</time>
</trkpt>
<trkpt lat="46.0350880" lon="10.3942360">
	<ele>1482.60</ele>
	<time>2024-07-24T08:32:55.000Z</time>
</trkpt>
<trkpt lat="46.0350990" lon="10.3942350">
	<ele>1482.60</ele>
	<time>2024-07-24T08:32:56.000Z</time>
</trkpt>
<trkpt lat="46.0351090" lon="10.3942310">
	<ele>1482.80</ele>
	<time>2024-07-24T08:32:57.000Z</time>
</trkpt>
<trkpt lat="46.0351190" lon="10.3942250">
	<ele>1482.80</ele>
	<time>2024-07-24T08:32:58.000Z</time>
</trkpt>
<trkpt lat="46.0351310" lon="10.3942160">
	<ele>1483.00</ele>
	<time>2024-07-24T08:32:59.000Z</time>
</trkpt>
<trkpt lat="46.0351410" lon="10.3942100">
	<ele>1483.00</ele>
	<time>2024-07-24T08:33:00.000Z</time>
</trkpt>
<trkpt lat="46.0351510" lon="10.3942030">
	<ele>1483.20</ele>
	<time>2024-07-24T08:33:01.000Z</time>
</trkpt>
<trkpt lat="46.0351640" lon="10.3941970">
	<ele>1483.20</ele>
	<time>2024-07-24T08:33:02.000Z</time>
</trkpt>
<trkpt lat="46.0351760" lon="10.3941890">
	<ele>1483.40</ele>
	<time>2024-07-24T08:33:03.000Z</time>
</trkpt>
<trkpt lat="46.0351880" lon="10.3941840">
	<ele>1483.40</ele>
	<time>2024-07-24T08:33:04.000Z</time>
</trkpt>
<trkpt lat="46.0352000" lon="10.3941770">
	<ele>1483.40</ele>
	<time>2024-07-24T08:33:05.000Z</time>
</trkpt>
<trkpt lat="46.0352100" lon="10.3941700">
	<ele>1483.60</ele>
	<time>2024-07-24T08:33:06.000Z</time>
</trkpt>
<trkpt lat="46.0352180" lon="10.3941610">
	<ele>1483.80</ele>
	<time>2024-07-24T08:33:07.000Z</time>
</trkpt>
<trkpt lat="46.0352310" lon="10.3941560">
	<ele>1483.80</ele>
	<time>2024-07-24T08:33:08.000Z</time>
</trkpt>
<trkpt lat="46.0352420" lon="10.3941510">
	<ele>1483.80</ele>
	<time>2024-07-24T08:33:09.000Z</time>
</trkpt>
<trkpt lat="46.0352540" lon="10.3941480">
	<ele>1484.00</ele>
	<time>2024-07-24T08:33:10.000Z</time>
</trkpt>
<trkpt lat="46.0352650" lon="10.3941450">
	<ele>1484.20</ele>
	<time>2024-07-24T08:33:11.000Z</time>
</trkpt>
<trkpt lat="46.0352710" lon="10.3941450">
	<ele>1484.20</ele>
	<time>2024-07-24T08:33:12.000Z</time>
</trkpt>
<trkpt lat="46.0352750" lon="10.3941510">
	<ele>1484.40</ele>
	<time>2024-07-24T08:33:13.000Z</time>
</trkpt>
<trkpt lat="46.0352790" lon="10.3941510">
	<ele>1484.40</ele>
	<time>2024-07-24T08:33:14.000Z</time>
</trkpt>
<trkpt lat="46.0352870" lon="10.3941480">
	<ele>1484.60</ele>
	<time>2024-07-24T08:33:15.000Z</time>
</trkpt>
<trkpt lat="46.0352970" lon="10.3941460">
	<ele>1484.80</ele>
	<time>2024-07-24T08:33:16.000Z</time>
</trkpt>
<trkpt lat="46.0353110" lon="10.3941470">
	<ele>1485.00</ele>
	<time>2024-07-24T08:33:17.000Z</time>
</trkpt>
<trkpt lat="46.0353210" lon="10.3941430">
	<ele>1485.00</ele>
	<time>2024-07-24T08:33:18.000Z</time>
</trkpt>
<trkpt lat="46.0353330" lon="10.3941340">
	<ele>1485.00</ele>
	<time>2024-07-24T08:33:19.000Z</time>
</trkpt>
<trkpt lat="46.0353450" lon="10.3941120">
	<ele>1485.20</ele>
	<time>2024-07-24T08:33:20.000Z</time>
</trkpt>
<trkpt lat="46.0353550" lon="10.3940960">
	<ele>1485.20</ele>
	<time>2024-07-24T08:33:21.000Z</time>
</trkpt>
<trkpt lat="46.0353630" lon="10.3940810">
	<ele>1485.40</ele>
	<time>2024-07-24T08:33:22.000Z</time>
</trkpt>
<trkpt lat="46.0353710" lon="10.3940670">
	<ele>1485.40</ele>
	<time>2024-07-24T08:33:23.000Z</time>
</trkpt>
<trkpt lat="46.0353770" lon="10.3940580">
	<ele>1485.40</ele>
	<time>2024-07-24T08:33:24.000Z</time>
</trkpt>
<trkpt lat="46.0353850" lon="10.3940490">
	<ele>1485.60</ele>
	<time>2024-07-24T08:33:25.000Z</time>
</trkpt>
<trkpt lat="46.0353910" lon="10.3940380">
	<ele>1485.60</ele>
	<time>2024-07-24T08:33:26.000Z</time>
</trkpt>
<trkpt lat="46.0354010" lon="10.3940260">
	<ele>1485.60</ele>
	<time>2024-07-24T08:33:27.000Z</time>
</trkpt>
<trkpt lat="46.0354090" lon="10.3940150">
	<ele>1485.80</ele>
	<time>2024-07-24T08:33:28.000Z</time>
</trkpt>
<trkpt lat="46.0354170" lon="10.3940030">
	<ele>1485.80</ele>
	<time>2024-07-24T08:33:29.000Z</time>
</trkpt>
<trkpt lat="46.0354250" lon="10.3939890">
	<ele>1485.80</ele>
	<time>2024-07-24T08:33:30.000Z</time>
</trkpt>
<trkpt lat="46.0354370" lon="10.3939770">
	<ele>1486.00</ele>
	<time>2024-07-24T08:33:31.000Z</time>
</trkpt>
<trkpt lat="46.0354520" lon="10.3939700">
	<ele>1486.20</ele>
	<time>2024-07-24T08:33:32.000Z</time>
</trkpt>
<trkpt lat="46.0354640" lon="10.3939680">
	<ele>1486.40</ele>
	<time>2024-07-24T08:33:33.000Z</time>
</trkpt>
<trkpt lat="46.0354770" lon="10.3939610">
	<ele>1486.60</ele>
	<time>2024-07-24T08:33:34.000Z</time>
</trkpt>
<trkpt lat="46.0354870" lon="10.3939490">
	<ele>1486.60</ele>
	<time>2024-07-24T08:33:35.000Z</time>
</trkpt>
<trkpt lat="46.0354980" lon="10.3939390">
	<ele>1486.80</ele>
	<time>2024-07-24T08:33:36.000Z</time>
</trkpt>
<trkpt lat="46.0355060" lon="10.3939310">
	<ele>1486.80</ele>
	<time>2024-07-24T08:33:37.000Z</time>
</trkpt>
<trkpt lat="46.0355140" lon="10.3939230">
	<ele>1487.00</ele>
	<time>2024-07-24T08:33:38.000Z</time>
</trkpt>
<trkpt lat="46.0355230" lon="10.3939120">
	<ele>1487.00</ele>
	<time>2024-07-24T08:33:39.000Z</time>
</trkpt>
<trkpt lat="46.0355300" lon="10.3938980">
	<ele>1487.20</ele>
	<time>2024-07-24T08:33:40.000Z</time>
</trkpt>
<trkpt lat="46.0355370" lon="10.3938870">
	<ele>1487.40</ele>
	<time>2024-07-24T08:33:41.000Z</time>
</trkpt>
<trkpt lat="46.0355450" lon="10.3938800">
	<ele>1487.60</ele>
	<time>2024-07-24T08:33:42.000Z</time>
</trkpt>
<trkpt lat="46.0355520" lon="10.3938720">
	<ele>1487.80</ele>
	<time>2024-07-24T08:33:43.000Z</time>
</trkpt>
<trkpt lat="46.0355600" lon="10.3938660">
	<ele>1488.00</ele>
	<time>2024-07-24T08:33:44.000Z</time>
</trkpt>
<trkpt lat="46.0355650" lon="10.3938620">
	<ele>1488.20</ele>
	<time>2024-07-24T08:33:45.000Z</time>
</trkpt>
<trkpt lat="46.0355710" lon="10.3938600">
	<ele>1488.40</ele>
	<time>2024-07-24T08:33:46.000Z</time>
</trkpt>
<trkpt lat="46.0355750" lon="10.3938570">
	<ele>1488.60</ele>
	<time>2024-07-24T08:33:47.000Z</time>
</trkpt>
<trkpt lat="46.0355860" lon="10.3938500">
	<ele>1488.60</ele>
	<time>2024-07-24T08:33:48.000Z</time>
</trkpt>
<trkpt lat="46.0355930" lon="10.3938430">
	<ele>1488.80</ele>
	<time>2024-07-24T08:33:49.000Z</time>
</trkpt>
<trkpt lat="46.0355940" lon="10.3938320">
	<ele>1489.00</ele>
	<time>2024-07-24T08:33:50.000Z</time>
</trkpt>
<trkpt lat="46.0355930" lon="10.3938250">
	<ele>1489.20</ele>
	<time>2024-07-24T08:33:51.000Z</time>
</trkpt>
<trkpt lat="46.0355980" lon="10.3938160">
	<ele>1489.60</ele>
	<time>2024-07-24T08:33:52.000Z</time>
</trkpt>
<trkpt lat="46.0356030" lon="10.3938070">
	<ele>1489.80</ele>
	<time>2024-07-24T08:33:53.000Z</time>
</trkpt>
<trkpt lat="46.0356150" lon="10.3938010">
	<ele>1490.00</ele>
	<time>2024-07-24T08:33:54.000Z</time>
</trkpt>
<trkpt lat="46.0356150" lon="10.3937990">
	<ele>1490.40</ele>
	<time>2024-07-24T08:33:55.000Z</time>
</trkpt>
<trkpt lat="46.0356200" lon="10.3937890">
	<ele>1490.60</ele>
	<time>2024-07-24T08:33:56.000Z</time>
</trkpt>
<trkpt lat="46.0356250" lon="10.3937800">
	<ele>1490.80</ele>
	<time>2024-07-24T08:33:57.000Z</time>
</trkpt>
<trkpt lat="46.0356320" lon="10.3937660">
	<ele>1491.00</ele>
	<time>2024-07-24T08:33:58.000Z</time>
</trkpt>
<trkpt lat="46.0356410" lon="10.3937530">
	<ele>1491.00</ele>
	<time>2024-07-24T08:33:59.000Z</time>
</trkpt>
<trkpt lat="46.0356500" lon="10.3937430">
	<ele>1491.20</ele>
	<time>2024-07-24T08:34:00.000Z</time>
</trkpt>
<trkpt lat="46.0356630" lon="10.3937320">
	<ele>1491.40</ele>
	<time>2024-07-24T08:34:01.000Z</time>
</trkpt>
<trkpt lat="46.0356730" lon="10.3937200">
	<ele>1491.60</ele>
	<time>2024-07-24T08:34:02.000Z</time>
</trkpt>
<trkpt lat="46.0356810" lon="10.3937090">
	<ele>1492.00</ele>
	<time>2024-07-24T08:34:03.000Z</time>
</trkpt>
<trkpt lat="46.0356860" lon="10.3936990">
	<ele>1492.20</ele>
	<time>2024-07-24T08:34:04.000Z</time>
</trkpt>
<trkpt lat="46.0356940" lon="10.3936860">
	<ele>1492.40</ele>
	<time>2024-07-24T08:34:05.000Z</time>
</trkpt>
<trkpt lat="46.0357010" lon="10.3936740">
	<ele>1492.40</ele>
	<time>2024-07-24T08:34:06.000Z</time>
</trkpt>
<trkpt lat="46.0356980" lon="10.3936580">
	<ele>1492.80</ele>
	<time>2024-07-24T08:34:07.000Z</time>
</trkpt>
<trkpt lat="46.0356880" lon="10.3936340">
	<ele>1493.00</ele>
	<time>2024-07-24T08:34:08.000Z</time>
</trkpt>
<trkpt lat="46.0356960" lon="10.3936170">
	<ele>1493.40</ele>
	<time>2024-07-24T08:34:09.000Z</time>
</trkpt>
<trkpt lat="46.0356970" lon="10.3936040">
	<ele>1493.40</ele>
	<time>2024-07-24T08:34:10.000Z</time>
</trkpt>
<trkpt lat="46.0357000" lon="10.3935950">
	<ele>1493.60</ele>
	<time>2024-07-24T08:34:11.000Z</time>
</trkpt>
<trkpt lat="46.0357030" lon="10.3935940">
	<ele>1493.80</ele>
	<time>2024-07-24T08:34:12.000Z</time>
</trkpt>
<trkpt lat="46.0357080" lon="10.3935940">
	<ele>1494.00</ele>
	<time>2024-07-24T08:34:13.000Z</time>
</trkpt>
<trkpt lat="46.0357170" lon="10.3935970">
	<ele>1494.20</ele>
	<time>2024-07-24T08:34:14.000Z</time>
</trkpt>
<trkpt lat="46.0357280" lon="10.3935990">
	<ele>1494.40</ele>
	<time>2024-07-24T08:34:15.000Z</time>
</trkpt>
<trkpt lat="46.0357360" lon="10.3936010">
	<ele>1494.60</ele>
	<time>2024-07-24T08:34:16.000Z</time>
</trkpt>
<trkpt lat="46.0357460" lon="10.3936020">
	<ele>1494.80</ele>
	<time>2024-07-24T08:34:17.000Z</time>
</trkpt>
<trkpt lat="46.0357520" lon="10.3936020">
	<ele>1495.00</ele>
	<time>2024-07-24T08:34:18.000Z</time>
</trkpt>
<trkpt lat="46.0357640" lon="10.3936100">
	<ele>1495.20</ele>
	<time>2024-07-24T08:34:19.000Z</time>
</trkpt>
<trkpt lat="46.0357680" lon="10.3936110">
	<ele>1495.20</ele>
	<time>2024-07-24T08:34:20.000Z</time>
</trkpt>
<trkpt lat="46.0357720" lon="10.3936120">
	<ele>1495.40</ele>
	<time>2024-07-24T08:34:21.000Z</time>
</trkpt>
<trkpt lat="46.0357750" lon="10.3936120">
	<ele>1495.60</ele>
	<time>2024-07-24T08:34:22.000Z</time>
</trkpt>
<trkpt lat="46.0357780" lon="10.3936110">
	<ele>1495.60</ele>
	<time>2024-07-24T08:34:23.000Z</time>
</trkpt>
<trkpt lat="46.0357770" lon="10.3936090">
	<ele>1495.80</ele>
	<time>2024-07-24T08:34:24.000Z</time>
</trkpt>
<trkpt lat="46.0357760" lon="10.3936070">
	<ele>1495.80</ele>
	<time>2024-07-24T08:34:25.000Z</time>
</trkpt>
<trkpt lat="46.0357810" lon="10.3936040">
	<ele>1495.60</ele>
	<time>2024-07-24T08:34:26.000Z</time>
</trkpt>
<trkpt lat="46.0357780" lon="10.3936020">
	<ele>1495.60</ele>
	<time>2024-07-24T08:34:27.000Z</time>
</trkpt>
<trkpt lat="46.0357770" lon="10.3936010">
	<ele>1495.60</ele>
	<time>2024-07-24T08:34:28.000Z</time>
</trkpt>
<trkpt lat="46.0357780" lon="10.3936000">
	<ele>1495.60</ele>
	<time>2024-07-24T08:34:29.000Z</time>
</trkpt>
<trkpt lat="46.0357760" lon="10.3935980">
	<ele>1495.60</ele>
	<time>2024-07-24T08:34:30.000Z</time>
</trkpt>
<trkpt lat="46.0357720" lon="10.3936000">
	<ele>1495.60</ele>
	<time>2024-07-24T08:34:31.000Z</time>
</trkpt>
<trkpt lat="46.0357700" lon="10.3936010">
	<ele>1495.60</ele>
	<time>2024-07-24T08:34:32.000Z</time>
</trkpt>
<trkpt lat="46.0357720" lon="10.3935970">
	<ele>1495.60</ele>
	<time>2024-07-24T08:34:33.000Z</time>
</trkpt>
<trkpt lat="46.0357790" lon="10.3935970">
	<ele>1495.60</ele>
	<time>2024-07-24T08:34:34.000Z</time>
</trkpt>
<trkpt lat="46.0357770" lon="10.3935950">
	<ele>1495.80</ele>
	<time>2024-07-24T08:34:35.000Z</time>
</trkpt>
<trkpt lat="46.0357790" lon="10.3935940">
	<ele>1496.00</ele>
	<time>2024-07-24T08:34:36.000Z</time>
</trkpt>
<trkpt lat="46.0357890" lon="10.3935970">
	<ele>1496.20</ele>
	<time>2024-07-24T08:34:37.000Z</time>
</trkpt>
<trkpt lat="46.0357920" lon="10.3936040">
	<ele>1496.40</ele>
	<time>2024-07-24T08:34:38.000Z</time>
</trkpt>
<trkpt lat="46.0357980" lon="10.3936140">
	<ele>1496.60</ele>
	<time>2024-07-24T08:34:39.000Z</time>
</trkpt>
<trkpt lat="46.0358050" lon="10.3936240">
	<ele>1496.80</ele>
	<time>2024-07-24T08:34:40.000Z</time>
</trkpt>
<trkpt lat="46.0358130" lon="10.3936270">
	<ele>1497.00</ele>
	<time>2024-07-24T08:34:41.000Z</time>
</trkpt>
<trkpt lat="46.0358240" lon="10.3936290">
	<ele>1497.20</ele>
	<time>2024-07-24T08:34:42.000Z</time>
</trkpt>
<trkpt lat="46.0358280" lon="10.3936300">
	<ele>1497.40</ele>
	<time>2024-07-24T08:34:43.000Z</time>
</trkpt>
<trkpt lat="46.0358360" lon="10.3936270">
	<ele>1497.60</ele>
	<time>2024-07-24T08:34:44.000Z</time>
</trkpt>
<trkpt lat="46.0358460" lon="10.3936180">
	<ele>1498.00</ele>
	<time>2024-07-24T08:34:45.000Z</time>
</trkpt>
<trkpt lat="46.0358480" lon="10.3936130">
	<ele>1498.40</ele>
	<time>2024-07-24T08:34:46.000Z</time>
</trkpt>
<trkpt lat="46.0358520" lon="10.3936080">
	<ele>1498.60</ele>
	<time>2024-07-24T08:34:47.000Z</time>
</trkpt>
<trkpt lat="46.0358590" lon="10.3936080">
	<ele>1498.80</ele>
	<time>2024-07-24T08:34:48.000Z</time>
</trkpt>
<trkpt lat="46.0358610" lon="10.3936090">
	<ele>1498.80</ele>
	<time>2024-07-24T08:34:49.000Z</time>
</trkpt>
<trkpt lat="46.0358710" lon="10.3936070">
	<ele>1499.00</ele>
	<time>2024-07-24T08:34:50.000Z</time>
</trkpt>
<trkpt lat="46.0358720" lon="10.3936030">
	<ele>1499.20</ele>
	<time>2024-07-24T08:34:51.000Z</time>
</trkpt>
<trkpt lat="46.0358830" lon="10.3935950">
	<ele>1499.60</ele>
	<time>2024-07-24T08:34:52.000Z</time>
</trkpt>
<trkpt lat="46.0358900" lon="10.3935860">
	<ele>1499.80</ele>
	<time>2024-07-24T08:34:53.000Z</time>
</trkpt>
<trkpt lat="46.0359070" lon="10.3935770">
	<ele>1500.00</ele>
	<time>2024-07-24T08:34:54.000Z</time>
</trkpt>
<trkpt lat="46.0359170" lon="10.3935690">
	<ele>1500.20</ele>
	<time>2024-07-24T08:34:55.000Z</time>
</trkpt>
<trkpt lat="46.0359260" lon="10.3935600">
	<ele>1500.40</ele>
	<time>2024-07-24T08:34:56.000Z</time>
</trkpt>
<trkpt lat="46.0359280" lon="10.3935460">
	<ele>1500.60</ele>
	<time>2024-07-24T08:34:57.000Z</time>
</trkpt>
<trkpt lat="46.0359310" lon="10.3935280">
	<ele>1500.80</ele>
	<time>2024-07-24T08:34:58.000Z</time>
</trkpt>
<trkpt lat="46.0359330" lon="10.3935170">
	<ele>1501.00</ele>
	<time>2024-07-24T08:34:59.000Z</time>
</trkpt>
<trkpt lat="46.0359330" lon="10.3935070">
	<ele>1501.20</ele>
	<time>2024-07-24T08:35:00.000Z</time>
</trkpt>
<trkpt lat="46.0359150" lon="10.3934870">
	<ele>1501.40</ele>
	<time>2024-07-24T08:35:01.000Z</time>
</trkpt>
<trkpt lat="46.0359120" lon="10.3934670">
	<ele>1501.60</ele>
	<time>2024-07-24T08:35:02.000Z</time>
</trkpt>
<trkpt lat="46.0359070" lon="10.3934480">
	<ele>1501.60</ele>
	<time>2024-07-24T08:35:03.000Z</time>
</trkpt>
<trkpt lat="46.0359070" lon="10.3934380">
	<ele>1502.20</ele>
	<time>2024-07-24T08:35:04.000Z</time>
</trkpt>
<trkpt lat="46.0359040" lon="10.3934250">
	<ele>1502.40</ele>
	<time>2024-07-24T08:35:05.000Z</time>
</trkpt>
<trkpt lat="46.0359150" lon="10.3934190">
	<ele>1502.80</ele>
	<time>2024-07-24T08:35:06.000Z</time>
</trkpt>
<trkpt lat="46.0359260" lon="10.3934150">
	<ele>1503.00</ele>
	<time>2024-07-24T08:35:07.000Z</time>
</trkpt>
<trkpt lat="46.0359310" lon="10.3934120">
	<ele>1503.40</ele>
	<time>2024-07-24T08:35:08.000Z</time>
</trkpt>
<trkpt lat="46.0359440" lon="10.3934080">
	<ele>1503.40</ele>
	<time>2024-07-24T08:35:09.000Z</time>
</trkpt>
<trkpt lat="46.0359550" lon="10.3934060">
	<ele>1503.60</ele>
	<time>2024-07-24T08:35:10.000Z</time>
</trkpt>
<trkpt lat="46.0359680" lon="10.3934020">
	<ele>1503.80</ele>
	<time>2024-07-24T08:35:11.000Z</time>
</trkpt>
<trkpt lat="46.0359770" lon="10.3933950">
	<ele>1503.80</ele>
	<time>2024-07-24T08:35:12.000Z</time>
</trkpt>
<trkpt lat="46.0359830" lon="10.3933870">
	<ele>1504.20</ele>
	<time>2024-07-24T08:35:13.000Z</time>
</trkpt>
<trkpt lat="46.0359890" lon="10.3933790">
	<ele>1504.20</ele>
	<time>2024-07-24T08:35:14.000Z</time>
</trkpt>
<trkpt lat="46.0359950" lon="10.3933690">
	<ele>1504.40</ele>
	<time>2024-07-24T08:35:15.000Z</time>
</trkpt>
<trkpt lat="46.0360030" lon="10.3933610">
	<ele>1504.60</ele>
	<time>2024-07-24T08:35:16.000Z</time>
</trkpt>
<trkpt lat="46.0360100" lon="10.3933540">
	<ele>1504.80</ele>
	<time>2024-07-24T08:35:17.000Z</time>
</trkpt>
<trkpt lat="46.0360180" lon="10.3933450">
	<ele>1505.00</ele>
	<time>2024-07-24T08:35:18.000Z</time>
</trkpt>
<trkpt lat="46.0360260" lon="10.3933350">
	<ele>1505.20</ele>
	<time>2024-07-24T08:35:19.000Z</time>
</trkpt>
<trkpt lat="46.0360330" lon="10.3933240">
	<ele>1505.40</ele>
	<time>2024-07-24T08:35:20.000Z</time>
</trkpt>
<trkpt lat="46.0360390" lon="10.3933120">
	<ele>1505.60</ele>
	<time>2024-07-24T08:35:21.000Z</time>
</trkpt>
<trkpt lat="46.0360440" lon="10.3932980">
	<ele>1505.80</ele>
	<time>2024-07-24T08:35:22.000Z</time>
</trkpt>
<trkpt lat="46.0360600" lon="10.3932890">
	<ele>1506.00</ele>
	<time>2024-07-24T08:35:23.000Z</time>
</trkpt>
<trkpt lat="46.0360800" lon="10.3932740">
	<ele>1506.20</ele>
	<time>2024-07-24T08:35:24.000Z</time>
</trkpt>
<trkpt lat="46.0360850" lon="10.3932630">
	<ele>1506.60</ele>
	<time>2024-07-24T08:35:25.000Z</time>
</trkpt>
<trkpt lat="46.0361080" lon="10.3932490">
	<ele>1506.80</ele>
	<time>2024-07-24T08:35:26.000Z</time>
</trkpt>
<trkpt lat="46.0361170" lon="10.3932460">
	<ele>1506.80</ele>
	<time>2024-07-24T08:35:27.000Z</time>
</trkpt>
<trkpt lat="46.0361320" lon="10.3932440">
	<ele>1507.00</ele>
	<time>2024-07-24T08:35:28.000Z</time>
</trkpt>
<trkpt lat="46.0361470" lon="10.3932430">
	<ele>1507.20</ele>
	<time>2024-07-24T08:35:29.000Z</time>
</trkpt>
<trkpt lat="46.0361620" lon="10.3932340">
	<ele>1507.40</ele>
	<time>2024-07-24T08:35:30.000Z</time>
</trkpt>
<trkpt lat="46.0361700" lon="10.3932270">
	<ele>1507.40</ele>
	<time>2024-07-24T08:35:31.000Z</time>
</trkpt>
<trkpt lat="46.0361780" lon="10.3932180">
	<ele>1507.60</ele>
	<time>2024-07-24T08:35:32.000Z</time>
</trkpt>
<trkpt lat="46.0361850" lon="10.3932030">
	<ele>1507.80</ele>
	<time>2024-07-24T08:35:33.000Z</time>
</trkpt>
<trkpt lat="46.0361950" lon="10.3931880">
	<ele>1508.00</ele>
	<time>2024-07-24T08:35:34.000Z</time>
</trkpt>
<trkpt lat="46.0362040" lon="10.3931750">
	<ele>1508.20</ele>
	<time>2024-07-24T08:35:35.000Z</time>
</trkpt>
<trkpt lat="46.0362110" lon="10.3931650">
	<ele>1508.40</ele>
	<time>2024-07-24T08:35:36.000Z</time>
</trkpt>
<trkpt lat="46.0362150" lon="10.3931560">
	<ele>1508.40</ele>
	<time>2024-07-24T08:35:37.000Z</time>
</trkpt>
<trkpt lat="46.0362320" lon="10.3931530">
	<ele>1508.60</ele>
	<time>2024-07-24T08:35:38.000Z</time>
</trkpt>
<trkpt lat="46.0362440" lon="10.3931500">
	<ele>1508.80</ele>
	<time>2024-07-24T08:35:39.000Z</time>
</trkpt>
<trkpt lat="46.0362520" lon="10.3931460">
	<ele>1509.00</ele>
	<time>2024-07-24T08:35:40.000Z</time>
</trkpt>
<trkpt lat="46.0362620" lon="10.3931380">
	<ele>1509.00</ele>
	<time>2024-07-24T08:35:41.000Z</time>
</trkpt>
<trkpt lat="46.0362690" lon="10.3931380">
	<ele>1509.20</ele>
	<time>2024-07-24T08:35:42.000Z</time>
</trkpt>
<trkpt lat="46.0362730" lon="10.3931290">
	<ele>1509.40</ele>
	<time>2024-07-24T08:35:43.000Z</time>
</trkpt>
<trkpt lat="46.0362770" lon="10.3931140">
	<ele>1509.60</ele>
	<time>2024-07-24T08:35:44.000Z</time>
</trkpt>
<trkpt lat="46.0362790" lon="10.3930950">
	<ele>1509.80</ele>
	<time>2024-07-24T08:35:45.000Z</time>
</trkpt>
<trkpt lat="46.0362850" lon="10.3930850">
	<ele>1510.00</ele>
	<time>2024-07-24T08:35:46.000Z</time>
</trkpt>
<trkpt lat="46.0362940" lon="10.3930800">
	<ele>1510.20</ele>
	<time>2024-07-24T08:35:47.000Z</time>
</trkpt>
<trkpt lat="46.0363000" lon="10.3930790">
	<ele>1510.40</ele>
	<time>2024-07-24T08:35:48.000Z</time>
</trkpt>
<trkpt lat="46.0363080" lon="10.3930670">
	<ele>1510.40</ele>
	<time>2024-07-24T08:35:49.000Z</time>
</trkpt>
<trkpt lat="46.0363160" lon="10.3930540">
	<ele>1510.60</ele>
	<time>2024-07-24T08:35:50.000Z</time>
</trkpt>
<trkpt lat="46.0363170" lon="10.3930370">
	<ele>1510.60</ele>
	<time>2024-07-24T08:35:51.000Z</time>
</trkpt>
<trkpt lat="46.0363180" lon="10.3930180">
	<ele>1510.80</ele>
	<time>2024-07-24T08:35:52.000Z</time>
</trkpt>
<trkpt lat="46.0363260" lon="10.3930110">
	<ele>1511.00</ele>
	<time>2024-07-24T08:35:53.000Z</time>
</trkpt>
<trkpt lat="46.0363330" lon="10.3930030">
	<ele>1511.40</ele>
	<time>2024-07-24T08:35:54.000Z</time>
</trkpt>
<trkpt lat="46.0363360" lon="10.3929920">
	<ele>1511.60</ele>
	<time>2024-07-24T08:35:55.000Z</time>
</trkpt>
<trkpt lat="46.0363410" lon="10.3929810">
	<ele>1511.60</ele>
	<time>2024-07-24T08:35:56.000Z</time>
</trkpt>
<trkpt lat="46.0363450" lon="10.3929640">
	<ele>1511.80</ele>
	<time>2024-07-24T08:35:57.000Z</time>
</trkpt>
<trkpt lat="46.0363500" lon="10.3929520">
	<ele>1512.20</ele>
	<time>2024-07-24T08:35:58.000Z</time>
</trkpt>
<trkpt lat="46.0363550" lon="10.3929390">
	<ele>1512.20</ele>
	<time>2024-07-24T08:35:59.000Z</time>
</trkpt>
<trkpt lat="46.0363590" lon="10.3929300">
	<ele>1512.40</ele>
	<time>2024-07-24T08:36:00.000Z</time>
</trkpt>
<trkpt lat="46.0363640" lon="10.3929230">
	<ele>1512.80</ele>
	<time>2024-07-24T08:36:01.000Z</time>
</trkpt>
<trkpt lat="46.0363670" lon="10.3929140">
	<ele>1513.00</ele>
	<time>2024-07-24T08:36:02.000Z</time>
</trkpt>
<trkpt lat="46.0363660" lon="10.3929020">
	<ele>1513.00</ele>
	<time>2024-07-24T08:36:03.000Z</time>
</trkpt>
<trkpt lat="46.0363690" lon="10.3928890">
	<ele>1513.20</ele>
	<time>2024-07-24T08:36:04.000Z</time>
</trkpt>
<trkpt lat="46.0363750" lon="10.3928760">
	<ele>1513.40</ele>
	<time>2024-07-24T08:36:05.000Z</time>
</trkpt>
<trkpt lat="46.0363800" lon="10.3928630">
	<ele>1513.60</ele>
	<time>2024-07-24T08:36:06.000Z</time>
</trkpt>
<trkpt lat="46.0363820" lon="10.3928490">
	<ele>1513.80</ele>
	<time>2024-07-24T08:36:07.000Z</time>
</trkpt>
<trkpt lat="46.0363850" lon="10.3928400">
	<ele>1514.00</ele>
	<time>2024-07-24T08:36:08.000Z</time>
</trkpt>
<trkpt lat="46.0363870" lon="10.3928260">
	<ele>1514.20</ele>
	<time>2024-07-24T08:36:09.000Z</time>
</trkpt>
<trkpt lat="46.0363860" lon="10.3928110">
	<ele>1514.40</ele>
	<time>2024-07-24T08:36:10.000Z</time>
</trkpt>
<trkpt lat="46.0363870" lon="10.3927980">
	<ele>1514.40</ele>
	<time>2024-07-24T08:36:11.000Z</time>
</trkpt>
<trkpt lat="46.0363900" lon="10.3927850">
	<ele>1514.60</ele>
	<time>2024-07-24T08:36:12.000Z</time>
</trkpt>
<trkpt lat="46.0363910" lon="10.3927700">
	<ele>1514.60</ele>
	<time>2024-07-24T08:36:13.000Z</time>
</trkpt>
<trkpt lat="46.0363920" lon="10.3927560">
	<ele>1514.80</ele>
	<time>2024-07-24T08:36:14.000Z</time>
</trkpt>
<trkpt lat="46.0363930" lon="10.3927400">
	<ele>1515.00</ele>
	<time>2024-07-24T08:36:15.000Z</time>
</trkpt>
<trkpt lat="46.0363930" lon="10.3927240">
	<ele>1515.20</ele>
	<time>2024-07-24T08:36:16.000Z</time>
</trkpt>
<trkpt lat="46.0363930" lon="10.3927120">
	<ele>1515.40</ele>
	<time>2024-07-24T08:36:17.000Z</time>
</trkpt>
<trkpt lat="46.0363940" lon="10.3927000">
	<ele>1515.60</ele>
	<time>2024-07-24T08:36:18.000Z</time>
</trkpt>
<trkpt lat="46.0363990" lon="10.3926910">
	<ele>1515.60</ele>
	<time>2024-07-24T08:36:19.000Z</time>
</trkpt>
<trkpt lat="46.0364030" lon="10.3926800">
	<ele>1516.00</ele>
	<time>2024-07-24T08:36:20.000Z</time>
</trkpt>
<trkpt lat="46.0364180" lon="10.3926640">
	<ele>1516.20</ele>
	<time>2024-07-24T08:36:21.000Z</time>
</trkpt>
<trkpt lat="46.0364230" lon="10.3926470">
	<ele>1516.40</ele>
	<time>2024-07-24T08:36:22.000Z</time>
</trkpt>
<trkpt lat="46.0364260" lon="10.3926370">
	<ele>1516.40</ele>
	<time>2024-07-24T08:36:23.000Z</time>
</trkpt>
<trkpt lat="46.0364220" lon="10.3926260">
	<ele>1516.40</ele>
	<time>2024-07-24T08:36:24.000Z</time>
</trkpt>
<trkpt lat="46.0364200" lon="10.3926130">
	<ele>1516.60</ele>
	<time>2024-07-24T08:36:25.000Z</time>
</trkpt>
<trkpt lat="46.0364230" lon="10.3926010">
	<ele>1516.80</ele>
	<time>2024-07-24T08:36:26.000Z</time>
</trkpt>
<trkpt lat="46.0364240" lon="10.3925880">
	<ele>1517.20</ele>
	<time>2024-07-24T08:36:27.000Z</time>
</trkpt>
<trkpt lat="46.0364270" lon="10.3925740">
	<ele>1517.40</ele>
	<time>2024-07-24T08:36:28.000Z</time>
</trkpt>
<trkpt lat="46.0364260" lon="10.3925620">
	<ele>1517.60</ele>
	<time>2024-07-24T08:36:29.000Z</time>
</trkpt>
<trkpt lat="46.0364260" lon="10.3925520">
	<ele>1517.80</ele>
	<time>2024-07-24T08:36:30.000Z</time>
</trkpt>
<trkpt lat="46.0364230" lon="10.3925430">
	<ele>1518.00</ele>
	<time>2024-07-24T08:36:31.000Z</time>
</trkpt>
<trkpt lat="46.0364220" lon="10.3925370">
	<ele>1518.20</ele>
	<time>2024-07-24T08:36:32.000Z</time>
</trkpt>
<trkpt lat="46.0364230" lon="10.3925280">
	<ele>1518.40</ele>
	<time>2024-07-24T08:36:33.000Z</time>
</trkpt>
<trkpt lat="46.0364180" lon="10.3925130">
	<ele>1518.60</ele>
	<time>2024-07-24T08:36:34.000Z</time>
</trkpt>
<trkpt lat="46.0364160" lon="10.3924970">
	<ele>1518.60</ele>
	<time>2024-07-24T08:36:35.000Z</time>
</trkpt>
<trkpt lat="46.0364140" lon="10.3924790">
	<ele>1518.80</ele>
	<time>2024-07-24T08:36:36.000Z</time>
</trkpt>
<trkpt lat="46.0364060" lon="10.3924660">
	<ele>1518.80</ele>
	<time>2024-07-24T08:36:37.000Z</time>
</trkpt>
<trkpt lat="46.0363950" lon="10.3924530">
	<ele>1519.20</ele>
	<time>2024-07-24T08:36:38.000Z</time>
</trkpt>
<trkpt lat="46.0363840" lon="10.3924390">
	<ele>1519.40</ele>
	<time>2024-07-24T08:36:39.000Z</time>
</trkpt>
<trkpt lat="46.0363730" lon="10.3924260">
	<ele>1519.40</ele>
	<time>2024-07-24T08:36:40.000Z</time>
</trkpt>
<trkpt lat="46.0363670" lon="10.3924130">
	<ele>1519.60</ele>
	<time>2024-07-24T08:36:41.000Z</time>
</trkpt>
<trkpt lat="46.0363670" lon="10.3924040">
	<ele>1519.60</ele>
	<time>2024-07-24T08:36:42.000Z</time>
</trkpt>
<trkpt lat="46.0363690" lon="10.3923960">
	<ele>1519.80</ele>
	<time>2024-07-24T08:36:43.000Z</time>
</trkpt>
<trkpt lat="46.0363640" lon="10.3923830">
	<ele>1520.00</ele>
	<time>2024-07-24T08:36:44.000Z</time>
</trkpt>
<trkpt lat="46.0363560" lon="10.3923730">
	<ele>1520.20</ele>
	<time>2024-07-24T08:36:45.000Z</time>
</trkpt>
<trkpt lat="46.0363500" lon="10.3923630">
	<ele>1520.40</ele>
	<time>2024-07-24T08:36:46.000Z</time>
</trkpt>
<trkpt lat="46.0363460" lon="10.3923490">
	<ele>1520.60</ele>
	<time>2024-07-24T08:36:47.000Z</time>
</trkpt>
<trkpt lat="46.0363410" lon="10.3923360">
	<ele>1520.80</ele>
	<time>2024-07-24T08:36:48.000Z</time>
</trkpt>
<trkpt lat="46.0363390" lon="10.3923220">
	<ele>1520.80</ele>
	<time>2024-07-24T08:36:49.000Z</time>
</trkpt>
<trkpt lat="46.0363360" lon="10.3923040">
	<ele>1521.00</ele>
	<time>2024-07-24T08:36:50.000Z</time>
</trkpt>
<trkpt lat="46.0363360" lon="10.3922890">
	<ele>1521.00</ele>
	<time>2024-07-24T08:36:51.000Z</time>
</trkpt>
<trkpt lat="46.0363270" lon="10.3922760">
	<ele>1521.20</ele>
	<time>2024-07-24T08:36:52.000Z</time>
</trkpt>
<trkpt lat="46.0363210" lon="10.3922670">
	<ele>1521.60</ele>
	<time>2024-07-24T08:36:53.000Z</time>
</trkpt>
<trkpt lat="46.0363190" lon="10.3922550">
	<ele>1521.60</ele>
	<time>2024-07-24T08:36:54.000Z</time>
</trkpt>
<trkpt lat="46.0363160" lon="10.3922430">
	<ele>1521.80</ele>
	<time>2024-07-24T08:36:55.000Z</time>
</trkpt>
<trkpt lat="46.0363150" lon="10.3922300">
	<ele>1522.00</ele>
	<time>2024-07-24T08:36:56.000Z</time>
</trkpt>
<trkpt lat="46.0363120" lon="10.3922210">
	<ele>1522.20</ele>
	<time>2024-07-24T08:36:57.000Z</time>
</trkpt>
<trkpt lat="46.0363100" lon="10.3922140">
	<ele>1522.40</ele>
	<time>2024-07-24T08:36:58.000Z</time>
</trkpt>
<trkpt lat="46.0363080" lon="10.3922060">
	<ele>1522.40</ele>
	<time>2024-07-24T08:36:59.000Z</time>
</trkpt>
<trkpt lat="46.0363070" lon="10.3921940">
	<ele>1522.60</ele>
	<time>2024-07-24T08:37:00.000Z</time>
</trkpt>
<trkpt lat="46.0363090" lon="10.3921820">
	<ele>1522.80</ele>
	<time>2024-07-24T08:37:01.000Z</time>
</trkpt>
<trkpt lat="46.0363150" lon="10.3921640">
	<ele>1522.80</ele>
	<time>2024-07-24T08:37:02.000Z</time>
</trkpt>
<trkpt lat="46.0363150" lon="10.3921460">
	<ele>1522.80</ele>
	<time>2024-07-24T08:37:03.000Z</time>
</trkpt>
<trkpt lat="46.0363140" lon="10.3921290">
	<ele>1523.00</ele>
	<time>2024-07-24T08:37:04.000Z</time>
</trkpt>
<trkpt lat="46.0363180" lon="10.3921220">
	<ele>1523.20</ele>
	<time>2024-07-24T08:37:05.000Z</time>
</trkpt>
<trkpt lat="46.0363150" lon="10.3921120">
	<ele>1523.40</ele>
	<time>2024-07-24T08:37:06.000Z</time>
</trkpt>
<trkpt lat="46.0363200" lon="10.3921110">
	<ele>1523.60</ele>
	<time>2024-07-24T08:37:07.000Z</time>
</trkpt>
<trkpt lat="46.0363240" lon="10.3921000">
	<ele>1523.60</ele>
	<time>2024-07-24T08:37:08.000Z</time>
</trkpt>
<trkpt lat="46.0363280" lon="10.3920850">
	<ele>1523.80</ele>
	<time>2024-07-24T08:37:09.000Z</time>
</trkpt>
<trkpt lat="46.0363380" lon="10.3920730">
	<ele>1524.00</ele>
	<time>2024-07-24T08:37:10.000Z</time>
</trkpt>
<trkpt lat="46.0363400" lon="10.3920590">
	<ele>1524.20</ele>
	<time>2024-07-24T08:37:11.000Z</time>
</trkpt>
<trkpt lat="46.0363410" lon="10.3920440">
	<ele>1524.20</ele>
	<time>2024-07-24T08:37:12.000Z</time>
</trkpt>
<trkpt lat="46.0363500" lon="10.3920320">
	<ele>1524.60</ele>
	<time>2024-07-24T08:37:13.000Z</time>
</trkpt>
<trkpt lat="46.0363530" lon="10.3920190">
	<ele>1524.80</ele>
	<time>2024-07-24T08:37:14.000Z</time>
</trkpt>
<trkpt lat="46.0363520" lon="10.3920040">
	<ele>1524.80</ele>
	<time>2024-07-24T08:37:15.000Z</time>
</trkpt>
<trkpt lat="46.0363510" lon="10.3919920">
	<ele>1525.00</ele>
	<time>2024-07-24T08:37:16.000Z</time>
</trkpt>
<trkpt lat="46.0363500" lon="10.3919840">
	<ele>1525.20</ele>
	<time>2024-07-24T08:37:17.000Z</time>
</trkpt>
<trkpt lat="46.0363510" lon="10.3919750">
	<ele>1525.40</ele>
	<time>2024-07-24T08:37:18.000Z</time>
</trkpt>
<trkpt lat="46.0363540" lon="10.3919620">
	<ele>1525.60</ele>
	<time>2024-07-24T08:37:19.000Z</time>
</trkpt>
<trkpt lat="46.0363640" lon="10.3919510">
	<ele>1525.80</ele>
	<time>2024-07-24T08:37:20.000Z</time>
</trkpt>
<trkpt lat="46.0363730" lon="10.3919390">
	<ele>1526.00</ele>
	<time>2024-07-24T08:37:21.000Z</time>
</trkpt>
<trkpt lat="46.0363780" lon="10.3919260">
	<ele>1526.00</ele>
	<time>2024-07-24T08:37:22.000Z</time>
</trkpt>
<trkpt lat="46.0363860" lon="10.3919180">
	<ele>1526.40</ele>
	<time>2024-07-24T08:37:23.000Z</time>
</trkpt>
<trkpt lat="46.0363910" lon="10.3919070">
	<ele>1526.60</ele>
	<time>2024-07-24T08:37:24.000Z</time>
</trkpt>
<trkpt lat="46.0363960" lon="10.3918950">
	<ele>1526.80</ele>
	<time>2024-07-24T08:37:25.000Z</time>
</trkpt>
<trkpt lat="46.0363990" lon="10.3918810">
	<ele>1527.00</ele>
	<time>2024-07-24T08:37:26.000Z</time>
</trkpt>
<trkpt lat="46.0363990" lon="10.3918640">
	<ele>1527.20</ele>
	<time>2024-07-24T08:37:27.000Z</time>
</trkpt>
<trkpt lat="46.0364020" lon="10.3918470">
	<ele>1527.40</ele>
	<time>2024-07-24T08:37:28.000Z</time>
</trkpt>
<trkpt lat="46.0364040" lon="10.3918330">
	<ele>1527.60</ele>
	<time>2024-07-24T08:37:29.000Z</time>
</trkpt>
<trkpt lat="46.0364040" lon="10.3918190">
	<ele>1527.80</ele>
	<time>2024-07-24T08:37:30.000Z</time>
</trkpt>
<trkpt lat="46.0364070" lon="10.3918070">
	<ele>1528.00</ele>
	<time>2024-07-24T08:37:31.000Z</time>
</trkpt>
<trkpt lat="46.0364100" lon="10.3918000">
	<ele>1528.40</ele>
	<time>2024-07-24T08:37:32.000Z</time>
</trkpt>
<trkpt lat="46.0364120" lon="10.3917970">
	<ele>1528.60</ele>
	<time>2024-07-24T08:37:33.000Z</time>
</trkpt>
<trkpt lat="46.0364110" lon="10.3917870">
	<ele>1528.80</ele>
	<time>2024-07-24T08:37:34.000Z</time>
</trkpt>
<trkpt lat="46.0364110" lon="10.3917740">
	<ele>1529.00</ele>
	<time>2024-07-24T08:37:35.000Z</time>
</trkpt>
<trkpt lat="46.0364140" lon="10.3917600">
	<ele>1529.20</ele>
	<time>2024-07-24T08:37:36.000Z</time>
</trkpt>
<trkpt lat="46.0364170" lon="10.3917410">
	<ele>1529.40</ele>
	<time>2024-07-24T08:37:37.000Z</time>
</trkpt>
<trkpt lat="46.0364130" lon="10.3917250">
	<ele>1529.40</ele>
	<time>2024-07-24T08:37:38.000Z</time>
</trkpt>
<trkpt lat="46.0364070" lon="10.3917130">
	<ele>1529.60</ele>
	<time>2024-07-24T08:37:39.000Z</time>
</trkpt>
<trkpt lat="46.0364020" lon="10.3916980">
	<ele>1529.80</ele>
	<time>2024-07-24T08:37:40.000Z</time>
</trkpt>
<trkpt lat="46.0364030" lon="10.3916820">
	<ele>1530.00</ele>
	<time>2024-07-24T08:37:41.000Z</time>
</trkpt>
<trkpt lat="46.0364040" lon="10.3916670">
	<ele>1530.00</ele>
	<time>2024-07-24T08:37:42.000Z</time>
</trkpt>
<trkpt lat="46.0364050" lon="10.3916530">
	<ele>1530.20</ele>
	<time>2024-07-24T08:37:43.000Z</time>
</trkpt>
<trkpt lat="46.0364040" lon="10.3916400">
	<ele>1530.40</ele>
	<time>2024-07-24T08:37:44.000Z</time>
</trkpt>
<trkpt lat="46.0363990" lon="10.3916260">
	<ele>1530.60</ele>
	<time>2024-07-24T08:37:45.000Z</time>
</trkpt>
<trkpt lat="46.0363950" lon="10.3916190">
	<ele>1530.80</ele>
	<time>2024-07-24T08:37:46.000Z</time>
</trkpt>
<trkpt lat="46.0363890" lon="10.3916080">
	<ele>1531.00</ele>
	<time>2024-07-24T08:37:47.000Z</time>
</trkpt>
<trkpt lat="46.0363850" lon="10.3915950">
	<ele>1531.20</ele>
	<time>2024-07-24T08:37:48.000Z</time>
</trkpt>
<trkpt lat="46.0363800" lon="10.3915810">
	<ele>1531.20</ele>
	<time>2024-07-24T08:37:49.000Z</time>
</trkpt>
<trkpt lat="46.0363780" lon="10.3915660">
	<ele>1531.40</ele>
	<time>2024-07-24T08:37:50.000Z</time>
</trkpt>
<trkpt lat="46.0363830" lon="10.3915410">
	<ele>1531.40</ele>
	<time>2024-07-24T08:37:51.000Z</time>
</trkpt>
<trkpt lat="46.0363810" lon="10.3915270">
	<ele>1531.80</ele>
	<time>2024-07-24T08:37:52.000Z</time>
</trkpt>
<trkpt lat="46.0363700" lon="10.3915130">
	<ele>1531.80</ele>
	<time>2024-07-24T08:37:53.000Z</time>
</trkpt>
<trkpt lat="46.0363750" lon="10.3915030">
	<ele>1532.00</ele>
	<time>2024-07-24T08:37:54.000Z</time>
</trkpt>
<trkpt lat="46.0363830" lon="10.3914900">
	<ele>1532.00</ele>
	<time>2024-07-24T08:37:55.000Z</time>
</trkpt>
<trkpt lat="46.0363810" lon="10.3914680">
	<ele>1532.20</ele>
	<time>2024-07-24T08:37:56.000Z</time>
</trkpt>
<trkpt lat="46.0363780" lon="10.3914500">
	<ele>1532.40</ele>
	<time>2024-07-24T08:37:57.000Z</time>
</trkpt>
<trkpt lat="46.0363750" lon="10.3914340">
	<ele>1532.40</ele>
	<time>2024-07-24T08:37:58.000Z</time>
</trkpt>
<trkpt lat="46.0363710" lon="10.3914200">
	<ele>1532.60</ele>
	<time>2024-07-24T08:37:59.000Z</time>
</trkpt>
<trkpt lat="46.0363670" lon="10.3914050">
	<ele>1532.60</ele>
	<time>2024-07-24T08:38:00.000Z</time>
</trkpt>
<trkpt lat="46.0363640" lon="10.3913910">
	<ele>1532.80</ele>
	<time>2024-07-24T08:38:01.000Z</time>
</trkpt>
<trkpt lat="46.0363640" lon="10.3913770">
	<ele>1533.00</ele>
	<time>2024-07-24T08:38:02.000Z</time>
</trkpt>
<trkpt lat="46.0363630" lon="10.3913630">
	<ele>1533.20</ele>
	<time>2024-07-24T08:38:03.000Z</time>
</trkpt>
<trkpt lat="46.0363620" lon="10.3913480">
	<ele>1533.40</ele>
	<time>2024-07-24T08:38:04.000Z</time>
</trkpt>
<trkpt lat="46.0363600" lon="10.3913330">
	<ele>1533.60</ele>
	<time>2024-07-24T08:38:05.000Z</time>
</trkpt>
<trkpt lat="46.0363570" lon="10.3913150">
	<ele>1533.60</ele>
	<time>2024-07-24T08:38:06.000Z</time>
</trkpt>
<trkpt lat="46.0363540" lon="10.3913070">
	<ele>1533.80</ele>
	<time>2024-07-24T08:38:07.000Z</time>
</trkpt>
<trkpt lat="46.0363510" lon="10.3913040">
	<ele>1533.80</ele>
	<time>2024-07-24T08:38:08.000Z</time>
</trkpt>
<trkpt lat="46.0363510" lon="10.3913010">
	<ele>1533.80</ele>
	<time>2024-07-24T08:38:09.000Z</time>
</trkpt>
<trkpt lat="46.0363530" lon="10.3912960">
	<ele>1534.00</ele>
	<time>2024-07-24T08:38:10.000Z</time>
</trkpt>
<trkpt lat="46.0363550" lon="10.3912920">
	<ele>1534.00</ele>
	<time>2024-07-24T08:38:11.000Z</time>
</trkpt>
<trkpt lat="46.0363570" lon="10.3912810">
	<ele>1534.20</ele>
	<time>2024-07-24T08:38:12.000Z</time>
</trkpt>
<trkpt lat="46.0363590" lon="10.3912640">
	<ele>1534.40</ele>
	<time>2024-07-24T08:38:13.000Z</time>
</trkpt>
<trkpt lat="46.0363570" lon="10.3912490">
	<ele>1534.40</ele>
	<time>2024-07-24T08:38:14.000Z</time>
</trkpt>
<trkpt lat="46.0363580" lon="10.3912340">
	<ele>1534.60</ele>
	<time>2024-07-24T08:38:15.000Z</time>
</trkpt>
<trkpt lat="46.0363590" lon="10.3912230">
	<ele>1534.80</ele>
	<time>2024-07-24T08:38:16.000Z</time>
</trkpt>
<trkpt lat="46.0363610" lon="10.3912110">
	<ele>1534.80</ele>
	<time>2024-07-24T08:38:17.000Z</time>
</trkpt>
<trkpt lat="46.0363620" lon="10.3911980">
	<ele>1535.00</ele>
	<time>2024-07-24T08:38:18.000Z</time>
</trkpt>
<trkpt lat="46.0363600" lon="10.3911850">
	<ele>1535.20</ele>
	<time>2024-07-24T08:38:19.000Z</time>
</trkpt>
<trkpt lat="46.0363580" lon="10.3911720">
	<ele>1535.40</ele>
	<time>2024-07-24T08:38:20.000Z</time>
</trkpt>
<trkpt lat="46.0363560" lon="10.3911580">
	<ele>1535.60</ele>
	<time>2024-07-24T08:38:21.000Z</time>
</trkpt>
<trkpt lat="46.0363520" lon="10.3911450">
	<ele>1535.60</ele>
	<time>2024-07-24T08:38:22.000Z</time>
</trkpt>
<trkpt lat="46.0363490" lon="10.3911330">
	<ele>1535.80</ele>
	<time>2024-07-24T08:38:23.000Z</time>
</trkpt>
<trkpt lat="46.0363470" lon="10.3911190">
	<ele>1536.00</ele>
	<time>2024-07-24T08:38:24.000Z</time>
</trkpt>
<trkpt lat="46.0363460" lon="10.3911070">
	<ele>1536.00</ele>
	<time>2024-07-24T08:38:25.000Z</time>
</trkpt>
<trkpt lat="46.0363430" lon="10.3910930">
	<ele>1536.40</ele>
	<time>2024-07-24T08:38:26.000Z</time>
</trkpt>
<trkpt lat="46.0363420" lon="10.3910800">
	<ele>1536.60</ele>
	<time>2024-07-24T08:38:27.000Z</time>
</trkpt>
<trkpt lat="46.0363430" lon="10.3910660">
	<ele>1536.80</ele>
	<time>2024-07-24T08:38:28.000Z</time>
</trkpt>
<trkpt lat="46.0363440" lon="10.3910540">
	<ele>1537.00</ele>
	<time>2024-07-24T08:38:29.000Z</time>
</trkpt>
<trkpt lat="46.0363470" lon="10.3910430">
	<ele>1537.00</ele>
	<time>2024-07-24T08:38:30.000Z</time>
</trkpt>
<trkpt lat="46.0363520" lon="10.3910290">
	<ele>1537.20</ele>
	<time>2024-07-24T08:38:31.000Z</time>
</trkpt>
<trkpt lat="46.0363550" lon="10.3910120">
	<ele>1537.60</ele>
	<time>2024-07-24T08:38:32.000Z</time>
</trkpt>
<trkpt lat="46.0363540" lon="10.3910050">
	<ele>1537.80</ele>
	<time>2024-07-24T08:38:33.000Z</time>
</trkpt>
<trkpt lat="46.0363530" lon="10.3910010">
	<ele>1538.00</ele>
	<time>2024-07-24T08:38:34.000Z</time>
</trkpt>
<trkpt lat="46.0363500" lon="10.3909990">
	<ele>1538.20</ele>
	<time>2024-07-24T08:38:35.000Z</time>
</trkpt>
<trkpt lat="46.0363480" lon="10.3909990">
	<ele>1538.40</ele>
	<time>2024-07-24T08:38:36.000Z</time>
</trkpt>
<trkpt lat="46.0363440" lon="10.3909990">
	<ele>1538.60</ele>
	<time>2024-07-24T08:38:37.000Z</time>
</trkpt>
<trkpt lat="46.0363410" lon="10.3909980">
	<ele>1538.80</ele>
	<time>2024-07-24T08:38:38.000Z</time>
</trkpt>
<trkpt lat="46.0363420" lon="10.3909820">
	<ele>1538.80</ele>
	<time>2024-07-24T08:38:39.000Z</time>
</trkpt>
<trkpt lat="46.0363390" lon="10.3909800">
	<ele>1539.00</ele>
	<time>2024-07-24T08:38:40.000Z</time>
</trkpt>
<trkpt lat="46.0363380" lon="10.3909780">
	<ele>1539.00</ele>
	<time>2024-07-24T08:38:41.000Z</time>
</trkpt>
<trkpt lat="46.0363360" lon="10.3909760">
	<ele>1539.00</ele>
	<time>2024-07-24T08:38:42.000Z</time>
</trkpt>
<trkpt lat="46.0363360" lon="10.3909730">
	<ele>1539.00</ele>
	<time>2024-07-24T08:38:43.000Z</time>
</trkpt>
<trkpt lat="46.0363350" lon="10.3909670">
	<ele>1539.00</ele>
	<time>2024-07-24T08:38:44.000Z</time>
</trkpt>
<trkpt lat="46.0363400" lon="10.3909640">
	<ele>1539.20</ele>
	<time>2024-07-24T08:38:45.000Z</time>
</trkpt>
<trkpt lat="46.0363440" lon="10.3909630">
	<ele>1539.20</ele>
	<time>2024-07-24T08:38:46.000Z</time>
</trkpt>
<trkpt lat="46.0363440" lon="10.3909640">
	<ele>1539.20</ele>
	<time>2024-07-24T08:38:47.000Z</time>
</trkpt>
<trkpt lat="46.0363450" lon="10.3909630">
	<ele>1539.20</ele>
	<time>2024-07-24T08:38:48.000Z</time>
</trkpt>
<trkpt lat="46.0363450" lon="10.3909640">
	<ele>1539.20</ele>
	<time>2024-07-24T08:38:49.000Z</time>
</trkpt>
<trkpt lat="46.0363450" lon="10.3909640">
	<ele>1539.20</ele>
	<time>2024-07-24T08:38:50.000Z</time>
</trkpt>
<trkpt lat="46.0363450" lon="10.3909640">
	<ele>1539.00</ele>
	<time>2024-07-24T08:38:51.000Z</time>
</trkpt>
<trkpt lat="46.0363450" lon="10.3909640">
	<ele>1539.00</ele>
	<time>2024-07-24T08:38:52.000Z</time>
</trkpt>
<trkpt lat="46.0363450" lon="10.3909640">
	<ele>1539.00</ele>
	<time>2024-07-24T08:38:53.000Z</time>
</trkpt>
<trkpt lat="46.0363450" lon="10.3909640">
	<ele>1539.00</ele>
	<time>2024-07-24T08:38:54.000Z</time>
</trkpt>
<trkpt lat="46.0363450" lon="10.3909640">
	<ele>1539.20</ele>
	<time>2024-07-24T08:38:55.000Z</time>
</trkpt>
<trkpt lat="46.0363450" lon="10.3909640">
	<ele>1539.60</ele>
	<time>2024-07-24T08:38:56.000Z</time>
</trkpt>
<trkpt lat="46.0363450" lon="10.3909640">
	<ele>1539.60</ele>
	<time>2024-07-24T08:38:57.000Z</time>
</trkpt>
<trkpt lat="46.0363450" lon="10.3909640">
	<ele>1539.80</ele>
	<time>2024-07-24T08:38:58.000Z</time>
</trkpt>
<trkpt lat="46.0363450" lon="10.3909640">
	<ele>1540.00</ele>
	<time>2024-07-24T08:38:59.000Z</time>
</trkpt>
<trkpt lat="46.0363480" lon="10.3909670">
	<ele>1540.00</ele>
	<time>2024-07-24T08:39:00.000Z</time>
</trkpt>
<trkpt lat="46.0363570" lon="10.3909880">
	<ele>1540.20</ele>
	<time>2024-07-24T08:39:01.000Z</time>
</trkpt>
<trkpt lat="46.0363670" lon="10.3910130">
	<ele>1540.20</ele>
	<time>2024-07-24T08:39:02.000Z</time>
</trkpt>
<trkpt lat="46.0363750" lon="10.3910310">
	<ele>1540.40</ele>
	<time>2024-07-24T08:39:03.000Z</time>
</trkpt>
<trkpt lat="46.0363820" lon="10.3910420">
	<ele>1540.40</ele>
	<time>2024-07-24T08:39:04.000Z</time>
</trkpt>
<trkpt lat="46.0363860" lon="10.3910570">
	<ele>1540.60</ele>
	<time>2024-07-24T08:39:05.000Z</time>
</trkpt>
<trkpt lat="46.0363900" lon="10.3910750">
	<ele>1540.60</ele>
	<time>2024-07-24T08:39:06.000Z</time>
</trkpt>
<trkpt lat="46.0363990" lon="10.3910930">
	<ele>1540.80</ele>
	<time>2024-07-24T08:39:07.000Z</time>
</trkpt>
<trkpt lat="46.0364080" lon="10.3911110">
	<ele>1540.80</ele>
	<time>2024-07-24T08:39:08.000Z</time>
</trkpt>
<trkpt lat="46.0364160" lon="10.3911300">
	<ele>1541.00</ele>
	<time>2024-07-24T08:39:09.000Z</time>
</trkpt>
<trkpt lat="46.0364190" lon="10.3911410">
	<ele>1541.00</ele>
	<time>2024-07-24T08:39:10.000Z</time>
</trkpt>
<trkpt lat="46.0364230" lon="10.3911480">
	<ele>1541.20</ele>
	<time>2024-07-24T08:39:11.000Z</time>
</trkpt>
<trkpt lat="46.0364260" lon="10.3911570">
	<ele>1541.20</ele>
	<time>2024-07-24T08:39:12.000Z</time>
</trkpt>
<trkpt lat="46.0364280" lon="10.3911650">
	<ele>1541.40</ele>
	<time>2024-07-24T08:39:13.000Z</time>
</trkpt>
<trkpt lat="46.0364320" lon="10.3911790">
	<ele>1541.40</ele>
	<time>2024-07-24T08:39:14.000Z</time>
</trkpt>
<trkpt lat="46.0364440" lon="10.3911920">
	<ele>1541.60</ele>
	<time>2024-07-24T08:39:15.000Z</time>
</trkpt>
<trkpt lat="46.0364560" lon="10.3912020">
	<ele>1541.80</ele>
	<time>2024-07-24T08:39:16.000Z</time>
</trkpt>
<trkpt lat="46.0364700" lon="10.3912130">
	<ele>1542.00</ele>
	<time>2024-07-24T08:39:17.000Z</time>
</trkpt>
<trkpt lat="46.0364920" lon="10.3912290">
	<ele>1542.20</ele>
	<time>2024-07-24T08:39:18.000Z</time>
</trkpt>
<trkpt lat="46.0365030" lon="10.3912390">
	<ele>1542.40</ele>
	<time>2024-07-24T08:39:19.000Z</time>
</trkpt>
<trkpt lat="46.0365130" lon="10.3912520">
	<ele>1542.60</ele>
	<time>2024-07-24T08:39:20.000Z</time>
</trkpt>
<trkpt lat="46.0365200" lon="10.3912650">
	<ele>1542.60</ele>
	<time>2024-07-24T08:39:21.000Z</time>
</trkpt>
<trkpt lat="46.0365250" lon="10.3912740">
	<ele>1542.80</ele>
	<time>2024-07-24T08:39:22.000Z</time>
</trkpt>
<trkpt lat="46.0365240" lon="10.3912840">
	<ele>1542.80</ele>
	<time>2024-07-24T08:39:23.000Z</time>
</trkpt>
<trkpt lat="46.0365290" lon="10.3912920">
	<ele>1543.00</ele>
	<time>2024-07-24T08:39:24.000Z</time>
</trkpt>
<trkpt lat="46.0365390" lon="10.3913060">
	<ele>1543.00</ele>
	<time>2024-07-24T08:39:25.000Z</time>
</trkpt>
<trkpt lat="46.0365480" lon="10.3913190">
	<ele>1543.20</ele>
	<time>2024-07-24T08:39:26.000Z</time>
</trkpt>
<trkpt lat="46.0365530" lon="10.3913300">
	<ele>1543.20</ele>
	<time>2024-07-24T08:39:27.000Z</time>
</trkpt>
<trkpt lat="46.0365640" lon="10.3913420">
	<ele>1543.40</ele>
	<time>2024-07-24T08:39:28.000Z</time>
</trkpt>
<trkpt lat="46.0365740" lon="10.3913510">
	<ele>1543.40</ele>
	<time>2024-07-24T08:39:29.000Z</time>
</trkpt>
<trkpt lat="46.0365820" lon="10.3913610">
	<ele>1543.60</ele>
	<time>2024-07-24T08:39:30.000Z</time>
</trkpt>
<trkpt lat="46.0365890" lon="10.3913800">
	<ele>1543.80</ele>
	<time>2024-07-24T08:39:31.000Z</time>
</trkpt>
<trkpt lat="46.0365940" lon="10.3913980">
	<ele>1543.80</ele>
	<time>2024-07-24T08:39:32.000Z</time>
</trkpt>
<trkpt lat="46.0365990" lon="10.3914160">
	<ele>1544.00</ele>
	<time>2024-07-24T08:39:33.000Z</time>
</trkpt>
<trkpt lat="46.0366060" lon="10.3914290">
	<ele>1544.00</ele>
	<time>2024-07-24T08:39:34.000Z</time>
</trkpt>
<trkpt lat="46.0366130" lon="10.3914430">
	<ele>1544.00</ele>
	<time>2024-07-24T08:39:35.000Z</time>
</trkpt>
<trkpt lat="46.0366200" lon="10.3914540">
	<ele>1544.20</ele>
	<time>2024-07-24T08:39:36.000Z</time>
</trkpt>
<trkpt lat="46.0366240" lon="10.3914650">
	<ele>1544.40</ele>
	<time>2024-07-24T08:39:37.000Z</time>
</trkpt>
<trkpt lat="46.0366280" lon="10.3914780">
	<ele>1544.60</ele>
	<time>2024-07-24T08:39:38.000Z</time>
</trkpt>
<trkpt lat="46.0366330" lon="10.3914910">
	<ele>1544.60</ele>
	<time>2024-07-24T08:39:39.000Z</time>
</trkpt>
<trkpt lat="46.0366410" lon="10.3915090">
	<ele>1544.60</ele>
	<time>2024-07-24T08:39:40.000Z</time>
</trkpt>
<trkpt lat="46.0366480" lon="10.3915270">
	<ele>1544.60</ele>
	<time>2024-07-24T08:39:41.000Z</time>
</trkpt>
<trkpt lat="46.0366540" lon="10.3915390">
	<ele>1544.80</ele>
	<time>2024-07-24T08:39:42.000Z</time>
</trkpt>
<trkpt lat="46.0366590" lon="10.3915500">
	<ele>1545.00</ele>
	<time>2024-07-24T08:39:43.000Z</time>
</trkpt>
<trkpt lat="46.0366650" lon="10.3915620">
	<ele>1545.20</ele>
	<time>2024-07-24T08:39:44.000Z</time>
</trkpt>
<trkpt lat="46.0366710" lon="10.3915750">
	<ele>1545.20</ele>
	<time>2024-07-24T08:39:45.000Z</time>
</trkpt>
<trkpt lat="46.0366730" lon="10.3915860">
	<ele>1545.40</ele>
	<time>2024-07-24T08:39:46.000Z</time>
</trkpt>
<trkpt lat="46.0366760" lon="10.3915980">
	<ele>1545.60</ele>
	<time>2024-07-24T08:39:47.000Z</time>
</trkpt>
<trkpt lat="46.0366800" lon="10.3916100">
	<ele>1545.60</ele>
	<time>2024-07-24T08:39:48.000Z</time>
</trkpt>
<trkpt lat="46.0366850" lon="10.3916250">
	<ele>1545.60</ele>
	<time>2024-07-24T08:39:49.000Z</time>
</trkpt>
<trkpt lat="46.0366920" lon="10.3916360">
	<ele>1545.80</ele>
	<time>2024-07-24T08:39:50.000Z</time>
</trkpt>
<trkpt lat="46.0366960" lon="10.3916520">
	<ele>1545.80</ele>
	<time>2024-07-24T08:39:51.000Z</time>
</trkpt>
<trkpt lat="46.0367050" lon="10.3916630">
	<ele>1546.00</ele>
	<time>2024-07-24T08:39:52.000Z</time>
</trkpt>
<trkpt lat="46.0367110" lon="10.3916730">
	<ele>1546.40</ele>
	<time>2024-07-24T08:39:53.000Z</time>
</trkpt>
<trkpt lat="46.0367150" lon="10.3916840">
	<ele>1546.40</ele>
	<time>2024-07-24T08:39:54.000Z</time>
</trkpt>
<trkpt lat="46.0367220" lon="10.3916910">
	<ele>1546.60</ele>
	<time>2024-07-24T08:39:55.000Z</time>
</trkpt>
<trkpt lat="46.0367300" lon="10.3917020">
	<ele>1546.60</ele>
	<time>2024-07-24T08:39:56.000Z</time>
</trkpt>
<trkpt lat="46.0367370" lon="10.3917080">
	<ele>1546.80</ele>
	<time>2024-07-24T08:39:57.000Z</time>
</trkpt>
<trkpt lat="46.0367400" lon="10.3917120">
	<ele>1546.80</ele>
	<time>2024-07-24T08:39:58.000Z</time>
</trkpt>
<trkpt lat="46.0367400" lon="10.3917140">
	<ele>1546.80</ele>
	<time>2024-07-24T08:39:59.000Z</time>
</trkpt>
<trkpt lat="46.0367370" lon="10.3917160">
	<ele>1546.80</ele>
	<time>2024-07-24T08:40:00.000Z</time>
</trkpt>
<trkpt lat="46.0367350" lon="10.3917200">
	<ele>1547.00</ele>
	<time>2024-07-24T08:40:01.000Z</time>
</trkpt>
<trkpt lat="46.0367340" lon="10.3917240">
	<ele>1547.00</ele>
	<time>2024-07-24T08:40:02.000Z</time>
</trkpt>
<trkpt lat="46.0367330" lon="10.3917270">
	<ele>1547.00</ele>
	<time>2024-07-24T08:40:03.000Z</time>
</trkpt>
<trkpt lat="46.0367320" lon="10.3917290">
	<ele>1547.20</ele>
	<time>2024-07-24T08:40:04.000Z</time>
</trkpt>
<trkpt lat="46.0367300" lon="10.3917290">
	<ele>1547.20</ele>
	<time>2024-07-24T08:40:05.000Z</time>
</trkpt>
<trkpt lat="46.0367250" lon="10.3917270">
	<ele>1547.20</ele>
	<time>2024-07-24T08:40:06.000Z</time>
</trkpt>
<trkpt lat="46.0367200" lon="10.3917270">
	<ele>1547.20</ele>
	<time>2024-07-24T08:40:07.000Z</time>
</trkpt>
<trkpt lat="46.0367150" lon="10.3917210">
	<ele>1547.00</ele>
	<time>2024-07-24T08:40:08.000Z</time>
</trkpt>
<trkpt lat="46.0367140" lon="10.3917220">
	<ele>1546.80</ele>
	<time>2024-07-24T08:40:09.000Z</time>
</trkpt>
<trkpt lat="46.0367130" lon="10.3917210">
	<ele>1546.80</ele>
	<time>2024-07-24T08:40:10.000Z</time>
</trkpt>
<trkpt lat="46.0367130" lon="10.3917220">
	<ele>1546.80</ele>
	<time>2024-07-24T08:40:11.000Z</time>
</trkpt>
<trkpt lat="46.0367160" lon="10.3917260">
	<ele>1546.80</ele>
	<time>2024-07-24T08:40:12.000Z</time>
</trkpt>
<trkpt lat="46.0367200" lon="10.3917260">
	<ele>1546.60</ele>
	<time>2024-07-24T08:40:13.000Z</time>
</trkpt>
<trkpt lat="46.0367220" lon="10.3917250">
	<ele>1546.80</ele>
	<time>2024-07-24T08:40:14.000Z</time>
</trkpt>
<trkpt lat="46.0367290" lon="10.3917330">
	<ele>1546.80</ele>
	<time>2024-07-24T08:40:15.000Z</time>
</trkpt>
<trkpt lat="46.0367360" lon="10.3917390">
	<ele>1546.80</ele>
	<time>2024-07-24T08:40:16.000Z</time>
</trkpt>
<trkpt lat="46.0367450" lon="10.3917480">
	<ele>1547.00</ele>
	<time>2024-07-24T08:40:17.000Z</time>
</trkpt>
<trkpt lat="46.0367580" lon="10.3917540">
	<ele>1547.00</ele>
	<time>2024-07-24T08:40:18.000Z</time>
</trkpt>
<trkpt lat="46.0367710" lon="10.3917520">
	<ele>1547.40</ele>
	<time>2024-07-24T08:40:19.000Z</time>
</trkpt>
<trkpt lat="46.0367830" lon="10.3917520">
	<ele>1547.60</ele>
	<time>2024-07-24T08:40:20.000Z</time>
</trkpt>
<trkpt lat="46.0367910" lon="10.3917520">
	<ele>1547.60</ele>
	<time>2024-07-24T08:40:21.000Z</time>
</trkpt>
<trkpt lat="46.0368030" lon="10.3917520">
	<ele>1547.80</ele>
	<time>2024-07-24T08:40:22.000Z</time>
</trkpt>
<trkpt lat="46.0368150" lon="10.3917560">
	<ele>1548.00</ele>
	<time>2024-07-24T08:40:23.000Z</time>
</trkpt>
<trkpt lat="46.0368280" lon="10.3917680">
	<ele>1548.00</ele>
	<time>2024-07-24T08:40:24.000Z</time>
</trkpt>
<trkpt lat="46.0368340" lon="10.3917780">
	<ele>1548.20</ele>
	<time>2024-07-24T08:40:25.000Z</time>
</trkpt>
<trkpt lat="46.0368390" lon="10.3917860">
	<ele>1548.20</ele>
	<time>2024-07-24T08:40:26.000Z</time>
</trkpt>
<trkpt lat="46.0368490" lon="10.3917950">
	<ele>1548.20</ele>
	<time>2024-07-24T08:40:27.000Z</time>
</trkpt>
<trkpt lat="46.0368570" lon="10.3918040">
	<ele>1548.40</ele>
	<time>2024-07-24T08:40:28.000Z</time>
</trkpt>
<trkpt lat="46.0368680" lon="10.3918100">
	<ele>1548.40</ele>
	<time>2024-07-24T08:40:29.000Z</time>
</trkpt>
<trkpt lat="46.0368780" lon="10.3918110">
	<ele>1548.40</ele>
	<time>2024-07-24T08:40:30.000Z</time>
</trkpt>
<trkpt lat="46.0368870" lon="10.3918060">
	<ele>1548.40</ele>
	<time>2024-07-24T08:40:31.000Z</time>
</trkpt>
<trkpt lat="46.0368960" lon="10.3918060">
	<ele>1548.40</ele>
	<time>2024-07-24T08:40:32.000Z</time>
</trkpt>
<trkpt lat="46.0369040" lon="10.3918090">
	<ele>1548.60</ele>
	<time>2024-07-24T08:40:33.000Z</time>
</trkpt>
<trkpt lat="46.0369170" lon="10.3918120">
	<ele>1548.60</ele>
	<time>2024-07-24T08:40:34.000Z</time>
</trkpt>
<trkpt lat="46.0369290" lon="10.3918190">
	<ele>1548.60</ele>
	<time>2024-07-24T08:40:35.000Z</time>
</trkpt>
<trkpt lat="46.0369390" lon="10.3918240">
	<ele>1548.60</ele>
	<time>2024-07-24T08:40:36.000Z</time>
</trkpt>
<trkpt lat="46.0369490" lon="10.3918300">
	<ele>1548.80</ele>
	<time>2024-07-24T08:40:37.000Z</time>
</trkpt>
<trkpt lat="46.0369630" lon="10.3918330">
	<ele>1548.80</ele>
	<time>2024-07-24T08:40:38.000Z</time>
</trkpt>
<trkpt lat="46.0369740" lon="10.3918360">
	<ele>1549.00</ele>
	<time>2024-07-24T08:40:39.000Z</time>
</trkpt>
<trkpt lat="46.0369820" lon="10.3918450">
	<ele>1549.00</ele>
	<time>2024-07-24T08:40:40.000Z</time>
</trkpt>
<trkpt lat="46.0369910" lon="10.3918560">
	<ele>1549.20</ele>
	<time>2024-07-24T08:40:41.000Z</time>
</trkpt>
<trkpt lat="46.0370010" lon="10.3918640">
	<ele>1549.20</ele>
	<time>2024-07-24T08:40:42.000Z</time>
</trkpt>
<trkpt lat="46.0370100" lon="10.3918730">
	<ele>1549.20</ele>
	<time>2024-07-24T08:40:43.000Z</time>
</trkpt>
<trkpt lat="46.0370180" lon="10.3918840">
	<ele>1549.40</ele>
	<time>2024-07-24T08:40:44.000Z</time>
</trkpt>
<trkpt lat="46.0370250" lon="10.3918960">
	<ele>1549.60</ele>
	<time>2024-07-24T08:40:45.000Z</time>
</trkpt>
<trkpt lat="46.0370330" lon="10.3919070">
	<ele>1549.80</ele>
	<time>2024-07-24T08:40:46.000Z</time>
</trkpt>
<trkpt lat="46.0370410" lon="10.3919150">
	<ele>1550.00</ele>
	<time>2024-07-24T08:40:47.000Z</time>
</trkpt>
<trkpt lat="46.0370510" lon="10.3919230">
	<ele>1550.20</ele>
	<time>2024-07-24T08:40:48.000Z</time>
</trkpt>
<trkpt lat="46.0370620" lon="10.3919310">
	<ele>1550.20</ele>
	<time>2024-07-24T08:40:49.000Z</time>
</trkpt>
<trkpt lat="46.0370720" lon="10.3919400">
	<ele>1550.40</ele>
	<time>2024-07-24T08:40:50.000Z</time>
</trkpt>
<trkpt lat="46.0370770" lon="10.3919490">
	<ele>1550.60</ele>
	<time>2024-07-24T08:40:51.000Z</time>
</trkpt>
<trkpt lat="46.0370860" lon="10.3919600">
	<ele>1551.00</ele>
	<time>2024-07-24T08:40:52.000Z</time>
</trkpt>
<trkpt lat="46.0370980" lon="10.3919700">
	<ele>1551.00</ele>
	<time>2024-07-24T08:40:53.000Z</time>
</trkpt>
<trkpt lat="46.0371090" lon="10.3919830">
	<ele>1551.20</ele>
	<time>2024-07-24T08:40:54.000Z</time>
</trkpt>
<trkpt lat="46.0371180" lon="10.3919950">
	<ele>1551.40</ele>
	<time>2024-07-24T08:40:55.000Z</time>
</trkpt>
<trkpt lat="46.0371270" lon="10.3920070">
	<ele>1551.40</ele>
	<time>2024-07-24T08:40:56.000Z</time>
</trkpt>
<trkpt lat="46.0371370" lon="10.3920160">
	<ele>1551.60</ele>
	<time>2024-07-24T08:40:57.000Z</time>
</trkpt>
<trkpt lat="46.0371490" lon="10.3920230">
	<ele>1551.80</ele>
	<time>2024-07-24T08:40:58.000Z</time>
</trkpt>
<trkpt lat="46.0371560" lon="10.3920280">
	<ele>1552.00</ele>
	<time>2024-07-24T08:40:59.000Z</time>
</trkpt>
<trkpt lat="46.0371620" lon="10.3920330">
	<ele>1552.20</ele>
	<time>2024-07-24T08:41:00.000Z</time>
</trkpt>
<trkpt lat="46.0371700" lon="10.3920400">
	<ele>1552.40</ele>
	<time>2024-07-24T08:41:01.000Z</time>
</trkpt>
<trkpt lat="46.0371810" lon="10.3920500">
	<ele>1552.60</ele>
	<time>2024-07-24T08:41:02.000Z</time>
</trkpt>
<trkpt lat="46.0371910" lon="10.3920640">
	<ele>1552.60</ele>
	<time>2024-07-24T08:41:03.000Z</time>
</trkpt>
<trkpt lat="46.0372030" lon="10.3920740">
	<ele>1552.60</ele>
	<time>2024-07-24T08:41:04.000Z</time>
</trkpt>
<trkpt lat="46.0372140" lon="10.3920820">
	<ele>1552.80</ele>
	<time>2024-07-24T08:41:05.000Z</time>
</trkpt>
<trkpt lat="46.0372230" lon="10.3920910">
	<ele>1553.00</ele>
	<time>2024-07-24T08:41:06.000Z</time>
</trkpt>
<trkpt lat="46.0372280" lon="10.3920960">
	<ele>1553.20</ele>
	<time>2024-07-24T08:41:07.000Z</time>
</trkpt>
<trkpt lat="46.0372370" lon="10.3921040">
	<ele>1553.20</ele>
	<time>2024-07-24T08:41:08.000Z</time>
</trkpt>
<trkpt lat="46.0372460" lon="10.3921140">
	<ele>1553.40</ele>
	<time>2024-07-24T08:41:09.000Z</time>
</trkpt>
<trkpt lat="46.0372560" lon="10.3921260">
	<ele>1553.60</ele>
	<time>2024-07-24T08:41:10.000Z</time>
</trkpt>
<trkpt lat="46.0372680" lon="10.3921350">
	<ele>1553.60</ele>
	<time>2024-07-24T08:41:11.000Z</time>
</trkpt>
<trkpt lat="46.0372760" lon="10.3921400">
	<ele>1553.80</ele>
	<time>2024-07-24T08:41:12.000Z</time>
</trkpt>
<trkpt lat="46.0372820" lon="10.3921440">
	<ele>1553.80</ele>
	<time>2024-07-24T08:41:13.000Z</time>
</trkpt>
<trkpt lat="46.0372930" lon="10.3921520">
	<ele>1553.80</ele>
	<time>2024-07-24T08:41:14.000Z</time>
</trkpt>
<trkpt lat="46.0373050" lon="10.3921610">
	<ele>1553.80</ele>
	<time>2024-07-24T08:41:15.000Z</time>
</trkpt>
<trkpt lat="46.0373140" lon="10.3921660">
	<ele>1553.80</ele>
	<time>2024-07-24T08:41:16.000Z</time>
</trkpt>
<trkpt lat="46.0373250" lon="10.3921750">
	<ele>1554.00</ele>
	<time>2024-07-24T08:41:17.000Z</time>
</trkpt>
<trkpt lat="46.0373340" lon="10.3921870">
	<ele>1554.00</ele>
	<time>2024-07-24T08:41:18.000Z</time>
</trkpt>
<trkpt lat="46.0373430" lon="10.3921950">
	<ele>1554.20</ele>
	<time>2024-07-24T08:41:19.000Z</time>
</trkpt>
<trkpt lat="46.0373520" lon="10.3922010">
	<ele>1554.20</ele>
	<time>2024-07-24T08:41:20.000Z</time>
</trkpt>
<trkpt lat="46.0373640" lon="10.3922080">
	<ele>1554.40</ele>
	<time>2024-07-24T08:41:21.000Z</time>
</trkpt>
<trkpt lat="46.0373790" lon="10.3922170">
	<ele>1554.60</ele>
	<time>2024-07-24T08:41:22.000Z</time>
</trkpt>
<trkpt lat="46.0373900" lon="10.3922240">
	<ele>1554.60</ele>
	<time>2024-07-24T08:41:23.000Z</time>
</trkpt>
<trkpt lat="46.0373980" lon="10.3922310">
	<ele>1554.80</ele>
	<time>2024-07-24T08:41:24.000Z</time>
</trkpt>
<trkpt lat="46.0374080" lon="10.3922420">
	<ele>1555.00</ele>
	<time>2024-07-24T08:41:25.000Z</time>
</trkpt>
<trkpt lat="46.0374140" lon="10.3922530">
	<ele>1555.20</ele>
	<time>2024-07-24T08:41:26.000Z</time>
</trkpt>
<trkpt lat="46.0374160" lon="10.3922630">
	<ele>1555.40</ele>
	<time>2024-07-24T08:41:27.000Z</time>
</trkpt>
<trkpt lat="46.0374200" lon="10.3922720">
	<ele>1555.60</ele>
	<time>2024-07-24T08:41:28.000Z</time>
</trkpt>
<trkpt lat="46.0374280" lon="10.3922820">
	<ele>1555.80</ele>
	<time>2024-07-24T08:41:29.000Z</time>
</trkpt>
<trkpt lat="46.0374350" lon="10.3922930">
	<ele>1556.00</ele>
	<time>2024-07-24T08:41:30.000Z</time>
</trkpt>
<trkpt lat="46.0374410" lon="10.3922980">
	<ele>1556.20</ele>
	<time>2024-07-24T08:41:31.000Z</time>
</trkpt>
<trkpt lat="46.0374470" lon="10.3923070">
	<ele>1556.40</ele>
	<time>2024-07-24T08:41:32.000Z</time>
</trkpt>
<trkpt lat="46.0374520" lon="10.3923150">
	<ele>1556.60</ele>
	<time>2024-07-24T08:41:33.000Z</time>
</trkpt>
<trkpt lat="46.0374600" lon="10.3923250">
	<ele>1556.80</ele>
	<time>2024-07-24T08:41:34.000Z</time>
</trkpt>
<trkpt lat="46.0374660" lon="10.3923330">
	<ele>1557.00</ele>
	<time>2024-07-24T08:41:35.000Z</time>
</trkpt>
<trkpt lat="46.0374670" lon="10.3923440">
	<ele>1557.20</ele>
	<time>2024-07-24T08:41:36.000Z</time>
</trkpt>
<trkpt lat="46.0374720" lon="10.3923540">
	<ele>1557.20</ele>
	<time>2024-07-24T08:41:37.000Z</time>
</trkpt>
<trkpt lat="46.0374750" lon="10.3923580">
	<ele>1557.40</ele>
	<time>2024-07-24T08:41:38.000Z</time>
</trkpt>
<trkpt lat="46.0374790" lon="10.3923590">
	<ele>1557.60</ele>
	<time>2024-07-24T08:41:39.000Z</time>
</trkpt>
<trkpt lat="46.0374830" lon="10.3923700">
	<ele>1557.80</ele>
	<time>2024-07-24T08:41:40.000Z</time>
</trkpt>
<trkpt lat="46.0374860" lon="10.3923750">
	<ele>1558.00</ele>
	<time>2024-07-24T08:41:41.000Z</time>
</trkpt>
<trkpt lat="46.0374860" lon="10.3923860">
	<ele>1558.00</ele>
	<time>2024-07-24T08:41:42.000Z</time>
</trkpt>
<trkpt lat="46.0374860" lon="10.3923880">
	<ele>1558.20</ele>
	<time>2024-07-24T08:41:43.000Z</time>
</trkpt>
<trkpt lat="46.0374840" lon="10.3923920">
	<ele>1558.40</ele>
	<time>2024-07-24T08:41:44.000Z</time>
</trkpt>
<trkpt lat="46.0374840" lon="10.3923990">
	<ele>1558.60</ele>
	<time>2024-07-24T08:41:45.000Z</time>
</trkpt>
<trkpt lat="46.0374820" lon="10.3924000">
	<ele>1558.80</ele>
	<time>2024-07-24T08:41:46.000Z</time>
</trkpt>
<trkpt lat="46.0374830" lon="10.3924010">
	<ele>1558.80</ele>
	<time>2024-07-24T08:41:47.000Z</time>
</trkpt>
<trkpt lat="46.0374840" lon="10.3924030">
	<ele>1558.80</ele>
	<time>2024-07-24T08:41:48.000Z</time>
</trkpt>
<trkpt lat="46.0374850" lon="10.3924070">
	<ele>1558.80</ele>
	<time>2024-07-24T08:41:49.000Z</time>
</trkpt>
<trkpt lat="46.0374940" lon="10.3924070">
	<ele>1558.80</ele>
	<time>2024-07-24T08:41:50.000Z</time>
</trkpt>
<trkpt lat="46.0375040" lon="10.3924120">
	<ele>1558.80</ele>
	<time>2024-07-24T08:41:51.000Z</time>
</trkpt>
<trkpt lat="46.0375130" lon="10.3924190">
	<ele>1558.80</ele>
	<time>2024-07-24T08:41:52.000Z</time>
</trkpt>
<trkpt lat="46.0375210" lon="10.3924280">
	<ele>1558.80</ele>
	<time>2024-07-24T08:41:53.000Z</time>
</trkpt>
<trkpt lat="46.0375300" lon="10.3924430">
	<ele>1558.80</ele>
	<time>2024-07-24T08:41:54.000Z</time>
</trkpt>
<trkpt lat="46.0375420" lon="10.3924560">
	<ele>1558.80</ele>
	<time>2024-07-24T08:41:55.000Z</time>
</trkpt>
<trkpt lat="46.0375510" lon="10.3924670">
	<ele>1558.80</ele>
	<time>2024-07-24T08:41:56.000Z</time>
</trkpt>
<trkpt lat="46.0375530" lon="10.3924700">
	<ele>1559.00</ele>
	<time>2024-07-24T08:41:57.000Z</time>
</trkpt>
<trkpt lat="46.0375530" lon="10.3924700">
	<ele>1559.00</ele>
	<time>2024-07-24T08:41:58.000Z</time>
</trkpt>
<trkpt lat="46.0375540" lon="10.3924720">
	<ele>1559.20</ele>
	<time>2024-07-24T08:41:59.000Z</time>
</trkpt>
<trkpt lat="46.0375620" lon="10.3924710">
	<ele>1559.40</ele>
	<time>2024-07-24T08:42:00.000Z</time>
</trkpt>
<trkpt lat="46.0375700" lon="10.3924650">
	<ele>1559.60</ele>
	<time>2024-07-24T08:42:01.000Z</time>
</trkpt>
<trkpt lat="46.0375720" lon="10.3924600">
	<ele>1559.80</ele>
	<time>2024-07-24T08:42:02.000Z</time>
</trkpt>
<trkpt lat="46.0375710" lon="10.3924550">
	<ele>1560.00</ele>
	<time>2024-07-24T08:42:03.000Z</time>
</trkpt>
<trkpt lat="46.0375690" lon="10.3924480">
	<ele>1560.20</ele>
	<time>2024-07-24T08:42:04.000Z</time>
</trkpt>
<trkpt lat="46.0375580" lon="10.3924370">
	<ele>1560.20</ele>
	<time>2024-07-24T08:42:05.000Z</time>
</trkpt>
<trkpt lat="46.0375550" lon="10.3924210">
	<ele>1560.60</ele>
	<time>2024-07-24T08:42:06.000Z</time>
</trkpt>
<trkpt lat="46.0375550" lon="10.3924100">
	<ele>1560.80</ele>
	<time>2024-07-24T08:42:07.000Z</time>
</trkpt>
<trkpt lat="46.0375550" lon="10.3924030">
	<ele>1561.00</ele>
	<time>2024-07-24T08:42:08.000Z</time>
</trkpt>
<trkpt lat="46.0375570" lon="10.3923960">
	<ele>1561.20</ele>
	<time>2024-07-24T08:42:09.000Z</time>
</trkpt>
<trkpt lat="46.0375570" lon="10.3923870">
	<ele>1561.40</ele>
	<time>2024-07-24T08:42:10.000Z</time>
</trkpt>
<trkpt lat="46.0375570" lon="10.3923880">
	<ele>1561.60</ele>
	<time>2024-07-24T08:42:11.000Z</time>
</trkpt>
<trkpt lat="46.0375560" lon="10.3923890">
	<ele>1562.00</ele>
	<time>2024-07-24T08:42:12.000Z</time>
</trkpt>
<trkpt lat="46.0375530" lon="10.3923880">
	<ele>1562.00</ele>
	<time>2024-07-24T08:42:13.000Z</time>
</trkpt>
<trkpt lat="46.0375510" lon="10.3923880">
	<ele>1562.20</ele>
	<time>2024-07-24T08:42:14.000Z</time>
</trkpt>
<trkpt lat="46.0375480" lon="10.3923850">
	<ele>1562.20</ele>
	<time>2024-07-24T08:42:15.000Z</time>
</trkpt>
<trkpt lat="46.0375470" lon="10.3923720">
	<ele>1562.20</ele>
	<time>2024-07-24T08:42:16.000Z</time>
</trkpt>
<trkpt lat="46.0375470" lon="10.3923580">
	<ele>1562.20</ele>
	<time>2024-07-24T08:42:17.000Z</time>
</trkpt>
<trkpt lat="46.0375440" lon="10.3923440">
	<ele>1562.40</ele>
	<time>2024-07-24T08:42:18.000Z</time>
</trkpt>
<trkpt lat="46.0375510" lon="10.3923330">
	<ele>1562.60</ele>
	<time>2024-07-24T08:42:19.000Z</time>
</trkpt>
<trkpt lat="46.0375540" lon="10.3923160">
	<ele>1562.60</ele>
	<time>2024-07-24T08:42:20.000Z</time>
</trkpt>
<trkpt lat="46.0375530" lon="10.3922950">
	<ele>1562.80</ele>
	<time>2024-07-24T08:42:21.000Z</time>
</trkpt>
<trkpt lat="46.0375520" lon="10.3922720">
	<ele>1562.80</ele>
	<time>2024-07-24T08:42:22.000Z</time>
</trkpt>
<trkpt lat="46.0375520" lon="10.3922530">
	<ele>1562.80</ele>
	<time>2024-07-24T08:42:23.000Z</time>
</trkpt>
<trkpt lat="46.0375470" lon="10.3922360">
	<ele>1562.80</ele>
	<time>2024-07-24T08:42:24.000Z</time>
</trkpt>
<trkpt lat="46.0375420" lon="10.3922160">
	<ele>1562.80</ele>
	<time>2024-07-24T08:42:25.000Z</time>
</trkpt>
<trkpt lat="46.0375380" lon="10.3921880">
	<ele>1562.80</ele>
	<time>2024-07-24T08:42:26.000Z</time>
</trkpt>
<trkpt lat="46.0375370" lon="10.3921620">
	<ele>1562.80</ele>
	<time>2024-07-24T08:42:27.000Z</time>
</trkpt>
<trkpt lat="46.0375350" lon="10.3921390">
	<ele>1562.80</ele>
	<time>2024-07-24T08:42:28.000Z</time>
</trkpt>
<trkpt lat="46.0375340" lon="10.3921160">
	<ele>1562.80</ele>
	<time>2024-07-24T08:42:29.000Z</time>
</trkpt>
<trkpt lat="46.0375290" lon="10.3921000">
	<ele>1562.80</ele>
	<time>2024-07-24T08:42:30.000Z</time>
</trkpt>
<trkpt lat="46.0375220" lon="10.3920880">
	<ele>1562.80</ele>
	<time>2024-07-24T08:42:31.000Z</time>
</trkpt>
<trkpt lat="46.0375190" lon="10.3920740">
	<ele>1562.80</ele>
	<time>2024-07-24T08:42:32.000Z</time>
</trkpt>
<trkpt lat="46.0375170" lon="10.3920600">
	<ele>1563.00</ele>
	<time>2024-07-24T08:42:33.000Z</time>
</trkpt>
<trkpt lat="46.0375130" lon="10.3920450">
	<ele>1563.00</ele>
	<time>2024-07-24T08:42:34.000Z</time>
</trkpt>
<trkpt lat="46.0375100" lon="10.3920260">
	<ele>1563.00</ele>
	<time>2024-07-24T08:42:35.000Z</time>
</trkpt>
<trkpt lat="46.0375070" lon="10.3920060">
	<ele>1563.20</ele>
	<time>2024-07-24T08:42:36.000Z</time>
</trkpt>
<trkpt lat="46.0375010" lon="10.3919880">
	<ele>1563.20</ele>
	<time>2024-07-24T08:42:37.000Z</time>
</trkpt>
<trkpt lat="46.0374950" lon="10.3919700">
	<ele>1563.20</ele>
	<time>2024-07-24T08:42:38.000Z</time>
</trkpt>
<trkpt lat="46.0374890" lon="10.3919500">
	<ele>1563.40</ele>
	<time>2024-07-24T08:42:39.000Z</time>
</trkpt>
<trkpt lat="46.0374850" lon="10.3919340">
	<ele>1563.40</ele>
	<time>2024-07-24T08:42:40.000Z</time>
</trkpt>
<trkpt lat="46.0374830" lon="10.3919190">
	<ele>1563.40</ele>
	<time>2024-07-24T08:42:41.000Z</time>
</trkpt>
<trkpt lat="46.0374810" lon="10.3919020">
	<ele>1563.60</ele>
	<time>2024-07-24T08:42:42.000Z</time>
</trkpt>
<trkpt lat="46.0374790" lon="10.3918850">
	<ele>1563.60</ele>
	<time>2024-07-24T08:42:43.000Z</time>
</trkpt>
<trkpt lat="46.0374760" lon="10.3918670">
	<ele>1563.80</ele>
	<time>2024-07-24T08:42:44.000Z</time>
</trkpt>
<trkpt lat="46.0374720" lon="10.3918490">
	<ele>1563.80</ele>
	<time>2024-07-24T08:42:45.000Z</time>
</trkpt>
<trkpt lat="46.0374660" lon="10.3918290">
	<ele>1564.00</ele>
	<time>2024-07-24T08:42:46.000Z</time>
</trkpt>
<trkpt lat="46.0374640" lon="10.3918080">
	<ele>1564.00</ele>
	<time>2024-07-24T08:42:47.000Z</time>
</trkpt>
<trkpt lat="46.0374610" lon="10.3917860">
	<ele>1564.20</ele>
	<time>2024-07-24T08:42:48.000Z</time>
</trkpt>
<trkpt lat="46.0374600" lon="10.3917670">
	<ele>1564.20</ele>
	<time>2024-07-24T08:42:49.000Z</time>
</trkpt>
<trkpt lat="46.0374560" lon="10.3917490">
	<ele>1564.40</ele>
	<time>2024-07-24T08:42:50.000Z</time>
</trkpt>
<trkpt lat="46.0374490" lon="10.3917340">
	<ele>1564.60</ele>
	<time>2024-07-24T08:42:51.000Z</time>
</trkpt>
<trkpt lat="46.0374410" lon="10.3917160">
	<ele>1564.80</ele>
	<time>2024-07-24T08:42:52.000Z</time>
</trkpt>
<trkpt lat="46.0374360" lon="10.3917020">
	<ele>1564.80</ele>
	<time>2024-07-24T08:42:53.000Z</time>
</trkpt>
<trkpt lat="46.0374310" lon="10.3916900">
	<ele>1565.00</ele>
	<time>2024-07-24T08:42:54.000Z</time>
</trkpt>
<trkpt lat="46.0374290" lon="10.3916790">
	<ele>1565.00</ele>
	<time>2024-07-24T08:42:55.000Z</time>
</trkpt>
<trkpt lat="46.0374260" lon="10.3916670">
	<ele>1565.20</ele>
	<time>2024-07-24T08:42:56.000Z</time>
</trkpt>
<trkpt lat="46.0374240" lon="10.3916520">
	<ele>1565.40</ele>
	<time>2024-07-24T08:42:57.000Z</time>
</trkpt>
<trkpt lat="46.0374230" lon="10.3916330">
	<ele>1565.40</ele>
	<time>2024-07-24T08:42:58.000Z</time>
</trkpt>
<trkpt lat="46.0374230" lon="10.3916140">
	<ele>1565.60</ele>
	<time>2024-07-24T08:42:59.000Z</time>
</trkpt>
<trkpt lat="46.0374210" lon="10.3916000">
	<ele>1565.60</ele>
	<time>2024-07-24T08:43:00.000Z</time>
</trkpt>
<trkpt lat="46.0374190" lon="10.3915910">
	<ele>1565.80</ele>
	<time>2024-07-24T08:43:01.000Z</time>
</trkpt>
<trkpt lat="46.0374130" lon="10.3915820">
	<ele>1566.00</ele>
	<time>2024-07-24T08:43:02.000Z</time>
</trkpt>
<trkpt lat="46.0374030" lon="10.3915730">
	<ele>1566.00</ele>
	<time>2024-07-24T08:43:03.000Z</time>
</trkpt>
<trkpt lat="46.0373940" lon="10.3915630">
	<ele>1566.20</ele>
	<time>2024-07-24T08:43:04.000Z</time>
</trkpt>
<trkpt lat="46.0373840" lon="10.3915510">
	<ele>1566.40</ele>
	<time>2024-07-24T08:43:05.000Z</time>
</trkpt>
<trkpt lat="46.0373810" lon="10.3915400">
	<ele>1566.60</ele>
	<time>2024-07-24T08:43:06.000Z</time>
</trkpt>
<trkpt lat="46.0373730" lon="10.3915280">
	<ele>1566.80</ele>
	<time>2024-07-24T08:43:07.000Z</time>
</trkpt>
<trkpt lat="46.0373690" lon="10.3915070">
	<ele>1567.00</ele>
	<time>2024-07-24T08:43:08.000Z</time>
</trkpt>
<trkpt lat="46.0373610" lon="10.3914930">
	<ele>1567.20</ele>
	<time>2024-07-24T08:43:09.000Z</time>
</trkpt>
<trkpt lat="46.0373550" lon="10.3914830">
	<ele>1567.40</ele>
	<time>2024-07-24T08:43:10.000Z</time>
</trkpt>
<trkpt lat="46.0373460" lon="10.3914750">
	<ele>1567.60</ele>
	<time>2024-07-24T08:43:11.000Z</time>
</trkpt>
<trkpt lat="46.0373370" lon="10.3914600">
	<ele>1567.80</ele>
	<time>2024-07-24T08:43:12.000Z</time>
</trkpt>
<trkpt lat="46.0373320" lon="10.3914380">
	<ele>1567.80</ele>
	<time>2024-07-24T08:43:13.000Z</time>
</trkpt>
<trkpt lat="46.0373280" lon="10.3914300">
	<ele>1568.20</ele>
	<time>2024-07-24T08:43:14.000Z</time>
</trkpt>
<trkpt lat="46.0373250" lon="10.3914140">
	<ele>1568.20</ele>
	<time>2024-07-24T08:43:15.000Z</time>
</trkpt>
<trkpt lat="46.0373220" lon="10.3914100">
	<ele>1568.40</ele>
	<time>2024-07-24T08:43:16.000Z</time>
</trkpt>
<trkpt lat="46.0373210" lon="10.3914100">
	<ele>1568.40</ele>
	<time>2024-07-24T08:43:17.000Z</time>
</trkpt>
<trkpt lat="46.0373230" lon="10.3914120">
	<ele>1568.60</ele>
	<time>2024-07-24T08:43:18.000Z</time>
</trkpt>
<trkpt lat="46.0373210" lon="10.3914120">
	<ele>1568.60</ele>
	<time>2024-07-24T08:43:19.000Z</time>
</trkpt>
<trkpt lat="46.0373200" lon="10.3914130">
	<ele>1568.60</ele>
	<time>2024-07-24T08:43:20.000Z</time>
</trkpt>
<trkpt lat="46.0373230" lon="10.3914130">
	<ele>1568.60</ele>
	<time>2024-07-24T08:43:21.000Z</time>
</trkpt>
<trkpt lat="46.0373300" lon="10.3914160">
	<ele>1568.60</ele>
	<time>2024-07-24T08:43:22.000Z</time>
</trkpt>
<trkpt lat="46.0373310" lon="10.3914150">
	<ele>1568.60</ele>
	<time>2024-07-24T08:43:23.000Z</time>
</trkpt>
<trkpt lat="46.0373340" lon="10.3914150">
	<ele>1568.60</ele>
	<time>2024-07-24T08:43:24.000Z</time>
</trkpt>
<trkpt lat="46.0373350" lon="10.3914060">
	<ele>1568.60</ele>
	<time>2024-07-24T08:43:25.000Z</time>
</trkpt>
<trkpt lat="46.0373290" lon="10.3913950">
	<ele>1568.60</ele>
	<time>2024-07-24T08:43:26.000Z</time>
</trkpt>
<trkpt lat="46.0373270" lon="10.3913900">
	<ele>1568.40</ele>
	<time>2024-07-24T08:43:27.000Z</time>
</trkpt>
<trkpt lat="46.0373250" lon="10.3913860">
	<ele>1568.40</ele>
	<time>2024-07-24T08:43:28.000Z</time>
</trkpt>
<trkpt lat="46.0373240" lon="10.3913780">
	<ele>1568.40</ele>
	<time>2024-07-24T08:43:29.000Z</time>
</trkpt>
<trkpt lat="46.0373190" lon="10.3913680">
	<ele>1568.80</ele>
	<time>2024-07-24T08:43:30.000Z</time>
</trkpt>
<trkpt lat="46.0373150" lon="10.3913670">
	<ele>1569.00</ele>
	<time>2024-07-24T08:43:31.000Z</time>
</trkpt>
<trkpt lat="46.0373080" lon="10.3913570">
	<ele>1569.20</ele>
	<time>2024-07-24T08:43:32.000Z</time>
</trkpt>
<trkpt lat="46.0373030" lon="10.3913490">
	<ele>1569.40</ele>
	<time>2024-07-24T08:43:33.000Z</time>
</trkpt>
<trkpt lat="46.0372970" lon="10.3913420">
	<ele>1569.60</ele>
	<time>2024-07-24T08:43:34.000Z</time>
</trkpt>
<trkpt lat="46.0372910" lon="10.3913350">
	<ele>1569.60</ele>
	<time>2024-07-24T08:43:35.000Z</time>
</trkpt>
<trkpt lat="46.0372880" lon="10.3913300">
	<ele>1569.80</ele>
	<time>2024-07-24T08:43:36.000Z</time>
</trkpt>
<trkpt lat="46.0372820" lon="10.3913210">
	<ele>1569.80</ele>
	<time>2024-07-24T08:43:37.000Z</time>
</trkpt>
<trkpt lat="46.0372760" lon="10.3913060">
	<ele>1570.00</ele>
	<time>2024-07-24T08:43:38.000Z</time>
</trkpt>
<trkpt lat="46.0372680" lon="10.3912960">
	<ele>1570.00</ele>
	<time>2024-07-24T08:43:39.000Z</time>
</trkpt>
<trkpt lat="46.0372570" lon="10.3912880">
	<ele>1570.20</ele>
	<time>2024-07-24T08:43:40.000Z</time>
</trkpt>
<trkpt lat="46.0372450" lon="10.3912790">
	<ele>1570.40</ele>
	<time>2024-07-24T08:43:41.000Z</time>
</trkpt>
<trkpt lat="46.0372400" lon="10.3912740">
	<ele>1570.60</ele>
	<time>2024-07-24T08:43:42.000Z</time>
</trkpt>
<trkpt lat="46.0372340" lon="10.3912650">
	<ele>1570.80</ele>
	<time>2024-07-24T08:43:43.000Z</time>
</trkpt>
<trkpt lat="46.0372250" lon="10.3912570">
	<ele>1570.80</ele>
	<time>2024-07-24T08:43:44.000Z</time>
</trkpt>
<trkpt lat="46.0372180" lon="10.3912470">
	<ele>1571.00</ele>
	<time>2024-07-24T08:43:45.000Z</time>
</trkpt>
<trkpt lat="46.0372130" lon="10.3912370">
	<ele>1571.00</ele>
	<time>2024-07-24T08:43:46.000Z</time>
</trkpt>
<trkpt lat="46.0372090" lon="10.3912270">
	<ele>1571.20</ele>
	<time>2024-07-24T08:43:47.000Z</time>
</trkpt>
<trkpt lat="46.0372050" lon="10.3912150">
	<ele>1571.20</ele>
	<time>2024-07-24T08:43:48.000Z</time>
</trkpt>
<trkpt lat="46.0372030" lon="10.3912020">
	<ele>1571.40</ele>
	<time>2024-07-24T08:43:49.000Z</time>
</trkpt>
<trkpt lat="46.0371980" lon="10.3911870">
	<ele>1571.60</ele>
	<time>2024-07-24T08:43:50.000Z</time>
</trkpt>
<trkpt lat="46.0371870" lon="10.3911780">
	<ele>1571.60</ele>
	<time>2024-07-24T08:43:51.000Z</time>
</trkpt>
<trkpt lat="46.0371750" lon="10.3911700">
	<ele>1571.80</ele>
	<time>2024-07-24T08:43:52.000Z</time>
</trkpt>
<trkpt lat="46.0371690" lon="10.3911630">
	<ele>1571.80</ele>
	<time>2024-07-24T08:43:53.000Z</time>
</trkpt>
<trkpt lat="46.0371630" lon="10.3911540">
	<ele>1571.80</ele>
	<time>2024-07-24T08:43:54.000Z</time>
</trkpt>
<trkpt lat="46.0371480" lon="10.3911450">
	<ele>1572.00</ele>
	<time>2024-07-24T08:43:55.000Z</time>
</trkpt>
<trkpt lat="46.0371330" lon="10.3911320">
	<ele>1572.00</ele>
	<time>2024-07-24T08:43:56.000Z</time>
</trkpt>
<trkpt lat="46.0371140" lon="10.3911240">
	<ele>1572.20</ele>
	<time>2024-07-24T08:43:57.000Z</time>
</trkpt>
<trkpt lat="46.0371090" lon="10.3911170">
	<ele>1572.20</ele>
	<time>2024-07-24T08:43:58.000Z</time>
</trkpt>
<trkpt lat="46.0371000" lon="10.3910980">
	<ele>1572.40</ele>
	<time>2024-07-24T08:43:59.000Z</time>
</trkpt>
<trkpt lat="46.0370980" lon="10.3910720">
	<ele>1572.40</ele>
	<time>2024-07-24T08:44:00.000Z</time>
</trkpt>
<trkpt lat="46.0370930" lon="10.3910550">
	<ele>1572.40</ele>
	<time>2024-07-24T08:44:01.000Z</time>
</trkpt>
<trkpt lat="46.0370850" lon="10.3910380">
	<ele>1572.60</ele>
	<time>2024-07-24T08:44:02.000Z</time>
</trkpt>
<trkpt lat="46.0370760" lon="10.3910190">
	<ele>1572.60</ele>
	<time>2024-07-24T08:44:03.000Z</time>
</trkpt>
<trkpt lat="46.0370700" lon="10.3910030">
	<ele>1572.60</ele>
	<time>2024-07-24T08:44:04.000Z</time>
</trkpt>
<trkpt lat="46.0370620" lon="10.3909920">
	<ele>1572.80</ele>
	<time>2024-07-24T08:44:05.000Z</time>
</trkpt>
<trkpt lat="46.0370530" lon="10.3909830">
	<ele>1572.80</ele>
	<time>2024-07-24T08:44:06.000Z</time>
</trkpt>
<trkpt lat="46.0370490" lon="10.3909730">
	<ele>1573.00</ele>
	<time>2024-07-24T08:44:07.000Z</time>
</trkpt>
<trkpt lat="46.0370450" lon="10.3909580">
	<ele>1573.00</ele>
	<time>2024-07-24T08:44:08.000Z</time>
</trkpt>
<trkpt lat="46.0370430" lon="10.3909410">
	<ele>1573.00</ele>
	<time>2024-07-24T08:44:09.000Z</time>
</trkpt>
<trkpt lat="46.0370360" lon="10.3909280">
	<ele>1573.20</ele>
	<time>2024-07-24T08:44:10.000Z</time>
</trkpt>
<trkpt lat="46.0370220" lon="10.3909120">
	<ele>1573.20</ele>
	<time>2024-07-24T08:44:11.000Z</time>
</trkpt>
<trkpt lat="46.0370070" lon="10.3908990">
	<ele>1573.20</ele>
	<time>2024-07-24T08:44:12.000Z</time>
</trkpt>
<trkpt lat="46.0369990" lon="10.3908840">
	<ele>1573.20</ele>
	<time>2024-07-24T08:44:13.000Z</time>
</trkpt>
<trkpt lat="46.0369970" lon="10.3908690">
	<ele>1573.40</ele>
	<time>2024-07-24T08:44:14.000Z</time>
</trkpt>
<trkpt lat="46.0369940" lon="10.3908500">
	<ele>1573.60</ele>
	<time>2024-07-24T08:44:15.000Z</time>
</trkpt>
<trkpt lat="46.0369900" lon="10.3908290">
	<ele>1573.60</ele>
	<time>2024-07-24T08:44:16.000Z</time>
</trkpt>
<trkpt lat="46.0369870" lon="10.3908070">
	<ele>1573.80</ele>
	<time>2024-07-24T08:44:17.000Z</time>
</trkpt>
<trkpt lat="46.0369840" lon="10.3907890">
	<ele>1573.80</ele>
	<time>2024-07-24T08:44:18.000Z</time>
</trkpt>
<trkpt lat="46.0369810" lon="10.3907710">
	<ele>1573.80</ele>
	<time>2024-07-24T08:44:19.000Z</time>
</trkpt>
<trkpt lat="46.0369780" lon="10.3907530">
	<ele>1574.00</ele>
	<time>2024-07-24T08:44:20.000Z</time>
</trkpt>
<trkpt lat="46.0369740" lon="10.3907390">
	<ele>1574.00</ele>
	<time>2024-07-24T08:44:21.000Z</time>
</trkpt>
<trkpt lat="46.0369660" lon="10.3907220">
	<ele>1574.00</ele>
	<time>2024-07-24T08:44:22.000Z</time>
</trkpt>
<trkpt lat="46.0369600" lon="10.3907050">
	<ele>1574.20</ele>
	<time>2024-07-24T08:44:23.000Z</time>
</trkpt>
<trkpt lat="46.0369590" lon="10.3906870">
	<ele>1574.40</ele>
	<time>2024-07-24T08:44:24.000Z</time>
</trkpt>
<trkpt lat="46.0369580" lon="10.3906700">
	<ele>1574.40</ele>
	<time>2024-07-24T08:44:25.000Z</time>
</trkpt>
<trkpt lat="46.0369530" lon="10.3906540">
	<ele>1574.40</ele>
	<time>2024-07-24T08:44:26.000Z</time>
</trkpt>
<trkpt lat="46.0369470" lon="10.3906390">
	<ele>1574.60</ele>
	<time>2024-07-24T08:44:27.000Z</time>
</trkpt>
<trkpt lat="46.0369440" lon="10.3906230">
	<ele>1574.60</ele>
	<time>2024-07-24T08:44:28.000Z</time>
</trkpt>
<trkpt lat="46.0369400" lon="10.3906090">
	<ele>1574.60</ele>
	<time>2024-07-24T08:44:29.000Z</time>
</trkpt>
<trkpt lat="46.0369370" lon="10.3905950">
	<ele>1574.80</ele>
	<time>2024-07-24T08:44:30.000Z</time>
</trkpt>
<trkpt lat="46.0369370" lon="10.3905800">
	<ele>1575.00</ele>
	<time>2024-07-24T08:44:31.000Z</time>
</trkpt>
<trkpt lat="46.0369290" lon="10.3905640">
	<ele>1575.00</ele>
	<time>2024-07-24T08:44:32.000Z</time>
</trkpt>
<trkpt lat="46.0369210" lon="10.3905500">
	<ele>1575.20</ele>
	<time>2024-07-24T08:44:33.000Z</time>
</trkpt>
<trkpt lat="46.0369150" lon="10.3905340">
	<ele>1575.20</ele>
	<time>2024-07-24T08:44:34.000Z</time>
</trkpt>
<trkpt lat="46.0369090" lon="10.3905200">
	<ele>1575.20</ele>
	<time>2024-07-24T08:44:35.000Z</time>
</trkpt>
<trkpt lat="46.0369050" lon="10.3905060">
	<ele>1575.40</ele>
	<time>2024-07-24T08:44:36.000Z</time>
</trkpt>
<trkpt lat="46.0369030" lon="10.3904880">
	<ele>1575.40</ele>
	<time>2024-07-24T08:44:37.000Z</time>
</trkpt>
<trkpt lat="46.0368990" lon="10.3904670">
	<ele>1575.60</ele>
	<time>2024-07-24T08:44:38.000Z</time>
</trkpt>
<trkpt lat="46.0368950" lon="10.3904460">
	<ele>1575.80</ele>
	<time>2024-07-24T08:44:39.000Z</time>
</trkpt>
<trkpt lat="46.0368950" lon="10.3904300">
	<ele>1575.80</ele>
	<time>2024-07-24T08:44:40.000Z</time>
</trkpt>
<trkpt lat="46.0368920" lon="10.3904160">
	<ele>1576.00</ele>
	<time>2024-07-24T08:44:41.000Z</time>
</trkpt>
<trkpt lat="46.0368910" lon="10.3904020">
	<ele>1576.00</ele>
	<time>2024-07-24T08:44:42.000Z</time>
</trkpt>
<trkpt lat="46.0368860" lon="10.3903890">
	<ele>1576.00</ele>
	<time>2024-07-24T08:44:43.000Z</time>
</trkpt>
<trkpt lat="46.0368850" lon="10.3903760">
	<ele>1576.20</ele>
	<time>2024-07-24T08:44:44.000Z</time>
</trkpt>
<trkpt lat="46.0368810" lon="10.3903590">
	<ele>1576.20</ele>
	<time>2024-07-24T08:44:45.000Z</time>
</trkpt>
<trkpt lat="46.0368760" lon="10.3903380">
	<ele>1576.20</ele>
	<time>2024-07-24T08:44:46.000Z</time>
</trkpt>
<trkpt lat="46.0368700" lon="10.3903190">
	<ele>1576.20</ele>
	<time>2024-07-24T08:44:47.000Z</time>
</trkpt>
<trkpt lat="46.0368630" lon="10.3903000">
	<ele>1576.20</ele>
	<time>2024-07-24T08:44:48.000Z</time>
</trkpt>
<trkpt lat="46.0368580" lon="10.3902840">
	<ele>1576.20</ele>
	<time>2024-07-24T08:44:49.000Z</time>
</trkpt>
<trkpt lat="46.0368520" lon="10.3902670">
	<ele>1576.40</ele>
	<time>2024-07-24T08:44:50.000Z</time>
</trkpt>
<trkpt lat="46.0368450" lon="10.3902520">
	<ele>1576.40</ele>
	<time>2024-07-24T08:44:51.000Z</time>
</trkpt>
<trkpt lat="46.0368420" lon="10.3902360">
	<ele>1576.60</ele>
	<time>2024-07-24T08:44:52.000Z</time>
</trkpt>
<trkpt lat="46.0368400" lon="10.3902150">
	<ele>1576.60</ele>
	<time>2024-07-24T08:44:53.000Z</time>
</trkpt>
<trkpt lat="46.0368370" lon="10.3901950">
	<ele>1576.60</ele>
	<time>2024-07-24T08:44:54.000Z</time>
</trkpt>
<trkpt lat="46.0368340" lon="10.3901750">
	<ele>1576.60</ele>
	<time>2024-07-24T08:44:55.000Z</time>
</trkpt>
<trkpt lat="46.0368280" lon="10.3901580">
	<ele>1576.60</ele>
	<time>2024-07-24T08:44:56.000Z</time>
</trkpt>
<trkpt lat="46.0368270" lon="10.3901420">
	<ele>1576.60</ele>
	<time>2024-07-24T08:44:57.000Z</time>
</trkpt>
<trkpt lat="46.0368250" lon="10.3901280">
	<ele>1576.60</ele>
	<time>2024-07-24T08:44:58.000Z</time>
</trkpt>
<trkpt lat="46.0368270" lon="10.3901120">
	<ele>1576.80</ele>
	<time>2024-07-24T08:44:59.000Z</time>
</trkpt>
<trkpt lat="46.0368260" lon="10.3900940">
	<ele>1576.80</ele>
	<time>2024-07-24T08:45:00.000Z</time>
</trkpt>
<trkpt lat="46.0368230" lon="10.3900740">
	<ele>1576.80</ele>
	<time>2024-07-24T08:45:01.000Z</time>
</trkpt>
<trkpt lat="46.0368230" lon="10.3900540">
	<ele>1576.80</ele>
	<time>2024-07-24T08:45:02.000Z</time>
</trkpt>
<trkpt lat="46.0368210" lon="10.3900340">
	<ele>1577.00</ele>
	<time>2024-07-24T08:45:03.000Z</time>
</trkpt>
<trkpt lat="46.0368180" lon="10.3900150">
	<ele>1577.00</ele>
	<time>2024-07-24T08:45:04.000Z</time>
</trkpt>
<trkpt lat="46.0368140" lon="10.3899960">
	<ele>1577.00</ele>
	<time>2024-07-24T08:45:05.000Z</time>
</trkpt>
<trkpt lat="46.0368100" lon="10.3899810">
	<ele>1577.20</ele>
	<time>2024-07-24T08:45:06.000Z</time>
</trkpt>
<trkpt lat="46.0368090" lon="10.3899660">
	<ele>1577.20</ele>
	<time>2024-07-24T08:45:07.000Z</time>
</trkpt>
<trkpt lat="46.0368090" lon="10.3899510">
	<ele>1577.20</ele>
	<time>2024-07-24T08:45:08.000Z</time>
</trkpt>
<trkpt lat="46.0368080" lon="10.3899320">
	<ele>1577.40</ele>
	<time>2024-07-24T08:45:09.000Z</time>
</trkpt>
<trkpt lat="46.0368090" lon="10.3899140">
	<ele>1577.40</ele>
	<time>2024-07-24T08:45:10.000Z</time>
</trkpt>
<trkpt lat="46.0368090" lon="10.3898940">
	<ele>1577.40</ele>
	<time>2024-07-24T08:45:11.000Z</time>
</trkpt>
<trkpt lat="46.0368090" lon="10.3898750">
	<ele>1577.60</ele>
	<time>2024-07-24T08:45:12.000Z</time>
</trkpt>
<trkpt lat="46.0368050" lon="10.3898570">
	<ele>1577.60</ele>
	<time>2024-07-24T08:45:13.000Z</time>
</trkpt>
<trkpt lat="46.0368040" lon="10.3898420">
	<ele>1577.60</ele>
	<time>2024-07-24T08:45:14.000Z</time>
</trkpt>
<trkpt lat="46.0368010" lon="10.3898240">
	<ele>1577.60</ele>
	<time>2024-07-24T08:45:15.000Z</time>
</trkpt>
<trkpt lat="46.0367990" lon="10.3898050">
	<ele>1577.80</ele>
	<time>2024-07-24T08:45:16.000Z</time>
</trkpt>
<trkpt lat="46.0368000" lon="10.3897840">
	<ele>1577.80</ele>
	<time>2024-07-24T08:45:17.000Z</time>
</trkpt>
<trkpt lat="46.0367990" lon="10.3897670">
	<ele>1578.00</ele>
	<time>2024-07-24T08:45:18.000Z</time>
</trkpt>
<trkpt lat="46.0367980" lon="10.3897470">
	<ele>1578.00</ele>
	<time>2024-07-24T08:45:19.000Z</time>
</trkpt>
<trkpt lat="46.0367950" lon="10.3897270">
	<ele>1578.20</ele>
	<time>2024-07-24T08:45:20.000Z</time>
</trkpt>
<trkpt lat="46.0367920" lon="10.3897100">
	<ele>1578.20</ele>
	<time>2024-07-24T08:45:21.000Z</time>
</trkpt>
<trkpt lat="46.0367940" lon="10.3896930">
	<ele>1578.20</ele>
	<time>2024-07-24T08:45:22.000Z</time>
</trkpt>
<trkpt lat="46.0367950" lon="10.3896790">
	<ele>1578.20</ele>
	<time>2024-07-24T08:45:23.000Z</time>
</trkpt>
<trkpt lat="46.0367960" lon="10.3896570">
	<ele>1578.20</ele>
	<time>2024-07-24T08:45:24.000Z</time>
</trkpt>
<trkpt lat="46.0367910" lon="10.3896400">
	<ele>1578.20</ele>
	<time>2024-07-24T08:45:25.000Z</time>
</trkpt>
<trkpt lat="46.0367920" lon="10.3896260">
	<ele>1578.40</ele>
	<time>2024-07-24T08:45:26.000Z</time>
</trkpt>
<trkpt lat="46.0367940" lon="10.3896090">
	<ele>1578.40</ele>
	<time>2024-07-24T08:45:27.000Z</time>
</trkpt>
<trkpt lat="46.0367920" lon="10.3895880">
	<ele>1578.60</ele>
	<time>2024-07-24T08:45:28.000Z</time>
</trkpt>
<trkpt lat="46.0367910" lon="10.3895700">
	<ele>1578.60</ele>
	<time>2024-07-24T08:45:29.000Z</time>
</trkpt>
<trkpt lat="46.0367890" lon="10.3895560">
	<ele>1578.60</ele>
	<time>2024-07-24T08:45:30.000Z</time>
</trkpt>
<trkpt lat="46.0367860" lon="10.3895430">
	<ele>1578.80</ele>
	<time>2024-07-24T08:45:31.000Z</time>
</trkpt>
<trkpt lat="46.0367900" lon="10.3895340">
	<ele>1578.80</ele>
	<time>2024-07-24T08:45:32.000Z</time>
</trkpt>
<trkpt lat="46.0367900" lon="10.3895220">
	<ele>1578.80</ele>
	<time>2024-07-24T08:45:33.000Z</time>
</trkpt>
<trkpt lat="46.0367860" lon="10.3895090">
	<ele>1578.80</ele>
	<time>2024-07-24T08:45:34.000Z</time>
</trkpt>
<trkpt lat="46.0367850" lon="10.3894920">
	<ele>1579.00</ele>
	<time>2024-07-24T08:45:35.000Z</time>
</trkpt>
<trkpt lat="46.0367820" lon="10.3894730">
	<ele>1579.00</ele>
	<time>2024-07-24T08:45:36.000Z</time>
</trkpt>
<trkpt lat="46.0367820" lon="10.3894510">
	<ele>1579.20</ele>
	<time>2024-07-24T08:45:37.000Z</time>
</trkpt>
<trkpt lat="46.0367800" lon="10.3894310">
	<ele>1579.20</ele>
	<time>2024-07-24T08:45:38.000Z</time>
</trkpt>
<trkpt lat="46.0367830" lon="10.3894140">
	<ele>1579.40</ele>
	<time>2024-07-24T08:45:39.000Z</time>
</trkpt>
<trkpt lat="46.0367820" lon="10.3893970">
	<ele>1579.40</ele>
	<time>2024-07-24T08:45:40.000Z</time>
</trkpt>
<trkpt lat="46.0367820" lon="10.3893790">
	<ele>1579.40</ele>
	<time>2024-07-24T08:45:41.000Z</time>
</trkpt>
<trkpt lat="46.0367800" lon="10.3893610">
	<ele>1579.40</ele>
	<time>2024-07-24T08:45:42.000Z</time>
</trkpt>
<trkpt lat="46.0367810" lon="10.3893410">
	<ele>1579.40</ele>
	<time>2024-07-24T08:45:43.000Z</time>
</trkpt>
<trkpt lat="46.0367830" lon="10.3893220">
	<ele>1579.40</ele>
	<time>2024-07-24T08:45:44.000Z</time>
</trkpt>
<trkpt lat="46.0367810" lon="10.3893020">
	<ele>1579.60</ele>
	<time>2024-07-24T08:45:45.000Z</time>
</trkpt>
<trkpt lat="46.0367820" lon="10.3892840">
	<ele>1579.60</ele>
	<time>2024-07-24T08:45:46.000Z</time>
</trkpt>
<trkpt lat="46.0367810" lon="10.3892610">
	<ele>1579.60</ele>
	<time>2024-07-24T08:45:47.000Z</time>
</trkpt>
<trkpt lat="46.0367800" lon="10.3892400">
	<ele>1579.80</ele>
	<time>2024-07-24T08:45:48.000Z</time>
</trkpt>
<trkpt lat="46.0367800" lon="10.3892220">
	<ele>1579.80</ele>
	<time>2024-07-24T08:45:49.000Z</time>
</trkpt>
<trkpt lat="46.0367820" lon="10.3892060">
	<ele>1579.80</ele>
	<time>2024-07-24T08:45:50.000Z</time>
</trkpt>
<trkpt lat="46.0367830" lon="10.3891870">
	<ele>1579.60</ele>
	<time>2024-07-24T08:45:51.000Z</time>
</trkpt>
<trkpt lat="46.0367880" lon="10.3891670">
	<ele>1579.80</ele>
	<time>2024-07-24T08:45:52.000Z</time>
</trkpt>
<trkpt lat="46.0367910" lon="10.3891510">
	<ele>1579.80</ele>
	<time>2024-07-24T08:45:53.000Z</time>
</trkpt>
<trkpt lat="46.0367910" lon="10.3891340">
	<ele>1579.80</ele>
	<time>2024-07-24T08:45:54.000Z</time>
</trkpt>
<trkpt lat="46.0367930" lon="10.3891150">
	<ele>1580.00</ele>
	<time>2024-07-24T08:45:55.000Z</time>
</trkpt>
<trkpt lat="46.0367930" lon="10.3890970">
	<ele>1580.00</ele>
	<time>2024-07-24T08:45:56.000Z</time>
</trkpt>
<trkpt lat="46.0367940" lon="10.3890790">
	<ele>1580.00</ele>
	<time>2024-07-24T08:45:57.000Z</time>
</trkpt>
<trkpt lat="46.0367960" lon="10.3890620">
	<ele>1580.20</ele>
	<time>2024-07-24T08:45:58.000Z</time>
</trkpt>
<trkpt lat="46.0367940" lon="10.3890440">
	<ele>1580.20</ele>
	<time>2024-07-24T08:45:59.000Z</time>
</trkpt>
<trkpt lat="46.0367940" lon="10.3890260">
	<ele>1580.40</ele>
	<time>2024-07-24T08:46:00.000Z</time>
</trkpt>
<trkpt lat="46.0367920" lon="10.3890090">
	<ele>1580.40</ele>
	<time>2024-07-24T08:46:01.000Z</time>
</trkpt>
<trkpt lat="46.0367870" lon="10.3889950">
	<ele>1580.40</ele>
	<time>2024-07-24T08:46:02.000Z</time>
</trkpt>
<trkpt lat="46.0367840" lon="10.3889800">
	<ele>1580.40</ele>
	<time>2024-07-24T08:46:03.000Z</time>
</trkpt>
<trkpt lat="46.0367810" lon="10.3889610">
	<ele>1580.40</ele>
	<time>2024-07-24T08:46:04.000Z</time>
</trkpt>
<trkpt lat="46.0367790" lon="10.3889420">
	<ele>1580.40</ele>
	<time>2024-07-24T08:46:05.000Z</time>
</trkpt>
<trkpt lat="46.0367820" lon="10.3889240">
	<ele>1580.40</ele>
	<time>2024-07-24T08:46:06.000Z</time>
</trkpt>
<trkpt lat="46.0367820" lon="10.3889060">
	<ele>1580.60</ele>
	<time>2024-07-24T08:46:07.000Z</time>
</trkpt>
<trkpt lat="46.0367810" lon="10.3888850">
	<ele>1580.60</ele>
	<time>2024-07-24T08:46:08.000Z</time>
</trkpt>
<trkpt lat="46.0367790" lon="10.3888660">
	<ele>1580.60</ele>
	<time>2024-07-24T08:46:09.000Z</time>
</trkpt>
<trkpt lat="46.0367830" lon="10.3888510">
	<ele>1580.60</ele>
	<time>2024-07-24T08:46:10.000Z</time>
</trkpt>
<trkpt lat="46.0367900" lon="10.3888370">
	<ele>1580.60</ele>
	<time>2024-07-24T08:46:11.000Z</time>
</trkpt>
<trkpt lat="46.0367920" lon="10.3888210">
	<ele>1580.60</ele>
	<time>2024-07-24T08:46:12.000Z</time>
</trkpt>
<trkpt lat="46.0367920" lon="10.3888030">
	<ele>1580.60</ele>
	<time>2024-07-24T08:46:13.000Z</time>
</trkpt>
<trkpt lat="46.0367960" lon="10.3887890">
	<ele>1580.60</ele>
	<time>2024-07-24T08:46:14.000Z</time>
</trkpt>
<trkpt lat="46.0367980" lon="10.3887820">
	<ele>1580.60</ele>
	<time>2024-07-24T08:46:15.000Z</time>
</trkpt>
<trkpt lat="46.0367980" lon="10.3887790">
	<ele>1580.60</ele>
	<time>2024-07-24T08:46:16.000Z</time>
</trkpt>
<trkpt lat="46.0367990" lon="10.3887790">
	<ele>1580.60</ele>
	<time>2024-07-24T08:46:17.000Z</time>
</trkpt>
<trkpt lat="46.0368010" lon="10.3887810">
	<ele>1580.60</ele>
	<time>2024-07-24T08:46:18.000Z</time>
</trkpt>
<trkpt lat="46.0368020" lon="10.3887820">
	<ele>1580.80</ele>
	<time>2024-07-24T08:46:19.000Z</time>
</trkpt>
<trkpt lat="46.0367970" lon="10.3887820">
	<ele>1580.80</ele>
	<time>2024-07-24T08:46:20.000Z</time>
</trkpt>
<trkpt lat="46.0367950" lon="10.3887740">
	<ele>1580.80</ele>
	<time>2024-07-24T08:46:21.000Z</time>
</trkpt>
<trkpt lat="46.0367870" lon="10.3887610">
	<ele>1580.60</ele>
	<time>2024-07-24T08:46:22.000Z</time>
</trkpt>
<trkpt lat="46.0367880" lon="10.3887460">
	<ele>1580.60</ele>
	<time>2024-07-24T08:46:23.000Z</time>
</trkpt>
<trkpt lat="46.0367870" lon="10.3887350">
	<ele>1580.60</ele>
	<time>2024-07-24T08:46:24.000Z</time>
</trkpt>
<trkpt lat="46.0367870" lon="10.3887240">
	<ele>1580.60</ele>
	<time>2024-07-24T08:46:25.000Z</time>
</trkpt>
<trkpt lat="46.0367920" lon="10.3887130">
	<ele>1580.60</ele>
	<time>2024-07-24T08:46:26.000Z</time>
</trkpt>
<trkpt lat="46.0367980" lon="10.3887000">
	<ele>1580.60</ele>
	<time>2024-07-24T08:46:27.000Z</time>
</trkpt>
<trkpt lat="46.0368020" lon="10.3886880">
	<ele>1580.80</ele>
	<time>2024-07-24T08:46:28.000Z</time>
</trkpt>
<trkpt lat="46.0368060" lon="10.3886720">
	<ele>1580.80</ele>
	<time>2024-07-24T08:46:29.000Z</time>
</trkpt>
<trkpt lat="46.0368120" lon="10.3886570">
	<ele>1581.00</ele>
	<time>2024-07-24T08:46:30.000Z</time>
</trkpt>
<trkpt lat="46.0368200" lon="10.3886410">
	<ele>1581.00</ele>
	<time>2024-07-24T08:46:31.000Z</time>
</trkpt>
<trkpt lat="46.0368270" lon="10.3886250">
	<ele>1581.00</ele>
	<time>2024-07-24T08:46:32.000Z</time>
</trkpt>
<trkpt lat="46.0368330" lon="10.3886090">
	<ele>1581.00</ele>
	<time>2024-07-24T08:46:33.000Z</time>
</trkpt>
<trkpt lat="46.0368400" lon="10.3885910">
	<ele>1581.20</ele>
	<time>2024-07-24T08:46:34.000Z</time>
</trkpt>
<trkpt lat="46.0368470" lon="10.3885740">
	<ele>1581.20</ele>
	<time>2024-07-24T08:46:35.000Z</time>
</trkpt>
<trkpt lat="46.0368520" lon="10.3885570">
	<ele>1581.20</ele>
	<time>2024-07-24T08:46:36.000Z</time>
</trkpt>
<trkpt lat="46.0368520" lon="10.3885420">
	<ele>1581.20</ele>
	<time>2024-07-24T08:46:37.000Z</time>
</trkpt>
<trkpt lat="46.0368510" lon="10.3885300">
	<ele>1581.40</ele>
	<time>2024-07-24T08:46:38.000Z</time>
</trkpt>
<trkpt lat="46.0368510" lon="10.3885200">
	<ele>1581.40</ele>
	<time>2024-07-24T08:46:39.000Z</time>
</trkpt>
<trkpt lat="46.0368490" lon="10.3885090">
	<ele>1581.60</ele>
	<time>2024-07-24T08:46:40.000Z</time>
</trkpt>
<trkpt lat="46.0368500" lon="10.3884970">
	<ele>1581.80</ele>
	<time>2024-07-24T08:46:41.000Z</time>
</trkpt>
<trkpt lat="46.0368540" lon="10.3884850">
	<ele>1582.00</ele>
	<time>2024-07-24T08:46:42.000Z</time>
</trkpt>
<trkpt lat="46.0368570" lon="10.3884740">
	<ele>1582.00</ele>
	<time>2024-07-24T08:46:43.000Z</time>
</trkpt>
<trkpt lat="46.0368560" lon="10.3884560">
	<ele>1582.00</ele>
	<time>2024-07-24T08:46:44.000Z</time>
</trkpt>
<trkpt lat="46.0368560" lon="10.3884390">
	<ele>1582.20</ele>
	<time>2024-07-24T08:46:45.000Z</time>
</trkpt>
<trkpt lat="46.0368510" lon="10.3884230">
	<ele>1582.40</ele>
	<time>2024-07-24T08:46:46.000Z</time>
</trkpt>
<trkpt lat="46.0368490" lon="10.3884120">
	<ele>1582.60</ele>
	<time>2024-07-24T08:46:47.000Z</time>
</trkpt>
<trkpt lat="46.0368550" lon="10.3884020">
	<ele>1582.60</ele>
	<time>2024-07-24T08:46:48.000Z</time>
</trkpt>
<trkpt lat="46.0368560" lon="10.3883910">
	<ele>1582.60</ele>
	<time>2024-07-24T08:46:49.000Z</time>
</trkpt>
<trkpt lat="46.0368590" lon="10.3883760">
	<ele>1582.80</ele>
	<time>2024-07-24T08:46:50.000Z</time>
</trkpt>
<trkpt lat="46.0368580" lon="10.3883610">
	<ele>1583.00</ele>
	<time>2024-07-24T08:46:51.000Z</time>
</trkpt>
<trkpt lat="46.0368580" lon="10.3883460">
	<ele>1583.20</ele>
	<time>2024-07-24T08:46:52.000Z</time>
</trkpt>
<trkpt lat="46.0368570" lon="10.3883340">
	<ele>1583.40</ele>
	<time>2024-07-24T08:46:53.000Z</time>
</trkpt>
<trkpt lat="46.0368550" lon="10.3883260">
	<ele>1583.40</ele>
	<time>2024-07-24T08:46:54.000Z</time>
</trkpt>
<trkpt lat="46.0368530" lon="10.3883150">
	<ele>1583.60</ele>
	<time>2024-07-24T08:46:55.000Z</time>
</trkpt>
<trkpt lat="46.0368530" lon="10.3882990">
	<ele>1583.60</ele>
	<time>2024-07-24T08:46:56.000Z</time>
</trkpt>
<trkpt lat="46.0368510" lon="10.3882860">
	<ele>1583.80</ele>
	<time>2024-07-24T08:46:57.000Z</time>
</trkpt>
<trkpt lat="46.0368470" lon="10.3882740">
	<ele>1583.80</ele>
	<time>2024-07-24T08:46:58.000Z</time>
</trkpt>
<trkpt lat="46.0368430" lon="10.3882630">
	<ele>1584.00</ele>
	<time>2024-07-24T08:46:59.000Z</time>
</trkpt>
<trkpt lat="46.0368410" lon="10.3882480">
	<ele>1584.20</ele>
	<time>2024-07-24T08:47:00.000Z</time>
</trkpt>
<trkpt lat="46.0368370" lon="10.3882360">
	<ele>1584.20</ele>
	<time>2024-07-24T08:47:01.000Z</time>
</trkpt>
<trkpt lat="46.0368360" lon="10.3882230">
	<ele>1584.20</ele>
	<time>2024-07-24T08:47:02.000Z</time>
</trkpt>
<trkpt lat="46.0368340" lon="10.3882090">
	<ele>1584.40</ele>
	<time>2024-07-24T08:47:03.000Z</time>
</trkpt>
<trkpt lat="46.0368350" lon="10.3881930">
	<ele>1584.40</ele>
	<time>2024-07-24T08:47:04.000Z</time>
</trkpt>
<trkpt lat="46.0368370" lon="10.3881810">
	<ele>1584.60</ele>
	<time>2024-07-24T08:47:05.000Z</time>
</trkpt>
<trkpt lat="46.0368360" lon="10.3881660">
	<ele>1584.80</ele>
	<time>2024-07-24T08:47:06.000Z</time>
</trkpt>
<trkpt lat="46.0368310" lon="10.3881440">
	<ele>1585.00</ele>
	<time>2024-07-24T08:47:07.000Z</time>
</trkpt>
<trkpt lat="46.0368310" lon="10.3881250">
	<ele>1585.00</ele>
	<time>2024-07-24T08:47:08.000Z</time>
</trkpt>
<trkpt lat="46.0368470" lon="10.3881130">
	<ele>1585.20</ele>
	<time>2024-07-24T08:47:09.000Z</time>
</trkpt>
<trkpt lat="46.0368630" lon="10.3881020">
	<ele>1585.20</ele>
	<time>2024-07-24T08:47:10.000Z</time>
</trkpt>
<trkpt lat="46.0368700" lon="10.3880900">
	<ele>1585.40</ele>
	<time>2024-07-24T08:47:11.000Z</time>
</trkpt>
<trkpt lat="46.0368780" lon="10.3880780">
	<ele>1585.40</ele>
	<time>2024-07-24T08:47:12.000Z</time>
</trkpt>
<trkpt lat="46.0368830" lon="10.3880660">
	<ele>1585.60</ele>
	<time>2024-07-24T08:47:13.000Z</time>
</trkpt>
<trkpt lat="46.0368820" lon="10.3880510">
	<ele>1585.60</ele>
	<time>2024-07-24T08:47:14.000Z</time>
</trkpt>
<trkpt lat="46.0368790" lon="10.3880350">
	<ele>1585.80</ele>
	<time>2024-07-24T08:47:15.000Z</time>
</trkpt>
<trkpt lat="46.0368800" lon="10.3880200">
	<ele>1586.00</ele>
	<time>2024-07-24T08:47:16.000Z</time>
</trkpt>
<trkpt lat="46.0368760" lon="10.3880050">
	<ele>1586.00</ele>
	<time>2024-07-24T08:47:17.000Z</time>
</trkpt>
<trkpt lat="46.0368730" lon="10.3879880">
	<ele>1586.20</ele>
	<time>2024-07-24T08:47:18.000Z</time>
</trkpt>
<trkpt lat="46.0368680" lon="10.3879710">
	<ele>1586.20</ele>
	<time>2024-07-24T08:47:19.000Z</time>
</trkpt>
<trkpt lat="46.0368700" lon="10.3879570">
	<ele>1586.20</ele>
	<time>2024-07-24T08:47:20.000Z</time>
</trkpt>
<trkpt lat="46.0368750" lon="10.3879450">
	<ele>1586.40</ele>
	<time>2024-07-24T08:47:21.000Z</time>
</trkpt>
<trkpt lat="46.0368750" lon="10.3879360">
	<ele>1586.60</ele>
	<time>2024-07-24T08:47:22.000Z</time>
</trkpt>
<trkpt lat="46.0368720" lon="10.3879270">
	<ele>1586.80</ele>
	<time>2024-07-24T08:47:23.000Z</time>
</trkpt>
<trkpt lat="46.0368710" lon="10.3879220">
	<ele>1587.00</ele>
	<time>2024-07-24T08:47:24.000Z</time>
</trkpt>
<trkpt lat="46.0368700" lon="10.3879190">
	<ele>1587.20</ele>
	<time>2024-07-24T08:47:25.000Z</time>
</trkpt>
<trkpt lat="46.0368690" lon="10.3879190">
	<ele>1587.40</ele>
	<time>2024-07-24T08:47:26.000Z</time>
</trkpt>
<trkpt lat="46.0368700" lon="10.3879190">
	<ele>1587.40</ele>
	<time>2024-07-24T08:47:27.000Z</time>
</trkpt>
<trkpt lat="46.0368720" lon="10.3879230">
	<ele>1587.40</ele>
	<time>2024-07-24T08:47:28.000Z</time>
</trkpt>
<trkpt lat="46.0368790" lon="10.3879310">
	<ele>1587.40</ele>
	<time>2024-07-24T08:47:29.000Z</time>
</trkpt>
<trkpt lat="46.0368860" lon="10.3879390">
	<ele>1587.20</ele>
	<time>2024-07-24T08:47:30.000Z</time>
</trkpt>
<trkpt lat="46.0368930" lon="10.3879490">
	<ele>1587.20</ele>
	<time>2024-07-24T08:47:31.000Z</time>
</trkpt>
<trkpt lat="46.0369000" lon="10.3879590">
	<ele>1587.20</ele>
	<time>2024-07-24T08:47:32.000Z</time>
</trkpt>
<trkpt lat="46.0369090" lon="10.3879720">
	<ele>1587.20</ele>
	<time>2024-07-24T08:47:33.000Z</time>
</trkpt>
<trkpt lat="46.0369150" lon="10.3879860">
	<ele>1587.20</ele>
	<time>2024-07-24T08:47:34.000Z</time>
</trkpt>
<trkpt lat="46.0369230" lon="10.3879980">
	<ele>1587.40</ele>
	<time>2024-07-24T08:47:35.000Z</time>
</trkpt>
<trkpt lat="46.0369330" lon="10.3880110">
	<ele>1587.40</ele>
	<time>2024-07-24T08:47:36.000Z</time>
</trkpt>
<trkpt lat="46.0369390" lon="10.3880240">
	<ele>1587.40</ele>
	<time>2024-07-24T08:47:37.000Z</time>
</trkpt>
<trkpt lat="46.0369430" lon="10.3880360">
	<ele>1587.60</ele>
	<time>2024-07-24T08:47:38.000Z</time>
</trkpt>
<trkpt lat="46.0369480" lon="10.3880470">
	<ele>1587.40</ele>
	<time>2024-07-24T08:47:39.000Z</time>
</trkpt>
<trkpt lat="46.0369580" lon="10.3880580">
	<ele>1587.40</ele>
	<time>2024-07-24T08:47:40.000Z</time>
</trkpt>
<trkpt lat="46.0369670" lon="10.3880690">
	<ele>1587.40</ele>
	<time>2024-07-24T08:47:41.000Z</time>
</trkpt>
<trkpt lat="46.0369740" lon="10.3880820">
	<ele>1587.40</ele>
	<time>2024-07-24T08:47:42.000Z</time>
</trkpt>
<trkpt lat="46.0369820" lon="10.3880960">
	<ele>1587.40</ele>
	<time>2024-07-24T08:47:43.000Z</time>
</trkpt>
<trkpt lat="46.0369910" lon="10.3881050">
	<ele>1587.40</ele>
	<time>2024-07-24T08:47:44.000Z</time>
</trkpt>
<trkpt lat="46.0370000" lon="10.3881160">
	<ele>1587.40</ele>
	<time>2024-07-24T08:47:45.000Z</time>
</trkpt>
<trkpt lat="46.0370070" lon="10.3881280">
	<ele>1587.40</ele>
	<time>2024-07-24T08:47:46.000Z</time>
</trkpt>
<trkpt lat="46.0370130" lon="10.3881410">
	<ele>1587.40</ele>
	<time>2024-07-24T08:47:47.000Z</time>
</trkpt>
<trkpt lat="46.0370200" lon="10.3881510">
	<ele>1587.20</ele>
	<time>2024-07-24T08:47:48.000Z</time>
</trkpt>
<trkpt lat="46.0370280" lon="10.3881600">
	<ele>1587.40</ele>
	<time>2024-07-24T08:47:49.000Z</time>
</trkpt>
<trkpt lat="46.0370370" lon="10.3881690">
	<ele>1587.40</ele>
	<time>2024-07-24T08:47:50.000Z</time>
</trkpt>
<trkpt lat="46.0370470" lon="10.3881770">
	<ele>1587.40</ele>
	<time>2024-07-24T08:47:51.000Z</time>
</trkpt>
<trkpt lat="46.0370560" lon="10.3881800">
	<ele>1587.20</ele>
	<time>2024-07-24T08:47:52.000Z</time>
</trkpt>
<trkpt lat="46.0370660" lon="10.3881810">
	<ele>1587.20</ele>
	<time>2024-07-24T08:47:53.000Z</time>
</trkpt>
<trkpt lat="46.0370700" lon="10.3881810">
	<ele>1587.40</ele>
	<time>2024-07-24T08:47:54.000Z</time>
</trkpt>
<trkpt lat="46.0370710" lon="10.3881800">
	<ele>1587.20</ele>
	<time>2024-07-24T08:47:55.000Z</time>
</trkpt>
<trkpt lat="46.0370710" lon="10.3881790">
	<ele>1587.20</ele>
	<time>2024-07-24T08:47:56.000Z</time>
</trkpt>
<trkpt lat="46.0370690" lon="10.3881770">
	<ele>1587.20</ele>
	<time>2024-07-24T08:47:57.000Z</time>
</trkpt>
<trkpt lat="46.0370660" lon="10.3881760">
	<ele>1587.20</ele>
	<time>2024-07-24T08:47:58.000Z</time>
</trkpt>
<trkpt lat="46.0370640" lon="10.3881740">
	<ele>1587.20</ele>
	<time>2024-07-24T08:47:59.000Z</time>
</trkpt>
<trkpt lat="46.0370620" lon="10.3881730">
	<ele>1587.20</ele>
	<time>2024-07-24T08:48:00.000Z</time>
</trkpt>
<trkpt lat="46.0370620" lon="10.3881720">
	<ele>1587.20</ele>
	<time>2024-07-24T08:48:01.000Z</time>
</trkpt>
<trkpt lat="46.0370630" lon="10.3881720">
	<ele>1587.20</ele>
	<time>2024-07-24T08:48:02.000Z</time>
</trkpt>
<trkpt lat="46.0370640" lon="10.3881720">
	<ele>1587.20</ele>
	<time>2024-07-24T08:48:03.000Z</time>
</trkpt>
<trkpt lat="46.0370650" lon="10.3881720">
	<ele>1587.20</ele>
	<time>2024-07-24T08:48:04.000Z</time>
</trkpt>
<trkpt lat="46.0370660" lon="10.3881720">
	<ele>1587.20</ele>
	<time>2024-07-24T08:48:05.000Z</time>
</trkpt>
<trkpt lat="46.0370650" lon="10.3881710">
	<ele>1587.20</ele>
	<time>2024-07-24T08:48:06.000Z</time>
</trkpt>
<trkpt lat="46.0370650" lon="10.3881710">
	<ele>1587.20</ele>
	<time>2024-07-24T08:48:07.000Z</time>
</trkpt>
<trkpt lat="46.0370650" lon="10.3881710">
	<ele>1587.20</ele>
	<time>2024-07-24T08:48:08.000Z</time>
</trkpt>
<trkpt lat="46.0370650" lon="10.3881710">
	<ele>1587.00</ele>
	<time>2024-07-24T08:48:09.000Z</time>
</trkpt>
<trkpt lat="46.0370650" lon="10.3881710">
	<ele>1587.00</ele>
	<time>2024-07-24T08:48:10.000Z</time>
</trkpt>
<trkpt lat="46.0370650" lon="10.3881710">
	<ele>1587.00</ele>
	<time>2024-07-24T08:48:11.000Z</time>
</trkpt>
<trkpt lat="46.0370650" lon="10.3881710">
	<ele>1587.00</ele>
	<time>2024-07-24T08:48:12.000Z</time>
</trkpt>
<trkpt lat="46.0370650" lon="10.3881710">
	<ele>1586.80</ele>
	<time>2024-07-24T08:48:13.000Z</time>
</trkpt>
<trkpt lat="46.0370650" lon="10.3881710">
	<ele>1586.80</ele>
	<time>2024-07-24T08:48:14.000Z</time>
</trkpt>
<trkpt lat="46.0370650" lon="10.3881710">
	<ele>1586.80</ele>
	<time>2024-07-24T08:48:15.000Z</time>
</trkpt>
<trkpt lat="46.0370650" lon="10.3881710">
	<ele>1586.80</ele>
	<time>2024-07-24T08:48:16.000Z</time>
</trkpt>
<trkpt lat="46.0370650" lon="10.3881710">
	<ele>1586.80</ele>
	<time>2024-07-24T08:48:17.000Z</time>
</trkpt>
<trkpt lat="46.0370650" lon="10.3881710">
	<ele>1586.80</ele>
	<time>2024-07-24T08:48:18.000Z</time>
</trkpt>
<trkpt lat="46.0370650" lon="10.3881710">
	<ele>1586.80</ele>
	<time>2024-07-24T08:48:19.000Z</time>
</trkpt>
<trkpt lat="46.0370650" lon="10.3881710">
	<ele>1586.80</ele>
	<time>2024-07-24T08:48:20.000Z</time>
</trkpt>
<trkpt lat="46.0370640" lon="10.3881710">
	<ele>1586.80</ele>
	<time>2024-07-24T08:48:21.000Z</time>
</trkpt>
<trkpt lat="46.0370640" lon="10.3881710">
	<ele>1586.80</ele>
	<time>2024-07-24T08:48:22.000Z</time>
</trkpt>
<trkpt lat="46.0370640" lon="10.3881710">
	<ele>1586.80</ele>
	<time>2024-07-24T08:48:23.000Z</time>
</trkpt>
<trkpt lat="46.0370640" lon="10.3881710">
	<ele>1586.80</ele>
	<time>2024-07-24T08:48:24.000Z</time>
</trkpt>
<trkpt lat="46.0370630" lon="10.3881710">
	<ele>1586.80</ele>
	<time>2024-07-24T08:48:25.000Z</time>
</trkpt>
<trkpt lat="46.0370630" lon="10.3881710">
	<ele>1586.80</ele>
	<time>2024-07-24T08:48:26.000Z</time>
</trkpt>
<trkpt lat="46.0370630" lon="10.3881710">
	<ele>1586.60</ele>
	<time>2024-07-24T08:48:27.000Z</time>
</trkpt>
<trkpt lat="46.0370620" lon="10.3881710">
	<ele>1586.60</ele>
	<time>2024-07-24T08:48:28.000Z</time>
</trkpt>
<trkpt lat="46.0370620" lon="10.3881710">
	<ele>1586.60</ele>
	<time>2024-07-24T08:48:29.000Z</time>
</trkpt>
<trkpt lat="46.0370620" lon="10.3881710">
	<ele>1586.60</ele>
	<time>2024-07-24T08:48:30.000Z</time>
</trkpt>
<trkpt lat="46.0370620" lon="10.3881710">
	<ele>1586.60</ele>
	<time>2024-07-24T08:48:31.000Z</time>
</trkpt>
<trkpt lat="46.0370620" lon="10.3881710">
	<ele>1586.60</ele>
	<time>2024-07-24T08:48:32.000Z</time>
</trkpt>
<trkpt lat="46.0370620" lon="10.3881710">
	<ele>1586.80</ele>
	<time>2024-07-24T08:48:33.000Z</time>
</trkpt>
<trkpt lat="46.0370610" lon="10.3881710">
	<ele>1586.80</ele>
	<time>2024-07-24T08:48:34.000Z</time>
</trkpt>
<trkpt lat="46.0370570" lon="10.3881710">
	<ele>1586.80</ele>
	<time>2024-07-24T08:48:35.000Z</time>
</trkpt>
<trkpt lat="46.0370540" lon="10.3881710">
	<ele>1586.80</ele>
	<time>2024-07-24T08:48:36.000Z</time>
</trkpt>
<trkpt lat="46.0370510" lon="10.3881770">
	<ele>1586.80</ele>
	<time>2024-07-24T08:48:37.000Z</time>
</trkpt>
<trkpt lat="46.0370490" lon="10.3881780">
	<ele>1586.80</ele>
	<time>2024-07-24T08:48:38.000Z</time>
</trkpt>
<trkpt lat="46.0370490" lon="10.3881790">
	<ele>1586.60</ele>
	<time>2024-07-24T08:48:39.000Z</time>
</trkpt>
<trkpt lat="46.0370490" lon="10.3881790">
	<ele>1586.60</ele>
	<time>2024-07-24T08:48:40.000Z</time>
</trkpt>
<trkpt lat="46.0370490" lon="10.3881790">
	<ele>1586.60</ele>
	<time>2024-07-24T08:48:41.000Z</time>
</trkpt>
<trkpt lat="46.0370490" lon="10.3881800">
	<ele>1586.60</ele>
	<time>2024-07-24T08:48:42.000Z</time>
</trkpt>
<trkpt lat="46.0370490" lon="10.3881800">
	<ele>1586.60</ele>
	<time>2024-07-24T08:48:43.000Z</time>
</trkpt>
<trkpt lat="46.0370490" lon="10.3881800">
	<ele>1586.60</ele>
	<time>2024-07-24T08:48:44.000Z</time>
</trkpt>
<trkpt lat="46.0370490" lon="10.3881800">
	<ele>1586.60</ele>
	<time>2024-07-24T08:48:45.000Z</time>
</trkpt>
<trkpt lat="46.0370490" lon="10.3881810">
	<ele>1586.60</ele>
	<time>2024-07-24T08:48:46.000Z</time>
</trkpt>
<trkpt lat="46.0370490" lon="10.3881820">
	<ele>1586.60</ele>
	<time>2024-07-24T08:48:47.000Z</time>
</trkpt>
<trkpt lat="46.0370490" lon="10.3881820">
	<ele>1586.60</ele>
	<time>2024-07-24T08:48:48.000Z</time>
</trkpt>
<trkpt lat="46.0370490" lon="10.3881820">
	<ele>1586.60</ele>
	<time>2024-07-24T08:48:49.000Z</time>
</trkpt>
<trkpt lat="46.0370490" lon="10.3881830">
	<ele>1586.60</ele>
	<time>2024-07-24T08:48:50.000Z</time>
</trkpt>
<trkpt lat="46.0370490" lon="10.3881830">
	<ele>1586.80</ele>
	<time>2024-07-24T08:48:51.000Z</time>
</trkpt>
<trkpt lat="46.0370490" lon="10.3881840">
	<ele>1586.80</ele>
	<time>2024-07-24T08:48:52.000Z</time>
</trkpt>
<trkpt lat="46.0370520" lon="10.3881840">
	<ele>1586.80</ele>
	<time>2024-07-24T08:48:53.000Z</time>
</trkpt>
<trkpt lat="46.0370530" lon="10.3881850">
	<ele>1586.80</ele>
	<time>2024-07-24T08:48:54.000Z</time>
</trkpt>
<trkpt lat="46.0370540" lon="10.3881850">
	<ele>1586.80</ele>
	<time>2024-07-24T08:48:55.000Z</time>
</trkpt>
<trkpt lat="46.0370540" lon="10.3881850">
	<ele>1586.80</ele>
	<time>2024-07-24T08:48:56.000Z</time>
</trkpt>
<trkpt lat="46.0370550" lon="10.3881860">
	<ele>1586.80</ele>
	<time>2024-07-24T08:48:57.000Z</time>
</trkpt>
<trkpt lat="46.0370550" lon="10.3881870">
	<ele>1587.00</ele>
	<time>2024-07-24T08:48:58.000Z</time>
</trkpt>
<trkpt lat="46.0370550" lon="10.3881870">
	<ele>1587.00</ele>
	<time>2024-07-24T08:48:59.000Z</time>
</trkpt>
<trkpt lat="46.0370570" lon="10.3881880">
	<ele>1587.00</ele>
	<time>2024-07-24T08:49:00.000Z</time>
</trkpt>
<trkpt lat="46.0370610" lon="10.3881920">
	<ele>1587.00</ele>
	<time>2024-07-24T08:49:01.000Z</time>
</trkpt>
<trkpt lat="46.0370620" lon="10.3881910">
	<ele>1587.00</ele>
	<time>2024-07-24T08:49:02.000Z</time>
</trkpt>
<trkpt lat="46.0370640" lon="10.3881930">
	<ele>1587.00</ele>
	<time>2024-07-24T08:49:03.000Z</time>
</trkpt>
<trkpt lat="46.0370660" lon="10.3881960">
	<ele>1587.00</ele>
	<time>2024-07-24T08:49:04.000Z</time>
</trkpt>
<trkpt lat="46.0370670" lon="10.3881980">
	<ele>1587.00</ele>
	<time>2024-07-24T08:49:05.000Z</time>
</trkpt>
<trkpt lat="46.0370720" lon="10.3882040">
	<ele>1586.80</ele>
	<time>2024-07-24T08:49:06.000Z</time>
</trkpt>
<trkpt lat="46.0370740" lon="10.3882060">
	<ele>1586.80</ele>
	<time>2024-07-24T08:49:07.000Z</time>
</trkpt>
<trkpt lat="46.0370760" lon="10.3882080">
	<ele>1586.80</ele>
	<time>2024-07-24T08:49:08.000Z</time>
</trkpt>
<trkpt lat="46.0370760" lon="10.3882110">
	<ele>1586.80</ele>
	<time>2024-07-24T08:49:09.000Z</time>
</trkpt>
<trkpt lat="46.0370760" lon="10.3882100">
	<ele>1586.80</ele>
	<time>2024-07-24T08:49:10.000Z</time>
</trkpt>
<trkpt lat="46.0370770" lon="10.3882090">
	<ele>1586.80</ele>
	<time>2024-07-24T08:49:11.000Z</time>
</trkpt>
<trkpt lat="46.0370780" lon="10.3882090">
	<ele>1586.80</ele>
	<time>2024-07-24T08:49:12.000Z</time>
</trkpt>
<trkpt lat="46.0370810" lon="10.3882100">
	<ele>1586.80</ele>
	<time>2024-07-24T08:49:13.000Z</time>
</trkpt>
<trkpt lat="46.0370830" lon="10.3882110">
	<ele>1586.80</ele>
	<time>2024-07-24T08:49:14.000Z</time>
</trkpt>
<trkpt lat="46.0370860" lon="10.3882140">
	<ele>1586.80</ele>
	<time>2024-07-24T08:49:15.000Z</time>
</trkpt>
<trkpt lat="46.0370880" lon="10.3882140">
	<ele>1586.80</ele>
	<time>2024-07-24T08:49:16.000Z</time>
</trkpt>
<trkpt lat="46.0370880" lon="10.3882150">
	<ele>1586.80</ele>
	<time>2024-07-24T08:49:17.000Z</time>
</trkpt>
<trkpt lat="46.0370890" lon="10.3882160">
	<ele>1586.80</ele>
	<time>2024-07-24T08:49:18.000Z</time>
</trkpt>
<trkpt lat="46.0370900" lon="10.3882180">
	<ele>1586.80</ele>
	<time>2024-07-24T08:49:19.000Z</time>
</trkpt>
<trkpt lat="46.0370900" lon="10.3882210">
	<ele>1586.80</ele>
	<time>2024-07-24T08:49:20.000Z</time>
</trkpt>
<trkpt lat="46.0370900" lon="10.3882230">
	<ele>1586.80</ele>
	<time>2024-07-24T08:49:21.000Z</time>
</trkpt>
<trkpt lat="46.0370910" lon="10.3882260">
	<ele>1586.80</ele>
	<time>2024-07-24T08:49:22.000Z</time>
</trkpt>
<trkpt lat="46.0370930" lon="10.3882290">
	<ele>1586.80</ele>
	<time>2024-07-24T08:49:23.000Z</time>
</trkpt>
<trkpt lat="46.0370880" lon="10.3882230">
	<ele>1586.80</ele>
	<time>2024-07-24T08:49:24.000Z</time>
</trkpt>
<trkpt lat="46.0370880" lon="10.3882220">
	<ele>1586.80</ele>
	<time>2024-07-24T08:49:25.000Z</time>
</trkpt>
<trkpt lat="46.0370880" lon="10.3882200">
	<ele>1586.80</ele>
	<time>2024-07-24T08:49:26.000Z</time>
</trkpt>
<trkpt lat="46.0370870" lon="10.3882200">
	<ele>1586.80</ele>
	<time>2024-07-24T08:49:27.000Z</time>
</trkpt>
<trkpt lat="46.0370870" lon="10.3882200">
	<ele>1586.80</ele>
	<time>2024-07-24T08:49:28.000Z</time>
</trkpt>
<trkpt lat="46.0370860" lon="10.3882200">
	<ele>1586.80</ele>
	<time>2024-07-24T08:49:29.000Z</time>
</trkpt>
<trkpt lat="46.0370850" lon="10.3882190">
	<ele>1586.80</ele>
	<time>2024-07-24T08:49:30.000Z</time>
</trkpt>
<trkpt lat="46.0370850" lon="10.3882180">
	<ele>1586.80</ele>
	<time>2024-07-24T08:49:31.000Z</time>
</trkpt>
<trkpt lat="46.0370860" lon="10.3882150">
	<ele>1586.80</ele>
	<time>2024-07-24T08:49:32.000Z</time>
</trkpt>
<trkpt lat="46.0370850" lon="10.3882150">
	<ele>1586.80</ele>
	<time>2024-07-24T08:49:33.000Z</time>
</trkpt>
<trkpt lat="46.0370860" lon="10.3882160">
	<ele>1586.80</ele>
	<time>2024-07-24T08:49:34.000Z</time>
</trkpt>
<trkpt lat="46.0370870" lon="10.3882160">
	<ele>1586.80</ele>
	<time>2024-07-24T08:49:35.000Z</time>
</trkpt>
<trkpt lat="46.0370890" lon="10.3882170">
	<ele>1586.80</ele>
	<time>2024-07-24T08:49:36.000Z</time>
</trkpt>
<trkpt lat="46.0370950" lon="10.3882250">
	<ele>1586.80</ele>
	<time>2024-07-24T08:49:37.000Z</time>
</trkpt>
<trkpt lat="46.0371020" lon="10.3882300">
	<ele>1586.80</ele>
	<time>2024-07-24T08:49:38.000Z</time>
</trkpt>
<trkpt lat="46.0371070" lon="10.3882370">
	<ele>1586.80</ele>
	<time>2024-07-24T08:49:39.000Z</time>
</trkpt>
<trkpt lat="46.0371080" lon="10.3882450">
	<ele>1586.80</ele>
	<time>2024-07-24T08:49:40.000Z</time>
</trkpt>
<trkpt lat="46.0371090" lon="10.3882480">
	<ele>1586.80</ele>
	<time>2024-07-24T08:49:41.000Z</time>
</trkpt>
<trkpt lat="46.0371080" lon="10.3882480">
	<ele>1586.80</ele>
	<time>2024-07-24T08:49:42.000Z</time>
</trkpt>
<trkpt lat="46.0371080" lon="10.3882490">
	<ele>1586.80</ele>
	<time>2024-07-24T08:49:43.000Z</time>
</trkpt>
<trkpt lat="46.0371080" lon="10.3882480">
	<ele>1586.80</ele>
	<time>2024-07-24T08:49:44.000Z</time>
</trkpt>
<trkpt lat="46.0371050" lon="10.3882460">
	<ele>1586.80</ele>
	<time>2024-07-24T08:49:45.000Z</time>
</trkpt>
<trkpt lat="46.0371040" lon="10.3882450">
	<ele>1586.80</ele>
	<time>2024-07-24T08:49:46.000Z</time>
</trkpt>
<trkpt lat="46.0371040" lon="10.3882440">
	<ele>1586.80</ele>
	<time>2024-07-24T08:49:47.000Z</time>
</trkpt>
<trkpt lat="46.0371040" lon="10.3882440">
	<ele>1586.80</ele>
	<time>2024-07-24T08:49:48.000Z</time>
</trkpt>
<trkpt lat="46.0370950" lon="10.3882480">
	<ele>1586.80</ele>
	<time>2024-07-24T08:49:49.000Z</time>
</trkpt>
<trkpt lat="46.0370920" lon="10.3882510">
	<ele>1586.80</ele>
	<time>2024-07-24T08:49:50.000Z</time>
</trkpt>
<trkpt lat="46.0370880" lon="10.3882550">
	<ele>1586.80</ele>
	<time>2024-07-24T08:49:51.000Z</time>
</trkpt>
<trkpt lat="46.0370870" lon="10.3882580">
	<ele>1586.80</ele>
	<time>2024-07-24T08:49:52.000Z</time>
</trkpt>
<trkpt lat="46.0370850" lon="10.3882600">
	<ele>1586.80</ele>
	<time>2024-07-24T08:49:53.000Z</time>
</trkpt>
<trkpt lat="46.0370830" lon="10.3882630">
	<ele>1586.80</ele>
	<time>2024-07-24T08:49:54.000Z</time>
</trkpt>
<trkpt lat="46.0370810" lon="10.3882620">
	<ele>1586.80</ele>
	<time>2024-07-24T08:49:55.000Z</time>
</trkpt>
<trkpt lat="46.0370810" lon="10.3882600">
	<ele>1586.80</ele>
	<time>2024-07-24T08:49:56.000Z</time>
</trkpt>
<trkpt lat="46.0370840" lon="10.3882620">
	<ele>1586.80</ele>
	<time>2024-07-24T08:49:57.000Z</time>
</trkpt>
<trkpt lat="46.0370850" lon="10.3882600">
	<ele>1586.80</ele>
	<time>2024-07-24T08:49:58.000Z</time>
</trkpt>
<trkpt lat="46.0370860" lon="10.3882590">
	<ele>1586.80</ele>
	<time>2024-07-24T08:49:59.000Z</time>
</trkpt>
<trkpt lat="46.0370860" lon="10.3882590">
	<ele>1586.80</ele>
	<time>2024-07-24T08:50:00.000Z</time>
</trkpt>
<trkpt lat="46.0370860" lon="10.3882590">
	<ele>1586.80</ele>
	<time>2024-07-24T08:50:01.000Z</time>
</trkpt>
<trkpt lat="46.0370860" lon="10.3882590">
	<ele>1586.80</ele>
	<time>2024-07-24T08:50:02.000Z</time>
</trkpt>
<trkpt lat="46.0370860" lon="10.3882590">
	<ele>1586.80</ele>
	<time>2024-07-24T08:50:03.000Z</time>
</trkpt>
<trkpt lat="46.0370860" lon="10.3882590">
	<ele>1586.80</ele>
	<time>2024-07-24T08:50:04.000Z</time>
</trkpt>
<trkpt lat="46.0370860" lon="10.3882590">
	<ele>1586.80</ele>
	<time>2024-07-24T08:50:05.000Z</time>
</trkpt>
<trkpt lat="46.0370860" lon="10.3882590">
	<ele>1586.80</ele>
	<time>2024-07-24T08:50:06.000Z</time>
</trkpt>
<trkpt lat="46.0370860" lon="10.3882590">
	<ele>1586.80</ele>
	<time>2024-07-24T08:50:07.000Z</time>
</trkpt>
<trkpt lat="46.0370860" lon="10.3882590">
	<ele>1586.80</ele>
	<time>2024-07-24T08:50:08.000Z</time>
</trkpt>
<trkpt lat="46.0370860" lon="10.3882590">
	<ele>1586.80</ele>
	<time>2024-07-24T08:50:09.000Z</time>
</trkpt>
<trkpt lat="46.0370860" lon="10.3882590">
	<ele>1586.80</ele>
	<time>2024-07-24T08:50:10.000Z</time>
</trkpt>
<trkpt lat="46.0370860" lon="10.3882590">
	<ele>1586.80</ele>
	<time>2024-07-24T08:50:11.000Z</time>
</trkpt>
<trkpt lat="46.0370860" lon="10.3882590">
	<ele>1586.80</ele>
	<time>2024-07-24T08:50:12.000Z</time>
</trkpt>
<trkpt lat="46.0370860" lon="10.3882580">
	<ele>1586.80</ele>
	<time>2024-07-24T08:50:13.000Z</time>
</trkpt>
<trkpt lat="46.0370860" lon="10.3882580">
	<ele>1586.80</ele>
	<time>2024-07-24T08:50:14.000Z</time>
</trkpt>
<trkpt lat="46.0370860" lon="10.3882580">
	<ele>1586.80</ele>
	<time>2024-07-24T08:50:15.000Z</time>
</trkpt>
<trkpt lat="46.0370860" lon="10.3882580">
	<ele>1586.80</ele>
	<time>2024-07-24T08:50:16.000Z</time>
</trkpt>
<trkpt lat="46.0370860" lon="10.3882570">
	<ele>1586.80</ele>
	<time>2024-07-24T08:50:17.000Z</time>
</trkpt>
<trkpt lat="46.0370860" lon="10.3882570">
	<ele>1586.80</ele>
	<time>2024-07-24T08:50:18.000Z</time>
</trkpt>
<trkpt lat="46.0370860" lon="10.3882570">
	<ele>1586.80</ele>
	<time>2024-07-24T08:50:19.000Z</time>
</trkpt>
<trkpt lat="46.0370860" lon="10.3882560">
	<ele>1586.80</ele>
	<time>2024-07-24T08:50:20.000Z</time>
</trkpt>
<trkpt lat="46.0370860" lon="10.3882560">
	<ele>1586.80</ele>
	<time>2024-07-24T08:50:21.000Z</time>
</trkpt>
<trkpt lat="46.0370860" lon="10.3882560">
	<ele>1586.80</ele>
	<time>2024-07-24T08:50:22.000Z</time>
</trkpt>
<trkpt lat="46.0370860" lon="10.3882560">
	<ele>1586.80</ele>
	<time>2024-07-24T08:50:23.000Z</time>
</trkpt>
<trkpt lat="46.0370860" lon="10.3882550">
	<ele>1586.80</ele>
	<time>2024-07-24T08:50:24.000Z</time>
</trkpt>
<trkpt lat="46.0370860" lon="10.3882550">
	<ele>1586.80</ele>
	<time>2024-07-24T08:50:25.000Z</time>
</trkpt>
<trkpt lat="46.0370860" lon="10.3882540">
	<ele>1586.80</ele>
	<time>2024-07-24T08:50:26.000Z</time>
</trkpt>
<trkpt lat="46.0370860" lon="10.3882540">
	<ele>1586.80</ele>
	<time>2024-07-24T08:50:27.000Z</time>
</trkpt>
<trkpt lat="46.0370860" lon="10.3882530">
	<ele>1586.80</ele>
	<time>2024-07-24T08:50:28.000Z</time>
</trkpt>
<trkpt lat="46.0370840" lon="10.3882530">
	<ele>1586.80</ele>
	<time>2024-07-24T08:50:29.000Z</time>
</trkpt>
<trkpt lat="46.0370820" lon="10.3882520">
	<ele>1586.80</ele>
	<time>2024-07-24T08:50:30.000Z</time>
</trkpt>
<trkpt lat="46.0370790" lon="10.3882510">
	<ele>1586.80</ele>
	<time>2024-07-24T08:50:31.000Z</time>
</trkpt>
<trkpt lat="46.0370780" lon="10.3882480">
	<ele>1586.80</ele>
	<time>2024-07-24T08:50:32.000Z</time>
</trkpt>
<trkpt lat="46.0370780" lon="10.3882470">
	<ele>1586.80</ele>
	<time>2024-07-24T08:50:33.000Z</time>
</trkpt>
<trkpt lat="46.0370780" lon="10.3882470">
	<ele>1586.80</ele>
	<time>2024-07-24T08:50:34.000Z</time>
</trkpt>
<trkpt lat="46.0370770" lon="10.3882470">
	<ele>1586.80</ele>
	<time>2024-07-24T08:50:35.000Z</time>
</trkpt>
<trkpt lat="46.0370770" lon="10.3882470">
	<ele>1586.80</ele>
	<time>2024-07-24T08:50:36.000Z</time>
</trkpt>
<trkpt lat="46.0370770" lon="10.3882470">
	<ele>1586.80</ele>
	<time>2024-07-24T08:50:37.000Z</time>
</trkpt>
<trkpt lat="46.0370770" lon="10.3882470">
	<ele>1586.80</ele>
	<time>2024-07-24T08:50:38.000Z</time>
</trkpt>
<trkpt lat="46.0370770" lon="10.3882470">
	<ele>1586.80</ele>
	<time>2024-07-24T08:50:39.000Z</time>
</trkpt>
<trkpt lat="46.0370750" lon="10.3882470">
	<ele>1586.80</ele>
	<time>2024-07-24T08:50:40.000Z</time>
</trkpt>
<trkpt lat="46.0370750" lon="10.3882460">
	<ele>1586.80</ele>
	<time>2024-07-24T08:50:41.000Z</time>
</trkpt>
<trkpt lat="46.0370740" lon="10.3882440">
	<ele>1586.80</ele>
	<time>2024-07-24T08:50:42.000Z</time>
</trkpt>
<trkpt lat="46.0370740" lon="10.3882430">
	<ele>1586.80</ele>
	<time>2024-07-24T08:50:43.000Z</time>
</trkpt>
<trkpt lat="46.0370740" lon="10.3882430">
	<ele>1586.80</ele>
	<time>2024-07-24T08:50:44.000Z</time>
</trkpt>
<trkpt lat="46.0370720" lon="10.3882430">
	<ele>1586.80</ele>
	<time>2024-07-24T08:50:45.000Z</time>
</trkpt>
<trkpt lat="46.0370700" lon="10.3882420">
	<ele>1586.80</ele>
	<time>2024-07-24T08:50:46.000Z</time>
</trkpt>
<trkpt lat="46.0370680" lon="10.3882420">
	<ele>1586.80</ele>
	<time>2024-07-24T08:50:47.000Z</time>
</trkpt>
<trkpt lat="46.0370660" lon="10.3882410">
	<ele>1586.80</ele>
	<time>2024-07-24T08:50:48.000Z</time>
</trkpt>
<trkpt lat="46.0370650" lon="10.3882410">
	<ele>1586.80</ele>
	<time>2024-07-24T08:50:49.000Z</time>
</trkpt>
<trkpt lat="46.0370650" lon="10.3882400">
	<ele>1586.80</ele>
	<time>2024-07-24T08:50:50.000Z</time>
</trkpt>
<trkpt lat="46.0370650" lon="10.3882400">
	<ele>1586.80</ele>
	<time>2024-07-24T08:50:51.000Z</time>
</trkpt>
<trkpt lat="46.0370650" lon="10.3882400">
	<ele>1586.80</ele>
	<time>2024-07-24T08:50:52.000Z</time>
</trkpt>
<trkpt lat="46.0370650" lon="10.3882400">
	<ele>1586.80</ele>
	<time>2024-07-24T08:50:53.000Z</time>
</trkpt>
<trkpt lat="46.0370650" lon="10.3882400">
	<ele>1586.80</ele>
	<time>2024-07-24T08:50:54.000Z</time>
</trkpt>
<trkpt lat="46.0370640" lon="10.3882400">
	<ele>1586.80</ele>
	<time>2024-07-24T08:50:55.000Z</time>
</trkpt>
<trkpt lat="46.0370640" lon="10.3882330">
	<ele>1586.80</ele>
	<time>2024-07-24T08:50:56.000Z</time>
</trkpt>
<trkpt lat="46.0370590" lon="10.3882270">
	<ele>1586.80</ele>
	<time>2024-07-24T08:50:57.000Z</time>
</trkpt>
<trkpt lat="46.0370500" lon="10.3882090">
	<ele>1586.80</ele>
	<time>2024-07-24T08:50:58.000Z</time>
</trkpt>
<trkpt lat="46.0370400" lon="10.3881870">
	<ele>1586.80</ele>
	<time>2024-07-24T08:50:59.000Z</time>
</trkpt>
<trkpt lat="46.0370290" lon="10.3881680">
	<ele>1586.80</ele>
	<time>2024-07-24T08:51:00.000Z</time>
</trkpt>
<trkpt lat="46.0370250" lon="10.3881420">
	<ele>1586.80</ele>
	<time>2024-07-24T08:51:01.000Z</time>
</trkpt>
<trkpt lat="46.0370100" lon="10.3881200">
	<ele>1586.80</ele>
	<time>2024-07-24T08:51:02.000Z</time>
</trkpt>
<trkpt lat="46.0370020" lon="10.3881020">
	<ele>1586.80</ele>
	<time>2024-07-24T08:51:03.000Z</time>
</trkpt>
<trkpt lat="46.0369910" lon="10.3880810">
	<ele>1586.80</ele>
	<time>2024-07-24T08:51:04.000Z</time>
</trkpt>
<trkpt lat="46.0369810" lon="10.3880570">
	<ele>1586.80</ele>
	<time>2024-07-24T08:51:05.000Z</time>
</trkpt>
<trkpt lat="46.0369740" lon="10.3880330">
	<ele>1586.80</ele>
	<time>2024-07-24T08:51:06.000Z</time>
</trkpt>
<trkpt lat="46.0369700" lon="10.3880170">
	<ele>1586.80</ele>
	<time>2024-07-24T08:51:07.000Z</time>
</trkpt>
<trkpt lat="46.0369630" lon="10.3880080">
	<ele>1586.80</ele>
	<time>2024-07-24T08:51:08.000Z</time>
</trkpt>
<trkpt lat="46.0369550" lon="10.3879960">
	<ele>1586.80</ele>
	<time>2024-07-24T08:51:09.000Z</time>
</trkpt>
<trkpt lat="46.0369500" lon="10.3879820">
	<ele>1586.80</ele>
	<time>2024-07-24T08:51:10.000Z</time>
</trkpt>
<trkpt lat="46.0369370" lon="10.3879680">
	<ele>1586.80</ele>
	<time>2024-07-24T08:51:11.000Z</time>
</trkpt>
<trkpt lat="46.0369330" lon="10.3879600">
	<ele>1586.80</ele>
	<time>2024-07-24T08:51:12.000Z</time>
</trkpt>
<trkpt lat="46.0369290" lon="10.3879500">
	<ele>1586.80</ele>
	<time>2024-07-24T08:51:13.000Z</time>
</trkpt>
<trkpt lat="46.0369260" lon="10.3879370">
	<ele>1586.80</ele>
	<time>2024-07-24T08:51:14.000Z</time>
</trkpt>
<trkpt lat="46.0369200" lon="10.3879250">
	<ele>1587.00</ele>
	<time>2024-07-24T08:51:15.000Z</time>
</trkpt>
<trkpt lat="46.0369120" lon="10.3879120">
	<ele>1586.80</ele>
	<time>2024-07-24T08:51:16.000Z</time>
</trkpt>
<trkpt lat="46.0369030" lon="10.3878960">
	<ele>1586.80</ele>
	<time>2024-07-24T08:51:17.000Z</time>
</trkpt>
<trkpt lat="46.0368990" lon="10.3878790">
	<ele>1586.80</ele>
	<time>2024-07-24T08:51:18.000Z</time>
</trkpt>
<trkpt lat="46.0368940" lon="10.3878670">
	<ele>1586.80</ele>
	<time>2024-07-24T08:51:19.000Z</time>
</trkpt>
<trkpt lat="46.0368900" lon="10.3878530">
	<ele>1586.80</ele>
	<time>2024-07-24T08:51:20.000Z</time>
</trkpt>
<trkpt lat="46.0368860" lon="10.3878400">
	<ele>1586.80</ele>
	<time>2024-07-24T08:51:21.000Z</time>
</trkpt>
<trkpt lat="46.0368830" lon="10.3878270">
	<ele>1586.80</ele>
	<time>2024-07-24T08:51:22.000Z</time>
</trkpt>
<trkpt lat="46.0368790" lon="10.3878120">
	<ele>1587.00</ele>
	<time>2024-07-24T08:51:23.000Z</time>
</trkpt>
<trkpt lat="46.0368740" lon="10.3877970">
	<ele>1587.00</ele>
	<time>2024-07-24T08:51:24.000Z</time>
</trkpt>
<trkpt lat="46.0368710" lon="10.3877830">
	<ele>1587.00</ele>
	<time>2024-07-24T08:51:25.000Z</time>
</trkpt>
<trkpt lat="46.0368710" lon="10.3877690">
	<ele>1587.00</ele>
	<time>2024-07-24T08:51:26.000Z</time>
</trkpt>
<trkpt lat="46.0368710" lon="10.3877540">
	<ele>1587.00</ele>
	<time>2024-07-24T08:51:27.000Z</time>
</trkpt>
<trkpt lat="46.0368700" lon="10.3877360">
	<ele>1587.00</ele>
	<time>2024-07-24T08:51:28.000Z</time>
</trkpt>
<trkpt lat="46.0368630" lon="10.3877200">
	<ele>1587.00</ele>
	<time>2024-07-24T08:51:29.000Z</time>
</trkpt>
<trkpt lat="46.0368580" lon="10.3877030">
	<ele>1587.20</ele>
	<time>2024-07-24T08:51:30.000Z</time>
</trkpt>
<trkpt lat="46.0368550" lon="10.3876880">
	<ele>1587.20</ele>
	<time>2024-07-24T08:51:31.000Z</time>
</trkpt>
<trkpt lat="46.0368520" lon="10.3876760">
	<ele>1587.20</ele>
	<time>2024-07-24T08:51:32.000Z</time>
</trkpt>
<trkpt lat="46.0368470" lon="10.3876580">
	<ele>1587.20</ele>
	<time>2024-07-24T08:51:33.000Z</time>
</trkpt>
<trkpt lat="46.0368380" lon="10.3876360">
	<ele>1587.20</ele>
	<time>2024-07-24T08:51:34.000Z</time>
</trkpt>
<trkpt lat="46.0368320" lon="10.3876170">
	<ele>1587.20</ele>
	<time>2024-07-24T08:51:35.000Z</time>
</trkpt>
<trkpt lat="46.0368330" lon="10.3876040">
	<ele>1587.20</ele>
	<time>2024-07-24T08:51:36.000Z</time>
</trkpt>
<trkpt lat="46.0368300" lon="10.3875870">
	<ele>1587.20</ele>
	<time>2024-07-24T08:51:37.000Z</time>
</trkpt>
<trkpt lat="46.0368250" lon="10.3875720">
	<ele>1587.20</ele>
	<time>2024-07-24T08:51:38.000Z</time>
</trkpt>
<trkpt lat="46.0368180" lon="10.3875600">
	<ele>1587.20</ele>
	<time>2024-07-24T08:51:39.000Z</time>
</trkpt>
<trkpt lat="46.0368040" lon="10.3875480">
	<ele>1587.20</ele>
	<time>2024-07-24T08:51:40.000Z</time>
</trkpt>
<trkpt lat="46.0368020" lon="10.3875350">
	<ele>1587.20</ele>
	<time>2024-07-24T08:51:41.000Z</time>
</trkpt>
<trkpt lat="46.0367940" lon="10.3875140">
	<ele>1587.00</ele>
	<time>2024-07-24T08:51:42.000Z</time>
</trkpt>
<trkpt lat="46.0367830" lon="10.3874990">
	<ele>1587.00</ele>
	<time>2024-07-24T08:51:43.000Z</time>
</trkpt>
<trkpt lat="46.0367700" lon="10.3874890">
	<ele>1587.00</ele>
	<time>2024-07-24T08:51:44.000Z</time>
</trkpt>
<trkpt lat="46.0367540" lon="10.3874840">
	<ele>1587.00</ele>
	<time>2024-07-24T08:51:45.000Z</time>
</trkpt>
<trkpt lat="46.0367500" lon="10.3874810">
	<ele>1586.80</ele>
	<time>2024-07-24T08:51:46.000Z</time>
</trkpt>
<trkpt lat="46.0367410" lon="10.3874790">
	<ele>1586.80</ele>
	<time>2024-07-24T08:51:47.000Z</time>
</trkpt>
<trkpt lat="46.0367280" lon="10.3874650">
	<ele>1586.80</ele>
	<time>2024-07-24T08:51:48.000Z</time>
</trkpt>
<trkpt lat="46.0367080" lon="10.3874450">
	<ele>1586.80</ele>
	<time>2024-07-24T08:51:49.000Z</time>
</trkpt>
<trkpt lat="46.0366870" lon="10.3874310">
	<ele>1586.60</ele>
	<time>2024-07-24T08:51:50.000Z</time>
</trkpt>
<trkpt lat="46.0366880" lon="10.3874300">
	<ele>1586.40</ele>
	<time>2024-07-24T08:51:51.000Z</time>
</trkpt>
<trkpt lat="46.0366790" lon="10.3874150">
	<ele>1586.40</ele>
	<time>2024-07-24T08:51:52.000Z</time>
</trkpt>
<trkpt lat="46.0366690" lon="10.3874050">
	<ele>1586.20</ele>
	<time>2024-07-24T08:51:53.000Z</time>
</trkpt>
<trkpt lat="46.0366640" lon="10.3873910">
	<ele>1586.20</ele>
	<time>2024-07-24T08:51:54.000Z</time>
</trkpt>
<trkpt lat="46.0366570" lon="10.3873800">
	<ele>1586.20</ele>
	<time>2024-07-24T08:51:55.000Z</time>
</trkpt>
<trkpt lat="46.0366530" lon="10.3873680">
	<ele>1586.00</ele>
	<time>2024-07-24T08:51:56.000Z</time>
</trkpt>
<trkpt lat="46.0366410" lon="10.3873500">
	<ele>1586.00</ele>
	<time>2024-07-24T08:51:57.000Z</time>
</trkpt>
<trkpt lat="46.0366400" lon="10.3873380">
	<ele>1585.80</ele>
	<time>2024-07-24T08:51:58.000Z</time>
</trkpt>
<trkpt lat="46.0366400" lon="10.3873230">
	<ele>1585.80</ele>
	<time>2024-07-24T08:51:59.000Z</time>
</trkpt>
<trkpt lat="46.0366430" lon="10.3873080">
	<ele>1585.80</ele>
	<time>2024-07-24T08:52:00.000Z</time>
</trkpt>
<trkpt lat="46.0366390" lon="10.3872870">
	<ele>1585.80</ele>
	<time>2024-07-24T08:52:01.000Z</time>
</trkpt>
<trkpt lat="46.0366330" lon="10.3872660">
	<ele>1585.80</ele>
	<time>2024-07-24T08:52:02.000Z</time>
</trkpt>
<trkpt lat="46.0366240" lon="10.3872510">
	<ele>1585.80</ele>
	<time>2024-07-24T08:52:03.000Z</time>
</trkpt>
<trkpt lat="46.0366180" lon="10.3872350">
	<ele>1585.60</ele>
	<time>2024-07-24T08:52:04.000Z</time>
</trkpt>
<trkpt lat="46.0366090" lon="10.3872180">
	<ele>1585.60</ele>
	<time>2024-07-24T08:52:05.000Z</time>
</trkpt>
<trkpt lat="46.0365980" lon="10.3872010">
	<ele>1585.60</ele>
	<time>2024-07-24T08:52:06.000Z</time>
</trkpt>
<trkpt lat="46.0365990" lon="10.3871970">
	<ele>1585.60</ele>
	<time>2024-07-24T08:52:07.000Z</time>
</trkpt>
<trkpt lat="46.0365920" lon="10.3871890">
	<ele>1585.60</ele>
	<time>2024-07-24T08:52:08.000Z</time>
</trkpt>
<trkpt lat="46.0365830" lon="10.3871780">
	<ele>1585.60</ele>
	<time>2024-07-24T08:52:09.000Z</time>
</trkpt>
<trkpt lat="46.0365800" lon="10.3871670">
	<ele>1585.60</ele>
	<time>2024-07-24T08:52:10.000Z</time>
</trkpt>
<trkpt lat="46.0365750" lon="10.3871560">
	<ele>1585.60</ele>
	<time>2024-07-24T08:52:11.000Z</time>
</trkpt>
<trkpt lat="46.0365700" lon="10.3871440">
	<ele>1585.60</ele>
	<time>2024-07-24T08:52:12.000Z</time>
</trkpt>
<trkpt lat="46.0365510" lon="10.3871300">
	<ele>1585.60</ele>
	<time>2024-07-24T08:52:13.000Z</time>
</trkpt>
<trkpt lat="46.0365320" lon="10.3871180">
	<ele>1585.60</ele>
	<time>2024-07-24T08:52:14.000Z</time>
</trkpt>
<trkpt lat="46.0365220" lon="10.3871060">
	<ele>1585.60</ele>
	<time>2024-07-24T08:52:15.000Z</time>
</trkpt>
<trkpt lat="46.0365110" lon="10.3870960">
	<ele>1585.60</ele>
	<time>2024-07-24T08:52:16.000Z</time>
</trkpt>
<trkpt lat="46.0365060" lon="10.3870810">
	<ele>1585.60</ele>
	<time>2024-07-24T08:52:17.000Z</time>
</trkpt>
<trkpt lat="46.0364970" lon="10.3870640">
	<ele>1585.60</ele>
	<time>2024-07-24T08:52:18.000Z</time>
</trkpt>
<trkpt lat="46.0364860" lon="10.3870510">
	<ele>1585.60</ele>
	<time>2024-07-24T08:52:19.000Z</time>
</trkpt>
<trkpt lat="46.0364760" lon="10.3870370">
	<ele>1585.60</ele>
	<time>2024-07-24T08:52:20.000Z</time>
</trkpt>
<trkpt lat="46.0364730" lon="10.3870250">
	<ele>1585.60</ele>
	<time>2024-07-24T08:52:21.000Z</time>
</trkpt>
<trkpt lat="46.0364710" lon="10.3870210">
	<ele>1585.60</ele>
	<time>2024-07-24T08:52:22.000Z</time>
</trkpt>
<trkpt lat="46.0364770" lon="10.3870170">
	<ele>1585.80</ele>
	<time>2024-07-24T08:52:23.000Z</time>
</trkpt>
<trkpt lat="46.0364830" lon="10.3870000">
	<ele>1585.80</ele>
	<time>2024-07-24T08:52:24.000Z</time>
</trkpt>
<trkpt lat="46.0364960" lon="10.3869820">
	<ele>1585.80</ele>
	<time>2024-07-24T08:52:25.000Z</time>
</trkpt>
<trkpt lat="46.0365080" lon="10.3869650">
	<ele>1586.00</ele>
	<time>2024-07-24T08:52:26.000Z</time>
</trkpt>
<trkpt lat="46.0365220" lon="10.3869560">
	<ele>1586.00</ele>
	<time>2024-07-24T08:52:27.000Z</time>
</trkpt>
<trkpt lat="46.0365080" lon="10.3869350">
	<ele>1586.20</ele>
	<time>2024-07-24T08:52:28.000Z</time>
</trkpt>
<trkpt lat="46.0365040" lon="10.3869280">
	<ele>1586.20</ele>
	<time>2024-07-24T08:52:29.000Z</time>
</trkpt>
<trkpt lat="46.0365010" lon="10.3869250">
	<ele>1586.20</ele>
	<time>2024-07-24T08:52:30.000Z</time>
</trkpt>
<trkpt lat="46.0364960" lon="10.3869290">
	<ele>1586.40</ele>
	<time>2024-07-24T08:52:31.000Z</time>
</trkpt>
<trkpt lat="46.0364960" lon="10.3869290">
	<ele>1586.40</ele>
	<time>2024-07-24T08:52:32.000Z</time>
</trkpt>
<trkpt lat="46.0364920" lon="10.3869350">
	<ele>1586.60</ele>
	<time>2024-07-24T08:52:33.000Z</time>
</trkpt>
<trkpt lat="46.0364760" lon="10.3869390">
	<ele>1586.60</ele>
	<time>2024-07-24T08:52:34.000Z</time>
</trkpt>
<trkpt lat="46.0364560" lon="10.3869430">
	<ele>1586.60</ele>
	<time>2024-07-24T08:52:35.000Z</time>
</trkpt>
<trkpt lat="46.0364430" lon="10.3869390">
	<ele>1586.60</ele>
	<time>2024-07-24T08:52:36.000Z</time>
</trkpt>
<trkpt lat="46.0364310" lon="10.3869420">
	<ele>1586.60</ele>
	<time>2024-07-24T08:52:37.000Z</time>
</trkpt>
<trkpt lat="46.0364240" lon="10.3869400">
	<ele>1586.60</ele>
	<time>2024-07-24T08:52:38.000Z</time>
</trkpt>
<trkpt lat="46.0364190" lon="10.3869400">
	<ele>1586.80</ele>
	<time>2024-07-24T08:52:39.000Z</time>
</trkpt>
<trkpt lat="46.0364170" lon="10.3869370">
	<ele>1586.80</ele>
	<time>2024-07-24T08:52:40.000Z</time>
</trkpt>
<trkpt lat="46.0364160" lon="10.3869350">
	<ele>1586.80</ele>
	<time>2024-07-24T08:52:41.000Z</time>
</trkpt>
<trkpt lat="46.0364130" lon="10.3869340">
	<ele>1586.80</ele>
	<time>2024-07-24T08:52:42.000Z</time>
</trkpt>
<trkpt lat="46.0364150" lon="10.3869350">
	<ele>1586.60</ele>
	<time>2024-07-24T08:52:43.000Z</time>
</trkpt>
<trkpt lat="46.0364080" lon="10.3869400">
	<ele>1586.60</ele>
	<time>2024-07-24T08:52:44.000Z</time>
</trkpt>
<trkpt lat="46.0364080" lon="10.3869340">
	<ele>1586.40</ele>
	<time>2024-07-24T08:52:45.000Z</time>
</trkpt>
<trkpt lat="46.0364130" lon="10.3869240">
	<ele>1586.40</ele>
	<time>2024-07-24T08:52:46.000Z</time>
</trkpt>
<trkpt lat="46.0364230" lon="10.3869140">
	<ele>1586.40</ele>
	<time>2024-07-24T08:52:47.000Z</time>
</trkpt>
<trkpt lat="46.0364380" lon="10.3868980">
	<ele>1586.40</ele>
	<time>2024-07-24T08:52:48.000Z</time>
</trkpt>
<trkpt lat="46.0364500" lon="10.3868740">
	<ele>1586.60</ele>
	<time>2024-07-24T08:52:49.000Z</time>
</trkpt>
<trkpt lat="46.0364530" lon="10.3868600">
	<ele>1586.60</ele>
	<time>2024-07-24T08:52:50.000Z</time>
</trkpt>
<trkpt lat="46.0364640" lon="10.3868360">
	<ele>1586.80</ele>
	<time>2024-07-24T08:52:51.000Z</time>
</trkpt>
<trkpt lat="46.0364670" lon="10.3868150">
	<ele>1587.00</ele>
	<time>2024-07-24T08:52:52.000Z</time>
</trkpt>
<trkpt lat="46.0364680" lon="10.3868000">
	<ele>1587.00</ele>
	<time>2024-07-24T08:52:53.000Z</time>
</trkpt>
<trkpt lat="46.0364700" lon="10.3867860">
	<ele>1587.20</ele>
	<time>2024-07-24T08:52:54.000Z</time>
</trkpt>
<trkpt lat="46.0364730" lon="10.3867750">
	<ele>1587.20</ele>
	<time>2024-07-24T08:52:55.000Z</time>
</trkpt>
<trkpt lat="46.0364800" lon="10.3867620">
	<ele>1587.20</ele>
	<time>2024-07-24T08:52:56.000Z</time>
</trkpt>
<trkpt lat="46.0364810" lon="10.3867460">
	<ele>1587.40</ele>
	<time>2024-07-24T08:52:57.000Z</time>
</trkpt>
<trkpt lat="46.0364830" lon="10.3867330">
	<ele>1587.40</ele>
	<time>2024-07-24T08:52:58.000Z</time>
</trkpt>
<trkpt lat="46.0364880" lon="10.3867250">
	<ele>1587.60</ele>
	<time>2024-07-24T08:52:59.000Z</time>
</trkpt>
<trkpt lat="46.0364900" lon="10.3867190">
	<ele>1587.80</ele>
	<time>2024-07-24T08:53:00.000Z</time>
</trkpt>
<trkpt lat="46.0364910" lon="10.3867140">
	<ele>1588.00</ele>
	<time>2024-07-24T08:53:01.000Z</time>
</trkpt>
<trkpt lat="46.0364910" lon="10.3867120">
	<ele>1588.00</ele>
	<time>2024-07-24T08:53:02.000Z</time>
</trkpt>
<trkpt lat="46.0364910" lon="10.3867120">
	<ele>1588.20</ele>
	<time>2024-07-24T08:53:03.000Z</time>
</trkpt>
<trkpt lat="46.0364900" lon="10.3867120">
	<ele>1588.20</ele>
	<time>2024-07-24T08:53:04.000Z</time>
</trkpt>
<trkpt lat="46.0364900" lon="10.3867100">
	<ele>1588.20</ele>
	<time>2024-07-24T08:53:05.000Z</time>
</trkpt>
<trkpt lat="46.0364900" lon="10.3867100">
	<ele>1588.00</ele>
	<time>2024-07-24T08:53:06.000Z</time>
</trkpt>
<trkpt lat="46.0364960" lon="10.3867280">
	<ele>1587.80</ele>
	<time>2024-07-24T08:53:07.000Z</time>
</trkpt>
<trkpt lat="46.0364960" lon="10.3867280">
	<ele>1587.80</ele>
	<time>2024-07-24T08:53:08.000Z</time>
</trkpt>
<trkpt lat="46.0364950" lon="10.3867310">
	<ele>1587.60</ele>
	<time>2024-07-24T08:53:09.000Z</time>
</trkpt>
<trkpt lat="46.0364960" lon="10.3867320">
	<ele>1587.60</ele>
	<time>2024-07-24T08:53:10.000Z</time>
</trkpt>
<trkpt lat="46.0364980" lon="10.3867320">
	<ele>1587.60</ele>
	<time>2024-07-24T08:53:11.000Z</time>
</trkpt>
<trkpt lat="46.0365000" lon="10.3867300">
	<ele>1587.40</ele>
	<time>2024-07-24T08:53:12.000Z</time>
</trkpt>
<trkpt lat="46.0365000" lon="10.3867270">
	<ele>1587.40</ele>
	<time>2024-07-24T08:53:13.000Z</time>
</trkpt>
<trkpt lat="46.0365030" lon="10.3867190">
	<ele>1587.40</ele>
	<time>2024-07-24T08:53:14.000Z</time>
</trkpt>
<trkpt lat="46.0365060" lon="10.3867090">
	<ele>1587.60</ele>
	<time>2024-07-24T08:53:15.000Z</time>
</trkpt>
<trkpt lat="46.0365100" lon="10.3866980">
	<ele>1587.60</ele>
	<time>2024-07-24T08:53:16.000Z</time>
</trkpt>
<trkpt lat="46.0365120" lon="10.3866860">
	<ele>1587.80</ele>
	<time>2024-07-24T08:53:17.000Z</time>
</trkpt>
<trkpt lat="46.0365160" lon="10.3866750">
	<ele>1587.80</ele>
	<time>2024-07-24T08:53:18.000Z</time>
</trkpt>
<trkpt lat="46.0365190" lon="10.3866650">
	<ele>1587.80</ele>
	<time>2024-07-24T08:53:19.000Z</time>
</trkpt>
<trkpt lat="46.0365250" lon="10.3866550">
	<ele>1588.00</ele>
	<time>2024-07-24T08:53:20.000Z</time>
</trkpt>
<trkpt lat="46.0365270" lon="10.3866440">
	<ele>1588.20</ele>
	<time>2024-07-24T08:53:21.000Z</time>
</trkpt>
<trkpt lat="46.0365230" lon="10.3866330">
	<ele>1588.40</ele>
	<time>2024-07-24T08:53:22.000Z</time>
</trkpt>
<trkpt lat="46.0365260" lon="10.3866230">
	<ele>1588.60</ele>
	<time>2024-07-24T08:53:23.000Z</time>
</trkpt>
<trkpt lat="46.0365320" lon="10.3866150">
	<ele>1588.60</ele>
	<time>2024-07-24T08:53:24.000Z</time>
</trkpt>
<trkpt lat="46.0365410" lon="10.3866080">
	<ele>1588.80</ele>
	<time>2024-07-24T08:53:25.000Z</time>
</trkpt>
<trkpt lat="46.0365510" lon="10.3866010">
	<ele>1588.80</ele>
	<time>2024-07-24T08:53:26.000Z</time>
</trkpt>
<trkpt lat="46.0365540" lon="10.3865910">
	<ele>1589.00</ele>
	<time>2024-07-24T08:53:27.000Z</time>
</trkpt>
<trkpt lat="46.0365570" lon="10.3865800">
	<ele>1589.00</ele>
	<time>2024-07-24T08:53:28.000Z</time>
</trkpt>
<trkpt lat="46.0365580" lon="10.3865730">
	<ele>1589.20</ele>
	<time>2024-07-24T08:53:29.000Z</time>
</trkpt>
<trkpt lat="46.0365570" lon="10.3865660">
	<ele>1589.20</ele>
	<time>2024-07-24T08:53:30.000Z</time>
</trkpt>
<trkpt lat="46.0365570" lon="10.3865540">
	<ele>1589.20</ele>
	<time>2024-07-24T08:53:31.000Z</time>
</trkpt>
<trkpt lat="46.0365580" lon="10.3865430">
	<ele>1589.40</ele>
	<time>2024-07-24T08:53:32.000Z</time>
</trkpt>
<trkpt lat="46.0365620" lon="10.3865310">
	<ele>1589.40</ele>
	<time>2024-07-24T08:53:33.000Z</time>
</trkpt>
<trkpt lat="46.0365650" lon="10.3865210">
	<ele>1589.40</ele>
	<time>2024-07-24T08:53:34.000Z</time>
</trkpt>
<trkpt lat="46.0365660" lon="10.3865110">
	<ele>1589.40</ele>
	<time>2024-07-24T08:53:35.000Z</time>
</trkpt>
<trkpt lat="46.0365640" lon="10.3865000">
	<ele>1589.60</ele>
	<time>2024-07-24T08:53:36.000Z</time>
</trkpt>
<trkpt lat="46.0365590" lon="10.3864890">
	<ele>1589.60</ele>
	<time>2024-07-24T08:53:37.000Z</time>
</trkpt>
<trkpt lat="46.0365510" lon="10.3864840">
	<ele>1589.80</ele>
	<time>2024-07-24T08:53:38.000Z</time>
</trkpt>
<trkpt lat="46.0365500" lon="10.3864820">
	<ele>1589.80</ele>
	<time>2024-07-24T08:53:39.000Z</time>
</trkpt>
<trkpt lat="46.0365500" lon="10.3864820">
	<ele>1589.80</ele>
	<time>2024-07-24T08:53:40.000Z</time>
</trkpt>
<trkpt lat="46.0365480" lon="10.3864820">
	<ele>1590.00</ele>
	<time>2024-07-24T08:53:41.000Z</time>
</trkpt>
<trkpt lat="46.0365460" lon="10.3864820">
	<ele>1590.00</ele>
	<time>2024-07-24T08:53:42.000Z</time>
</trkpt>
<trkpt lat="46.0365460" lon="10.3864820">
	<ele>1590.00</ele>
	<time>2024-07-24T08:53:43.000Z</time>
</trkpt>
<trkpt lat="46.0365430" lon="10.3864770">
	<ele>1590.00</ele>
	<time>2024-07-24T08:53:44.000Z</time>
</trkpt>
<trkpt lat="46.0365440" lon="10.3864710">
	<ele>1590.00</ele>
	<time>2024-07-24T08:53:45.000Z</time>
</trkpt>
<trkpt lat="46.0365440" lon="10.3864590">
	<ele>1590.00</ele>
	<time>2024-07-24T08:53:46.000Z</time>
</trkpt>
<trkpt lat="46.0365440" lon="10.3864490">
	<ele>1590.20</ele>
	<time>2024-07-24T08:53:47.000Z</time>
</trkpt>
<trkpt lat="46.0365460" lon="10.3864350">
	<ele>1590.20</ele>
	<time>2024-07-24T08:53:48.000Z</time>
</trkpt>
<trkpt lat="46.0365450" lon="10.3864210">
	<ele>1590.40</ele>
	<time>2024-07-24T08:53:49.000Z</time>
</trkpt>
<trkpt lat="46.0365440" lon="10.3864040">
	<ele>1590.60</ele>
	<time>2024-07-24T08:53:50.000Z</time>
</trkpt>
<trkpt lat="46.0365460" lon="10.3863850">
	<ele>1590.60</ele>
	<time>2024-07-24T08:53:51.000Z</time>
</trkpt>
<trkpt lat="46.0365460" lon="10.3863630">
	<ele>1590.60</ele>
	<time>2024-07-24T08:53:52.000Z</time>
</trkpt>
<trkpt lat="46.0365480" lon="10.3863490">
	<ele>1590.60</ele>
	<time>2024-07-24T08:53:53.000Z</time>
</trkpt>
<trkpt lat="46.0365480" lon="10.3863350">
	<ele>1590.80</ele>
	<time>2024-07-24T08:53:54.000Z</time>
</trkpt>
<trkpt lat="46.0365410" lon="10.3863170">
	<ele>1590.80</ele>
	<time>2024-07-24T08:53:55.000Z</time>
</trkpt>
<trkpt lat="46.0365400" lon="10.3863020">
	<ele>1591.00</ele>
	<time>2024-07-24T08:53:56.000Z</time>
</trkpt>
<trkpt lat="46.0365410" lon="10.3862860">
	<ele>1591.00</ele>
	<time>2024-07-24T08:53:57.000Z</time>
</trkpt>
<trkpt lat="46.0365390" lon="10.3862710">
	<ele>1591.00</ele>
	<time>2024-07-24T08:53:58.000Z</time>
</trkpt>
<trkpt lat="46.0365380" lon="10.3862560">
	<ele>1591.00</ele>
	<time>2024-07-24T08:53:59.000Z</time>
</trkpt>
<trkpt lat="46.0365370" lon="10.3862420">
	<ele>1591.00</ele>
	<time>2024-07-24T08:54:00.000Z</time>
</trkpt>
<trkpt lat="46.0365360" lon="10.3862310">
	<ele>1591.20</ele>
	<time>2024-07-24T08:54:01.000Z</time>
</trkpt>
<trkpt lat="46.0365360" lon="10.3862170">
	<ele>1591.40</ele>
	<time>2024-07-24T08:54:02.000Z</time>
</trkpt>
<trkpt lat="46.0365310" lon="10.3862030">
	<ele>1591.60</ele>
	<time>2024-07-24T08:54:03.000Z</time>
</trkpt>
<trkpt lat="46.0365320" lon="10.3861930">
	<ele>1591.80</ele>
	<time>2024-07-24T08:54:04.000Z</time>
</trkpt>
<trkpt lat="46.0365340" lon="10.3861780">
	<ele>1592.00</ele>
	<time>2024-07-24T08:54:05.000Z</time>
</trkpt>
<trkpt lat="46.0365350" lon="10.3861650">
	<ele>1592.20</ele>
	<time>2024-07-24T08:54:06.000Z</time>
</trkpt>
<trkpt lat="46.0365380" lon="10.3861520">
	<ele>1592.20</ele>
	<time>2024-07-24T08:54:07.000Z</time>
</trkpt>
<trkpt lat="46.0365400" lon="10.3861380">
	<ele>1592.20</ele>
	<time>2024-07-24T08:54:08.000Z</time>
</trkpt>
<trkpt lat="46.0365410" lon="10.3861250">
	<ele>1592.20</ele>
	<time>2024-07-24T08:54:09.000Z</time>
</trkpt>
<trkpt lat="46.0365400" lon="10.3861110">
	<ele>1592.20</ele>
	<time>2024-07-24T08:54:10.000Z</time>
</trkpt>
<trkpt lat="46.0365370" lon="10.3860970">
	<ele>1592.40</ele>
	<time>2024-07-24T08:54:11.000Z</time>
</trkpt>
<trkpt lat="46.0365360" lon="10.3860830">
	<ele>1592.60</ele>
	<time>2024-07-24T08:54:12.000Z</time>
</trkpt>
<trkpt lat="46.0365390" lon="10.3860680">
	<ele>1592.80</ele>
	<time>2024-07-24T08:54:13.000Z</time>
</trkpt>
<trkpt lat="46.0365360" lon="10.3860520">
	<ele>1592.80</ele>
	<time>2024-07-24T08:54:14.000Z</time>
</trkpt>
<trkpt lat="46.0365400" lon="10.3860360">
	<ele>1593.00</ele>
	<time>2024-07-24T08:54:15.000Z</time>
</trkpt>
<trkpt lat="46.0365410" lon="10.3860130">
	<ele>1593.00</ele>
	<time>2024-07-24T08:54:16.000Z</time>
</trkpt>
<trkpt lat="46.0365380" lon="10.3859980">
	<ele>1593.20</ele>
	<time>2024-07-24T08:54:17.000Z</time>
</trkpt>
<trkpt lat="46.0365420" lon="10.3859830">
	<ele>1593.20</ele>
	<time>2024-07-24T08:54:18.000Z</time>
</trkpt>
<trkpt lat="46.0365470" lon="10.3859680">
	<ele>1593.20</ele>
	<time>2024-07-24T08:54:19.000Z</time>
</trkpt>
<trkpt lat="46.0365510" lon="10.3859540">
	<ele>1593.40</ele>
	<time>2024-07-24T08:54:20.000Z</time>
</trkpt>
<trkpt lat="46.0365560" lon="10.3859400">
	<ele>1593.60</ele>
	<time>2024-07-24T08:54:21.000Z</time>
</trkpt>
<trkpt lat="46.0365590" lon="10.3859260">
	<ele>1593.80</ele>
	<time>2024-07-24T08:54:22.000Z</time>
</trkpt>
<trkpt lat="46.0365590" lon="10.3859110">
	<ele>1594.00</ele>
	<time>2024-07-24T08:54:23.000Z</time>
</trkpt>
<trkpt lat="46.0365580" lon="10.3858960">
	<ele>1594.20</ele>
	<time>2024-07-24T08:54:24.000Z</time>
</trkpt>
<trkpt lat="46.0365560" lon="10.3858810">
	<ele>1594.20</ele>
	<time>2024-07-24T08:54:25.000Z</time>
</trkpt>
<trkpt lat="46.0365510" lon="10.3858670">
	<ele>1594.40</ele>
	<time>2024-07-24T08:54:26.000Z</time>
</trkpt>
<trkpt lat="46.0365490" lon="10.3858560">
	<ele>1594.40</ele>
	<time>2024-07-24T08:54:27.000Z</time>
</trkpt>
<trkpt lat="46.0365500" lon="10.3858420">
	<ele>1594.60</ele>
	<time>2024-07-24T08:54:28.000Z</time>
</trkpt>
<trkpt lat="46.0365500" lon="10.3858270">
	<ele>1594.80</ele>
	<time>2024-07-24T08:54:29.000Z</time>
</trkpt>
<trkpt lat="46.0365500" lon="10.3858130">
	<ele>1594.80</ele>
	<time>2024-07-24T08:54:30.000Z</time>
</trkpt>
<trkpt lat="46.0365490" lon="10.3857990">
	<ele>1595.00</ele>
	<time>2024-07-24T08:54:31.000Z</time>
</trkpt>
<trkpt lat="46.0365480" lon="10.3857850">
	<ele>1595.20</ele>
	<time>2024-07-24T08:54:32.000Z</time>
</trkpt>
<trkpt lat="46.0365460" lon="10.3857730">
	<ele>1595.40</ele>
	<time>2024-07-24T08:54:33.000Z</time>
</trkpt>
<trkpt lat="46.0365430" lon="10.3857590">
	<ele>1595.60</ele>
	<time>2024-07-24T08:54:34.000Z</time>
</trkpt>
<trkpt lat="46.0365400" lon="10.3857460">
	<ele>1595.80</ele>
	<time>2024-07-24T08:54:35.000Z</time>
</trkpt>
<trkpt lat="46.0365390" lon="10.3857320">
	<ele>1596.00</ele>
	<time>2024-07-24T08:54:36.000Z</time>
</trkpt>
<trkpt lat="46.0365400" lon="10.3857200">
	<ele>1596.00</ele>
	<time>2024-07-24T08:54:37.000Z</time>
</trkpt>
<trkpt lat="46.0365410" lon="10.3857100">
	<ele>1596.20</ele>
	<time>2024-07-24T08:54:38.000Z</time>
</trkpt>
<trkpt lat="46.0365400" lon="10.3856990">
	<ele>1596.20</ele>
	<time>2024-07-24T08:54:39.000Z</time>
</trkpt>
<trkpt lat="46.0365410" lon="10.3856850">
	<ele>1596.20</ele>
	<time>2024-07-24T08:54:40.000Z</time>
</trkpt>
<trkpt lat="46.0365410" lon="10.3856700">
	<ele>1596.40</ele>
	<time>2024-07-24T08:54:41.000Z</time>
</trkpt>
<trkpt lat="46.0365400" lon="10.3856560">
	<ele>1596.60</ele>
	<time>2024-07-24T08:54:42.000Z</time>
</trkpt>
<trkpt lat="46.0365370" lon="10.3856420">
	<ele>1596.60</ele>
	<time>2024-07-24T08:54:43.000Z</time>
</trkpt>
<trkpt lat="46.0365360" lon="10.3856300">
	<ele>1596.80</ele>
	<time>2024-07-24T08:54:44.000Z</time>
</trkpt>
<trkpt lat="46.0365350" lon="10.3856160">
	<ele>1597.00</ele>
	<time>2024-07-24T08:54:45.000Z</time>
</trkpt>
<trkpt lat="46.0365290" lon="10.3856010">
	<ele>1597.20</ele>
	<time>2024-07-24T08:54:46.000Z</time>
</trkpt>
<trkpt lat="46.0365240" lon="10.3855860">
	<ele>1597.20</ele>
	<time>2024-07-24T08:54:47.000Z</time>
</trkpt>
<trkpt lat="46.0365220" lon="10.3855710">
	<ele>1597.40</ele>
	<time>2024-07-24T08:54:48.000Z</time>
</trkpt>
<trkpt lat="46.0365180" lon="10.3855580">
	<ele>1597.60</ele>
	<time>2024-07-24T08:54:49.000Z</time>
</trkpt>
<trkpt lat="46.0365170" lon="10.3855460">
	<ele>1597.80</ele>
	<time>2024-07-24T08:54:50.000Z</time>
</trkpt>
<trkpt lat="46.0365130" lon="10.3855330">
	<ele>1597.80</ele>
	<time>2024-07-24T08:54:51.000Z</time>
</trkpt>
<trkpt lat="46.0365110" lon="10.3855180">
	<ele>1598.20</ele>
	<time>2024-07-24T08:54:52.000Z</time>
</trkpt>
<trkpt lat="46.0365090" lon="10.3855030">
	<ele>1598.40</ele>
	<time>2024-07-24T08:54:53.000Z</time>
</trkpt>
<trkpt lat="46.0365130" lon="10.3854930">
	<ele>1598.60</ele>
	<time>2024-07-24T08:54:54.000Z</time>
</trkpt>
<trkpt lat="46.0365130" lon="10.3854830">
	<ele>1598.80</ele>
	<time>2024-07-24T08:54:55.000Z</time>
</trkpt>
<trkpt lat="46.0365110" lon="10.3854690">
	<ele>1599.00</ele>
	<time>2024-07-24T08:54:56.000Z</time>
</trkpt>
<trkpt lat="46.0365080" lon="10.3854580">
	<ele>1599.20</ele>
	<time>2024-07-24T08:54:57.000Z</time>
</trkpt>
<trkpt lat="46.0365100" lon="10.3854450">
	<ele>1599.40</ele>
	<time>2024-07-24T08:54:58.000Z</time>
</trkpt>
<trkpt lat="46.0365080" lon="10.3854350">
	<ele>1599.60</ele>
	<time>2024-07-24T08:54:59.000Z</time>
</trkpt>
<trkpt lat="46.0365070" lon="10.3854260">
	<ele>1599.60</ele>
	<time>2024-07-24T08:55:00.000Z</time>
</trkpt>
<trkpt lat="46.0365030" lon="10.3854180">
	<ele>1599.80</ele>
	<time>2024-07-24T08:55:01.000Z</time>
</trkpt>
<trkpt lat="46.0365050" lon="10.3854090">
	<ele>1600.20</ele>
	<time>2024-07-24T08:55:02.000Z</time>
</trkpt>
<trkpt lat="46.0365030" lon="10.3853970">
	<ele>1600.20</ele>
	<time>2024-07-24T08:55:03.000Z</time>
</trkpt>
<trkpt lat="46.0365040" lon="10.3853850">
	<ele>1600.40</ele>
	<time>2024-07-24T08:55:04.000Z</time>
</trkpt>
<trkpt lat="46.0365030" lon="10.3853780">
	<ele>1600.60</ele>
	<time>2024-07-24T08:55:05.000Z</time>
</trkpt>
<trkpt lat="46.0365020" lon="10.3853670">
	<ele>1600.60</ele>
	<time>2024-07-24T08:55:06.000Z</time>
</trkpt>
<trkpt lat="46.0364980" lon="10.3853580">
	<ele>1601.00</ele>
	<time>2024-07-24T08:55:07.000Z</time>
</trkpt>
<trkpt lat="46.0364970" lon="10.3853500">
	<ele>1601.00</ele>
	<time>2024-07-24T08:55:08.000Z</time>
</trkpt>
<trkpt lat="46.0364970" lon="10.3853420">
	<ele>1601.20</ele>
	<time>2024-07-24T08:55:09.000Z</time>
</trkpt>
<trkpt lat="46.0364980" lon="10.3853340">
	<ele>1601.40</ele>
	<time>2024-07-24T08:55:10.000Z</time>
</trkpt>
<trkpt lat="46.0364920" lon="10.3853270">
	<ele>1601.60</ele>
	<time>2024-07-24T08:55:11.000Z</time>
</trkpt>
<trkpt lat="46.0364880" lon="10.3853230">
	<ele>1601.60</ele>
	<time>2024-07-24T08:55:12.000Z</time>
</trkpt>
<trkpt lat="46.0364880" lon="10.3853230">
	<ele>1601.60</ele>
	<time>2024-07-24T08:55:13.000Z</time>
</trkpt>
<trkpt lat="46.0364890" lon="10.3853250">
	<ele>1601.80</ele>
	<time>2024-07-24T08:55:14.000Z</time>
</trkpt>
<trkpt lat="46.0364910" lon="10.3853270">
	<ele>1601.80</ele>
	<time>2024-07-24T08:55:15.000Z</time>
</trkpt>
<trkpt lat="46.0364930" lon="10.3853300">
	<ele>1601.80</ele>
	<time>2024-07-24T08:55:16.000Z</time>
</trkpt>
<trkpt lat="46.0364920" lon="10.3853260">
	<ele>1601.80</ele>
	<time>2024-07-24T08:55:17.000Z</time>
</trkpt>
<trkpt lat="46.0364890" lon="10.3853280">
	<ele>1601.80</ele>
	<time>2024-07-24T08:55:18.000Z</time>
</trkpt>
<trkpt lat="46.0364800" lon="10.3853210">
	<ele>1602.00</ele>
	<time>2024-07-24T08:55:19.000Z</time>
</trkpt>
<trkpt lat="46.0364830" lon="10.3853220">
	<ele>1602.00</ele>
	<time>2024-07-24T08:55:20.000Z</time>
</trkpt>
<trkpt lat="46.0364830" lon="10.3853200">
	<ele>1602.00</ele>
	<time>2024-07-24T08:55:21.000Z</time>
</trkpt>
<trkpt lat="46.0364810" lon="10.3853150">
	<ele>1602.00</ele>
	<time>2024-07-24T08:55:22.000Z</time>
</trkpt>
<trkpt lat="46.0364810" lon="10.3853100">
	<ele>1602.00</ele>
	<time>2024-07-24T08:55:23.000Z</time>
</trkpt>
<trkpt lat="46.0364810" lon="10.3853060">
	<ele>1602.00</ele>
	<time>2024-07-24T08:55:24.000Z</time>
</trkpt>
<trkpt lat="46.0364830" lon="10.3852970">
	<ele>1602.00</ele>
	<time>2024-07-24T08:55:25.000Z</time>
</trkpt>
<trkpt lat="46.0364820" lon="10.3852910">
	<ele>1602.20</ele>
	<time>2024-07-24T08:55:26.000Z</time>
</trkpt>
<trkpt lat="46.0364790" lon="10.3852810">
	<ele>1602.40</ele>
	<time>2024-07-24T08:55:27.000Z</time>
</trkpt>
<trkpt lat="46.0364790" lon="10.3852700">
	<ele>1602.60</ele>
	<time>2024-07-24T08:55:28.000Z</time>
</trkpt>
<trkpt lat="46.0364830" lon="10.3852630">
	<ele>1602.80</ele>
	<time>2024-07-24T08:55:29.000Z</time>
</trkpt>
<trkpt lat="46.0364830" lon="10.3852560">
	<ele>1602.80</ele>
	<time>2024-07-24T08:55:30.000Z</time>
</trkpt>
<trkpt lat="46.0364820" lon="10.3852500">
	<ele>1603.00</ele>
	<time>2024-07-24T08:55:31.000Z</time>
</trkpt>
<trkpt lat="46.0364800" lon="10.3852410">
	<ele>1603.20</ele>
	<time>2024-07-24T08:55:32.000Z</time>
</trkpt>
<trkpt lat="46.0364820" lon="10.3852320">
	<ele>1603.40</ele>
	<time>2024-07-24T08:55:33.000Z</time>
</trkpt>
<trkpt lat="46.0364920" lon="10.3852220">
	<ele>1603.60</ele>
	<time>2024-07-24T08:55:34.000Z</time>
</trkpt>
<trkpt lat="46.0364940" lon="10.3852110">
	<ele>1603.80</ele>
	<time>2024-07-24T08:55:35.000Z</time>
</trkpt>
<trkpt lat="46.0364930" lon="10.3851970">
	<ele>1604.00</ele>
	<time>2024-07-24T08:55:36.000Z</time>
</trkpt>
<trkpt lat="46.0364950" lon="10.3851860">
	<ele>1604.00</ele>
	<time>2024-07-24T08:55:37.000Z</time>
</trkpt>
<trkpt lat="46.0364980" lon="10.3851730">
	<ele>1604.00</ele>
	<time>2024-07-24T08:55:38.000Z</time>
</trkpt>
<trkpt lat="46.0364980" lon="10.3851650">
	<ele>1604.20</ele>
	<time>2024-07-24T08:55:39.000Z</time>
</trkpt>
<trkpt lat="46.0365050" lon="10.3851620">
	<ele>1604.40</ele>
	<time>2024-07-24T08:55:40.000Z</time>
</trkpt>
<trkpt lat="46.0365100" lon="10.3851610">
	<ele>1604.80</ele>
	<time>2024-07-24T08:55:41.000Z</time>
</trkpt>
<trkpt lat="46.0365170" lon="10.3851580">
	<ele>1605.00</ele>
	<time>2024-07-24T08:55:42.000Z</time>
</trkpt>
<trkpt lat="46.0365220" lon="10.3851550">
	<ele>1605.00</ele>
	<time>2024-07-24T08:55:43.000Z</time>
</trkpt>
<trkpt lat="46.0365290" lon="10.3851520">
	<ele>1605.20</ele>
	<time>2024-07-24T08:55:44.000Z</time>
</trkpt>
<trkpt lat="46.0365350" lon="10.3851530">
	<ele>1605.40</ele>
	<time>2024-07-24T08:55:45.000Z</time>
</trkpt>
<trkpt lat="46.0365400" lon="10.3851520">
	<ele>1605.40</ele>
	<time>2024-07-24T08:55:46.000Z</time>
</trkpt>
<trkpt lat="46.0365440" lon="10.3851510">
	<ele>1605.80</ele>
	<time>2024-07-24T08:55:47.000Z</time>
</trkpt>
<trkpt lat="46.0365500" lon="10.3851490">
	<ele>1606.00</ele>
	<time>2024-07-24T08:55:48.000Z</time>
</trkpt>
<trkpt lat="46.0365570" lon="10.3851500">
	<ele>1606.00</ele>
	<time>2024-07-24T08:55:49.000Z</time>
</trkpt>
<trkpt lat="46.0365650" lon="10.3851520">
	<ele>1606.20</ele>
	<time>2024-07-24T08:55:50.000Z</time>
</trkpt>
<trkpt lat="46.0365720" lon="10.3851510">
	<ele>1606.40</ele>
	<time>2024-07-24T08:55:51.000Z</time>
</trkpt>
<trkpt lat="46.0365800" lon="10.3851510">
	<ele>1606.40</ele>
	<time>2024-07-24T08:55:52.000Z</time>
</trkpt>
<trkpt lat="46.0365910" lon="10.3851470">
	<ele>1606.60</ele>
	<time>2024-07-24T08:55:53.000Z</time>
</trkpt>
<trkpt lat="46.0366010" lon="10.3851490">
	<ele>1606.60</ele>
	<time>2024-07-24T08:55:54.000Z</time>
</trkpt>
<trkpt lat="46.0366100" lon="10.3851440">
	<ele>1606.60</ele>
	<time>2024-07-24T08:55:55.000Z</time>
</trkpt>
<trkpt lat="46.0366200" lon="10.3851370">
	<ele>1606.80</ele>
	<time>2024-07-24T08:55:56.000Z</time>
</trkpt>
<trkpt lat="46.0366310" lon="10.3851320">
	<ele>1606.80</ele>
	<time>2024-07-24T08:55:57.000Z</time>
</trkpt>
<trkpt lat="46.0366400" lon="10.3851280">
	<ele>1607.00</ele>
	<time>2024-07-24T08:55:58.000Z</time>
</trkpt>
<trkpt lat="46.0366500" lon="10.3851270">
	<ele>1607.20</ele>
	<time>2024-07-24T08:55:59.000Z</time>
</trkpt>
<trkpt lat="46.0366620" lon="10.3851260">
	<ele>1607.20</ele>
	<time>2024-07-24T08:56:00.000Z</time>
</trkpt>
<trkpt lat="46.0366760" lon="10.3851250">
	<ele>1607.40</ele>
	<time>2024-07-24T08:56:01.000Z</time>
</trkpt>
<trkpt lat="46.0366880" lon="10.3851270">
	<ele>1607.40</ele>
	<time>2024-07-24T08:56:02.000Z</time>
</trkpt>
<trkpt lat="46.0366980" lon="10.3851290">
	<ele>1607.40</ele>
	<time>2024-07-24T08:56:03.000Z</time>
</trkpt>
<trkpt lat="46.0367090" lon="10.3851270">
	<ele>1607.60</ele>
	<time>2024-07-24T08:56:04.000Z</time>
</trkpt>
<trkpt lat="46.0367240" lon="10.3851230">
	<ele>1607.60</ele>
	<time>2024-07-24T08:56:05.000Z</time>
</trkpt>
<trkpt lat="46.0367350" lon="10.3851200">
	<ele>1607.60</ele>
	<time>2024-07-24T08:56:06.000Z</time>
</trkpt>
<trkpt lat="46.0367440" lon="10.3851170">
	<ele>1607.60</ele>
	<time>2024-07-24T08:56:07.000Z</time>
</trkpt>
<trkpt lat="46.0367560" lon="10.3851140">
	<ele>1607.80</ele>
	<time>2024-07-24T08:56:08.000Z</time>
</trkpt>
<trkpt lat="46.0367630" lon="10.3851090">
	<ele>1607.80</ele>
	<time>2024-07-24T08:56:09.000Z</time>
</trkpt>
<trkpt lat="46.0367690" lon="10.3851040">
	<ele>1607.80</ele>
	<time>2024-07-24T08:56:10.000Z</time>
</trkpt>
<trkpt lat="46.0367790" lon="10.3850990">
	<ele>1608.00</ele>
	<time>2024-07-24T08:56:11.000Z</time>
</trkpt>
<trkpt lat="46.0367900" lon="10.3850950">
	<ele>1608.00</ele>
	<time>2024-07-24T08:56:12.000Z</time>
</trkpt>
<trkpt lat="46.0368030" lon="10.3850920">
	<ele>1608.00</ele>
	<time>2024-07-24T08:56:13.000Z</time>
</trkpt>
<trkpt lat="46.0368090" lon="10.3850870">
	<ele>1608.20</ele>
	<time>2024-07-24T08:56:14.000Z</time>
</trkpt>
<trkpt lat="46.0368130" lon="10.3850790">
	<ele>1608.40</ele>
	<time>2024-07-24T08:56:15.000Z</time>
</trkpt>
<trkpt lat="46.0368150" lon="10.3850750">
	<ele>1608.40</ele>
	<time>2024-07-24T08:56:16.000Z</time>
</trkpt>
<trkpt lat="46.0368240" lon="10.3850710">
	<ele>1608.60</ele>
	<time>2024-07-24T08:56:17.000Z</time>
</trkpt>
<trkpt lat="46.0368360" lon="10.3850670">
	<ele>1608.60</ele>
	<time>2024-07-24T08:56:18.000Z</time>
</trkpt>
<trkpt lat="46.0368490" lon="10.3850650">
	<ele>1608.80</ele>
	<time>2024-07-24T08:56:19.000Z</time>
</trkpt>
<trkpt lat="46.0368600" lon="10.3850600">
	<ele>1608.80</ele>
	<time>2024-07-24T08:56:20.000Z</time>
</trkpt>
<trkpt lat="46.0368710" lon="10.3850540">
	<ele>1608.80</ele>
	<time>2024-07-24T08:56:21.000Z</time>
</trkpt>
<trkpt lat="46.0368830" lon="10.3850480">
	<ele>1608.80</ele>
	<time>2024-07-24T08:56:22.000Z</time>
</trkpt>
<trkpt lat="46.0368960" lon="10.3850420">
	<ele>1608.80</ele>
	<time>2024-07-24T08:56:23.000Z</time>
</trkpt>
<trkpt lat="46.0369070" lon="10.3850350">
	<ele>1608.80</ele>
	<time>2024-07-24T08:56:24.000Z</time>
</trkpt>
<trkpt lat="46.0369170" lon="10.3850260">
	<ele>1608.80</ele>
	<time>2024-07-24T08:56:25.000Z</time>
</trkpt>
<trkpt lat="46.0369250" lon="10.3850160">
	<ele>1608.80</ele>
	<time>2024-07-24T08:56:26.000Z</time>
</trkpt>
<trkpt lat="46.0369360" lon="10.3850080">
	<ele>1608.80</ele>
	<time>2024-07-24T08:56:27.000Z</time>
</trkpt>
<trkpt lat="46.0369470" lon="10.3849990">
	<ele>1608.80</ele>
	<time>2024-07-24T08:56:28.000Z</time>
</trkpt>
<trkpt lat="46.0369600" lon="10.3849920">
	<ele>1608.60</ele>
	<time>2024-07-24T08:56:29.000Z</time>
</trkpt>
<trkpt lat="46.0369740" lon="10.3849860">
	<ele>1608.60</ele>
	<time>2024-07-24T08:56:30.000Z</time>
</trkpt>
<trkpt lat="46.0369910" lon="10.3849810">
	<ele>1608.60</ele>
	<time>2024-07-24T08:56:31.000Z</time>
</trkpt>
<trkpt lat="46.0370070" lon="10.3849720">
	<ele>1608.40</ele>
	<time>2024-07-24T08:56:32.000Z</time>
</trkpt>
<trkpt lat="46.0370210" lon="10.3849630">
	<ele>1608.40</ele>
	<time>2024-07-24T08:56:33.000Z</time>
</trkpt>
<trkpt lat="46.0370350" lon="10.3849590">
	<ele>1608.40</ele>
	<time>2024-07-24T08:56:34.000Z</time>
</trkpt>
<trkpt lat="46.0370470" lon="10.3849550">
	<ele>1608.20</ele>
	<time>2024-07-24T08:56:35.000Z</time>
</trkpt>
<trkpt lat="46.0370600" lon="10.3849510">
	<ele>1608.20</ele>
	<time>2024-07-24T08:56:36.000Z</time>
</trkpt>
<trkpt lat="46.0370720" lon="10.3849470">
	<ele>1608.20</ele>
	<time>2024-07-24T08:56:37.000Z</time>
</trkpt>
<trkpt lat="46.0370840" lon="10.3849440">
	<ele>1608.20</ele>
	<time>2024-07-24T08:56:38.000Z</time>
</trkpt>
<trkpt lat="46.0370950" lon="10.3849410">
	<ele>1608.20</ele>
	<time>2024-07-24T08:56:39.000Z</time>
</trkpt>
<trkpt lat="46.0371060" lon="10.3849370">
	<ele>1608.20</ele>
	<time>2024-07-24T08:56:40.000Z</time>
</trkpt>
<trkpt lat="46.0371170" lon="10.3849330">
	<ele>1608.20</ele>
	<time>2024-07-24T08:56:41.000Z</time>
</trkpt>
<trkpt lat="46.0371280" lon="10.3849320">
	<ele>1608.20</ele>
	<time>2024-07-24T08:56:42.000Z</time>
</trkpt>
<trkpt lat="46.0371420" lon="10.3849330">
	<ele>1608.20</ele>
	<time>2024-07-24T08:56:43.000Z</time>
</trkpt>
<trkpt lat="46.0371550" lon="10.3849360">
	<ele>1608.00</ele>
	<time>2024-07-24T08:56:44.000Z</time>
</trkpt>
<trkpt lat="46.0371720" lon="10.3849420">
	<ele>1608.00</ele>
	<time>2024-07-24T08:56:45.000Z</time>
</trkpt>
<trkpt lat="46.0371880" lon="10.3849450">
	<ele>1608.00</ele>
	<time>2024-07-24T08:56:46.000Z</time>
</trkpt>
<trkpt lat="46.0372020" lon="10.3849460">
	<ele>1608.00</ele>
	<time>2024-07-24T08:56:47.000Z</time>
</trkpt>
<trkpt lat="46.0372160" lon="10.3849460">
	<ele>1607.80</ele>
	<time>2024-07-24T08:56:48.000Z</time>
</trkpt>
<trkpt lat="46.0372310" lon="10.3849430">
	<ele>1607.80</ele>
	<time>2024-07-24T08:56:49.000Z</time>
</trkpt>
<trkpt lat="46.0372440" lon="10.3849360">
	<ele>1607.80</ele>
	<time>2024-07-24T08:56:50.000Z</time>
</trkpt>
<trkpt lat="46.0372570" lon="10.3849330">
	<ele>1608.00</ele>
	<time>2024-07-24T08:56:51.000Z</time>
</trkpt>
<trkpt lat="46.0372710" lon="10.3849340">
	<ele>1608.00</ele>
	<time>2024-07-24T08:56:52.000Z</time>
</trkpt>
<trkpt lat="46.0372840" lon="10.3849350">
	<ele>1608.00</ele>
	<time>2024-07-24T08:56:53.000Z</time>
</trkpt>
<trkpt lat="46.0372970" lon="10.3849380">
	<ele>1608.00</ele>
	<time>2024-07-24T08:56:54.000Z</time>
</trkpt>
<trkpt lat="46.0373110" lon="10.3849430">
	<ele>1608.00</ele>
	<time>2024-07-24T08:56:55.000Z</time>
</trkpt>
<trkpt lat="46.0373260" lon="10.3849450">
	<ele>1608.00</ele>
	<time>2024-07-24T08:56:56.000Z</time>
</trkpt>
<trkpt lat="46.0373410" lon="10.3849470">
	<ele>1608.00</ele>
	<time>2024-07-24T08:56:57.000Z</time>
</trkpt>
<trkpt lat="46.0373560" lon="10.3849470">
	<ele>1607.80</ele>
	<time>2024-07-24T08:56:58.000Z</time>
</trkpt>
<trkpt lat="46.0373690" lon="10.3849450">
	<ele>1607.80</ele>
	<time>2024-07-24T08:56:59.000Z</time>
</trkpt>
<trkpt lat="46.0373800" lon="10.3849440">
	<ele>1607.80</ele>
	<time>2024-07-24T08:57:00.000Z</time>
</trkpt>
<trkpt lat="46.0373920" lon="10.3849440">
	<ele>1607.80</ele>
	<time>2024-07-24T08:57:01.000Z</time>
</trkpt>
<trkpt lat="46.0374040" lon="10.3849420">
	<ele>1607.80</ele>
	<time>2024-07-24T08:57:02.000Z</time>
</trkpt>
<trkpt lat="46.0374160" lon="10.3849410">
	<ele>1607.80</ele>
	<time>2024-07-24T08:57:03.000Z</time>
</trkpt>
<trkpt lat="46.0374290" lon="10.3849390">
	<ele>1607.80</ele>
	<time>2024-07-24T08:57:04.000Z</time>
</trkpt>
<trkpt lat="46.0374430" lon="10.3849370">
	<ele>1607.80</ele>
	<time>2024-07-24T08:57:05.000Z</time>
</trkpt>
<trkpt lat="46.0374560" lon="10.3849350">
	<ele>1607.80</ele>
	<time>2024-07-24T08:57:06.000Z</time>
</trkpt>
<trkpt lat="46.0374690" lon="10.3849340">
	<ele>1607.80</ele>
	<time>2024-07-24T08:57:07.000Z</time>
</trkpt>
<trkpt lat="46.0374800" lon="10.3849310">
	<ele>1607.80</ele>
	<time>2024-07-24T08:57:08.000Z</time>
</trkpt>
<trkpt lat="46.0374900" lon="10.3849260">
	<ele>1607.80</ele>
	<time>2024-07-24T08:57:09.000Z</time>
</trkpt>
<trkpt lat="46.0375010" lon="10.3849200">
	<ele>1607.80</ele>
	<time>2024-07-24T08:57:10.000Z</time>
</trkpt>
<trkpt lat="46.0375110" lon="10.3849130">
	<ele>1607.80</ele>
	<time>2024-07-24T08:57:11.000Z</time>
</trkpt>
<trkpt lat="46.0375230" lon="10.3849090">
	<ele>1607.80</ele>
	<time>2024-07-24T08:57:12.000Z</time>
</trkpt>
<trkpt lat="46.0375360" lon="10.3849060">
	<ele>1607.80</ele>
	<time>2024-07-24T08:57:13.000Z</time>
</trkpt>
<trkpt lat="46.0375510" lon="10.3849040">
	<ele>1607.80</ele>
	<time>2024-07-24T08:57:14.000Z</time>
</trkpt>
<trkpt lat="46.0375650" lon="10.3849010">
	<ele>1607.80</ele>
	<time>2024-07-24T08:57:15.000Z</time>
</trkpt>
<trkpt lat="46.0375790" lon="10.3848980">
	<ele>1607.80</ele>
	<time>2024-07-24T08:57:16.000Z</time>
</trkpt>
<trkpt lat="46.0375890" lon="10.3848900">
	<ele>1607.80</ele>
	<time>2024-07-24T08:57:17.000Z</time>
</trkpt>
<trkpt lat="46.0375990" lon="10.3848830">
	<ele>1607.80</ele>
	<time>2024-07-24T08:57:18.000Z</time>
</trkpt>
<trkpt lat="46.0376090" lon="10.3848760">
	<ele>1607.80</ele>
	<time>2024-07-24T08:57:19.000Z</time>
</trkpt>
<trkpt lat="46.0376170" lon="10.3848670">
	<ele>1607.80</ele>
	<time>2024-07-24T08:57:20.000Z</time>
</trkpt>
<trkpt lat="46.0376280" lon="10.3848580">
	<ele>1607.80</ele>
	<time>2024-07-24T08:57:21.000Z</time>
</trkpt>
<trkpt lat="46.0376350" lon="10.3848490">
	<ele>1607.80</ele>
	<time>2024-07-24T08:57:22.000Z</time>
</trkpt>
<trkpt lat="46.0376370" lon="10.3848460">
	<ele>1607.80</ele>
	<time>2024-07-24T08:57:23.000Z</time>
</trkpt>
<trkpt lat="46.0376380" lon="10.3848460">
	<ele>1608.00</ele>
	<time>2024-07-24T08:57:24.000Z</time>
</trkpt>
<trkpt lat="46.0376380" lon="10.3848470">
	<ele>1608.20</ele>
	<time>2024-07-24T08:57:25.000Z</time>
</trkpt>
<trkpt lat="46.0376370" lon="10.3848470">
	<ele>1608.20</ele>
	<time>2024-07-24T08:57:26.000Z</time>
</trkpt>
<trkpt lat="46.0376360" lon="10.3848470">
	<ele>1608.20</ele>
	<time>2024-07-24T08:57:27.000Z</time>
</trkpt>
<trkpt lat="46.0376400" lon="10.3848470">
	<ele>1608.20</ele>
	<time>2024-07-24T08:57:28.000Z</time>
</trkpt>
<trkpt lat="46.0376490" lon="10.3848450">
	<ele>1608.20</ele>
	<time>2024-07-24T08:57:29.000Z</time>
</trkpt>
<trkpt lat="46.0376590" lon="10.3848390">
	<ele>1608.20</ele>
	<time>2024-07-24T08:57:30.000Z</time>
</trkpt>
<trkpt lat="46.0376700" lon="10.3848330">
	<ele>1608.00</ele>
	<time>2024-07-24T08:57:31.000Z</time>
</trkpt>
<trkpt lat="46.0376840" lon="10.3848270">
	<ele>1608.00</ele>
	<time>2024-07-24T08:57:32.000Z</time>
</trkpt>
<trkpt lat="46.0376980" lon="10.3848190">
	<ele>1607.80</ele>
	<time>2024-07-24T08:57:33.000Z</time>
</trkpt>
<trkpt lat="46.0377080" lon="10.3848100">
	<ele>1608.00</ele>
	<time>2024-07-24T08:57:34.000Z</time>
</trkpt>
<trkpt lat="46.0377170" lon="10.3848000">
	<ele>1608.00</ele>
	<time>2024-07-24T08:57:35.000Z</time>
</trkpt>
<trkpt lat="46.0377260" lon="10.3847900">
	<ele>1608.20</ele>
	<time>2024-07-24T08:57:36.000Z</time>
</trkpt>
<trkpt lat="46.0377380" lon="10.3847800">
	<ele>1608.20</ele>
	<time>2024-07-24T08:57:37.000Z</time>
</trkpt>
<trkpt lat="46.0377490" lon="10.3847750">
	<ele>1608.40</ele>
	<time>2024-07-24T08:57:38.000Z</time>
</trkpt>
<trkpt lat="46.0377600" lon="10.3847720">
	<ele>1608.40</ele>
	<time>2024-07-24T08:57:39.000Z</time>
</trkpt>
<trkpt lat="46.0377720" lon="10.3847670">
	<ele>1608.60</ele>
	<time>2024-07-24T08:57:40.000Z</time>
</trkpt>
<trkpt lat="46.0377820" lon="10.3847640">
	<ele>1608.80</ele>
	<time>2024-07-24T08:57:41.000Z</time>
</trkpt>
<trkpt lat="46.0377920" lon="10.3847620">
	<ele>1608.80</ele>
	<time>2024-07-24T08:57:42.000Z</time>
</trkpt>
<trkpt lat="46.0378010" lon="10.3847550">
	<ele>1609.00</ele>
	<time>2024-07-24T08:57:43.000Z</time>
</trkpt>
<trkpt lat="46.0378110" lon="10.3847480">
	<ele>1609.00</ele>
	<time>2024-07-24T08:57:44.000Z</time>
</trkpt>
<trkpt lat="46.0378210" lon="10.3847380">
	<ele>1609.00</ele>
	<time>2024-07-24T08:57:45.000Z</time>
</trkpt>
<trkpt lat="46.0378340" lon="10.3847280">
	<ele>1609.00</ele>
	<time>2024-07-24T08:57:46.000Z</time>
</trkpt>
<trkpt lat="46.0378440" lon="10.3847190">
	<ele>1609.00</ele>
	<time>2024-07-24T08:57:47.000Z</time>
</trkpt>
<trkpt lat="46.0378530" lon="10.3847090">
	<ele>1609.20</ele>
	<time>2024-07-24T08:57:48.000Z</time>
</trkpt>
<trkpt lat="46.0378620" lon="10.3847000">
	<ele>1609.20</ele>
	<time>2024-07-24T08:57:49.000Z</time>
</trkpt>
<trkpt lat="46.0378710" lon="10.3846900">
	<ele>1609.20</ele>
	<time>2024-07-24T08:57:50.000Z</time>
</trkpt>
<trkpt lat="46.0378810" lon="10.3846810">
	<ele>1609.20</ele>
	<time>2024-07-24T08:57:51.000Z</time>
</trkpt>
<trkpt lat="46.0378910" lon="10.3846730">
	<ele>1609.20</ele>
	<time>2024-07-24T08:57:52.000Z</time>
</trkpt>
<trkpt lat="46.0379030" lon="10.3846600">
	<ele>1609.20</ele>
	<time>2024-07-24T08:57:53.000Z</time>
</trkpt>
<trkpt lat="46.0379160" lon="10.3846480">
	<ele>1609.20</ele>
	<time>2024-07-24T08:57:54.000Z</time>
</trkpt>
<trkpt lat="46.0379260" lon="10.3846350">
	<ele>1609.20</ele>
	<time>2024-07-24T08:57:55.000Z</time>
</trkpt>
<trkpt lat="46.0379360" lon="10.3846230">
	<ele>1609.20</ele>
	<time>2024-07-24T08:57:56.000Z</time>
</trkpt>
<trkpt lat="46.0379440" lon="10.3846130">
	<ele>1609.40</ele>
	<time>2024-07-24T08:57:57.000Z</time>
</trkpt>
<trkpt lat="46.0379520" lon="10.3846010">
	<ele>1609.40</ele>
	<time>2024-07-24T08:57:58.000Z</time>
</trkpt>
<trkpt lat="46.0379620" lon="10.3845900">
	<ele>1609.60</ele>
	<time>2024-07-24T08:57:59.000Z</time>
</trkpt>
<trkpt lat="46.0379720" lon="10.3845770">
	<ele>1609.60</ele>
	<time>2024-07-24T08:58:00.000Z</time>
</trkpt>
<trkpt lat="46.0379800" lon="10.3845620">
	<ele>1609.60</ele>
	<time>2024-07-24T08:58:01.000Z</time>
</trkpt>
<trkpt lat="46.0379910" lon="10.3845510">
	<ele>1609.80</ele>
	<time>2024-07-24T08:58:02.000Z</time>
</trkpt>
<trkpt lat="46.0380020" lon="10.3845380">
	<ele>1609.80</ele>
	<time>2024-07-24T08:58:03.000Z</time>
</trkpt>
<trkpt lat="46.0380110" lon="10.3845260">
	<ele>1609.80</ele>
	<time>2024-07-24T08:58:04.000Z</time>
</trkpt>
<trkpt lat="46.0380230" lon="10.3845180">
	<ele>1610.00</ele>
	<time>2024-07-24T08:58:05.000Z</time>
</trkpt>
<trkpt lat="46.0380350" lon="10.3845110">
	<ele>1610.00</ele>
	<time>2024-07-24T08:58:06.000Z</time>
</trkpt>
<trkpt lat="46.0380470" lon="10.3845010">
	<ele>1610.00</ele>
	<time>2024-07-24T08:58:07.000Z</time>
</trkpt>
<trkpt lat="46.0380580" lon="10.3844910">
	<ele>1610.20</ele>
	<time>2024-07-24T08:58:08.000Z</time>
</trkpt>
<trkpt lat="46.0380680" lon="10.3844780">
	<ele>1610.40</ele>
	<time>2024-07-24T08:58:09.000Z</time>
</trkpt>
<trkpt lat="46.0380780" lon="10.3844660">
	<ele>1610.40</ele>
	<time>2024-07-24T08:58:10.000Z</time>
</trkpt>
<trkpt lat="46.0380870" lon="10.3844560">
	<ele>1610.40</ele>
	<time>2024-07-24T08:58:11.000Z</time>
</trkpt>
<trkpt lat="46.0380970" lon="10.3844460">
	<ele>1610.60</ele>
	<time>2024-07-24T08:58:12.000Z</time>
</trkpt>
<trkpt lat="46.0381090" lon="10.3844360">
	<ele>1610.60</ele>
	<time>2024-07-24T08:58:13.000Z</time>
</trkpt>
<trkpt lat="46.0381150" lon="10.3844230">
	<ele>1610.60</ele>
	<time>2024-07-24T08:58:14.000Z</time>
</trkpt>
<trkpt lat="46.0381220" lon="10.3844120">
	<ele>1610.60</ele>
	<time>2024-07-24T08:58:15.000Z</time>
</trkpt>
<trkpt lat="46.0381300" lon="10.3843990">
	<ele>1610.60</ele>
	<time>2024-07-24T08:58:16.000Z</time>
</trkpt>
<trkpt lat="46.0381370" lon="10.3843870">
	<ele>1610.60</ele>
	<time>2024-07-24T08:58:17.000Z</time>
</trkpt>
<trkpt lat="46.0381470" lon="10.3843740">
	<ele>1610.80</ele>
	<time>2024-07-24T08:58:18.000Z</time>
</trkpt>
<trkpt lat="46.0381580" lon="10.3843630">
	<ele>1610.80</ele>
	<time>2024-07-24T08:58:19.000Z</time>
</trkpt>
<trkpt lat="46.0381710" lon="10.3843520">
	<ele>1610.80</ele>
	<time>2024-07-24T08:58:20.000Z</time>
</trkpt>
<trkpt lat="46.0381790" lon="10.3843370">
	<ele>1611.00</ele>
	<time>2024-07-24T08:58:21.000Z</time>
</trkpt>
<trkpt lat="46.0381870" lon="10.3843260">
	<ele>1611.00</ele>
	<time>2024-07-24T08:58:22.000Z</time>
</trkpt>
<trkpt lat="46.0381960" lon="10.3843180">
	<ele>1611.00</ele>
	<time>2024-07-24T08:58:23.000Z</time>
</trkpt>
<trkpt lat="46.0382070" lon="10.3843110">
	<ele>1611.00</ele>
	<time>2024-07-24T08:58:24.000Z</time>
</trkpt>
<trkpt lat="46.0382180" lon="10.3843010">
	<ele>1611.00</ele>
	<time>2024-07-24T08:58:25.000Z</time>
</trkpt>
<trkpt lat="46.0382300" lon="10.3842910">
	<ele>1611.20</ele>
	<time>2024-07-24T08:58:26.000Z</time>
</trkpt>
<trkpt lat="46.0382390" lon="10.3842760">
	<ele>1611.20</ele>
	<time>2024-07-24T08:58:27.000Z</time>
</trkpt>
<trkpt lat="46.0382490" lon="10.3842660">
	<ele>1611.20</ele>
	<time>2024-07-24T08:58:28.000Z</time>
</trkpt>
<trkpt lat="46.0382600" lon="10.3842550">
	<ele>1611.20</ele>
	<time>2024-07-24T08:58:29.000Z</time>
</trkpt>
<trkpt lat="46.0382700" lon="10.3842470">
	<ele>1611.20</ele>
	<time>2024-07-24T08:58:30.000Z</time>
</trkpt>
<trkpt lat="46.0382800" lon="10.3842370">
	<ele>1611.20</ele>
	<time>2024-07-24T08:58:31.000Z</time>
</trkpt>
<trkpt lat="46.0382900" lon="10.3842300">
	<ele>1611.20</ele>
	<time>2024-07-24T08:58:32.000Z</time>
</trkpt>
<trkpt lat="46.0383000" lon="10.3842210">
	<ele>1611.20</ele>
	<time>2024-07-24T08:58:33.000Z</time>
</trkpt>
<trkpt lat="46.0383080" lon="10.3842090">
	<ele>1611.40</ele>
	<time>2024-07-24T08:58:34.000Z</time>
</trkpt>
<trkpt lat="46.0383170" lon="10.3841970">
	<ele>1611.40</ele>
	<time>2024-07-24T08:58:35.000Z</time>
</trkpt>
<trkpt lat="46.0383240" lon="10.3841840">
	<ele>1611.60</ele>
	<time>2024-07-24T08:58:36.000Z</time>
</trkpt>
<trkpt lat="46.0383320" lon="10.3841730">
	<ele>1611.60</ele>
	<time>2024-07-24T08:58:37.000Z</time>
</trkpt>
<trkpt lat="46.0383440" lon="10.3841650">
	<ele>1611.60</ele>
	<time>2024-07-24T08:58:38.000Z</time>
</trkpt>
<trkpt lat="46.0383550" lon="10.3841570">
	<ele>1611.60</ele>
	<time>2024-07-24T08:58:39.000Z</time>
</trkpt>
<trkpt lat="46.0383680" lon="10.3841500">
	<ele>1611.60</ele>
	<time>2024-07-24T08:58:40.000Z</time>
</trkpt>
<trkpt lat="46.0383800" lon="10.3841440">
	<ele>1611.80</ele>
	<time>2024-07-24T08:58:41.000Z</time>
</trkpt>
<trkpt lat="46.0383910" lon="10.3841350">
	<ele>1611.80</ele>
	<time>2024-07-24T08:58:42.000Z</time>
</trkpt>
<trkpt lat="46.0384010" lon="10.3841260">
	<ele>1611.80</ele>
	<time>2024-07-24T08:58:43.000Z</time>
</trkpt>
<trkpt lat="46.0384140" lon="10.3841200">
	<ele>1611.80</ele>
	<time>2024-07-24T08:58:44.000Z</time>
</trkpt>
<trkpt lat="46.0384270" lon="10.3841130">
	<ele>1611.80</ele>
	<time>2024-07-24T08:58:45.000Z</time>
</trkpt>
<trkpt lat="46.0384390" lon="10.3841060">
	<ele>1611.80</ele>
	<time>2024-07-24T08:58:46.000Z</time>
</trkpt>
<trkpt lat="46.0384490" lon="10.3840990">
	<ele>1611.80</ele>
	<time>2024-07-24T08:58:47.000Z</time>
</trkpt>
<trkpt lat="46.0384570" lon="10.3840890">
	<ele>1611.80</ele>
	<time>2024-07-24T08:58:48.000Z</time>
</trkpt>
<trkpt lat="46.0384670" lon="10.3840790">
	<ele>1612.00</ele>
	<time>2024-07-24T08:58:49.000Z</time>
</trkpt>
<trkpt lat="46.0384750" lon="10.3840660">
	<ele>1612.00</ele>
	<time>2024-07-24T08:58:50.000Z</time>
</trkpt>
<trkpt lat="46.0384840" lon="10.3840580">
	<ele>1612.00</ele>
	<time>2024-07-24T08:58:51.000Z</time>
</trkpt>
<trkpt lat="46.0384930" lon="10.3840480">
	<ele>1612.00</ele>
	<time>2024-07-24T08:58:52.000Z</time>
</trkpt>
<trkpt lat="46.0385060" lon="10.3840420">
	<ele>1612.00</ele>
	<time>2024-07-24T08:58:53.000Z</time>
</trkpt>
<trkpt lat="46.0385180" lon="10.3840360">
	<ele>1612.20</ele>
	<time>2024-07-24T08:58:54.000Z</time>
</trkpt>
<trkpt lat="46.0385300" lon="10.3840280">
	<ele>1612.20</ele>
	<time>2024-07-24T08:58:55.000Z</time>
</trkpt>
<trkpt lat="46.0385410" lon="10.3840210">
	<ele>1612.40</ele>
	<time>2024-07-24T08:58:56.000Z</time>
</trkpt>
<trkpt lat="46.0385540" lon="10.3840130">
	<ele>1612.40</ele>
	<time>2024-07-24T08:58:57.000Z</time>
</trkpt>
<trkpt lat="46.0385660" lon="10.3840050">
	<ele>1612.40</ele>
	<time>2024-07-24T08:58:58.000Z</time>
</trkpt>
<trkpt lat="46.0385790" lon="10.3839940">
	<ele>1612.60</ele>
	<time>2024-07-24T08:58:59.000Z</time>
</trkpt>
<trkpt lat="46.0385930" lon="10.3839840">
	<ele>1612.60</ele>
	<time>2024-07-24T08:59:00.000Z</time>
</trkpt>
<trkpt lat="46.0386060" lon="10.3839760">
	<ele>1612.80</ele>
	<time>2024-07-24T08:59:01.000Z</time>
</trkpt>
<trkpt lat="46.0386160" lon="10.3839680">
	<ele>1612.80</ele>
	<time>2024-07-24T08:59:02.000Z</time>
</trkpt>
<trkpt lat="46.0386250" lon="10.3839620">
	<ele>1612.80</ele>
	<time>2024-07-24T08:59:03.000Z</time>
</trkpt>
<trkpt lat="46.0386340" lon="10.3839560">
	<ele>1612.80</ele>
	<time>2024-07-24T08:59:04.000Z</time>
</trkpt>
<trkpt lat="46.0386430" lon="10.3839510">
	<ele>1612.80</ele>
	<time>2024-07-24T08:59:05.000Z</time>
</trkpt>
<trkpt lat="46.0386510" lon="10.3839450">
	<ele>1612.80</ele>
	<time>2024-07-24T08:59:06.000Z</time>
</trkpt>
<trkpt lat="46.0386600" lon="10.3839350">
	<ele>1612.80</ele>
	<time>2024-07-24T08:59:07.000Z</time>
</trkpt>
<trkpt lat="46.0386680" lon="10.3839180">
	<ele>1612.80</ele>
	<time>2024-07-24T08:59:08.000Z</time>
</trkpt>
<trkpt lat="46.0386810" lon="10.3839110">
	<ele>1613.20</ele>
	<time>2024-07-24T08:59:09.000Z</time>
</trkpt>
<trkpt lat="46.0386920" lon="10.3839010">
	<ele>1613.20</ele>
	<time>2024-07-24T08:59:10.000Z</time>
</trkpt>
<trkpt lat="46.0387040" lon="10.3838860">
	<ele>1613.40</ele>
	<time>2024-07-24T08:59:11.000Z</time>
</trkpt>
<trkpt lat="46.0387130" lon="10.3838710">
	<ele>1613.60</ele>
	<time>2024-07-24T08:59:12.000Z</time>
</trkpt>
<trkpt lat="46.0387200" lon="10.3838590">
	<ele>1613.60</ele>
	<time>2024-07-24T08:59:13.000Z</time>
</trkpt>
<trkpt lat="46.0387260" lon="10.3838530">
	<ele>1613.80</ele>
	<time>2024-07-24T08:59:14.000Z</time>
</trkpt>
<trkpt lat="46.0387400" lon="10.3838550">
	<ele>1614.00</ele>
	<time>2024-07-24T08:59:15.000Z</time>
</trkpt>
<trkpt lat="46.0387540" lon="10.3838510">
	<ele>1614.20</ele>
	<time>2024-07-24T08:59:16.000Z</time>
</trkpt>
<trkpt lat="46.0387590" lon="10.3838440">
	<ele>1614.40</ele>
	<time>2024-07-24T08:59:17.000Z</time>
</trkpt>
<trkpt lat="46.0387650" lon="10.3838320">
	<ele>1614.40</ele>
	<time>2024-07-24T08:59:18.000Z</time>
</trkpt>
<trkpt lat="46.0387750" lon="10.3838260">
	<ele>1614.40</ele>
	<time>2024-07-24T08:59:19.000Z</time>
</trkpt>
<trkpt lat="46.0387880" lon="10.3838220">
	<ele>1614.60</ele>
	<time>2024-07-24T08:59:20.000Z</time>
</trkpt>
<trkpt lat="46.0388020" lon="10.3838210">
	<ele>1614.60</ele>
	<time>2024-07-24T08:59:21.000Z</time>
</trkpt>
<trkpt lat="46.0388080" lon="10.3838210">
	<ele>1614.80</ele>
	<time>2024-07-24T08:59:22.000Z</time>
</trkpt>
<trkpt lat="46.0388140" lon="10.3838100">
	<ele>1614.80</ele>
	<time>2024-07-24T08:59:23.000Z</time>
</trkpt>
<trkpt lat="46.0388150" lon="10.3838040">
	<ele>1614.80</ele>
	<time>2024-07-24T08:59:24.000Z</time>
</trkpt>
<trkpt lat="46.0388100" lon="10.3837880">
	<ele>1614.80</ele>
	<time>2024-07-24T08:59:25.000Z</time>
</trkpt>
<trkpt lat="46.0388070" lon="10.3837870">
	<ele>1614.80</ele>
	<time>2024-07-24T08:59:26.000Z</time>
</trkpt>
<trkpt lat="46.0388090" lon="10.3837740">
	<ele>1614.60</ele>
	<time>2024-07-24T08:59:27.000Z</time>
</trkpt>
<trkpt lat="46.0388170" lon="10.3837680">
	<ele>1614.60</ele>
	<time>2024-07-24T08:59:28.000Z</time>
</trkpt>
<trkpt lat="46.0388250" lon="10.3837630">
	<ele>1614.60</ele>
	<time>2024-07-24T08:59:29.000Z</time>
</trkpt>
<trkpt lat="46.0388260" lon="10.3837550">
	<ele>1614.60</ele>
	<time>2024-07-24T08:59:30.000Z</time>
</trkpt>
<trkpt lat="46.0388310" lon="10.3837460">
	<ele>1614.60</ele>
	<time>2024-07-24T08:59:31.000Z</time>
</trkpt>
<trkpt lat="46.0388430" lon="10.3837450">
	<ele>1614.60</ele>
	<time>2024-07-24T08:59:32.000Z</time>
</trkpt>
<trkpt lat="46.0388520" lon="10.3837420">
	<ele>1614.60</ele>
	<time>2024-07-24T08:59:33.000Z</time>
</trkpt>
<trkpt lat="46.0388540" lon="10.3837410">
	<ele>1614.60</ele>
	<time>2024-07-24T08:59:34.000Z</time>
</trkpt>
<trkpt lat="46.0388550" lon="10.3837380">
	<ele>1614.80</ele>
	<time>2024-07-24T08:59:35.000Z</time>
</trkpt>
<trkpt lat="46.0388560" lon="10.3837320">
	<ele>1614.80</ele>
	<time>2024-07-24T08:59:36.000Z</time>
</trkpt>
<trkpt lat="46.0388510" lon="10.3837300">
	<ele>1614.80</ele>
	<time>2024-07-24T08:59:37.000Z</time>
</trkpt>
<trkpt lat="46.0388510" lon="10.3837330">
	<ele>1614.80</ele>
	<time>2024-07-24T08:59:38.000Z</time>
</trkpt>
<trkpt lat="46.0388510" lon="10.3837360">
	<ele>1614.80</ele>
	<time>2024-07-24T08:59:39.000Z</time>
</trkpt>
<trkpt lat="46.0388500" lon="10.3837370">
	<ele>1615.00</ele>
	<time>2024-07-24T08:59:40.000Z</time>
</trkpt>
<trkpt lat="46.0388510" lon="10.3837340">
	<ele>1615.00</ele>
	<time>2024-07-24T08:59:41.000Z</time>
</trkpt>
<trkpt lat="46.0388500" lon="10.3837300">
	<ele>1615.00</ele>
	<time>2024-07-24T08:59:42.000Z</time>
</trkpt>
<trkpt lat="46.0388490" lon="10.3837250">
	<ele>1615.20</ele>
	<time>2024-07-24T08:59:43.000Z</time>
</trkpt>
<trkpt lat="46.0388470" lon="10.3837240">
	<ele>1615.20</ele>
	<time>2024-07-24T08:59:44.000Z</time>
</trkpt>
<trkpt lat="46.0388450" lon="10.3837230">
	<ele>1615.20</ele>
	<time>2024-07-24T08:59:45.000Z</time>
</trkpt>
<trkpt lat="46.0388430" lon="10.3837220">
	<ele>1615.40</ele>
	<time>2024-07-24T08:59:46.000Z</time>
</trkpt>
<trkpt lat="46.0388430" lon="10.3837220">
	<ele>1615.40</ele>
	<time>2024-07-24T08:59:47.000Z</time>
</trkpt>
<trkpt lat="46.0388450" lon="10.3837210">
	<ele>1615.40</ele>
	<time>2024-07-24T08:59:48.000Z</time>
</trkpt>
<trkpt lat="46.0388510" lon="10.3837240">
	<ele>1615.20</ele>
	<time>2024-07-24T08:59:49.000Z</time>
</trkpt>
<trkpt lat="46.0388530" lon="10.3837260">
	<ele>1615.00</ele>
	<time>2024-07-24T08:59:50.000Z</time>
</trkpt>
<trkpt lat="46.0388540" lon="10.3837280">
	<ele>1615.00</ele>
	<time>2024-07-24T08:59:51.000Z</time>
</trkpt>
<trkpt lat="46.0388540" lon="10.3837280">
	<ele>1615.00</ele>
	<time>2024-07-24T08:59:52.000Z</time>
</trkpt>
<trkpt lat="46.0388540" lon="10.3837280">
	<ele>1615.00</ele>
	<time>2024-07-24T08:59:53.000Z</time>
</trkpt>
<trkpt lat="46.0388540" lon="10.3837280">
	<ele>1615.00</ele>
	<time>2024-07-24T08:59:54.000Z</time>
</trkpt>
<trkpt lat="46.0388540" lon="10.3837280">
	<ele>1615.00</ele>
	<time>2024-07-24T08:59:55.000Z</time>
</trkpt>
<trkpt lat="46.0388540" lon="10.3837280">
	<ele>1615.00</ele>
	<time>2024-07-24T08:59:56.000Z</time>
</trkpt>
<trkpt lat="46.0388540" lon="10.3837280">
	<ele>1615.00</ele>
	<time>2024-07-24T08:59:57.000Z</time>
</trkpt>
<trkpt lat="46.0388540" lon="10.3837280">
	<ele>1615.00</ele>
	<time>2024-07-24T08:59:58.000Z</time>
</trkpt>
<trkpt lat="46.0388540" lon="10.3837280">
	<ele>1614.80</ele>
	<time>2024-07-24T08:59:59.000Z</time>
</trkpt>
<trkpt lat="46.0388540" lon="10.3837280">
	<ele>1614.80</ele>
	<time>2024-07-24T09:00:00.000Z</time>
</trkpt>
<trkpt lat="46.0388540" lon="10.3837280">
	<ele>1614.80</ele>
	<time>2024-07-24T09:00:01.000Z</time>
</trkpt>
<trkpt lat="46.0388540" lon="10.3837280">
	<ele>1614.80</ele>
	<time>2024-07-24T09:00:02.000Z</time>
</trkpt>
<trkpt lat="46.0388530" lon="10.3837280">
	<ele>1614.80</ele>
	<time>2024-07-24T09:00:03.000Z</time>
</trkpt>
<trkpt lat="46.0388530" lon="10.3837280">
	<ele>1614.80</ele>
	<time>2024-07-24T09:00:04.000Z</time>
</trkpt>
<trkpt lat="46.0388520" lon="10.3837280">
	<ele>1614.80</ele>
	<time>2024-07-24T09:00:05.000Z</time>
</trkpt>
<trkpt lat="46.0388520" lon="10.3837280">
	<ele>1614.80</ele>
	<time>2024-07-24T09:00:06.000Z</time>
</trkpt>
<trkpt lat="46.0388510" lon="10.3837270">
	<ele>1614.80</ele>
	<time>2024-07-24T09:00:07.000Z</time>
</trkpt>
<trkpt lat="46.0388510" lon="10.3837270">
	<ele>1614.80</ele>
	<time>2024-07-24T09:00:08.000Z</time>
</trkpt>
<trkpt lat="46.0388510" lon="10.3837260">
	<ele>1614.80</ele>
	<time>2024-07-24T09:00:09.000Z</time>
</trkpt>
<trkpt lat="46.0388510" lon="10.3837260">
	<ele>1614.80</ele>
	<time>2024-07-24T09:00:10.000Z</time>
</trkpt>
<trkpt lat="46.0388510" lon="10.3837260">
	<ele>1614.60</ele>
	<time>2024-07-24T09:00:11.000Z</time>
</trkpt>
<trkpt lat="46.0388510" lon="10.3837260">
	<ele>1614.60</ele>
	<time>2024-07-24T09:00:12.000Z</time>
</trkpt>
<trkpt lat="46.0388510" lon="10.3837260">
	<ele>1614.60</ele>
	<time>2024-07-24T09:00:13.000Z</time>
</trkpt>
<trkpt lat="46.0388510" lon="10.3837260">
	<ele>1614.60</ele>
	<time>2024-07-24T09:00:14.000Z</time>
</trkpt>
<trkpt lat="46.0388510" lon="10.3837270">
	<ele>1614.60</ele>
	<time>2024-07-24T09:00:15.000Z</time>
</trkpt>
<trkpt lat="46.0388520" lon="10.3837270">
	<ele>1614.60</ele>
	<time>2024-07-24T09:00:16.000Z</time>
</trkpt>
<trkpt lat="46.0388520" lon="10.3837270">
	<ele>1614.60</ele>
	<time>2024-07-24T09:00:17.000Z</time>
</trkpt>
<trkpt lat="46.0388520" lon="10.3837270">
	<ele>1614.60</ele>
	<time>2024-07-24T09:00:18.000Z</time>
</trkpt>
<trkpt lat="46.0388530" lon="10.3837280">
	<ele>1614.60</ele>
	<time>2024-07-24T09:00:19.000Z</time>
</trkpt>
<trkpt lat="46.0388520" lon="10.3837280">
	<ele>1614.60</ele>
	<time>2024-07-24T09:00:20.000Z</time>
</trkpt>
<trkpt lat="46.0388520" lon="10.3837280">
	<ele>1614.40</ele>
	<time>2024-07-24T09:00:21.000Z</time>
</trkpt>
<trkpt lat="46.0388520" lon="10.3837280">
	<ele>1614.40</ele>
	<time>2024-07-24T09:00:22.000Z</time>
</trkpt>
<trkpt lat="46.0388520" lon="10.3837280">
	<ele>1614.40</ele>
	<time>2024-07-24T09:00:23.000Z</time>
</trkpt>
<trkpt lat="46.0388520" lon="10.3837280">
	<ele>1614.40</ele>
	<time>2024-07-24T09:00:24.000Z</time>
</trkpt>
<trkpt lat="46.0388520" lon="10.3837280">
	<ele>1614.40</ele>
	<time>2024-07-24T09:00:25.000Z</time>
</trkpt>
<trkpt lat="46.0388520" lon="10.3837280">
	<ele>1614.40</ele>
	<time>2024-07-24T09:00:26.000Z</time>
</trkpt>
<trkpt lat="46.0388530" lon="10.3837280">
	<ele>1614.40</ele>
	<time>2024-07-24T09:00:27.000Z</time>
</trkpt>
<trkpt lat="46.0388530" lon="10.3837270">
	<ele>1614.40</ele>
	<time>2024-07-24T09:00:28.000Z</time>
</trkpt>
<trkpt lat="46.0388530" lon="10.3837270">
	<ele>1614.40</ele>
	<time>2024-07-24T09:00:29.000Z</time>
</trkpt>
<trkpt lat="46.0388530" lon="10.3837280">
	<ele>1614.40</ele>
	<time>2024-07-24T09:00:30.000Z</time>
</trkpt>
<trkpt lat="46.0388530" lon="10.3837280">
	<ele>1614.60</ele>
	<time>2024-07-24T09:00:31.000Z</time>
</trkpt>
<trkpt lat="46.0388530" lon="10.3837280">
	<ele>1614.60</ele>
	<time>2024-07-24T09:00:32.000Z</time>
</trkpt>
<trkpt lat="46.0388530" lon="10.3837280">
	<ele>1614.60</ele>
	<time>2024-07-24T09:00:33.000Z</time>
</trkpt>
<trkpt lat="46.0388600" lon="10.3837260">
	<ele>1614.80</ele>
	<time>2024-07-24T09:00:34.000Z</time>
</trkpt>
<trkpt lat="46.0388740" lon="10.3837150">
	<ele>1614.80</ele>
	<time>2024-07-24T09:00:35.000Z</time>
</trkpt>
<trkpt lat="46.0388880" lon="10.3837060">
	<ele>1615.00</ele>
	<time>2024-07-24T09:00:36.000Z</time>
</trkpt>
<trkpt lat="46.0389010" lon="10.3836990">
	<ele>1615.20</ele>
	<time>2024-07-24T09:00:37.000Z</time>
</trkpt>
<trkpt lat="46.0389140" lon="10.3836910">
	<ele>1615.40</ele>
	<time>2024-07-24T09:00:38.000Z</time>
</trkpt>
<trkpt lat="46.0389330" lon="10.3836740">
	<ele>1615.40</ele>
	<time>2024-07-24T09:00:39.000Z</time>
</trkpt>
<trkpt lat="46.0389470" lon="10.3836560">
	<ele>1615.60</ele>
	<time>2024-07-24T09:00:40.000Z</time>
</trkpt>
<trkpt lat="46.0389710" lon="10.3836570">
	<ele>1615.60</ele>
	<time>2024-07-24T09:00:41.000Z</time>
</trkpt>
<trkpt lat="46.0389910" lon="10.3836590">
	<ele>1615.80</ele>
	<time>2024-07-24T09:00:42.000Z</time>
</trkpt>
<trkpt lat="46.0390060" lon="10.3836480">
	<ele>1615.80</ele>
	<time>2024-07-24T09:00:43.000Z</time>
</trkpt>
<trkpt lat="46.0390130" lon="10.3836390">
	<ele>1616.00</ele>
	<time>2024-07-24T09:00:44.000Z</time>
</trkpt>
<trkpt lat="46.0390160" lon="10.3836320">
	<ele>1616.00</ele>
	<time>2024-07-24T09:00:45.000Z</time>
</trkpt>
<trkpt lat="46.0390270" lon="10.3836390">
	<ele>1616.20</ele>
	<time>2024-07-24T09:00:46.000Z</time>
</trkpt>
<trkpt lat="46.0390400" lon="10.3836410">
	<ele>1616.40</ele>
	<time>2024-07-24T09:00:47.000Z</time>
</trkpt>
<trkpt lat="46.0390540" lon="10.3836390">
	<ele>1616.40</ele>
	<time>2024-07-24T09:00:48.000Z</time>
</trkpt>
<trkpt lat="46.0390660" lon="10.3836350">
	<ele>1616.60</ele>
	<time>2024-07-24T09:00:49.000Z</time>
</trkpt>
<trkpt lat="46.0390770" lon="10.3836250">
	<ele>1616.60</ele>
	<time>2024-07-24T09:00:50.000Z</time>
</trkpt>
<trkpt lat="46.0390870" lon="10.3836140">
	<ele>1617.00</ele>
	<time>2024-07-24T09:00:51.000Z</time>
</trkpt>
<trkpt lat="46.0390930" lon="10.3836030">
	<ele>1617.20</ele>
	<time>2024-07-24T09:00:52.000Z</time>
</trkpt>
<trkpt lat="46.0390970" lon="10.3835920">
	<ele>1617.40</ele>
	<time>2024-07-24T09:00:53.000Z</time>
</trkpt>
<trkpt lat="46.0391020" lon="10.3835770">
	<ele>1617.60</ele>
	<time>2024-07-24T09:00:54.000Z</time>
</trkpt>
<trkpt lat="46.0391110" lon="10.3835680">
	<ele>1617.80</ele>
	<time>2024-07-24T09:00:55.000Z</time>
</trkpt>
<trkpt lat="46.0391200" lon="10.3835590">
	<ele>1618.00</ele>
	<time>2024-07-24T09:00:56.000Z</time>
</trkpt>
<trkpt lat="46.0391290" lon="10.3835530">
	<ele>1618.00</ele>
	<time>2024-07-24T09:00:57.000Z</time>
</trkpt>
<trkpt lat="46.0391400" lon="10.3835490">
	<ele>1618.20</ele>
	<time>2024-07-24T09:00:58.000Z</time>
</trkpt>
<trkpt lat="46.0391500" lon="10.3835410">
	<ele>1618.40</ele>
	<time>2024-07-24T09:00:59.000Z</time>
</trkpt>
<trkpt lat="46.0391600" lon="10.3835330">
	<ele>1618.60</ele>
	<time>2024-07-24T09:01:00.000Z</time>
</trkpt>
<trkpt lat="46.0391720" lon="10.3835270">
	<ele>1618.60</ele>
	<time>2024-07-24T09:01:01.000Z</time>
</trkpt>
<trkpt lat="46.0391810" lon="10.3835200">
	<ele>1618.80</ele>
	<time>2024-07-24T09:01:02.000Z</time>
</trkpt>
<trkpt lat="46.0391870" lon="10.3835090">
	<ele>1619.00</ele>
	<time>2024-07-24T09:01:03.000Z</time>
</trkpt>
<trkpt lat="46.0391910" lon="10.3834980">
	<ele>1619.20</ele>
	<time>2024-07-24T09:01:04.000Z</time>
</trkpt>
<trkpt lat="46.0391990" lon="10.3834920">
	<ele>1619.20</ele>
	<time>2024-07-24T09:01:05.000Z</time>
</trkpt>
<trkpt lat="46.0392080" lon="10.3834860">
	<ele>1619.40</ele>
	<time>2024-07-24T09:01:06.000Z</time>
</trkpt>
<trkpt lat="46.0392190" lon="10.3834820">
	<ele>1619.40</ele>
	<time>2024-07-24T09:01:07.000Z</time>
</trkpt>
<trkpt lat="46.0392290" lon="10.3834770">
	<ele>1619.40</ele>
	<time>2024-07-24T09:01:08.000Z</time>
</trkpt>
<trkpt lat="46.0392380" lon="10.3834720">
	<ele>1619.60</ele>
	<time>2024-07-24T09:01:09.000Z</time>
</trkpt>
<trkpt lat="46.0392470" lon="10.3834640">
	<ele>1619.60</ele>
	<time>2024-07-24T09:01:10.000Z</time>
</trkpt>
<trkpt lat="46.0392560" lon="10.3834530">
	<ele>1619.80</ele>
	<time>2024-07-24T09:01:11.000Z</time>
</trkpt>
<trkpt lat="46.0392660" lon="10.3834430">
	<ele>1620.00</ele>
	<time>2024-07-24T09:01:12.000Z</time>
</trkpt>
<trkpt lat="46.0392740" lon="10.3834320">
	<ele>1620.00</ele>
	<time>2024-07-24T09:01:13.000Z</time>
</trkpt>
<trkpt lat="46.0392820" lon="10.3834230">
	<ele>1620.00</ele>
	<time>2024-07-24T09:01:14.000Z</time>
</trkpt>
<trkpt lat="46.0392920" lon="10.3834150">
	<ele>1620.20</ele>
	<time>2024-07-24T09:01:15.000Z</time>
</trkpt>
<trkpt lat="46.0393030" lon="10.3834060">
	<ele>1620.20</ele>
	<time>2024-07-24T09:01:16.000Z</time>
</trkpt>
<trkpt lat="46.0393110" lon="10.3833970">
	<ele>1620.20</ele>
	<time>2024-07-24T09:01:17.000Z</time>
</trkpt>
<trkpt lat="46.0393170" lon="10.3833830">
	<ele>1620.20</ele>
	<time>2024-07-24T09:01:18.000Z</time>
</trkpt>
<trkpt lat="46.0393200" lon="10.3833720">
	<ele>1620.40</ele>
	<time>2024-07-24T09:01:19.000Z</time>
</trkpt>
<trkpt lat="46.0393260" lon="10.3833660">
	<ele>1620.40</ele>
	<time>2024-07-24T09:01:20.000Z</time>
</trkpt>
<trkpt lat="46.0393310" lon="10.3833660">
	<ele>1620.40</ele>
	<time>2024-07-24T09:01:21.000Z</time>
</trkpt>
<trkpt lat="46.0393340" lon="10.3833710">
	<ele>1620.40</ele>
	<time>2024-07-24T09:01:22.000Z</time>
</trkpt>
<trkpt lat="46.0393340" lon="10.3833780">
	<ele>1620.40</ele>
	<time>2024-07-24T09:01:23.000Z</time>
</trkpt>
<trkpt lat="46.0393370" lon="10.3833810">
	<ele>1620.40</ele>
	<time>2024-07-24T09:01:24.000Z</time>
</trkpt>
<trkpt lat="46.0393440" lon="10.3833900">
	<ele>1620.40</ele>
	<time>2024-07-24T09:01:25.000Z</time>
</trkpt>
<trkpt lat="46.0393440" lon="10.3833850">
	<ele>1620.60</ele>
	<time>2024-07-24T09:01:26.000Z</time>
</trkpt>
<trkpt lat="46.0393390" lon="10.3833770">
	<ele>1620.60</ele>
	<time>2024-07-24T09:01:27.000Z</time>
</trkpt>
<trkpt lat="46.0393370" lon="10.3833760">
	<ele>1620.60</ele>
	<time>2024-07-24T09:01:28.000Z</time>
</trkpt>
<trkpt lat="46.0393350" lon="10.3833760">
	<ele>1620.80</ele>
	<time>2024-07-24T09:01:29.000Z</time>
</trkpt>
<trkpt lat="46.0393330" lon="10.3833760">
	<ele>1620.80</ele>
	<time>2024-07-24T09:01:30.000Z</time>
</trkpt>
<trkpt lat="46.0393320" lon="10.3833780">
	<ele>1620.80</ele>
	<time>2024-07-24T09:01:31.000Z</time>
</trkpt>
<trkpt lat="46.0393270" lon="10.3833780">
	<ele>1621.00</ele>
	<time>2024-07-24T09:01:32.000Z</time>
</trkpt>
<trkpt lat="46.0393230" lon="10.3833800">
	<ele>1621.00</ele>
	<time>2024-07-24T09:01:33.000Z</time>
</trkpt>
<trkpt lat="46.0393230" lon="10.3833840">
	<ele>1621.00</ele>
	<time>2024-07-24T09:01:34.000Z</time>
</trkpt>
<trkpt lat="46.0393200" lon="10.3833870">
	<ele>1621.00</ele>
	<time>2024-07-24T09:01:35.000Z</time>
</trkpt>
<trkpt lat="46.0393170" lon="10.3833900">
	<ele>1621.00</ele>
	<time>2024-07-24T09:01:36.000Z</time>
</trkpt>
<trkpt lat="46.0393140" lon="10.3833900">
	<ele>1621.00</ele>
	<time>2024-07-24T09:01:37.000Z</time>
</trkpt>
<trkpt lat="46.0393110" lon="10.3833900">
	<ele>1621.00</ele>
	<time>2024-07-24T09:01:38.000Z</time>
</trkpt>
<trkpt lat="46.0393060" lon="10.3833890">
	<ele>1621.00</ele>
	<time>2024-07-24T09:01:39.000Z</time>
</trkpt>
<trkpt lat="46.0393020" lon="10.3833870">
	<ele>1621.00</ele>
	<time>2024-07-24T09:01:40.000Z</time>
</trkpt>
<trkpt lat="46.0393080" lon="10.3833860">
	<ele>1621.00</ele>
	<time>2024-07-24T09:01:41.000Z</time>
</trkpt>
<trkpt lat="46.0393130" lon="10.3833910">
	<ele>1620.80</ele>
	<time>2024-07-24T09:01:42.000Z</time>
</trkpt>
<trkpt lat="46.0393190" lon="10.3833910">
	<ele>1620.80</ele>
	<time>2024-07-24T09:01:43.000Z</time>
</trkpt>
<trkpt lat="46.0393270" lon="10.3833870">
	<ele>1620.80</ele>
	<time>2024-07-24T09:01:44.000Z</time>
</trkpt>
<trkpt lat="46.0393370" lon="10.3833830">
	<ele>1620.80</ele>
	<time>2024-07-24T09:01:45.000Z</time>
</trkpt>
<trkpt lat="46.0393470" lon="10.3833810">
	<ele>1620.80</ele>
	<time>2024-07-24T09:01:46.000Z</time>
</trkpt>
<trkpt lat="46.0393560" lon="10.3833770">
	<ele>1621.00</ele>
	<time>2024-07-24T09:01:47.000Z</time>
</trkpt>
<trkpt lat="46.0393670" lon="10.3833680">
	<ele>1621.00</ele>
	<time>2024-07-24T09:01:48.000Z</time>
</trkpt>
<trkpt lat="46.0393760" lon="10.3833580">
	<ele>1621.20</ele>
	<time>2024-07-24T09:01:49.000Z</time>
</trkpt>
<trkpt lat="46.0393830" lon="10.3833490">
	<ele>1621.20</ele>
	<time>2024-07-24T09:01:50.000Z</time>
</trkpt>
<trkpt lat="46.0393910" lon="10.3833370">
	<ele>1621.80</ele>
	<time>2024-07-24T09:01:51.000Z</time>
</trkpt>
<trkpt lat="46.0394000" lon="10.3833250">
	<ele>1622.00</ele>
	<time>2024-07-24T09:01:52.000Z</time>
</trkpt>
<trkpt lat="46.0394120" lon="10.3833170">
	<ele>1622.20</ele>
	<time>2024-07-24T09:01:53.000Z</time>
</trkpt>
<trkpt lat="46.0394280" lon="10.3833100">
	<ele>1622.40</ele>
	<time>2024-07-24T09:01:54.000Z</time>
</trkpt>
<trkpt lat="46.0394400" lon="10.3833040">
	<ele>1622.60</ele>
	<time>2024-07-24T09:01:55.000Z</time>
</trkpt>
<trkpt lat="46.0394480" lon="10.3832990">
	<ele>1622.60</ele>
	<time>2024-07-24T09:01:56.000Z</time>
</trkpt>
<trkpt lat="46.0394490" lon="10.3832950">
	<ele>1622.80</ele>
	<time>2024-07-24T09:01:57.000Z</time>
</trkpt>
<trkpt lat="46.0394580" lon="10.3832790">
	<ele>1623.00</ele>
	<time>2024-07-24T09:01:58.000Z</time>
</trkpt>
<trkpt lat="46.0394630" lon="10.3832720">
	<ele>1623.00</ele>
	<time>2024-07-24T09:01:59.000Z</time>
</trkpt>
<trkpt lat="46.0394680" lon="10.3832680">
	<ele>1623.00</ele>
	<time>2024-07-24T09:02:00.000Z</time>
</trkpt>
<trkpt lat="46.0394770" lon="10.3832640">
	<ele>1623.00</ele>
	<time>2024-07-24T09:02:01.000Z</time>
</trkpt>
<trkpt lat="46.0394870" lon="10.3832590">
	<ele>1623.20</ele>
	<time>2024-07-24T09:02:02.000Z</time>
</trkpt>
<trkpt lat="46.0394980" lon="10.3832520">
	<ele>1623.20</ele>
	<time>2024-07-24T09:02:03.000Z</time>
</trkpt>
<trkpt lat="46.0395070" lon="10.3832440">
	<ele>1623.20</ele>
	<time>2024-07-24T09:02:04.000Z</time>
</trkpt>
<trkpt lat="46.0395190" lon="10.3832390">
	<ele>1623.20</ele>
	<time>2024-07-24T09:02:05.000Z</time>
</trkpt>
<trkpt lat="46.0395300" lon="10.3832340">
	<ele>1623.40</ele>
	<time>2024-07-24T09:02:06.000Z</time>
</trkpt>
<trkpt lat="46.0395390" lon="10.3832230">
	<ele>1623.60</ele>
	<time>2024-07-24T09:02:07.000Z</time>
</trkpt>
<trkpt lat="46.0395500" lon="10.3832160">
	<ele>1623.80</ele>
	<time>2024-07-24T09:02:08.000Z</time>
</trkpt>
<trkpt lat="46.0395610" lon="10.3832110">
	<ele>1624.00</ele>
	<time>2024-07-24T09:02:09.000Z</time>
</trkpt>
<trkpt lat="46.0395730" lon="10.3832080">
	<ele>1624.00</ele>
	<time>2024-07-24T09:02:10.000Z</time>
</trkpt>
<trkpt lat="46.0395850" lon="10.3832040">
	<ele>1624.00</ele>
	<time>2024-07-24T09:02:11.000Z</time>
</trkpt>
<trkpt lat="46.0395980" lon="10.3831990">
	<ele>1624.20</ele>
	<time>2024-07-24T09:02:12.000Z</time>
</trkpt>
<trkpt lat="46.0396120" lon="10.3831950">
	<ele>1624.40</ele>
	<time>2024-07-24T09:02:13.000Z</time>
</trkpt>
<trkpt lat="46.0396240" lon="10.3831890">
	<ele>1624.40</ele>
	<time>2024-07-24T09:02:14.000Z</time>
</trkpt>
<trkpt lat="46.0396370" lon="10.3831840">
	<ele>1624.60</ele>
	<time>2024-07-24T09:02:15.000Z</time>
</trkpt>
<trkpt lat="46.0396470" lon="10.3831820">
	<ele>1624.80</ele>
	<time>2024-07-24T09:02:16.000Z</time>
</trkpt>
<trkpt lat="46.0396570" lon="10.3831760">
	<ele>1625.00</ele>
	<time>2024-07-24T09:02:17.000Z</time>
</trkpt>
<trkpt lat="46.0396660" lon="10.3831720">
	<ele>1625.00</ele>
	<time>2024-07-24T09:02:18.000Z</time>
</trkpt>
<trkpt lat="46.0396760" lon="10.3831650">
	<ele>1625.00</ele>
	<time>2024-07-24T09:02:19.000Z</time>
</trkpt>
<trkpt lat="46.0396820" lon="10.3831570">
	<ele>1625.20</ele>
	<time>2024-07-24T09:02:20.000Z</time>
</trkpt>
<trkpt lat="46.0396920" lon="10.3831550">
	<ele>1625.40</ele>
	<time>2024-07-24T09:02:21.000Z</time>
</trkpt>
<trkpt lat="46.0397050" lon="10.3831540">
	<ele>1625.60</ele>
	<time>2024-07-24T09:02:22.000Z</time>
</trkpt>
<trkpt lat="46.0397200" lon="10.3831530">
	<ele>1625.80</ele>
	<time>2024-07-24T09:02:23.000Z</time>
</trkpt>
<trkpt lat="46.0397320" lon="10.3831470">
	<ele>1626.00</ele>
	<time>2024-07-24T09:02:24.000Z</time>
</trkpt>
<trkpt lat="46.0397440" lon="10.3831430">
	<ele>1626.20</ele>
	<time>2024-07-24T09:02:25.000Z</time>
</trkpt>
<trkpt lat="46.0397510" lon="10.3831410">
	<ele>1626.60</ele>
	<time>2024-07-24T09:02:26.000Z</time>
</trkpt>
<trkpt lat="46.0397570" lon="10.3831360">
	<ele>1626.60</ele>
	<time>2024-07-24T09:02:27.000Z</time>
</trkpt>
<trkpt lat="46.0397640" lon="10.3831310">
	<ele>1626.80</ele>
	<time>2024-07-24T09:02:28.000Z</time>
</trkpt>
<trkpt lat="46.0397670" lon="10.3831290">
	<ele>1627.00</ele>
	<time>2024-07-24T09:02:29.000Z</time>
</trkpt>
<trkpt lat="46.0397740" lon="10.3831300">
	<ele>1627.20</ele>
	<time>2024-07-24T09:02:30.000Z</time>
</trkpt>
<trkpt lat="46.0397800" lon="10.3831350">
	<ele>1627.40</ele>
	<time>2024-07-24T09:02:31.000Z</time>
</trkpt>
<trkpt lat="46.0397890" lon="10.3831360">
	<ele>1627.40</ele>
	<time>2024-07-24T09:02:32.000Z</time>
</trkpt>
<trkpt lat="46.0397980" lon="10.3831390">
	<ele>1627.60</ele>
	<time>2024-07-24T09:02:33.000Z</time>
</trkpt>
<trkpt lat="46.0398080" lon="10.3831410">
	<ele>1627.80</ele>
	<time>2024-07-24T09:02:34.000Z</time>
</trkpt>
<trkpt lat="46.0398190" lon="10.3831380">
	<ele>1628.00</ele>
	<time>2024-07-24T09:02:35.000Z</time>
</trkpt>
<trkpt lat="46.0398310" lon="10.3831420">
	<ele>1628.20</ele>
	<time>2024-07-24T09:02:36.000Z</time>
</trkpt>
<trkpt lat="46.0398410" lon="10.3831420">
	<ele>1628.40</ele>
	<time>2024-07-24T09:02:37.000Z</time>
</trkpt>
<trkpt lat="46.0398520" lon="10.3831390">
	<ele>1628.80</ele>
	<time>2024-07-24T09:02:38.000Z</time>
</trkpt>
<trkpt lat="46.0398560" lon="10.3831400">
	<ele>1629.00</ele>
	<time>2024-07-24T09:02:39.000Z</time>
</trkpt>
<trkpt lat="46.0398740" lon="10.3831410">
	<ele>1629.00</ele>
	<time>2024-07-24T09:02:40.000Z</time>
</trkpt>
<trkpt lat="46.0398880" lon="10.3831360">
	<ele>1629.20</ele>
	<time>2024-07-24T09:02:41.000Z</time>
</trkpt>
<trkpt lat="46.0398990" lon="10.3831330">
	<ele>1629.40</ele>
	<time>2024-07-24T09:02:42.000Z</time>
</trkpt>
<trkpt lat="46.0399130" lon="10.3831290">
	<ele>1629.40</ele>
	<time>2024-07-24T09:02:43.000Z</time>
</trkpt>
<trkpt lat="46.0399220" lon="10.3831260">
	<ele>1629.60</ele>
	<time>2024-07-24T09:02:44.000Z</time>
</trkpt>
<trkpt lat="46.0399330" lon="10.3831210">
	<ele>1629.60</ele>
	<time>2024-07-24T09:02:45.000Z</time>
</trkpt>
<trkpt lat="46.0399480" lon="10.3831180">
	<ele>1629.80</ele>
	<time>2024-07-24T09:02:46.000Z</time>
</trkpt>
<trkpt lat="46.0399610" lon="10.3831170">
	<ele>1629.80</ele>
	<time>2024-07-24T09:02:47.000Z</time>
</trkpt>
<trkpt lat="46.0399750" lon="10.3831150">
	<ele>1629.80</ele>
	<time>2024-07-24T09:02:48.000Z</time>
</trkpt>
<trkpt lat="46.0399880" lon="10.3831120">
	<ele>1630.00</ele>
	<time>2024-07-24T09:02:49.000Z</time>
</trkpt>
<trkpt lat="46.0400040" lon="10.3831080">
	<ele>1630.00</ele>
	<time>2024-07-24T09:02:50.000Z</time>
</trkpt>
<trkpt lat="46.0400200" lon="10.3831020">
	<ele>1630.20</ele>
	<time>2024-07-24T09:02:51.000Z</time>
</trkpt>
<trkpt lat="46.0400330" lon="10.3831020">
	<ele>1630.20</ele>
	<time>2024-07-24T09:02:52.000Z</time>
</trkpt>
<trkpt lat="46.0400430" lon="10.3831020">
	<ele>1630.40</ele>
	<time>2024-07-24T09:02:53.000Z</time>
</trkpt>
<trkpt lat="46.0400550" lon="10.3831020">
	<ele>1630.40</ele>
	<time>2024-07-24T09:02:54.000Z</time>
</trkpt>
<trkpt lat="46.0400680" lon="10.3831010">
	<ele>1630.40</ele>
	<time>2024-07-24T09:02:55.000Z</time>
</trkpt>
<trkpt lat="46.0400770" lon="10.3830950">
	<ele>1630.60</ele>
	<time>2024-07-24T09:02:56.000Z</time>
</trkpt>
<trkpt lat="46.0400890" lon="10.3830920">
	<ele>1630.60</ele>
	<time>2024-07-24T09:02:57.000Z</time>
</trkpt>
<trkpt lat="46.0400950" lon="10.3830830">
	<ele>1630.80</ele>
	<time>2024-07-24T09:02:58.000Z</time>
</trkpt>
<trkpt lat="46.0401070" lon="10.3830750">
	<ele>1630.80</ele>
	<time>2024-07-24T09:02:59.000Z</time>
</trkpt>
<trkpt lat="46.0401120" lon="10.3830640">
	<ele>1631.00</ele>
	<time>2024-07-24T09:03:00.000Z</time>
</trkpt>
<trkpt lat="46.0401100" lon="10.3830380">
	<ele>1631.20</ele>
	<time>2024-07-24T09:03:01.000Z</time>
</trkpt>
<trkpt lat="46.0401180" lon="10.3830350">
	<ele>1631.20</ele>
	<time>2024-07-24T09:03:02.000Z</time>
</trkpt>
<trkpt lat="46.0401290" lon="10.3830460">
	<ele>1631.40</ele>
	<time>2024-07-24T09:03:03.000Z</time>
</trkpt>
<trkpt lat="46.0401430" lon="10.3830510">
	<ele>1631.60</ele>
	<time>2024-07-24T09:03:04.000Z</time>
</trkpt>
<trkpt lat="46.0401600" lon="10.3830510">
	<ele>1631.60</ele>
	<time>2024-07-24T09:03:05.000Z</time>
</trkpt>
<trkpt lat="46.0401780" lon="10.3830570">
	<ele>1631.60</ele>
	<time>2024-07-24T09:03:06.000Z</time>
</trkpt>
<trkpt lat="46.0401910" lon="10.3830610">
	<ele>1631.80</ele>
	<time>2024-07-24T09:03:07.000Z</time>
</trkpt>
<trkpt lat="46.0402000" lon="10.3830500">
	<ele>1631.80</ele>
	<time>2024-07-24T09:03:08.000Z</time>
</trkpt>
<trkpt lat="46.0402200" lon="10.3830540">
	<ele>1632.00</ele>
	<time>2024-07-24T09:03:09.000Z</time>
</trkpt>
<trkpt lat="46.0402340" lon="10.3830540">
	<ele>1632.00</ele>
	<time>2024-07-24T09:03:10.000Z</time>
</trkpt>
<trkpt lat="46.0402420" lon="10.3830510">
	<ele>1632.20</ele>
	<time>2024-07-24T09:03:11.000Z</time>
</trkpt>
<trkpt lat="46.0402550" lon="10.3830420">
	<ele>1632.40</ele>
	<time>2024-07-24T09:03:12.000Z</time>
</trkpt>
<trkpt lat="46.0402670" lon="10.3830350">
	<ele>1632.40</ele>
	<time>2024-07-24T09:03:13.000Z</time>
</trkpt>
<trkpt lat="46.0402780" lon="10.3830290">
	<ele>1632.60</ele>
	<time>2024-07-24T09:03:14.000Z</time>
</trkpt>
<trkpt lat="46.0402860" lon="10.3830260">
	<ele>1632.80</ele>
	<time>2024-07-24T09:03:15.000Z</time>
</trkpt>
<trkpt lat="46.0402980" lon="10.3830260">
	<ele>1633.00</ele>
	<time>2024-07-24T09:03:16.000Z</time>
</trkpt>
<trkpt lat="46.0403070" lon="10.3830330">
	<ele>1633.20</ele>
	<time>2024-07-24T09:03:17.000Z</time>
</trkpt>
<trkpt lat="46.0403160" lon="10.3830420">
	<ele>1633.20</ele>
	<time>2024-07-24T09:03:18.000Z</time>
</trkpt>
<trkpt lat="46.0403280" lon="10.3830500">
	<ele>1633.20</ele>
	<time>2024-07-24T09:03:19.000Z</time>
</trkpt>
<trkpt lat="46.0403390" lon="10.3830530">
	<ele>1633.20</ele>
	<time>2024-07-24T09:03:20.000Z</time>
</trkpt>
<trkpt lat="46.0403470" lon="10.3830610">
	<ele>1633.60</ele>
	<time>2024-07-24T09:03:21.000Z</time>
</trkpt>
<trkpt lat="46.0403560" lon="10.3830720">
	<ele>1633.80</ele>
	<time>2024-07-24T09:03:22.000Z</time>
</trkpt>
<trkpt lat="46.0403640" lon="10.3830810">
	<ele>1633.80</ele>
	<time>2024-07-24T09:03:23.000Z</time>
</trkpt>
<trkpt lat="46.0403750" lon="10.3830910">
	<ele>1634.00</ele>
	<time>2024-07-24T09:03:24.000Z</time>
</trkpt>
<trkpt lat="46.0403870" lon="10.3830960">
	<ele>1634.20</ele>
	<time>2024-07-24T09:03:25.000Z</time>
</trkpt>
<trkpt lat="46.0403980" lon="10.3831040">
	<ele>1634.40</ele>
	<time>2024-07-24T09:03:26.000Z</time>
</trkpt>
<trkpt lat="46.0404040" lon="10.3831090">
	<ele>1634.40</ele>
	<time>2024-07-24T09:03:27.000Z</time>
</trkpt>
<trkpt lat="46.0404090" lon="10.3831100">
	<ele>1634.60</ele>
	<time>2024-07-24T09:03:28.000Z</time>
</trkpt>
<trkpt lat="46.0404150" lon="10.3831080">
	<ele>1634.80</ele>
	<time>2024-07-24T09:03:29.000Z</time>
</trkpt>
<trkpt lat="46.0404200" lon="10.3831110">
	<ele>1635.00</ele>
	<time>2024-07-24T09:03:30.000Z</time>
</trkpt>
<trkpt lat="46.0404240" lon="10.3831110">
	<ele>1635.20</ele>
	<time>2024-07-24T09:03:31.000Z</time>
</trkpt>
<trkpt lat="46.0404280" lon="10.3831170">
	<ele>1635.40</ele>
	<time>2024-07-24T09:03:32.000Z</time>
</trkpt>
<trkpt lat="46.0404370" lon="10.3831260">
	<ele>1635.40</ele>
	<time>2024-07-24T09:03:33.000Z</time>
</trkpt>
<trkpt lat="46.0404440" lon="10.3831290">
	<ele>1635.60</ele>
	<time>2024-07-24T09:03:34.000Z</time>
</trkpt>
<trkpt lat="46.0404500" lon="10.3831390">
	<ele>1635.60</ele>
	<time>2024-07-24T09:03:35.000Z</time>
</trkpt>
<trkpt lat="46.0404590" lon="10.3831480">
	<ele>1635.60</ele>
	<time>2024-07-24T09:03:36.000Z</time>
</trkpt>
<trkpt lat="46.0404700" lon="10.3831550">
	<ele>1635.60</ele>
	<time>2024-07-24T09:03:37.000Z</time>
</trkpt>
<trkpt lat="46.0404800" lon="10.3831600">
	<ele>1635.60</ele>
	<time>2024-07-24T09:03:38.000Z</time>
</trkpt>
<trkpt lat="46.0404920" lon="10.3831660">
	<ele>1635.60</ele>
	<time>2024-07-24T09:03:39.000Z</time>
</trkpt>
<trkpt lat="46.0405040" lon="10.3831750">
	<ele>1635.60</ele>
	<time>2024-07-24T09:03:40.000Z</time>
</trkpt>
<trkpt lat="46.0405140" lon="10.3831890">
	<ele>1635.60</ele>
	<time>2024-07-24T09:03:41.000Z</time>
</trkpt>
<trkpt lat="46.0405230" lon="10.3832050">
	<ele>1635.40</ele>
	<time>2024-07-24T09:03:42.000Z</time>
</trkpt>
<trkpt lat="46.0405290" lon="10.3832210">
	<ele>1635.40</ele>
	<time>2024-07-24T09:03:43.000Z</time>
</trkpt>
<trkpt lat="46.0405370" lon="10.3832350">
	<ele>1635.40</ele>
	<time>2024-07-24T09:03:44.000Z</time>
</trkpt>
<trkpt lat="46.0405490" lon="10.3832490">
	<ele>1635.40</ele>
	<time>2024-07-24T09:03:45.000Z</time>
</trkpt>
<trkpt lat="46.0405580" lon="10.3832620">
	<ele>1635.40</ele>
	<time>2024-07-24T09:03:46.000Z</time>
</trkpt>
<trkpt lat="46.0405670" lon="10.3832690">
	<ele>1635.20</ele>
	<time>2024-07-24T09:03:47.000Z</time>
</trkpt>
<trkpt lat="46.0405730" lon="10.3832790">
	<ele>1635.20</ele>
	<time>2024-07-24T09:03:48.000Z</time>
</trkpt>
<trkpt lat="46.0405820" lon="10.3832910">
	<ele>1635.20</ele>
	<time>2024-07-24T09:03:49.000Z</time>
</trkpt>
<trkpt lat="46.0405910" lon="10.3833070">
	<ele>1635.20</ele>
	<time>2024-07-24T09:03:50.000Z</time>
</trkpt>
<trkpt lat="46.0406000" lon="10.3833230">
	<ele>1635.20</ele>
	<time>2024-07-24T09:03:51.000Z</time>
</trkpt>
<trkpt lat="46.0406090" lon="10.3833340">
	<ele>1635.20</ele>
	<time>2024-07-24T09:03:52.000Z</time>
</trkpt>
<trkpt lat="46.0406180" lon="10.3833490">
	<ele>1635.20</ele>
	<time>2024-07-24T09:03:53.000Z</time>
</trkpt>
<trkpt lat="46.0406280" lon="10.3833590">
	<ele>1635.20</ele>
	<time>2024-07-24T09:03:54.000Z</time>
</trkpt>
<trkpt lat="46.0406340" lon="10.3833670">
	<ele>1635.20</ele>
	<time>2024-07-24T09:03:55.000Z</time>
</trkpt>
<trkpt lat="46.0406390" lon="10.3833760">
	<ele>1635.20</ele>
	<time>2024-07-24T09:03:56.000Z</time>
</trkpt>
<trkpt lat="46.0406480" lon="10.3833840">
	<ele>1635.20</ele>
	<time>2024-07-24T09:03:57.000Z</time>
</trkpt>
<trkpt lat="46.0406580" lon="10.3834010">
	<ele>1635.20</ele>
	<time>2024-07-24T09:03:58.000Z</time>
</trkpt>
<trkpt lat="46.0406740" lon="10.3834170">
	<ele>1635.20</ele>
	<time>2024-07-24T09:03:59.000Z</time>
</trkpt>
<trkpt lat="46.0406850" lon="10.3834280">
	<ele>1635.20</ele>
	<time>2024-07-24T09:04:00.000Z</time>
</trkpt>
<trkpt lat="46.0406920" lon="10.3834390">
	<ele>1635.20</ele>
	<time>2024-07-24T09:04:01.000Z</time>
</trkpt>
<trkpt lat="46.0407030" lon="10.3834520">
	<ele>1635.20</ele>
	<time>2024-07-24T09:04:02.000Z</time>
</trkpt>
<trkpt lat="46.0407160" lon="10.3834620">
	<ele>1635.20</ele>
	<time>2024-07-24T09:04:03.000Z</time>
</trkpt>
<trkpt lat="46.0407350" lon="10.3834690">
	<ele>1635.20</ele>
	<time>2024-07-24T09:04:04.000Z</time>
</trkpt>
<trkpt lat="46.0407490" lon="10.3834750">
	<ele>1635.20</ele>
	<time>2024-07-24T09:04:05.000Z</time>
</trkpt>
<trkpt lat="46.0407580" lon="10.3834880">
	<ele>1635.20</ele>
	<time>2024-07-24T09:04:06.000Z</time>
</trkpt>
<trkpt lat="46.0407600" lon="10.3834920">
	<ele>1635.20</ele>
	<time>2024-07-24T09:04:07.000Z</time>
</trkpt>
<trkpt lat="46.0407590" lon="10.3834920">
	<ele>1635.20</ele>
	<time>2024-07-24T09:04:08.000Z</time>
</trkpt>
<trkpt lat="46.0407590" lon="10.3834920">
	<ele>1635.00</ele>
	<time>2024-07-24T09:04:09.000Z</time>
</trkpt>
<trkpt lat="46.0407590" lon="10.3834930">
	<ele>1635.00</ele>
	<time>2024-07-24T09:04:10.000Z</time>
</trkpt>
<trkpt lat="46.0407630" lon="10.3834930">
	<ele>1635.00</ele>
	<time>2024-07-24T09:04:11.000Z</time>
</trkpt>
<trkpt lat="46.0407640" lon="10.3834940">
	<ele>1635.20</ele>
	<time>2024-07-24T09:04:12.000Z</time>
</trkpt>
<trkpt lat="46.0407630" lon="10.3834950">
	<ele>1635.20</ele>
	<time>2024-07-24T09:04:13.000Z</time>
</trkpt>
<trkpt lat="46.0407610" lon="10.3834970">
	<ele>1635.20</ele>
	<time>2024-07-24T09:04:14.000Z</time>
</trkpt>
<trkpt lat="46.0407660" lon="10.3834960">
	<ele>1635.20</ele>
	<time>2024-07-24T09:04:15.000Z</time>
</trkpt>
<trkpt lat="46.0407740" lon="10.3834990">
	<ele>1635.20</ele>
	<time>2024-07-24T09:04:16.000Z</time>
</trkpt>
<trkpt lat="46.0407860" lon="10.3835100">
	<ele>1635.20</ele>
	<time>2024-07-24T09:04:17.000Z</time>
</trkpt>
<trkpt lat="46.0407960" lon="10.3835150">
	<ele>1635.20</ele>
	<time>2024-07-24T09:04:18.000Z</time>
</trkpt>
<trkpt lat="46.0408120" lon="10.3835180">
	<ele>1635.20</ele>
	<time>2024-07-24T09:04:19.000Z</time>
</trkpt>
<trkpt lat="46.0408260" lon="10.3835230">
	<ele>1635.40</ele>
	<time>2024-07-24T09:04:20.000Z</time>
</trkpt>
<trkpt lat="46.0408380" lon="10.3835310">
	<ele>1635.40</ele>
	<time>2024-07-24T09:04:21.000Z</time>
</trkpt>
<trkpt lat="46.0408500" lon="10.3835390">
	<ele>1635.60</ele>
	<time>2024-07-24T09:04:22.000Z</time>
</trkpt>
<trkpt lat="46.0408650" lon="10.3835470">
	<ele>1635.60</ele>
	<time>2024-07-24T09:04:23.000Z</time>
</trkpt>
<trkpt lat="46.0408760" lon="10.3835560">
	<ele>1635.60</ele>
	<time>2024-07-24T09:04:24.000Z</time>
</trkpt>
<trkpt lat="46.0408880" lon="10.3835670">
	<ele>1635.60</ele>
	<time>2024-07-24T09:04:25.000Z</time>
</trkpt>
<trkpt lat="46.0409000" lon="10.3835720">
	<ele>1635.80</ele>
	<time>2024-07-24T09:04:26.000Z</time>
</trkpt>
<trkpt lat="46.0409100" lon="10.3835780">
	<ele>1635.80</ele>
	<time>2024-07-24T09:04:27.000Z</time>
</trkpt>
<trkpt lat="46.0409200" lon="10.3835840">
	<ele>1635.80</ele>
	<time>2024-07-24T09:04:28.000Z</time>
</trkpt>
<trkpt lat="46.0409300" lon="10.3835940">
	<ele>1635.80</ele>
	<time>2024-07-24T09:04:29.000Z</time>
</trkpt>
<trkpt lat="46.0409400" lon="10.3836000">
	<ele>1636.00</ele>
	<time>2024-07-24T09:04:30.000Z</time>
</trkpt>
<trkpt lat="46.0409510" lon="10.3836100">
	<ele>1636.00</ele>
	<time>2024-07-24T09:04:31.000Z</time>
</trkpt>
<trkpt lat="46.0409630" lon="10.3836240">
	<ele>1636.20</ele>
	<time>2024-07-24T09:04:32.000Z</time>
</trkpt>
<trkpt lat="46.0409730" lon="10.3836370">
	<ele>1636.20</ele>
	<time>2024-07-24T09:04:33.000Z</time>
</trkpt>
<trkpt lat="46.0409840" lon="10.3836460">
	<ele>1636.40</ele>
	<time>2024-07-24T09:04:34.000Z</time>
</trkpt>
<trkpt lat="46.0409960" lon="10.3836510">
	<ele>1636.60</ele>
	<time>2024-07-24T09:04:35.000Z</time>
</trkpt>
<trkpt lat="46.0410050" lon="10.3836530">
	<ele>1636.60</ele>
	<time>2024-07-24T09:04:36.000Z</time>
</trkpt>
<trkpt lat="46.0410140" lon="10.3836630">
	<ele>1636.80</ele>
	<time>2024-07-24T09:04:37.000Z</time>
</trkpt>
<trkpt lat="46.0410240" lon="10.3836750">
	<ele>1637.00</ele>
	<time>2024-07-24T09:04:38.000Z</time>
</trkpt>
<trkpt lat="46.0410330" lon="10.3836850">
	<ele>1637.00</ele>
	<time>2024-07-24T09:04:39.000Z</time>
</trkpt>
<trkpt lat="46.0410410" lon="10.3836970">
	<ele>1637.20</ele>
	<time>2024-07-24T09:04:40.000Z</time>
</trkpt>
<trkpt lat="46.0410480" lon="10.3837120">
	<ele>1637.20</ele>
	<time>2024-07-24T09:04:41.000Z</time>
</trkpt>
<trkpt lat="46.0410580" lon="10.3837240">
	<ele>1637.40</ele>
	<time>2024-07-24T09:04:42.000Z</time>
</trkpt>
<trkpt lat="46.0410650" lon="10.3837340">
	<ele>1637.40</ele>
	<time>2024-07-24T09:04:43.000Z</time>
</trkpt>
<trkpt lat="46.0410700" lon="10.3837460">
	<ele>1637.60</ele>
	<time>2024-07-24T09:04:44.000Z</time>
</trkpt>
<trkpt lat="46.0410790" lon="10.3837590">
	<ele>1637.80</ele>
	<time>2024-07-24T09:04:45.000Z</time>
</trkpt>
<trkpt lat="46.0410870" lon="10.3837650">
	<ele>1638.00</ele>
	<time>2024-07-24T09:04:46.000Z</time>
</trkpt>
<trkpt lat="46.0410970" lon="10.3837710">
	<ele>1638.20</ele>
	<time>2024-07-24T09:04:47.000Z</time>
</trkpt>
<trkpt lat="46.0411070" lon="10.3837790">
	<ele>1638.40</ele>
	<time>2024-07-24T09:04:48.000Z</time>
</trkpt>
<trkpt lat="46.0411160" lon="10.3837920">
	<ele>1638.40</ele>
	<time>2024-07-24T09:04:49.000Z</time>
</trkpt>
<trkpt lat="46.0411240" lon="10.3838010">
	<ele>1638.60</ele>
	<time>2024-07-24T09:04:50.000Z</time>
</trkpt>
<trkpt lat="46.0411310" lon="10.3838110">
	<ele>1638.80</ele>
	<time>2024-07-24T09:04:51.000Z</time>
</trkpt>
<trkpt lat="46.0411370" lon="10.3838220">
	<ele>1638.80</ele>
	<time>2024-07-24T09:04:52.000Z</time>
</trkpt>
<trkpt lat="46.0411430" lon="10.3838320">
	<ele>1639.20</ele>
	<time>2024-07-24T09:04:53.000Z</time>
</trkpt>
<trkpt lat="46.0411490" lon="10.3838390">
	<ele>1639.40</ele>
	<time>2024-07-24T09:04:54.000Z</time>
</trkpt>
<trkpt lat="46.0411550" lon="10.3838460">
	<ele>1639.60</ele>
	<time>2024-07-24T09:04:55.000Z</time>
</trkpt>
<trkpt lat="46.0411630" lon="10.3838550">
	<ele>1639.80</ele>
	<time>2024-07-24T09:04:56.000Z</time>
</trkpt>
<trkpt lat="46.0411700" lon="10.3838620">
	<ele>1640.00</ele>
	<time>2024-07-24T09:04:57.000Z</time>
</trkpt>
<trkpt lat="46.0411780" lon="10.3838650">
	<ele>1640.20</ele>
	<time>2024-07-24T09:04:58.000Z</time>
</trkpt>
<trkpt lat="46.0411860" lon="10.3838710">
	<ele>1640.40</ele>
	<time>2024-07-24T09:04:59.000Z</time>
</trkpt>
<trkpt lat="46.0411910" lon="10.3838800">
	<ele>1640.40</ele>
	<time>2024-07-24T09:05:00.000Z</time>
</trkpt>
<trkpt lat="46.0411980" lon="10.3838900">
	<ele>1640.60</ele>
	<time>2024-07-24T09:05:01.000Z</time>
</trkpt>
<trkpt lat="46.0412050" lon="10.3838970">
	<ele>1640.80</ele>
	<time>2024-07-24T09:05:02.000Z</time>
</trkpt>
<trkpt lat="46.0412170" lon="10.3839030">
	<ele>1640.80</ele>
	<time>2024-07-24T09:05:03.000Z</time>
</trkpt>
<trkpt lat="46.0412230" lon="10.3839140">
	<ele>1641.00</ele>
	<time>2024-07-24T09:05:04.000Z</time>
</trkpt>
<trkpt lat="46.0412310" lon="10.3839230">
	<ele>1641.20</ele>
	<time>2024-07-24T09:05:05.000Z</time>
</trkpt>
<trkpt lat="46.0412380" lon="10.3839350">
	<ele>1641.40</ele>
	<time>2024-07-24T09:05:06.000Z</time>
</trkpt>
<trkpt lat="46.0412450" lon="10.3839470">
	<ele>1641.60</ele>
	<time>2024-07-24T09:05:07.000Z</time>
</trkpt>
<trkpt lat="46.0412510" lon="10.3839580">
	<ele>1641.80</ele>
	<time>2024-07-24T09:05:08.000Z</time>
</trkpt>
<trkpt lat="46.0412580" lon="10.3839690">
	<ele>1642.00</ele>
	<time>2024-07-24T09:05:09.000Z</time>
</trkpt>
<trkpt lat="46.0412660" lon="10.3839830">
	<ele>1642.20</ele>
	<time>2024-07-24T09:05:10.000Z</time>
</trkpt>
<trkpt lat="46.0412760" lon="10.3839940">
	<ele>1642.20</ele>
	<time>2024-07-24T09:05:11.000Z</time>
</trkpt>
<trkpt lat="46.0412860" lon="10.3840050">
	<ele>1642.40</ele>
	<time>2024-07-24T09:05:12.000Z</time>
</trkpt>
<trkpt lat="46.0412970" lon="10.3840140">
	<ele>1642.40</ele>
	<time>2024-07-24T09:05:13.000Z</time>
</trkpt>
<trkpt lat="46.0413060" lon="10.3840220">
	<ele>1642.60</ele>
	<time>2024-07-24T09:05:14.000Z</time>
</trkpt>
<trkpt lat="46.0413120" lon="10.3840310">
	<ele>1642.80</ele>
	<time>2024-07-24T09:05:15.000Z</time>
</trkpt>
<trkpt lat="46.0413190" lon="10.3840420">
	<ele>1643.00</ele>
	<time>2024-07-24T09:05:16.000Z</time>
</trkpt>
<trkpt lat="46.0413260" lon="10.3840510">
	<ele>1643.20</ele>
	<time>2024-07-24T09:05:17.000Z</time>
</trkpt>
<trkpt lat="46.0413360" lon="10.3840590">
	<ele>1643.20</ele>
	<time>2024-07-24T09:05:18.000Z</time>
</trkpt>
<trkpt lat="46.0413460" lon="10.3840650">
	<ele>1643.40</ele>
	<time>2024-07-24T09:05:19.000Z</time>
</trkpt>
<trkpt lat="46.0413540" lon="10.3840740">
	<ele>1643.40</ele>
	<time>2024-07-24T09:05:20.000Z</time>
</trkpt>
<trkpt lat="46.0413620" lon="10.3840860">
	<ele>1643.60</ele>
	<time>2024-07-24T09:05:21.000Z</time>
</trkpt>
<trkpt lat="46.0413690" lon="10.3840970">
	<ele>1643.60</ele>
	<time>2024-07-24T09:05:22.000Z</time>
</trkpt>
<trkpt lat="46.0413740" lon="10.3841100">
	<ele>1643.60</ele>
	<time>2024-07-24T09:05:23.000Z</time>
</trkpt>
<trkpt lat="46.0413800" lon="10.3841190">
	<ele>1643.60</ele>
	<time>2024-07-24T09:05:24.000Z</time>
</trkpt>
<trkpt lat="46.0413890" lon="10.3841270">
	<ele>1643.80</ele>
	<time>2024-07-24T09:05:25.000Z</time>
</trkpt>
<trkpt lat="46.0413970" lon="10.3841360">
	<ele>1643.80</ele>
	<time>2024-07-24T09:05:26.000Z</time>
</trkpt>
<trkpt lat="46.0414020" lon="10.3841490">
	<ele>1643.80</ele>
	<time>2024-07-24T09:05:27.000Z</time>
</trkpt>
<trkpt lat="46.0414100" lon="10.3841650">
	<ele>1643.80</ele>
	<time>2024-07-24T09:05:28.000Z</time>
</trkpt>
<trkpt lat="46.0414200" lon="10.3841800">
	<ele>1643.80</ele>
	<time>2024-07-24T09:05:29.000Z</time>
</trkpt>
<trkpt lat="46.0414310" lon="10.3841970">
	<ele>1643.80</ele>
	<time>2024-07-24T09:05:30.000Z</time>
</trkpt>
<trkpt lat="46.0414440" lon="10.3842130">
	<ele>1643.80</ele>
	<time>2024-07-24T09:05:31.000Z</time>
</trkpt>
<trkpt lat="46.0414620" lon="10.3842250">
	<ele>1643.80</ele>
	<time>2024-07-24T09:05:32.000Z</time>
</trkpt>
<trkpt lat="46.0414740" lon="10.3842340">
	<ele>1643.80</ele>
	<time>2024-07-24T09:05:33.000Z</time>
</trkpt>
<trkpt lat="46.0414820" lon="10.3842400">
	<ele>1643.80</ele>
	<time>2024-07-24T09:05:34.000Z</time>
</trkpt>
<trkpt lat="46.0414910" lon="10.3842460">
	<ele>1643.80</ele>
	<time>2024-07-24T09:05:35.000Z</time>
</trkpt>
<trkpt lat="46.0415010" lon="10.3842530">
	<ele>1643.80</ele>
	<time>2024-07-24T09:05:36.000Z</time>
</trkpt>
<trkpt lat="46.0415100" lon="10.3842630">
	<ele>1643.80</ele>
	<time>2024-07-24T09:05:37.000Z</time>
</trkpt>
<trkpt lat="46.0415190" lon="10.3842750">
	<ele>1643.80</ele>
	<time>2024-07-24T09:05:38.000Z</time>
</trkpt>
<trkpt lat="46.0415300" lon="10.3842890">
	<ele>1644.00</ele>
	<time>2024-07-24T09:05:39.000Z</time>
</trkpt>
<trkpt lat="46.0415410" lon="10.3843050">
	<ele>1644.00</ele>
	<time>2024-07-24T09:05:40.000Z</time>
</trkpt>
<trkpt lat="46.0415530" lon="10.3843220">
	<ele>1644.00</ele>
	<time>2024-07-24T09:05:41.000Z</time>
</trkpt>
<trkpt lat="46.0415640" lon="10.3843400">
	<ele>1644.00</ele>
	<time>2024-07-24T09:05:42.000Z</time>
</trkpt>
<trkpt lat="46.0415730" lon="10.3843600">
	<ele>1644.00</ele>
	<time>2024-07-24T09:05:43.000Z</time>
</trkpt>
<trkpt lat="46.0415830" lon="10.3843720">
	<ele>1644.00</ele>
	<time>2024-07-24T09:05:44.000Z</time>
</trkpt>
<trkpt lat="46.0415890" lon="10.3843820">
	<ele>1644.00</ele>
	<time>2024-07-24T09:05:45.000Z</time>
</trkpt>
<trkpt lat="46.0415990" lon="10.3843940">
	<ele>1644.20</ele>
	<time>2024-07-24T09:05:46.000Z</time>
</trkpt>
<trkpt lat="46.0416110" lon="10.3844080">
	<ele>1644.20</ele>
	<time>2024-07-24T09:05:47.000Z</time>
</trkpt>
<trkpt lat="46.0416220" lon="10.3844200">
	<ele>1644.20</ele>
	<time>2024-07-24T09:05:48.000Z</time>
</trkpt>
<trkpt lat="46.0416320" lon="10.3844320">
	<ele>1644.20</ele>
	<time>2024-07-24T09:05:49.000Z</time>
</trkpt>
<trkpt lat="46.0416420" lon="10.3844450">
	<ele>1644.40</ele>
	<time>2024-07-24T09:05:50.000Z</time>
</trkpt>
<trkpt lat="46.0416490" lon="10.3844580">
	<ele>1644.40</ele>
	<time>2024-07-24T09:05:51.000Z</time>
</trkpt>
<trkpt lat="46.0416600" lon="10.3844720">
	<ele>1644.40</ele>
	<time>2024-07-24T09:05:52.000Z</time>
</trkpt>
<trkpt lat="46.0416670" lon="10.3844820">
	<ele>1644.40</ele>
	<time>2024-07-24T09:05:53.000Z</time>
</trkpt>
<trkpt lat="46.0416710" lon="10.3844890">
	<ele>1644.40</ele>
	<time>2024-07-24T09:05:54.000Z</time>
</trkpt>
<trkpt lat="46.0416760" lon="10.3844970">
	<ele>1644.60</ele>
	<time>2024-07-24T09:05:55.000Z</time>
</trkpt>
<trkpt lat="46.0416830" lon="10.3845100">
	<ele>1644.60</ele>
	<time>2024-07-24T09:05:56.000Z</time>
</trkpt>
<trkpt lat="46.0416930" lon="10.3845210">
	<ele>1644.80</ele>
	<time>2024-07-24T09:05:57.000Z</time>
</trkpt>
<trkpt lat="46.0417040" lon="10.3845270">
	<ele>1644.80</ele>
	<time>2024-07-24T09:05:58.000Z</time>
</trkpt>
<trkpt lat="46.0417140" lon="10.3845340">
	<ele>1645.00</ele>
	<time>2024-07-24T09:05:59.000Z</time>
</trkpt>
<trkpt lat="46.0417240" lon="10.3845440">
	<ele>1645.20</ele>
	<time>2024-07-24T09:06:00.000Z</time>
</trkpt>
<trkpt lat="46.0417320" lon="10.3845510">
	<ele>1645.40</ele>
	<time>2024-07-24T09:06:01.000Z</time>
</trkpt>
<trkpt lat="46.0417390" lon="10.3845600">
	<ele>1645.40</ele>
	<time>2024-07-24T09:06:02.000Z</time>
</trkpt>
<trkpt lat="46.0417470" lon="10.3845680">
	<ele>1645.60</ele>
	<time>2024-07-24T09:06:03.000Z</time>
</trkpt>
<trkpt lat="46.0417570" lon="10.3845750">
	<ele>1645.60</ele>
	<time>2024-07-24T09:06:04.000Z</time>
</trkpt>
<trkpt lat="46.0417660" lon="10.3845840">
	<ele>1646.00</ele>
	<time>2024-07-24T09:06:05.000Z</time>
</trkpt>
<trkpt lat="46.0417720" lon="10.3845950">
	<ele>1646.20</ele>
	<time>2024-07-24T09:06:06.000Z</time>
</trkpt>
<trkpt lat="46.0417770" lon="10.3846070">
	<ele>1646.40</ele>
	<time>2024-07-24T09:06:07.000Z</time>
</trkpt>
<trkpt lat="46.0417830" lon="10.3846180">
	<ele>1646.60</ele>
	<time>2024-07-24T09:06:08.000Z</time>
</trkpt>
<trkpt lat="46.0417900" lon="10.3846280">
	<ele>1646.80</ele>
	<time>2024-07-24T09:06:09.000Z</time>
</trkpt>
<trkpt lat="46.0417950" lon="10.3846340">
	<ele>1647.00</ele>
	<time>2024-07-24T09:06:10.000Z</time>
</trkpt>
<trkpt lat="46.0418000" lon="10.3846380">
	<ele>1647.20</ele>
	<time>2024-07-24T09:06:11.000Z</time>
</trkpt>
<trkpt lat="46.0418060" lon="10.3846420">
	<ele>1647.40</ele>
	<time>2024-07-24T09:06:12.000Z</time>
</trkpt>
<trkpt lat="46.0418090" lon="10.3846430">
	<ele>1647.60</ele>
	<time>2024-07-24T09:06:13.000Z</time>
</trkpt>
<trkpt lat="46.0418170" lon="10.3846480">
	<ele>1647.80</ele>
	<time>2024-07-24T09:06:14.000Z</time>
</trkpt>
<trkpt lat="46.0418230" lon="10.3846530">
	<ele>1648.00</ele>
	<time>2024-07-24T09:06:15.000Z</time>
</trkpt>
<trkpt lat="46.0418280" lon="10.3846630">
	<ele>1648.20</ele>
	<time>2024-07-24T09:06:16.000Z</time>
</trkpt>
<trkpt lat="46.0418350" lon="10.3846780">
	<ele>1648.20</ele>
	<time>2024-07-24T09:06:17.000Z</time>
</trkpt>
<trkpt lat="46.0418390" lon="10.3846850">
	<ele>1648.40</ele>
	<time>2024-07-24T09:06:18.000Z</time>
</trkpt>
<trkpt lat="46.0418440" lon="10.3846920">
	<ele>1648.60</ele>
	<time>2024-07-24T09:06:19.000Z</time>
</trkpt>
<trkpt lat="46.0418490" lon="10.3847020">
	<ele>1648.80</ele>
	<time>2024-07-24T09:06:20.000Z</time>
</trkpt>
<trkpt lat="46.0418560" lon="10.3847140">
	<ele>1649.00</ele>
	<time>2024-07-24T09:06:21.000Z</time>
</trkpt>
<trkpt lat="46.0418630" lon="10.3847270">
	<ele>1649.20</ele>
	<time>2024-07-24T09:06:22.000Z</time>
</trkpt>
<trkpt lat="46.0418700" lon="10.3847390">
	<ele>1649.40</ele>
	<time>2024-07-24T09:06:23.000Z</time>
</trkpt>
<trkpt lat="46.0418800" lon="10.3847500">
	<ele>1649.40</ele>
	<time>2024-07-24T09:06:24.000Z</time>
</trkpt>
<trkpt lat="46.0418890" lon="10.3847610">
	<ele>1649.60</ele>
	<time>2024-07-24T09:06:25.000Z</time>
</trkpt>
<trkpt lat="46.0418960" lon="10.3847690">
	<ele>1649.80</ele>
	<time>2024-07-24T09:06:26.000Z</time>
</trkpt>
<trkpt lat="46.0419030" lon="10.3847770">
	<ele>1650.00</ele>
	<time>2024-07-24T09:06:27.000Z</time>
</trkpt>
<trkpt lat="46.0419100" lon="10.3847860">
	<ele>1650.20</ele>
	<time>2024-07-24T09:06:28.000Z</time>
</trkpt>
<trkpt lat="46.0419140" lon="10.3847960">
	<ele>1650.20</ele>
	<time>2024-07-24T09:06:29.000Z</time>
</trkpt>
<trkpt lat="46.0419200" lon="10.3848070">
	<ele>1650.40</ele>
	<time>2024-07-24T09:06:30.000Z</time>
</trkpt>
<trkpt lat="46.0419250" lon="10.3848120">
	<ele>1650.40</ele>
	<time>2024-07-24T09:06:31.000Z</time>
</trkpt>
<trkpt lat="46.0419350" lon="10.3848120">
	<ele>1650.60</ele>
	<time>2024-07-24T09:06:32.000Z</time>
</trkpt>
<trkpt lat="46.0419400" lon="10.3848090">
	<ele>1650.80</ele>
	<time>2024-07-24T09:06:33.000Z</time>
</trkpt>
<trkpt lat="46.0419440" lon="10.3848110">
	<ele>1651.00</ele>
	<time>2024-07-24T09:06:34.000Z</time>
</trkpt>
<trkpt lat="46.0419490" lon="10.3848190">
	<ele>1651.20</ele>
	<time>2024-07-24T09:06:35.000Z</time>
</trkpt>
<trkpt lat="46.0419540" lon="10.3848340">
	<ele>1651.20</ele>
	<time>2024-07-24T09:06:36.000Z</time>
</trkpt>
<trkpt lat="46.0419600" lon="10.3848490">
	<ele>1651.40</ele>
	<time>2024-07-24T09:06:37.000Z</time>
</trkpt>
<trkpt lat="46.0419680" lon="10.3848570">
	<ele>1651.60</ele>
	<time>2024-07-24T09:06:38.000Z</time>
</trkpt>
<trkpt lat="46.0419760" lon="10.3848610">
	<ele>1651.60</ele>
	<time>2024-07-24T09:06:39.000Z</time>
</trkpt>
<trkpt lat="46.0419880" lon="10.3848670">
	<ele>1651.80</ele>
	<time>2024-07-24T09:06:40.000Z</time>
</trkpt>
<trkpt lat="46.0420020" lon="10.3848790">
	<ele>1652.00</ele>
	<time>2024-07-24T09:06:41.000Z</time>
</trkpt>
<trkpt lat="46.0420150" lon="10.3848890">
	<ele>1652.20</ele>
	<time>2024-07-24T09:06:42.000Z</time>
</trkpt>
<trkpt lat="46.0420220" lon="10.3848880">
	<ele>1652.40</ele>
	<time>2024-07-24T09:06:43.000Z</time>
</trkpt>
<trkpt lat="46.0420300" lon="10.3848940">
	<ele>1652.60</ele>
	<time>2024-07-24T09:06:44.000Z</time>
</trkpt>
<trkpt lat="46.0420420" lon="10.3848990">
	<ele>1652.80</ele>
	<time>2024-07-24T09:06:45.000Z</time>
</trkpt>
<trkpt lat="46.0420520" lon="10.3849010">
	<ele>1653.00</ele>
	<time>2024-07-24T09:06:46.000Z</time>
</trkpt>
<trkpt lat="46.0420610" lon="10.3849100">
	<ele>1653.20</ele>
	<time>2024-07-24T09:06:47.000Z</time>
</trkpt>
<trkpt lat="46.0420670" lon="10.3849160">
	<ele>1653.40</ele>
	<time>2024-07-24T09:06:48.000Z</time>
</trkpt>
<trkpt lat="46.0420720" lon="10.3849250">
	<ele>1653.40</ele>
	<time>2024-07-24T09:06:49.000Z</time>
</trkpt>
<trkpt lat="46.0420780" lon="10.3849330">
	<ele>1653.60</ele>
	<time>2024-07-24T09:06:50.000Z</time>
</trkpt>
<trkpt lat="46.0420840" lon="10.3849410">
	<ele>1654.00</ele>
	<time>2024-07-24T09:06:51.000Z</time>
</trkpt>
<trkpt lat="46.0420900" lon="10.3849500">
	<ele>1654.20</ele>
	<time>2024-07-24T09:06:52.000Z</time>
</trkpt>
<trkpt lat="46.0420950" lon="10.3849600">
	<ele>1654.20</ele>
	<time>2024-07-24T09:06:53.000Z</time>
</trkpt>
<trkpt lat="46.0421010" lon="10.3849650">
	<ele>1654.40</ele>
	<time>2024-07-24T09:06:54.000Z</time>
</trkpt>
<trkpt lat="46.0421070" lon="10.3849720">
	<ele>1654.60</ele>
	<time>2024-07-24T09:06:55.000Z</time>
</trkpt>
<trkpt lat="46.0421060" lon="10.3849830">
	<ele>1654.60</ele>
	<time>2024-07-24T09:06:56.000Z</time>
</trkpt>
<trkpt lat="46.0421090" lon="10.3849940">
	<ele>1654.80</ele>
	<time>2024-07-24T09:06:57.000Z</time>
</trkpt>
<trkpt lat="46.0421140" lon="10.3850100">
	<ele>1655.00</ele>
	<time>2024-07-24T09:06:58.000Z</time>
</trkpt>
<trkpt lat="46.0421170" lon="10.3850240">
	<ele>1655.00</ele>
	<time>2024-07-24T09:06:59.000Z</time>
</trkpt>
<trkpt lat="46.0421220" lon="10.3850380">
	<ele>1655.20</ele>
	<time>2024-07-24T09:07:00.000Z</time>
</trkpt>
<trkpt lat="46.0421290" lon="10.3850570">
	<ele>1655.20</ele>
	<time>2024-07-24T09:07:01.000Z</time>
</trkpt>
<trkpt lat="46.0421370" lon="10.3850720">
	<ele>1655.40</ele>
	<time>2024-07-24T09:07:02.000Z</time>
</trkpt>
<trkpt lat="46.0421430" lon="10.3850800">
	<ele>1655.40</ele>
	<time>2024-07-24T09:07:03.000Z</time>
</trkpt>
<trkpt lat="46.0421490" lon="10.3850860">
	<ele>1655.60</ele>
	<time>2024-07-24T09:07:04.000Z</time>
</trkpt>
<trkpt lat="46.0421570" lon="10.3850890">
	<ele>1655.60</ele>
	<time>2024-07-24T09:07:05.000Z</time>
</trkpt>
<trkpt lat="46.0421610" lon="10.3850920">
	<ele>1655.60</ele>
	<time>2024-07-24T09:07:06.000Z</time>
</trkpt>
<trkpt lat="46.0421640" lon="10.3850920">
	<ele>1655.80</ele>
	<time>2024-07-24T09:07:07.000Z</time>
</trkpt>
<trkpt lat="46.0421650" lon="10.3850910">
	<ele>1655.80</ele>
	<time>2024-07-24T09:07:08.000Z</time>
</trkpt>
<trkpt lat="46.0421740" lon="10.3850890">
	<ele>1656.00</ele>
	<time>2024-07-24T09:07:09.000Z</time>
</trkpt>
<trkpt lat="46.0421800" lon="10.3850960">
	<ele>1656.00</ele>
	<time>2024-07-24T09:07:10.000Z</time>
</trkpt>
<trkpt lat="46.0421880" lon="10.3851130">
	<ele>1656.20</ele>
	<time>2024-07-24T09:07:11.000Z</time>
</trkpt>
<trkpt lat="46.0421960" lon="10.3851270">
	<ele>1656.20</ele>
	<time>2024-07-24T09:07:12.000Z</time>
</trkpt>
<trkpt lat="46.0422020" lon="10.3851490">
	<ele>1656.20</ele>
	<time>2024-07-24T09:07:13.000Z</time>
</trkpt>
<trkpt lat="46.0422120" lon="10.3851670">
	<ele>1656.20</ele>
	<time>2024-07-24T09:07:14.000Z</time>
</trkpt>
<trkpt lat="46.0422210" lon="10.3851800">
	<ele>1656.40</ele>
	<time>2024-07-24T09:07:15.000Z</time>
</trkpt>
<trkpt lat="46.0422360" lon="10.3851880">
	<ele>1656.40</ele>
	<time>2024-07-24T09:07:16.000Z</time>
</trkpt>
<trkpt lat="46.0422480" lon="10.3851770">
	<ele>1656.40</ele>
	<time>2024-07-24T09:07:17.000Z</time>
</trkpt>
<trkpt lat="46.0422590" lon="10.3851790">
	<ele>1656.60</ele>
	<time>2024-07-24T09:07:18.000Z</time>
</trkpt>
<trkpt lat="46.0422670" lon="10.3851820">
	<ele>1656.60</ele>
	<time>2024-07-24T09:07:19.000Z</time>
</trkpt>
<trkpt lat="46.0422780" lon="10.3851850">
	<ele>1656.60</ele>
	<time>2024-07-24T09:07:20.000Z</time>
</trkpt>
<trkpt lat="46.0422900" lon="10.3851830">
	<ele>1656.60</ele>
	<time>2024-07-24T09:07:21.000Z</time>
</trkpt>
<trkpt lat="46.0423030" lon="10.3851830">
	<ele>1656.60</ele>
	<time>2024-07-24T09:07:22.000Z</time>
</trkpt>
<trkpt lat="46.0423160" lon="10.3851840">
	<ele>1656.60</ele>
	<time>2024-07-24T09:07:23.000Z</time>
</trkpt>
<trkpt lat="46.0423290" lon="10.3851880">
	<ele>1656.60</ele>
	<time>2024-07-24T09:07:24.000Z</time>
</trkpt>
<trkpt lat="46.0423400" lon="10.3851930">
	<ele>1656.60</ele>
	<time>2024-07-24T09:07:25.000Z</time>
</trkpt>
<trkpt lat="46.0423520" lon="10.3851960">
	<ele>1656.80</ele>
	<time>2024-07-24T09:07:26.000Z</time>
</trkpt>
<trkpt lat="46.0423650" lon="10.3851950">
	<ele>1656.80</ele>
	<time>2024-07-24T09:07:27.000Z</time>
</trkpt>
<trkpt lat="46.0423780" lon="10.3851910">
	<ele>1657.00</ele>
	<time>2024-07-24T09:07:28.000Z</time>
</trkpt>
<trkpt lat="46.0423930" lon="10.3851860">
	<ele>1657.00</ele>
	<time>2024-07-24T09:07:29.000Z</time>
</trkpt>
<trkpt lat="46.0424070" lon="10.3851810">
	<ele>1657.00</ele>
	<time>2024-07-24T09:07:30.000Z</time>
</trkpt>
<trkpt lat="46.0424210" lon="10.3851820">
	<ele>1657.00</ele>
	<time>2024-07-24T09:07:31.000Z</time>
</trkpt>
<trkpt lat="46.0424330" lon="10.3851820">
	<ele>1657.00</ele>
	<time>2024-07-24T09:07:32.000Z</time>
</trkpt>
<trkpt lat="46.0424450" lon="10.3851830">
	<ele>1657.00</ele>
	<time>2024-07-24T09:07:33.000Z</time>
</trkpt>
<trkpt lat="46.0424570" lon="10.3851850">
	<ele>1657.00</ele>
	<time>2024-07-24T09:07:34.000Z</time>
</trkpt>
<trkpt lat="46.0424700" lon="10.3851880">
	<ele>1657.00</ele>
	<time>2024-07-24T09:07:35.000Z</time>
</trkpt>
<trkpt lat="46.0424820" lon="10.3851910">
	<ele>1657.00</ele>
	<time>2024-07-24T09:07:36.000Z</time>
</trkpt>
<trkpt lat="46.0424930" lon="10.3851900">
	<ele>1657.00</ele>
	<time>2024-07-24T09:07:37.000Z</time>
</trkpt>
<trkpt lat="46.0425040" lon="10.3851900">
	<ele>1657.20</ele>
	<time>2024-07-24T09:07:38.000Z</time>
</trkpt>
<trkpt lat="46.0425170" lon="10.3852000">
	<ele>1657.20</ele>
	<time>2024-07-24T09:07:39.000Z</time>
</trkpt>
<trkpt lat="46.0425290" lon="10.3852040">
	<ele>1657.20</ele>
	<time>2024-07-24T09:07:40.000Z</time>
</trkpt>
<trkpt lat="46.0425440" lon="10.3852070">
	<ele>1657.20</ele>
	<time>2024-07-24T09:07:41.000Z</time>
</trkpt>
<trkpt lat="46.0425580" lon="10.3852090">
	<ele>1657.40</ele>
	<time>2024-07-24T09:07:42.000Z</time>
</trkpt>
<trkpt lat="46.0425740" lon="10.3852100">
	<ele>1657.20</ele>
	<time>2024-07-24T09:07:43.000Z</time>
</trkpt>
<trkpt lat="46.0425890" lon="10.3852110">
	<ele>1657.20</ele>
	<time>2024-07-24T09:07:44.000Z</time>
</trkpt>
<trkpt lat="46.0426040" lon="10.3852110">
	<ele>1657.00</ele>
	<time>2024-07-24T09:07:45.000Z</time>
</trkpt>
<trkpt lat="46.0426150" lon="10.3852070">
	<ele>1657.00</ele>
	<time>2024-07-24T09:07:46.000Z</time>
</trkpt>
<trkpt lat="46.0426270" lon="10.3852070">
	<ele>1657.00</ele>
	<time>2024-07-24T09:07:47.000Z</time>
</trkpt>
<trkpt lat="46.0426370" lon="10.3852100">
	<ele>1657.00</ele>
	<time>2024-07-24T09:07:48.000Z</time>
</trkpt>
<trkpt lat="46.0426450" lon="10.3852110">
	<ele>1657.00</ele>
	<time>2024-07-24T09:07:49.000Z</time>
</trkpt>
<trkpt lat="46.0426480" lon="10.3852110">
	<ele>1657.00</ele>
	<time>2024-07-24T09:07:50.000Z</time>
</trkpt>
<trkpt lat="46.0426480" lon="10.3852100">
	<ele>1657.00</ele>
	<time>2024-07-24T09:07:51.000Z</time>
</trkpt>
<trkpt lat="46.0426490" lon="10.3852100">
	<ele>1657.00</ele>
	<time>2024-07-24T09:07:52.000Z</time>
</trkpt>
<trkpt lat="46.0426510" lon="10.3852110">
	<ele>1657.00</ele>
	<time>2024-07-24T09:07:53.000Z</time>
</trkpt>
<trkpt lat="46.0426630" lon="10.3852090">
	<ele>1657.00</ele>
	<time>2024-07-24T09:07:54.000Z</time>
</trkpt>
<trkpt lat="46.0426720" lon="10.3852070">
	<ele>1657.00</ele>
	<time>2024-07-24T09:07:55.000Z</time>
</trkpt>
<trkpt lat="46.0426760" lon="10.3852020">
	<ele>1657.00</ele>
	<time>2024-07-24T09:07:56.000Z</time>
</trkpt>
<trkpt lat="46.0426780" lon="10.3851960">
	<ele>1656.80</ele>
	<time>2024-07-24T09:07:57.000Z</time>
</trkpt>
<trkpt lat="46.0426850" lon="10.3851880">
	<ele>1656.80</ele>
	<time>2024-07-24T09:07:58.000Z</time>
</trkpt>
<trkpt lat="46.0426960" lon="10.3851860">
	<ele>1656.80</ele>
	<time>2024-07-24T09:07:59.000Z</time>
</trkpt>
<trkpt lat="46.0427080" lon="10.3851860">
	<ele>1656.80</ele>
	<time>2024-07-24T09:08:00.000Z</time>
</trkpt>
<trkpt lat="46.0427220" lon="10.3851850">
	<ele>1656.80</ele>
	<time>2024-07-24T09:08:01.000Z</time>
</trkpt>
<trkpt lat="46.0427360" lon="10.3851800">
	<ele>1656.60</ele>
	<time>2024-07-24T09:08:02.000Z</time>
</trkpt>
<trkpt lat="46.0427490" lon="10.3851720">
	<ele>1656.80</ele>
	<time>2024-07-24T09:08:03.000Z</time>
</trkpt>
<trkpt lat="46.0427570" lon="10.3851640">
	<ele>1656.60</ele>
	<time>2024-07-24T09:08:04.000Z</time>
</trkpt>
<trkpt lat="46.0427670" lon="10.3851540">
	<ele>1656.60</ele>
	<time>2024-07-24T09:08:05.000Z</time>
</trkpt>
<trkpt lat="46.0427760" lon="10.3851480">
	<ele>1656.60</ele>
	<time>2024-07-24T09:08:06.000Z</time>
</trkpt>
<trkpt lat="46.0427870" lon="10.3851430">
	<ele>1656.60</ele>
	<time>2024-07-24T09:08:07.000Z</time>
</trkpt>
<trkpt lat="46.0428000" lon="10.3851360">
	<ele>1656.60</ele>
	<time>2024-07-24T09:08:08.000Z</time>
</trkpt>
<trkpt lat="46.0428130" lon="10.3851290">
	<ele>1656.60</ele>
	<time>2024-07-24T09:08:09.000Z</time>
</trkpt>
<trkpt lat="46.0428230" lon="10.3851210">
	<ele>1656.60</ele>
	<time>2024-07-24T09:08:10.000Z</time>
</trkpt>
<trkpt lat="46.0428320" lon="10.3851110">
	<ele>1656.60</ele>
	<time>2024-07-24T09:08:11.000Z</time>
</trkpt>
<trkpt lat="46.0428450" lon="10.3851050">
	<ele>1656.60</ele>
	<time>2024-07-24T09:08:12.000Z</time>
</trkpt>
<trkpt lat="46.0428570" lon="10.3850980">
	<ele>1656.60</ele>
	<time>2024-07-24T09:08:13.000Z</time>
</trkpt>
<trkpt lat="46.0428700" lon="10.3850880">
	<ele>1656.60</ele>
	<time>2024-07-24T09:08:14.000Z</time>
</trkpt>
<trkpt lat="46.0428850" lon="10.3850820">
	<ele>1656.60</ele>
	<time>2024-07-24T09:08:15.000Z</time>
</trkpt>
<trkpt lat="46.0428950" lon="10.3850760">
	<ele>1656.80</ele>
	<time>2024-07-24T09:08:16.000Z</time>
</trkpt>
<trkpt lat="46.0429000" lon="10.3850710">
	<ele>1656.80</ele>
	<time>2024-07-24T09:08:17.000Z</time>
</trkpt>
<trkpt lat="46.0429030" lon="10.3850680">
	<ele>1656.80</ele>
	<time>2024-07-24T09:08:18.000Z</time>
</trkpt>
<trkpt lat="46.0429060" lon="10.3850650">
	<ele>1657.00</ele>
	<time>2024-07-24T09:08:19.000Z</time>
</trkpt>
<trkpt lat="46.0429080" lon="10.3850620">
	<ele>1657.00</ele>
	<time>2024-07-24T09:08:20.000Z</time>
</trkpt>
<trkpt lat="46.0429080" lon="10.3850600">
	<ele>1657.00</ele>
	<time>2024-07-24T09:08:21.000Z</time>
</trkpt>
<trkpt lat="46.0429070" lon="10.3850610">
	<ele>1657.00</ele>
	<time>2024-07-24T09:08:22.000Z</time>
</trkpt>
<trkpt lat="46.0429080" lon="10.3850620">
	<ele>1657.00</ele>
	<time>2024-07-24T09:08:23.000Z</time>
</trkpt>
<trkpt lat="46.0429100" lon="10.3850640">
	<ele>1657.00</ele>
	<time>2024-07-24T09:08:24.000Z</time>
</trkpt>
<trkpt lat="46.0429100" lon="10.3850660">
	<ele>1656.80</ele>
	<time>2024-07-24T09:08:25.000Z</time>
</trkpt>
<trkpt lat="46.0429090" lon="10.3850630">
	<ele>1656.60</ele>
	<time>2024-07-24T09:08:26.000Z</time>
</trkpt>
<trkpt lat="46.0429070" lon="10.3850610">
	<ele>1656.60</ele>
	<time>2024-07-24T09:08:27.000Z</time>
</trkpt>
<trkpt lat="46.0429070" lon="10.3850630">
	<ele>1656.40</ele>
	<time>2024-07-24T09:08:28.000Z</time>
</trkpt>
<trkpt lat="46.0429080" lon="10.3850600">
	<ele>1656.40</ele>
	<time>2024-07-24T09:08:29.000Z</time>
</trkpt>
<trkpt lat="46.0429120" lon="10.3850490">
	<ele>1656.40</ele>
	<time>2024-07-24T09:08:30.000Z</time>
</trkpt>
<trkpt lat="46.0429170" lon="10.3850430">
	<ele>1656.40</ele>
	<time>2024-07-24T09:08:31.000Z</time>
</trkpt>
<trkpt lat="46.0429170" lon="10.3850370">
	<ele>1656.60</ele>
	<time>2024-07-24T09:08:32.000Z</time>
</trkpt>
<trkpt lat="46.0429170" lon="10.3850330">
	<ele>1656.60</ele>
	<time>2024-07-24T09:08:33.000Z</time>
</trkpt>
<trkpt lat="46.0429160" lon="10.3850310">
	<ele>1656.60</ele>
	<time>2024-07-24T09:08:34.000Z</time>
</trkpt>
<trkpt lat="46.0429130" lon="10.3850290">
	<ele>1656.60</ele>
	<time>2024-07-24T09:08:35.000Z</time>
</trkpt>
<trkpt lat="46.0429130" lon="10.3850280">
	<ele>1656.60</ele>
	<time>2024-07-24T09:08:36.000Z</time>
</trkpt>
<trkpt lat="46.0429110" lon="10.3850270">
	<ele>1656.60</ele>
	<time>2024-07-24T09:08:37.000Z</time>
</trkpt>
<trkpt lat="46.0429100" lon="10.3850270">
	<ele>1656.40</ele>
	<time>2024-07-24T09:08:38.000Z</time>
</trkpt>
<trkpt lat="46.0429120" lon="10.3850250">
	<ele>1656.40</ele>
	<time>2024-07-24T09:08:39.000Z</time>
</trkpt>
<trkpt lat="46.0429120" lon="10.3850240">
	<ele>1656.40</ele>
	<time>2024-07-24T09:08:40.000Z</time>
</trkpt>
<trkpt lat="46.0429150" lon="10.3850250">
	<ele>1656.40</ele>
	<time>2024-07-24T09:08:41.000Z</time>
</trkpt>
<trkpt lat="46.0429160" lon="10.3850250">
	<ele>1656.40</ele>
	<time>2024-07-24T09:08:42.000Z</time>
</trkpt>
<trkpt lat="46.0429160" lon="10.3850240">
	<ele>1656.40</ele>
	<time>2024-07-24T09:08:43.000Z</time>
</trkpt>
<trkpt lat="46.0429160" lon="10.3850240">
	<ele>1656.40</ele>
	<time>2024-07-24T09:08:44.000Z</time>
</trkpt>
<trkpt lat="46.0429160" lon="10.3850240">
	<ele>1656.40</ele>
	<time>2024-07-24T09:08:45.000Z</time>
</trkpt>
<trkpt lat="46.0429160" lon="10.3850240">
	<ele>1656.40</ele>
	<time>2024-07-24T09:08:46.000Z</time>
</trkpt>
<trkpt lat="46.0429160" lon="10.3850240">
	<ele>1656.40</ele>
	<time>2024-07-24T09:08:47.000Z</time>
</trkpt>
<trkpt lat="46.0429160" lon="10.3850240">
	<ele>1656.40</ele>
	<time>2024-07-24T09:08:48.000Z</time>
</trkpt>
<trkpt lat="46.0429160" lon="10.3850240">
	<ele>1656.20</ele>
	<time>2024-07-24T09:08:49.000Z</time>
</trkpt>
<trkpt lat="46.0429160" lon="10.3850240">
	<ele>1656.20</ele>
	<time>2024-07-24T09:08:50.000Z</time>
</trkpt>
<trkpt lat="46.0429160" lon="10.3850240">
	<ele>1656.20</ele>
	<time>2024-07-24T09:08:51.000Z</time>
</trkpt>
<trkpt lat="46.0429160" lon="10.3850240">
	<ele>1656.20</ele>
	<time>2024-07-24T09:08:52.000Z</time>
</trkpt>
<trkpt lat="46.0429160" lon="10.3850240">
	<ele>1656.00</ele>
	<time>2024-07-24T09:08:53.000Z</time>
</trkpt>
<trkpt lat="46.0429160" lon="10.3850240">
	<ele>1656.00</ele>
	<time>2024-07-24T09:08:54.000Z</time>
</trkpt>
<trkpt lat="46.0429150" lon="10.3850240">
	<ele>1656.00</ele>
	<time>2024-07-24T09:08:55.000Z</time>
</trkpt>
<trkpt lat="46.0429150" lon="10.3850240">
	<ele>1656.00</ele>
	<time>2024-07-24T09:08:56.000Z</time>
</trkpt>
<trkpt lat="46.0429150" lon="10.3850240">
	<ele>1656.40</ele>
	<time>2024-07-24T09:08:57.000Z</time>
</trkpt>
<trkpt lat="46.0429140" lon="10.3850240">
	<ele>1656.40</ele>
	<time>2024-07-24T09:08:58.000Z</time>
</trkpt>
<trkpt lat="46.0429140" lon="10.3850250">
	<ele>1656.40</ele>
	<time>2024-07-24T09:08:59.000Z</time>
</trkpt>
<trkpt lat="46.0429140" lon="10.3850250">
	<ele>1656.40</ele>
	<time>2024-07-24T09:09:00.000Z</time>
</trkpt>
<trkpt lat="46.0429140" lon="10.3850250">
	<ele>1656.40</ele>
	<time>2024-07-24T09:09:01.000Z</time>
</trkpt>
<trkpt lat="46.0429140" lon="10.3850250">
	<ele>1656.40</ele>
	<time>2024-07-24T09:09:02.000Z</time>
</trkpt>
<trkpt lat="46.0429140" lon="10.3850250">
	<ele>1656.40</ele>
	<time>2024-07-24T09:09:03.000Z</time>
</trkpt>
<trkpt lat="46.0429180" lon="10.3850270">
	<ele>1656.40</ele>
	<time>2024-07-24T09:09:04.000Z</time>
</trkpt>
<trkpt lat="46.0429310" lon="10.3850260">
	<ele>1656.40</ele>
	<time>2024-07-24T09:09:05.000Z</time>
</trkpt>
<trkpt lat="46.0429460" lon="10.3850270">
	<ele>1656.40</ele>
	<time>2024-07-24T09:09:06.000Z</time>
</trkpt>
<trkpt lat="46.0429580" lon="10.3850240">
	<ele>1656.40</ele>
	<time>2024-07-24T09:09:07.000Z</time>
</trkpt>
<trkpt lat="46.0429680" lon="10.3850200">
	<ele>1656.40</ele>
	<time>2024-07-24T09:09:08.000Z</time>
</trkpt>
<trkpt lat="46.0429820" lon="10.3850210">
	<ele>1656.40</ele>
	<time>2024-07-24T09:09:09.000Z</time>
</trkpt>
<trkpt lat="46.0429920" lon="10.3850190">
	<ele>1656.40</ele>
	<time>2024-07-24T09:09:10.000Z</time>
</trkpt>
<trkpt lat="46.0430050" lon="10.3850200">
	<ele>1656.40</ele>
	<time>2024-07-24T09:09:11.000Z</time>
</trkpt>
<trkpt lat="46.0430230" lon="10.3850290">
	<ele>1656.40</ele>
	<time>2024-07-24T09:09:12.000Z</time>
</trkpt>
<trkpt lat="46.0430350" lon="10.3850370">
	<ele>1656.40</ele>
	<time>2024-07-24T09:09:13.000Z</time>
</trkpt>
<trkpt lat="46.0430440" lon="10.3850430">
	<ele>1656.40</ele>
	<time>2024-07-24T09:09:14.000Z</time>
</trkpt>
<trkpt lat="46.0430530" lon="10.3850450">
	<ele>1656.40</ele>
	<time>2024-07-24T09:09:15.000Z</time>
</trkpt>
<trkpt lat="46.0430660" lon="10.3850450">
	<ele>1656.40</ele>
	<time>2024-07-24T09:09:16.000Z</time>
</trkpt>
<trkpt lat="46.0430740" lon="10.3850450">
	<ele>1656.40</ele>
	<time>2024-07-24T09:09:17.000Z</time>
</trkpt>
<trkpt lat="46.0430870" lon="10.3850480">
	<ele>1656.40</ele>
	<time>2024-07-24T09:09:18.000Z</time>
</trkpt>
<trkpt lat="46.0430980" lon="10.3850510">
	<ele>1657.60</ele>
	<time>2024-07-24T09:09:19.000Z</time>
</trkpt>
<trkpt lat="46.0431080" lon="10.3850570">
	<ele>1658.20</ele>
	<time>2024-07-24T09:09:20.000Z</time>
</trkpt>
<trkpt lat="46.0431190" lon="10.3850670">
	<ele>1658.60</ele>
	<time>2024-07-24T09:09:21.000Z</time>
</trkpt>
<trkpt lat="46.0431330" lon="10.3850760">
	<ele>1658.80</ele>
	<time>2024-07-24T09:09:22.000Z</time>
</trkpt>
<trkpt lat="46.0431470" lon="10.3850830">
	<ele>1659.00</ele>
	<time>2024-07-24T09:09:23.000Z</time>
</trkpt>
<trkpt lat="46.0431600" lon="10.3850910">
	<ele>1659.00</ele>
	<time>2024-07-24T09:09:24.000Z</time>
</trkpt>
<trkpt lat="46.0431750" lon="10.3851010">
	<ele>1659.20</ele>
	<time>2024-07-24T09:09:25.000Z</time>
</trkpt>
<trkpt lat="46.0431940" lon="10.3851090">
	<ele>1659.20</ele>
	<time>2024-07-24T09:09:26.000Z</time>
</trkpt>
<trkpt lat="46.0432080" lon="10.3851160">
	<ele>1659.20</ele>
	<time>2024-07-24T09:09:27.000Z</time>
</trkpt>
<trkpt lat="46.0432210" lon="10.3851180">
	<ele>1659.20</ele>
	<time>2024-07-24T09:09:28.000Z</time>
</trkpt>
<trkpt lat="46.0432310" lon="10.3851150">
	<ele>1659.40</ele>
	<time>2024-07-24T09:09:29.000Z</time>
</trkpt>
<trkpt lat="46.0432450" lon="10.3851130">
	<ele>1659.40</ele>
	<time>2024-07-24T09:09:30.000Z</time>
</trkpt>
<trkpt lat="46.0432610" lon="10.3851130">
	<ele>1659.40</ele>
	<time>2024-07-24T09:09:31.000Z</time>
</trkpt>
<trkpt lat="46.0432750" lon="10.3851130">
	<ele>1659.60</ele>
	<time>2024-07-24T09:09:32.000Z</time>
</trkpt>
<trkpt lat="46.0432910" lon="10.3851110">
	<ele>1659.60</ele>
	<time>2024-07-24T09:09:33.000Z</time>
</trkpt>
<trkpt lat="46.0433040" lon="10.3851120">
	<ele>1659.60</ele>
	<time>2024-07-24T09:09:34.000Z</time>
</trkpt>
<trkpt lat="46.0433180" lon="10.3851110">
	<ele>1659.60</ele>
	<time>2024-07-24T09:09:35.000Z</time>
</trkpt>
<trkpt lat="46.0433300" lon="10.3851080">
	<ele>1659.60</ele>
	<time>2024-07-24T09:09:36.000Z</time>
</trkpt>
<trkpt lat="46.0433400" lon="10.3851080">
	<ele>1659.80</ele>
	<time>2024-07-24T09:09:37.000Z</time>
</trkpt>
<trkpt lat="46.0433500" lon="10.3851080">
	<ele>1659.80</ele>
	<time>2024-07-24T09:09:38.000Z</time>
</trkpt>
<trkpt lat="46.0433600" lon="10.3851020">
	<ele>1659.80</ele>
	<time>2024-07-24T09:09:39.000Z</time>
</trkpt>
<trkpt lat="46.0433730" lon="10.3850990">
	<ele>1660.00</ele>
	<time>2024-07-24T09:09:40.000Z</time>
</trkpt>
<trkpt lat="46.0433860" lon="10.3850920">
	<ele>1660.20</ele>
	<time>2024-07-24T09:09:41.000Z</time>
</trkpt>
<trkpt lat="46.0434000" lon="10.3850890">
	<ele>1660.20</ele>
	<time>2024-07-24T09:09:42.000Z</time>
</trkpt>
<trkpt lat="46.0434090" lon="10.3850870">
	<ele>1660.40</ele>
	<time>2024-07-24T09:09:43.000Z</time>
</trkpt>
<trkpt lat="46.0434230" lon="10.3850810">
	<ele>1660.40</ele>
	<time>2024-07-24T09:09:44.000Z</time>
</trkpt>
<trkpt lat="46.0434380" lon="10.3850710">
	<ele>1660.60</ele>
	<time>2024-07-24T09:09:45.000Z</time>
</trkpt>
<trkpt lat="46.0434480" lon="10.3850710">
	<ele>1660.60</ele>
	<time>2024-07-24T09:09:46.000Z</time>
</trkpt>
<trkpt lat="46.0434620" lon="10.3850730">
	<ele>1660.60</ele>
	<time>2024-07-24T09:09:47.000Z</time>
</trkpt>
<trkpt lat="46.0434730" lon="10.3850690">
	<ele>1660.80</ele>
	<time>2024-07-24T09:09:48.000Z</time>
</trkpt>
<trkpt lat="46.0434830" lon="10.3850640">
	<ele>1660.80</ele>
	<time>2024-07-24T09:09:49.000Z</time>
</trkpt>
<trkpt lat="46.0434920" lon="10.3850600">
	<ele>1660.80</ele>
	<time>2024-07-24T09:09:50.000Z</time>
</trkpt>
<trkpt lat="46.0435030" lon="10.3850560">
	<ele>1661.00</ele>
	<time>2024-07-24T09:09:51.000Z</time>
</trkpt>
<trkpt lat="46.0435140" lon="10.3850540">
	<ele>1661.00</ele>
	<time>2024-07-24T09:09:52.000Z</time>
</trkpt>
<trkpt lat="46.0435270" lon="10.3850540">
	<ele>1661.20</ele>
	<time>2024-07-24T09:09:53.000Z</time>
</trkpt>
<trkpt lat="46.0435390" lon="10.3850580">
	<ele>1661.40</ele>
	<time>2024-07-24T09:09:54.000Z</time>
</trkpt>
<trkpt lat="46.0435510" lon="10.3850600">
	<ele>1661.40</ele>
	<time>2024-07-24T09:09:55.000Z</time>
</trkpt>
<trkpt lat="46.0435620" lon="10.3850590">
	<ele>1661.40</ele>
	<time>2024-07-24T09:09:56.000Z</time>
</trkpt>
<trkpt lat="46.0435730" lon="10.3850620">
	<ele>1661.60</ele>
	<time>2024-07-24T09:09:57.000Z</time>
</trkpt>
<trkpt lat="46.0435820" lon="10.3850670">
	<ele>1661.60</ele>
	<time>2024-07-24T09:09:58.000Z</time>
</trkpt>
<trkpt lat="46.0435910" lon="10.3850700">
	<ele>1661.80</ele>
	<time>2024-07-24T09:09:59.000Z</time>
</trkpt>
<trkpt lat="46.0436000" lon="10.3850750">
	<ele>1661.80</ele>
	<time>2024-07-24T09:10:00.000Z</time>
</trkpt>
<trkpt lat="46.0436120" lon="10.3850800">
	<ele>1662.00</ele>
	<time>2024-07-24T09:10:01.000Z</time>
</trkpt>
<trkpt lat="46.0436210" lon="10.3850820">
	<ele>1662.20</ele>
	<time>2024-07-24T09:10:02.000Z</time>
</trkpt>
<trkpt lat="46.0436310" lon="10.3850850">
	<ele>1662.40</ele>
	<time>2024-07-24T09:10:03.000Z</time>
</trkpt>
<trkpt lat="46.0436430" lon="10.3850890">
	<ele>1662.40</ele>
	<time>2024-07-24T09:10:04.000Z</time>
</trkpt>
<trkpt lat="46.0436550" lon="10.3850880">
	<ele>1662.60</ele>
	<time>2024-07-24T09:10:05.000Z</time>
</trkpt>
<trkpt lat="46.0436610" lon="10.3850850">
	<ele>1662.80</ele>
	<time>2024-07-24T09:10:06.000Z</time>
</trkpt>
<trkpt lat="46.0436760" lon="10.3850780">
	<ele>1662.80</ele>
	<time>2024-07-24T09:10:07.000Z</time>
</trkpt>
<trkpt lat="46.0436900" lon="10.3850680">
	<ele>1663.00</ele>
	<time>2024-07-24T09:10:08.000Z</time>
</trkpt>
<trkpt lat="46.0437060" lon="10.3850490">
	<ele>1663.00</ele>
	<time>2024-07-24T09:10:09.000Z</time>
</trkpt>
<trkpt lat="46.0437190" lon="10.3850380">
	<ele>1663.00</ele>
	<time>2024-07-24T09:10:10.000Z</time>
</trkpt>
<trkpt lat="46.0437330" lon="10.3850320">
	<ele>1663.00</ele>
	<time>2024-07-24T09:10:11.000Z</time>
</trkpt>
<trkpt lat="46.0437410" lon="10.3850250">
	<ele>1663.00</ele>
	<time>2024-07-24T09:10:12.000Z</time>
</trkpt>
<trkpt lat="46.0437440" lon="10.3850180">
	<ele>1663.00</ele>
	<time>2024-07-24T09:10:13.000Z</time>
</trkpt>
<trkpt lat="46.0437440" lon="10.3850150">
	<ele>1663.00</ele>
	<time>2024-07-24T09:10:14.000Z</time>
</trkpt>
<trkpt lat="46.0437430" lon="10.3850160">
	<ele>1663.00</ele>
	<time>2024-07-24T09:10:15.000Z</time>
</trkpt>
<trkpt lat="46.0437410" lon="10.3850180">
	<ele>1663.00</ele>
	<time>2024-07-24T09:10:16.000Z</time>
</trkpt>
<trkpt lat="46.0437400" lon="10.3850190">
	<ele>1663.00</ele>
	<time>2024-07-24T09:10:17.000Z</time>
</trkpt>
<trkpt lat="46.0437420" lon="10.3850200">
	<ele>1663.00</ele>
	<time>2024-07-24T09:10:18.000Z</time>
</trkpt>
<trkpt lat="46.0437440" lon="10.3850210">
	<ele>1663.20</ele>
	<time>2024-07-24T09:10:19.000Z</time>
</trkpt>
<trkpt lat="46.0437500" lon="10.3850210">
	<ele>1663.20</ele>
	<time>2024-07-24T09:10:20.000Z</time>
</trkpt>
<trkpt lat="46.0437580" lon="10.3850190">
	<ele>1663.00</ele>
	<time>2024-07-24T09:10:21.000Z</time>
</trkpt>
<trkpt lat="46.0437670" lon="10.3850130">
	<ele>1663.00</ele>
	<time>2024-07-24T09:10:22.000Z</time>
</trkpt>
<trkpt lat="46.0437750" lon="10.3850070">
	<ele>1662.80</ele>
	<time>2024-07-24T09:10:23.000Z</time>
</trkpt>
<trkpt lat="46.0437820" lon="10.3849990">
	<ele>1662.80</ele>
	<time>2024-07-24T09:10:24.000Z</time>
</trkpt>
<trkpt lat="46.0437900" lon="10.3849900">
	<ele>1662.60</ele>
	<time>2024-07-24T09:10:25.000Z</time>
</trkpt>
<trkpt lat="46.0437990" lon="10.3849830">
	<ele>1662.60</ele>
	<time>2024-07-24T09:10:26.000Z</time>
</trkpt>
<trkpt lat="46.0438060" lon="10.3849740">
	<ele>1662.60</ele>
	<time>2024-07-24T09:10:27.000Z</time>
</trkpt>
<trkpt lat="46.0438150" lon="10.3849660">
	<ele>1662.60</ele>
	<time>2024-07-24T09:10:28.000Z</time>
</trkpt>
<trkpt lat="46.0438280" lon="10.3849580">
	<ele>1662.60</ele>
	<time>2024-07-24T09:10:29.000Z</time>
</trkpt>
<trkpt lat="46.0438450" lon="10.3849520">
	<ele>1662.60</ele>
	<time>2024-07-24T09:10:30.000Z</time>
</trkpt>
<trkpt lat="46.0438560" lon="10.3849500">
	<ele>1662.60</ele>
	<time>2024-07-24T09:10:31.000Z</time>
</trkpt>
<trkpt lat="46.0438670" lon="10.3849440">
	<ele>1662.60</ele>
	<time>2024-07-24T09:10:32.000Z</time>
</trkpt>
<trkpt lat="46.0438780" lon="10.3849350">
	<ele>1662.60</ele>
	<time>2024-07-24T09:10:33.000Z</time>
</trkpt>
<trkpt lat="46.0438820" lon="10.3849260">
	<ele>1662.40</ele>
	<time>2024-07-24T09:10:34.000Z</time>
</trkpt>
<trkpt lat="46.0438910" lon="10.3849140">
	<ele>1662.40</ele>
	<time>2024-07-24T09:10:35.000Z</time>
</trkpt>
<trkpt lat="46.0438990" lon="10.3849060">
	<ele>1662.40</ele>
	<time>2024-07-24T09:10:36.000Z</time>
</trkpt>
<trkpt lat="46.0439120" lon="10.3848990">
	<ele>1662.40</ele>
	<time>2024-07-24T09:10:37.000Z</time>
</trkpt>
<trkpt lat="46.0439250" lon="10.3848890">
	<ele>1662.40</ele>
	<time>2024-07-24T09:10:38.000Z</time>
</trkpt>
<trkpt lat="46.0439360" lon="10.3848810">
	<ele>1662.20</ele>
	<time>2024-07-24T09:10:39.000Z</time>
</trkpt>
<trkpt lat="46.0439470" lon="10.3848730">
	<ele>1662.20</ele>
	<time>2024-07-24T09:10:40.000Z</time>
</trkpt>
<trkpt lat="46.0439580" lon="10.3848690">
	<ele>1662.00</ele>
	<time>2024-07-24T09:10:41.000Z</time>
</trkpt>
<trkpt lat="46.0439700" lon="10.3848640">
	<ele>1662.00</ele>
	<time>2024-07-24T09:10:42.000Z</time>
</trkpt>
<trkpt lat="46.0439800" lon="10.3848560">
	<ele>1662.00</ele>
	<time>2024-07-24T09:10:43.000Z</time>
</trkpt>
<trkpt lat="46.0439940" lon="10.3848500">
	<ele>1662.00</ele>
	<time>2024-07-24T09:10:44.000Z</time>
</trkpt>
<trkpt lat="46.0440060" lon="10.3848410">
	<ele>1662.00</ele>
	<time>2024-07-24T09:10:45.000Z</time>
</trkpt>
<trkpt lat="46.0440160" lon="10.3848320">
	<ele>1662.00</ele>
	<time>2024-07-24T09:10:46.000Z</time>
</trkpt>
<trkpt lat="46.0440220" lon="10.3848220">
	<ele>1662.20</ele>
	<time>2024-07-24T09:10:47.000Z</time>
</trkpt>
<trkpt lat="46.0440260" lon="10.3848120">
	<ele>1662.00</ele>
	<time>2024-07-24T09:10:48.000Z</time>
</trkpt>
<trkpt lat="46.0440330" lon="10.3848020">
	<ele>1662.00</ele>
	<time>2024-07-24T09:10:49.000Z</time>
</trkpt>
<trkpt lat="46.0440450" lon="10.3847940">
	<ele>1662.00</ele>
	<time>2024-07-24T09:10:50.000Z</time>
</trkpt>
<trkpt lat="46.0440580" lon="10.3847800">
	<ele>1662.00</ele>
	<time>2024-07-24T09:10:51.000Z</time>
</trkpt>
<trkpt lat="46.0440650" lon="10.3847660">
	<ele>1662.00</ele>
	<time>2024-07-24T09:10:52.000Z</time>
</trkpt>
<trkpt lat="46.0440740" lon="10.3847530">
	<ele>1662.00</ele>
	<time>2024-07-24T09:10:53.000Z</time>
</trkpt>
<trkpt lat="46.0440810" lon="10.3847380">
	<ele>1662.00</ele>
	<time>2024-07-24T09:10:54.000Z</time>
</trkpt>
<trkpt lat="46.0440860" lon="10.3847250">
	<ele>1662.00</ele>
	<time>2024-07-24T09:10:55.000Z</time>
</trkpt>
<trkpt lat="46.0440960" lon="10.3847130">
	<ele>1662.00</ele>
	<time>2024-07-24T09:10:56.000Z</time>
</trkpt>
<trkpt lat="46.0441080" lon="10.3847030">
	<ele>1661.80</ele>
	<time>2024-07-24T09:10:57.000Z</time>
</trkpt>
<trkpt lat="46.0441190" lon="10.3846940">
	<ele>1661.80</ele>
	<time>2024-07-24T09:10:58.000Z</time>
</trkpt>
<trkpt lat="46.0441290" lon="10.3846830">
	<ele>1661.80</ele>
	<time>2024-07-24T09:10:59.000Z</time>
</trkpt>
<trkpt lat="46.0441380" lon="10.3846710">
	<ele>1661.80</ele>
	<time>2024-07-24T09:11:00.000Z</time>
</trkpt>
<trkpt lat="46.0441470" lon="10.3846590">
	<ele>1661.80</ele>
	<time>2024-07-24T09:11:01.000Z</time>
</trkpt>
<trkpt lat="46.0441570" lon="10.3846490">
	<ele>1661.80</ele>
	<time>2024-07-24T09:11:02.000Z</time>
</trkpt>
<trkpt lat="46.0441680" lon="10.3846390">
	<ele>1661.80</ele>
	<time>2024-07-24T09:11:03.000Z</time>
</trkpt>
<trkpt lat="46.0441770" lon="10.3846320">
	<ele>1661.80</ele>
	<time>2024-07-24T09:11:04.000Z</time>
</trkpt>
<trkpt lat="46.0441850" lon="10.3846230">
	<ele>1661.80</ele>
	<time>2024-07-24T09:11:05.000Z</time>
</trkpt>
<trkpt lat="46.0441910" lon="10.3846130">
	<ele>1661.80</ele>
	<time>2024-07-24T09:11:06.000Z</time>
</trkpt>
<trkpt lat="46.0441970" lon="10.3846000">
	<ele>1661.80</ele>
	<time>2024-07-24T09:11:07.000Z</time>
</trkpt>
<trkpt lat="46.0442030" lon="10.3845840">
	<ele>1661.80</ele>
	<time>2024-07-24T09:11:08.000Z</time>
</trkpt>
<trkpt lat="46.0442100" lon="10.3845720">
	<ele>1662.00</ele>
	<time>2024-07-24T09:11:09.000Z</time>
</trkpt>
<trkpt lat="46.0442210" lon="10.3845640">
	<ele>1662.00</ele>
	<time>2024-07-24T09:11:10.000Z</time>
</trkpt>
<trkpt lat="46.0442320" lon="10.3845590">
	<ele>1662.00</ele>
	<time>2024-07-24T09:11:11.000Z</time>
</trkpt>
<trkpt lat="46.0442420" lon="10.3845520">
	<ele>1662.00</ele>
	<time>2024-07-24T09:11:12.000Z</time>
</trkpt>
<trkpt lat="46.0442550" lon="10.3845440">
	<ele>1662.00</ele>
	<time>2024-07-24T09:11:13.000Z</time>
</trkpt>
<trkpt lat="46.0442670" lon="10.3845340">
	<ele>1662.00</ele>
	<time>2024-07-24T09:11:14.000Z</time>
</trkpt>
<trkpt lat="46.0442780" lon="10.3845240">
	<ele>1662.00</ele>
	<time>2024-07-24T09:11:15.000Z</time>
</trkpt>
<trkpt lat="46.0442870" lon="10.3845120">
	<ele>1662.00</ele>
	<time>2024-07-24T09:11:16.000Z</time>
</trkpt>
<trkpt lat="46.0442980" lon="10.3845010">
	<ele>1662.00</ele>
	<time>2024-07-24T09:11:17.000Z</time>
</trkpt>
<trkpt lat="46.0443040" lon="10.3844920">
	<ele>1662.00</ele>
	<time>2024-07-24T09:11:18.000Z</time>
</trkpt>
<trkpt lat="46.0443120" lon="10.3844810">
	<ele>1662.00</ele>
	<time>2024-07-24T09:11:19.000Z</time>
</trkpt>
<trkpt lat="46.0443190" lon="10.3844680">
	<ele>1662.00</ele>
	<time>2024-07-24T09:11:20.000Z</time>
</trkpt>
<trkpt lat="46.0443270" lon="10.3844530">
	<ele>1662.00</ele>
	<time>2024-07-24T09:11:21.000Z</time>
</trkpt>
<trkpt lat="46.0443380" lon="10.3844380">
	<ele>1662.00</ele>
	<time>2024-07-24T09:11:22.000Z</time>
</trkpt>
<trkpt lat="46.0443480" lon="10.3844250">
	<ele>1662.00</ele>
	<time>2024-07-24T09:11:23.000Z</time>
</trkpt>
<trkpt lat="46.0443570" lon="10.3844130">
	<ele>1662.00</ele>
	<time>2024-07-24T09:11:24.000Z</time>
</trkpt>
<trkpt lat="46.0443640" lon="10.3844040">
	<ele>1661.80</ele>
	<time>2024-07-24T09:11:25.000Z</time>
</trkpt>
<trkpt lat="46.0443720" lon="10.3843970">
	<ele>1661.80</ele>
	<time>2024-07-24T09:11:26.000Z</time>
</trkpt>
<trkpt lat="46.0443790" lon="10.3843870">
	<ele>1661.80</ele>
	<time>2024-07-24T09:11:27.000Z</time>
</trkpt>
<trkpt lat="46.0443880" lon="10.3843850">
	<ele>1661.80</ele>
	<time>2024-07-24T09:11:28.000Z</time>
</trkpt>
<trkpt lat="46.0443930" lon="10.3843750">
	<ele>1661.80</ele>
	<time>2024-07-24T09:11:29.000Z</time>
</trkpt>
<trkpt lat="46.0443980" lon="10.3843720">
	<ele>1662.00</ele>
	<time>2024-07-24T09:11:30.000Z</time>
</trkpt>
<trkpt lat="46.0444020" lon="10.3843690">
	<ele>1662.00</ele>
	<time>2024-07-24T09:11:31.000Z</time>
</trkpt>
<trkpt lat="46.0444020" lon="10.3843680">
	<ele>1662.00</ele>
	<time>2024-07-24T09:11:32.000Z</time>
</trkpt>
<trkpt lat="46.0444020" lon="10.3843690">
	<ele>1662.00</ele>
	<time>2024-07-24T09:11:33.000Z</time>
</trkpt>
<trkpt lat="46.0444020" lon="10.3843690">
	<ele>1662.00</ele>
	<time>2024-07-24T09:11:34.000Z</time>
</trkpt>
<trkpt lat="46.0444030" lon="10.3843650">
	<ele>1662.00</ele>
	<time>2024-07-24T09:11:35.000Z</time>
</trkpt>
<trkpt lat="46.0444010" lon="10.3843570">
	<ele>1662.00</ele>
	<time>2024-07-24T09:11:36.000Z</time>
</trkpt>
<trkpt lat="46.0443970" lon="10.3843480">
	<ele>1662.00</ele>
	<time>2024-07-24T09:11:37.000Z</time>
</trkpt>
<trkpt lat="46.0443950" lon="10.3843380">
	<ele>1661.80</ele>
	<time>2024-07-24T09:11:38.000Z</time>
</trkpt>
<trkpt lat="46.0443920" lon="10.3843260">
	<ele>1661.60</ele>
	<time>2024-07-24T09:11:39.000Z</time>
</trkpt>
<trkpt lat="46.0443870" lon="10.3843130">
	<ele>1662.40</ele>
	<time>2024-07-24T09:11:40.000Z</time>
</trkpt>
<trkpt lat="46.0443800" lon="10.3842980">
	<ele>1662.40</ele>
	<time>2024-07-24T09:11:41.000Z</time>
</trkpt>
<trkpt lat="46.0443720" lon="10.3842880">
	<ele>1662.40</ele>
	<time>2024-07-24T09:11:42.000Z</time>
</trkpt>
<trkpt lat="46.0443640" lon="10.3842790">
	<ele>1662.40</ele>
	<time>2024-07-24T09:11:43.000Z</time>
</trkpt>
<trkpt lat="46.0443600" lon="10.3842690">
	<ele>1662.40</ele>
	<time>2024-07-24T09:11:44.000Z</time>
</trkpt>
<trkpt lat="46.0443560" lon="10.3842640">
	<ele>1662.40</ele>
	<time>2024-07-24T09:11:45.000Z</time>
</trkpt>
<trkpt lat="46.0443520" lon="10.3842600">
	<ele>1662.40</ele>
	<time>2024-07-24T09:11:46.000Z</time>
</trkpt>
<trkpt lat="46.0443500" lon="10.3842590">
	<ele>1662.40</ele>
	<time>2024-07-24T09:11:47.000Z</time>
</trkpt>
<trkpt lat="46.0443500" lon="10.3842590">
	<ele>1662.40</ele>
	<time>2024-07-24T09:11:48.000Z</time>
</trkpt>
<trkpt lat="46.0443500" lon="10.3842590">
	<ele>1662.40</ele>
	<time>2024-07-24T09:11:49.000Z</time>
</trkpt>
<trkpt lat="46.0443480" lon="10.3842580">
	<ele>1662.40</ele>
	<time>2024-07-24T09:11:50.000Z</time>
</trkpt>
<trkpt lat="46.0443460" lon="10.3842580">
	<ele>1662.40</ele>
	<time>2024-07-24T09:11:51.000Z</time>
</trkpt>
<trkpt lat="46.0443440" lon="10.3842600">
	<ele>1662.40</ele>
	<time>2024-07-24T09:11:52.000Z</time>
</trkpt>
<trkpt lat="46.0443420" lon="10.3842610">
	<ele>1662.40</ele>
	<time>2024-07-24T09:11:53.000Z</time>
</trkpt>
<trkpt lat="46.0443430" lon="10.3842610">
	<ele>1662.40</ele>
	<time>2024-07-24T09:11:54.000Z</time>
</trkpt>
<trkpt lat="46.0443440" lon="10.3842590">
	<ele>1662.40</ele>
	<time>2024-07-24T09:11:55.000Z</time>
</trkpt>
<trkpt lat="46.0443460" lon="10.3842520">
	<ele>1662.40</ele>
	<time>2024-07-24T09:11:56.000Z</time>
</trkpt>
<trkpt lat="46.0443520" lon="10.3842460">
	<ele>1662.40</ele>
	<time>2024-07-24T09:11:57.000Z</time>
</trkpt>
<trkpt lat="46.0443590" lon="10.3842410">
	<ele>1662.40</ele>
	<time>2024-07-24T09:11:58.000Z</time>
</trkpt>
<trkpt lat="46.0443700" lon="10.3842350">
	<ele>1662.40</ele>
	<time>2024-07-24T09:11:59.000Z</time>
</trkpt>
<trkpt lat="46.0443830" lon="10.3842290">
	<ele>1662.40</ele>
	<time>2024-07-24T09:12:00.000Z</time>
</trkpt>
<trkpt lat="46.0443950" lon="10.3842240">
	<ele>1662.40</ele>
	<time>2024-07-24T09:12:01.000Z</time>
</trkpt>
<trkpt lat="46.0444080" lon="10.3842190">
	<ele>1662.40</ele>
	<time>2024-07-24T09:12:02.000Z</time>
</trkpt>
<trkpt lat="46.0444200" lon="10.3842120">
	<ele>1662.40</ele>
	<time>2024-07-24T09:12:03.000Z</time>
</trkpt>
<trkpt lat="46.0444310" lon="10.3842040">
	<ele>1662.40</ele>
	<time>2024-07-24T09:12:04.000Z</time>
</trkpt>
<trkpt lat="46.0444410" lon="10.3841920">
	<ele>1662.40</ele>
	<time>2024-07-24T09:12:05.000Z</time>
</trkpt>
<trkpt lat="46.0444520" lon="10.3841820">
	<ele>1662.40</ele>
	<time>2024-07-24T09:12:06.000Z</time>
</trkpt>
<trkpt lat="46.0444620" lon="10.3841730">
	<ele>1662.40</ele>
	<time>2024-07-24T09:12:07.000Z</time>
</trkpt>
<trkpt lat="46.0444680" lon="10.3841600">
	<ele>1662.40</ele>
	<time>2024-07-24T09:12:08.000Z</time>
</trkpt>
<trkpt lat="46.0444720" lon="10.3841450">
	<ele>1662.40</ele>
	<time>2024-07-24T09:12:09.000Z</time>
</trkpt>
<trkpt lat="46.0444760" lon="10.3841290">
	<ele>1662.40</ele>
	<time>2024-07-24T09:12:10.000Z</time>
</trkpt>
<trkpt lat="46.0444820" lon="10.3841140">
	<ele>1662.40</ele>
	<time>2024-07-24T09:12:11.000Z</time>
</trkpt>
<trkpt lat="46.0444980" lon="10.3841090">
	<ele>1662.40</ele>
	<time>2024-07-24T09:12:12.000Z</time>
</trkpt>
<trkpt lat="46.0445130" lon="10.3841010">
	<ele>1662.40</ele>
	<time>2024-07-24T09:12:13.000Z</time>
</trkpt>
<trkpt lat="46.0445190" lon="10.3840920">
	<ele>1662.40</ele>
	<time>2024-07-24T09:12:14.000Z</time>
</trkpt>
<trkpt lat="46.0445220" lon="10.3840890">
	<ele>1662.40</ele>
	<time>2024-07-24T09:12:15.000Z</time>
</trkpt>
<trkpt lat="46.0445240" lon="10.3840880">
	<ele>1662.40</ele>
	<time>2024-07-24T09:12:16.000Z</time>
</trkpt>
<trkpt lat="46.0445250" lon="10.3840870">
	<ele>1662.40</ele>
	<time>2024-07-24T09:12:17.000Z</time>
</trkpt>
<trkpt lat="46.0445260" lon="10.3840860">
	<ele>1662.40</ele>
	<time>2024-07-24T09:12:18.000Z</time>
</trkpt>
<trkpt lat="46.0445270" lon="10.3840850">
	<ele>1662.20</ele>
	<time>2024-07-24T09:12:19.000Z</time>
</trkpt>
<trkpt lat="46.0445250" lon="10.3840860">
	<ele>1662.00</ele>
	<time>2024-07-24T09:12:20.000Z</time>
</trkpt>
<trkpt lat="46.0445240" lon="10.3840850">
	<ele>1662.00</ele>
	<time>2024-07-24T09:12:21.000Z</time>
</trkpt>
<trkpt lat="46.0445230" lon="10.3840850">
	<ele>1661.80</ele>
	<time>2024-07-24T09:12:22.000Z</time>
</trkpt>
<trkpt lat="46.0445210" lon="10.3840850">
	<ele>1662.00</ele>
	<time>2024-07-24T09:12:23.000Z</time>
</trkpt>
<trkpt lat="46.0445210" lon="10.3840850">
	<ele>1662.00</ele>
	<time>2024-07-24T09:12:24.000Z</time>
</trkpt>
<trkpt lat="46.0445190" lon="10.3840850">
	<ele>1662.00</ele>
	<time>2024-07-24T09:12:25.000Z</time>
</trkpt>
<trkpt lat="46.0445180" lon="10.3840840">
	<ele>1662.00</ele>
	<time>2024-07-24T09:12:26.000Z</time>
</trkpt>
<trkpt lat="46.0445170" lon="10.3840830">
	<ele>1662.00</ele>
	<time>2024-07-24T09:12:27.000Z</time>
</trkpt>
<trkpt lat="46.0445170" lon="10.3840830">
	<ele>1662.00</ele>
	<time>2024-07-24T09:12:28.000Z</time>
</trkpt>
<trkpt lat="46.0445170" lon="10.3840830">
	<ele>1662.00</ele>
	<time>2024-07-24T09:12:29.000Z</time>
</trkpt>
<trkpt lat="46.0445170" lon="10.3840830">
	<ele>1662.00</ele>
	<time>2024-07-24T09:12:30.000Z</time>
</trkpt>
<trkpt lat="46.0445170" lon="10.3840830">
	<ele>1662.00</ele>
	<time>2024-07-24T09:12:31.000Z</time>
</trkpt>
<trkpt lat="46.0445170" lon="10.3840830">
	<ele>1662.00</ele>
	<time>2024-07-24T09:12:32.000Z</time>
</trkpt>
<trkpt lat="46.0445170" lon="10.3840830">
	<ele>1662.00</ele>
	<time>2024-07-24T09:12:33.000Z</time>
</trkpt>
<trkpt lat="46.0445170" lon="10.3840830">
	<ele>1662.00</ele>
	<time>2024-07-24T09:12:34.000Z</time>
</trkpt>
<trkpt lat="46.0445170" lon="10.3840830">
	<ele>1662.00</ele>
	<time>2024-07-24T09:12:35.000Z</time>
</trkpt>
<trkpt lat="46.0445170" lon="10.3840830">
	<ele>1662.00</ele>
	<time>2024-07-24T09:12:36.000Z</time>
</trkpt>
<trkpt lat="46.0445180" lon="10.3840830">
	<ele>1661.80</ele>
	<time>2024-07-24T09:12:37.000Z</time>
</trkpt>
<trkpt lat="46.0445180" lon="10.3840830">
	<ele>1661.80</ele>
	<time>2024-07-24T09:12:38.000Z</time>
</trkpt>
<trkpt lat="46.0445180" lon="10.3840830">
	<ele>1661.80</ele>
	<time>2024-07-24T09:12:39.000Z</time>
</trkpt>
<trkpt lat="46.0445180" lon="10.3840830">
	<ele>1661.80</ele>
	<time>2024-07-24T09:12:40.000Z</time>
</trkpt>
<trkpt lat="46.0445180" lon="10.3840830">
	<ele>1661.80</ele>
	<time>2024-07-24T09:12:41.000Z</time>
</trkpt>
<trkpt lat="46.0445190" lon="10.3840830">
	<ele>1661.80</ele>
	<time>2024-07-24T09:12:42.000Z</time>
</trkpt>
<trkpt lat="46.0445190" lon="10.3840830">
	<ele>1661.80</ele>
	<time>2024-07-24T09:12:43.000Z</time>
</trkpt>
<trkpt lat="46.0445190" lon="10.3840820">
	<ele>1661.80</ele>
	<time>2024-07-24T09:12:44.000Z</time>
</trkpt>
<trkpt lat="46.0445200" lon="10.3840820">
	<ele>1661.80</ele>
	<time>2024-07-24T09:12:45.000Z</time>
</trkpt>
<trkpt lat="46.0445200" lon="10.3840810">
	<ele>1662.00</ele>
	<time>2024-07-24T09:12:46.000Z</time>
</trkpt>
<trkpt lat="46.0445200" lon="10.3840810">
	<ele>1662.00</ele>
	<time>2024-07-24T09:12:47.000Z</time>
</trkpt>
<trkpt lat="46.0445200" lon="10.3840790">
	<ele>1662.00</ele>
	<time>2024-07-24T09:12:48.000Z</time>
</trkpt>
<trkpt lat="46.0445200" lon="10.3840750">
	<ele>1662.20</ele>
	<time>2024-07-24T09:12:49.000Z</time>
</trkpt>
<trkpt lat="46.0445200" lon="10.3840730">
	<ele>1662.20</ele>
	<time>2024-07-24T09:12:50.000Z</time>
</trkpt>
<trkpt lat="46.0445200" lon="10.3840710">
	<ele>1662.20</ele>
	<time>2024-07-24T09:12:51.000Z</time>
</trkpt>
<trkpt lat="46.0445200" lon="10.3840710">
	<ele>1662.40</ele>
	<time>2024-07-24T09:12:52.000Z</time>
</trkpt>
<trkpt lat="46.0445200" lon="10.3840700">
	<ele>1662.40</ele>
	<time>2024-07-24T09:12:53.000Z</time>
</trkpt>
<trkpt lat="46.0445200" lon="10.3840700">
	<ele>1662.40</ele>
	<time>2024-07-24T09:12:54.000Z</time>
</trkpt>
<trkpt lat="46.0445200" lon="10.3840700">
	<ele>1662.40</ele>
	<time>2024-07-24T09:12:55.000Z</time>
</trkpt>
<trkpt lat="46.0445200" lon="10.3840690">
	<ele>1662.40</ele>
	<time>2024-07-24T09:12:56.000Z</time>
</trkpt>
<trkpt lat="46.0445200" lon="10.3840690">
	<ele>1662.40</ele>
	<time>2024-07-24T09:12:57.000Z</time>
</trkpt>
<trkpt lat="46.0445200" lon="10.3840690">
	<ele>1662.40</ele>
	<time>2024-07-24T09:12:58.000Z</time>
</trkpt>
<trkpt lat="46.0445200" lon="10.3840680">
	<ele>1662.20</ele>
	<time>2024-07-24T09:12:59.000Z</time>
</trkpt>
<trkpt lat="46.0445200" lon="10.3840680">
	<ele>1662.20</ele>
	<time>2024-07-24T09:13:00.000Z</time>
</trkpt>
<trkpt lat="46.0445200" lon="10.3840660">
	<ele>1662.20</ele>
	<time>2024-07-24T09:13:01.000Z</time>
</trkpt>
<trkpt lat="46.0445200" lon="10.3840660">
	<ele>1662.20</ele>
	<time>2024-07-24T09:13:02.000Z</time>
</trkpt>
<trkpt lat="46.0445200" lon="10.3840660">
	<ele>1662.20</ele>
	<time>2024-07-24T09:13:03.000Z</time>
</trkpt>
<trkpt lat="46.0445190" lon="10.3840660">
	<ele>1662.20</ele>
	<time>2024-07-24T09:13:04.000Z</time>
</trkpt>
<trkpt lat="46.0445190" lon="10.3840660">
	<ele>1662.20</ele>
	<time>2024-07-24T09:13:05.000Z</time>
</trkpt>
<trkpt lat="46.0445190" lon="10.3840660">
	<ele>1662.20</ele>
	<time>2024-07-24T09:13:06.000Z</time>
</trkpt>
<trkpt lat="46.0445190" lon="10.3840650">
	<ele>1662.20</ele>
	<time>2024-07-24T09:13:07.000Z</time>
</trkpt>
<trkpt lat="46.0445180" lon="10.3840650">
	<ele>1662.20</ele>
	<time>2024-07-24T09:13:08.000Z</time>
</trkpt>
<trkpt lat="46.0445180" lon="10.3840650">
	<ele>1662.20</ele>
	<time>2024-07-24T09:13:09.000Z</time>
</trkpt>
<trkpt lat="46.0445180" lon="10.3840650">
	<ele>1662.20</ele>
	<time>2024-07-24T09:13:10.000Z</time>
</trkpt>
<trkpt lat="46.0445170" lon="10.3840650">
	<ele>1662.20</ele>
	<time>2024-07-24T09:13:11.000Z</time>
</trkpt>
<trkpt lat="46.0445170" lon="10.3840650">
	<ele>1662.40</ele>
	<time>2024-07-24T09:13:12.000Z</time>
</trkpt>
<trkpt lat="46.0445150" lon="10.3840650">
	<ele>1662.40</ele>
	<time>2024-07-24T09:13:13.000Z</time>
</trkpt>
<trkpt lat="46.0445140" lon="10.3840650">
	<ele>1662.40</ele>
	<time>2024-07-24T09:13:14.000Z</time>
</trkpt>
<trkpt lat="46.0445140" lon="10.3840650">
	<ele>1662.40</ele>
	<time>2024-07-24T09:13:15.000Z</time>
</trkpt>
<trkpt lat="46.0445140" lon="10.3840650">
	<ele>1662.60</ele>
	<time>2024-07-24T09:13:16.000Z</time>
</trkpt>
<trkpt lat="46.0445140" lon="10.3840650">
	<ele>1662.60</ele>
	<time>2024-07-24T09:13:17.000Z</time>
</trkpt>
<trkpt lat="46.0445130" lon="10.3840650">
	<ele>1662.60</ele>
	<time>2024-07-24T09:13:18.000Z</time>
</trkpt>
<trkpt lat="46.0445130" lon="10.3840650">
	<ele>1662.40</ele>
	<time>2024-07-24T09:13:19.000Z</time>
</trkpt>
<trkpt lat="46.0445130" lon="10.3840650">
	<ele>1662.40</ele>
	<time>2024-07-24T09:13:20.000Z</time>
</trkpt>
<trkpt lat="46.0445120" lon="10.3840650">
	<ele>1662.40</ele>
	<time>2024-07-24T09:13:21.000Z</time>
</trkpt>
<trkpt lat="46.0445120" lon="10.3840650">
	<ele>1662.20</ele>
	<time>2024-07-24T09:13:22.000Z</time>
</trkpt>
<trkpt lat="46.0445120" lon="10.3840650">
	<ele>1662.20</ele>
	<time>2024-07-24T09:13:23.000Z</time>
</trkpt>
<trkpt lat="46.0445120" lon="10.3840640">
	<ele>1662.20</ele>
	<time>2024-07-24T09:13:24.000Z</time>
</trkpt>
<trkpt lat="46.0445120" lon="10.3840640">
	<ele>1662.20</ele>
	<time>2024-07-24T09:13:25.000Z</time>
</trkpt>
<trkpt lat="46.0445120" lon="10.3840640">
	<ele>1662.20</ele>
	<time>2024-07-24T09:13:26.000Z</time>
</trkpt>
<trkpt lat="46.0445110" lon="10.3840640">
	<ele>1662.20</ele>
	<time>2024-07-24T09:13:27.000Z</time>
</trkpt>
<trkpt lat="46.0445110" lon="10.3840640">
	<ele>1662.20</ele>
	<time>2024-07-24T09:13:28.000Z</time>
</trkpt>
<trkpt lat="46.0445110" lon="10.3840640">
	<ele>1662.20</ele>
	<time>2024-07-24T09:13:29.000Z</time>
</trkpt>
<trkpt lat="46.0445110" lon="10.3840640">
	<ele>1662.20</ele>
	<time>2024-07-24T09:13:30.000Z</time>
</trkpt>
<trkpt lat="46.0445110" lon="10.3840640">
	<ele>1662.20</ele>
	<time>2024-07-24T09:13:31.000Z</time>
</trkpt>
<trkpt lat="46.0445110" lon="10.3840640">
	<ele>1662.20</ele>
	<time>2024-07-24T09:13:32.000Z</time>
</trkpt>
<trkpt lat="46.0445110" lon="10.3840650">
	<ele>1662.20</ele>
	<time>2024-07-24T09:13:33.000Z</time>
</trkpt>
<trkpt lat="46.0445100" lon="10.3840650">
	<ele>1662.20</ele>
	<time>2024-07-24T09:13:34.000Z</time>
</trkpt>
<trkpt lat="46.0445100" lon="10.3840660">
	<ele>1662.20</ele>
	<time>2024-07-24T09:13:35.000Z</time>
</trkpt>
<trkpt lat="46.0445100" lon="10.3840660">
	<ele>1662.20</ele>
	<time>2024-07-24T09:13:36.000Z</time>
</trkpt>
<trkpt lat="46.0445100" lon="10.3840660">
	<ele>1662.20</ele>
	<time>2024-07-24T09:13:37.000Z</time>
</trkpt>
<trkpt lat="46.0445100" lon="10.3840660">
	<ele>1662.20</ele>
	<time>2024-07-24T09:13:38.000Z</time>
</trkpt>
<trkpt lat="46.0445100" lon="10.3840660">
	<ele>1662.20</ele>
	<time>2024-07-24T09:13:39.000Z</time>
</trkpt>
<trkpt lat="46.0445100" lon="10.3840660">
	<ele>1662.20</ele>
	<time>2024-07-24T09:13:40.000Z</time>
</trkpt>
<trkpt lat="46.0445100" lon="10.3840670">
	<ele>1662.20</ele>
	<time>2024-07-24T09:13:41.000Z</time>
</trkpt>
<trkpt lat="46.0445100" lon="10.3840670">
	<ele>1662.20</ele>
	<time>2024-07-24T09:13:42.000Z</time>
</trkpt>
<trkpt lat="46.0445110" lon="10.3840750">
	<ele>1662.20</ele>
	<time>2024-07-24T09:13:43.000Z</time>
</trkpt>
<trkpt lat="46.0445170" lon="10.3840990">
	<ele>1662.20</ele>
	<time>2024-07-24T09:13:44.000Z</time>
</trkpt>
<trkpt lat="46.0445220" lon="10.3841210">
	<ele>1662.20</ele>
	<time>2024-07-24T09:13:45.000Z</time>
</trkpt>
<trkpt lat="46.0445280" lon="10.3841420">
	<ele>1662.20</ele>
	<time>2024-07-24T09:13:46.000Z</time>
</trkpt>
<trkpt lat="46.0445350" lon="10.3841650">
	<ele>1662.20</ele>
	<time>2024-07-24T09:13:47.000Z</time>
</trkpt>
<trkpt lat="46.0445380" lon="10.3841890">
	<ele>1662.20</ele>
	<time>2024-07-24T09:13:48.000Z</time>
</trkpt>
<trkpt lat="46.0445410" lon="10.3842140">
	<ele>1662.20</ele>
	<time>2024-07-24T09:13:49.000Z</time>
</trkpt>
<trkpt lat="46.0445410" lon="10.3842310">
	<ele>1662.20</ele>
	<time>2024-07-24T09:13:50.000Z</time>
</trkpt>
<trkpt lat="46.0445380" lon="10.3842420">
	<ele>1662.20</ele>
	<time>2024-07-24T09:13:51.000Z</time>
</trkpt>
<trkpt lat="46.0445340" lon="10.3842570">
	<ele>1662.20</ele>
	<time>2024-07-24T09:13:52.000Z</time>
</trkpt>
<trkpt lat="46.0445330" lon="10.3842650">
	<ele>1662.20</ele>
	<time>2024-07-24T09:13:53.000Z</time>
</trkpt>
<trkpt lat="46.0445350" lon="10.3842760">
	<ele>1662.80</ele>
	<time>2024-07-24T09:13:54.000Z</time>
</trkpt>
<trkpt lat="46.0445350" lon="10.3842800">
	<ele>1663.00</ele>
	<time>2024-07-24T09:13:55.000Z</time>
</trkpt>
<trkpt lat="46.0445350" lon="10.3842850">
	<ele>1663.20</ele>
	<time>2024-07-24T09:13:56.000Z</time>
</trkpt>
<trkpt lat="46.0445360" lon="10.3842900">
	<ele>1663.20</ele>
	<time>2024-07-24T09:13:57.000Z</time>
</trkpt>
<trkpt lat="46.0445350" lon="10.3842930">
	<ele>1663.40</ele>
	<time>2024-07-24T09:13:58.000Z</time>
</trkpt>
<trkpt lat="46.0445380" lon="10.3842970">
	<ele>1663.40</ele>
	<time>2024-07-24T09:13:59.000Z</time>
</trkpt>
<trkpt lat="46.0445400" lon="10.3843000">
	<ele>1663.40</ele>
	<time>2024-07-24T09:14:00.000Z</time>
</trkpt>
<trkpt lat="46.0445380" lon="10.3843120">
	<ele>1663.40</ele>
	<time>2024-07-24T09:14:02.000Z</time>
</trkpt>
<trkpt lat="46.0445280" lon="10.3843940">
	<ele>1662.80</ele>
	<time>2024-07-24T09:17:47.000Z</time>
</trkpt>
<trkpt lat="46.0445720" lon="10.3840820">
	<ele>1662.80</ele>
	<time>2024-07-24T09:17:48.000Z</time>
</trkpt>
<trkpt lat="46.0444750" lon="10.3840720">
	<ele>1662.80</ele>
	<time>2024-07-24T09:17:49.000Z</time>
</trkpt>
<trkpt lat="46.0444500" lon="10.3840750">
	<ele>1662.80</ele>
	<time>2024-07-24T09:17:50.000Z</time>
</trkpt>
<trkpt lat="46.0444670" lon="10.3840740">
	<ele>1662.60</ele>
	<time>2024-07-24T09:17:51.000Z</time>
</trkpt>
<trkpt lat="46.0444630" lon="10.3840860">
	<ele>1662.40</ele>
	<time>2024-07-24T09:17:52.000Z</time>
</trkpt>
<trkpt lat="46.0444720" lon="10.3841000">
	<ele>1662.40</ele>
	<time>2024-07-24T09:17:53.000Z</time>
</trkpt>
<trkpt lat="46.0444730" lon="10.3840990">
	<ele>1662.40</ele>
	<time>2024-07-24T09:17:54.000Z</time>
</trkpt>
<trkpt lat="46.0444880" lon="10.3840970">
	<ele>1662.40</ele>
	<time>2024-07-24T09:17:55.000Z</time>
</trkpt>
<trkpt lat="46.0444900" lon="10.3841090">
	<ele>1662.40</ele>
	<time>2024-07-24T09:17:56.000Z</time>
</trkpt>
<trkpt lat="46.0445030" lon="10.3841070">
	<ele>1662.40</ele>
	<time>2024-07-24T09:17:57.000Z</time>
</trkpt>
<trkpt lat="46.0445170" lon="10.3841060">
	<ele>1662.40</ele>
	<time>2024-07-24T09:17:58.000Z</time>
</trkpt>
<trkpt lat="46.0445210" lon="10.3841040">
	<ele>1662.40</ele>
	<time>2024-07-24T09:17:59.000Z</time>
</trkpt>
<trkpt lat="46.0445240" lon="10.3841030">
	<ele>1662.40</ele>
	<time>2024-07-24T09:18:00.000Z</time>
</trkpt>
<trkpt lat="46.0445220" lon="10.3841000">
	<ele>1662.40</ele>
	<time>2024-07-24T09:18:01.000Z</time>
</trkpt>
<trkpt lat="46.0445140" lon="10.3841050">
	<ele>1662.40</ele>
	<time>2024-07-24T09:18:02.000Z</time>
</trkpt>
<trkpt lat="46.0445140" lon="10.3841140">
	<ele>1662.40</ele>
	<time>2024-07-24T09:18:03.000Z</time>
</trkpt>
<trkpt lat="46.0445140" lon="10.3841170">
	<ele>1662.40</ele>
	<time>2024-07-24T09:18:04.000Z</time>
</trkpt>
<trkpt lat="46.0445120" lon="10.3841180">
	<ele>1662.40</ele>
	<time>2024-07-24T09:18:05.000Z</time>
</trkpt>
<trkpt lat="46.0445140" lon="10.3841120">
	<ele>1662.40</ele>
	<time>2024-07-24T09:18:06.000Z</time>
</trkpt>
<trkpt lat="46.0445130" lon="10.3840970">
	<ele>1662.40</ele>
	<time>2024-07-24T09:18:07.000Z</time>
</trkpt>
<trkpt lat="46.0445120" lon="10.3840920">
	<ele>1662.40</ele>
	<time>2024-07-24T09:18:08.000Z</time>
</trkpt>
<trkpt lat="46.0445100" lon="10.3840970">
	<ele>1662.40</ele>
	<time>2024-07-24T09:18:09.000Z</time>
</trkpt>
<trkpt lat="46.0445030" lon="10.3841120">
	<ele>1662.40</ele>
	<time>2024-07-24T09:18:10.000Z</time>
</trkpt>
<trkpt lat="46.0445000" lon="10.3841180">
	<ele>1662.40</ele>
	<time>2024-07-24T09:18:11.000Z</time>
</trkpt>
<trkpt lat="46.0445010" lon="10.3841150">
	<ele>1662.40</ele>
	<time>2024-07-24T09:18:12.000Z</time>
</trkpt>
<trkpt lat="46.0445000" lon="10.3841200">
	<ele>1662.40</ele>
	<time>2024-07-24T09:18:13.000Z</time>
</trkpt>
<trkpt lat="46.0445000" lon="10.3841230">
	<ele>1662.40</ele>
	<time>2024-07-24T09:18:14.000Z</time>
</trkpt>
<trkpt lat="46.0445000" lon="10.3841220">
	<ele>1662.40</ele>
	<time>2024-07-24T09:18:15.000Z</time>
</trkpt>
<trkpt lat="46.0445020" lon="10.3841230">
	<ele>1662.40</ele>
	<time>2024-07-24T09:18:16.000Z</time>
</trkpt>
<trkpt lat="46.0445030" lon="10.3841240">
	<ele>1662.40</ele>
	<time>2024-07-24T09:18:17.000Z</time>
</trkpt>
<trkpt lat="46.0445070" lon="10.3841250">
	<ele>1662.40</ele>
	<time>2024-07-24T09:18:18.000Z</time>
</trkpt>
<trkpt lat="46.0445090" lon="10.3841220">
	<ele>1662.40</ele>
	<time>2024-07-24T09:18:19.000Z</time>
</trkpt>
<trkpt lat="46.0445100" lon="10.3841210">
	<ele>1662.40</ele>
	<time>2024-07-24T09:18:20.000Z</time>
</trkpt>
<trkpt lat="46.0445100" lon="10.3841210">
	<ele>1662.20</ele>
	<time>2024-07-24T09:18:21.000Z</time>
</trkpt>
<trkpt lat="46.0445100" lon="10.3841210">
	<ele>1662.20</ele>
	<time>2024-07-24T09:18:22.000Z</time>
</trkpt>
<trkpt lat="46.0445100" lon="10.3841210">
	<ele>1662.20</ele>
	<time>2024-07-24T09:18:23.000Z</time>
</trkpt>
<trkpt lat="46.0445100" lon="10.3841210">
	<ele>1662.20</ele>
	<time>2024-07-24T09:18:24.000Z</time>
</trkpt>
<trkpt lat="46.0445100" lon="10.3841210">
	<ele>1662.20</ele>
	<time>2024-07-24T09:18:25.000Z</time>
</trkpt>
<trkpt lat="46.0445100" lon="10.3841210">
	<ele>1662.20</ele>
	<time>2024-07-24T09:18:26.000Z</time>
</trkpt>
<trkpt lat="46.0445100" lon="10.3841210">
	<ele>1662.40</ele>
	<time>2024-07-24T09:18:27.000Z</time>
</trkpt>
<trkpt lat="46.0445100" lon="10.3841210">
	<ele>1662.60</ele>
	<time>2024-07-24T09:18:28.000Z</time>
</trkpt>
<trkpt lat="46.0445100" lon="10.3841210">
	<ele>1662.80</ele>
	<time>2024-07-24T09:18:29.000Z</time>
</trkpt>
<trkpt lat="46.0445100" lon="10.3841210">
	<ele>1662.80</ele>
	<time>2024-07-24T09:18:30.000Z</time>
</trkpt>
<trkpt lat="46.0445100" lon="10.3841210">
	<ele>1663.00</ele>
	<time>2024-07-24T09:18:31.000Z</time>
</trkpt>
<trkpt lat="46.0445100" lon="10.3841210">
	<ele>1663.00</ele>
	<time>2024-07-24T09:18:32.000Z</time>
</trkpt>
<trkpt lat="46.0445100" lon="10.3841210">
	<ele>1663.00</ele>
	<time>2024-07-24T09:18:33.000Z</time>
</trkpt>
<trkpt lat="46.0445100" lon="10.3841200">
	<ele>1663.00</ele>
	<time>2024-07-24T09:18:34.000Z</time>
</trkpt>
<trkpt lat="46.0445100" lon="10.3841190">
	<ele>1663.00</ele>
	<time>2024-07-24T09:18:35.000Z</time>
</trkpt>
<trkpt lat="46.0445120" lon="10.3841170">
	<ele>1663.00</ele>
	<time>2024-07-24T09:18:36.000Z</time>
</trkpt>
<trkpt lat="46.0445120" lon="10.3841160">
	<ele>1663.00</ele>
	<time>2024-07-24T09:18:37.000Z</time>
</trkpt>
<trkpt lat="46.0445120" lon="10.3841160">
	<ele>1663.00</ele>
	<time>2024-07-24T09:18:38.000Z</time>
</trkpt>
<trkpt lat="46.0445120" lon="10.3841160">
	<ele>1663.00</ele>
	<time>2024-07-24T09:18:39.000Z</time>
</trkpt>
<trkpt lat="46.0445120" lon="10.3841160">
	<ele>1662.80</ele>
	<time>2024-07-24T09:18:40.000Z</time>
</trkpt>
<trkpt lat="46.0445120" lon="10.3841160">
	<ele>1662.80</ele>
	<time>2024-07-24T09:18:41.000Z</time>
</trkpt>
<trkpt lat="46.0445120" lon="10.3841160">
	<ele>1662.80</ele>
	<time>2024-07-24T09:18:42.000Z</time>
</trkpt>
<trkpt lat="46.0445120" lon="10.3841160">
	<ele>1662.80</ele>
	<time>2024-07-24T09:18:43.000Z</time>
</trkpt>
<trkpt lat="46.0445120" lon="10.3841150">
	<ele>1662.80</ele>
	<time>2024-07-24T09:18:44.000Z</time>
</trkpt>
<trkpt lat="46.0445120" lon="10.3841150">
	<ele>1662.80</ele>
	<time>2024-07-24T09:18:45.000Z</time>
</trkpt>
<trkpt lat="46.0445120" lon="10.3841150">
	<ele>1662.60</ele>
	<time>2024-07-24T09:18:46.000Z</time>
</trkpt>
<trkpt lat="46.0445130" lon="10.3841150">
	<ele>1662.60</ele>
	<time>2024-07-24T09:18:47.000Z</time>
</trkpt>
<trkpt lat="46.0445130" lon="10.3841140">
	<ele>1662.60</ele>
	<time>2024-07-24T09:18:48.000Z</time>
</trkpt>
<trkpt lat="46.0445130" lon="10.3841130">
	<ele>1662.80</ele>
	<time>2024-07-24T09:18:49.000Z</time>
</trkpt>
<trkpt lat="46.0445130" lon="10.3841120">
	<ele>1662.80</ele>
	<time>2024-07-24T09:18:50.000Z</time>
</trkpt>
<trkpt lat="46.0445130" lon="10.3841120">
	<ele>1662.80</ele>
	<time>2024-07-24T09:18:51.000Z</time>
</trkpt>
<trkpt lat="46.0445130" lon="10.3841110">
	<ele>1662.80</ele>
	<time>2024-07-24T09:18:52.000Z</time>
</trkpt>
<trkpt lat="46.0445130" lon="10.3841100">
	<ele>1662.60</ele>
	<time>2024-07-24T09:18:53.000Z</time>
</trkpt>
<trkpt lat="46.0445130" lon="10.3841080">
	<ele>1662.60</ele>
	<time>2024-07-24T09:18:54.000Z</time>
</trkpt>
<trkpt lat="46.0445130" lon="10.3841070">
	<ele>1662.60</ele>
	<time>2024-07-24T09:18:55.000Z</time>
</trkpt>
<trkpt lat="46.0445130" lon="10.3841070">
	<ele>1662.60</ele>
	<time>2024-07-24T09:18:56.000Z</time>
</trkpt>
<trkpt lat="46.0445130" lon="10.3841060">
	<ele>1662.60</ele>
	<time>2024-07-24T09:18:57.000Z</time>
</trkpt>
<trkpt lat="46.0445130" lon="10.3841060">
	<ele>1662.60</ele>
	<time>2024-07-24T09:18:58.000Z</time>
</trkpt>
<trkpt lat="46.0445120" lon="10.3841040">
	<ele>1662.60</ele>
	<time>2024-07-24T09:18:59.000Z</time>
</trkpt>
<trkpt lat="46.0445120" lon="10.3841030">
	<ele>1662.60</ele>
	<time>2024-07-24T09:19:00.000Z</time>
</trkpt>
<trkpt lat="46.0445120" lon="10.3841030">
	<ele>1662.60</ele>
	<time>2024-07-24T09:19:01.000Z</time>
</trkpt>
<trkpt lat="46.0445120" lon="10.3841030">
	<ele>1662.60</ele>
	<time>2024-07-24T09:19:02.000Z</time>
</trkpt>
<trkpt lat="46.0445120" lon="10.3841030">
	<ele>1662.60</ele>
	<time>2024-07-24T09:19:03.000Z</time>
</trkpt>
<trkpt lat="46.0445120" lon="10.3841030">
	<ele>1662.60</ele>
	<time>2024-07-24T09:19:04.000Z</time>
</trkpt>
<trkpt lat="46.0445120" lon="10.3841020">
	<ele>1662.60</ele>
	<time>2024-07-24T09:19:05.000Z</time>
</trkpt>
<trkpt lat="46.0445130" lon="10.3841030">
	<ele>1662.60</ele>
	<time>2024-07-24T09:19:06.000Z</time>
</trkpt>
<trkpt lat="46.0445130" lon="10.3841030">
	<ele>1662.60</ele>
	<time>2024-07-24T09:19:07.000Z</time>
</trkpt>
<trkpt lat="46.0445130" lon="10.3841030">
	<ele>1662.60</ele>
	<time>2024-07-24T09:19:08.000Z</time>
</trkpt>
<trkpt lat="46.0445140" lon="10.3841030">
	<ele>1662.60</ele>
	<time>2024-07-24T09:19:09.000Z</time>
</trkpt>
<trkpt lat="46.0445140" lon="10.3841030">
	<ele>1662.60</ele>
	<time>2024-07-24T09:19:10.000Z</time>
</trkpt>
<trkpt lat="46.0445140" lon="10.3841030">
	<ele>1662.60</ele>
	<time>2024-07-24T09:19:11.000Z</time>
</trkpt>
<trkpt lat="46.0445140" lon="10.3841030">
	<ele>1662.60</ele>
	<time>2024-07-24T09:19:12.000Z</time>
</trkpt>
<trkpt lat="46.0445140" lon="10.3841030">
	<ele>1662.60</ele>
	<time>2024-07-24T09:19:13.000Z</time>
</trkpt>
<trkpt lat="46.0445140" lon="10.3841030">
	<ele>1662.60</ele>
	<time>2024-07-24T09:19:14.000Z</time>
</trkpt>
<trkpt lat="46.0445150" lon="10.3841030">
	<ele>1662.60</ele>
	<time>2024-07-24T09:19:15.000Z</time>
</trkpt>
<trkpt lat="46.0445150" lon="10.3841030">
	<ele>1662.60</ele>
	<time>2024-07-24T09:19:16.000Z</time>
</trkpt>
<trkpt lat="46.0445150" lon="10.3841030">
	<ele>1662.60</ele>
	<time>2024-07-24T09:19:17.000Z</time>
</trkpt>
<trkpt lat="46.0445150" lon="10.3841030">
	<ele>1662.60</ele>
	<time>2024-07-24T09:19:18.000Z</time>
</trkpt>
<trkpt lat="46.0445150" lon="10.3841040">
	<ele>1662.60</ele>
	<time>2024-07-24T09:19:19.000Z</time>
</trkpt>
<trkpt lat="46.0445160" lon="10.3841050">
	<ele>1662.60</ele>
	<time>2024-07-24T09:19:20.000Z</time>
</trkpt>
<trkpt lat="46.0445160" lon="10.3841060">
	<ele>1662.60</ele>
	<time>2024-07-24T09:19:21.000Z</time>
</trkpt>
<trkpt lat="46.0445180" lon="10.3841080">
	<ele>1662.60</ele>
	<time>2024-07-24T09:19:22.000Z</time>
</trkpt>
<trkpt lat="46.0445180" lon="10.3841080">
	<ele>1662.60</ele>
	<time>2024-07-24T09:19:23.000Z</time>
</trkpt>
<trkpt lat="46.0445190" lon="10.3841080">
	<ele>1662.60</ele>
	<time>2024-07-24T09:19:24.000Z</time>
</trkpt>
<trkpt lat="46.0445200" lon="10.3841090">
	<ele>1662.60</ele>
	<time>2024-07-24T09:19:25.000Z</time>
</trkpt>
<trkpt lat="46.0445210" lon="10.3841090">
	<ele>1662.60</ele>
	<time>2024-07-24T09:19:26.000Z</time>
</trkpt>
<trkpt lat="46.0445220" lon="10.3841090">
	<ele>1662.60</ele>
	<time>2024-07-24T09:19:27.000Z</time>
</trkpt>
<trkpt lat="46.0445240" lon="10.3841090">
	<ele>1662.60</ele>
	<time>2024-07-24T09:19:28.000Z</time>
</trkpt>
<trkpt lat="46.0445240" lon="10.3841090">
	<ele>1662.60</ele>
	<time>2024-07-24T09:19:29.000Z</time>
</trkpt>
<trkpt lat="46.0445250" lon="10.3841090">
	<ele>1662.60</ele>
	<time>2024-07-24T09:19:30.000Z</time>
</trkpt>
<trkpt lat="46.0445250" lon="10.3841090">
	<ele>1662.60</ele>
	<time>2024-07-24T09:19:31.000Z</time>
</trkpt>
<trkpt lat="46.0445250" lon="10.3841090">
	<ele>1662.60</ele>
	<time>2024-07-24T09:19:32.000Z</time>
</trkpt>
<trkpt lat="46.0445250" lon="10.3841090">
	<ele>1662.60</ele>
	<time>2024-07-24T09:19:33.000Z</time>
</trkpt>
<trkpt lat="46.0445250" lon="10.3841090">
	<ele>1662.60</ele>
	<time>2024-07-24T09:19:34.000Z</time>
</trkpt>
<trkpt lat="46.0445250" lon="10.3841090">
	<ele>1662.60</ele>
	<time>2024-07-24T09:19:35.000Z</time>
</trkpt>
<trkpt lat="46.0445250" lon="10.3841090">
	<ele>1662.60</ele>
	<time>2024-07-24T09:19:36.000Z</time>
</trkpt>
<trkpt lat="46.0445250" lon="10.3841090">
	<ele>1662.60</ele>
	<time>2024-07-24T09:19:37.000Z</time>
</trkpt>
<trkpt lat="46.0445250" lon="10.3841100">
	<ele>1662.60</ele>
	<time>2024-07-24T09:19:38.000Z</time>
</trkpt>
<trkpt lat="46.0445250" lon="10.3841100">
	<ele>1662.60</ele>
	<time>2024-07-24T09:19:39.000Z</time>
</trkpt>
<trkpt lat="46.0445250" lon="10.3841100">
	<ele>1662.60</ele>
	<time>2024-07-24T09:19:40.000Z</time>
</trkpt>
<trkpt lat="46.0445250" lon="10.3841100">
	<ele>1662.60</ele>
	<time>2024-07-24T09:19:41.000Z</time>
</trkpt>
<trkpt lat="46.0445250" lon="10.3841100">
	<ele>1662.60</ele>
	<time>2024-07-24T09:19:42.000Z</time>
</trkpt>
<trkpt lat="46.0445250" lon="10.3841100">
	<ele>1662.60</ele>
	<time>2024-07-24T09:19:43.000Z</time>
</trkpt>
<trkpt lat="46.0445250" lon="10.3841100">
	<ele>1662.60</ele>
	<time>2024-07-24T09:19:44.000Z</time>
</trkpt>
<trkpt lat="46.0445240" lon="10.3841100">
	<ele>1662.60</ele>
	<time>2024-07-24T09:19:45.000Z</time>
</trkpt>
<trkpt lat="46.0445240" lon="10.3841100">
	<ele>1662.60</ele>
	<time>2024-07-24T09:19:46.000Z</time>
</trkpt>
<trkpt lat="46.0445240" lon="10.3841100">
	<ele>1662.60</ele>
	<time>2024-07-24T09:19:47.000Z</time>
</trkpt>
<trkpt lat="46.0445240" lon="10.3841100">
	<ele>1662.60</ele>
	<time>2024-07-24T09:19:48.000Z</time>
</trkpt>
<trkpt lat="46.0445240" lon="10.3841090">
	<ele>1662.60</ele>
	<time>2024-07-24T09:19:49.000Z</time>
</trkpt>
<trkpt lat="46.0445240" lon="10.3841090">
	<ele>1662.60</ele>
	<time>2024-07-24T09:19:50.000Z</time>
</trkpt>
<trkpt lat="46.0445240" lon="10.3841090">
	<ele>1662.60</ele>
	<time>2024-07-24T09:19:51.000Z</time>
</trkpt>
<trkpt lat="46.0445240" lon="10.3841090">
	<ele>1662.60</ele>
	<time>2024-07-24T09:19:52.000Z</time>
</trkpt>
<trkpt lat="46.0445240" lon="10.3841080">
	<ele>1662.60</ele>
	<time>2024-07-24T09:19:53.000Z</time>
</trkpt>
<trkpt lat="46.0445240" lon="10.3841080">
	<ele>1662.60</ele>
	<time>2024-07-24T09:19:54.000Z</time>
</trkpt>
<trkpt lat="46.0445240" lon="10.3841080">
	<ele>1662.60</ele>
	<time>2024-07-24T09:19:55.000Z</time>
</trkpt>
<trkpt lat="46.0445240" lon="10.3841070">
	<ele>1662.60</ele>
	<time>2024-07-24T09:19:56.000Z</time>
</trkpt>
<trkpt lat="46.0445240" lon="10.3841070">
	<ele>1662.60</ele>
	<time>2024-07-24T09:19:57.000Z</time>
</trkpt>
<trkpt lat="46.0445230" lon="10.3841070">
	<ele>1662.60</ele>
	<time>2024-07-24T09:19:58.000Z</time>
</trkpt>
<trkpt lat="46.0445230" lon="10.3841070">
	<ele>1662.60</ele>
	<time>2024-07-24T09:19:59.000Z</time>
</trkpt>
<trkpt lat="46.0445230" lon="10.3841070">
	<ele>1662.60</ele>
	<time>2024-07-24T09:20:00.000Z</time>
</trkpt>
<trkpt lat="46.0445230" lon="10.3841070">
	<ele>1662.60</ele>
	<time>2024-07-24T09:20:01.000Z</time>
</trkpt>
<trkpt lat="46.0445230" lon="10.3841070">
	<ele>1662.60</ele>
	<time>2024-07-24T09:20:02.000Z</time>
</trkpt>
<trkpt lat="46.0445230" lon="10.3841060">
	<ele>1662.60</ele>
	<time>2024-07-24T09:20:03.000Z</time>
</trkpt>
<trkpt lat="46.0445230" lon="10.3841060">
	<ele>1662.60</ele>
	<time>2024-07-24T09:20:04.000Z</time>
</trkpt>
<trkpt lat="46.0445230" lon="10.3841050">
	<ele>1662.60</ele>
	<time>2024-07-24T09:20:05.000Z</time>
</trkpt>
<trkpt lat="46.0445220" lon="10.3841050">
	<ele>1662.60</ele>
	<time>2024-07-24T09:20:06.000Z</time>
</trkpt>
<trkpt lat="46.0445220" lon="10.3841050">
	<ele>1662.60</ele>
	<time>2024-07-24T09:20:07.000Z</time>
</trkpt>
<trkpt lat="46.0445220" lon="10.3841040">
	<ele>1662.60</ele>
	<time>2024-07-24T09:20:08.000Z</time>
</trkpt>
<trkpt lat="46.0445220" lon="10.3841040">
	<ele>1662.60</ele>
	<time>2024-07-24T09:20:09.000Z</time>
</trkpt>
<trkpt lat="46.0445220" lon="10.3841040">
	<ele>1662.60</ele>
	<time>2024-07-24T09:20:10.000Z</time>
</trkpt>
<trkpt lat="46.0445220" lon="10.3841040">
	<ele>1662.60</ele>
	<time>2024-07-24T09:20:11.000Z</time>
</trkpt>
<trkpt lat="46.0445220" lon="10.3841030">
	<ele>1662.60</ele>
	<time>2024-07-24T09:20:12.000Z</time>
</trkpt>
<trkpt lat="46.0445210" lon="10.3841030">
	<ele>1662.60</ele>
	<time>2024-07-24T09:20:13.000Z</time>
</trkpt>
<trkpt lat="46.0445210" lon="10.3841030">
	<ele>1662.60</ele>
	<time>2024-07-24T09:20:14.000Z</time>
</trkpt>
<trkpt lat="46.0445210" lon="10.3841030">
	<ele>1662.60</ele>
	<time>2024-07-24T09:20:15.000Z</time>
</trkpt>
<trkpt lat="46.0445210" lon="10.3841030">
	<ele>1662.60</ele>
	<time>2024-07-24T09:20:16.000Z</time>
</trkpt>
<trkpt lat="46.0445200" lon="10.3841030">
	<ele>1662.60</ele>
	<time>2024-07-24T09:20:17.000Z</time>
</trkpt>
<trkpt lat="46.0445190" lon="10.3841030">
	<ele>1662.60</ele>
	<time>2024-07-24T09:20:18.000Z</time>
</trkpt>
<trkpt lat="46.0445180" lon="10.3841030">
	<ele>1662.60</ele>
	<time>2024-07-24T09:20:19.000Z</time>
</trkpt>
<trkpt lat="46.0445170" lon="10.3841030">
	<ele>1662.60</ele>
	<time>2024-07-24T09:20:20.000Z</time>
</trkpt>
<trkpt lat="46.0445170" lon="10.3841030">
	<ele>1662.60</ele>
	<time>2024-07-24T09:20:21.000Z</time>
</trkpt>
<trkpt lat="46.0445160" lon="10.3841030">
	<ele>1662.60</ele>
	<time>2024-07-24T09:20:22.000Z</time>
</trkpt>
<trkpt lat="46.0445150" lon="10.3841020">
	<ele>1662.60</ele>
	<time>2024-07-24T09:20:23.000Z</time>
</trkpt>
<trkpt lat="46.0445140" lon="10.3841020">
	<ele>1662.60</ele>
	<time>2024-07-24T09:20:24.000Z</time>
</trkpt>
<trkpt lat="46.0445140" lon="10.3841020">
	<ele>1662.60</ele>
	<time>2024-07-24T09:20:25.000Z</time>
</trkpt>
<trkpt lat="46.0445140" lon="10.3841020">
	<ele>1662.60</ele>
	<time>2024-07-24T09:20:26.000Z</time>
</trkpt>
<trkpt lat="46.0445140" lon="10.3841020">
	<ele>1662.60</ele>
	<time>2024-07-24T09:20:27.000Z</time>
</trkpt>
<trkpt lat="46.0445140" lon="10.3841020">
	<ele>1662.60</ele>
	<time>2024-07-24T09:20:28.000Z</time>
</trkpt>
<trkpt lat="46.0445140" lon="10.3841020">
	<ele>1662.60</ele>
	<time>2024-07-24T09:20:29.000Z</time>
</trkpt>
<trkpt lat="46.0445130" lon="10.3841010">
	<ele>1662.60</ele>
	<time>2024-07-24T09:20:30.000Z</time>
</trkpt>
<trkpt lat="46.0445130" lon="10.3841010">
	<ele>1662.60</ele>
	<time>2024-07-24T09:20:31.000Z</time>
</trkpt>
<trkpt lat="46.0445130" lon="10.3841010">
	<ele>1662.60</ele>
	<time>2024-07-24T09:20:32.000Z</time>
</trkpt>
<trkpt lat="46.0445130" lon="10.3841000">
	<ele>1662.60</ele>
	<time>2024-07-24T09:20:33.000Z</time>
</trkpt>
<trkpt lat="46.0445130" lon="10.3841000">
	<ele>1662.60</ele>
	<time>2024-07-24T09:20:34.000Z</time>
</trkpt>
<trkpt lat="46.0445130" lon="10.3841000">
	<ele>1662.60</ele>
	<time>2024-07-24T09:20:35.000Z</time>
</trkpt>
<trkpt lat="46.0445130" lon="10.3840990">
	<ele>1662.60</ele>
	<time>2024-07-24T09:20:36.000Z</time>
</trkpt>
<trkpt lat="46.0445130" lon="10.3840990">
	<ele>1662.60</ele>
	<time>2024-07-24T09:20:37.000Z</time>
</trkpt>
<trkpt lat="46.0445140" lon="10.3840990">
	<ele>1662.60</ele>
	<time>2024-07-24T09:20:38.000Z</time>
</trkpt>
<trkpt lat="46.0445150" lon="10.3841000">
	<ele>1662.60</ele>
	<time>2024-07-24T09:20:39.000Z</time>
</trkpt>
<trkpt lat="46.0445160" lon="10.3841000">
	<ele>1662.60</ele>
	<time>2024-07-24T09:20:40.000Z</time>
</trkpt>
<trkpt lat="46.0445160" lon="10.3841000">
	<ele>1662.60</ele>
	<time>2024-07-24T09:20:41.000Z</time>
</trkpt>
<trkpt lat="46.0445170" lon="10.3841000">
	<ele>1662.60</ele>
	<time>2024-07-24T09:20:42.000Z</time>
</trkpt>
<trkpt lat="46.0445170" lon="10.3841000">
	<ele>1662.60</ele>
	<time>2024-07-24T09:20:43.000Z</time>
</trkpt>
<trkpt lat="46.0445170" lon="10.3841000">
	<ele>1662.60</ele>
	<time>2024-07-24T09:20:44.000Z</time>
</trkpt>
<trkpt lat="46.0445170" lon="10.3841000">
	<ele>1662.60</ele>
	<time>2024-07-24T09:20:45.000Z</time>
</trkpt>
<trkpt lat="46.0445170" lon="10.3841000">
	<ele>1662.60</ele>
	<time>2024-07-24T09:20:46.000Z</time>
</trkpt>
<trkpt lat="46.0445170" lon="10.3841000">
	<ele>1662.60</ele>
	<time>2024-07-24T09:20:47.000Z</time>
</trkpt>
<trkpt lat="46.0445170" lon="10.3841000">
	<ele>1662.60</ele>
	<time>2024-07-24T09:20:48.000Z</time>
</trkpt>
<trkpt lat="46.0445170" lon="10.3841000">
	<ele>1662.60</ele>
	<time>2024-07-24T09:20:49.000Z</time>
</trkpt>
<trkpt lat="46.0445170" lon="10.3841000">
	<ele>1662.60</ele>
	<time>2024-07-24T09:20:50.000Z</time>
</trkpt>
<trkpt lat="46.0445170" lon="10.3841000">
	<ele>1662.60</ele>
	<time>2024-07-24T09:20:51.000Z</time>
</trkpt>
<trkpt lat="46.0445170" lon="10.3841000">
	<ele>1662.60</ele>
	<time>2024-07-24T09:20:52.000Z</time>
</trkpt>
<trkpt lat="46.0445170" lon="10.3841000">
	<ele>1662.60</ele>
	<time>2024-07-24T09:20:53.000Z</time>
</trkpt>
<trkpt lat="46.0445170" lon="10.3841000">
	<ele>1662.60</ele>
	<time>2024-07-24T09:20:54.000Z</time>
</trkpt>
<trkpt lat="46.0445180" lon="10.3841010">
	<ele>1662.60</ele>
	<time>2024-07-24T09:20:55.000Z</time>
</trkpt>
<trkpt lat="46.0445180" lon="10.3841010">
	<ele>1662.60</ele>
	<time>2024-07-24T09:20:56.000Z</time>
</trkpt>
<trkpt lat="46.0445180" lon="10.3841010">
	<ele>1662.60</ele>
	<time>2024-07-24T09:20:57.000Z</time>
</trkpt>
<trkpt lat="46.0445180" lon="10.3841020">
	<ele>1662.60</ele>
	<time>2024-07-24T09:20:58.000Z</time>
</trkpt>
<trkpt lat="46.0445180" lon="10.3841020">
	<ele>1659.00</ele>
	<time>2024-07-24T09:20:59.000Z</time>
</trkpt>
<trkpt lat="46.0445180" lon="10.3841030">
	<ele>1659.00</ele>
	<time>2024-07-24T09:21:00.000Z</time>
</trkpt>
<trkpt lat="46.0445180" lon="10.3841030">
	<ele>1659.00</ele>
	<time>2024-07-24T09:21:01.000Z</time>
</trkpt>
<trkpt lat="46.0445180" lon="10.3841040">
	<ele>1659.00</ele>
	<time>2024-07-24T09:21:02.000Z</time>
</trkpt>
<trkpt lat="46.0445180" lon="10.3841040">
	<ele>1659.00</ele>
	<time>2024-07-24T09:21:03.000Z</time>
</trkpt>
<trkpt lat="46.0445180" lon="10.3841040">
	<ele>1659.00</ele>
	<time>2024-07-24T09:21:04.000Z</time>
</trkpt>
<trkpt lat="46.0445180" lon="10.3841040">
	<ele>1659.00</ele>
	<time>2024-07-24T09:21:05.000Z</time>
</trkpt>
<trkpt lat="46.0445180" lon="10.3841040">
	<ele>1659.00</ele>
	<time>2024-07-24T09:21:06.000Z</time>
</trkpt>
<trkpt lat="46.0445180" lon="10.3841050">
	<ele>1659.00</ele>
	<time>2024-07-24T09:21:07.000Z</time>
</trkpt>
<trkpt lat="46.0445180" lon="10.3841050">
	<ele>1658.80</ele>
	<time>2024-07-24T09:21:08.000Z</time>
</trkpt>
<trkpt lat="46.0445180" lon="10.3841050">
	<ele>1658.80</ele>
	<time>2024-07-24T09:21:09.000Z</time>
</trkpt>
<trkpt lat="46.0445180" lon="10.3841050">
	<ele>1658.80</ele>
	<time>2024-07-24T09:21:10.000Z</time>
</trkpt>
<trkpt lat="46.0445180" lon="10.3841050">
	<ele>1658.80</ele>
	<time>2024-07-24T09:21:11.000Z</time>
</trkpt>
<trkpt lat="46.0445180" lon="10.3841050">
	<ele>1658.80</ele>
	<time>2024-07-24T09:21:12.000Z</time>
</trkpt>
<trkpt lat="46.0445180" lon="10.3841040">
	<ele>1658.80</ele>
	<time>2024-07-24T09:21:13.000Z</time>
</trkpt>
<trkpt lat="46.0445180" lon="10.3841040">
	<ele>1658.80</ele>
	<time>2024-07-24T09:21:14.000Z</time>
</trkpt>
<trkpt lat="46.0445180" lon="10.3841040">
	<ele>1658.60</ele>
	<time>2024-07-24T09:21:15.000Z</time>
</trkpt>
<trkpt lat="46.0445180" lon="10.3841040">
	<ele>1658.60</ele>
	<time>2024-07-24T09:21:16.000Z</time>
</trkpt>
<trkpt lat="46.0445180" lon="10.3841040">
	<ele>1658.60</ele>
	<time>2024-07-24T09:21:17.000Z</time>
</trkpt>
<trkpt lat="46.0445180" lon="10.3841040">
	<ele>1658.60</ele>
	<time>2024-07-24T09:21:18.000Z</time>
</trkpt>
<trkpt lat="46.0445190" lon="10.3841030">
	<ele>1658.60</ele>
	<time>2024-07-24T09:21:19.000Z</time>
</trkpt>
<trkpt lat="46.0445190" lon="10.3841030">
	<ele>1658.60</ele>
	<time>2024-07-24T09:21:20.000Z</time>
</trkpt>
<trkpt lat="46.0445190" lon="10.3841030">
	<ele>1658.60</ele>
	<time>2024-07-24T09:21:21.000Z</time>
</trkpt>
<trkpt lat="46.0445190" lon="10.3841030">
	<ele>1658.60</ele>
	<time>2024-07-24T09:21:22.000Z</time>
</trkpt>
<trkpt lat="46.0445190" lon="10.3841030">
	<ele>1658.40</ele>
	<time>2024-07-24T09:21:23.000Z</time>
</trkpt>
<trkpt lat="46.0445190" lon="10.3841020">
	<ele>1658.40</ele>
	<time>2024-07-24T09:21:24.000Z</time>
</trkpt>
<trkpt lat="46.0445190" lon="10.3841020">
	<ele>1658.40</ele>
	<time>2024-07-24T09:21:25.000Z</time>
</trkpt>
<trkpt lat="46.0445190" lon="10.3841020">
	<ele>1658.40</ele>
	<time>2024-07-24T09:21:26.000Z</time>
</trkpt>
<trkpt lat="46.0445190" lon="10.3841020">
	<ele>1658.40</ele>
	<time>2024-07-24T09:21:27.000Z</time>
</trkpt>
<trkpt lat="46.0445190" lon="10.3841020">
	<ele>1658.40</ele>
	<time>2024-07-24T09:21:28.000Z</time>
</trkpt>
<trkpt lat="46.0445190" lon="10.3841020">
	<ele>1658.40</ele>
	<time>2024-07-24T09:21:29.000Z</time>
</trkpt>
<trkpt lat="46.0445190" lon="10.3841020">
	<ele>1658.40</ele>
	<time>2024-07-24T09:21:30.000Z</time>
</trkpt>
<trkpt lat="46.0445190" lon="10.3841020">
	<ele>1658.20</ele>
	<time>2024-07-24T09:21:31.000Z</time>
</trkpt>
<trkpt lat="46.0445200" lon="10.3841020">
	<ele>1658.20</ele>
	<time>2024-07-24T09:21:32.000Z</time>
</trkpt>
<trkpt lat="46.0445200" lon="10.3841020">
	<ele>1658.20</ele>
	<time>2024-07-24T09:21:33.000Z</time>
</trkpt>
<trkpt lat="46.0445200" lon="10.3841020">
	<ele>1658.20</ele>
	<time>2024-07-24T09:21:34.000Z</time>
</trkpt>
<trkpt lat="46.0445200" lon="10.3841020">
	<ele>1658.00</ele>
	<time>2024-07-24T09:21:35.000Z</time>
</trkpt>
<trkpt lat="46.0445200" lon="10.3841020">
	<ele>1658.00</ele>
	<time>2024-07-24T09:21:36.000Z</time>
</trkpt>
<trkpt lat="46.0445200" lon="10.3841020">
	<ele>1658.00</ele>
	<time>2024-07-24T09:21:37.000Z</time>
</trkpt>
<trkpt lat="46.0445200" lon="10.3841020">
	<ele>1658.00</ele>
	<time>2024-07-24T09:21:38.000Z</time>
</trkpt>
<trkpt lat="46.0445200" lon="10.3841010">
	<ele>1658.00</ele>
	<time>2024-07-24T09:21:39.000Z</time>
</trkpt>
<trkpt lat="46.0445200" lon="10.3841010">
	<ele>1658.00</ele>
	<time>2024-07-24T09:21:40.000Z</time>
</trkpt>
<trkpt lat="46.0445200" lon="10.3841010">
	<ele>1658.00</ele>
	<time>2024-07-24T09:21:41.000Z</time>
</trkpt>
<trkpt lat="46.0445200" lon="10.3841010">
	<ele>1658.00</ele>
	<time>2024-07-24T09:21:42.000Z</time>
</trkpt>
<trkpt lat="46.0445200" lon="10.3841010">
	<ele>1658.00</ele>
	<time>2024-07-24T09:21:43.000Z</time>
</trkpt>
<trkpt lat="46.0445200" lon="10.3841010">
	<ele>1658.00</ele>
	<time>2024-07-24T09:21:44.000Z</time>
</trkpt>
<trkpt lat="46.0445200" lon="10.3841010">
	<ele>1657.80</ele>
	<time>2024-07-24T09:21:45.000Z</time>
</trkpt>
<trkpt lat="46.0445200" lon="10.3841010">
	<ele>1657.80</ele>
	<time>2024-07-24T09:21:46.000Z</time>
</trkpt>
<trkpt lat="46.0445200" lon="10.3841010">
	<ele>1657.80</ele>
	<time>2024-07-24T09:21:47.000Z</time>
</trkpt>
<trkpt lat="46.0445200" lon="10.3841010">
	<ele>1657.80</ele>
	<time>2024-07-24T09:21:48.000Z</time>
</trkpt>
<trkpt lat="46.0445200" lon="10.3841010">
	<ele>1657.80</ele>
	<time>2024-07-24T09:21:49.000Z</time>
</trkpt>
<trkpt lat="46.0445200" lon="10.3841010">
	<ele>1657.80</ele>
	<time>2024-07-24T09:21:50.000Z</time>
</trkpt>
<trkpt lat="46.0445200" lon="10.3841010">
	<ele>1657.60</ele>
	<time>2024-07-24T09:21:51.000Z</time>
</trkpt>
<trkpt lat="46.0445200" lon="10.3841010">
	<ele>1657.60</ele>
	<time>2024-07-24T09:21:52.000Z</time>
</trkpt>
<trkpt lat="46.0445210" lon="10.3841010">
	<ele>1657.60</ele>
	<time>2024-07-24T09:21:53.000Z</time>
</trkpt>
<trkpt lat="46.0445210" lon="10.3841010">
	<ele>1657.60</ele>
	<time>2024-07-24T09:21:54.000Z</time>
</trkpt>
<trkpt lat="46.0445210" lon="10.3841010">
	<ele>1657.60</ele>
	<time>2024-07-24T09:21:55.000Z</time>
</trkpt>
<trkpt lat="46.0445210" lon="10.3841010">
	<ele>1657.60</ele>
	<time>2024-07-24T09:21:56.000Z</time>
</trkpt>
<trkpt lat="46.0445210" lon="10.3841010">
	<ele>1657.60</ele>
	<time>2024-07-24T09:21:57.000Z</time>
</trkpt>
<trkpt lat="46.0445210" lon="10.3841010">
	<ele>1657.60</ele>
	<time>2024-07-24T09:21:58.000Z</time>
</trkpt>
<trkpt lat="46.0445210" lon="10.3841010">
	<ele>1657.60</ele>
	<time>2024-07-24T09:21:59.000Z</time>
</trkpt>
<trkpt lat="46.0445210" lon="10.3841010">
	<ele>1657.40</ele>
	<time>2024-07-24T09:22:00.000Z</time>
</trkpt>
<trkpt lat="46.0445210" lon="10.3841000">
	<ele>1657.40</ele>
	<time>2024-07-24T09:22:01.000Z</time>
</trkpt>
<trkpt lat="46.0445210" lon="10.3841000">
	<ele>1657.40</ele>
	<time>2024-07-24T09:22:02.000Z</time>
</trkpt>
<trkpt lat="46.0445210" lon="10.3841000">
	<ele>1657.40</ele>
	<time>2024-07-24T09:22:03.000Z</time>
</trkpt>
<trkpt lat="46.0445210" lon="10.3841000">
	<ele>1657.40</ele>
	<time>2024-07-24T09:22:04.000Z</time>
</trkpt>
<trkpt lat="46.0445210" lon="10.3841000">
	<ele>1657.40</ele>
	<time>2024-07-24T09:22:05.000Z</time>
</trkpt>
<trkpt lat="46.0445210" lon="10.3841000">
	<ele>1657.40</ele>
	<time>2024-07-24T09:22:06.000Z</time>
</trkpt>
<trkpt lat="46.0445210" lon="10.3841000">
	<ele>1657.20</ele>
	<time>2024-07-24T09:22:07.000Z</time>
</trkpt>
<trkpt lat="46.0445210" lon="10.3841000">
	<ele>1657.20</ele>
	<time>2024-07-24T09:22:08.000Z</time>
</trkpt>
<trkpt lat="46.0445210" lon="10.3841000">
	<ele>1657.20</ele>
	<time>2024-07-24T09:22:09.000Z</time>
</trkpt>
<trkpt lat="46.0445210" lon="10.3841000">
	<ele>1657.20</ele>
	<time>2024-07-24T09:22:10.000Z</time>
</trkpt>
<trkpt lat="46.0445210" lon="10.3841000">
	<ele>1657.20</ele>
	<time>2024-07-24T09:22:11.000Z</time>
</trkpt>
<trkpt lat="46.0445210" lon="10.3841000">
	<ele>1657.20</ele>
	<time>2024-07-24T09:22:12.000Z</time>
</trkpt>
<trkpt lat="46.0445210" lon="10.3841000">
	<ele>1657.20</ele>
	<time>2024-07-24T09:22:13.000Z</time>
</trkpt>
<trkpt lat="46.0445210" lon="10.3841000">
	<ele>1657.20</ele>
	<time>2024-07-24T09:22:14.000Z</time>
</trkpt>
<trkpt lat="46.0445210" lon="10.3841000">
	<ele>1657.20</ele>
	<time>2024-07-24T09:22:15.000Z</time>
</trkpt>
<trkpt lat="46.0445210" lon="10.3841000">
	<ele>1657.20</ele>
	<time>2024-07-24T09:22:16.000Z</time>
</trkpt>
<trkpt lat="46.0445210" lon="10.3841000">
	<ele>1657.20</ele>
	<time>2024-07-24T09:22:17.000Z</time>
</trkpt>
<trkpt lat="46.0445210" lon="10.3841000">
	<ele>1657.20</ele>
	<time>2024-07-24T09:22:18.000Z</time>
</trkpt>
<trkpt lat="46.0445210" lon="10.3841000">
	<ele>1657.20</ele>
	<time>2024-07-24T09:22:19.000Z</time>
</trkpt>
<trkpt lat="46.0445210" lon="10.3841000">
	<ele>1657.20</ele>
	<time>2024-07-24T09:22:20.000Z</time>
</trkpt>
<trkpt lat="46.0445210" lon="10.3841000">
	<ele>1657.00</ele>
	<time>2024-07-24T09:22:21.000Z</time>
</trkpt>
<trkpt lat="46.0445210" lon="10.3841000">
	<ele>1657.00</ele>
	<time>2024-07-24T09:22:22.000Z</time>
</trkpt>
<trkpt lat="46.0445210" lon="10.3841000">
	<ele>1657.00</ele>
	<time>2024-07-24T09:22:23.000Z</time>
</trkpt>
<trkpt lat="46.0445210" lon="10.3841000">
	<ele>1657.00</ele>
	<time>2024-07-24T09:22:24.000Z</time>
</trkpt>
<trkpt lat="46.0445210" lon="10.3841000">
	<ele>1657.00</ele>
	<time>2024-07-24T09:22:25.000Z</time>
</trkpt>
<trkpt lat="46.0445210" lon="10.3841000">
	<ele>1657.00</ele>
	<time>2024-07-24T09:22:26.000Z</time>
</trkpt>
<trkpt lat="46.0445210" lon="10.3841000">
	<ele>1657.00</ele>
	<time>2024-07-24T09:22:27.000Z</time>
</trkpt>
<trkpt lat="46.0445210" lon="10.3841000">
	<ele>1657.00</ele>
	<time>2024-07-24T09:22:28.000Z</time>
</trkpt>
<trkpt lat="46.0445210" lon="10.3841000">
	<ele>1657.00</ele>
	<time>2024-07-24T09:22:29.000Z</time>
</trkpt>
<trkpt lat="46.0445210" lon="10.3841000">
	<ele>1657.00</ele>
	<time>2024-07-24T09:22:30.000Z</time>
</trkpt>
<trkpt lat="46.0445210" lon="10.3841000">
	<ele>1657.00</ele>
	<time>2024-07-24T09:22:31.000Z</time>
</trkpt>
<trkpt lat="46.0445210" lon="10.3841000">
	<ele>1657.00</ele>
	<time>2024-07-24T09:22:32.000Z</time>
</trkpt>
<trkpt lat="46.0445210" lon="10.3841000">
	<ele>1657.00</ele>
	<time>2024-07-24T09:22:33.000Z</time>
</trkpt>
<trkpt lat="46.0445210" lon="10.3841000">
	<ele>1657.00</ele>
	<time>2024-07-24T09:22:34.000Z</time>
</trkpt>
<trkpt lat="46.0445210" lon="10.3841000">
	<ele>1657.00</ele>
	<time>2024-07-24T09:22:35.000Z</time>
</trkpt>
<trkpt lat="46.0445210" lon="10.3841000">
	<ele>1657.00</ele>
	<time>2024-07-24T09:22:36.000Z</time>
</trkpt>
<trkpt lat="46.0445210" lon="10.3841000">
	<ele>1656.80</ele>
	<time>2024-07-24T09:22:37.000Z</time>
</trkpt>
<trkpt lat="46.0445210" lon="10.3841000">
	<ele>1656.80</ele>
	<time>2024-07-24T09:22:38.000Z</time>
</trkpt>
<trkpt lat="46.0445210" lon="10.3841000">
	<ele>1657.00</ele>
	<time>2024-07-24T09:22:39.000Z</time>
</trkpt>
<trkpt lat="46.0445220" lon="10.3841000">
	<ele>1656.80</ele>
	<time>2024-07-24T09:22:40.000Z</time>
</trkpt>
<trkpt lat="46.0445220" lon="10.3841000">
	<ele>1656.80</ele>
	<time>2024-07-24T09:22:41.000Z</time>
</trkpt>
<trkpt lat="46.0445220" lon="10.3841000">
	<ele>1656.80</ele>
	<time>2024-07-24T09:22:42.000Z</time>
</trkpt>
<trkpt lat="46.0445220" lon="10.3841000">
	<ele>1656.80</ele>
	<time>2024-07-24T09:22:43.000Z</time>
</trkpt>
<trkpt lat="46.0445220" lon="10.3841000">
	<ele>1656.80</ele>
	<time>2024-07-24T09:22:44.000Z</time>
</trkpt>
<trkpt lat="46.0445220" lon="10.3841000">
	<ele>1656.80</ele>
	<time>2024-07-24T09:22:45.000Z</time>
</trkpt>
<trkpt lat="46.0445220" lon="10.3841000">
	<ele>1656.80</ele>
	<time>2024-07-24T09:22:46.000Z</time>
</trkpt>
<trkpt lat="46.0445220" lon="10.3841000">
	<ele>1656.80</ele>
	<time>2024-07-24T09:22:47.000Z</time>
</trkpt>
<trkpt lat="46.0445220" lon="10.3841000">
	<ele>1656.60</ele>
	<time>2024-07-24T09:22:48.000Z</time>
</trkpt>
<trkpt lat="46.0445220" lon="10.3841000">
	<ele>1656.60</ele>
	<time>2024-07-24T09:22:49.000Z</time>
</trkpt>
<trkpt lat="46.0445220" lon="10.3841000">
	<ele>1656.60</ele>
	<time>2024-07-24T09:22:50.000Z</time>
</trkpt>
<trkpt lat="46.0445220" lon="10.3841000">
	<ele>1656.60</ele>
	<time>2024-07-24T09:22:51.000Z</time>
</trkpt>
<trkpt lat="46.0445220" lon="10.3841000">
	<ele>1656.60</ele>
	<time>2024-07-24T09:22:52.000Z</time>
</trkpt>
<trkpt lat="46.0445230" lon="10.3841000">
	<ele>1656.60</ele>
	<time>2024-07-24T09:22:53.000Z</time>
</trkpt>
<trkpt lat="46.0445230" lon="10.3841000">
	<ele>1656.60</ele>
	<time>2024-07-24T09:22:54.000Z</time>
</trkpt>
<trkpt lat="46.0445230" lon="10.3841000">
	<ele>1656.60</ele>
	<time>2024-07-24T09:22:55.000Z</time>
</trkpt>
<trkpt lat="46.0445230" lon="10.3841000">
	<ele>1656.60</ele>
	<time>2024-07-24T09:22:56.000Z</time>
</trkpt>
<trkpt lat="46.0445230" lon="10.3841000">
	<ele>1656.60</ele>
	<time>2024-07-24T09:22:57.000Z</time>
</trkpt>
<trkpt lat="46.0445230" lon="10.3841000">
	<ele>1656.60</ele>
	<time>2024-07-24T09:22:58.000Z</time>
</trkpt>
<trkpt lat="46.0445230" lon="10.3841000">
	<ele>1656.60</ele>
	<time>2024-07-24T09:22:59.000Z</time>
</trkpt>
<trkpt lat="46.0445230" lon="10.3841000">
	<ele>1656.60</ele>
	<time>2024-07-24T09:23:00.000Z</time>
</trkpt>
<trkpt lat="46.0445230" lon="10.3841000">
	<ele>1656.60</ele>
	<time>2024-07-24T09:23:01.000Z</time>
</trkpt>
<trkpt lat="46.0445230" lon="10.3841000">
	<ele>1656.60</ele>
	<time>2024-07-24T09:23:02.000Z</time>
</trkpt>
<trkpt lat="46.0445230" lon="10.3841000">
	<ele>1656.60</ele>
	<time>2024-07-24T09:23:03.000Z</time>
</trkpt>
<trkpt lat="46.0445230" lon="10.3841000">
	<ele>1656.40</ele>
	<time>2024-07-24T09:23:04.000Z</time>
</trkpt>
<trkpt lat="46.0445230" lon="10.3841000">
	<ele>1656.40</ele>
	<time>2024-07-24T09:23:05.000Z</time>
</trkpt>
<trkpt lat="46.0445230" lon="10.3841000">
	<ele>1656.40</ele>
	<time>2024-07-24T09:23:06.000Z</time>
</trkpt>
<trkpt lat="46.0445230" lon="10.3841000">
	<ele>1656.40</ele>
	<time>2024-07-24T09:23:07.000Z</time>
</trkpt>
<trkpt lat="46.0445230" lon="10.3841000">
	<ele>1656.40</ele>
	<time>2024-07-24T09:23:08.000Z</time>
</trkpt>
<trkpt lat="46.0445230" lon="10.3841000">
	<ele>1656.20</ele>
	<time>2024-07-24T09:23:09.000Z</time>
</trkpt>
<trkpt lat="46.0445230" lon="10.3841000">
	<ele>1656.20</ele>
	<time>2024-07-24T09:23:10.000Z</time>
</trkpt>
<trkpt lat="46.0445230" lon="10.3841000">
	<ele>1656.20</ele>
	<time>2024-07-24T09:23:11.000Z</time>
</trkpt>
<trkpt lat="46.0445230" lon="10.3841000">
	<ele>1656.20</ele>
	<time>2024-07-24T09:23:12.000Z</time>
</trkpt>
<trkpt lat="46.0445230" lon="10.3841000">
	<ele>1656.20</ele>
	<time>2024-07-24T09:23:13.000Z</time>
</trkpt>
<trkpt lat="46.0445230" lon="10.3841000">
	<ele>1656.20</ele>
	<time>2024-07-24T09:23:14.000Z</time>
</trkpt>
<trkpt lat="46.0445230" lon="10.3841000">
	<ele>1656.20</ele>
	<time>2024-07-24T09:23:15.000Z</time>
</trkpt>
<trkpt lat="46.0445230" lon="10.3841000">
	<ele>1656.20</ele>
	<time>2024-07-24T09:23:16.000Z</time>
</trkpt>
<trkpt lat="46.0445230" lon="10.3841000">
	<ele>1656.20</ele>
	<time>2024-07-24T09:23:17.000Z</time>
</trkpt>
<trkpt lat="46.0445230" lon="10.3841000">
	<ele>1656.20</ele>
	<time>2024-07-24T09:23:18.000Z</time>
</trkpt>
<trkpt lat="46.0445230" lon="10.3841000">
	<ele>1656.20</ele>
	<time>2024-07-24T09:23:19.000Z</time>
</trkpt>
<trkpt lat="46.0445230" lon="10.3841000">
	<ele>1656.20</ele>
	<time>2024-07-24T09:23:20.000Z</time>
</trkpt>
<trkpt lat="46.0445230" lon="10.3841000">
	<ele>1656.20</ele>
	<time>2024-07-24T09:23:21.000Z</time>
</trkpt>
<trkpt lat="46.0445230" lon="10.3841000">
	<ele>1656.20</ele>
	<time>2024-07-24T09:23:22.000Z</time>
</trkpt>
<trkpt lat="46.0445230" lon="10.3841000">
	<ele>1656.20</ele>
	<time>2024-07-24T09:23:23.000Z</time>
</trkpt>
<trkpt lat="46.0445230" lon="10.3841000">
	<ele>1656.20</ele>
	<time>2024-07-24T09:23:24.000Z</time>
</trkpt>
<trkpt lat="46.0445230" lon="10.3841000">
	<ele>1656.20</ele>
	<time>2024-07-24T09:23:25.000Z</time>
</trkpt>
<trkpt lat="46.0445230" lon="10.3841000">
	<ele>1656.00</ele>
	<time>2024-07-24T09:23:26.000Z</time>
</trkpt>
<trkpt lat="46.0445230" lon="10.3841000">
	<ele>1656.00</ele>
	<time>2024-07-24T09:23:27.000Z</time>
</trkpt>
<trkpt lat="46.0445230" lon="10.3841000">
	<ele>1656.00</ele>
	<time>2024-07-24T09:23:28.000Z</time>
</trkpt>
<trkpt lat="46.0445230" lon="10.3841000">
	<ele>1656.00</ele>
	<time>2024-07-24T09:23:29.000Z</time>
</trkpt>
<trkpt lat="46.0445230" lon="10.3841000">
	<ele>1656.00</ele>
	<time>2024-07-24T09:23:30.000Z</time>
</trkpt>
<trkpt lat="46.0445230" lon="10.3841000">
	<ele>1656.00</ele>
	<time>2024-07-24T09:23:31.000Z</time>
</trkpt>
<trkpt lat="46.0445230" lon="10.3841000">
	<ele>1656.00</ele>
	<time>2024-07-24T09:23:32.000Z</time>
</trkpt>
<trkpt lat="46.0445230" lon="10.3841000">
	<ele>1656.00</ele>
	<time>2024-07-24T09:23:33.000Z</time>
</trkpt>
<trkpt lat="46.0445230" lon="10.3841000">
	<ele>1656.00</ele>
	<time>2024-07-24T09:23:34.000Z</time>
</trkpt>
<trkpt lat="46.0445230" lon="10.3841000">
	<ele>1656.00</ele>
	<time>2024-07-24T09:23:35.000Z</time>
</trkpt>
<trkpt lat="46.0445230" lon="10.3841000">
	<ele>1656.00</ele>
	<time>2024-07-24T09:23:36.000Z</time>
</trkpt>
<trkpt lat="46.0445230" lon="10.3841000">
	<ele>1656.00</ele>
	<time>2024-07-24T09:23:37.000Z</time>
</trkpt>
<trkpt lat="46.0445230" lon="10.3841000">
	<ele>1656.00</ele>
	<time>2024-07-24T09:23:38.000Z</time>
</trkpt>
<trkpt lat="46.0445230" lon="10.3841000">
	<ele>1656.00</ele>
	<time>2024-07-24T09:23:39.000Z</time>
</trkpt>
<trkpt lat="46.0445230" lon="10.3841000">
	<ele>1655.80</ele>
	<time>2024-07-24T09:23:40.000Z</time>
</trkpt>
<trkpt lat="46.0445230" lon="10.3841000">
	<ele>1655.80</ele>
	<time>2024-07-24T09:23:41.000Z</time>
</trkpt>
<trkpt lat="46.0445230" lon="10.3841000">
	<ele>1655.80</ele>
	<time>2024-07-24T09:23:42.000Z</time>
</trkpt>
<trkpt lat="46.0445230" lon="10.3841000">
	<ele>1655.80</ele>
	<time>2024-07-24T09:23:43.000Z</time>
</trkpt>
<trkpt lat="46.0445230" lon="10.3841000">
	<ele>1655.80</ele>
	<time>2024-07-24T09:23:44.000Z</time>
</trkpt>
<trkpt lat="46.0445230" lon="10.3841000">
	<ele>1655.60</ele>
	<time>2024-07-24T09:23:45.000Z</time>
</trkpt>
<trkpt lat="46.0445230" lon="10.3841000">
	<ele>1655.60</ele>
	<time>2024-07-24T09:23:46.000Z</time>
</trkpt>
<trkpt lat="46.0445230" lon="10.3841000">
	<ele>1655.60</ele>
	<time>2024-07-24T09:23:47.000Z</time>
</trkpt>
<trkpt lat="46.0445230" lon="10.3841000">
	<ele>1655.60</ele>
	<time>2024-07-24T09:23:48.000Z</time>
</trkpt>
<trkpt lat="46.0445240" lon="10.3841000">
	<ele>1655.60</ele>
	<time>2024-07-24T09:23:49.000Z</time>
</trkpt>
<trkpt lat="46.0445230" lon="10.3841000">
	<ele>1655.60</ele>
	<time>2024-07-24T09:23:50.000Z</time>
</trkpt>
<trkpt lat="46.0445240" lon="10.3841000">
	<ele>1655.60</ele>
	<time>2024-07-24T09:23:51.000Z</time>
</trkpt>
<trkpt lat="46.0445240" lon="10.3841000">
	<ele>1655.60</ele>
	<time>2024-07-24T09:23:52.000Z</time>
</trkpt>
<trkpt lat="46.0445240" lon="10.3841000">
	<ele>1655.60</ele>
	<time>2024-07-24T09:23:53.000Z</time>
</trkpt>
<trkpt lat="46.0445240" lon="10.3841000">
	<ele>1655.60</ele>
	<time>2024-07-24T09:23:54.000Z</time>
</trkpt>
<trkpt lat="46.0445240" lon="10.3841000">
	<ele>1655.60</ele>
	<time>2024-07-24T09:23:55.000Z</time>
</trkpt>
<trkpt lat="46.0445240" lon="10.3841000">
	<ele>1655.60</ele>
	<time>2024-07-24T09:23:56.000Z</time>
</trkpt>
<trkpt lat="46.0445240" lon="10.3841000">
	<ele>1655.60</ele>
	<time>2024-07-24T09:23:57.000Z</time>
</trkpt>
<trkpt lat="46.0445240" lon="10.3841000">
	<ele>1655.60</ele>
	<time>2024-07-24T09:23:58.000Z</time>
</trkpt>
<trkpt lat="46.0445240" lon="10.3841000">
	<ele>1655.60</ele>
	<time>2024-07-24T09:23:59.000Z</time>
</trkpt>
<trkpt lat="46.0445240" lon="10.3841000">
	<ele>1655.60</ele>
	<time>2024-07-24T09:24:00.000Z</time>
</trkpt>
<trkpt lat="46.0445240" lon="10.3841000">
	<ele>1655.40</ele>
	<time>2024-07-24T09:24:01.000Z</time>
</trkpt>
<trkpt lat="46.0445240" lon="10.3841000">
	<ele>1655.40</ele>
	<time>2024-07-24T09:24:02.000Z</time>
</trkpt>
<trkpt lat="46.0445240" lon="10.3841000">
	<ele>1655.40</ele>
	<time>2024-07-24T09:24:03.000Z</time>
</trkpt>
<trkpt lat="46.0445240" lon="10.3841000">
	<ele>1655.40</ele>
	<time>2024-07-24T09:24:04.000Z</time>
</trkpt>
<trkpt lat="46.0445240" lon="10.3841000">
	<ele>1655.40</ele>
	<time>2024-07-24T09:24:05.000Z</time>
</trkpt>
<trkpt lat="46.0445240" lon="10.3841000">
	<ele>1655.40</ele>
	<time>2024-07-24T09:24:06.000Z</time>
</trkpt>
<trkpt lat="46.0445240" lon="10.3841000">
	<ele>1655.40</ele>
	<time>2024-07-24T09:24:07.000Z</time>
</trkpt>
<trkpt lat="46.0445240" lon="10.3841000">
	<ele>1655.40</ele>
	<time>2024-07-24T09:24:08.000Z</time>
</trkpt>
<trkpt lat="46.0445240" lon="10.3841000">
	<ele>1655.40</ele>
	<time>2024-07-24T09:24:09.000Z</time>
</trkpt>
<trkpt lat="46.0445240" lon="10.3841000">
	<ele>1655.40</ele>
	<time>2024-07-24T09:24:10.000Z</time>
</trkpt>
<trkpt lat="46.0445240" lon="10.3841000">
	<ele>1655.40</ele>
	<time>2024-07-24T09:24:11.000Z</time>
</trkpt>
<trkpt lat="46.0445240" lon="10.3841000">
	<ele>1655.20</ele>
	<time>2024-07-24T09:24:12.000Z</time>
</trkpt>
<trkpt lat="46.0445240" lon="10.3841000">
	<ele>1655.20</ele>
	<time>2024-07-24T09:24:13.000Z</time>
</trkpt>
<trkpt lat="46.0445240" lon="10.3841000">
	<ele>1655.20</ele>
	<time>2024-07-24T09:24:14.000Z</time>
</trkpt>
<trkpt lat="46.0445240" lon="10.3841000">
	<ele>1655.20</ele>
	<time>2024-07-24T09:24:15.000Z</time>
</trkpt>
<trkpt lat="46.0445240" lon="10.3841000">
	<ele>1655.20</ele>
	<time>2024-07-24T09:24:16.000Z</time>
</trkpt>
<trkpt lat="46.0445240" lon="10.3841000">
	<ele>1655.20</ele>
	<time>2024-07-24T09:24:17.000Z</time>
</trkpt>
<trkpt lat="46.0445240" lon="10.3841000">
	<ele>1655.20</ele>
	<time>2024-07-24T09:24:18.000Z</time>
</trkpt>
<trkpt lat="46.0445240" lon="10.3841000">
	<ele>1655.00</ele>
	<time>2024-07-24T09:24:19.000Z</time>
</trkpt>
<trkpt lat="46.0445240" lon="10.3841000">
	<ele>1655.20</ele>
	<time>2024-07-24T09:24:20.000Z</time>
</trkpt>
<trkpt lat="46.0445240" lon="10.3841000">
	<ele>1655.20</ele>
	<time>2024-07-24T09:24:21.000Z</time>
</trkpt>
<trkpt lat="46.0445240" lon="10.3841000">
	<ele>1655.20</ele>
	<time>2024-07-24T09:24:22.000Z</time>
</trkpt>
<trkpt lat="46.0445240" lon="10.3841000">
	<ele>1655.00</ele>
	<time>2024-07-24T09:24:23.000Z</time>
</trkpt>
<trkpt lat="46.0445240" lon="10.3841000">
	<ele>1655.00</ele>
	<time>2024-07-24T09:24:24.000Z</time>
</trkpt>
<trkpt lat="46.0445240" lon="10.3841000">
	<ele>1655.20</ele>
	<time>2024-07-24T09:24:25.000Z</time>
</trkpt>
<trkpt lat="46.0445240" lon="10.3841000">
	<ele>1655.20</ele>
	<time>2024-07-24T09:24:26.000Z</time>
</trkpt>
<trkpt lat="46.0445240" lon="10.3841000">
	<ele>1655.20</ele>
	<time>2024-07-24T09:24:27.000Z</time>
</trkpt>
<trkpt lat="46.0445240" lon="10.3841000">
	<ele>1655.20</ele>
	<time>2024-07-24T09:24:28.000Z</time>
</trkpt>
<trkpt lat="46.0445240" lon="10.3841000">
	<ele>1655.20</ele>
	<time>2024-07-24T09:24:29.000Z</time>
</trkpt>
<trkpt lat="46.0445240" lon="10.3841000">
	<ele>1655.20</ele>
	<time>2024-07-24T09:24:30.000Z</time>
</trkpt>
<trkpt lat="46.0445240" lon="10.3841000">
	<ele>1655.20</ele>
	<time>2024-07-24T09:24:31.000Z</time>
</trkpt>
<trkpt lat="46.0445240" lon="10.3841000">
	<ele>1655.20</ele>
	<time>2024-07-24T09:24:32.000Z</time>
</trkpt>
<trkpt lat="46.0445240" lon="10.3841000">
	<ele>1655.20</ele>
	<time>2024-07-24T09:24:33.000Z</time>
</trkpt>
<trkpt lat="46.0445240" lon="10.3841000">
	<ele>1655.20</ele>
	<time>2024-07-24T09:24:34.000Z</time>
</trkpt>
<trkpt lat="46.0445240" lon="10.3841000">
	<ele>1655.20</ele>
	<time>2024-07-24T09:24:35.000Z</time>
</trkpt>
<trkpt lat="46.0445240" lon="10.3841000">
	<ele>1655.20</ele>
	<time>2024-07-24T09:24:36.000Z</time>
</trkpt>
<trkpt lat="46.0445240" lon="10.3841000">
	<ele>1655.20</ele>
	<time>2024-07-24T09:24:37.000Z</time>
</trkpt>
<trkpt lat="46.0445240" lon="10.3841000">
	<ele>1655.20</ele>
	<time>2024-07-24T09:24:38.000Z</time>
</trkpt>
<trkpt lat="46.0445240" lon="10.3841000">
	<ele>1655.40</ele>
	<time>2024-07-24T09:24:39.000Z</time>
</trkpt>
<trkpt lat="46.0445240" lon="10.3841000">
	<ele>1655.20</ele>
	<time>2024-07-24T09:24:40.000Z</time>
</trkpt>
<trkpt lat="46.0445240" lon="10.3841000">
	<ele>1655.20</ele>
	<time>2024-07-24T09:24:41.000Z</time>
</trkpt>
<trkpt lat="46.0445240" lon="10.3841000">
	<ele>1655.20</ele>
	<time>2024-07-24T09:24:42.000Z</time>
</trkpt>
<trkpt lat="46.0445240" lon="10.3841000">
	<ele>1655.00</ele>
	<time>2024-07-24T09:24:43.000Z</time>
</trkpt>
<trkpt lat="46.0445240" lon="10.3841000">
	<ele>1655.00</ele>
	<time>2024-07-24T09:24:44.000Z</time>
</trkpt>
<trkpt lat="46.0445240" lon="10.3841000">
	<ele>1655.00</ele>
	<time>2024-07-24T09:24:45.000Z</time>
</trkpt>
<trkpt lat="46.0445240" lon="10.3841000">
	<ele>1655.00</ele>
	<time>2024-07-24T09:24:46.000Z</time>
</trkpt>
<trkpt lat="46.0445240" lon="10.3841000">
	<ele>1655.00</ele>
	<time>2024-07-24T09:24:47.000Z</time>
</trkpt>
<trkpt lat="46.0445240" lon="10.3841000">
	<ele>1655.00</ele>
	<time>2024-07-24T09:24:48.000Z</time>
</trkpt>
<trkpt lat="46.0445240" lon="10.3841000">
	<ele>1655.00</ele>
	<time>2024-07-24T09:24:49.000Z</time>
</trkpt>
<trkpt lat="46.0445240" lon="10.3841000">
	<ele>1655.00</ele>
	<time>2024-07-24T09:24:50.000Z</time>
</trkpt>
<trkpt lat="46.0445240" lon="10.3841000">
	<ele>1655.00</ele>
	<time>2024-07-24T09:24:51.000Z</time>
</trkpt>
<trkpt lat="46.0445240" lon="10.3841000">
	<ele>1655.00</ele>
	<time>2024-07-24T09:24:52.000Z</time>
</trkpt>
<trkpt lat="46.0445240" lon="10.3841000">
	<ele>1655.20</ele>
	<time>2024-07-24T09:24:53.000Z</time>
</trkpt>
<trkpt lat="46.0445240" lon="10.3841000">
	<ele>1655.20</ele>
	<time>2024-07-24T09:24:54.000Z</time>
</trkpt>
<trkpt lat="46.0445240" lon="10.3841000">
	<ele>1655.00</ele>
	<time>2024-07-24T09:24:55.000Z</time>
</trkpt>
<trkpt lat="46.0445240" lon="10.3841000">
	<ele>1655.20</ele>
	<time>2024-07-24T09:24:56.000Z</time>
</trkpt>
<trkpt lat="46.0445240" lon="10.3841000">
	<ele>1655.20</ele>
	<time>2024-07-24T09:24:57.000Z</time>
</trkpt>
<trkpt lat="46.0445240" lon="10.3841000">
	<ele>1655.20</ele>
	<time>2024-07-24T09:24:58.000Z</time>
</trkpt>
<trkpt lat="46.0445240" lon="10.3841000">
	<ele>1655.20</ele>
	<time>2024-07-24T09:24:59.000Z</time>
</trkpt>
<trkpt lat="46.0445240" lon="10.3841000">
	<ele>1655.20</ele>
	<time>2024-07-24T09:25:00.000Z</time>
</trkpt>
<trkpt lat="46.0445240" lon="10.3841000">
	<ele>1655.20</ele>
	<time>2024-07-24T09:25:01.000Z</time>
</trkpt>
<trkpt lat="46.0445240" lon="10.3841000">
	<ele>1655.20</ele>
	<time>2024-07-24T09:25:02.000Z</time>
</trkpt>
<trkpt lat="46.0445240" lon="10.3841000">
	<ele>1655.20</ele>
	<time>2024-07-24T09:25:03.000Z</time>
</trkpt>
<trkpt lat="46.0445240" lon="10.3841000">
	<ele>1655.20</ele>
	<time>2024-07-24T09:25:04.000Z</time>
</trkpt>
<trkpt lat="46.0445240" lon="10.3841000">
	<ele>1655.20</ele>
	<time>2024-07-24T09:25:05.000Z</time>
</trkpt>
<trkpt lat="46.0445240" lon="10.3841000">
	<ele>1655.20</ele>
	<time>2024-07-24T09:25:06.000Z</time>
</trkpt>
<trkpt lat="46.0445240" lon="10.3841000">
	<ele>1655.20</ele>
	<time>2024-07-24T09:25:07.000Z</time>
</trkpt>
<trkpt lat="46.0445240" lon="10.3841000">
	<ele>1655.20</ele>
	<time>2024-07-24T09:25:08.000Z</time>
</trkpt>
<trkpt lat="46.0445240" lon="10.3841000">
	<ele>1655.20</ele>
	<time>2024-07-24T09:25:09.000Z</time>
</trkpt>
<trkpt lat="46.0445240" lon="10.3841000">
	<ele>1655.20</ele>
	<time>2024-07-24T09:25:10.000Z</time>
</trkpt>
<trkpt lat="46.0445240" lon="10.3841000">
	<ele>1655.20</ele>
	<time>2024-07-24T09:25:11.000Z</time>
</trkpt>
<trkpt lat="46.0445240" lon="10.3841000">
	<ele>1655.20</ele>
	<time>2024-07-24T09:25:12.000Z</time>
</trkpt>
<trkpt lat="46.0445240" lon="10.3841000">
	<ele>1655.40</ele>
	<time>2024-07-24T09:25:13.000Z</time>
</trkpt>
<trkpt lat="46.0445240" lon="10.3841000">
	<ele>1655.40</ele>
	<time>2024-07-24T09:25:14.000Z</time>
</trkpt>
<trkpt lat="46.0445240" lon="10.3841000">
	<ele>1655.40</ele>
	<time>2024-07-24T09:25:15.000Z</time>
</trkpt>
<trkpt lat="46.0445240" lon="10.3841000">
	<ele>1655.40</ele>
	<time>2024-07-24T09:25:16.000Z</time>
</trkpt>
<trkpt lat="46.0445240" lon="10.3841000">
	<ele>1655.40</ele>
	<time>2024-07-24T09:25:17.000Z</time>
</trkpt>
<trkpt lat="46.0445240" lon="10.3841000">
	<ele>1655.40</ele>
	<time>2024-07-24T09:25:18.000Z</time>
</trkpt>
<trkpt lat="46.0445240" lon="10.3841000">
	<ele>1655.40</ele>
	<time>2024-07-24T09:25:19.000Z</time>
</trkpt>
<trkpt lat="46.0445240" lon="10.3841000">
	<ele>1655.40</ele>
	<time>2024-07-24T09:25:20.000Z</time>
</trkpt>
<trkpt lat="46.0445240" lon="10.3841000">
	<ele>1655.40</ele>
	<time>2024-07-24T09:25:21.000Z</time>
</trkpt>
<trkpt lat="46.0445240" lon="10.3841000">
	<ele>1655.40</ele>
	<time>2024-07-24T09:25:22.000Z</time>
</trkpt>
<trkpt lat="46.0445240" lon="10.3841000">
	<ele>1655.40</ele>
	<time>2024-07-24T09:25:23.000Z</time>
</trkpt>
<trkpt lat="46.0445240" lon="10.3841000">
	<ele>1655.40</ele>
	<time>2024-07-24T09:25:24.000Z</time>
</trkpt>
<trkpt lat="46.0445240" lon="10.3841000">
	<ele>1655.40</ele>
	<time>2024-07-24T09:25:25.000Z</time>
</trkpt>
<trkpt lat="46.0445240" lon="10.3841000">
	<ele>1655.40</ele>
	<time>2024-07-24T09:25:26.000Z</time>
</trkpt>
<trkpt lat="46.0445240" lon="10.3841000">
	<ele>1655.40</ele>
	<time>2024-07-24T09:25:27.000Z</time>
</trkpt>
<trkpt lat="46.0445240" lon="10.3841000">
	<ele>1655.60</ele>
	<time>2024-07-24T09:25:28.000Z</time>
</trkpt>
<trkpt lat="46.0445240" lon="10.3841000">
	<ele>1655.60</ele>
	<time>2024-07-24T09:25:29.000Z</time>
</trkpt>
<trkpt lat="46.0445240" lon="10.3841000">
	<ele>1655.60</ele>
	<time>2024-07-24T09:25:30.000Z</time>
</trkpt>
<trkpt lat="46.0445240" lon="10.3840990">
	<ele>1655.60</ele>
	<time>2024-07-24T09:25:31.000Z</time>
</trkpt>
<trkpt lat="46.0445240" lon="10.3840990">
	<ele>1655.60</ele>
	<time>2024-07-24T09:25:32.000Z</time>
</trkpt>
<trkpt lat="46.0445240" lon="10.3840990">
	<ele>1655.60</ele>
	<time>2024-07-24T09:25:33.000Z</time>
</trkpt>
<trkpt lat="46.0445240" lon="10.3840990">
	<ele>1655.80</ele>
	<time>2024-07-24T09:25:34.000Z</time>
</trkpt>
<trkpt lat="46.0445240" lon="10.3840990">
	<ele>1655.80</ele>
	<time>2024-07-24T09:25:35.000Z</time>
</trkpt>
<trkpt lat="46.0445240" lon="10.3840990">
	<ele>1655.60</ele>
	<time>2024-07-24T09:25:36.000Z</time>
</trkpt>
<trkpt lat="46.0445240" lon="10.3840990">
	<ele>1655.60</ele>
	<time>2024-07-24T09:25:37.000Z</time>
</trkpt>
<trkpt lat="46.0445240" lon="10.3840990">
	<ele>1655.60</ele>
	<time>2024-07-24T09:25:38.000Z</time>
</trkpt>
<trkpt lat="46.0445240" lon="10.3840990">
	<ele>1655.60</ele>
	<time>2024-07-24T09:25:39.000Z</time>
</trkpt>
<trkpt lat="46.0445240" lon="10.3840990">
	<ele>1655.80</ele>
	<time>2024-07-24T09:25:40.000Z</time>
</trkpt>
<trkpt lat="46.0445240" lon="10.3840990">
	<ele>1655.80</ele>
	<time>2024-07-24T09:25:41.000Z</time>
</trkpt>
<trkpt lat="46.0445240" lon="10.3840990">
	<ele>1655.80</ele>
	<time>2024-07-24T09:25:42.000Z</time>
</trkpt>
<trkpt lat="46.0445240" lon="10.3840990">
	<ele>1655.80</ele>
	<time>2024-07-24T09:25:43.000Z</time>
</trkpt>
<trkpt lat="46.0445240" lon="10.3840990">
	<ele>1655.80</ele>
	<time>2024-07-24T09:25:44.000Z</time>
</trkpt>
<trkpt lat="46.0445240" lon="10.3840990">
	<ele>1655.80</ele>
	<time>2024-07-24T09:25:45.000Z</time>
</trkpt>
<trkpt lat="46.0445240" lon="10.3840990">
	<ele>1655.80</ele>
	<time>2024-07-24T09:25:46.000Z</time>
</trkpt>
<trkpt lat="46.0445240" lon="10.3840990">
	<ele>1655.80</ele>
	<time>2024-07-24T09:25:47.000Z</time>
</trkpt>
<trkpt lat="46.0445240" lon="10.3840990">
	<ele>1655.80</ele>
	<time>2024-07-24T09:25:48.000Z</time>
</trkpt>
<trkpt lat="46.0445240" lon="10.3840990">
	<ele>1655.80</ele>
	<time>2024-07-24T09:25:49.000Z</time>
</trkpt>
<trkpt lat="46.0445240" lon="10.3840990">
	<ele>1655.80</ele>
	<time>2024-07-24T09:25:50.000Z</time>
</trkpt>
<trkpt lat="46.0445240" lon="10.3840990">
	<ele>1655.80</ele>
	<time>2024-07-24T09:25:51.000Z</time>
</trkpt>
<trkpt lat="46.0445240" lon="10.3840990">
	<ele>1655.80</ele>
	<time>2024-07-24T09:25:52.000Z</time>
</trkpt>
<trkpt lat="46.0445240" lon="10.3840990">
	<ele>1655.80</ele>
	<time>2024-07-24T09:25:53.000Z</time>
</trkpt>
<trkpt lat="46.0445240" lon="10.3840990">
	<ele>1655.80</ele>
	<time>2024-07-24T09:25:54.000Z</time>
</trkpt>
<trkpt lat="46.0445240" lon="10.3840990">
	<ele>1655.80</ele>
	<time>2024-07-24T09:25:55.000Z</time>
</trkpt>
<trkpt lat="46.0445240" lon="10.3840990">
	<ele>1655.80</ele>
	<time>2024-07-24T09:25:56.000Z</time>
</trkpt>
<trkpt lat="46.0445240" lon="10.3841000">
	<ele>1655.80</ele>
	<time>2024-07-24T09:25:57.000Z</time>
</trkpt>
<trkpt lat="46.0445240" lon="10.3841000">
	<ele>1655.80</ele>
	<time>2024-07-24T09:25:58.000Z</time>
</trkpt>
<trkpt lat="46.0445240" lon="10.3841000">
	<ele>1655.80</ele>
	<time>2024-07-24T09:25:59.000Z</time>
</trkpt>
<trkpt lat="46.0445240" lon="10.3841000">
	<ele>1655.80</ele>
	<time>2024-07-24T09:26:00.000Z</time>
</trkpt>
<trkpt lat="46.0445240" lon="10.3841000">
	<ele>1656.00</ele>
	<time>2024-07-24T09:26:01.000Z</time>
</trkpt>
<trkpt lat="46.0445240" lon="10.3841000">
	<ele>1656.00</ele>
	<time>2024-07-24T09:26:02.000Z</time>
</trkpt>
<trkpt lat="46.0445240" lon="10.3841000">
	<ele>1656.00</ele>
	<time>2024-07-24T09:26:03.000Z</time>
</trkpt>
<trkpt lat="46.0445240" lon="10.3841000">
	<ele>1656.00</ele>
	<time>2024-07-24T09:26:04.000Z</time>
</trkpt>
<trkpt lat="46.0445240" lon="10.3841000">
	<ele>1655.80</ele>
	<time>2024-07-24T09:26:05.000Z</time>
</trkpt>
<trkpt lat="46.0445240" lon="10.3840990">
	<ele>1655.80</ele>
	<time>2024-07-24T09:26:06.000Z</time>
</trkpt>
<trkpt lat="46.0445240" lon="10.3840990">
	<ele>1655.80</ele>
	<time>2024-07-24T09:26:07.000Z</time>
</trkpt>
<trkpt lat="46.0445240" lon="10.3841000">
	<ele>1655.80</ele>
	<time>2024-07-24T09:26:08.000Z</time>
</trkpt>
<trkpt lat="46.0445240" lon="10.3841000">
	<ele>1655.80</ele>
	<time>2024-07-24T09:26:09.000Z</time>
</trkpt>
<trkpt lat="46.0445240" lon="10.3840990">
	<ele>1655.80</ele>
	<time>2024-07-24T09:26:10.000Z</time>
</trkpt>
<trkpt lat="46.0445240" lon="10.3840990">
	<ele>1655.80</ele>
	<time>2024-07-24T09:26:11.000Z</time>
</trkpt>
<trkpt lat="46.0445240" lon="10.3840990">
	<ele>1655.80</ele>
	<time>2024-07-24T09:26:12.000Z</time>
</trkpt>
<trkpt lat="46.0445240" lon="10.3840990">
	<ele>1656.00</ele>
	<time>2024-07-24T09:26:13.000Z</time>
</trkpt>
<trkpt lat="46.0445240" lon="10.3840990">
	<ele>1656.00</ele>
	<time>2024-07-24T09:26:14.000Z</time>
</trkpt>
<trkpt lat="46.0445240" lon="10.3840990">
	<ele>1656.00</ele>
	<time>2024-07-24T09:26:15.000Z</time>
</trkpt>
<trkpt lat="46.0445240" lon="10.3840990">
	<ele>1656.00</ele>
	<time>2024-07-24T09:26:16.000Z</time>
</trkpt>
<trkpt lat="46.0445240" lon="10.3840990">
	<ele>1656.00</ele>
	<time>2024-07-24T09:26:17.000Z</time>
</trkpt>
<trkpt lat="46.0445240" lon="10.3841000">
	<ele>1656.00</ele>
	<time>2024-07-24T09:26:18.000Z</time>
</trkpt>
<trkpt lat="46.0445240" lon="10.3841000">
	<ele>1656.00</ele>
	<time>2024-07-24T09:26:19.000Z</time>
</trkpt>
<trkpt lat="46.0445240" lon="10.3840990">
	<ele>1656.00</ele>
	<time>2024-07-24T09:26:20.000Z</time>
</trkpt>
<trkpt lat="46.0445240" lon="10.3840990">
	<ele>1656.00</ele>
	<time>2024-07-24T09:26:21.000Z</time>
</trkpt>
<trkpt lat="46.0445240" lon="10.3840990">
	<ele>1656.00</ele>
	<time>2024-07-24T09:26:22.000Z</time>
</trkpt>
<trkpt lat="46.0445240" lon="10.3840990">
	<ele>1656.00</ele>
	<time>2024-07-24T09:26:23.000Z</time>
</trkpt>
<trkpt lat="46.0445240" lon="10.3840990">
	<ele>1656.00</ele>
	<time>2024-07-24T09:26:24.000Z</time>
</trkpt>
<trkpt lat="46.0445240" lon="10.3841000">
	<ele>1656.00</ele>
	<time>2024-07-24T09:26:25.000Z</time>
</trkpt>
<trkpt lat="46.0445240" lon="10.3841000">
	<ele>1656.20</ele>
	<time>2024-07-24T09:26:26.000Z</time>
</trkpt>
<trkpt lat="46.0445240" lon="10.3841000">
	<ele>1656.20</ele>
	<time>2024-07-24T09:26:27.000Z</time>
</trkpt>
<trkpt lat="46.0445240" lon="10.3841000">
	<ele>1656.20</ele>
	<time>2024-07-24T09:26:28.000Z</time>
</trkpt>
<trkpt lat="46.0445240" lon="10.3841000">
	<ele>1656.20</ele>
	<time>2024-07-24T09:26:29.000Z</time>
</trkpt>
<trkpt lat="46.0445240" lon="10.3840990">
	<ele>1656.20</ele>
	<time>2024-07-24T09:26:30.000Z</time>
</trkpt>
<trkpt lat="46.0445240" lon="10.3840990">
	<ele>1656.20</ele>
	<time>2024-07-24T09:26:31.000Z</time>
</trkpt>
<trkpt lat="46.0445240" lon="10.3841000">
	<ele>1656.20</ele>
	<time>2024-07-24T09:26:32.000Z</time>
</trkpt>
<trkpt lat="46.0445240" lon="10.3841000">
	<ele>1656.20</ele>
	<time>2024-07-24T09:26:33.000Z</time>
</trkpt>
<trkpt lat="46.0445240" lon="10.3841000">
	<ele>1656.20</ele>
	<time>2024-07-24T09:26:34.000Z</time>
</trkpt>
<trkpt lat="46.0445240" lon="10.3841000">
	<ele>1656.20</ele>
	<time>2024-07-24T09:26:35.000Z</time>
</trkpt>
<trkpt lat="46.0445240" lon="10.3841000">
	<ele>1656.20</ele>
	<time>2024-07-24T09:26:36.000Z</time>
</trkpt>
<trkpt lat="46.0445240" lon="10.3841000">
	<ele>1656.20</ele>
	<time>2024-07-24T09:26:37.000Z</time>
</trkpt>
<trkpt lat="46.0445240" lon="10.3841000">
	<ele>1656.20</ele>
	<time>2024-07-24T09:26:38.000Z</time>
</trkpt>
<trkpt lat="46.0445240" lon="10.3840990">
	<ele>1656.40</ele>
	<time>2024-07-24T09:26:39.000Z</time>
</trkpt>
<trkpt lat="46.0445240" lon="10.3840990">
	<ele>1656.40</ele>
	<time>2024-07-24T09:26:40.000Z</time>
</trkpt>
<trkpt lat="46.0445240" lon="10.3840990">
	<ele>1656.40</ele>
	<time>2024-07-24T09:26:41.000Z</time>
</trkpt>
<trkpt lat="46.0445240" lon="10.3840990">
	<ele>1656.40</ele>
	<time>2024-07-24T09:26:42.000Z</time>
</trkpt>
<trkpt lat="46.0445240" lon="10.3840990">
	<ele>1656.40</ele>
	<time>2024-07-24T09:26:43.000Z</time>
</trkpt>
<trkpt lat="46.0445240" lon="10.3840990">
	<ele>1656.60</ele>
	<time>2024-07-24T09:26:44.000Z</time>
</trkpt>
<trkpt lat="46.0445240" lon="10.3840990">
	<ele>1656.60</ele>
	<time>2024-07-24T09:26:45.000Z</time>
</trkpt>
<trkpt lat="46.0445240" lon="10.3841000">
	<ele>1656.60</ele>
	<time>2024-07-24T09:26:46.000Z</time>
</trkpt>
<trkpt lat="46.0445240" lon="10.3841000">
	<ele>1656.60</ele>
	<time>2024-07-24T09:26:47.000Z</time>
</trkpt>
<trkpt lat="46.0445240" lon="10.3841000">
	<ele>1656.60</ele>
	<time>2024-07-24T09:26:48.000Z</time>
</trkpt>
<trkpt lat="46.0445240" lon="10.3841000">
	<ele>1656.60</ele>
	<time>2024-07-24T09:26:49.000Z</time>
</trkpt>
<trkpt lat="46.0445240" lon="10.3841000">
	<ele>1656.60</ele>
	<time>2024-07-24T09:26:50.000Z</time>
</trkpt>
<trkpt lat="46.0445240" lon="10.3841000">
	<ele>1656.60</ele>
	<time>2024-07-24T09:26:51.000Z</time>
</trkpt>
<trkpt lat="46.0445240" lon="10.3841000">
	<ele>1656.60</ele>
	<time>2024-07-24T09:26:52.000Z</time>
</trkpt>
<trkpt lat="46.0445240" lon="10.3841000">
	<ele>1656.60</ele>
	<time>2024-07-24T09:26:53.000Z</time>
</trkpt>
<trkpt lat="46.0445240" lon="10.3841000">
	<ele>1656.60</ele>
	<time>2024-07-24T09:26:54.000Z</time>
</trkpt>
<trkpt lat="46.0445240" lon="10.3841000">
	<ele>1656.60</ele>
	<time>2024-07-24T09:26:55.000Z</time>
</trkpt>
<trkpt lat="46.0445240" lon="10.3841000">
	<ele>1656.60</ele>
	<time>2024-07-24T09:26:56.000Z</time>
</trkpt>
<trkpt lat="46.0445240" lon="10.3841000">
	<ele>1656.60</ele>
	<time>2024-07-24T09:26:57.000Z</time>
</trkpt>
<trkpt lat="46.0445240" lon="10.3841000">
	<ele>1656.60</ele>
	<time>2024-07-24T09:26:58.000Z</time>
</trkpt>
<trkpt lat="46.0445240" lon="10.3841000">
	<ele>1656.60</ele>
	<time>2024-07-24T09:26:59.000Z</time>
</trkpt>
<trkpt lat="46.0445240" lon="10.3841000">
	<ele>1656.60</ele>
	<time>2024-07-24T09:27:00.000Z</time>
</trkpt>
<trkpt lat="46.0445240" lon="10.3841000">
	<ele>1656.60</ele>
	<time>2024-07-24T09:27:01.000Z</time>
</trkpt>
<trkpt lat="46.0445240" lon="10.3841000">
	<ele>1656.60</ele>
	<time>2024-07-24T09:27:02.000Z</time>
</trkpt>
<trkpt lat="46.0445240" lon="10.3841000">
	<ele>1656.60</ele>
	<time>2024-07-24T09:27:03.000Z</time>
</trkpt>
<trkpt lat="46.0445240" lon="10.3841000">
	<ele>1656.60</ele>
	<time>2024-07-24T09:27:04.000Z</time>
</trkpt>
<trkpt lat="46.0445240" lon="10.3841000">
	<ele>1656.80</ele>
	<time>2024-07-24T09:27:05.000Z</time>
</trkpt>
<trkpt lat="46.0445240" lon="10.3841000">
	<ele>1656.80</ele>
	<time>2024-07-24T09:27:06.000Z</time>
</trkpt>
<trkpt lat="46.0445240" lon="10.3841000">
	<ele>1656.80</ele>
	<time>2024-07-24T09:27:07.000Z</time>
</trkpt>
<trkpt lat="46.0445240" lon="10.3841000">
	<ele>1656.80</ele>
	<time>2024-07-24T09:27:08.000Z</time>
</trkpt>
<trkpt lat="46.0445240" lon="10.3841000">
	<ele>1656.80</ele>
	<time>2024-07-24T09:27:09.000Z</time>
</trkpt>
<trkpt lat="46.0445240" lon="10.3841000">
	<ele>1657.00</ele>
	<time>2024-07-24T09:27:10.000Z</time>
</trkpt>
<trkpt lat="46.0445240" lon="10.3841000">
	<ele>1657.00</ele>
	<time>2024-07-24T09:27:11.000Z</time>
</trkpt>
<trkpt lat="46.0445240" lon="10.3841000">
	<ele>1657.00</ele>
	<time>2024-07-24T09:27:12.000Z</time>
</trkpt>
<trkpt lat="46.0445240" lon="10.3841000">
	<ele>1656.80</ele>
	<time>2024-07-24T09:27:13.000Z</time>
</trkpt>
<trkpt lat="46.0445240" lon="10.3841000">
	<ele>1656.80</ele>
	<time>2024-07-24T09:27:14.000Z</time>
</trkpt>
<trkpt lat="46.0445240" lon="10.3841000">
	<ele>1656.80</ele>
	<time>2024-07-24T09:27:15.000Z</time>
</trkpt>
<trkpt lat="46.0445240" lon="10.3841000">
	<ele>1656.80</ele>
	<time>2024-07-24T09:27:16.000Z</time>
</trkpt>
<trkpt lat="46.0445240" lon="10.3841000">
	<ele>1656.80</ele>
	<time>2024-07-24T09:27:17.000Z</time>
</trkpt>
<trkpt lat="46.0445240" lon="10.3841000">
	<ele>1656.80</ele>
	<time>2024-07-24T09:27:18.000Z</time>
</trkpt>
<trkpt lat="46.0445240" lon="10.3841000">
	<ele>1656.80</ele>
	<time>2024-07-24T09:27:19.000Z</time>
</trkpt>
<trkpt lat="46.0445240" lon="10.3841000">
	<ele>1657.00</ele>
	<time>2024-07-24T09:27:20.000Z</time>
</trkpt>
<trkpt lat="46.0445240" lon="10.3841000">
	<ele>1657.00</ele>
	<time>2024-07-24T09:27:21.000Z</time>
</trkpt>
<trkpt lat="46.0445240" lon="10.3841000">
	<ele>1657.00</ele>
	<time>2024-07-24T09:27:22.000Z</time>
</trkpt>
<trkpt lat="46.0445240" lon="10.3841000">
	<ele>1657.00</ele>
	<time>2024-07-24T09:27:23.000Z</time>
</trkpt>
<trkpt lat="46.0445240" lon="10.3841000">
	<ele>1657.00</ele>
	<time>2024-07-24T09:27:24.000Z</time>
</trkpt>
<trkpt lat="46.0445240" lon="10.3841000">
	<ele>1657.00</ele>
	<time>2024-07-24T09:27:25.000Z</time>
</trkpt>
<trkpt lat="46.0445240" lon="10.3841000">
	<ele>1657.00</ele>
	<time>2024-07-24T09:27:26.000Z</time>
</trkpt>
<trkpt lat="46.0445240" lon="10.3841000">
	<ele>1657.00</ele>
	<time>2024-07-24T09:27:27.000Z</time>
</trkpt>
<trkpt lat="46.0445240" lon="10.3841000">
	<ele>1657.00</ele>
	<time>2024-07-24T09:27:28.000Z</time>
</trkpt>
<trkpt lat="46.0445240" lon="10.3841000">
	<ele>1657.00</ele>
	<time>2024-07-24T09:27:29.000Z</time>
</trkpt>
<trkpt lat="46.0445240" lon="10.3841000">
	<ele>1657.00</ele>
	<time>2024-07-24T09:27:30.000Z</time>
</trkpt>
<trkpt lat="46.0445240" lon="10.3841000">
	<ele>1657.00</ele>
	<time>2024-07-24T09:27:31.000Z</time>
</trkpt>
<trkpt lat="46.0445240" lon="10.3841000">
	<ele>1657.20</ele>
	<time>2024-07-24T09:27:32.000Z</time>
</trkpt>
<trkpt lat="46.0445240" lon="10.3841000">
	<ele>1657.20</ele>
	<time>2024-07-24T09:27:33.000Z</time>
</trkpt>
<trkpt lat="46.0445240" lon="10.3841000">
	<ele>1657.20</ele>
	<time>2024-07-24T09:27:34.000Z</time>
</trkpt>
<trkpt lat="46.0445240" lon="10.3841000">
	<ele>1657.20</ele>
	<time>2024-07-24T09:27:35.000Z</time>
</trkpt>
<trkpt lat="46.0445240" lon="10.3841000">
	<ele>1657.20</ele>
	<time>2024-07-24T09:27:36.000Z</time>
</trkpt>
<trkpt lat="46.0445240" lon="10.3841000">
	<ele>1657.20</ele>
	<time>2024-07-24T09:27:37.000Z</time>
</trkpt>
<trkpt lat="46.0445240" lon="10.3841000">
	<ele>1657.20</ele>
	<time>2024-07-24T09:27:38.000Z</time>
</trkpt>
<trkpt lat="46.0445240" lon="10.3841000">
	<ele>1657.20</ele>
	<time>2024-07-24T09:27:39.000Z</time>
</trkpt>
<trkpt lat="46.0445240" lon="10.3841000">
	<ele>1657.20</ele>
	<time>2024-07-24T09:27:40.000Z</time>
</trkpt>
<trkpt lat="46.0445240" lon="10.3841000">
	<ele>1657.20</ele>
	<time>2024-07-24T09:27:41.000Z</time>
</trkpt>
<trkpt lat="46.0445240" lon="10.3841000">
	<ele>1657.20</ele>
	<time>2024-07-24T09:27:42.000Z</time>
</trkpt>
<trkpt lat="46.0445240" lon="10.3841000">
	<ele>1657.20</ele>
	<time>2024-07-24T09:27:43.000Z</time>
</trkpt>
<trkpt lat="46.0445240" lon="10.3841000">
	<ele>1657.00</ele>
	<time>2024-07-24T09:27:44.000Z</time>
</trkpt>
<trkpt lat="46.0445240" lon="10.3841000">
	<ele>1657.00</ele>
	<time>2024-07-24T09:27:45.000Z</time>
</trkpt>
<trkpt lat="46.0445250" lon="10.3841000">
	<ele>1657.00</ele>
	<time>2024-07-24T09:27:46.000Z</time>
</trkpt>
<trkpt lat="46.0445250" lon="10.3841000">
	<ele>1657.00</ele>
	<time>2024-07-24T09:27:47.000Z</time>
</trkpt>
<trkpt lat="46.0445250" lon="10.3841000">
	<ele>1657.00</ele>
	<time>2024-07-24T09:27:48.000Z</time>
</trkpt>
<trkpt lat="46.0445250" lon="10.3841000">
	<ele>1657.00</ele>
	<time>2024-07-24T09:27:49.000Z</time>
</trkpt>
<trkpt lat="46.0445250" lon="10.3841000">
	<ele>1657.00</ele>
	<time>2024-07-24T09:27:50.000Z</time>
</trkpt>
<trkpt lat="46.0445250" lon="10.3841000">
	<ele>1657.00</ele>
	<time>2024-07-24T09:27:51.000Z</time>
</trkpt>
<trkpt lat="46.0445250" lon="10.3841000">
	<ele>1657.00</ele>
	<time>2024-07-24T09:27:52.000Z</time>
</trkpt>
<trkpt lat="46.0445250" lon="10.3841000">
	<ele>1657.00</ele>
	<time>2024-07-24T09:27:53.000Z</time>
</trkpt>
<trkpt lat="46.0445250" lon="10.3841000">
	<ele>1657.00</ele>
	<time>2024-07-24T09:27:54.000Z</time>
</trkpt>
<trkpt lat="46.0445250" lon="10.3841000">
	<ele>1657.20</ele>
	<time>2024-07-24T09:27:55.000Z</time>
</trkpt>
<trkpt lat="46.0445250" lon="10.3841000">
	<ele>1657.20</ele>
	<time>2024-07-24T09:27:56.000Z</time>
</trkpt>
<trkpt lat="46.0445250" lon="10.3841000">
	<ele>1657.20</ele>
	<time>2024-07-24T09:27:57.000Z</time>
</trkpt>
<trkpt lat="46.0445250" lon="10.3841000">
	<ele>1657.20</ele>
	<time>2024-07-24T09:27:58.000Z</time>
</trkpt>
<trkpt lat="46.0445250" lon="10.3841000">
	<ele>1657.20</ele>
	<time>2024-07-24T09:27:59.000Z</time>
</trkpt>
<trkpt lat="46.0445250" lon="10.3841000">
	<ele>1657.20</ele>
	<time>2024-07-24T09:28:00.000Z</time>
</trkpt>
<trkpt lat="46.0445250" lon="10.3841000">
	<ele>1657.20</ele>
	<time>2024-07-24T09:28:01.000Z</time>
</trkpt>
<trkpt lat="46.0445250" lon="10.3841000">
	<ele>1657.20</ele>
	<time>2024-07-24T09:28:02.000Z</time>
</trkpt>
<trkpt lat="46.0445240" lon="10.3841000">
	<ele>1657.20</ele>
	<time>2024-07-24T09:28:03.000Z</time>
</trkpt>
<trkpt lat="46.0445240" lon="10.3841000">
	<ele>1657.20</ele>
	<time>2024-07-24T09:28:04.000Z</time>
</trkpt>
<trkpt lat="46.0445240" lon="10.3841000">
	<ele>1657.20</ele>
	<time>2024-07-24T09:28:05.000Z</time>
</trkpt>
<trkpt lat="46.0445240" lon="10.3841000">
	<ele>1656.80</ele>
	<time>2024-07-24T09:28:06.000Z</time>
</trkpt>
<trkpt lat="46.0445240" lon="10.3841000">
	<ele>1656.80</ele>
	<time>2024-07-24T09:28:07.000Z</time>
</trkpt>
<trkpt lat="46.0445240" lon="10.3841000">
	<ele>1656.80</ele>
	<time>2024-07-24T09:28:08.000Z</time>
</trkpt>
<trkpt lat="46.0445240" lon="10.3841000">
	<ele>1656.80</ele>
	<time>2024-07-24T09:28:09.000Z</time>
</trkpt>
<trkpt lat="46.0445240" lon="10.3841000">
	<ele>1656.80</ele>
	<time>2024-07-24T09:28:10.000Z</time>
</trkpt>
<trkpt lat="46.0445240" lon="10.3841000">
	<ele>1656.80</ele>
	<time>2024-07-24T09:28:11.000Z</time>
</trkpt>
<trkpt lat="46.0445240" lon="10.3841000">
	<ele>1656.80</ele>
	<time>2024-07-24T09:28:12.000Z</time>
</trkpt>
<trkpt lat="46.0445240" lon="10.3841000">
	<ele>1656.80</ele>
	<time>2024-07-24T09:28:13.000Z</time>
</trkpt>
<trkpt lat="46.0445240" lon="10.3841000">
	<ele>1656.80</ele>
	<time>2024-07-24T09:28:14.000Z</time>
</trkpt>
<trkpt lat="46.0445240" lon="10.3841000">
	<ele>1656.80</ele>
	<time>2024-07-24T09:28:15.000Z</time>
</trkpt>
<trkpt lat="46.0445240" lon="10.3841000">
	<ele>1656.80</ele>
	<time>2024-07-24T09:28:16.000Z</time>
</trkpt>
<trkpt lat="46.0445250" lon="10.3841000">
	<ele>1656.80</ele>
	<time>2024-07-24T09:28:17.000Z</time>
</trkpt>
<trkpt lat="46.0445250" lon="10.3841000">
	<ele>1656.80</ele>
	<time>2024-07-24T09:28:18.000Z</time>
</trkpt>
<trkpt lat="46.0445250" lon="10.3841000">
	<ele>1656.80</ele>
	<time>2024-07-24T09:28:19.000Z</time>
</trkpt>
<trkpt lat="46.0445250" lon="10.3841000">
	<ele>1656.80</ele>
	<time>2024-07-24T09:28:20.000Z</time>
</trkpt>
<trkpt lat="46.0445250" lon="10.3841000">
	<ele>1656.80</ele>
	<time>2024-07-24T09:28:21.000Z</time>
</trkpt>
<trkpt lat="46.0445250" lon="10.3841000">
	<ele>1656.80</ele>
	<time>2024-07-24T09:28:22.000Z</time>
</trkpt>
<trkpt lat="46.0445250" lon="10.3841000">
	<ele>1656.80</ele>
	<time>2024-07-24T09:28:23.000Z</time>
</trkpt>
<trkpt lat="46.0445250" lon="10.3841000">
	<ele>1656.80</ele>
	<time>2024-07-24T09:28:24.000Z</time>
</trkpt>
<trkpt lat="46.0445250" lon="10.3841000">
	<ele>1656.80</ele>
	<time>2024-07-24T09:28:25.000Z</time>
</trkpt>
<trkpt lat="46.0445250" lon="10.3841000">
	<ele>1656.80</ele>
	<time>2024-07-24T09:28:26.000Z</time>
</trkpt>
<trkpt lat="46.0445250" lon="10.3841000">
	<ele>1656.80</ele>
	<time>2024-07-24T09:28:27.000Z</time>
</trkpt>
<trkpt lat="46.0445250" lon="10.3841000">
	<ele>1656.80</ele>
	<time>2024-07-24T09:28:28.000Z</time>
</trkpt>
<trkpt lat="46.0445250" lon="10.3841010">
	<ele>1656.80</ele>
	<time>2024-07-24T09:28:29.000Z</time>
</trkpt>
<trkpt lat="46.0445250" lon="10.3841010">
	<ele>1656.80</ele>
	<time>2024-07-24T09:28:30.000Z</time>
</trkpt>
<trkpt lat="46.0445250" lon="10.3841010">
	<ele>1656.80</ele>
	<time>2024-07-24T09:28:31.000Z</time>
</trkpt>
<trkpt lat="46.0445250" lon="10.3841010">
	<ele>1656.80</ele>
	<time>2024-07-24T09:28:32.000Z</time>
</trkpt>
<trkpt lat="46.0445250" lon="10.3841010">
	<ele>1656.80</ele>
	<time>2024-07-24T09:28:33.000Z</time>
</trkpt>
<trkpt lat="46.0445250" lon="10.3841010">
	<ele>1656.80</ele>
	<time>2024-07-24T09:28:34.000Z</time>
</trkpt>
<trkpt lat="46.0445250" lon="10.3841010">
	<ele>1656.80</ele>
	<time>2024-07-24T09:28:35.000Z</time>
</trkpt>
<trkpt lat="46.0445250" lon="10.3841010">
	<ele>1656.80</ele>
	<time>2024-07-24T09:28:36.000Z</time>
</trkpt>
<trkpt lat="46.0445250" lon="10.3841010">
	<ele>1656.80</ele>
	<time>2024-07-24T09:28:37.000Z</time>
</trkpt>
<trkpt lat="46.0445250" lon="10.3841010">
	<ele>1656.80</ele>
	<time>2024-07-24T09:28:38.000Z</time>
</trkpt>
<trkpt lat="46.0445250" lon="10.3841010">
	<ele>1656.80</ele>
	<time>2024-07-24T09:28:39.000Z</time>
</trkpt>
<trkpt lat="46.0445250" lon="10.3841010">
	<ele>1656.80</ele>
	<time>2024-07-24T09:28:40.000Z</time>
</trkpt>
<trkpt lat="46.0445250" lon="10.3841010">
	<ele>1656.80</ele>
	<time>2024-07-24T09:28:41.000Z</time>
</trkpt>
<trkpt lat="46.0445250" lon="10.3841010">
	<ele>1656.80</ele>
	<time>2024-07-24T09:28:42.000Z</time>
</trkpt>
<trkpt lat="46.0445250" lon="10.3841010">
	<ele>1656.80</ele>
	<time>2024-07-24T09:28:43.000Z</time>
</trkpt>
<trkpt lat="46.0445250" lon="10.3841010">
	<ele>1656.80</ele>
	<time>2024-07-24T09:28:44.000Z</time>
</trkpt>
<trkpt lat="46.0445250" lon="10.3841010">
	<ele>1656.80</ele>
	<time>2024-07-24T09:28:45.000Z</time>
</trkpt>
<trkpt lat="46.0445250" lon="10.3841010">
	<ele>1656.80</ele>
	<time>2024-07-24T09:28:46.000Z</time>
</trkpt>
<trkpt lat="46.0445250" lon="10.3841010">
	<ele>1656.80</ele>
	<time>2024-07-24T09:28:47.000Z</time>
</trkpt>
<trkpt lat="46.0445250" lon="10.3841010">
	<ele>1656.80</ele>
	<time>2024-07-24T09:28:48.000Z</time>
</trkpt>
<trkpt lat="46.0445250" lon="10.3841010">
	<ele>1656.80</ele>
	<time>2024-07-24T09:28:49.000Z</time>
</trkpt>
<trkpt lat="46.0445250" lon="10.3841010">
	<ele>1656.80</ele>
	<time>2024-07-24T09:28:50.000Z</time>
</trkpt>
<trkpt lat="46.0445250" lon="10.3841010">
	<ele>1656.80</ele>
	<time>2024-07-24T09:28:51.000Z</time>
</trkpt>
<trkpt lat="46.0445250" lon="10.3841010">
	<ele>1656.80</ele>
	<time>2024-07-24T09:28:52.000Z</time>
</trkpt>
<trkpt lat="46.0445250" lon="10.3841010">
	<ele>1656.80</ele>
	<time>2024-07-24T09:28:53.000Z</time>
</trkpt>
<trkpt lat="46.0445250" lon="10.3841010">
	<ele>1656.80</ele>
	<time>2024-07-24T09:28:54.000Z</time>
</trkpt>
<trkpt lat="46.0445250" lon="10.3841010">
	<ele>1656.80</ele>
	<time>2024-07-24T09:28:55.000Z</time>
</trkpt>
<trkpt lat="46.0445250" lon="10.3841010">
	<ele>1656.80</ele>
	<time>2024-07-24T09:28:56.000Z</time>
</trkpt>
<trkpt lat="46.0445250" lon="10.3841010">
	<ele>1656.80</ele>
	<time>2024-07-24T09:28:57.000Z</time>
</trkpt>
<trkpt lat="46.0445250" lon="10.3841010">
	<ele>1656.80</ele>
	<time>2024-07-24T09:28:58.000Z</time>
</trkpt>
<trkpt lat="46.0445250" lon="10.3841010">
	<ele>1656.80</ele>
	<time>2024-07-24T09:28:59.000Z</time>
</trkpt>
<trkpt lat="46.0445250" lon="10.3841010">
	<ele>1656.80</ele>
	<time>2024-07-24T09:29:00.000Z</time>
</trkpt>
<trkpt lat="46.0445250" lon="10.3841010">
	<ele>1656.80</ele>
	<time>2024-07-24T09:29:01.000Z</time>
</trkpt>
<trkpt lat="46.0445250" lon="10.3841010">
	<ele>1656.80</ele>
	<time>2024-07-24T09:29:02.000Z</time>
</trkpt>
<trkpt lat="46.0445250" lon="10.3841010">
	<ele>1656.80</ele>
	<time>2024-07-24T09:29:03.000Z</time>
</trkpt>
<trkpt lat="46.0445250" lon="10.3841010">
	<ele>1656.80</ele>
	<time>2024-07-24T09:29:04.000Z</time>
</trkpt>
<trkpt lat="46.0445250" lon="10.3841010">
	<ele>1656.80</ele>
	<time>2024-07-24T09:29:05.000Z</time>
</trkpt>
<trkpt lat="46.0445250" lon="10.3841010">
	<ele>1656.80</ele>
	<time>2024-07-24T09:29:06.000Z</time>
</trkpt>
<trkpt lat="46.0445250" lon="10.3841010">
	<ele>1656.80</ele>
	<time>2024-07-24T09:29:07.000Z</time>
</trkpt>
<trkpt lat="46.0445250" lon="10.3841010">
	<ele>1656.80</ele>
	<time>2024-07-24T09:29:08.000Z</time>
</trkpt>
<trkpt lat="46.0445250" lon="10.3841010">
	<ele>1656.80</ele>
	<time>2024-07-24T09:29:09.000Z</time>
</trkpt>
<trkpt lat="46.0445250" lon="10.3841010">
	<ele>1656.80</ele>
	<time>2024-07-24T09:29:10.000Z</time>
</trkpt>
<trkpt lat="46.0445250" lon="10.3841010">
	<ele>1656.80</ele>
	<time>2024-07-24T09:29:11.000Z</time>
</trkpt>
<trkpt lat="46.0445250" lon="10.3841010">
	<ele>1656.80</ele>
	<time>2024-07-24T09:29:12.000Z</time>
</trkpt>
<trkpt lat="46.0445250" lon="10.3841010">
	<ele>1656.80</ele>
	<time>2024-07-24T09:29:13.000Z</time>
</trkpt>
<trkpt lat="46.0445250" lon="10.3841010">
	<ele>1656.80</ele>
	<time>2024-07-24T09:29:14.000Z</time>
</trkpt>
<trkpt lat="46.0445250" lon="10.3841010">
	<ele>1656.80</ele>
	<time>2024-07-24T09:29:15.000Z</time>
</trkpt>
<trkpt lat="46.0445250" lon="10.3841010">
	<ele>1656.80</ele>
	<time>2024-07-24T09:29:16.000Z</time>
</trkpt>
<trkpt lat="46.0445250" lon="10.3841010">
	<ele>1656.80</ele>
	<time>2024-07-24T09:29:17.000Z</time>
</trkpt>
<trkpt lat="46.0445250" lon="10.3841010">
	<ele>1656.80</ele>
	<time>2024-07-24T09:29:18.000Z</time>
</trkpt>
<trkpt lat="46.0445250" lon="10.3841010">
	<ele>1656.80</ele>
	<time>2024-07-24T09:29:19.000Z</time>
</trkpt>
<trkpt lat="46.0445250" lon="10.3841010">
	<ele>1656.80</ele>
	<time>2024-07-24T09:29:20.000Z</time>
</trkpt>
<trkpt lat="46.0445250" lon="10.3841010">
	<ele>1656.80</ele>
	<time>2024-07-24T09:29:21.000Z</time>
</trkpt>
<trkpt lat="46.0445250" lon="10.3841010">
	<ele>1656.80</ele>
	<time>2024-07-24T09:29:22.000Z</time>
</trkpt>
<trkpt lat="46.0445250" lon="10.3841010">
	<ele>1656.80</ele>
	<time>2024-07-24T09:29:23.000Z</time>
</trkpt>
<trkpt lat="46.0445250" lon="10.3841010">
	<ele>1656.80</ele>
	<time>2024-07-24T09:29:24.000Z</time>
</trkpt>
<trkpt lat="46.0445250" lon="10.3841010">
	<ele>1656.80</ele>
	<time>2024-07-24T09:29:25.000Z</time>
</trkpt>
<trkpt lat="46.0445250" lon="10.3841010">
	<ele>1656.80</ele>
	<time>2024-07-24T09:29:26.000Z</time>
</trkpt>
<trkpt lat="46.0445250" lon="10.3841010">
	<ele>1656.80</ele>
	<time>2024-07-24T09:29:27.000Z</time>
</trkpt>
<trkpt lat="46.0445250" lon="10.3841010">
	<ele>1656.80</ele>
	<time>2024-07-24T09:29:28.000Z</time>
</trkpt>
<trkpt lat="46.0445250" lon="10.3841010">
	<ele>1656.80</ele>
	<time>2024-07-24T09:29:29.000Z</time>
</trkpt>
<trkpt lat="46.0445250" lon="10.3841010">
	<ele>1656.80</ele>
	<time>2024-07-24T09:29:30.000Z</time>
</trkpt>
<trkpt lat="46.0445250" lon="10.3841010">
	<ele>1656.80</ele>
	<time>2024-07-24T09:29:31.000Z</time>
</trkpt>
<trkpt lat="46.0445250" lon="10.3841010">
	<ele>1656.80</ele>
	<time>2024-07-24T09:29:32.000Z</time>
</trkpt>
<trkpt lat="46.0445250" lon="10.3841010">
	<ele>1656.80</ele>
	<time>2024-07-24T09:29:33.000Z</time>
</trkpt>
<trkpt lat="46.0445250" lon="10.3841010">
	<ele>1656.80</ele>
	<time>2024-07-24T09:29:34.000Z</time>
</trkpt>
<trkpt lat="46.0445250" lon="10.3841010">
	<ele>1656.80</ele>
	<time>2024-07-24T09:29:35.000Z</time>
</trkpt>
<trkpt lat="46.0445250" lon="10.3841010">
	<ele>1656.80</ele>
	<time>2024-07-24T09:29:36.000Z</time>
</trkpt>
<trkpt lat="46.0445250" lon="10.3841010">
	<ele>1656.80</ele>
	<time>2024-07-24T09:29:37.000Z</time>
</trkpt>
<trkpt lat="46.0445250" lon="10.3841010">
	<ele>1656.80</ele>
	<time>2024-07-24T09:29:38.000Z</time>
</trkpt>
<trkpt lat="46.0445250" lon="10.3841010">
	<ele>1656.80</ele>
	<time>2024-07-24T09:29:39.000Z</time>
</trkpt>
<trkpt lat="46.0445250" lon="10.3841010">
	<ele>1656.80</ele>
	<time>2024-07-24T09:29:40.000Z</time>
</trkpt>
<trkpt lat="46.0445250" lon="10.3841010">
	<ele>1656.80</ele>
	<time>2024-07-24T09:29:41.000Z</time>
</trkpt>
<trkpt lat="46.0445250" lon="10.3841010">
	<ele>1656.80</ele>
	<time>2024-07-24T09:29:42.000Z</time>
</trkpt>
<trkpt lat="46.0445250" lon="10.3841010">
	<ele>1656.80</ele>
	<time>2024-07-24T09:29:43.000Z</time>
</trkpt>
<trkpt lat="46.0445250" lon="10.3841010">
	<ele>1656.80</ele>
	<time>2024-07-24T09:29:44.000Z</time>
</trkpt>
<trkpt lat="46.0445250" lon="10.3841010">
	<ele>1656.80</ele>
	<time>2024-07-24T09:29:45.000Z</time>
</trkpt>
<trkpt lat="46.0445250" lon="10.3841010">
	<ele>1656.80</ele>
	<time>2024-07-24T09:29:46.000Z</time>
</trkpt>
<trkpt lat="46.0445250" lon="10.3841010">
	<ele>1656.80</ele>
	<time>2024-07-24T09:29:47.000Z</time>
</trkpt>
<trkpt lat="46.0445250" lon="10.3841010">
	<ele>1656.80</ele>
	<time>2024-07-24T09:29:48.000Z</time>
</trkpt>
<trkpt lat="46.0445250" lon="10.3841010">
	<ele>1656.80</ele>
	<time>2024-07-24T09:29:49.000Z</time>
</trkpt>
<trkpt lat="46.0445250" lon="10.3841010">
	<ele>1656.80</ele>
	<time>2024-07-24T09:29:50.000Z</time>
</trkpt>
<trkpt lat="46.0445250" lon="10.3841010">
	<ele>1656.80</ele>
	<time>2024-07-24T09:29:51.000Z</time>
</trkpt>
<trkpt lat="46.0445250" lon="10.3841010">
	<ele>1656.80</ele>
	<time>2024-07-24T09:29:52.000Z</time>
</trkpt>
<trkpt lat="46.0445250" lon="10.3841010">
	<ele>1656.80</ele>
	<time>2024-07-24T09:29:53.000Z</time>
</trkpt>
<trkpt lat="46.0445250" lon="10.3841010">
	<ele>1656.80</ele>
	<time>2024-07-24T09:29:54.000Z</time>
</trkpt>
<trkpt lat="46.0445250" lon="10.3841010">
	<ele>1656.80</ele>
	<time>2024-07-24T09:29:55.000Z</time>
</trkpt>
<trkpt lat="46.0445250" lon="10.3841010">
	<ele>1656.80</ele>
	<time>2024-07-24T09:29:56.000Z</time>
</trkpt>
<trkpt lat="46.0445250" lon="10.3841010">
	<ele>1656.80</ele>
	<time>2024-07-24T09:29:57.000Z</time>
</trkpt>
<trkpt lat="46.0445250" lon="10.3841010">
	<ele>1656.80</ele>
	<time>2024-07-24T09:29:58.000Z</time>
</trkpt>
<trkpt lat="46.0445250" lon="10.3841010">
	<ele>1656.80</ele>
	<time>2024-07-24T09:29:59.000Z</time>
</trkpt>
<trkpt lat="46.0445250" lon="10.3841010">
	<ele>1656.80</ele>
	<time>2024-07-24T09:30:00.000Z</time>
</trkpt>
<trkpt lat="46.0445250" lon="10.3841010">
	<ele>1656.80</ele>
	<time>2024-07-24T09:30:01.000Z</time>
</trkpt>
<trkpt lat="46.0445250" lon="10.3841010">
	<ele>1656.80</ele>
	<time>2024-07-24T09:30:02.000Z</time>
</trkpt>
<trkpt lat="46.0445250" lon="10.3841010">
	<ele>1656.80</ele>
	<time>2024-07-24T09:30:03.000Z</time>
</trkpt>
<trkpt lat="46.0445250" lon="10.3841010">
	<ele>1656.80</ele>
	<time>2024-07-24T09:30:04.000Z</time>
</trkpt>
<trkpt lat="46.0445250" lon="10.3841010">
	<ele>1656.80</ele>
	<time>2024-07-24T09:30:05.000Z</time>
</trkpt>
<trkpt lat="46.0445250" lon="10.3841010">
	<ele>1656.80</ele>
	<time>2024-07-24T09:30:06.000Z</time>
</trkpt>
<trkpt lat="46.0445250" lon="10.3841010">
	<ele>1656.80</ele>
	<time>2024-07-24T09:30:07.000Z</time>
</trkpt>
<trkpt lat="46.0445260" lon="10.3841010">
	<ele>1656.80</ele>
	<time>2024-07-24T09:30:08.000Z</time>
</trkpt>
<trkpt lat="46.0445260" lon="10.3841010">
	<ele>1656.80</ele>
	<time>2024-07-24T09:30:09.000Z</time>
</trkpt>
<trkpt lat="46.0445260" lon="10.3841010">
	<ele>1656.80</ele>
	<time>2024-07-24T09:30:10.000Z</time>
</trkpt>
<trkpt lat="46.0445260" lon="10.3841010">
	<ele>1656.80</ele>
	<time>2024-07-24T09:30:11.000Z</time>
</trkpt>
<trkpt lat="46.0445260" lon="10.3841010">
	<ele>1656.80</ele>
	<time>2024-07-24T09:30:12.000Z</time>
</trkpt>
<trkpt lat="46.0445260" lon="10.3841010">
	<ele>1656.80</ele>
	<time>2024-07-24T09:30:13.000Z</time>
</trkpt>
<trkpt lat="46.0445260" lon="10.3841010">
	<ele>1656.80</ele>
	<time>2024-07-24T09:30:14.000Z</time>
</trkpt>
<trkpt lat="46.0445260" lon="10.3841010">
	<ele>1656.80</ele>
	<time>2024-07-24T09:30:15.000Z</time>
</trkpt>
<trkpt lat="46.0445260" lon="10.3841010">
	<ele>1656.80</ele>
	<time>2024-07-24T09:30:16.000Z</time>
</trkpt>
<trkpt lat="46.0445260" lon="10.3841010">
	<ele>1656.80</ele>
	<time>2024-07-24T09:30:17.000Z</time>
</trkpt>
<trkpt lat="46.0445260" lon="10.3841010">
	<ele>1656.80</ele>
	<time>2024-07-24T09:30:18.000Z</time>
</trkpt>
<trkpt lat="46.0445260" lon="10.3841010">
	<ele>1656.80</ele>
	<time>2024-07-24T09:30:19.000Z</time>
</trkpt>
<trkpt lat="46.0445260" lon="10.3841010">
	<ele>1656.80</ele>
	<time>2024-07-24T09:30:20.000Z</time>
</trkpt>
<trkpt lat="46.0445260" lon="10.3841010">
	<ele>1656.80</ele>
	<time>2024-07-24T09:30:21.000Z</time>
</trkpt>
<trkpt lat="46.0445260" lon="10.3841010">
	<ele>1656.80</ele>
	<time>2024-07-24T09:30:22.000Z</time>
</trkpt>
<trkpt lat="46.0445260" lon="10.3841010">
	<ele>1656.80</ele>
	<time>2024-07-24T09:30:23.000Z</time>
</trkpt>
<trkpt lat="46.0445260" lon="10.3841010">
	<ele>1656.80</ele>
	<time>2024-07-24T09:30:24.000Z</time>
</trkpt>
<trkpt lat="46.0445260" lon="10.3841010">
	<ele>1656.80</ele>
	<time>2024-07-24T09:30:25.000Z</time>
</trkpt>
<trkpt lat="46.0445260" lon="10.3841010">
	<ele>1656.80</ele>
	<time>2024-07-24T09:30:26.000Z</time>
</trkpt>
<trkpt lat="46.0445260" lon="10.3841010">
	<ele>1656.80</ele>
	<time>2024-07-24T09:30:27.000Z</time>
</trkpt>
<trkpt lat="46.0445260" lon="10.3841010">
	<ele>1656.80</ele>
	<time>2024-07-24T09:30:28.000Z</time>
</trkpt>
<trkpt lat="46.0445260" lon="10.3841010">
	<ele>1656.80</ele>
	<time>2024-07-24T09:30:29.000Z</time>
</trkpt>
<trkpt lat="46.0445260" lon="10.3841010">
	<ele>1656.80</ele>
	<time>2024-07-24T09:30:30.000Z</time>
</trkpt>
<trkpt lat="46.0445260" lon="10.3841010">
	<ele>1656.80</ele>
	<time>2024-07-24T09:30:31.000Z</time>
</trkpt>
<trkpt lat="46.0445260" lon="10.3841010">
	<ele>1656.80</ele>
	<time>2024-07-24T09:30:32.000Z</time>
</trkpt>
<trkpt lat="46.0445260" lon="10.3841010">
	<ele>1656.80</ele>
	<time>2024-07-24T09:30:33.000Z</time>
</trkpt>
<trkpt lat="46.0445260" lon="10.3841010">
	<ele>1656.80</ele>
	<time>2024-07-24T09:30:34.000Z</time>
</trkpt>
<trkpt lat="46.0445260" lon="10.3841010">
	<ele>1656.80</ele>
	<time>2024-07-24T09:30:35.000Z</time>
</trkpt>
<trkpt lat="46.0445260" lon="10.3841010">
	<ele>1656.80</ele>
	<time>2024-07-24T09:30:36.000Z</time>
</trkpt>
<trkpt lat="46.0445260" lon="10.3841010">
	<ele>1656.80</ele>
	<time>2024-07-24T09:30:37.000Z</time>
</trkpt>
<trkpt lat="46.0445260" lon="10.3841010">
	<ele>1656.80</ele>
	<time>2024-07-24T09:30:38.000Z</time>
</trkpt>
<trkpt lat="46.0445260" lon="10.3841010">
	<ele>1656.80</ele>
	<time>2024-07-24T09:30:39.000Z</time>
</trkpt>
<trkpt lat="46.0445260" lon="10.3841010">
	<ele>1656.80</ele>
	<time>2024-07-24T09:30:40.000Z</time>
</trkpt>
<trkpt lat="46.0445260" lon="10.3841010">
	<ele>1656.80</ele>
	<time>2024-07-24T09:30:41.000Z</time>
</trkpt>
<trkpt lat="46.0445260" lon="10.3841010">
	<ele>1656.80</ele>
	<time>2024-07-24T09:30:42.000Z</time>
</trkpt>
<trkpt lat="46.0445260" lon="10.3841010">
	<ele>1656.80</ele>
	<time>2024-07-24T09:30:43.000Z</time>
</trkpt>
<trkpt lat="46.0445260" lon="10.3841010">
	<ele>1656.80</ele>
	<time>2024-07-24T09:30:44.000Z</time>
</trkpt>
<trkpt lat="46.0445260" lon="10.3841010">
	<ele>1656.80</ele>
	<time>2024-07-24T09:30:45.000Z</time>
</trkpt>
<trkpt lat="46.0445260" lon="10.3841010">
	<ele>1656.80</ele>
	<time>2024-07-24T09:30:46.000Z</time>
</trkpt>
<trkpt lat="46.0445260" lon="10.3841010">
	<ele>1656.80</ele>
	<time>2024-07-24T09:30:47.000Z</time>
</trkpt>
<trkpt lat="46.0445260" lon="10.3841010">
	<ele>1656.80</ele>
	<time>2024-07-24T09:30:48.000Z</time>
</trkpt>
<trkpt lat="46.0445260" lon="10.3841010">
	<ele>1656.80</ele>
	<time>2024-07-24T09:30:49.000Z</time>
</trkpt>
<trkpt lat="46.0445260" lon="10.3841010">
	<ele>1656.80</ele>
	<time>2024-07-24T09:30:50.000Z</time>
</trkpt>
<trkpt lat="46.0445260" lon="10.3841010">
	<ele>1656.80</ele>
	<time>2024-07-24T09:30:51.000Z</time>
</trkpt>
<trkpt lat="46.0445260" lon="10.3841010">
	<ele>1656.80</ele>
	<time>2024-07-24T09:30:52.000Z</time>
</trkpt>
<trkpt lat="46.0445260" lon="10.3841010">
	<ele>1656.80</ele>
	<time>2024-07-24T09:30:53.000Z</time>
</trkpt>
<trkpt lat="46.0445260" lon="10.3841010">
	<ele>1656.80</ele>
	<time>2024-07-24T09:30:54.000Z</time>
</trkpt>
<trkpt lat="46.0445260" lon="10.3841010">
	<ele>1656.80</ele>
	<time>2024-07-24T09:30:55.000Z</time>
</trkpt>
<trkpt lat="46.0445260" lon="10.3841010">
	<ele>1656.80</ele>
	<time>2024-07-24T09:30:56.000Z</time>
</trkpt>
<trkpt lat="46.0445260" lon="10.3841010">
	<ele>1656.80</ele>
	<time>2024-07-24T09:30:57.000Z</time>
</trkpt>
<trkpt lat="46.0445260" lon="10.3841010">
	<ele>1656.80</ele>
	<time>2024-07-24T09:30:58.000Z</time>
</trkpt>
<trkpt lat="46.0445260" lon="10.3841010">
	<ele>1656.80</ele>
	<time>2024-07-24T09:30:59.000Z</time>
</trkpt>
<trkpt lat="46.0445260" lon="10.3841010">
	<ele>1656.80</ele>
	<time>2024-07-24T09:31:00.000Z</time>
</trkpt>
<trkpt lat="46.0445260" lon="10.3841010">
	<ele>1656.80</ele>
	<time>2024-07-24T09:31:01.000Z</time>
</trkpt>
<trkpt lat="46.0445260" lon="10.3841010">
	<ele>1656.80</ele>
	<time>2024-07-24T09:31:02.000Z</time>
</trkpt>
<trkpt lat="46.0445260" lon="10.3841010">
	<ele>1656.80</ele>
	<time>2024-07-24T09:31:03.000Z</time>
</trkpt>
<trkpt lat="46.0445260" lon="10.3841010">
	<ele>1656.80</ele>
	<time>2024-07-24T09:31:04.000Z</time>
</trkpt>
<trkpt lat="46.0445260" lon="10.3841010">
	<ele>1656.80</ele>
	<time>2024-07-24T09:31:05.000Z</time>
</trkpt>
<trkpt lat="46.0445260" lon="10.3841010">
	<ele>1656.80</ele>
	<time>2024-07-24T09:31:06.000Z</time>
</trkpt>
<trkpt lat="46.0445260" lon="10.3841010">
	<ele>1656.80</ele>
	<time>2024-07-24T09:31:07.000Z</time>
</trkpt>
<trkpt lat="46.0445260" lon="10.3841010">
	<ele>1656.80</ele>
	<time>2024-07-24T09:31:08.000Z</time>
</trkpt>
<trkpt lat="46.0445260" lon="10.3841010">
	<ele>1656.80</ele>
	<time>2024-07-24T09:31:09.000Z</time>
</trkpt>
<trkpt lat="46.0445260" lon="10.3841010">
	<ele>1656.80</ele>
	<time>2024-07-24T09:31:10.000Z</time>
</trkpt>
<trkpt lat="46.0445260" lon="10.3841010">
	<ele>1656.80</ele>
	<time>2024-07-24T09:31:11.000Z</time>
</trkpt>
<trkpt lat="46.0445260" lon="10.3841010">
	<ele>1656.80</ele>
	<time>2024-07-24T09:31:12.000Z</time>
</trkpt>
<trkpt lat="46.0445260" lon="10.3841010">
	<ele>1656.80</ele>
	<time>2024-07-24T09:31:13.000Z</time>
</trkpt>
<trkpt lat="46.0445260" lon="10.3841010">
	<ele>1656.80</ele>
	<time>2024-07-24T09:31:14.000Z</time>
</trkpt>
<trkpt lat="46.0445260" lon="10.3841010">
	<ele>1656.80</ele>
	<time>2024-07-24T09:31:15.000Z</time>
</trkpt>
<trkpt lat="46.0445260" lon="10.3841010">
	<ele>1656.80</ele>
	<time>2024-07-24T09:31:16.000Z</time>
</trkpt>
<trkpt lat="46.0445260" lon="10.3841010">
	<ele>1656.80</ele>
	<time>2024-07-24T09:31:17.000Z</time>
</trkpt>
<trkpt lat="46.0445260" lon="10.3841010">
	<ele>1656.80</ele>
	<time>2024-07-24T09:31:18.000Z</time>
</trkpt>
<trkpt lat="46.0445260" lon="10.3841010">
	<ele>1656.80</ele>
	<time>2024-07-24T09:31:19.000Z</time>
</trkpt>
<trkpt lat="46.0445260" lon="10.3841010">
	<ele>1656.80</ele>
	<time>2024-07-24T09:31:20.000Z</time>
</trkpt>
<trkpt lat="46.0445260" lon="10.3841010">
	<ele>1656.80</ele>
	<time>2024-07-24T09:31:21.000Z</time>
</trkpt>
<trkpt lat="46.0445260" lon="10.3841010">
	<ele>1656.80</ele>
	<time>2024-07-24T09:31:22.000Z</time>
</trkpt>
<trkpt lat="46.0445260" lon="10.3841010">
	<ele>1656.80</ele>
	<time>2024-07-24T09:31:23.000Z</time>
</trkpt>
<trkpt lat="46.0445260" lon="10.3841010">
	<ele>1656.80</ele>
	<time>2024-07-24T09:31:24.000Z</time>
</trkpt>
<trkpt lat="46.0445260" lon="10.3841010">
	<ele>1656.80</ele>
	<time>2024-07-24T09:31:25.000Z</time>
</trkpt>
<trkpt lat="46.0445260" lon="10.3841010">
	<ele>1656.80</ele>
	<time>2024-07-24T09:31:26.000Z</time>
</trkpt>
<trkpt lat="46.0445260" lon="10.3841010">
	<ele>1656.80</ele>
	<time>2024-07-24T09:31:27.000Z</time>
</trkpt>
<trkpt lat="46.0445260" lon="10.3841010">
	<ele>1656.80</ele>
	<time>2024-07-24T09:31:28.000Z</time>
</trkpt>
<trkpt lat="46.0445260" lon="10.3841010">
	<ele>1656.80</ele>
	<time>2024-07-24T09:31:29.000Z</time>
</trkpt>
<trkpt lat="46.0445260" lon="10.3841010">
	<ele>1656.80</ele>
	<time>2024-07-24T09:31:30.000Z</time>
</trkpt>
<trkpt lat="46.0445260" lon="10.3841010">
	<ele>1656.80</ele>
	<time>2024-07-24T09:31:31.000Z</time>
</trkpt>
<trkpt lat="46.0445260" lon="10.3841010">
	<ele>1656.80</ele>
	<time>2024-07-24T09:31:32.000Z</time>
</trkpt>
<trkpt lat="46.0445260" lon="10.3841010">
	<ele>1656.80</ele>
	<time>2024-07-24T09:31:33.000Z</time>
</trkpt>
<trkpt lat="46.0445260" lon="10.3841010">
	<ele>1656.80</ele>
	<time>2024-07-24T09:31:34.000Z</time>
</trkpt>
<trkpt lat="46.0445260" lon="10.3841010">
	<ele>1656.80</ele>
	<time>2024-07-24T09:31:35.000Z</time>
</trkpt>
<trkpt lat="46.0445260" lon="10.3841010">
	<ele>1656.80</ele>
	<time>2024-07-24T09:31:36.000Z</time>
</trkpt>
<trkpt lat="46.0445260" lon="10.3841010">
	<ele>1656.80</ele>
	<time>2024-07-24T09:31:37.000Z</time>
</trkpt>
<trkpt lat="46.0445260" lon="10.3841010">
	<ele>1656.80</ele>
	<time>2024-07-24T09:31:38.000Z</time>
</trkpt>
<trkpt lat="46.0445260" lon="10.3841010">
	<ele>1656.80</ele>
	<time>2024-07-24T09:31:39.000Z</time>
</trkpt>
<trkpt lat="46.0445260" lon="10.3841010">
	<ele>1656.80</ele>
	<time>2024-07-24T09:31:40.000Z</time>
</trkpt>
<trkpt lat="46.0445260" lon="10.3841010">
	<ele>1656.80</ele>
	<time>2024-07-24T09:31:41.000Z</time>
</trkpt>
<trkpt lat="46.0445260" lon="10.3841010">
	<ele>1656.80</ele>
	<time>2024-07-24T09:31:42.000Z</time>
</trkpt>
<trkpt lat="46.0445260" lon="10.3841010">
	<ele>1656.80</ele>
	<time>2024-07-24T09:31:43.000Z</time>
</trkpt>
<trkpt lat="46.0445260" lon="10.3841010">
	<ele>1656.80</ele>
	<time>2024-07-24T09:31:44.000Z</time>
</trkpt>
<trkpt lat="46.0445260" lon="10.3841010">
	<ele>1656.80</ele>
	<time>2024-07-24T09:31:45.000Z</time>
</trkpt>
<trkpt lat="46.0445260" lon="10.3841010">
	<ele>1656.80</ele>
	<time>2024-07-24T09:31:46.000Z</time>
</trkpt>
<trkpt lat="46.0445260" lon="10.3841010">
	<ele>1656.80</ele>
	<time>2024-07-24T09:31:47.000Z</time>
</trkpt>
<trkpt lat="46.0445260" lon="10.3841010">
	<ele>1656.80</ele>
	<time>2024-07-24T09:31:48.000Z</time>
</trkpt>
<trkpt lat="46.0445260" lon="10.3841010">
	<ele>1656.80</ele>
	<time>2024-07-24T09:31:49.000Z</time>
</trkpt>
<trkpt lat="46.0445260" lon="10.3841010">
	<ele>1656.80</ele>
	<time>2024-07-24T09:31:50.000Z</time>
</trkpt>
<trkpt lat="46.0445260" lon="10.3841010">
	<ele>1656.80</ele>
	<time>2024-07-24T09:31:51.000Z</time>
</trkpt>
<trkpt lat="46.0445260" lon="10.3841010">
	<ele>1656.80</ele>
	<time>2024-07-24T09:31:52.000Z</time>
</trkpt>
<trkpt lat="46.0445260" lon="10.3841010">
	<ele>1656.80</ele>
	<time>2024-07-24T09:31:53.000Z</time>
</trkpt>
<trkpt lat="46.0445260" lon="10.3841010">
	<ele>1656.80</ele>
	<time>2024-07-24T09:31:54.000Z</time>
</trkpt>
<trkpt lat="46.0445260" lon="10.3841010">
	<ele>1656.80</ele>
	<time>2024-07-24T09:31:55.000Z</time>
</trkpt>
<trkpt lat="46.0445260" lon="10.3841010">
	<ele>1656.80</ele>
	<time>2024-07-24T09:31:56.000Z</time>
</trkpt>
<trkpt lat="46.0445260" lon="10.3841010">
	<ele>1656.80</ele>
	<time>2024-07-24T09:31:57.000Z</time>
</trkpt>
<trkpt lat="46.0445260" lon="10.3841010">
	<ele>1656.80</ele>
	<time>2024-07-24T09:31:58.000Z</time>
</trkpt>
<trkpt lat="46.0445260" lon="10.3841010">
	<ele>1656.80</ele>
	<time>2024-07-24T09:31:59.000Z</time>
</trkpt>
<trkpt lat="46.0445260" lon="10.3841010">
	<ele>1656.80</ele>
	<time>2024-07-24T09:32:00.000Z</time>
</trkpt>
<trkpt lat="46.0445260" lon="10.3841010">
	<ele>1656.80</ele>
	<time>2024-07-24T09:32:01.000Z</time>
</trkpt>
<trkpt lat="46.0445260" lon="10.3841010">
	<ele>1656.80</ele>
	<time>2024-07-24T09:32:02.000Z</time>
</trkpt>
<trkpt lat="46.0445260" lon="10.3841010">
	<ele>1656.80</ele>
	<time>2024-07-24T09:32:03.000Z</time>
</trkpt>
<trkpt lat="46.0445260" lon="10.3841010">
	<ele>1656.80</ele>
	<time>2024-07-24T09:32:04.000Z</time>
</trkpt>
<trkpt lat="46.0445260" lon="10.3841010">
	<ele>1656.80</ele>
	<time>2024-07-24T09:32:05.000Z</time>
</trkpt>
<trkpt lat="46.0445260" lon="10.3841010">
	<ele>1656.80</ele>
	<time>2024-07-24T09:32:06.000Z</time>
</trkpt>
<trkpt lat="46.0445260" lon="10.3841010">
	<ele>1656.80</ele>
	<time>2024-07-24T09:32:07.000Z</time>
</trkpt>
<trkpt lat="46.0445260" lon="10.3841010">
	<ele>1656.80</ele>
	<time>2024-07-24T09:32:08.000Z</time>
</trkpt>
<trkpt lat="46.0445260" lon="10.3841010">
	<ele>1656.80</ele>
	<time>2024-07-24T09:32:09.000Z</time>
</trkpt>
<trkpt lat="46.0445260" lon="10.3841010">
	<ele>1656.80</ele>
	<time>2024-07-24T09:32:10.000Z</time>
</trkpt>
<trkpt lat="46.0445260" lon="10.3841010">
	<ele>1656.80</ele>
	<time>2024-07-24T09:32:11.000Z</time>
</trkpt>
<trkpt lat="46.0445260" lon="10.3841010">
	<ele>1656.80</ele>
	<time>2024-07-24T09:32:12.000Z</time>
</trkpt>
<trkpt lat="46.0445260" lon="10.3841010">
	<ele>1656.80</ele>
	<time>2024-07-24T09:32:13.000Z</time>
</trkpt>
<trkpt lat="46.0445260" lon="10.3841010">
	<ele>1656.80</ele>
	<time>2024-07-24T09:32:14.000Z</time>
</trkpt>
<trkpt lat="46.0445260" lon="10.3841010">
	<ele>1656.80</ele>
	<time>2024-07-24T09:32:15.000Z</time>
</trkpt>
<trkpt lat="46.0445260" lon="10.3841010">
	<ele>1656.80</ele>
	<time>2024-07-24T09:32:16.000Z</time>
</trkpt>
<trkpt lat="46.0445270" lon="10.3841010">
	<ele>1656.80</ele>
	<time>2024-07-24T09:32:17.000Z</time>
</trkpt>
<trkpt lat="46.0445270" lon="10.3841010">
	<ele>1656.80</ele>
	<time>2024-07-24T09:32:18.000Z</time>
</trkpt>
<trkpt lat="46.0445270" lon="10.3841010">
	<ele>1656.80</ele>
	<time>2024-07-24T09:32:19.000Z</time>
</trkpt>
<trkpt lat="46.0445270" lon="10.3841010">
	<ele>1656.80</ele>
	<time>2024-07-24T09:32:20.000Z</time>
</trkpt>
<trkpt lat="46.0445270" lon="10.3841010">
	<ele>1656.80</ele>
	<time>2024-07-24T09:32:21.000Z</time>
</trkpt>
<trkpt lat="46.0445270" lon="10.3841010">
	<ele>1656.80</ele>
	<time>2024-07-24T09:32:22.000Z</time>
</trkpt>
<trkpt lat="46.0445270" lon="10.3841010">
	<ele>1656.80</ele>
	<time>2024-07-24T09:32:23.000Z</time>
</trkpt>
<trkpt lat="46.0445270" lon="10.3841010">
	<ele>1656.80</ele>
	<time>2024-07-24T09:32:24.000Z</time>
</trkpt>
<trkpt lat="46.0445270" lon="10.3841010">
	<ele>1656.80</ele>
	<time>2024-07-24T09:32:25.000Z</time>
</trkpt>
<trkpt lat="46.0445270" lon="10.3841010">
	<ele>1656.80</ele>
	<time>2024-07-24T09:32:26.000Z</time>
</trkpt>
<trkpt lat="46.0445270" lon="10.3841010">
	<ele>1656.80</ele>
	<time>2024-07-24T09:32:27.000Z</time>
</trkpt>
<trkpt lat="46.0445270" lon="10.3841010">
	<ele>1656.80</ele>
	<time>2024-07-24T09:32:28.000Z</time>
</trkpt>
<trkpt lat="46.0445270" lon="10.3841010">
	<ele>1656.80</ele>
	<time>2024-07-24T09:32:29.000Z</time>
</trkpt>
<trkpt lat="46.0445270" lon="10.3841010">
	<ele>1656.80</ele>
	<time>2024-07-24T09:32:30.000Z</time>
</trkpt>
<trkpt lat="46.0445270" lon="10.3841010">
	<ele>1656.80</ele>
	<time>2024-07-24T09:32:31.000Z</time>
</trkpt>
<trkpt lat="46.0445270" lon="10.3841010">
	<ele>1656.80</ele>
	<time>2024-07-24T09:32:32.000Z</time>
</trkpt>
<trkpt lat="46.0445270" lon="10.3841010">
	<ele>1656.80</ele>
	<time>2024-07-24T09:32:33.000Z</time>
</trkpt>
<trkpt lat="46.0445270" lon="10.3841010">
	<ele>1656.80</ele>
	<time>2024-07-24T09:32:34.000Z</time>
</trkpt>
<trkpt lat="46.0445270" lon="10.3841010">
	<ele>1656.80</ele>
	<time>2024-07-24T09:32:35.000Z</time>
</trkpt>
<trkpt lat="46.0445270" lon="10.3841010">
	<ele>1656.80</ele>
	<time>2024-07-24T09:32:36.000Z</time>
</trkpt>
<trkpt lat="46.0445270" lon="10.3841010">
	<ele>1656.80</ele>
	<time>2024-07-24T09:32:37.000Z</time>
</trkpt>
<trkpt lat="46.0445270" lon="10.3841010">
	<ele>1656.80</ele>
	<time>2024-07-24T09:32:38.000Z</time>
</trkpt>
<trkpt lat="46.0445270" lon="10.3841010">
	<ele>1656.80</ele>
	<time>2024-07-24T09:32:39.000Z</time>
</trkpt>
<trkpt lat="46.0445270" lon="10.3841010">
	<ele>1656.80</ele>
	<time>2024-07-24T09:32:40.000Z</time>
</trkpt>
<trkpt lat="46.0445270" lon="10.3841010">
	<ele>1656.80</ele>
	<time>2024-07-24T09:32:41.000Z</time>
</trkpt>
<trkpt lat="46.0445270" lon="10.3841010">
	<ele>1656.80</ele>
	<time>2024-07-24T09:32:42.000Z</time>
</trkpt>
<trkpt lat="46.0445270" lon="10.3841010">
	<ele>1656.80</ele>
	<time>2024-07-24T09:32:43.000Z</time>
</trkpt>
<trkpt lat="46.0445270" lon="10.3841010">
	<ele>1656.80</ele>
	<time>2024-07-24T09:32:44.000Z</time>
</trkpt>
<trkpt lat="46.0445270" lon="10.3841010">
	<ele>1656.80</ele>
	<time>2024-07-24T09:32:45.000Z</time>
</trkpt>
<trkpt lat="46.0445270" lon="10.3841010">
	<ele>1656.80</ele>
	<time>2024-07-24T09:32:46.000Z</time>
</trkpt>
<trkpt lat="46.0445270" lon="10.3841010">
	<ele>1656.80</ele>
	<time>2024-07-24T09:32:47.000Z</time>
</trkpt>
<trkpt lat="46.0445270" lon="10.3841010">
	<ele>1656.80</ele>
	<time>2024-07-24T09:32:48.000Z</time>
</trkpt>
<trkpt lat="46.0445270" lon="10.3841010">
	<ele>1656.80</ele>
	<time>2024-07-24T09:32:49.000Z</time>
</trkpt>
<trkpt lat="46.0445270" lon="10.3841010">
	<ele>1656.80</ele>
	<time>2024-07-24T09:32:50.000Z</time>
</trkpt>
<trkpt lat="46.0445270" lon="10.3841010">
	<ele>1656.80</ele>
	<time>2024-07-24T09:32:51.000Z</time>
</trkpt>
<trkpt lat="46.0445270" lon="10.3841010">
	<ele>1656.80</ele>
	<time>2024-07-24T09:32:52.000Z</time>
</trkpt>
<trkpt lat="46.0445270" lon="10.3841010">
	<ele>1656.80</ele>
	<time>2024-07-24T09:32:53.000Z</time>
</trkpt>
<trkpt lat="46.0445270" lon="10.3841010">
	<ele>1656.80</ele>
	<time>2024-07-24T09:32:54.000Z</time>
</trkpt>
<trkpt lat="46.0445270" lon="10.3841010">
	<ele>1656.80</ele>
	<time>2024-07-24T09:32:55.000Z</time>
</trkpt>
<trkpt lat="46.0445270" lon="10.3841010">
	<ele>1656.80</ele>
	<time>2024-07-24T09:32:56.000Z</time>
</trkpt>
<trkpt lat="46.0445270" lon="10.3841010">
	<ele>1656.80</ele>
	<time>2024-07-24T09:32:57.000Z</time>
</trkpt>
<trkpt lat="46.0445270" lon="10.3841010">
	<ele>1656.80</ele>
	<time>2024-07-24T09:32:58.000Z</time>
</trkpt>
<trkpt lat="46.0445270" lon="10.3841010">
	<ele>1656.80</ele>
	<time>2024-07-24T09:32:59.000Z</time>
</trkpt>
<trkpt lat="46.0445270" lon="10.3841010">
	<ele>1656.80</ele>
	<time>2024-07-24T09:33:00.000Z</time>
</trkpt>
<trkpt lat="46.0445270" lon="10.3841010">
	<ele>1656.80</ele>
	<time>2024-07-24T09:33:01.000Z</time>
</trkpt>
<trkpt lat="46.0445270" lon="10.3841010">
	<ele>1656.80</ele>
	<time>2024-07-24T09:33:02.000Z</time>
</trkpt>
<trkpt lat="46.0445270" lon="10.3841010">
	<ele>1656.80</ele>
	<time>2024-07-24T09:33:03.000Z</time>
</trkpt>
<trkpt lat="46.0445270" lon="10.3841010">
	<ele>1656.80</ele>
	<time>2024-07-24T09:33:04.000Z</time>
</trkpt>
<trkpt lat="46.0445270" lon="10.3841010">
	<ele>1656.80</ele>
	<time>2024-07-24T09:33:05.000Z</time>
</trkpt>
<trkpt lat="46.0445270" lon="10.3841010">
	<ele>1656.80</ele>
	<time>2024-07-24T09:33:06.000Z</time>
</trkpt>
<trkpt lat="46.0445270" lon="10.3841010">
	<ele>1656.80</ele>
	<time>2024-07-24T09:33:07.000Z</time>
</trkpt>
<trkpt lat="46.0445270" lon="10.3841010">
	<ele>1656.80</ele>
	<time>2024-07-24T09:33:08.000Z</time>
</trkpt>
<trkpt lat="46.0445270" lon="10.3841010">
	<ele>1656.80</ele>
	<time>2024-07-24T09:33:09.000Z</time>
</trkpt>
<trkpt lat="46.0445270" lon="10.3841010">
	<ele>1656.80</ele>
	<time>2024-07-24T09:33:10.000Z</time>
</trkpt>
<trkpt lat="46.0445270" lon="10.3841010">
	<ele>1656.80</ele>
	<time>2024-07-24T09:33:11.000Z</time>
</trkpt>
<trkpt lat="46.0445270" lon="10.3841010">
	<ele>1656.80</ele>
	<time>2024-07-24T09:33:12.000Z</time>
</trkpt>
<trkpt lat="46.0445270" lon="10.3841010">
	<ele>1656.80</ele>
	<time>2024-07-24T09:33:13.000Z</time>
</trkpt>
<trkpt lat="46.0445270" lon="10.3841010">
	<ele>1656.80</ele>
	<time>2024-07-24T09:33:14.000Z</time>
</trkpt>
<trkpt lat="46.0445270" lon="10.3841010">
	<ele>1656.80</ele>
	<time>2024-07-24T09:33:15.000Z</time>
</trkpt>
<trkpt lat="46.0445270" lon="10.3841010">
	<ele>1656.80</ele>
	<time>2024-07-24T09:33:16.000Z</time>
</trkpt>
<trkpt lat="46.0445270" lon="10.3841010">
	<ele>1656.80</ele>
	<time>2024-07-24T09:33:17.000Z</time>
</trkpt>
<trkpt lat="46.0445270" lon="10.3841010">
	<ele>1656.80</ele>
	<time>2024-07-24T09:33:18.000Z</time>
</trkpt>
<trkpt lat="46.0445270" lon="10.3841010">
	<ele>1656.80</ele>
	<time>2024-07-24T09:33:19.000Z</time>
</trkpt>
<trkpt lat="46.0445270" lon="10.3841010">
	<ele>1656.80</ele>
	<time>2024-07-24T09:33:20.000Z</time>
</trkpt>
<trkpt lat="46.0445270" lon="10.3841010">
	<ele>1656.80</ele>
	<time>2024-07-24T09:33:21.000Z</time>
</trkpt>
<trkpt lat="46.0445270" lon="10.3841010">
	<ele>1656.80</ele>
	<time>2024-07-24T09:33:22.000Z</time>
</trkpt>
<trkpt lat="46.0445270" lon="10.3841010">
	<ele>1656.80</ele>
	<time>2024-07-24T09:33:23.000Z</time>
</trkpt>
<trkpt lat="46.0445270" lon="10.3841010">
	<ele>1656.80</ele>
	<time>2024-07-24T09:33:24.000Z</time>
</trkpt>
<trkpt lat="46.0445270" lon="10.3841010">
	<ele>1656.80</ele>
	<time>2024-07-24T09:33:25.000Z</time>
</trkpt>
<trkpt lat="46.0445270" lon="10.3841010">
	<ele>1656.80</ele>
	<time>2024-07-24T09:33:26.000Z</time>
</trkpt>
<trkpt lat="46.0445270" lon="10.3841010">
	<ele>1656.80</ele>
	<time>2024-07-24T09:33:27.000Z</time>
</trkpt>
<trkpt lat="46.0445270" lon="10.3841010">
	<ele>1656.80</ele>
	<time>2024-07-24T09:33:28.000Z</time>
</trkpt>
<trkpt lat="46.0445270" lon="10.3841010">
	<ele>1656.80</ele>
	<time>2024-07-24T09:33:29.000Z</time>
</trkpt>
<trkpt lat="46.0445270" lon="10.3841010">
	<ele>1656.80</ele>
	<time>2024-07-24T09:33:30.000Z</time>
</trkpt>
<trkpt lat="46.0445270" lon="10.3841010">
	<ele>1656.80</ele>
	<time>2024-07-24T09:33:31.000Z</time>
</trkpt>
<trkpt lat="46.0445270" lon="10.3841010">
	<ele>1656.80</ele>
	<time>2024-07-24T09:33:32.000Z</time>
</trkpt>
<trkpt lat="46.0445270" lon="10.3841010">
	<ele>1656.80</ele>
	<time>2024-07-24T09:33:33.000Z</time>
</trkpt>
<trkpt lat="46.0445270" lon="10.3841010">
	<ele>1656.80</ele>
	<time>2024-07-24T09:33:34.000Z</time>
</trkpt>
<trkpt lat="46.0445270" lon="10.3841010">
	<ele>1656.80</ele>
	<time>2024-07-24T09:33:35.000Z</time>
</trkpt>
<trkpt lat="46.0445270" lon="10.3841000">
	<ele>1656.80</ele>
	<time>2024-07-24T09:33:36.000Z</time>
</trkpt>
<trkpt lat="46.0445270" lon="10.3841000">
	<ele>1656.80</ele>
	<time>2024-07-24T09:33:37.000Z</time>
</trkpt>
<trkpt lat="46.0445270" lon="10.3841000">
	<ele>1656.80</ele>
	<time>2024-07-24T09:33:38.000Z</time>
</trkpt>
<trkpt lat="46.0445270" lon="10.3841000">
	<ele>1656.80</ele>
	<time>2024-07-24T09:33:39.000Z</time>
</trkpt>
<trkpt lat="46.0445270" lon="10.3841000">
	<ele>1656.80</ele>
	<time>2024-07-24T09:33:40.000Z</time>
</trkpt>
<trkpt lat="46.0445270" lon="10.3841000">
	<ele>1656.80</ele>
	<time>2024-07-24T09:33:41.000Z</time>
</trkpt>
<trkpt lat="46.0445270" lon="10.3841000">
	<ele>1656.80</ele>
	<time>2024-07-24T09:33:42.000Z</time>
</trkpt>
<trkpt lat="46.0445270" lon="10.3841000">
	<ele>1656.80</ele>
	<time>2024-07-24T09:33:43.000Z</time>
</trkpt>
<trkpt lat="46.0445270" lon="10.3841000">
	<ele>1656.80</ele>
	<time>2024-07-24T09:33:44.000Z</time>
</trkpt>
<trkpt lat="46.0445270" lon="10.3841000">
	<ele>1656.80</ele>
	<time>2024-07-24T09:33:45.000Z</time>
</trkpt>
<trkpt lat="46.0445270" lon="10.3841000">
	<ele>1656.80</ele>
	<time>2024-07-24T09:33:46.000Z</time>
</trkpt>
<trkpt lat="46.0445270" lon="10.3841000">
	<ele>1656.80</ele>
	<time>2024-07-24T09:33:47.000Z</time>
</trkpt>
<trkpt lat="46.0445270" lon="10.3841000">
	<ele>1656.80</ele>
	<time>2024-07-24T09:33:48.000Z</time>
</trkpt>
<trkpt lat="46.0445270" lon="10.3841000">
	<ele>1656.80</ele>
	<time>2024-07-24T09:33:49.000Z</time>
</trkpt>
<trkpt lat="46.0445270" lon="10.3841000">
	<ele>1656.80</ele>
	<time>2024-07-24T09:33:50.000Z</time>
</trkpt>
<trkpt lat="46.0445270" lon="10.3841000">
	<ele>1656.80</ele>
	<time>2024-07-24T09:33:51.000Z</time>
</trkpt>
<trkpt lat="46.0445270" lon="10.3841000">
	<ele>1656.80</ele>
	<time>2024-07-24T09:33:52.000Z</time>
</trkpt>
<trkpt lat="46.0445270" lon="10.3841000">
	<ele>1656.80</ele>
	<time>2024-07-24T09:33:53.000Z</time>
</trkpt>
<trkpt lat="46.0445270" lon="10.3841000">
	<ele>1656.80</ele>
	<time>2024-07-24T09:33:54.000Z</time>
</trkpt>
<trkpt lat="46.0445270" lon="10.3841000">
	<ele>1656.80</ele>
	<time>2024-07-24T09:33:55.000Z</time>
</trkpt>
<trkpt lat="46.0445270" lon="10.3841000">
	<ele>1656.80</ele>
	<time>2024-07-24T09:33:56.000Z</time>
</trkpt>
<trkpt lat="46.0445270" lon="10.3841000">
	<ele>1656.80</ele>
	<time>2024-07-24T09:33:57.000Z</time>
</trkpt>
<trkpt lat="46.0445270" lon="10.3841000">
	<ele>1656.80</ele>
	<time>2024-07-24T09:33:58.000Z</time>
</trkpt>
<trkpt lat="46.0445270" lon="10.3841000">
	<ele>1656.80</ele>
	<time>2024-07-24T09:33:59.000Z</time>
</trkpt>
<trkpt lat="46.0445270" lon="10.3841000">
	<ele>1656.80</ele>
	<time>2024-07-24T09:34:00.000Z</time>
</trkpt>
<trkpt lat="46.0445270" lon="10.3841000">
	<ele>1656.80</ele>
	<time>2024-07-24T09:34:01.000Z</time>
</trkpt>
<trkpt lat="46.0445270" lon="10.3841000">
	<ele>1656.80</ele>
	<time>2024-07-24T09:34:02.000Z</time>
</trkpt>
<trkpt lat="46.0445270" lon="10.3841000">
	<ele>1656.80</ele>
	<time>2024-07-24T09:34:03.000Z</time>
</trkpt>
<trkpt lat="46.0445270" lon="10.3841000">
	<ele>1656.80</ele>
	<time>2024-07-24T09:34:04.000Z</time>
</trkpt>
<trkpt lat="46.0445270" lon="10.3841000">
	<ele>1656.80</ele>
	<time>2024-07-24T09:34:05.000Z</time>
</trkpt>
<trkpt lat="46.0445270" lon="10.3841000">
	<ele>1656.80</ele>
	<time>2024-07-24T09:34:06.000Z</time>
</trkpt>
<trkpt lat="46.0445270" lon="10.3841000">
	<ele>1656.80</ele>
	<time>2024-07-24T09:34:07.000Z</time>
</trkpt>
<trkpt lat="46.0445270" lon="10.3841000">
	<ele>1656.80</ele>
	<time>2024-07-24T09:34:08.000Z</time>
</trkpt>
<trkpt lat="46.0445270" lon="10.3841000">
	<ele>1656.80</ele>
	<time>2024-07-24T09:34:09.000Z</time>
</trkpt>
<trkpt lat="46.0445270" lon="10.3841000">
	<ele>1656.80</ele>
	<time>2024-07-24T09:34:10.000Z</time>
</trkpt>
<trkpt lat="46.0445270" lon="10.3841000">
	<ele>1656.80</ele>
	<time>2024-07-24T09:34:11.000Z</time>
</trkpt>
<trkpt lat="46.0445270" lon="10.3841000">
	<ele>1656.80</ele>
	<time>2024-07-24T09:34:12.000Z</time>
</trkpt>
<trkpt lat="46.0445270" lon="10.3841000">
	<ele>1656.80</ele>
	<time>2024-07-24T09:34:13.000Z</time>
</trkpt>
<trkpt lat="46.0445270" lon="10.3841000">
	<ele>1656.80</ele>
	<time>2024-07-24T09:34:14.000Z</time>
</trkpt>
<trkpt lat="46.0445270" lon="10.3841000">
	<ele>1656.80</ele>
	<time>2024-07-24T09:34:15.000Z</time>
</trkpt>
<trkpt lat="46.0445270" lon="10.3841000">
	<ele>1656.80</ele>
	<time>2024-07-24T09:34:16.000Z</time>
</trkpt>
<trkpt lat="46.0445270" lon="10.3841000">
	<ele>1656.80</ele>
	<time>2024-07-24T09:34:17.000Z</time>
</trkpt>
<trkpt lat="46.0445270" lon="10.3841000">
	<ele>1656.80</ele>
	<time>2024-07-24T09:34:18.000Z</time>
</trkpt>
<trkpt lat="46.0445270" lon="10.3841000">
	<ele>1656.80</ele>
	<time>2024-07-24T09:34:19.000Z</time>
</trkpt>
<trkpt lat="46.0445270" lon="10.3841000">
	<ele>1656.80</ele>
	<time>2024-07-24T09:34:20.000Z</time>
</trkpt>
<trkpt lat="46.0445270" lon="10.3841000">
	<ele>1656.80</ele>
	<time>2024-07-24T09:34:21.000Z</time>
</trkpt>
<trkpt lat="46.0445270" lon="10.3841000">
	<ele>1656.80</ele>
	<time>2024-07-24T09:34:22.000Z</time>
</trkpt>
<trkpt lat="46.0445270" lon="10.3841000">
	<ele>1656.80</ele>
	<time>2024-07-24T09:34:23.000Z</time>
</trkpt>
<trkpt lat="46.0445270" lon="10.3841000">
	<ele>1656.80</ele>
	<time>2024-07-24T09:34:24.000Z</time>
</trkpt>
<trkpt lat="46.0445270" lon="10.3841000">
	<ele>1656.80</ele>
	<time>2024-07-24T09:34:25.000Z</time>
</trkpt>
<trkpt lat="46.0445270" lon="10.3841000">
	<ele>1656.80</ele>
	<time>2024-07-24T09:34:26.000Z</time>
</trkpt>
<trkpt lat="46.0445270" lon="10.3841000">
	<ele>1656.80</ele>
	<time>2024-07-24T09:34:27.000Z</time>
</trkpt>
<trkpt lat="46.0445270" lon="10.3841000">
	<ele>1656.80</ele>
	<time>2024-07-24T09:34:28.000Z</time>
</trkpt>
<trkpt lat="46.0445270" lon="10.3841000">
	<ele>1656.80</ele>
	<time>2024-07-24T09:34:29.000Z</time>
</trkpt>
<trkpt lat="46.0445270" lon="10.3841000">
	<ele>1656.80</ele>
	<time>2024-07-24T09:34:30.000Z</time>
</trkpt>
<trkpt lat="46.0445270" lon="10.3841000">
	<ele>1656.80</ele>
	<time>2024-07-24T09:34:31.000Z</time>
</trkpt>
<trkpt lat="46.0445270" lon="10.3841000">
	<ele>1656.80</ele>
	<time>2024-07-24T09:34:32.000Z</time>
</trkpt>
<trkpt lat="46.0445270" lon="10.3841000">
	<ele>1656.80</ele>
	<time>2024-07-24T09:34:33.000Z</time>
</trkpt>
<trkpt lat="46.0445270" lon="10.3841000">
	<ele>1656.80</ele>
	<time>2024-07-24T09:34:34.000Z</time>
</trkpt>
<trkpt lat="46.0445270" lon="10.3841000">
	<ele>1656.80</ele>
	<time>2024-07-24T09:34:35.000Z</time>
</trkpt>
<trkpt lat="46.0445270" lon="10.3841000">
	<ele>1656.80</ele>
	<time>2024-07-24T09:34:36.000Z</time>
</trkpt>
<trkpt lat="46.0445270" lon="10.3841000">
	<ele>1656.80</ele>
	<time>2024-07-24T09:34:37.000Z</time>
</trkpt>
<trkpt lat="46.0445270" lon="10.3841000">
	<ele>1656.80</ele>
	<time>2024-07-24T09:34:38.000Z</time>
</trkpt>
<trkpt lat="46.0445270" lon="10.3841000">
	<ele>1656.80</ele>
	<time>2024-07-24T09:34:39.000Z</time>
</trkpt>
<trkpt lat="46.0445270" lon="10.3841000">
	<ele>1656.80</ele>
	<time>2024-07-24T09:34:40.000Z</time>
</trkpt>
<trkpt lat="46.0445270" lon="10.3841000">
	<ele>1656.80</ele>
	<time>2024-07-24T09:34:41.000Z</time>
</trkpt>
<trkpt lat="46.0445270" lon="10.3841000">
	<ele>1656.80</ele>
	<time>2024-07-24T09:34:42.000Z</time>
</trkpt>
<trkpt lat="46.0445270" lon="10.3841000">
	<ele>1656.80</ele>
	<time>2024-07-24T09:34:43.000Z</time>
</trkpt>
<trkpt lat="46.0445270" lon="10.3841000">
	<ele>1656.80</ele>
	<time>2024-07-24T09:34:44.000Z</time>
</trkpt>
<trkpt lat="46.0445270" lon="10.3841000">
	<ele>1656.80</ele>
	<time>2024-07-24T09:34:45.000Z</time>
</trkpt>
<trkpt lat="46.0445270" lon="10.3841000">
	<ele>1656.80</ele>
	<time>2024-07-24T09:34:46.000Z</time>
</trkpt>
<trkpt lat="46.0445270" lon="10.3841000">
	<ele>1656.80</ele>
	<time>2024-07-24T09:34:47.000Z</time>
</trkpt>
<trkpt lat="46.0445270" lon="10.3841000">
	<ele>1656.80</ele>
	<time>2024-07-24T09:34:48.000Z</time>
</trkpt>
<trkpt lat="46.0445270" lon="10.3841000">
	<ele>1656.80</ele>
	<time>2024-07-24T09:34:49.000Z</time>
</trkpt>
<trkpt lat="46.0445270" lon="10.3841000">
	<ele>1656.80</ele>
	<time>2024-07-24T09:34:50.000Z</time>
</trkpt>
<trkpt lat="46.0445270" lon="10.3841000">
	<ele>1656.80</ele>
	<time>2024-07-24T09:34:51.000Z</time>
</trkpt>
<trkpt lat="46.0445270" lon="10.3841000">
	<ele>1656.80</ele>
	<time>2024-07-24T09:34:52.000Z</time>
</trkpt>
<trkpt lat="46.0445270" lon="10.3841000">
	<ele>1656.80</ele>
	<time>2024-07-24T09:34:53.000Z</time>
</trkpt>
<trkpt lat="46.0445270" lon="10.3841000">
	<ele>1656.80</ele>
	<time>2024-07-24T09:34:54.000Z</time>
</trkpt>
<trkpt lat="46.0445270" lon="10.3841000">
	<ele>1656.80</ele>
	<time>2024-07-24T09:34:55.000Z</time>
</trkpt>
<trkpt lat="46.0445270" lon="10.3841000">
	<ele>1656.80</ele>
	<time>2024-07-24T09:34:56.000Z</time>
</trkpt>
<trkpt lat="46.0445270" lon="10.3841000">
	<ele>1656.80</ele>
	<time>2024-07-24T09:34:57.000Z</time>
</trkpt>
<trkpt lat="46.0445270" lon="10.3841000">
	<ele>1656.80</ele>
	<time>2024-07-24T09:34:58.000Z</time>
</trkpt>
<trkpt lat="46.0445270" lon="10.3841000">
	<ele>1656.80</ele>
	<time>2024-07-24T09:34:59.000Z</time>
</trkpt>
<trkpt lat="46.0445270" lon="10.3841000">
	<ele>1656.80</ele>
	<time>2024-07-24T09:35:00.000Z</time>
</trkpt>
<trkpt lat="46.0445270" lon="10.3841000">
	<ele>1656.80</ele>
	<time>2024-07-24T09:35:01.000Z</time>
</trkpt>
<trkpt lat="46.0445270" lon="10.3841000">
	<ele>1656.80</ele>
	<time>2024-07-24T09:35:02.000Z</time>
</trkpt>
<trkpt lat="46.0445270" lon="10.3841000">
	<ele>1656.80</ele>
	<time>2024-07-24T09:35:03.000Z</time>
</trkpt>
<trkpt lat="46.0445270" lon="10.3841000">
	<ele>1656.80</ele>
	<time>2024-07-24T09:35:04.000Z</time>
</trkpt>
<trkpt lat="46.0445270" lon="10.3841000">
	<ele>1656.80</ele>
	<time>2024-07-24T09:35:05.000Z</time>
</trkpt>
<trkpt lat="46.0445270" lon="10.3841000">
	<ele>1656.80</ele>
	<time>2024-07-24T09:35:06.000Z</time>
</trkpt>
<trkpt lat="46.0445270" lon="10.3841000">
	<ele>1656.80</ele>
	<time>2024-07-24T09:35:07.000Z</time>
</trkpt>
<trkpt lat="46.0445270" lon="10.3841000">
	<ele>1656.80</ele>
	<time>2024-07-24T09:35:08.000Z</time>
</trkpt>
<trkpt lat="46.0445270" lon="10.3841000">
	<ele>1656.80</ele>
	<time>2024-07-24T09:35:09.000Z</time>
</trkpt>
<trkpt lat="46.0445270" lon="10.3841000">
	<ele>1656.80</ele>
	<time>2024-07-24T09:35:10.000Z</time>
</trkpt>
<trkpt lat="46.0445270" lon="10.3841000">
	<ele>1656.80</ele>
	<time>2024-07-24T09:35:11.000Z</time>
</trkpt>
<trkpt lat="46.0445270" lon="10.3841000">
	<ele>1656.80</ele>
	<time>2024-07-24T09:35:12.000Z</time>
</trkpt>
<trkpt lat="46.0445270" lon="10.3841000">
	<ele>1656.80</ele>
	<time>2024-07-24T09:35:13.000Z</time>
</trkpt>
<trkpt lat="46.0445270" lon="10.3841000">
	<ele>1656.80</ele>
	<time>2024-07-24T09:35:14.000Z</time>
</trkpt>
<trkpt lat="46.0445270" lon="10.3841000">
	<ele>1656.80</ele>
	<time>2024-07-24T09:35:15.000Z</time>
</trkpt>
<trkpt lat="46.0445270" lon="10.3841000">
	<ele>1656.80</ele>
	<time>2024-07-24T09:35:16.000Z</time>
</trkpt>
<trkpt lat="46.0445270" lon="10.3841000">
	<ele>1656.80</ele>
	<time>2024-07-24T09:35:17.000Z</time>
</trkpt>
<trkpt lat="46.0445270" lon="10.3841000">
	<ele>1656.80</ele>
	<time>2024-07-24T09:35:18.000Z</time>
</trkpt>
<trkpt lat="46.0445270" lon="10.3841000">
	<ele>1656.80</ele>
	<time>2024-07-24T09:35:19.000Z</time>
</trkpt>
<trkpt lat="46.0445270" lon="10.3841000">
	<ele>1656.80</ele>
	<time>2024-07-24T09:35:20.000Z</time>
</trkpt>
<trkpt lat="46.0445270" lon="10.3841000">
	<ele>1656.80</ele>
	<time>2024-07-24T09:35:21.000Z</time>
</trkpt>
<trkpt lat="46.0445270" lon="10.3841000">
	<ele>1656.80</ele>
	<time>2024-07-24T09:35:22.000Z</time>
</trkpt>
<trkpt lat="46.0445270" lon="10.3841000">
	<ele>1656.80</ele>
	<time>2024-07-24T09:35:23.000Z</time>
</trkpt>
<trkpt lat="46.0445270" lon="10.3841000">
	<ele>1656.80</ele>
	<time>2024-07-24T09:35:24.000Z</time>
</trkpt>
<trkpt lat="46.0445270" lon="10.3841000">
	<ele>1656.80</ele>
	<time>2024-07-24T09:35:25.000Z</time>
</trkpt>
<trkpt lat="46.0445270" lon="10.3841010">
	<ele>1656.80</ele>
	<time>2024-07-24T09:35:26.000Z</time>
</trkpt>
<trkpt lat="46.0445270" lon="10.3841010">
	<ele>1656.80</ele>
	<time>2024-07-24T09:35:27.000Z</time>
</trkpt>
<trkpt lat="46.0445270" lon="10.3841010">
	<ele>1656.80</ele>
	<time>2024-07-24T09:35:28.000Z</time>
</trkpt>
<trkpt lat="46.0445270" lon="10.3841010">
	<ele>1656.80</ele>
	<time>2024-07-24T09:35:29.000Z</time>
</trkpt>
<trkpt lat="46.0445270" lon="10.3841010">
	<ele>1656.80</ele>
	<time>2024-07-24T09:35:30.000Z</time>
</trkpt>
<trkpt lat="46.0445270" lon="10.3841010">
	<ele>1656.80</ele>
	<time>2024-07-24T09:35:31.000Z</time>
</trkpt>
<trkpt lat="46.0445270" lon="10.3841010">
	<ele>1656.80</ele>
	<time>2024-07-24T09:35:32.000Z</time>
</trkpt>
<trkpt lat="46.0445280" lon="10.3841010">
	<ele>1656.80</ele>
	<time>2024-07-24T09:35:33.000Z</time>
</trkpt>
<trkpt lat="46.0445280" lon="10.3841010">
	<ele>1656.80</ele>
	<time>2024-07-24T09:35:34.000Z</time>
</trkpt>
<trkpt lat="46.0445280" lon="10.3841010">
	<ele>1656.80</ele>
	<time>2024-07-24T09:35:35.000Z</time>
</trkpt>
<trkpt lat="46.0445280" lon="10.3841010">
	<ele>1656.80</ele>
	<time>2024-07-24T09:35:36.000Z</time>
</trkpt>
<trkpt lat="46.0445280" lon="10.3841010">
	<ele>1656.80</ele>
	<time>2024-07-24T09:35:37.000Z</time>
</trkpt>
<trkpt lat="46.0445280" lon="10.3841010">
	<ele>1656.80</ele>
	<time>2024-07-24T09:35:38.000Z</time>
</trkpt>
<trkpt lat="46.0445280" lon="10.3841010">
	<ele>1656.80</ele>
	<time>2024-07-24T09:35:39.000Z</time>
</trkpt>
<trkpt lat="46.0445280" lon="10.3841010">
	<ele>1656.80</ele>
	<time>2024-07-24T09:35:40.000Z</time>
</trkpt>
<trkpt lat="46.0445280" lon="10.3841010">
	<ele>1656.80</ele>
	<time>2024-07-24T09:35:41.000Z</time>
</trkpt>
<trkpt lat="46.0445280" lon="10.3841010">
	<ele>1656.80</ele>
	<time>2024-07-24T09:35:42.000Z</time>
</trkpt>
<trkpt lat="46.0445280" lon="10.3841010">
	<ele>1656.80</ele>
	<time>2024-07-24T09:35:43.000Z</time>
</trkpt>
<trkpt lat="46.0445280" lon="10.3841010">
	<ele>1656.80</ele>
	<time>2024-07-24T09:35:44.000Z</time>
</trkpt>
<trkpt lat="46.0445280" lon="10.3841010">
	<ele>1656.80</ele>
	<time>2024-07-24T09:35:45.000Z</time>
</trkpt>
<trkpt lat="46.0445280" lon="10.3841010">
	<ele>1656.80</ele>
	<time>2024-07-24T09:35:46.000Z</time>
</trkpt>
<trkpt lat="46.0445280" lon="10.3841010">
	<ele>1656.80</ele>
	<time>2024-07-24T09:35:47.000Z</time>
</trkpt>
<trkpt lat="46.0445280" lon="10.3841010">
	<ele>1656.80</ele>
	<time>2024-07-24T09:35:48.000Z</time>
</trkpt>
<trkpt lat="46.0445280" lon="10.3841010">
	<ele>1656.80</ele>
	<time>2024-07-24T09:35:49.000Z</time>
</trkpt>
<trkpt lat="46.0445280" lon="10.3841010">
	<ele>1656.80</ele>
	<time>2024-07-24T09:35:50.000Z</time>
</trkpt>
<trkpt lat="46.0445280" lon="10.3841010">
	<ele>1656.80</ele>
	<time>2024-07-24T09:35:51.000Z</time>
</trkpt>
<trkpt lat="46.0445280" lon="10.3841010">
	<ele>1656.80</ele>
	<time>2024-07-24T09:35:52.000Z</time>
</trkpt>
<trkpt lat="46.0445280" lon="10.3841010">
	<ele>1656.80</ele>
	<time>2024-07-24T09:35:53.000Z</time>
</trkpt>
<trkpt lat="46.0445280" lon="10.3841010">
	<ele>1656.80</ele>
	<time>2024-07-24T09:35:54.000Z</time>
</trkpt>
<trkpt lat="46.0445280" lon="10.3841010">
	<ele>1656.80</ele>
	<time>2024-07-24T09:35:55.000Z</time>
</trkpt>
<trkpt lat="46.0445280" lon="10.3841010">
	<ele>1656.80</ele>
	<time>2024-07-24T09:35:56.000Z</time>
</trkpt>
<trkpt lat="46.0445280" lon="10.3841010">
	<ele>1656.80</ele>
	<time>2024-07-24T09:35:57.000Z</time>
</trkpt>
<trkpt lat="46.0445280" lon="10.3841010">
	<ele>1656.80</ele>
	<time>2024-07-24T09:35:58.000Z</time>
</trkpt>
<trkpt lat="46.0445280" lon="10.3841010">
	<ele>1656.80</ele>
	<time>2024-07-24T09:35:59.000Z</time>
</trkpt>
<trkpt lat="46.0445280" lon="10.3841010">
	<ele>1656.80</ele>
	<time>2024-07-24T09:36:00.000Z</time>
</trkpt>
<trkpt lat="46.0445280" lon="10.3841010">
	<ele>1656.80</ele>
	<time>2024-07-24T09:36:01.000Z</time>
</trkpt>
<trkpt lat="46.0445280" lon="10.3841010">
	<ele>1656.80</ele>
	<time>2024-07-24T09:36:02.000Z</time>
</trkpt>
<trkpt lat="46.0445280" lon="10.3841010">
	<ele>1656.80</ele>
	<time>2024-07-24T09:36:03.000Z</time>
</trkpt>
<trkpt lat="46.0445280" lon="10.3841010">
	<ele>1656.80</ele>
	<time>2024-07-24T09:36:04.000Z</time>
</trkpt>
<trkpt lat="46.0445280" lon="10.3841010">
	<ele>1656.80</ele>
	<time>2024-07-24T09:36:05.000Z</time>
</trkpt>
<trkpt lat="46.0445280" lon="10.3841010">
	<ele>1656.80</ele>
	<time>2024-07-24T09:36:06.000Z</time>
</trkpt>
<trkpt lat="46.0445280" lon="10.3841010">
	<ele>1656.80</ele>
	<time>2024-07-24T09:36:07.000Z</time>
</trkpt>
<trkpt lat="46.0445280" lon="10.3841010">
	<ele>1656.80</ele>
	<time>2024-07-24T09:36:08.000Z</time>
</trkpt>
<trkpt lat="46.0445280" lon="10.3841010">
	<ele>1656.80</ele>
	<time>2024-07-24T09:36:09.000Z</time>
</trkpt>
<trkpt lat="46.0445280" lon="10.3841010">
	<ele>1656.80</ele>
	<time>2024-07-24T09:36:10.000Z</time>
</trkpt>
<trkpt lat="46.0445280" lon="10.3841010">
	<ele>1656.80</ele>
	<time>2024-07-24T09:36:11.000Z</time>
</trkpt>
<trkpt lat="46.0445280" lon="10.3841010">
	<ele>1656.80</ele>
	<time>2024-07-24T09:36:12.000Z</time>
</trkpt>
<trkpt lat="46.0445280" lon="10.3841010">
	<ele>1656.80</ele>
	<time>2024-07-24T09:36:13.000Z</time>
</trkpt>
<trkpt lat="46.0445280" lon="10.3841010">
	<ele>1656.80</ele>
	<time>2024-07-24T09:36:14.000Z</time>
</trkpt>
<trkpt lat="46.0445280" lon="10.3841010">
	<ele>1656.80</ele>
	<time>2024-07-24T09:36:15.000Z</time>
</trkpt>
<trkpt lat="46.0445280" lon="10.3841010">
	<ele>1656.80</ele>
	<time>2024-07-24T09:36:16.000Z</time>
</trkpt>
<trkpt lat="46.0445280" lon="10.3841010">
	<ele>1656.80</ele>
	<time>2024-07-24T09:36:17.000Z</time>
</trkpt>
<trkpt lat="46.0445280" lon="10.3841010">
	<ele>1656.80</ele>
	<time>2024-07-24T09:36:18.000Z</time>
</trkpt>
<trkpt lat="46.0445280" lon="10.3841010">
	<ele>1656.80</ele>
	<time>2024-07-24T09:36:19.000Z</time>
</trkpt>
<trkpt lat="46.0445280" lon="10.3841010">
	<ele>1656.80</ele>
	<time>2024-07-24T09:36:20.000Z</time>
</trkpt>
<trkpt lat="46.0445280" lon="10.3841010">
	<ele>1656.80</ele>
	<time>2024-07-24T09:36:21.000Z</time>
</trkpt>
<trkpt lat="46.0445280" lon="10.3841010">
	<ele>1656.80</ele>
	<time>2024-07-24T09:36:22.000Z</time>
</trkpt>
<trkpt lat="46.0445280" lon="10.3841010">
	<ele>1656.80</ele>
	<time>2024-07-24T09:36:23.000Z</time>
</trkpt>
<trkpt lat="46.0445280" lon="10.3841010">
	<ele>1656.80</ele>
	<time>2024-07-24T09:36:24.000Z</time>
</trkpt>
<trkpt lat="46.0445280" lon="10.3841010">
	<ele>1656.80</ele>
	<time>2024-07-24T09:36:25.000Z</time>
</trkpt>
<trkpt lat="46.0445280" lon="10.3841010">
	<ele>1656.80</ele>
	<time>2024-07-24T09:36:26.000Z</time>
</trkpt>
<trkpt lat="46.0445280" lon="10.3841010">
	<ele>1656.80</ele>
	<time>2024-07-24T09:36:27.000Z</time>
</trkpt>
<trkpt lat="46.0445280" lon="10.3841010">
	<ele>1656.80</ele>
	<time>2024-07-24T09:36:28.000Z</time>
</trkpt>
<trkpt lat="46.0445280" lon="10.3841010">
	<ele>1656.80</ele>
	<time>2024-07-24T09:36:29.000Z</time>
</trkpt>
<trkpt lat="46.0445280" lon="10.3841010">
	<ele>1656.80</ele>
	<time>2024-07-24T09:36:30.000Z</time>
</trkpt>
<trkpt lat="46.0445280" lon="10.3841010">
	<ele>1656.80</ele>
	<time>2024-07-24T09:36:31.000Z</time>
</trkpt>
<trkpt lat="46.0445280" lon="10.3841010">
	<ele>1656.80</ele>
	<time>2024-07-24T09:36:32.000Z</time>
</trkpt>
<trkpt lat="46.0445280" lon="10.3841010">
	<ele>1656.80</ele>
	<time>2024-07-24T09:36:33.000Z</time>
</trkpt>
<trkpt lat="46.0445280" lon="10.3841010">
	<ele>1656.80</ele>
	<time>2024-07-24T09:36:34.000Z</time>
</trkpt>
<trkpt lat="46.0445280" lon="10.3841010">
	<ele>1656.80</ele>
	<time>2024-07-24T09:36:35.000Z</time>
</trkpt>
<trkpt lat="46.0445280" lon="10.3841010">
	<ele>1656.80</ele>
	<time>2024-07-24T09:36:36.000Z</time>
</trkpt>
<trkpt lat="46.0445280" lon="10.3841010">
	<ele>1656.80</ele>
	<time>2024-07-24T09:36:37.000Z</time>
</trkpt>
<trkpt lat="46.0445280" lon="10.3841010">
	<ele>1656.80</ele>
	<time>2024-07-24T09:36:38.000Z</time>
</trkpt>
<trkpt lat="46.0445280" lon="10.3841010">
	<ele>1656.80</ele>
	<time>2024-07-24T09:36:39.000Z</time>
</trkpt>
<trkpt lat="46.0445280" lon="10.3841010">
	<ele>1656.80</ele>
	<time>2024-07-24T09:36:40.000Z</time>
</trkpt>
<trkpt lat="46.0445280" lon="10.3841010">
	<ele>1656.80</ele>
	<time>2024-07-24T09:36:41.000Z</time>
</trkpt>
<trkpt lat="46.0445280" lon="10.3841010">
	<ele>1656.80</ele>
	<time>2024-07-24T09:36:42.000Z</time>
</trkpt>
<trkpt lat="46.0445280" lon="10.3841010">
	<ele>1656.80</ele>
	<time>2024-07-24T09:36:43.000Z</time>
</trkpt>
<trkpt lat="46.0445280" lon="10.3841010">
	<ele>1656.80</ele>
	<time>2024-07-24T09:36:44.000Z</time>
</trkpt>
<trkpt lat="46.0445280" lon="10.3841010">
	<ele>1656.80</ele>
	<time>2024-07-24T09:36:45.000Z</time>
</trkpt>
<trkpt lat="46.0445280" lon="10.3841010">
	<ele>1656.80</ele>
	<time>2024-07-24T09:36:46.000Z</time>
</trkpt>
<trkpt lat="46.0445280" lon="10.3841010">
	<ele>1656.80</ele>
	<time>2024-07-24T09:36:47.000Z</time>
</trkpt>
<trkpt lat="46.0445280" lon="10.3841010">
	<ele>1656.80</ele>
	<time>2024-07-24T09:36:48.000Z</time>
</trkpt>
<trkpt lat="46.0445280" lon="10.3841010">
	<ele>1656.80</ele>
	<time>2024-07-24T09:36:49.000Z</time>
</trkpt>
<trkpt lat="46.0445280" lon="10.3841010">
	<ele>1656.80</ele>
	<time>2024-07-24T09:36:50.000Z</time>
</trkpt>
<trkpt lat="46.0445280" lon="10.3841010">
	<ele>1656.80</ele>
	<time>2024-07-24T09:36:51.000Z</time>
</trkpt>
<trkpt lat="46.0445280" lon="10.3841010">
	<ele>1656.80</ele>
	<time>2024-07-24T09:36:52.000Z</time>
</trkpt>
<trkpt lat="46.0445280" lon="10.3841010">
	<ele>1656.80</ele>
	<time>2024-07-24T09:36:53.000Z</time>
</trkpt>
<trkpt lat="46.0445280" lon="10.3841010">
	<ele>1656.80</ele>
	<time>2024-07-24T09:36:54.000Z</time>
</trkpt>
<trkpt lat="46.0445300" lon="10.3841060">
	<ele>1656.80</ele>
	<time>2024-07-24T09:36:55.000Z</time>
</trkpt>
<trkpt lat="46.0445350" lon="10.3841170">
	<ele>1656.80</ele>
	<time>2024-07-24T09:36:56.000Z</time>
</trkpt>
<trkpt lat="46.0445410" lon="10.3841340">
	<ele>1656.80</ele>
	<time>2024-07-24T09:36:57.000Z</time>
</trkpt>
<trkpt lat="46.0445470" lon="10.3841500">
	<ele>1656.80</ele>
	<time>2024-07-24T09:36:58.000Z</time>
</trkpt>
<trkpt lat="46.0445470" lon="10.3841640">
	<ele>1656.80</ele>
	<time>2024-07-24T09:37:00.000Z</time>
</trkpt>
<trkpt lat="46.0445390" lon="10.3841660">
	<ele>1656.80</ele>
	<time>2024-07-24T09:37:01.000Z</time>
</trkpt>
<trkpt lat="46.0445280" lon="10.3841630">
	<ele>1656.80</ele>
	<time>2024-07-24T09:37:02.000Z</time>
</trkpt>
<trkpt lat="46.0445300" lon="10.3841640">
	<ele>1656.80</ele>
	<time>2024-07-24T09:37:03.000Z</time>
</trkpt>
<trkpt lat="46.0445410" lon="10.3841770">
	<ele>1656.80</ele>
	<time>2024-07-24T09:37:04.000Z</time>
</trkpt>
<trkpt lat="46.0445490" lon="10.3841860">
	<ele>1656.80</ele>
	<time>2024-07-24T09:37:05.000Z</time>
</trkpt>
<trkpt lat="46.0445530" lon="10.3841880">
	<ele>1656.80</ele>
	<time>2024-07-24T09:37:06.000Z</time>
</trkpt>
<trkpt lat="46.0445580" lon="10.3841910">
	<ele>1656.80</ele>
	<time>2024-07-24T09:37:07.000Z</time>
</trkpt>
<trkpt lat="46.0445600" lon="10.3841940">
	<ele>1656.80</ele>
	<time>2024-07-24T09:37:08.000Z</time>
</trkpt>
<trkpt lat="46.0445600" lon="10.3841970">
	<ele>1656.80</ele>
	<time>2024-07-24T09:37:09.000Z</time>
</trkpt>
<trkpt lat="46.0445680" lon="10.3842120">
	<ele>1656.80</ele>
	<time>2024-07-24T09:37:10.000Z</time>
</trkpt>
<trkpt lat="46.0445710" lon="10.3842200">
	<ele>1656.80</ele>
	<time>2024-07-24T09:37:11.000Z</time>
</trkpt>
<trkpt lat="46.0445760" lon="10.3842210">
	<ele>1656.80</ele>
	<time>2024-07-24T09:37:12.000Z</time>
</trkpt>
<trkpt lat="46.0445790" lon="10.3842150">
	<ele>1656.80</ele>
	<time>2024-07-24T09:37:13.000Z</time>
</trkpt>
<trkpt lat="46.0445780" lon="10.3842100">
	<ele>1656.80</ele>
	<time>2024-07-24T09:37:14.000Z</time>
</trkpt>
<trkpt lat="46.0445780" lon="10.3842100">
	<ele>1656.80</ele>
	<time>2024-07-24T09:37:15.000Z</time>
</trkpt>
<trkpt lat="46.0445780" lon="10.3842100">
	<ele>1656.80</ele>
	<time>2024-07-24T09:37:16.000Z</time>
</trkpt>
<trkpt lat="46.0445780" lon="10.3842100">
	<ele>1656.80</ele>
	<time>2024-07-24T09:37:17.000Z</time>
</trkpt>
<trkpt lat="46.0445780" lon="10.3842100">
	<ele>1656.80</ele>
	<time>2024-07-24T09:37:18.000Z</time>
</trkpt>
<trkpt lat="46.0445780" lon="10.3842100">
	<ele>1656.80</ele>
	<time>2024-07-24T09:37:19.000Z</time>
</trkpt>
<trkpt lat="46.0445780" lon="10.3842100">
	<ele>1656.80</ele>
	<time>2024-07-24T09:37:20.000Z</time>
</trkpt>
<trkpt lat="46.0445780" lon="10.3842100">
	<ele>1656.80</ele>
	<time>2024-07-24T09:37:21.000Z</time>
</trkpt>
<trkpt lat="46.0445780" lon="10.3842100">
	<ele>1656.80</ele>
	<time>2024-07-24T09:37:22.000Z</time>
</trkpt>
<trkpt lat="46.0445760" lon="10.3842100">
	<ele>1656.80</ele>
	<time>2024-07-24T09:37:23.000Z</time>
</trkpt>
<trkpt lat="46.0445730" lon="10.3842100">
	<ele>1656.80</ele>
	<time>2024-07-24T09:37:24.000Z</time>
</trkpt>
<trkpt lat="46.0445710" lon="10.3842100">
	<ele>1656.80</ele>
	<time>2024-07-24T09:37:25.000Z</time>
</trkpt>
<trkpt lat="46.0445700" lon="10.3842030">
	<ele>1656.80</ele>
	<time>2024-07-24T09:37:26.000Z</time>
</trkpt>
<trkpt lat="46.0445690" lon="10.3841970">
	<ele>1656.80</ele>
	<time>2024-07-24T09:37:27.000Z</time>
</trkpt>
<trkpt lat="46.0445680" lon="10.3841940">
	<ele>1656.80</ele>
	<time>2024-07-24T09:37:28.000Z</time>
</trkpt>
<trkpt lat="46.0445680" lon="10.3841930">
	<ele>1656.80</ele>
	<time>2024-07-24T09:37:29.000Z</time>
</trkpt>
<trkpt lat="46.0445660" lon="10.3841910">
	<ele>1656.80</ele>
	<time>2024-07-24T09:37:30.000Z</time>
</trkpt>
<trkpt lat="46.0445610" lon="10.3841880">
	<ele>1656.80</ele>
	<time>2024-07-24T09:37:31.000Z</time>
</trkpt>
<trkpt lat="46.0445600" lon="10.3841850">
	<ele>1656.80</ele>
	<time>2024-07-24T09:37:32.000Z</time>
</trkpt>
<trkpt lat="46.0445600" lon="10.3841810">
	<ele>1656.80</ele>
	<time>2024-07-24T09:37:33.000Z</time>
</trkpt>
<trkpt lat="46.0445580" lon="10.3841770">
	<ele>1656.80</ele>
	<time>2024-07-24T09:37:34.000Z</time>
</trkpt>
<trkpt lat="46.0445530" lon="10.3841680">
	<ele>1656.80</ele>
	<time>2024-07-24T09:37:35.000Z</time>
</trkpt>
<trkpt lat="46.0445530" lon="10.3841570">
	<ele>1656.80</ele>
	<time>2024-07-24T09:37:36.000Z</time>
</trkpt>
<trkpt lat="46.0445500" lon="10.3841460">
	<ele>1656.80</ele>
	<time>2024-07-24T09:37:37.000Z</time>
</trkpt>
<trkpt lat="46.0445410" lon="10.3841390">
	<ele>1656.80</ele>
	<time>2024-07-24T09:37:38.000Z</time>
</trkpt>
<trkpt lat="46.0445380" lon="10.3841370">
	<ele>1656.80</ele>
	<time>2024-07-24T09:37:39.000Z</time>
</trkpt>
<trkpt lat="46.0445360" lon="10.3841360">
	<ele>1656.80</ele>
	<time>2024-07-24T09:37:40.000Z</time>
</trkpt>
<trkpt lat="46.0445360" lon="10.3841360">
	<ele>1656.80</ele>
	<time>2024-07-24T09:37:41.000Z</time>
</trkpt>
<trkpt lat="46.0445360" lon="10.3841360">
	<ele>1656.80</ele>
	<time>2024-07-24T09:37:42.000Z</time>
</trkpt>
<trkpt lat="46.0445350" lon="10.3841350">
	<ele>1656.80</ele>
	<time>2024-07-24T09:37:43.000Z</time>
</trkpt>
<trkpt lat="46.0445340" lon="10.3841330">
	<ele>1656.80</ele>
	<time>2024-07-24T09:37:44.000Z</time>
</trkpt>
<trkpt lat="46.0445340" lon="10.3841320">
	<ele>1656.80</ele>
	<time>2024-07-24T09:37:45.000Z</time>
</trkpt>
<trkpt lat="46.0445330" lon="10.3841320">
	<ele>1656.80</ele>
	<time>2024-07-24T09:37:46.000Z</time>
</trkpt>
<trkpt lat="46.0445330" lon="10.3841310">
	<ele>1656.80</ele>
	<time>2024-07-24T09:37:47.000Z</time>
</trkpt>
<trkpt lat="46.0445330" lon="10.3841280">
	<ele>1656.80</ele>
	<time>2024-07-24T09:37:48.000Z</time>
</trkpt>
<trkpt lat="46.0445330" lon="10.3841260">
	<ele>1656.80</ele>
	<time>2024-07-24T09:37:49.000Z</time>
</trkpt>
<trkpt lat="46.0445330" lon="10.3841260">
	<ele>1656.80</ele>
	<time>2024-07-24T09:37:50.000Z</time>
</trkpt>
<trkpt lat="46.0445330" lon="10.3841260">
	<ele>1656.80</ele>
	<time>2024-07-24T09:37:51.000Z</time>
</trkpt>
<trkpt lat="46.0445330" lon="10.3841260">
	<ele>1656.80</ele>
	<time>2024-07-24T09:37:52.000Z</time>
</trkpt>
<trkpt lat="46.0445330" lon="10.3841250">
	<ele>1656.80</ele>
	<time>2024-07-24T09:37:53.000Z</time>
</trkpt>
<trkpt lat="46.0445330" lon="10.3841240">
	<ele>1656.80</ele>
	<time>2024-07-24T09:37:54.000Z</time>
</trkpt>
<trkpt lat="46.0445330" lon="10.3841230">
	<ele>1656.80</ele>
	<time>2024-07-24T09:37:55.000Z</time>
</trkpt>
<trkpt lat="46.0445330" lon="10.3841220">
	<ele>1656.80</ele>
	<time>2024-07-24T09:37:56.000Z</time>
</trkpt>
<trkpt lat="46.0445330" lon="10.3841210">
	<ele>1656.80</ele>
	<time>2024-07-24T09:37:57.000Z</time>
</trkpt>
<trkpt lat="46.0445330" lon="10.3841210">
	<ele>1656.80</ele>
	<time>2024-07-24T09:37:58.000Z</time>
</trkpt>
<trkpt lat="46.0445330" lon="10.3841200">
	<ele>1656.80</ele>
	<time>2024-07-24T09:37:59.000Z</time>
</trkpt>
<trkpt lat="46.0445340" lon="10.3841200">
	<ele>1656.80</ele>
	<time>2024-07-24T09:38:00.000Z</time>
</trkpt>
<trkpt lat="46.0445340" lon="10.3841190">
	<ele>1656.80</ele>
	<time>2024-07-24T09:38:01.000Z</time>
</trkpt>
<trkpt lat="46.0445340" lon="10.3841190">
	<ele>1656.80</ele>
	<time>2024-07-24T09:38:02.000Z</time>
</trkpt>
<trkpt lat="46.0445340" lon="10.3841170">
	<ele>1656.80</ele>
	<time>2024-07-24T09:38:03.000Z</time>
</trkpt>
<trkpt lat="46.0445340" lon="10.3841160">
	<ele>1656.80</ele>
	<time>2024-07-24T09:38:04.000Z</time>
</trkpt>
<trkpt lat="46.0445340" lon="10.3841160">
	<ele>1656.80</ele>
	<time>2024-07-24T09:38:05.000Z</time>
</trkpt>
<trkpt lat="46.0445340" lon="10.3841150">
	<ele>1656.80</ele>
	<time>2024-07-24T09:38:06.000Z</time>
</trkpt>
<trkpt lat="46.0445340" lon="10.3841150">
	<ele>1656.80</ele>
	<time>2024-07-24T09:38:07.000Z</time>
</trkpt>
<trkpt lat="46.0445340" lon="10.3841150">
	<ele>1656.80</ele>
	<time>2024-07-24T09:38:08.000Z</time>
</trkpt>
<trkpt lat="46.0445340" lon="10.3841150">
	<ele>1656.80</ele>
	<time>2024-07-24T09:38:09.000Z</time>
</trkpt>
<trkpt lat="46.0445330" lon="10.3841140">
	<ele>1656.80</ele>
	<time>2024-07-24T09:38:10.000Z</time>
</trkpt>
<trkpt lat="46.0445330" lon="10.3841140">
	<ele>1656.80</ele>
	<time>2024-07-24T09:38:11.000Z</time>
</trkpt>
<trkpt lat="46.0445330" lon="10.3841140">
	<ele>1656.80</ele>
	<time>2024-07-24T09:38:12.000Z</time>
</trkpt>
<trkpt lat="46.0445330" lon="10.3841140">
	<ele>1656.80</ele>
	<time>2024-07-24T09:38:13.000Z</time>
</trkpt>
<trkpt lat="46.0445330" lon="10.3841140">
	<ele>1656.80</ele>
	<time>2024-07-24T09:38:14.000Z</time>
</trkpt>
<trkpt lat="46.0445330" lon="10.3841130">
	<ele>1656.80</ele>
	<time>2024-07-24T09:38:15.000Z</time>
</trkpt>
<trkpt lat="46.0445330" lon="10.3841130">
	<ele>1656.80</ele>
	<time>2024-07-24T09:38:16.000Z</time>
</trkpt>
<trkpt lat="46.0445320" lon="10.3841130">
	<ele>1656.80</ele>
	<time>2024-07-24T09:38:17.000Z</time>
</trkpt>
<trkpt lat="46.0445320" lon="10.3841120">
	<ele>1656.80</ele>
	<time>2024-07-24T09:38:18.000Z</time>
</trkpt>
<trkpt lat="46.0445320" lon="10.3841110">
	<ele>1656.80</ele>
	<time>2024-07-24T09:38:19.000Z</time>
</trkpt>
<trkpt lat="46.0445310" lon="10.3841080">
	<ele>1656.80</ele>
	<time>2024-07-24T09:38:20.000Z</time>
</trkpt>
<trkpt lat="46.0445300" lon="10.3841060">
	<ele>1656.80</ele>
	<time>2024-07-24T09:38:21.000Z</time>
</trkpt>
<trkpt lat="46.0445290" lon="10.3841030">
	<ele>1656.80</ele>
	<time>2024-07-24T09:38:22.000Z</time>
</trkpt>
<trkpt lat="46.0445280" lon="10.3840980">
	<ele>1656.80</ele>
	<time>2024-07-24T09:38:23.000Z</time>
</trkpt>
<trkpt lat="46.0445270" lon="10.3840940">
	<ele>1656.80</ele>
	<time>2024-07-24T09:38:24.000Z</time>
</trkpt>
<trkpt lat="46.0445250" lon="10.3840910">
	<ele>1656.80</ele>
	<time>2024-07-24T09:38:25.000Z</time>
</trkpt>
<trkpt lat="46.0445240" lon="10.3840900">
	<ele>1656.80</ele>
	<time>2024-07-24T09:38:26.000Z</time>
</trkpt>
<trkpt lat="46.0445230" lon="10.3840900">
	<ele>1656.80</ele>
	<time>2024-07-24T09:38:27.000Z</time>
</trkpt>
<trkpt lat="46.0445220" lon="10.3840880">
	<ele>1656.80</ele>
	<time>2024-07-24T09:38:28.000Z</time>
</trkpt>
<trkpt lat="46.0445210" lon="10.3840860">
	<ele>1656.80</ele>
	<time>2024-07-24T09:38:29.000Z</time>
</trkpt>
<trkpt lat="46.0445200" lon="10.3840830">
	<ele>1656.80</ele>
	<time>2024-07-24T09:38:30.000Z</time>
</trkpt>
<trkpt lat="46.0445180" lon="10.3840810">
	<ele>1656.80</ele>
	<time>2024-07-24T09:38:31.000Z</time>
</trkpt>
<trkpt lat="46.0445170" lon="10.3840810">
	<ele>1656.80</ele>
	<time>2024-07-24T09:38:32.000Z</time>
</trkpt>
<trkpt lat="46.0445170" lon="10.3840800">
	<ele>1656.80</ele>
	<time>2024-07-24T09:38:33.000Z</time>
</trkpt>
<trkpt lat="46.0445170" lon="10.3840790">
	<ele>1656.80</ele>
	<time>2024-07-24T09:38:34.000Z</time>
</trkpt>
<trkpt lat="46.0445150" lon="10.3840770">
	<ele>1656.80</ele>
	<time>2024-07-24T09:38:35.000Z</time>
</trkpt>
<trkpt lat="46.0445120" lon="10.3840760">
	<ele>1656.80</ele>
	<time>2024-07-24T09:38:36.000Z</time>
</trkpt>
<trkpt lat="46.0445090" lon="10.3840750">
	<ele>1656.80</ele>
	<time>2024-07-24T09:38:37.000Z</time>
</trkpt>
<trkpt lat="46.0445060" lon="10.3840740">
	<ele>1656.80</ele>
	<time>2024-07-24T09:38:38.000Z</time>
</trkpt>
<trkpt lat="46.0445030" lon="10.3840740">
	<ele>1656.80</ele>
	<time>2024-07-24T09:38:39.000Z</time>
</trkpt>
<trkpt lat="46.0445020" lon="10.3840730">
	<ele>1656.80</ele>
	<time>2024-07-24T09:38:40.000Z</time>
</trkpt>
<trkpt lat="46.0445020" lon="10.3840730">
	<ele>1656.80</ele>
	<time>2024-07-24T09:38:41.000Z</time>
</trkpt>
<trkpt lat="46.0445010" lon="10.3840730">
	<ele>1656.80</ele>
	<time>2024-07-24T09:38:42.000Z</time>
</trkpt>
<trkpt lat="46.0445010" lon="10.3840730">
	<ele>1656.80</ele>
	<time>2024-07-24T09:38:43.000Z</time>
</trkpt>
<trkpt lat="46.0445010" lon="10.3840730">
	<ele>1656.80</ele>
	<time>2024-07-24T09:38:44.000Z</time>
</trkpt>
<trkpt lat="46.0445010" lon="10.3840730">
	<ele>1656.80</ele>
	<time>2024-07-24T09:38:45.000Z</time>
</trkpt>
<trkpt lat="46.0445010" lon="10.3840730">
	<ele>1656.80</ele>
	<time>2024-07-24T09:38:46.000Z</time>
</trkpt>
<trkpt lat="46.0445010" lon="10.3840730">
	<ele>1656.80</ele>
	<time>2024-07-24T09:38:47.000Z</time>
</trkpt>
<trkpt lat="46.0445010" lon="10.3840730">
	<ele>1656.80</ele>
	<time>2024-07-24T09:38:48.000Z</time>
</trkpt>
<trkpt lat="46.0445010" lon="10.3840730">
	<ele>1656.80</ele>
	<time>2024-07-24T09:38:49.000Z</time>
</trkpt>
<trkpt lat="46.0445010" lon="10.3840730">
	<ele>1656.80</ele>
	<time>2024-07-24T09:38:50.000Z</time>
</trkpt>
<trkpt lat="46.0445010" lon="10.3840730">
	<ele>1656.80</ele>
	<time>2024-07-24T09:38:51.000Z</time>
</trkpt>
<trkpt lat="46.0445000" lon="10.3840720">
	<ele>1656.80</ele>
	<time>2024-07-24T09:38:52.000Z</time>
</trkpt>
<trkpt lat="46.0445000" lon="10.3840720">
	<ele>1656.80</ele>
	<time>2024-07-24T09:38:53.000Z</time>
</trkpt>
<trkpt lat="46.0445000" lon="10.3840710">
	<ele>1656.80</ele>
	<time>2024-07-24T09:38:54.000Z</time>
</trkpt>
<trkpt lat="46.0444990" lon="10.3840700">
	<ele>1656.80</ele>
	<time>2024-07-24T09:38:55.000Z</time>
</trkpt>
<trkpt lat="46.0444990" lon="10.3840690">
	<ele>1656.80</ele>
	<time>2024-07-24T09:38:56.000Z</time>
</trkpt>
<trkpt lat="46.0444990" lon="10.3840680">
	<ele>1656.80</ele>
	<time>2024-07-24T09:38:57.000Z</time>
</trkpt>
<trkpt lat="46.0444990" lon="10.3840680">
	<ele>1656.80</ele>
	<time>2024-07-24T09:38:58.000Z</time>
</trkpt>
<trkpt lat="46.0444990" lon="10.3840670">
	<ele>1656.80</ele>
	<time>2024-07-24T09:38:59.000Z</time>
</trkpt>
<trkpt lat="46.0444990" lon="10.3840670">
	<ele>1656.80</ele>
	<time>2024-07-24T09:39:00.000Z</time>
</trkpt>
<trkpt lat="46.0445000" lon="10.3840670">
	<ele>1656.80</ele>
	<time>2024-07-24T09:39:01.000Z</time>
</trkpt>
<trkpt lat="46.0445000" lon="10.3840670">
	<ele>1656.80</ele>
	<time>2024-07-24T09:39:02.000Z</time>
</trkpt>
<trkpt lat="46.0445010" lon="10.3840670">
	<ele>1656.80</ele>
	<time>2024-07-24T09:39:03.000Z</time>
</trkpt>
<trkpt lat="46.0445020" lon="10.3840680">
	<ele>1656.80</ele>
	<time>2024-07-24T09:39:04.000Z</time>
</trkpt>
<trkpt lat="46.0445030" lon="10.3840680">
	<ele>1656.80</ele>
	<time>2024-07-24T09:39:05.000Z</time>
</trkpt>
<trkpt lat="46.0445040" lon="10.3840680">
	<ele>1656.80</ele>
	<time>2024-07-24T09:39:06.000Z</time>
</trkpt>
<trkpt lat="46.0445050" lon="10.3840680">
	<ele>1656.80</ele>
	<time>2024-07-24T09:39:07.000Z</time>
</trkpt>
<trkpt lat="46.0445050" lon="10.3840680">
	<ele>1656.80</ele>
	<time>2024-07-24T09:39:08.000Z</time>
</trkpt>
<trkpt lat="46.0445060" lon="10.3840680">
	<ele>1656.80</ele>
	<time>2024-07-24T09:39:09.000Z</time>
</trkpt>
<trkpt lat="46.0445070" lon="10.3840680">
	<ele>1656.80</ele>
	<time>2024-07-24T09:39:10.000Z</time>
</trkpt>
<trkpt lat="46.0445080" lon="10.3840680">
	<ele>1656.80</ele>
	<time>2024-07-24T09:39:11.000Z</time>
</trkpt>
<trkpt lat="46.0445080" lon="10.3840680">
	<ele>1656.80</ele>
	<time>2024-07-24T09:39:12.000Z</time>
</trkpt>
<trkpt lat="46.0445080" lon="10.3840680">
	<ele>1656.80</ele>
	<time>2024-07-24T09:39:13.000Z</time>
</trkpt>
<trkpt lat="46.0445080" lon="10.3840680">
	<ele>1656.80</ele>
	<time>2024-07-24T09:39:14.000Z</time>
</trkpt>
<trkpt lat="46.0445080" lon="10.3840680">
	<ele>1656.80</ele>
	<time>2024-07-24T09:39:15.000Z</time>
</trkpt>
<trkpt lat="46.0445090" lon="10.3840680">
	<ele>1656.80</ele>
	<time>2024-07-24T09:39:16.000Z</time>
</trkpt>
<trkpt lat="46.0445090" lon="10.3840690">
	<ele>1656.80</ele>
	<time>2024-07-24T09:39:17.000Z</time>
</trkpt>
<trkpt lat="46.0445090" lon="10.3840710">
	<ele>1656.80</ele>
	<time>2024-07-24T09:39:18.000Z</time>
</trkpt>
<trkpt lat="46.0445110" lon="10.3840730">
	<ele>1656.80</ele>
	<time>2024-07-24T09:39:19.000Z</time>
</trkpt>
<trkpt lat="46.0445120" lon="10.3840770">
	<ele>1656.80</ele>
	<time>2024-07-24T09:39:20.000Z</time>
</trkpt>
<trkpt lat="46.0445140" lon="10.3840840">
	<ele>1656.80</ele>
	<time>2024-07-24T09:39:21.000Z</time>
</trkpt>
<trkpt lat="46.0445160" lon="10.3840890">
	<ele>1656.80</ele>
	<time>2024-07-24T09:39:22.000Z</time>
</trkpt>
<trkpt lat="46.0445190" lon="10.3840930">
	<ele>1656.80</ele>
	<time>2024-07-24T09:39:23.000Z</time>
</trkpt>
<trkpt lat="46.0445230" lon="10.3840970">
	<ele>1656.80</ele>
	<time>2024-07-24T09:39:24.000Z</time>
</trkpt>
<trkpt lat="46.0445260" lon="10.3840990">
	<ele>1656.80</ele>
	<time>2024-07-24T09:39:25.000Z</time>
</trkpt>
<trkpt lat="46.0445280" lon="10.3841010">
	<ele>1656.80</ele>
	<time>2024-07-24T09:39:26.000Z</time>
</trkpt>
<trkpt lat="46.0445300" lon="10.3841020">
	<ele>1656.80</ele>
	<time>2024-07-24T09:39:27.000Z</time>
</trkpt>
<trkpt lat="46.0445310" lon="10.3841030">
	<ele>1656.80</ele>
	<time>2024-07-24T09:39:28.000Z</time>
</trkpt>
<trkpt lat="46.0445330" lon="10.3841040">
	<ele>1656.80</ele>
	<time>2024-07-24T09:39:29.000Z</time>
</trkpt>
<trkpt lat="46.0445340" lon="10.3841050">
	<ele>1656.80</ele>
	<time>2024-07-24T09:39:30.000Z</time>
</trkpt>
<trkpt lat="46.0445350" lon="10.3841060">
	<ele>1656.80</ele>
	<time>2024-07-24T09:39:31.000Z</time>
</trkpt>
<trkpt lat="46.0445350" lon="10.3841060">
	<ele>1656.80</ele>
	<time>2024-07-24T09:39:32.000Z</time>
</trkpt>
<trkpt lat="46.0445360" lon="10.3841070">
	<ele>1656.80</ele>
	<time>2024-07-24T09:39:33.000Z</time>
</trkpt>
<trkpt lat="46.0445360" lon="10.3841070">
	<ele>1656.80</ele>
	<time>2024-07-24T09:39:34.000Z</time>
</trkpt>
<trkpt lat="46.0445360" lon="10.3841070">
	<ele>1656.80</ele>
	<time>2024-07-24T09:39:35.000Z</time>
</trkpt>
<trkpt lat="46.0445360" lon="10.3841070">
	<ele>1656.80</ele>
	<time>2024-07-24T09:39:36.000Z</time>
</trkpt>
<trkpt lat="46.0445360" lon="10.3841070">
	<ele>1656.80</ele>
	<time>2024-07-24T09:39:37.000Z</time>
</trkpt>
<trkpt lat="46.0445360" lon="10.3841070">
	<ele>1656.80</ele>
	<time>2024-07-24T09:39:38.000Z</time>
</trkpt>
<trkpt lat="46.0445360" lon="10.3841070">
	<ele>1656.80</ele>
	<time>2024-07-24T09:39:39.000Z</time>
</trkpt>
<trkpt lat="46.0445360" lon="10.3841070">
	<ele>1656.80</ele>
	<time>2024-07-24T09:39:40.000Z</time>
</trkpt>
<trkpt lat="46.0445360" lon="10.3841070">
	<ele>1656.80</ele>
	<time>2024-07-24T09:39:41.000Z</time>
</trkpt>
<trkpt lat="46.0445360" lon="10.3841070">
	<ele>1656.80</ele>
	<time>2024-07-24T09:39:42.000Z</time>
</trkpt>
<trkpt lat="46.0445360" lon="10.3841070">
	<ele>1656.80</ele>
	<time>2024-07-24T09:39:43.000Z</time>
</trkpt>
<trkpt lat="46.0445360" lon="10.3841070">
	<ele>1656.80</ele>
	<time>2024-07-24T09:39:44.000Z</time>
</trkpt>
<trkpt lat="46.0445360" lon="10.3841070">
	<ele>1656.80</ele>
	<time>2024-07-24T09:39:45.000Z</time>
</trkpt>
<trkpt lat="46.0445360" lon="10.3841070">
	<ele>1656.80</ele>
	<time>2024-07-24T09:39:46.000Z</time>
</trkpt>
<trkpt lat="46.0445360" lon="10.3841070">
	<ele>1656.80</ele>
	<time>2024-07-24T09:39:47.000Z</time>
</trkpt>
<trkpt lat="46.0445360" lon="10.3841070">
	<ele>1656.80</ele>
	<time>2024-07-24T09:39:48.000Z</time>
</trkpt>
<trkpt lat="46.0445360" lon="10.3841070">
	<ele>1656.80</ele>
	<time>2024-07-24T09:39:49.000Z</time>
</trkpt>
<trkpt lat="46.0445360" lon="10.3841070">
	<ele>1656.80</ele>
	<time>2024-07-24T09:39:50.000Z</time>
</trkpt>
<trkpt lat="46.0445350" lon="10.3841070">
	<ele>1656.80</ele>
	<time>2024-07-24T09:39:51.000Z</time>
</trkpt>
<trkpt lat="46.0445350" lon="10.3841080">
	<ele>1656.80</ele>
	<time>2024-07-24T09:39:52.000Z</time>
</trkpt>
<trkpt lat="46.0445350" lon="10.3841080">
	<ele>1656.80</ele>
	<time>2024-07-24T09:39:53.000Z</time>
</trkpt>
<trkpt lat="46.0445340" lon="10.3841090">
	<ele>1656.80</ele>
	<time>2024-07-24T09:39:54.000Z</time>
</trkpt>
<trkpt lat="46.0445340" lon="10.3841090">
	<ele>1656.80</ele>
	<time>2024-07-24T09:39:55.000Z</time>
</trkpt>
<trkpt lat="46.0445340" lon="10.3841080">
	<ele>1656.80</ele>
	<time>2024-07-24T09:39:56.000Z</time>
</trkpt>
<trkpt lat="46.0445340" lon="10.3841080">
	<ele>1656.80</ele>
	<time>2024-07-24T09:39:57.000Z</time>
</trkpt>
<trkpt lat="46.0445330" lon="10.3841070">
	<ele>1656.80</ele>
	<time>2024-07-24T09:39:58.000Z</time>
</trkpt>
<trkpt lat="46.0445330" lon="10.3841060">
	<ele>1656.80</ele>
	<time>2024-07-24T09:39:59.000Z</time>
</trkpt>
<trkpt lat="46.0445330" lon="10.3841050">
	<ele>1656.80</ele>
	<time>2024-07-24T09:40:00.000Z</time>
</trkpt>
<trkpt lat="46.0445320" lon="10.3841040">
	<ele>1656.80</ele>
	<time>2024-07-24T09:40:01.000Z</time>
</trkpt>
<trkpt lat="46.0445320" lon="10.3841040">
	<ele>1656.80</ele>
	<time>2024-07-24T09:40:02.000Z</time>
</trkpt>
<trkpt lat="46.0445310" lon="10.3841030">
	<ele>1656.80</ele>
	<time>2024-07-24T09:40:03.000Z</time>
</trkpt>
<trkpt lat="46.0445310" lon="10.3841030">
	<ele>1656.80</ele>
	<time>2024-07-24T09:40:04.000Z</time>
</trkpt>
<trkpt lat="46.0445310" lon="10.3841020">
	<ele>1656.80</ele>
	<time>2024-07-24T09:40:05.000Z</time>
</trkpt>
<trkpt lat="46.0445300" lon="10.3841020">
	<ele>1656.80</ele>
	<time>2024-07-24T09:40:06.000Z</time>
</trkpt>
<trkpt lat="46.0445300" lon="10.3841020">
	<ele>1656.80</ele>
	<time>2024-07-24T09:40:07.000Z</time>
</trkpt>
<trkpt lat="46.0445290" lon="10.3841010">
	<ele>1656.80</ele>
	<time>2024-07-24T09:40:08.000Z</time>
</trkpt>
<trkpt lat="46.0445290" lon="10.3841010">
	<ele>1656.80</ele>
	<time>2024-07-24T09:40:09.000Z</time>
</trkpt>
<trkpt lat="46.0445290" lon="10.3841010">
	<ele>1656.80</ele>
	<time>2024-07-24T09:40:10.000Z</time>
</trkpt>
<trkpt lat="46.0445280" lon="10.3841010">
	<ele>1656.80</ele>
	<time>2024-07-24T09:40:11.000Z</time>
</trkpt>
<trkpt lat="46.0445280" lon="10.3841010">
	<ele>1656.80</ele>
	<time>2024-07-24T09:40:12.000Z</time>
</trkpt>
<trkpt lat="46.0445290" lon="10.3841010">
	<ele>1656.80</ele>
	<time>2024-07-24T09:40:13.000Z</time>
</trkpt>
<trkpt lat="46.0445290" lon="10.3841010">
	<ele>1656.80</ele>
	<time>2024-07-24T09:40:14.000Z</time>
</trkpt>
<trkpt lat="46.0445290" lon="10.3841010">
	<ele>1656.80</ele>
	<time>2024-07-24T09:40:15.000Z</time>
</trkpt>
<trkpt lat="46.0445290" lon="10.3841010">
	<ele>1656.80</ele>
	<time>2024-07-24T09:40:16.000Z</time>
</trkpt>
<trkpt lat="46.0445290" lon="10.3841010">
	<ele>1656.80</ele>
	<time>2024-07-24T09:40:17.000Z</time>
</trkpt>
<trkpt lat="46.0445290" lon="10.3841010">
	<ele>1656.80</ele>
	<time>2024-07-24T09:40:18.000Z</time>
</trkpt>
<trkpt lat="46.0445290" lon="10.3841010">
	<ele>1656.80</ele>
	<time>2024-07-24T09:40:19.000Z</time>
</trkpt>
<trkpt lat="46.0445290" lon="10.3841010">
	<ele>1656.80</ele>
	<time>2024-07-24T09:40:20.000Z</time>
</trkpt>
<trkpt lat="46.0445290" lon="10.3841020">
	<ele>1656.80</ele>
	<time>2024-07-24T09:40:21.000Z</time>
</trkpt>
<trkpt lat="46.0445290" lon="10.3841020">
	<ele>1656.80</ele>
	<time>2024-07-24T09:40:22.000Z</time>
</trkpt>
<trkpt lat="46.0445290" lon="10.3841020">
	<ele>1656.80</ele>
	<time>2024-07-24T09:40:23.000Z</time>
</trkpt>
<trkpt lat="46.0445290" lon="10.3841020">
	<ele>1656.80</ele>
	<time>2024-07-24T09:40:24.000Z</time>
</trkpt>
<trkpt lat="46.0445290" lon="10.3841020">
	<ele>1656.80</ele>
	<time>2024-07-24T09:40:25.000Z</time>
</trkpt>
<trkpt lat="46.0445290" lon="10.3841020">
	<ele>1656.80</ele>
	<time>2024-07-24T09:40:26.000Z</time>
</trkpt>
<trkpt lat="46.0445300" lon="10.3841020">
	<ele>1656.80</ele>
	<time>2024-07-24T09:40:27.000Z</time>
</trkpt>
<trkpt lat="46.0445300" lon="10.3841020">
	<ele>1656.80</ele>
	<time>2024-07-24T09:40:28.000Z</time>
</trkpt>
<trkpt lat="46.0445300" lon="10.3841020">
	<ele>1656.80</ele>
	<time>2024-07-24T09:40:29.000Z</time>
</trkpt>
<trkpt lat="46.0445300" lon="10.3841020">
	<ele>1656.80</ele>
	<time>2024-07-24T09:40:30.000Z</time>
</trkpt>
<trkpt lat="46.0445300" lon="10.3841020">
	<ele>1656.80</ele>
	<time>2024-07-24T09:40:31.000Z</time>
</trkpt>
<trkpt lat="46.0445310" lon="10.3841020">
	<ele>1656.80</ele>
	<time>2024-07-24T09:40:32.000Z</time>
</trkpt>
<trkpt lat="46.0445310" lon="10.3841020">
	<ele>1656.80</ele>
	<time>2024-07-24T09:40:33.000Z</time>
</trkpt>
<trkpt lat="46.0445310" lon="10.3841020">
	<ele>1656.80</ele>
	<time>2024-07-24T09:40:34.000Z</time>
</trkpt>
<trkpt lat="46.0445310" lon="10.3841020">
	<ele>1656.80</ele>
	<time>2024-07-24T09:40:35.000Z</time>
</trkpt>
<trkpt lat="46.0445310" lon="10.3841020">
	<ele>1656.80</ele>
	<time>2024-07-24T09:40:36.000Z</time>
</trkpt>
<trkpt lat="46.0445310" lon="10.3841020">
	<ele>1656.80</ele>
	<time>2024-07-24T09:40:37.000Z</time>
</trkpt>
<trkpt lat="46.0445310" lon="10.3841020">
	<ele>1656.80</ele>
	<time>2024-07-24T09:40:38.000Z</time>
</trkpt>
<trkpt lat="46.0445310" lon="10.3841020">
	<ele>1656.80</ele>
	<time>2024-07-24T09:40:39.000Z</time>
</trkpt>
<trkpt lat="46.0445310" lon="10.3841020">
	<ele>1656.80</ele>
	<time>2024-07-24T09:40:40.000Z</time>
</trkpt>
<trkpt lat="46.0445310" lon="10.3841020">
	<ele>1656.80</ele>
	<time>2024-07-24T09:40:41.000Z</time>
</trkpt>
<trkpt lat="46.0445310" lon="10.3841020">
	<ele>1656.80</ele>
	<time>2024-07-24T09:40:42.000Z</time>
</trkpt>
<trkpt lat="46.0445310" lon="10.3841020">
	<ele>1656.80</ele>
	<time>2024-07-24T09:40:43.000Z</time>
</trkpt>
<trkpt lat="46.0445310" lon="10.3841020">
	<ele>1656.80</ele>
	<time>2024-07-24T09:40:44.000Z</time>
</trkpt>
<trkpt lat="46.0445310" lon="10.3841020">
	<ele>1656.80</ele>
	<time>2024-07-24T09:40:45.000Z</time>
</trkpt>
<trkpt lat="46.0445310" lon="10.3841020">
	<ele>1656.80</ele>
	<time>2024-07-24T09:40:46.000Z</time>
</trkpt>
<trkpt lat="46.0445310" lon="10.3841030">
	<ele>1656.80</ele>
	<time>2024-07-24T09:40:47.000Z</time>
</trkpt>
<trkpt lat="46.0445310" lon="10.3841030">
	<ele>1656.80</ele>
	<time>2024-07-24T09:40:48.000Z</time>
</trkpt>
<trkpt lat="46.0445310" lon="10.3841030">
	<ele>1656.80</ele>
	<time>2024-07-24T09:40:49.000Z</time>
</trkpt>
<trkpt lat="46.0445310" lon="10.3841030">
	<ele>1656.80</ele>
	<time>2024-07-24T09:40:50.000Z</time>
</trkpt>
<trkpt lat="46.0445320" lon="10.3841030">
	<ele>1656.80</ele>
	<time>2024-07-24T09:40:51.000Z</time>
</trkpt>
<trkpt lat="46.0445320" lon="10.3841030">
	<ele>1656.80</ele>
	<time>2024-07-24T09:40:52.000Z</time>
</trkpt>
<trkpt lat="46.0445320" lon="10.3841030">
	<ele>1656.80</ele>
	<time>2024-07-24T09:40:53.000Z</time>
</trkpt>
<trkpt lat="46.0445320" lon="10.3841030">
	<ele>1656.80</ele>
	<time>2024-07-24T09:40:54.000Z</time>
</trkpt>
<trkpt lat="46.0445320" lon="10.3841030">
	<ele>1656.80</ele>
	<time>2024-07-24T09:40:55.000Z</time>
</trkpt>
<trkpt lat="46.0445320" lon="10.3841030">
	<ele>1656.80</ele>
	<time>2024-07-24T09:40:56.000Z</time>
</trkpt>
<trkpt lat="46.0445320" lon="10.3841030">
	<ele>1656.80</ele>
	<time>2024-07-24T09:40:57.000Z</time>
</trkpt>
<trkpt lat="46.0445320" lon="10.3841030">
	<ele>1656.80</ele>
	<time>2024-07-24T09:40:58.000Z</time>
</trkpt>
<trkpt lat="46.0445320" lon="10.3841030">
	<ele>1656.80</ele>
	<time>2024-07-24T09:40:59.000Z</time>
</trkpt>
<trkpt lat="46.0445320" lon="10.3841030">
	<ele>1656.80</ele>
	<time>2024-07-24T09:41:00.000Z</time>
</trkpt>
<trkpt lat="46.0445320" lon="10.3841030">
	<ele>1656.80</ele>
	<time>2024-07-24T09:41:01.000Z</time>
</trkpt>
<trkpt lat="46.0445320" lon="10.3841030">
	<ele>1656.80</ele>
	<time>2024-07-24T09:41:02.000Z</time>
</trkpt>
<trkpt lat="46.0445320" lon="10.3841030">
	<ele>1656.80</ele>
	<time>2024-07-24T09:41:03.000Z</time>
</trkpt>
<trkpt lat="46.0445320" lon="10.3841030">
	<ele>1656.80</ele>
	<time>2024-07-24T09:41:04.000Z</time>
</trkpt>
<trkpt lat="46.0445320" lon="10.3841030">
	<ele>1656.80</ele>
	<time>2024-07-24T09:41:05.000Z</time>
</trkpt>
<trkpt lat="46.0445320" lon="10.3841030">
	<ele>1656.80</ele>
	<time>2024-07-24T09:41:06.000Z</time>
</trkpt>
<trkpt lat="46.0445320" lon="10.3841030">
	<ele>1656.80</ele>
	<time>2024-07-24T09:41:07.000Z</time>
</trkpt>
<trkpt lat="46.0445320" lon="10.3841030">
	<ele>1656.80</ele>
	<time>2024-07-24T09:41:08.000Z</time>
</trkpt>
<trkpt lat="46.0445320" lon="10.3841030">
	<ele>1656.80</ele>
	<time>2024-07-24T09:41:09.000Z</time>
</trkpt>
<trkpt lat="46.0445320" lon="10.3841030">
	<ele>1656.80</ele>
	<time>2024-07-24T09:41:10.000Z</time>
</trkpt>
<trkpt lat="46.0445320" lon="10.3841030">
	<ele>1656.80</ele>
	<time>2024-07-24T09:41:11.000Z</time>
</trkpt>
<trkpt lat="46.0445320" lon="10.3841030">
	<ele>1656.80</ele>
	<time>2024-07-24T09:41:12.000Z</time>
</trkpt>
<trkpt lat="46.0445320" lon="10.3841030">
	<ele>1656.80</ele>
	<time>2024-07-24T09:41:13.000Z</time>
</trkpt>
<trkpt lat="46.0445320" lon="10.3841030">
	<ele>1656.80</ele>
	<time>2024-07-24T09:41:14.000Z</time>
</trkpt>
<trkpt lat="46.0445330" lon="10.3841030">
	<ele>1656.80</ele>
	<time>2024-07-24T09:41:15.000Z</time>
</trkpt>
<trkpt lat="46.0445330" lon="10.3841030">
	<ele>1656.80</ele>
	<time>2024-07-24T09:41:16.000Z</time>
</trkpt>
<trkpt lat="46.0445330" lon="10.3841030">
	<ele>1656.80</ele>
	<time>2024-07-24T09:41:17.000Z</time>
</trkpt>
<trkpt lat="46.0445330" lon="10.3841030">
	<ele>1656.80</ele>
	<time>2024-07-24T09:41:18.000Z</time>
</trkpt>
<trkpt lat="46.0445330" lon="10.3841030">
	<ele>1656.80</ele>
	<time>2024-07-24T09:41:19.000Z</time>
</trkpt>
<trkpt lat="46.0445330" lon="10.3841030">
	<ele>1656.80</ele>
	<time>2024-07-24T09:41:20.000Z</time>
</trkpt>
<trkpt lat="46.0445330" lon="10.3841030">
	<ele>1656.80</ele>
	<time>2024-07-24T09:41:21.000Z</time>
</trkpt>
<trkpt lat="46.0445330" lon="10.3841030">
	<ele>1656.80</ele>
	<time>2024-07-24T09:41:22.000Z</time>
</trkpt>
<trkpt lat="46.0445330" lon="10.3841030">
	<ele>1656.80</ele>
	<time>2024-07-24T09:41:23.000Z</time>
</trkpt>
<trkpt lat="46.0445330" lon="10.3841030">
	<ele>1656.80</ele>
	<time>2024-07-24T09:41:24.000Z</time>
</trkpt>
<trkpt lat="46.0445330" lon="10.3841030">
	<ele>1656.80</ele>
	<time>2024-07-24T09:41:25.000Z</time>
</trkpt>
<trkpt lat="46.0445330" lon="10.3841030">
	<ele>1656.80</ele>
	<time>2024-07-24T09:41:26.000Z</time>
</trkpt>
<trkpt lat="46.0445330" lon="10.3841030">
	<ele>1656.80</ele>
	<time>2024-07-24T09:41:27.000Z</time>
</trkpt>
<trkpt lat="46.0445330" lon="10.3841030">
	<ele>1656.80</ele>
	<time>2024-07-24T09:41:28.000Z</time>
</trkpt>
<trkpt lat="46.0445330" lon="10.3841030">
	<ele>1656.80</ele>
	<time>2024-07-24T09:41:29.000Z</time>
</trkpt>
<trkpt lat="46.0445330" lon="10.3841030">
	<ele>1656.80</ele>
	<time>2024-07-24T09:41:30.000Z</time>
</trkpt>
<trkpt lat="46.0445330" lon="10.3841030">
	<ele>1656.80</ele>
	<time>2024-07-24T09:41:31.000Z</time>
</trkpt>
<trkpt lat="46.0445330" lon="10.3841030">
	<ele>1656.80</ele>
	<time>2024-07-24T09:41:32.000Z</time>
</trkpt>
<trkpt lat="46.0445330" lon="10.3841030">
	<ele>1656.80</ele>
	<time>2024-07-24T09:41:33.000Z</time>
</trkpt>
<trkpt lat="46.0445330" lon="10.3841030">
	<ele>1656.80</ele>
	<time>2024-07-24T09:41:34.000Z</time>
</trkpt>
<trkpt lat="46.0445320" lon="10.3841030">
	<ele>1656.80</ele>
	<time>2024-07-24T09:41:35.000Z</time>
</trkpt>
<trkpt lat="46.0445320" lon="10.3841030">
	<ele>1656.80</ele>
	<time>2024-07-24T09:41:36.000Z</time>
</trkpt>
<trkpt lat="46.0445330" lon="10.3841030">
	<ele>1656.80</ele>
	<time>2024-07-24T09:41:37.000Z</time>
</trkpt>
<trkpt lat="46.0445330" lon="10.3841030">
	<ele>1656.80</ele>
	<time>2024-07-24T09:41:38.000Z</time>
</trkpt>
<trkpt lat="46.0445320" lon="10.3841030">
	<ele>1656.80</ele>
	<time>2024-07-24T09:41:39.000Z</time>
</trkpt>
<trkpt lat="46.0445320" lon="10.3841030">
	<ele>1656.80</ele>
	<time>2024-07-24T09:41:40.000Z</time>
</trkpt>
<trkpt lat="46.0445320" lon="10.3841030">
	<ele>1656.80</ele>
	<time>2024-07-24T09:41:41.000Z</time>
</trkpt>
<trkpt lat="46.0445320" lon="10.3841030">
	<ele>1656.80</ele>
	<time>2024-07-24T09:41:42.000Z</time>
</trkpt>
<trkpt lat="46.0445320" lon="10.3841030">
	<ele>1656.80</ele>
	<time>2024-07-24T09:41:43.000Z</time>
</trkpt>
<trkpt lat="46.0445320" lon="10.3841030">
	<ele>1656.80</ele>
	<time>2024-07-24T09:41:44.000Z</time>
</trkpt>
<trkpt lat="46.0445330" lon="10.3841030">
	<ele>1656.80</ele>
	<time>2024-07-24T09:41:45.000Z</time>
</trkpt>
<trkpt lat="46.0445330" lon="10.3841030">
	<ele>1656.80</ele>
	<time>2024-07-24T09:41:46.000Z</time>
</trkpt>
<trkpt lat="46.0445330" lon="10.3841030">
	<ele>1656.80</ele>
	<time>2024-07-24T09:41:47.000Z</time>
</trkpt>
<trkpt lat="46.0445330" lon="10.3841030">
	<ele>1656.80</ele>
	<time>2024-07-24T09:41:48.000Z</time>
</trkpt>
<trkpt lat="46.0445330" lon="10.3841030">
	<ele>1656.80</ele>
	<time>2024-07-24T09:41:49.000Z</time>
</trkpt>
<trkpt lat="46.0445330" lon="10.3841030">
	<ele>1656.80</ele>
	<time>2024-07-24T09:41:50.000Z</time>
</trkpt>
<trkpt lat="46.0445330" lon="10.3841030">
	<ele>1656.80</ele>
	<time>2024-07-24T09:41:51.000Z</time>
</trkpt>
<trkpt lat="46.0445330" lon="10.3841030">
	<ele>1656.80</ele>
	<time>2024-07-24T09:41:52.000Z</time>
</trkpt>
<trkpt lat="46.0445330" lon="10.3841030">
	<ele>1656.80</ele>
	<time>2024-07-24T09:41:53.000Z</time>
</trkpt>
<trkpt lat="46.0445330" lon="10.3841030">
	<ele>1656.80</ele>
	<time>2024-07-24T09:41:54.000Z</time>
</trkpt>
<trkpt lat="46.0445330" lon="10.3841030">
	<ele>1656.80</ele>
	<time>2024-07-24T09:41:55.000Z</time>
</trkpt>
<trkpt lat="46.0445330" lon="10.3841030">
	<ele>1656.80</ele>
	<time>2024-07-24T09:41:56.000Z</time>
</trkpt>
<trkpt lat="46.0445330" lon="10.3841030">
	<ele>1656.80</ele>
	<time>2024-07-24T09:41:57.000Z</time>
</trkpt>
<trkpt lat="46.0445330" lon="10.3841030">
	<ele>1656.80</ele>
	<time>2024-07-24T09:41:58.000Z</time>
</trkpt>
<trkpt lat="46.0445330" lon="10.3841030">
	<ele>1656.80</ele>
	<time>2024-07-24T09:41:59.000Z</time>
</trkpt>
<trkpt lat="46.0445330" lon="10.3841030">
	<ele>1656.80</ele>
	<time>2024-07-24T09:42:00.000Z</time>
</trkpt>
<trkpt lat="46.0445330" lon="10.3841030">
	<ele>1656.80</ele>
	<time>2024-07-24T09:42:01.000Z</time>
</trkpt>
<trkpt lat="46.0445330" lon="10.3841030">
	<ele>1656.80</ele>
	<time>2024-07-24T09:42:02.000Z</time>
</trkpt>
<trkpt lat="46.0445320" lon="10.3841030">
	<ele>1656.80</ele>
	<time>2024-07-24T09:42:03.000Z</time>
</trkpt>
<trkpt lat="46.0445320" lon="10.3841030">
	<ele>1656.80</ele>
	<time>2024-07-24T09:42:04.000Z</time>
</trkpt>
<trkpt lat="46.0445320" lon="10.3841030">
	<ele>1656.80</ele>
	<time>2024-07-24T09:42:05.000Z</time>
</trkpt>
<trkpt lat="46.0445330" lon="10.3841110">
	<ele>1656.80</ele>
	<time>2024-07-24T09:42:06.000Z</time>
</trkpt>
<trkpt lat="46.0445350" lon="10.3841340">
	<ele>1656.80</ele>
	<time>2024-07-24T09:42:07.000Z</time>
</trkpt>
<trkpt lat="46.0445370" lon="10.3841540">
	<ele>1656.80</ele>
	<time>2024-07-24T09:42:08.000Z</time>
</trkpt>
<trkpt lat="46.0445390" lon="10.3841730">
	<ele>1656.80</ele>
	<time>2024-07-24T09:42:09.000Z</time>
</trkpt>
<trkpt lat="46.0445390" lon="10.3841900">
	<ele>1656.80</ele>
	<time>2024-07-24T09:42:10.000Z</time>
</trkpt>
<trkpt lat="46.0445390" lon="10.3842080">
	<ele>1656.80</ele>
	<time>2024-07-24T09:42:11.000Z</time>
</trkpt>
<trkpt lat="46.0445400" lon="10.3842260">
	<ele>1656.80</ele>
	<time>2024-07-24T09:42:12.000Z</time>
</trkpt>
<trkpt lat="46.0445410" lon="10.3842370">
	<ele>1656.80</ele>
	<time>2024-07-24T09:42:13.000Z</time>
</trkpt>
<trkpt lat="46.0445430" lon="10.3842510">
	<ele>1656.80</ele>
	<time>2024-07-24T09:42:14.000Z</time>
</trkpt>
<trkpt lat="46.0445430" lon="10.3842630">
	<ele>1656.80</ele>
	<time>2024-07-24T09:42:15.000Z</time>
</trkpt>
<trkpt lat="46.0445430" lon="10.3842660">
	<ele>1656.80</ele>
	<time>2024-07-24T09:42:16.000Z</time>
</trkpt>
<trkpt lat="46.0445430" lon="10.3842720">
	<ele>1656.80</ele>
	<time>2024-07-24T09:42:17.000Z</time>
</trkpt>
<trkpt lat="46.0445460" lon="10.3842800">
	<ele>1656.80</ele>
	<time>2024-07-24T09:42:18.000Z</time>
</trkpt>
<trkpt lat="46.0445540" lon="10.3843340">
	<ele>1662.20</ele>
	<time>2024-07-24T09:45:09.000Z</time>
</trkpt>
<trkpt lat="46.0446280" lon="10.3842830">
	<ele>1662.00</ele>
	<time>2024-07-24T09:45:10.000Z</time>
</trkpt>
<trkpt lat="46.0446240" lon="10.3843410">
	<ele>1662.00</ele>
	<time>2024-07-24T09:45:11.000Z</time>
</trkpt>
<trkpt lat="46.0446430" lon="10.3843140">
	<ele>1661.80</ele>
	<time>2024-07-24T09:45:12.000Z</time>
</trkpt>
<trkpt lat="46.0446270" lon="10.3843010">
	<ele>1661.80</ele>
	<time>2024-07-24T09:45:13.000Z</time>
</trkpt>
<trkpt lat="46.0446220" lon="10.3842980">
	<ele>1661.80</ele>
	<time>2024-07-24T09:45:14.000Z</time>
</trkpt>
<trkpt lat="46.0446180" lon="10.3842800">
	<ele>1661.80</ele>
	<time>2024-07-24T09:45:15.000Z</time>
</trkpt>
<trkpt lat="46.0446260" lon="10.3842730">
	<ele>1661.80</ele>
	<time>2024-07-24T09:45:16.000Z</time>
</trkpt>
<trkpt lat="46.0446260" lon="10.3842680">
	<ele>1661.80</ele>
	<time>2024-07-24T09:45:17.000Z</time>
</trkpt>
<trkpt lat="46.0446150" lon="10.3842440">
	<ele>1661.80</ele>
	<time>2024-07-24T09:45:18.000Z</time>
</trkpt>
<trkpt lat="46.0446120" lon="10.3842290">
	<ele>1661.80</ele>
	<time>2024-07-24T09:45:19.000Z</time>
</trkpt>
<trkpt lat="46.0446090" lon="10.3842120">
	<ele>1661.80</ele>
	<time>2024-07-24T09:45:20.000Z</time>
</trkpt>
<trkpt lat="46.0446090" lon="10.3842010">
	<ele>1661.60</ele>
	<time>2024-07-24T09:45:21.000Z</time>
</trkpt>
<trkpt lat="46.0446010" lon="10.3841920">
	<ele>1661.60</ele>
	<time>2024-07-24T09:45:22.000Z</time>
</trkpt>
<trkpt lat="46.0445910" lon="10.3841830">
	<ele>1661.60</ele>
	<time>2024-07-24T09:45:23.000Z</time>
</trkpt>
<trkpt lat="46.0445850" lon="10.3841750">
	<ele>1661.40</ele>
	<time>2024-07-24T09:45:24.000Z</time>
</trkpt>
<trkpt lat="46.0445800" lon="10.3841650">
	<ele>1661.40</ele>
	<time>2024-07-24T09:45:25.000Z</time>
</trkpt>
<trkpt lat="46.0445750" lon="10.3841580">
	<ele>1661.40</ele>
	<time>2024-07-24T09:45:26.000Z</time>
</trkpt>
<trkpt lat="46.0445710" lon="10.3841520">
	<ele>1661.40</ele>
	<time>2024-07-24T09:45:27.000Z</time>
</trkpt>
<trkpt lat="46.0445670" lon="10.3841460">
	<ele>1661.60</ele>
	<time>2024-07-24T09:45:28.000Z</time>
</trkpt>
<trkpt lat="46.0445660" lon="10.3841440">
	<ele>1661.60</ele>
	<time>2024-07-24T09:45:29.000Z</time>
</trkpt>
<trkpt lat="46.0445650" lon="10.3841450">
	<ele>1661.60</ele>
	<time>2024-07-24T09:45:30.000Z</time>
</trkpt>
<trkpt lat="46.0445670" lon="10.3841500">
	<ele>1661.60</ele>
	<time>2024-07-24T09:45:31.000Z</time>
</trkpt>
<trkpt lat="46.0445670" lon="10.3841520">
	<ele>1661.60</ele>
	<time>2024-07-24T09:45:32.000Z</time>
</trkpt>
<trkpt lat="46.0445650" lon="10.3841520">
	<ele>1661.60</ele>
	<time>2024-07-24T09:45:33.000Z</time>
</trkpt>
<trkpt lat="46.0445640" lon="10.3841500">
	<ele>1661.60</ele>
	<time>2024-07-24T09:45:34.000Z</time>
</trkpt>
<trkpt lat="46.0445600" lon="10.3841470">
	<ele>1661.60</ele>
	<time>2024-07-24T09:45:35.000Z</time>
</trkpt>
<trkpt lat="46.0445570" lon="10.3841430">
	<ele>1661.60</ele>
	<time>2024-07-24T09:45:36.000Z</time>
</trkpt>
<trkpt lat="46.0445560" lon="10.3841420">
	<ele>1661.60</ele>
	<time>2024-07-24T09:45:37.000Z</time>
</trkpt>
<trkpt lat="46.0445580" lon="10.3841460">
	<ele>1661.60</ele>
	<time>2024-07-24T09:45:38.000Z</time>
</trkpt>
<trkpt lat="46.0445580" lon="10.3841510">
	<ele>1661.60</ele>
	<time>2024-07-24T09:45:39.000Z</time>
</trkpt>
<trkpt lat="46.0445570" lon="10.3841600">
	<ele>1661.60</ele>
	<time>2024-07-24T09:45:40.000Z</time>
</trkpt>
<trkpt lat="46.0445560" lon="10.3841640">
	<ele>1661.60</ele>
	<time>2024-07-24T09:45:41.000Z</time>
</trkpt>
<trkpt lat="46.0445570" lon="10.3841630">
	<ele>1661.60</ele>
	<time>2024-07-24T09:45:42.000Z</time>
</trkpt>
<trkpt lat="46.0445520" lon="10.3841660">
	<ele>1661.80</ele>
	<time>2024-07-24T09:45:43.000Z</time>
</trkpt>
<trkpt lat="46.0445470" lon="10.3841720">
	<ele>1661.80</ele>
	<time>2024-07-24T09:45:44.000Z</time>
</trkpt>
<trkpt lat="46.0445450" lon="10.3841770">
	<ele>1661.80</ele>
	<time>2024-07-24T09:45:45.000Z</time>
</trkpt>
<trkpt lat="46.0445440" lon="10.3841820">
	<ele>1661.80</ele>
	<time>2024-07-24T09:45:46.000Z</time>
</trkpt>
<trkpt lat="46.0445380" lon="10.3841900">
	<ele>1662.00</ele>
	<time>2024-07-24T09:45:47.000Z</time>
</trkpt>
<trkpt lat="46.0445290" lon="10.3842020">
	<ele>1662.00</ele>
	<time>2024-07-24T09:45:48.000Z</time>
</trkpt>
<trkpt lat="46.0445210" lon="10.3842130">
	<ele>1662.00</ele>
	<time>2024-07-24T09:45:49.000Z</time>
</trkpt>
<trkpt lat="46.0445140" lon="10.3842250">
	<ele>1662.20</ele>
	<time>2024-07-24T09:45:50.000Z</time>
</trkpt>
<trkpt lat="46.0445060" lon="10.3842340">
	<ele>1662.20</ele>
	<time>2024-07-24T09:45:51.000Z</time>
</trkpt>
<trkpt lat="46.0444980" lon="10.3842410">
	<ele>1662.40</ele>
	<time>2024-07-24T09:45:52.000Z</time>
</trkpt>
<trkpt lat="46.0444890" lon="10.3842500">
	<ele>1662.40</ele>
	<time>2024-07-24T09:45:53.000Z</time>
</trkpt>
<trkpt lat="46.0444800" lon="10.3842600">
	<ele>1662.40</ele>
	<time>2024-07-24T09:45:54.000Z</time>
</trkpt>
<trkpt lat="46.0444720" lon="10.3842730">
	<ele>1662.40</ele>
	<time>2024-07-24T09:45:55.000Z</time>
</trkpt>
<trkpt lat="46.0444630" lon="10.3842860">
	<ele>1662.40</ele>
	<time>2024-07-24T09:45:56.000Z</time>
</trkpt>
<trkpt lat="46.0444530" lon="10.3842980">
	<ele>1662.40</ele>
	<time>2024-07-24T09:45:57.000Z</time>
</trkpt>
<trkpt lat="46.0444410" lon="10.3843080">
	<ele>1662.20</ele>
	<time>2024-07-24T09:45:58.000Z</time>
</trkpt>
<trkpt lat="46.0444310" lon="10.3843180">
	<ele>1662.20</ele>
	<time>2024-07-24T09:45:59.000Z</time>
</trkpt>
<trkpt lat="46.0444180" lon="10.3843290">
	<ele>1662.20</ele>
	<time>2024-07-24T09:46:00.000Z</time>
</trkpt>
<trkpt lat="46.0444070" lon="10.3843400">
	<ele>1662.20</ele>
	<time>2024-07-24T09:46:01.000Z</time>
</trkpt>
<trkpt lat="46.0443960" lon="10.3843510">
	<ele>1662.20</ele>
	<time>2024-07-24T09:46:02.000Z</time>
</trkpt>
<trkpt lat="46.0443870" lon="10.3843640">
	<ele>1662.20</ele>
	<time>2024-07-24T09:46:03.000Z</time>
</trkpt>
<trkpt lat="46.0443780" lon="10.3843750">
	<ele>1662.20</ele>
	<time>2024-07-24T09:46:04.000Z</time>
</trkpt>
<trkpt lat="46.0443700" lon="10.3843890">
	<ele>1662.20</ele>
	<time>2024-07-24T09:46:05.000Z</time>
</trkpt>
<trkpt lat="46.0443570" lon="10.3844000">
	<ele>1662.20</ele>
	<time>2024-07-24T09:46:06.000Z</time>
</trkpt>
<trkpt lat="46.0443450" lon="10.3844090">
	<ele>1662.40</ele>
	<time>2024-07-24T09:46:07.000Z</time>
</trkpt>
<trkpt lat="46.0443360" lon="10.3844180">
	<ele>1662.40</ele>
	<time>2024-07-24T09:46:08.000Z</time>
</trkpt>
<trkpt lat="46.0443260" lon="10.3844260">
	<ele>1662.40</ele>
	<time>2024-07-24T09:46:09.000Z</time>
</trkpt>
<trkpt lat="46.0443170" lon="10.3844370">
	<ele>1662.60</ele>
	<time>2024-07-24T09:46:10.000Z</time>
</trkpt>
<trkpt lat="46.0443070" lon="10.3844470">
	<ele>1662.60</ele>
	<time>2024-07-24T09:46:11.000Z</time>
</trkpt>
<trkpt lat="46.0442980" lon="10.3844590">
	<ele>1662.60</ele>
	<time>2024-07-24T09:46:12.000Z</time>
</trkpt>
<trkpt lat="46.0442880" lon="10.3844740">
	<ele>1662.60</ele>
	<time>2024-07-24T09:46:13.000Z</time>
</trkpt>
<trkpt lat="46.0442780" lon="10.3844860">
	<ele>1662.60</ele>
	<time>2024-07-24T09:46:14.000Z</time>
</trkpt>
<trkpt lat="46.0442670" lon="10.3844980">
	<ele>1662.60</ele>
	<time>2024-07-24T09:46:15.000Z</time>
</trkpt>
<trkpt lat="46.0442570" lon="10.3845090">
	<ele>1662.60</ele>
	<time>2024-07-24T09:46:16.000Z</time>
</trkpt>
<trkpt lat="46.0442460" lon="10.3845200">
	<ele>1662.40</ele>
	<time>2024-07-24T09:46:17.000Z</time>
</trkpt>
<trkpt lat="46.0442330" lon="10.3845290">
	<ele>1662.40</ele>
	<time>2024-07-24T09:46:18.000Z</time>
</trkpt>
<trkpt lat="46.0442200" lon="10.3845390">
	<ele>1662.40</ele>
	<time>2024-07-24T09:46:19.000Z</time>
</trkpt>
<trkpt lat="46.0442100" lon="10.3845530">
	<ele>1662.40</ele>
	<time>2024-07-24T09:46:20.000Z</time>
</trkpt>
<trkpt lat="46.0442020" lon="10.3845670">
	<ele>1662.40</ele>
	<time>2024-07-24T09:46:21.000Z</time>
</trkpt>
<trkpt lat="46.0441930" lon="10.3845790">
	<ele>1662.40</ele>
	<time>2024-07-24T09:46:22.000Z</time>
</trkpt>
<trkpt lat="46.0441820" lon="10.3845860">
	<ele>1662.40</ele>
	<time>2024-07-24T09:46:23.000Z</time>
</trkpt>
<trkpt lat="46.0441710" lon="10.3845940">
	<ele>1662.40</ele>
	<time>2024-07-24T09:46:24.000Z</time>
</trkpt>
<trkpt lat="46.0441600" lon="10.3846050">
	<ele>1662.40</ele>
	<time>2024-07-24T09:46:25.000Z</time>
</trkpt>
<trkpt lat="46.0441520" lon="10.3846230">
	<ele>1662.40</ele>
	<time>2024-07-24T09:46:26.000Z</time>
</trkpt>
<trkpt lat="46.0441430" lon="10.3846340">
	<ele>1662.20</ele>
	<time>2024-07-24T09:46:27.000Z</time>
</trkpt>
<trkpt lat="46.0441340" lon="10.3846390">
	<ele>1662.20</ele>
	<time>2024-07-24T09:46:28.000Z</time>
</trkpt>
<trkpt lat="46.0441260" lon="10.3846460">
	<ele>1662.20</ele>
	<time>2024-07-24T09:46:29.000Z</time>
</trkpt>
<trkpt lat="46.0441160" lon="10.3846480">
	<ele>1662.20</ele>
	<time>2024-07-24T09:46:30.000Z</time>
</trkpt>
<trkpt lat="46.0441070" lon="10.3846540">
	<ele>1662.00</ele>
	<time>2024-07-24T09:46:31.000Z</time>
</trkpt>
<trkpt lat="46.0440970" lon="10.3846570">
	<ele>1662.00</ele>
	<time>2024-07-24T09:46:32.000Z</time>
</trkpt>
<trkpt lat="46.0440910" lon="10.3846640">
	<ele>1662.00</ele>
	<time>2024-07-24T09:46:33.000Z</time>
</trkpt>
<trkpt lat="46.0440840" lon="10.3846690">
	<ele>1662.00</ele>
	<time>2024-07-24T09:46:34.000Z</time>
</trkpt>
<trkpt lat="46.0440800" lon="10.3846720">
	<ele>1662.00</ele>
	<time>2024-07-24T09:46:35.000Z</time>
</trkpt>
<trkpt lat="46.0440790" lon="10.3846780">
	<ele>1662.20</ele>
	<time>2024-07-24T09:46:36.000Z</time>
</trkpt>
<trkpt lat="46.0440770" lon="10.3846800">
	<ele>1662.20</ele>
	<time>2024-07-24T09:46:37.000Z</time>
</trkpt>
<trkpt lat="46.0440750" lon="10.3846810">
	<ele>1662.20</ele>
	<time>2024-07-24T09:46:38.000Z</time>
</trkpt>
<trkpt lat="46.0440770" lon="10.3846840">
	<ele>1662.20</ele>
	<time>2024-07-24T09:46:39.000Z</time>
</trkpt>
<trkpt lat="46.0440760" lon="10.3846820">
	<ele>1662.20</ele>
	<time>2024-07-24T09:46:40.000Z</time>
</trkpt>
<trkpt lat="46.0440740" lon="10.3846810">
	<ele>1662.20</ele>
	<time>2024-07-24T09:46:41.000Z</time>
</trkpt>
<trkpt lat="46.0440700" lon="10.3846740">
	<ele>1662.20</ele>
	<time>2024-07-24T09:46:42.000Z</time>
</trkpt>
<trkpt lat="46.0440670" lon="10.3846680">
	<ele>1662.20</ele>
	<time>2024-07-24T09:46:43.000Z</time>
</trkpt>
<trkpt lat="46.0440670" lon="10.3846660">
	<ele>1662.20</ele>
	<time>2024-07-24T09:46:44.000Z</time>
</trkpt>
<trkpt lat="46.0440640" lon="10.3846620">
	<ele>1662.20</ele>
	<time>2024-07-24T09:46:45.000Z</time>
</trkpt>
<trkpt lat="46.0440640" lon="10.3846590">
	<ele>1662.40</ele>
	<time>2024-07-24T09:46:46.000Z</time>
</trkpt>
<trkpt lat="46.0440640" lon="10.3846590">
	<ele>1662.40</ele>
	<time>2024-07-24T09:46:47.000Z</time>
</trkpt>
<trkpt lat="46.0440640" lon="10.3846590">
	<ele>1662.40</ele>
	<time>2024-07-24T09:46:48.000Z</time>
</trkpt>
<trkpt lat="46.0440640" lon="10.3846590">
	<ele>1662.40</ele>
	<time>2024-07-24T09:46:49.000Z</time>
</trkpt>
<trkpt lat="46.0440640" lon="10.3846590">
	<ele>1662.40</ele>
	<time>2024-07-24T09:46:50.000Z</time>
</trkpt>
<trkpt lat="46.0440640" lon="10.3846590">
	<ele>1662.40</ele>
	<time>2024-07-24T09:46:51.000Z</time>
</trkpt>
<trkpt lat="46.0440640" lon="10.3846590">
	<ele>1662.20</ele>
	<time>2024-07-24T09:46:52.000Z</time>
</trkpt>
<trkpt lat="46.0440640" lon="10.3846590">
	<ele>1662.20</ele>
	<time>2024-07-24T09:46:53.000Z</time>
</trkpt>
<trkpt lat="46.0440640" lon="10.3846590">
	<ele>1662.20</ele>
	<time>2024-07-24T09:46:54.000Z</time>
</trkpt>
<trkpt lat="46.0440640" lon="10.3846590">
	<ele>1662.20</ele>
	<time>2024-07-24T09:46:55.000Z</time>
</trkpt>
<trkpt lat="46.0440640" lon="10.3846590">
	<ele>1662.20</ele>
	<time>2024-07-24T09:46:56.000Z</time>
</trkpt>
<trkpt lat="46.0440640" lon="10.3846590">
	<ele>1662.20</ele>
	<time>2024-07-24T09:46:57.000Z</time>
</trkpt>
<trkpt lat="46.0440640" lon="10.3846590">
	<ele>1662.00</ele>
	<time>2024-07-24T09:46:58.000Z</time>
</trkpt>
<trkpt lat="46.0440640" lon="10.3846590">
	<ele>1662.20</ele>
	<time>2024-07-24T09:46:59.000Z</time>
</trkpt>
<trkpt lat="46.0440640" lon="10.3846590">
	<ele>1662.20</ele>
	<time>2024-07-24T09:47:00.000Z</time>
</trkpt>
<trkpt lat="46.0440640" lon="10.3846590">
	<ele>1662.20</ele>
	<time>2024-07-24T09:47:01.000Z</time>
</trkpt>
<trkpt lat="46.0440630" lon="10.3846580">
	<ele>1662.20</ele>
	<time>2024-07-24T09:47:02.000Z</time>
</trkpt>
<trkpt lat="46.0440620" lon="10.3846540">
	<ele>1662.20</ele>
	<time>2024-07-24T09:47:03.000Z</time>
</trkpt>
<trkpt lat="46.0440600" lon="10.3846520">
	<ele>1662.20</ele>
	<time>2024-07-24T09:47:04.000Z</time>
</trkpt>
<trkpt lat="46.0440590" lon="10.3846510">
	<ele>1662.20</ele>
	<time>2024-07-24T09:47:05.000Z</time>
</trkpt>
<trkpt lat="46.0440580" lon="10.3846500">
	<ele>1662.40</ele>
	<time>2024-07-24T09:47:06.000Z</time>
</trkpt>
<trkpt lat="46.0440560" lon="10.3846480">
	<ele>1662.40</ele>
	<time>2024-07-24T09:47:07.000Z</time>
</trkpt>
<trkpt lat="46.0440530" lon="10.3846450">
	<ele>1662.60</ele>
	<time>2024-07-24T09:47:08.000Z</time>
</trkpt>
<trkpt lat="46.0440520" lon="10.3846440">
	<ele>1662.60</ele>
	<time>2024-07-24T09:47:09.000Z</time>
</trkpt>
<trkpt lat="46.0440520" lon="10.3846440">
	<ele>1662.40</ele>
	<time>2024-07-24T09:47:10.000Z</time>
</trkpt>
<trkpt lat="46.0440520" lon="10.3846440">
	<ele>1662.40</ele>
	<time>2024-07-24T09:47:11.000Z</time>
</trkpt>
<trkpt lat="46.0440520" lon="10.3846440">
	<ele>1662.40</ele>
	<time>2024-07-24T09:47:12.000Z</time>
</trkpt>
<trkpt lat="46.0440520" lon="10.3846440">
	<ele>1662.40</ele>
	<time>2024-07-24T09:47:13.000Z</time>
</trkpt>
<trkpt lat="46.0440520" lon="10.3846440">
	<ele>1662.40</ele>
	<time>2024-07-24T09:47:14.000Z</time>
</trkpt>
<trkpt lat="46.0440560" lon="10.3846450">
	<ele>1662.20</ele>
	<time>2024-07-24T09:47:15.000Z</time>
</trkpt>
<trkpt lat="46.0440630" lon="10.3846520">
	<ele>1662.40</ele>
	<time>2024-07-24T09:47:16.000Z</time>
</trkpt>
<trkpt lat="46.0440670" lon="10.3846620">
	<ele>1662.40</ele>
	<time>2024-07-24T09:47:17.000Z</time>
</trkpt>
<trkpt lat="46.0440680" lon="10.3846690">
	<ele>1662.40</ele>
	<time>2024-07-24T09:47:18.000Z</time>
</trkpt>
<trkpt lat="46.0440680" lon="10.3846770">
	<ele>1662.40</ele>
	<time>2024-07-24T09:47:19.000Z</time>
</trkpt>
<trkpt lat="46.0440660" lon="10.3846890">
	<ele>1662.60</ele>
	<time>2024-07-24T09:47:20.000Z</time>
</trkpt>
<trkpt lat="46.0440640" lon="10.3847050">
	<ele>1662.60</ele>
	<time>2024-07-24T09:47:21.000Z</time>
</trkpt>
<trkpt lat="46.0440630" lon="10.3847230">
	<ele>1662.60</ele>
	<time>2024-07-24T09:47:22.000Z</time>
</trkpt>
<trkpt lat="46.0440580" lon="10.3847370">
	<ele>1662.60</ele>
	<time>2024-07-24T09:47:23.000Z</time>
</trkpt>
<trkpt lat="46.0440540" lon="10.3847520">
	<ele>1662.60</ele>
	<time>2024-07-24T09:47:24.000Z</time>
</trkpt>
<trkpt lat="46.0440440" lon="10.3847680">
	<ele>1662.60</ele>
	<time>2024-07-24T09:47:25.000Z</time>
</trkpt>
<trkpt lat="46.0440320" lon="10.3847790">
	<ele>1662.60</ele>
	<time>2024-07-24T09:47:26.000Z</time>
</trkpt>
<trkpt lat="46.0440190" lon="10.3847840">
	<ele>1662.60</ele>
	<time>2024-07-24T09:47:27.000Z</time>
</trkpt>
<trkpt lat="46.0440070" lon="10.3847880">
	<ele>1662.60</ele>
	<time>2024-07-24T09:47:28.000Z</time>
</trkpt>
<trkpt lat="46.0439940" lon="10.3847920">
	<ele>1662.60</ele>
	<time>2024-07-24T09:47:29.000Z</time>
</trkpt>
<trkpt lat="46.0439790" lon="10.3847960">
	<ele>1662.60</ele>
	<time>2024-07-24T09:47:30.000Z</time>
</trkpt>
<trkpt lat="46.0439670" lon="10.3848040">
	<ele>1662.40</ele>
	<time>2024-07-24T09:47:31.000Z</time>
</trkpt>
<trkpt lat="46.0439540" lon="10.3848120">
	<ele>1662.40</ele>
	<time>2024-07-24T09:47:32.000Z</time>
</trkpt>
<trkpt lat="46.0439410" lon="10.3848200">
	<ele>1662.40</ele>
	<time>2024-07-24T09:47:33.000Z</time>
</trkpt>
<trkpt lat="46.0439270" lon="10.3848260">
	<ele>1662.40</ele>
	<time>2024-07-24T09:47:34.000Z</time>
</trkpt>
<trkpt lat="46.0439150" lon="10.3848350">
	<ele>1662.60</ele>
	<time>2024-07-24T09:47:35.000Z</time>
</trkpt>
<trkpt lat="46.0439010" lon="10.3848420">
	<ele>1662.60</ele>
	<time>2024-07-24T09:47:36.000Z</time>
</trkpt>
<trkpt lat="46.0438860" lon="10.3848450">
	<ele>1662.60</ele>
	<time>2024-07-24T09:47:37.000Z</time>
</trkpt>
<trkpt lat="46.0438750" lon="10.3848490">
	<ele>1662.60</ele>
	<time>2024-07-24T09:47:38.000Z</time>
</trkpt>
<trkpt lat="46.0438630" lon="10.3848550">
	<ele>1662.60</ele>
	<time>2024-07-24T09:47:39.000Z</time>
</trkpt>
<trkpt lat="46.0438520" lon="10.3848630">
	<ele>1662.80</ele>
	<time>2024-07-24T09:47:40.000Z</time>
</trkpt>
<trkpt lat="46.0438410" lon="10.3848710">
	<ele>1662.80</ele>
	<time>2024-07-24T09:47:41.000Z</time>
</trkpt>
<trkpt lat="46.0438340" lon="10.3848840">
	<ele>1662.80</ele>
	<time>2024-07-24T09:47:42.000Z</time>
</trkpt>
<trkpt lat="46.0438230" lon="10.3848950">
	<ele>1663.00</ele>
	<time>2024-07-24T09:47:43.000Z</time>
</trkpt>
<trkpt lat="46.0438110" lon="10.3849040">
	<ele>1663.00</ele>
	<time>2024-07-24T09:47:44.000Z</time>
</trkpt>
<trkpt lat="46.0437980" lon="10.3849110">
	<ele>1663.20</ele>
	<time>2024-07-24T09:47:45.000Z</time>
</trkpt>
<trkpt lat="46.0437860" lon="10.3849160">
	<ele>1663.20</ele>
	<time>2024-07-24T09:47:46.000Z</time>
</trkpt>
<trkpt lat="46.0437740" lon="10.3849230">
	<ele>1663.20</ele>
	<time>2024-07-24T09:47:47.000Z</time>
</trkpt>
<trkpt lat="46.0437640" lon="10.3849310">
	<ele>1663.20</ele>
	<time>2024-07-24T09:47:48.000Z</time>
</trkpt>
<trkpt lat="46.0437530" lon="10.3849370">
	<ele>1663.20</ele>
	<time>2024-07-24T09:47:49.000Z</time>
</trkpt>
<trkpt lat="46.0437420" lon="10.3849460">
	<ele>1663.40</ele>
	<time>2024-07-24T09:47:50.000Z</time>
</trkpt>
<trkpt lat="46.0437290" lon="10.3849540">
	<ele>1663.40</ele>
	<time>2024-07-24T09:47:51.000Z</time>
</trkpt>
<trkpt lat="46.0437150" lon="10.3849590">
	<ele>1663.60</ele>
	<time>2024-07-24T09:47:52.000Z</time>
</trkpt>
<trkpt lat="46.0437090" lon="10.3849630">
	<ele>1663.60</ele>
	<time>2024-07-24T09:47:53.000Z</time>
</trkpt>
<trkpt lat="46.0436990" lon="10.3849660">
	<ele>1663.60</ele>
	<time>2024-07-24T09:47:54.000Z</time>
</trkpt>
<trkpt lat="46.0436900" lon="10.3849700">
	<ele>1663.60</ele>
	<time>2024-07-24T09:47:55.000Z</time>
</trkpt>
<trkpt lat="46.0436800" lon="10.3849720">
	<ele>1663.60</ele>
	<time>2024-07-24T09:47:56.000Z</time>
</trkpt>
<trkpt lat="46.0436680" lon="10.3849760">
	<ele>1663.80</ele>
	<time>2024-07-24T09:47:57.000Z</time>
</trkpt>
<trkpt lat="46.0436560" lon="10.3849770">
	<ele>1663.80</ele>
	<time>2024-07-24T09:47:58.000Z</time>
</trkpt>
<trkpt lat="46.0436460" lon="10.3849780">
	<ele>1663.60</ele>
	<time>2024-07-24T09:47:59.000Z</time>
</trkpt>
<trkpt lat="46.0436350" lon="10.3849740">
	<ele>1663.40</ele>
	<time>2024-07-24T09:48:00.000Z</time>
</trkpt>
<trkpt lat="46.0436250" lon="10.3849740">
	<ele>1663.40</ele>
	<time>2024-07-24T09:48:01.000Z</time>
</trkpt>
<trkpt lat="46.0436190" lon="10.3849790">
	<ele>1663.40</ele>
	<time>2024-07-24T09:48:02.000Z</time>
</trkpt>
<trkpt lat="46.0436110" lon="10.3849820">
	<ele>1663.40</ele>
	<time>2024-07-24T09:48:03.000Z</time>
</trkpt>
<trkpt lat="46.0436010" lon="10.3849840">
	<ele>1663.40</ele>
	<time>2024-07-24T09:48:04.000Z</time>
</trkpt>
<trkpt lat="46.0435960" lon="10.3849860">
	<ele>1663.40</ele>
	<time>2024-07-24T09:48:05.000Z</time>
</trkpt>
<trkpt lat="46.0435880" lon="10.3849790">
	<ele>1663.20</ele>
	<time>2024-07-24T09:48:06.000Z</time>
</trkpt>
<trkpt lat="46.0435780" lon="10.3849720">
	<ele>1663.20</ele>
	<time>2024-07-24T09:48:07.000Z</time>
</trkpt>
<trkpt lat="46.0435680" lon="10.3849670">
	<ele>1663.20</ele>
	<time>2024-07-24T09:48:08.000Z</time>
</trkpt>
<trkpt lat="46.0435600" lon="10.3849650">
	<ele>1663.00</ele>
	<time>2024-07-24T09:48:09.000Z</time>
</trkpt>
<trkpt lat="46.0435500" lon="10.3849650">
	<ele>1663.00</ele>
	<time>2024-07-24T09:48:10.000Z</time>
</trkpt>
<trkpt lat="46.0435370" lon="10.3849640">
	<ele>1663.00</ele>
	<time>2024-07-24T09:48:11.000Z</time>
</trkpt>
<trkpt lat="46.0435270" lon="10.3849580">
	<ele>1663.00</ele>
	<time>2024-07-24T09:48:12.000Z</time>
</trkpt>
<trkpt lat="46.0435180" lon="10.3849500">
	<ele>1663.00</ele>
	<time>2024-07-24T09:48:13.000Z</time>
</trkpt>
<trkpt lat="46.0435080" lon="10.3849450">
	<ele>1662.80</ele>
	<time>2024-07-24T09:48:14.000Z</time>
</trkpt>
<trkpt lat="46.0434990" lon="10.3849460">
	<ele>1662.80</ele>
	<time>2024-07-24T09:48:15.000Z</time>
</trkpt>
<trkpt lat="46.0434910" lon="10.3849500">
	<ele>1662.80</ele>
	<time>2024-07-24T09:48:16.000Z</time>
</trkpt>
<trkpt lat="46.0434780" lon="10.3849530">
	<ele>1662.80</ele>
	<time>2024-07-24T09:48:17.000Z</time>
</trkpt>
<trkpt lat="46.0434630" lon="10.3849520">
	<ele>1662.60</ele>
	<time>2024-07-24T09:48:18.000Z</time>
</trkpt>
<trkpt lat="46.0434530" lon="10.3849490">
	<ele>1662.60</ele>
	<time>2024-07-24T09:48:19.000Z</time>
</trkpt>
<trkpt lat="46.0434440" lon="10.3849490">
	<ele>1662.60</ele>
	<time>2024-07-24T09:48:20.000Z</time>
</trkpt>
<trkpt lat="46.0434330" lon="10.3849460">
	<ele>1662.40</ele>
	<time>2024-07-24T09:48:21.000Z</time>
</trkpt>
<trkpt lat="46.0434210" lon="10.3849470">
	<ele>1662.40</ele>
	<time>2024-07-24T09:48:22.000Z</time>
</trkpt>
<trkpt lat="46.0434100" lon="10.3849510">
	<ele>1662.40</ele>
	<time>2024-07-24T09:48:23.000Z</time>
</trkpt>
<trkpt lat="46.0434000" lon="10.3849610">
	<ele>1662.20</ele>
	<time>2024-07-24T09:48:24.000Z</time>
</trkpt>
<trkpt lat="46.0433900" lon="10.3849670">
	<ele>1662.20</ele>
	<time>2024-07-24T09:48:25.000Z</time>
</trkpt>
<trkpt lat="46.0433760" lon="10.3849670">
	<ele>1662.20</ele>
	<time>2024-07-24T09:48:26.000Z</time>
</trkpt>
<trkpt lat="46.0433650" lon="10.3849690">
	<ele>1662.00</ele>
	<time>2024-07-24T09:48:27.000Z</time>
</trkpt>
<trkpt lat="46.0433580" lon="10.3849770">
	<ele>1662.00</ele>
	<time>2024-07-24T09:48:28.000Z</time>
</trkpt>
<trkpt lat="46.0433490" lon="10.3849830">
	<ele>1662.00</ele>
	<time>2024-07-24T09:48:29.000Z</time>
</trkpt>
<trkpt lat="46.0433370" lon="10.3849900">
	<ele>1662.00</ele>
	<time>2024-07-24T09:48:30.000Z</time>
</trkpt>
<trkpt lat="46.0433230" lon="10.3849990">
	<ele>1661.80</ele>
	<time>2024-07-24T09:48:31.000Z</time>
</trkpt>
<trkpt lat="46.0433150" lon="10.3850100">
	<ele>1661.80</ele>
	<time>2024-07-24T09:48:32.000Z</time>
</trkpt>
<trkpt lat="46.0433050" lon="10.3850250">
	<ele>1661.80</ele>
	<time>2024-07-24T09:48:33.000Z</time>
</trkpt>
<trkpt lat="46.0432920" lon="10.3850370">
	<ele>1661.60</ele>
	<time>2024-07-24T09:48:34.000Z</time>
</trkpt>
<trkpt lat="46.0432760" lon="10.3850440">
	<ele>1661.60</ele>
	<time>2024-07-24T09:48:35.000Z</time>
</trkpt>
<trkpt lat="46.0432640" lon="10.3850430">
	<ele>1661.40</ele>
	<time>2024-07-24T09:48:36.000Z</time>
</trkpt>
<trkpt lat="46.0432510" lon="10.3850370">
	<ele>1661.40</ele>
	<time>2024-07-24T09:48:37.000Z</time>
</trkpt>
<trkpt lat="46.0432380" lon="10.3850320">
	<ele>1661.40</ele>
	<time>2024-07-24T09:48:38.000Z</time>
</trkpt>
<trkpt lat="46.0432260" lon="10.3850270">
	<ele>1661.40</ele>
	<time>2024-07-24T09:48:39.000Z</time>
</trkpt>
<trkpt lat="46.0432150" lon="10.3850230">
	<ele>1661.40</ele>
	<time>2024-07-24T09:48:40.000Z</time>
</trkpt>
<trkpt lat="46.0432050" lon="10.3850190">
	<ele>1661.40</ele>
	<time>2024-07-24T09:48:41.000Z</time>
</trkpt>
<trkpt lat="46.0432020" lon="10.3850160">
	<ele>1661.40</ele>
	<time>2024-07-24T09:48:42.000Z</time>
</trkpt>
<trkpt lat="46.0431930" lon="10.3850120">
	<ele>1661.40</ele>
	<time>2024-07-24T09:48:43.000Z</time>
</trkpt>
<trkpt lat="46.0431830" lon="10.3850030">
	<ele>1661.40</ele>
	<time>2024-07-24T09:48:44.000Z</time>
</trkpt>
<trkpt lat="46.0431710" lon="10.3849940">
	<ele>1661.20</ele>
	<time>2024-07-24T09:48:45.000Z</time>
</trkpt>
<trkpt lat="46.0431620" lon="10.3849910">
	<ele>1661.20</ele>
	<time>2024-07-24T09:48:46.000Z</time>
</trkpt>
<trkpt lat="46.0431510" lon="10.3849870">
	<ele>1661.20</ele>
	<time>2024-07-24T09:48:47.000Z</time>
</trkpt>
<trkpt lat="46.0431370" lon="10.3849830">
	<ele>1661.00</ele>
	<time>2024-07-24T09:48:48.000Z</time>
</trkpt>
<trkpt lat="46.0431270" lon="10.3849770">
	<ele>1661.00</ele>
	<time>2024-07-24T09:48:49.000Z</time>
</trkpt>
<trkpt lat="46.0431200" lon="10.3849740">
	<ele>1661.00</ele>
	<time>2024-07-24T09:48:50.000Z</time>
</trkpt>
<trkpt lat="46.0431100" lon="10.3849720">
	<ele>1661.00</ele>
	<time>2024-07-24T09:48:51.000Z</time>
</trkpt>
<trkpt lat="46.0431000" lon="10.3849710">
	<ele>1661.00</ele>
	<time>2024-07-24T09:48:52.000Z</time>
</trkpt>
<trkpt lat="46.0430880" lon="10.3849710">
	<ele>1660.80</ele>
	<time>2024-07-24T09:48:53.000Z</time>
</trkpt>
<trkpt lat="46.0430750" lon="10.3849690">
	<ele>1660.60</ele>
	<time>2024-07-24T09:48:54.000Z</time>
</trkpt>
<trkpt lat="46.0430620" lon="10.3849650">
	<ele>1660.60</ele>
	<time>2024-07-24T09:48:55.000Z</time>
</trkpt>
<trkpt lat="46.0430510" lon="10.3849660">
	<ele>1660.40</ele>
	<time>2024-07-24T09:48:56.000Z</time>
</trkpt>
<trkpt lat="46.0430410" lon="10.3849690">
	<ele>1660.20</ele>
	<time>2024-07-24T09:48:57.000Z</time>
</trkpt>
<trkpt lat="46.0430340" lon="10.3849770">
	<ele>1660.00</ele>
	<time>2024-07-24T09:48:58.000Z</time>
</trkpt>
<trkpt lat="46.0430240" lon="10.3849820">
	<ele>1659.80</ele>
	<time>2024-07-24T09:48:59.000Z</time>
</trkpt>
<trkpt lat="46.0430130" lon="10.3849850">
	<ele>1659.60</ele>
	<time>2024-07-24T09:49:00.000Z</time>
</trkpt>
<trkpt lat="46.0430030" lon="10.3849850">
	<ele>1659.60</ele>
	<time>2024-07-24T09:49:01.000Z</time>
</trkpt>
<trkpt lat="46.0429890" lon="10.3849810">
	<ele>1659.20</ele>
	<time>2024-07-24T09:49:02.000Z</time>
</trkpt>
<trkpt lat="46.0429760" lon="10.3849810">
	<ele>1659.00</ele>
	<time>2024-07-24T09:49:03.000Z</time>
</trkpt>
<trkpt lat="46.0429650" lon="10.3849830">
	<ele>1658.80</ele>
	<time>2024-07-24T09:49:04.000Z</time>
</trkpt>
<trkpt lat="46.0429510" lon="10.3849850">
	<ele>1658.60</ele>
	<time>2024-07-24T09:49:05.000Z</time>
</trkpt>
<trkpt lat="46.0429390" lon="10.3849850">
	<ele>1658.60</ele>
	<time>2024-07-24T09:49:06.000Z</time>
</trkpt>
<trkpt lat="46.0429290" lon="10.3849830">
	<ele>1658.40</ele>
	<time>2024-07-24T09:49:07.000Z</time>
</trkpt>
<trkpt lat="46.0429250" lon="10.3849830">
	<ele>1658.40</ele>
	<time>2024-07-24T09:49:08.000Z</time>
</trkpt>
<trkpt lat="46.0429250" lon="10.3849810">
	<ele>1658.40</ele>
	<time>2024-07-24T09:49:09.000Z</time>
</trkpt>
<trkpt lat="46.0429260" lon="10.3849810">
	<ele>1658.40</ele>
	<time>2024-07-24T09:49:10.000Z</time>
</trkpt>
<trkpt lat="46.0429270" lon="10.3849810">
	<ele>1658.40</ele>
	<time>2024-07-24T09:49:11.000Z</time>
</trkpt>
<trkpt lat="46.0429280" lon="10.3849800">
	<ele>1658.40</ele>
	<time>2024-07-24T09:49:12.000Z</time>
</trkpt>
<trkpt lat="46.0429280" lon="10.3849780">
	<ele>1658.40</ele>
	<time>2024-07-24T09:49:13.000Z</time>
</trkpt>
<trkpt lat="46.0429260" lon="10.3849750">
	<ele>1658.40</ele>
	<time>2024-07-24T09:49:14.000Z</time>
</trkpt>
<trkpt lat="46.0429250" lon="10.3849740">
	<ele>1658.40</ele>
	<time>2024-07-24T09:49:15.000Z</time>
</trkpt>
<trkpt lat="46.0429270" lon="10.3849700">
	<ele>1658.40</ele>
	<time>2024-07-24T09:49:16.000Z</time>
</trkpt>
<trkpt lat="46.0429280" lon="10.3849730">
	<ele>1658.40</ele>
	<time>2024-07-24T09:49:17.000Z</time>
</trkpt>
<trkpt lat="46.0429210" lon="10.3849700">
	<ele>1658.40</ele>
	<time>2024-07-24T09:49:18.000Z</time>
</trkpt>
<trkpt lat="46.0429190" lon="10.3849670">
	<ele>1658.40</ele>
	<time>2024-07-24T09:49:19.000Z</time>
</trkpt>
<trkpt lat="46.0429100" lon="10.3849480">
	<ele>1658.20</ele>
	<time>2024-07-24T09:49:20.000Z</time>
</trkpt>
<trkpt lat="46.0429090" lon="10.3849340">
	<ele>1658.20</ele>
	<time>2024-07-24T09:49:21.000Z</time>
</trkpt>
<trkpt lat="46.0429110" lon="10.3849240">
	<ele>1658.20</ele>
	<time>2024-07-24T09:49:22.000Z</time>
</trkpt>
<trkpt lat="46.0429130" lon="10.3849190">
	<ele>1658.00</ele>
	<time>2024-07-24T09:49:23.000Z</time>
</trkpt>
<trkpt lat="46.0429160" lon="10.3849100">
	<ele>1658.00</ele>
	<time>2024-07-24T09:49:24.000Z</time>
</trkpt>
<trkpt lat="46.0429150" lon="10.3849010">
	<ele>1658.00</ele>
	<time>2024-07-24T09:49:25.000Z</time>
</trkpt>
<trkpt lat="46.0429140" lon="10.3848930">
	<ele>1657.80</ele>
	<time>2024-07-24T09:49:26.000Z</time>
</trkpt>
<trkpt lat="46.0429130" lon="10.3848870">
	<ele>1657.60</ele>
	<time>2024-07-24T09:49:27.000Z</time>
</trkpt>
<trkpt lat="46.0429120" lon="10.3848810">
	<ele>1657.20</ele>
	<time>2024-07-24T09:49:28.000Z</time>
</trkpt>
<trkpt lat="46.0429120" lon="10.3848730">
	<ele>1657.20</ele>
	<time>2024-07-24T09:49:29.000Z</time>
</trkpt>
<trkpt lat="46.0429110" lon="10.3848610">
	<ele>1657.00</ele>
	<time>2024-07-24T09:49:30.000Z</time>
</trkpt>
<trkpt lat="46.0429140" lon="10.3848500">
	<ele>1656.80</ele>
	<time>2024-07-24T09:49:31.000Z</time>
</trkpt>
<trkpt lat="46.0429170" lon="10.3848370">
	<ele>1656.80</ele>
	<time>2024-07-24T09:49:32.000Z</time>
</trkpt>
<trkpt lat="46.0429200" lon="10.3848230">
	<ele>1656.60</ele>
	<time>2024-07-24T09:49:33.000Z</time>
</trkpt>
<trkpt lat="46.0429210" lon="10.3848060">
	<ele>1656.40</ele>
	<time>2024-07-24T09:49:34.000Z</time>
</trkpt>
<trkpt lat="46.0429200" lon="10.3847900">
	<ele>1656.20</ele>
	<time>2024-07-24T09:49:35.000Z</time>
</trkpt>
<trkpt lat="46.0429180" lon="10.3847760">
	<ele>1656.00</ele>
	<time>2024-07-24T09:49:36.000Z</time>
</trkpt>
<trkpt lat="46.0429150" lon="10.3847640">
	<ele>1656.00</ele>
	<time>2024-07-24T09:49:37.000Z</time>
</trkpt>
<trkpt lat="46.0429100" lon="10.3847470">
	<ele>1655.80</ele>
	<time>2024-07-24T09:49:38.000Z</time>
</trkpt>
<trkpt lat="46.0429030" lon="10.3847320">
	<ele>1655.60</ele>
	<time>2024-07-24T09:49:39.000Z</time>
</trkpt>
<trkpt lat="46.0429040" lon="10.3847150">
	<ele>1655.20</ele>
	<time>2024-07-24T09:49:40.000Z</time>
</trkpt>
<trkpt lat="46.0429020" lon="10.3846990">
	<ele>1655.00</ele>
	<time>2024-07-24T09:49:41.000Z</time>
</trkpt>
<trkpt lat="46.0429020" lon="10.3846830">
	<ele>1655.00</ele>
	<time>2024-07-24T09:49:42.000Z</time>
</trkpt>
<trkpt lat="46.0429020" lon="10.3846660">
	<ele>1654.60</ele>
	<time>2024-07-24T09:49:43.000Z</time>
</trkpt>
<trkpt lat="46.0429050" lon="10.3846510">
	<ele>1654.40</ele>
	<time>2024-07-24T09:49:44.000Z</time>
</trkpt>
<trkpt lat="46.0429120" lon="10.3846400">
	<ele>1654.20</ele>
	<time>2024-07-24T09:49:45.000Z</time>
</trkpt>
<trkpt lat="46.0429170" lon="10.3846280">
	<ele>1654.00</ele>
	<time>2024-07-24T09:49:46.000Z</time>
</trkpt>
<trkpt lat="46.0429150" lon="10.3846130">
	<ele>1653.80</ele>
	<time>2024-07-24T09:49:47.000Z</time>
</trkpt>
<trkpt lat="46.0429120" lon="10.3845940">
	<ele>1653.60</ele>
	<time>2024-07-24T09:49:48.000Z</time>
</trkpt>
<trkpt lat="46.0429040" lon="10.3845730">
	<ele>1653.40</ele>
	<time>2024-07-24T09:49:49.000Z</time>
</trkpt>
<trkpt lat="46.0429010" lon="10.3845520">
	<ele>1653.40</ele>
	<time>2024-07-24T09:49:50.000Z</time>
</trkpt>
<trkpt lat="46.0429010" lon="10.3845360">
	<ele>1653.20</ele>
	<time>2024-07-24T09:49:51.000Z</time>
</trkpt>
<trkpt lat="46.0429020" lon="10.3845220">
	<ele>1653.20</ele>
	<time>2024-07-24T09:49:52.000Z</time>
</trkpt>
<trkpt lat="46.0429070" lon="10.3845100">
	<ele>1653.00</ele>
	<time>2024-07-24T09:49:53.000Z</time>
</trkpt>
<trkpt lat="46.0429150" lon="10.3844990">
	<ele>1652.80</ele>
	<time>2024-07-24T09:49:54.000Z</time>
</trkpt>
<trkpt lat="46.0429200" lon="10.3844880">
	<ele>1652.80</ele>
	<time>2024-07-24T09:49:55.000Z</time>
</trkpt>
<trkpt lat="46.0429260" lon="10.3844770">
	<ele>1652.40</ele>
	<time>2024-07-24T09:49:56.000Z</time>
</trkpt>
<trkpt lat="46.0429340" lon="10.3844750">
	<ele>1652.40</ele>
	<time>2024-07-24T09:49:57.000Z</time>
</trkpt>
<trkpt lat="46.0429410" lon="10.3844730">
	<ele>1652.20</ele>
	<time>2024-07-24T09:49:58.000Z</time>
</trkpt>
<trkpt lat="46.0429490" lon="10.3844700">
	<ele>1652.00</ele>
	<time>2024-07-24T09:49:59.000Z</time>
</trkpt>
<trkpt lat="46.0429610" lon="10.3844710">
	<ele>1651.80</ele>
	<time>2024-07-24T09:50:00.000Z</time>
</trkpt>
<trkpt lat="46.0429730" lon="10.3844640">
	<ele>1651.60</ele>
	<time>2024-07-24T09:50:01.000Z</time>
</trkpt>
<trkpt lat="46.0429790" lon="10.3844550">
	<ele>1651.40</ele>
	<time>2024-07-24T09:50:02.000Z</time>
</trkpt>
<trkpt lat="46.0429850" lon="10.3844480">
	<ele>1651.20</ele>
	<time>2024-07-24T09:50:03.000Z</time>
</trkpt>
<trkpt lat="46.0429920" lon="10.3844390">
	<ele>1651.00</ele>
	<time>2024-07-24T09:50:04.000Z</time>
</trkpt>
<trkpt lat="46.0429990" lon="10.3844290">
	<ele>1650.80</ele>
	<time>2024-07-24T09:50:05.000Z</time>
</trkpt>
<trkpt lat="46.0430010" lon="10.3844230">
	<ele>1650.60</ele>
	<time>2024-07-24T09:50:06.000Z</time>
</trkpt>
<trkpt lat="46.0430100" lon="10.3844180">
	<ele>1650.40</ele>
	<time>2024-07-24T09:50:07.000Z</time>
</trkpt>
<trkpt lat="46.0430190" lon="10.3844080">
	<ele>1650.20</ele>
	<time>2024-07-24T09:50:08.000Z</time>
</trkpt>
<trkpt lat="46.0430280" lon="10.3843960">
	<ele>1650.20</ele>
	<time>2024-07-24T09:50:09.000Z</time>
</trkpt>
<trkpt lat="46.0430450" lon="10.3843860">
	<ele>1650.20</ele>
	<time>2024-07-24T09:50:10.000Z</time>
</trkpt>
<trkpt lat="46.0430610" lon="10.3843810">
	<ele>1650.00</ele>
	<time>2024-07-24T09:50:11.000Z</time>
</trkpt>
<trkpt lat="46.0430620" lon="10.3843780">
	<ele>1650.00</ele>
	<time>2024-07-24T09:50:12.000Z</time>
</trkpt>
<trkpt lat="46.0430690" lon="10.3843800">
	<ele>1649.80</ele>
	<time>2024-07-24T09:50:13.000Z</time>
</trkpt>
<trkpt lat="46.0430740" lon="10.3843800">
	<ele>1649.60</ele>
	<time>2024-07-24T09:50:14.000Z</time>
</trkpt>
<trkpt lat="46.0430720" lon="10.3843790">
	<ele>1649.60</ele>
	<time>2024-07-24T09:50:15.000Z</time>
</trkpt>
<trkpt lat="46.0430710" lon="10.3843790">
	<ele>1649.60</ele>
	<time>2024-07-24T09:50:16.000Z</time>
</trkpt>
<trkpt lat="46.0430700" lon="10.3843780">
	<ele>1649.60</ele>
	<time>2024-07-24T09:50:17.000Z</time>
</trkpt>
<trkpt lat="46.0430780" lon="10.3843730">
	<ele>1649.40</ele>
	<time>2024-07-24T09:50:18.000Z</time>
</trkpt>
<trkpt lat="46.0430870" lon="10.3843660">
	<ele>1649.40</ele>
	<time>2024-07-24T09:50:19.000Z</time>
</trkpt>
<trkpt lat="46.0430940" lon="10.3843560">
	<ele>1649.20</ele>
	<time>2024-07-24T09:50:20.000Z</time>
</trkpt>
<trkpt lat="46.0430960" lon="10.3843460">
	<ele>1649.00</ele>
	<time>2024-07-24T09:50:21.000Z</time>
</trkpt>
<trkpt lat="46.0430930" lon="10.3843400">
	<ele>1649.00</ele>
	<time>2024-07-24T09:50:22.000Z</time>
</trkpt>
<trkpt lat="46.0430910" lon="10.3843350">
	<ele>1648.80</ele>
	<time>2024-07-24T09:50:23.000Z</time>
</trkpt>
<trkpt lat="46.0430890" lon="10.3843300">
	<ele>1648.80</ele>
	<time>2024-07-24T09:50:24.000Z</time>
</trkpt>
<trkpt lat="46.0430910" lon="10.3843290">
	<ele>1648.80</ele>
	<time>2024-07-24T09:50:25.000Z</time>
</trkpt>
<trkpt lat="46.0430980" lon="10.3843270">
	<ele>1648.60</ele>
	<time>2024-07-24T09:50:26.000Z</time>
</trkpt>
<trkpt lat="46.0431010" lon="10.3843230">
	<ele>1648.40</ele>
	<time>2024-07-24T09:50:27.000Z</time>
</trkpt>
<trkpt lat="46.0431010" lon="10.3843170">
	<ele>1648.20</ele>
	<time>2024-07-24T09:50:28.000Z</time>
</trkpt>
<trkpt lat="46.0431090" lon="10.3843080">
	<ele>1648.00</ele>
	<time>2024-07-24T09:50:29.000Z</time>
</trkpt>
<trkpt lat="46.0431200" lon="10.3843030">
	<ele>1647.80</ele>
	<time>2024-07-24T09:50:30.000Z</time>
</trkpt>
<trkpt lat="46.0431290" lon="10.3842940">
	<ele>1647.80</ele>
	<time>2024-07-24T09:50:31.000Z</time>
</trkpt>
<trkpt lat="46.0431290" lon="10.3842920">
	<ele>1647.60</ele>
	<time>2024-07-24T09:50:32.000Z</time>
</trkpt>
<trkpt lat="46.0431270" lon="10.3842920">
	<ele>1647.40</ele>
	<time>2024-07-24T09:50:33.000Z</time>
</trkpt>
<trkpt lat="46.0431290" lon="10.3842890">
	<ele>1647.40</ele>
	<time>2024-07-24T09:50:34.000Z</time>
</trkpt>
<trkpt lat="46.0431240" lon="10.3842790">
	<ele>1647.00</ele>
	<time>2024-07-24T09:50:35.000Z</time>
</trkpt>
<trkpt lat="46.0431230" lon="10.3842710">
	<ele>1646.80</ele>
	<time>2024-07-24T09:50:36.000Z</time>
</trkpt>
<trkpt lat="46.0431300" lon="10.3842670">
	<ele>1646.60</ele>
	<time>2024-07-24T09:50:37.000Z</time>
</trkpt>
<trkpt lat="46.0431380" lon="10.3842630">
	<ele>1646.40</ele>
	<time>2024-07-24T09:50:38.000Z</time>
</trkpt>
<trkpt lat="46.0431480" lon="10.3842550">
	<ele>1646.20</ele>
	<time>2024-07-24T09:50:39.000Z</time>
</trkpt>
<trkpt lat="46.0431550" lon="10.3842580">
	<ele>1646.00</ele>
	<time>2024-07-24T09:50:40.000Z</time>
</trkpt>
<trkpt lat="46.0431620" lon="10.3842570">
	<ele>1645.80</ele>
	<time>2024-07-24T09:50:41.000Z</time>
</trkpt>
<trkpt lat="46.0431680" lon="10.3842500">
	<ele>1645.60</ele>
	<time>2024-07-24T09:50:42.000Z</time>
</trkpt>
<trkpt lat="46.0431760" lon="10.3842420">
	<ele>1645.40</ele>
	<time>2024-07-24T09:50:43.000Z</time>
</trkpt>
<trkpt lat="46.0431840" lon="10.3842340">
	<ele>1645.00</ele>
	<time>2024-07-24T09:50:44.000Z</time>
</trkpt>
<trkpt lat="46.0431900" lon="10.3842230">
	<ele>1644.80</ele>
	<time>2024-07-24T09:50:45.000Z</time>
</trkpt>
<trkpt lat="46.0431960" lon="10.3842150">
	<ele>1644.80</ele>
	<time>2024-07-24T09:50:46.000Z</time>
</trkpt>
<trkpt lat="46.0431980" lon="10.3842080">
	<ele>1644.40</ele>
	<time>2024-07-24T09:50:47.000Z</time>
</trkpt>
<trkpt lat="46.0432050" lon="10.3842010">
	<ele>1644.40</ele>
	<time>2024-07-24T09:50:48.000Z</time>
</trkpt>
<trkpt lat="46.0432100" lon="10.3841890">
	<ele>1644.20</ele>
	<time>2024-07-24T09:50:49.000Z</time>
</trkpt>
<trkpt lat="46.0432180" lon="10.3841770">
	<ele>1644.00</ele>
	<time>2024-07-24T09:50:50.000Z</time>
</trkpt>
<trkpt lat="46.0432260" lon="10.3841660">
	<ele>1643.60</ele>
	<time>2024-07-24T09:50:51.000Z</time>
</trkpt>
<trkpt lat="46.0432380" lon="10.3841530">
	<ele>1643.40</ele>
	<time>2024-07-24T09:50:52.000Z</time>
</trkpt>
<trkpt lat="46.0432510" lon="10.3841410">
	<ele>1643.40</ele>
	<time>2024-07-24T09:50:53.000Z</time>
</trkpt>
<trkpt lat="46.0432530" lon="10.3841340">
	<ele>1643.00</ele>
	<time>2024-07-24T09:50:54.000Z</time>
</trkpt>
<trkpt lat="46.0432610" lon="10.3841260">
	<ele>1642.80</ele>
	<time>2024-07-24T09:50:55.000Z</time>
</trkpt>
<trkpt lat="46.0432670" lon="10.3841170">
	<ele>1642.60</ele>
	<time>2024-07-24T09:50:56.000Z</time>
</trkpt>
<trkpt lat="46.0432730" lon="10.3841020">
	<ele>1642.40</ele>
	<time>2024-07-24T09:50:57.000Z</time>
</trkpt>
<trkpt lat="46.0432810" lon="10.3840910">
	<ele>1642.20</ele>
	<time>2024-07-24T09:50:58.000Z</time>
</trkpt>
<trkpt lat="46.0432870" lon="10.3840810">
	<ele>1642.20</ele>
	<time>2024-07-24T09:50:59.000Z</time>
</trkpt>
<trkpt lat="46.0432970" lon="10.3840690">
	<ele>1642.00</ele>
	<time>2024-07-24T09:51:00.000Z</time>
</trkpt>
<trkpt lat="46.0433060" lon="10.3840570">
	<ele>1641.60</ele>
	<time>2024-07-24T09:51:01.000Z</time>
</trkpt>
<trkpt lat="46.0433180" lon="10.3840510">
	<ele>1641.40</ele>
	<time>2024-07-24T09:51:02.000Z</time>
</trkpt>
<trkpt lat="46.0433240" lon="10.3840490">
	<ele>1641.00</ele>
	<time>2024-07-24T09:51:03.000Z</time>
</trkpt>
<trkpt lat="46.0433300" lon="10.3840410">
	<ele>1641.00</ele>
	<time>2024-07-24T09:51:04.000Z</time>
</trkpt>
<trkpt lat="46.0433310" lon="10.3840320">
	<ele>1640.80</ele>
	<time>2024-07-24T09:51:05.000Z</time>
</trkpt>
<trkpt lat="46.0433320" lon="10.3840180">
	<ele>1640.40</ele>
	<time>2024-07-24T09:51:06.000Z</time>
</trkpt>
<trkpt lat="46.0433400" lon="10.3840130">
	<ele>1640.20</ele>
	<time>2024-07-24T09:51:07.000Z</time>
</trkpt>
<trkpt lat="46.0433480" lon="10.3840050">
	<ele>1640.00</ele>
	<time>2024-07-24T09:51:08.000Z</time>
</trkpt>
<trkpt lat="46.0433540" lon="10.3839970">
	<ele>1639.60</ele>
	<time>2024-07-24T09:51:09.000Z</time>
</trkpt>
<trkpt lat="46.0433600" lon="10.3839880">
	<ele>1639.40</ele>
	<time>2024-07-24T09:51:10.000Z</time>
</trkpt>
<trkpt lat="46.0433670" lon="10.3839810">
	<ele>1639.20</ele>
	<time>2024-07-24T09:51:11.000Z</time>
</trkpt>
<trkpt lat="46.0433720" lon="10.3839700">
	<ele>1639.20</ele>
	<time>2024-07-24T09:51:12.000Z</time>
</trkpt>
<trkpt lat="46.0433780" lon="10.3839550">
	<ele>1638.80</ele>
	<time>2024-07-24T09:51:13.000Z</time>
</trkpt>
<trkpt lat="46.0433860" lon="10.3839390">
	<ele>1638.80</ele>
	<time>2024-07-24T09:51:14.000Z</time>
</trkpt>
<trkpt lat="46.0433960" lon="10.3839280">
	<ele>1638.60</ele>
	<time>2024-07-24T09:51:15.000Z</time>
</trkpt>
<trkpt lat="46.0434020" lon="10.3839160">
	<ele>1638.40</ele>
	<time>2024-07-24T09:51:16.000Z</time>
</trkpt>
<trkpt lat="46.0434060" lon="10.3839070">
	<ele>1638.00</ele>
	<time>2024-07-24T09:51:17.000Z</time>
</trkpt>
<trkpt lat="46.0434110" lon="10.3838960">
	<ele>1637.80</ele>
	<time>2024-07-24T09:51:18.000Z</time>
</trkpt>
<trkpt lat="46.0434140" lon="10.3838860">
	<ele>1637.60</ele>
	<time>2024-07-24T09:51:19.000Z</time>
</trkpt>
<trkpt lat="46.0434170" lon="10.3838770">
	<ele>1637.40</ele>
	<time>2024-07-24T09:51:20.000Z</time>
</trkpt>
<trkpt lat="46.0434210" lon="10.3838690">
	<ele>1637.20</ele>
	<time>2024-07-24T09:51:21.000Z</time>
</trkpt>
<trkpt lat="46.0434250" lon="10.3838580">
	<ele>1637.00</ele>
	<time>2024-07-24T09:51:22.000Z</time>
</trkpt>
<trkpt lat="46.0434300" lon="10.3838450">
	<ele>1636.80</ele>
	<time>2024-07-24T09:51:23.000Z</time>
</trkpt>
<trkpt lat="46.0434330" lon="10.3838330">
	<ele>1636.80</ele>
	<time>2024-07-24T09:51:24.000Z</time>
</trkpt>
<trkpt lat="46.0434350" lon="10.3838110">
	<ele>1636.60</ele>
	<time>2024-07-24T09:51:25.000Z</time>
</trkpt>
<trkpt lat="46.0434390" lon="10.3837950">
	<ele>1636.40</ele>
	<time>2024-07-24T09:51:26.000Z</time>
</trkpt>
<trkpt lat="46.0434430" lon="10.3837810">
	<ele>1636.20</ele>
	<time>2024-07-24T09:51:27.000Z</time>
</trkpt>
<trkpt lat="46.0434500" lon="10.3837700">
	<ele>1636.00</ele>
	<time>2024-07-24T09:51:28.000Z</time>
</trkpt>
<trkpt lat="46.0434590" lon="10.3837590">
	<ele>1635.80</ele>
	<time>2024-07-24T09:51:29.000Z</time>
</trkpt>
<trkpt lat="46.0434660" lon="10.3837500">
	<ele>1635.60</ele>
	<time>2024-07-24T09:51:30.000Z</time>
</trkpt>
<trkpt lat="46.0434750" lon="10.3837390">
	<ele>1635.40</ele>
	<time>2024-07-24T09:51:31.000Z</time>
</trkpt>
<trkpt lat="46.0434780" lon="10.3837280">
	<ele>1635.40</ele>
	<time>2024-07-24T09:51:32.000Z</time>
</trkpt>
<trkpt lat="46.0434770" lon="10.3837180">
	<ele>1635.20</ele>
	<time>2024-07-24T09:51:33.000Z</time>
</trkpt>
<trkpt lat="46.0434800" lon="10.3837030">
	<ele>1635.20</ele>
	<time>2024-07-24T09:51:34.000Z</time>
</trkpt>
<trkpt lat="46.0434810" lon="10.3836880">
	<ele>1634.80</ele>
	<time>2024-07-24T09:51:35.000Z</time>
</trkpt>
<trkpt lat="46.0434830" lon="10.3836720">
	<ele>1634.80</ele>
	<time>2024-07-24T09:51:36.000Z</time>
</trkpt>
<trkpt lat="46.0434850" lon="10.3836590">
	<ele>1634.60</ele>
	<time>2024-07-24T09:51:37.000Z</time>
</trkpt>
<trkpt lat="46.0434850" lon="10.3836470">
	<ele>1634.40</ele>
	<time>2024-07-24T09:51:38.000Z</time>
</trkpt>
<trkpt lat="46.0434870" lon="10.3836350">
	<ele>1634.20</ele>
	<time>2024-07-24T09:51:39.000Z</time>
</trkpt>
<trkpt lat="46.0434910" lon="10.3836250">
	<ele>1634.20</ele>
	<time>2024-07-24T09:51:40.000Z</time>
</trkpt>
<trkpt lat="46.0434940" lon="10.3836160">
	<ele>1634.00</ele>
	<time>2024-07-24T09:51:41.000Z</time>
</trkpt>
<trkpt lat="46.0434970" lon="10.3836100">
	<ele>1634.00</ele>
	<time>2024-07-24T09:51:42.000Z</time>
</trkpt>
<trkpt lat="46.0434990" lon="10.3836030">
	<ele>1633.80</ele>
	<time>2024-07-24T09:51:43.000Z</time>
</trkpt>
<trkpt lat="46.0435050" lon="10.3835880">
	<ele>1633.40</ele>
	<time>2024-07-24T09:51:44.000Z</time>
</trkpt>
<trkpt lat="46.0435130" lon="10.3835720">
	<ele>1633.20</ele>
	<time>2024-07-24T09:51:45.000Z</time>
</trkpt>
<trkpt lat="46.0435180" lon="10.3835580">
	<ele>1633.00</ele>
	<time>2024-07-24T09:51:46.000Z</time>
</trkpt>
<trkpt lat="46.0435190" lon="10.3835500">
	<ele>1632.80</ele>
	<time>2024-07-24T09:51:47.000Z</time>
</trkpt>
<trkpt lat="46.0435230" lon="10.3835400">
	<ele>1632.40</ele>
	<time>2024-07-24T09:51:48.000Z</time>
</trkpt>
<trkpt lat="46.0435320" lon="10.3835330">
	<ele>1632.40</ele>
	<time>2024-07-24T09:51:49.000Z</time>
</trkpt>
<trkpt lat="46.0435410" lon="10.3835230">
	<ele>1632.20</ele>
	<time>2024-07-24T09:51:50.000Z</time>
</trkpt>
<trkpt lat="46.0435480" lon="10.3835130">
	<ele>1632.20</ele>
	<time>2024-07-24T09:51:51.000Z</time>
</trkpt>
<trkpt lat="46.0435520" lon="10.3835020">
	<ele>1632.00</ele>
	<time>2024-07-24T09:51:52.000Z</time>
</trkpt>
<trkpt lat="46.0435550" lon="10.3834880">
	<ele>1631.80</ele>
	<time>2024-07-24T09:51:53.000Z</time>
</trkpt>
<trkpt lat="46.0435580" lon="10.3834780">
	<ele>1631.40</ele>
	<time>2024-07-24T09:51:54.000Z</time>
</trkpt>
<trkpt lat="46.0435640" lon="10.3834690">
	<ele>1631.20</ele>
	<time>2024-07-24T09:51:55.000Z</time>
</trkpt>
<trkpt lat="46.0435700" lon="10.3834620">
	<ele>1631.00</ele>
	<time>2024-07-24T09:51:56.000Z</time>
</trkpt>
<trkpt lat="46.0435800" lon="10.3834530">
	<ele>1630.80</ele>
	<time>2024-07-24T09:51:57.000Z</time>
</trkpt>
<trkpt lat="46.0435910" lon="10.3834370">
	<ele>1630.60</ele>
	<time>2024-07-24T09:51:58.000Z</time>
</trkpt>
<trkpt lat="46.0436040" lon="10.3834190">
	<ele>1630.40</ele>
	<time>2024-07-24T09:51:59.000Z</time>
</trkpt>
<trkpt lat="46.0436140" lon="10.3834010">
	<ele>1630.20</ele>
	<time>2024-07-24T09:52:00.000Z</time>
</trkpt>
<trkpt lat="46.0436190" lon="10.3833890">
	<ele>1630.00</ele>
	<time>2024-07-24T09:52:01.000Z</time>
</trkpt>
<trkpt lat="46.0436210" lon="10.3833800">
	<ele>1629.80</ele>
	<time>2024-07-24T09:52:02.000Z</time>
</trkpt>
<trkpt lat="46.0436280" lon="10.3833720">
	<ele>1629.80</ele>
	<time>2024-07-24T09:52:03.000Z</time>
</trkpt>
<trkpt lat="46.0436320" lon="10.3833630">
	<ele>1629.40</ele>
	<time>2024-07-24T09:52:04.000Z</time>
</trkpt>
<trkpt lat="46.0436370" lon="10.3833500">
	<ele>1629.20</ele>
	<time>2024-07-24T09:52:05.000Z</time>
</trkpt>
<trkpt lat="46.0436410" lon="10.3833340">
	<ele>1629.00</ele>
	<time>2024-07-24T09:52:06.000Z</time>
</trkpt>
<trkpt lat="46.0436370" lon="10.3833200">
	<ele>1628.80</ele>
	<time>2024-07-24T09:52:07.000Z</time>
</trkpt>
<trkpt lat="46.0436350" lon="10.3833120">
	<ele>1628.60</ele>
	<time>2024-07-24T09:52:08.000Z</time>
</trkpt>
<trkpt lat="46.0436410" lon="10.3833040">
	<ele>1628.60</ele>
	<time>2024-07-24T09:52:09.000Z</time>
</trkpt>
<trkpt lat="46.0436440" lon="10.3832920">
	<ele>1628.40</ele>
	<time>2024-07-24T09:52:10.000Z</time>
</trkpt>
<trkpt lat="46.0436500" lon="10.3832810">
	<ele>1628.20</ele>
	<time>2024-07-24T09:52:11.000Z</time>
</trkpt>
<trkpt lat="46.0436540" lon="10.3832720">
	<ele>1627.80</ele>
	<time>2024-07-24T09:52:12.000Z</time>
</trkpt>
<trkpt lat="46.0436580" lon="10.3832610">
	<ele>1627.60</ele>
	<time>2024-07-24T09:52:13.000Z</time>
</trkpt>
<trkpt lat="46.0436610" lon="10.3832520">
	<ele>1627.60</ele>
	<time>2024-07-24T09:52:14.000Z</time>
</trkpt>
<trkpt lat="46.0436660" lon="10.3832450">
	<ele>1627.20</ele>
	<time>2024-07-24T09:52:15.000Z</time>
</trkpt>
<trkpt lat="46.0436690" lon="10.3832360">
	<ele>1627.00</ele>
	<time>2024-07-24T09:52:16.000Z</time>
</trkpt>
<trkpt lat="46.0436710" lon="10.3832230">
	<ele>1626.80</ele>
	<time>2024-07-24T09:52:17.000Z</time>
</trkpt>
<trkpt lat="46.0436740" lon="10.3832150">
	<ele>1626.60</ele>
	<time>2024-07-24T09:52:18.000Z</time>
</trkpt>
<trkpt lat="46.0436810" lon="10.3832080">
	<ele>1626.20</ele>
	<time>2024-07-24T09:52:19.000Z</time>
</trkpt>
<trkpt lat="46.0436880" lon="10.3832010">
	<ele>1626.00</ele>
	<time>2024-07-24T09:52:20.000Z</time>
</trkpt>
<trkpt lat="46.0436960" lon="10.3831940">
	<ele>1625.80</ele>
	<time>2024-07-24T09:52:21.000Z</time>
</trkpt>
<trkpt lat="46.0437060" lon="10.3831890">
	<ele>1625.60</ele>
	<time>2024-07-24T09:52:22.000Z</time>
</trkpt>
<trkpt lat="46.0437110" lon="10.3831860">
	<ele>1625.40</ele>
	<time>2024-07-24T09:52:23.000Z</time>
</trkpt>
<trkpt lat="46.0437220" lon="10.3831830">
	<ele>1625.20</ele>
	<time>2024-07-24T09:52:24.000Z</time>
</trkpt>
<trkpt lat="46.0437270" lon="10.3831760">
	<ele>1625.00</ele>
	<time>2024-07-24T09:52:25.000Z</time>
</trkpt>
<trkpt lat="46.0437290" lon="10.3831730">
	<ele>1624.80</ele>
	<time>2024-07-24T09:52:26.000Z</time>
</trkpt>
<trkpt lat="46.0437300" lon="10.3831720">
	<ele>1624.60</ele>
	<time>2024-07-24T09:52:27.000Z</time>
</trkpt>
<trkpt lat="46.0437320" lon="10.3831740">
	<ele>1624.40</ele>
	<time>2024-07-24T09:52:28.000Z</time>
</trkpt>
<trkpt lat="46.0437340" lon="10.3831770">
	<ele>1624.20</ele>
	<time>2024-07-24T09:52:29.000Z</time>
</trkpt>
<trkpt lat="46.0437420" lon="10.3831650">
	<ele>1623.80</ele>
	<time>2024-07-24T09:52:30.000Z</time>
</trkpt>
<trkpt lat="46.0437460" lon="10.3831620">
	<ele>1623.40</ele>
	<time>2024-07-24T09:52:31.000Z</time>
</trkpt>
<trkpt lat="46.0437480" lon="10.3831580">
	<ele>1623.40</ele>
	<time>2024-07-24T09:52:32.000Z</time>
</trkpt>
<trkpt lat="46.0437560" lon="10.3831490">
	<ele>1623.00</ele>
	<time>2024-07-24T09:52:33.000Z</time>
</trkpt>
<trkpt lat="46.0437580" lon="10.3831430">
	<ele>1622.60</ele>
	<time>2024-07-24T09:52:34.000Z</time>
</trkpt>
<trkpt lat="46.0437670" lon="10.3831330">
	<ele>1622.40</ele>
	<time>2024-07-24T09:52:35.000Z</time>
</trkpt>
<trkpt lat="46.0437750" lon="10.3831260">
	<ele>1622.20</ele>
	<time>2024-07-24T09:52:36.000Z</time>
</trkpt>
<trkpt lat="46.0437790" lon="10.3831220">
	<ele>1622.00</ele>
	<time>2024-07-24T09:52:37.000Z</time>
</trkpt>
<trkpt lat="46.0437840" lon="10.3831170">
	<ele>1621.80</ele>
	<time>2024-07-24T09:52:38.000Z</time>
</trkpt>
<trkpt lat="46.0437880" lon="10.3831150">
	<ele>1621.60</ele>
	<time>2024-07-24T09:52:39.000Z</time>
</trkpt>
<trkpt lat="46.0437890" lon="10.3831110">
	<ele>1621.40</ele>
	<time>2024-07-24T09:52:40.000Z</time>
</trkpt>
<trkpt lat="46.0437950" lon="10.3831080">
	<ele>1621.20</ele>
	<time>2024-07-24T09:52:41.000Z</time>
</trkpt>
<trkpt lat="46.0437990" lon="10.3831050">
	<ele>1621.00</ele>
	<time>2024-07-24T09:52:42.000Z</time>
</trkpt>
<trkpt lat="46.0438040" lon="10.3831030">
	<ele>1620.80</ele>
	<time>2024-07-24T09:52:43.000Z</time>
</trkpt>
<trkpt lat="46.0438060" lon="10.3831030">
	<ele>1620.60</ele>
	<time>2024-07-24T09:52:44.000Z</time>
</trkpt>
<trkpt lat="46.0438060" lon="10.3831020">
	<ele>1620.20</ele>
	<time>2024-07-24T09:52:45.000Z</time>
</trkpt>
<trkpt lat="46.0438050" lon="10.3831000">
	<ele>1620.00</ele>
	<time>2024-07-24T09:52:46.000Z</time>
</trkpt>
<trkpt lat="46.0438060" lon="10.3830980">
	<ele>1619.80</ele>
	<time>2024-07-24T09:52:47.000Z</time>
</trkpt>
<trkpt lat="46.0438110" lon="10.3830990">
	<ele>1619.60</ele>
	<time>2024-07-24T09:52:48.000Z</time>
</trkpt>
<trkpt lat="46.0438150" lon="10.3831000">
	<ele>1619.40</ele>
	<time>2024-07-24T09:52:49.000Z</time>
</trkpt>
<trkpt lat="46.0438170" lon="10.3831000">
	<ele>1619.20</ele>
	<time>2024-07-24T09:52:50.000Z</time>
</trkpt>
<trkpt lat="46.0438260" lon="10.3830930">
	<ele>1619.00</ele>
	<time>2024-07-24T09:52:51.000Z</time>
</trkpt>
<trkpt lat="46.0438350" lon="10.3830820">
	<ele>1618.80</ele>
	<time>2024-07-24T09:52:52.000Z</time>
</trkpt>
<trkpt lat="46.0438420" lon="10.3830730">
	<ele>1618.40</ele>
	<time>2024-07-24T09:52:53.000Z</time>
</trkpt>
<trkpt lat="46.0438520" lon="10.3830700">
	<ele>1618.20</ele>
	<time>2024-07-24T09:52:54.000Z</time>
</trkpt>
<trkpt lat="46.0438620" lon="10.3830710">
	<ele>1618.00</ele>
	<time>2024-07-24T09:52:55.000Z</time>
</trkpt>
<trkpt lat="46.0438730" lon="10.3830720">
	<ele>1617.80</ele>
	<time>2024-07-24T09:52:56.000Z</time>
</trkpt>
<trkpt lat="46.0438840" lon="10.3830650">
	<ele>1617.60</ele>
	<time>2024-07-24T09:52:57.000Z</time>
</trkpt>
<trkpt lat="46.0438900" lon="10.3830700">
	<ele>1617.20</ele>
	<time>2024-07-24T09:52:58.000Z</time>
</trkpt>
<trkpt lat="46.0438930" lon="10.3830690">
	<ele>1617.00</ele>
	<time>2024-07-24T09:52:59.000Z</time>
</trkpt>
<trkpt lat="46.0438960" lon="10.3830660">
	<ele>1616.80</ele>
	<time>2024-07-24T09:53:00.000Z</time>
</trkpt>
<trkpt lat="46.0439030" lon="10.3830570">
	<ele>1616.80</ele>
	<time>2024-07-24T09:53:01.000Z</time>
</trkpt>
<trkpt lat="46.0439130" lon="10.3830420">
	<ele>1616.60</ele>
	<time>2024-07-24T09:53:02.000Z</time>
</trkpt>
<trkpt lat="46.0439240" lon="10.3830340">
	<ele>1616.20</ele>
	<time>2024-07-24T09:53:03.000Z</time>
</trkpt>
<trkpt lat="46.0439360" lon="10.3830350">
	<ele>1616.20</ele>
	<time>2024-07-24T09:53:04.000Z</time>
</trkpt>
<trkpt lat="46.0439440" lon="10.3830420">
	<ele>1615.80</ele>
	<time>2024-07-24T09:53:05.000Z</time>
</trkpt>
<trkpt lat="46.0439500" lon="10.3830470">
	<ele>1615.60</ele>
	<time>2024-07-24T09:53:06.000Z</time>
</trkpt>
<trkpt lat="46.0439550" lon="10.3830520">
	<ele>1615.40</ele>
	<time>2024-07-24T09:53:07.000Z</time>
</trkpt>
<trkpt lat="46.0439660" lon="10.3830550">
	<ele>1615.00</ele>
	<time>2024-07-24T09:53:08.000Z</time>
</trkpt>
<trkpt lat="46.0439750" lon="10.3830610">
	<ele>1614.80</ele>
	<time>2024-07-24T09:53:09.000Z</time>
</trkpt>
<trkpt lat="46.0439900" lon="10.3830660">
	<ele>1614.60</ele>
	<time>2024-07-24T09:53:10.000Z</time>
</trkpt>
<trkpt lat="46.0440010" lon="10.3830730">
	<ele>1614.40</ele>
	<time>2024-07-24T09:53:11.000Z</time>
</trkpt>
<trkpt lat="46.0440110" lon="10.3830770">
	<ele>1614.20</ele>
	<time>2024-07-24T09:53:12.000Z</time>
</trkpt>
<trkpt lat="46.0440210" lon="10.3830730">
	<ele>1614.00</ele>
	<time>2024-07-24T09:53:13.000Z</time>
</trkpt>
<trkpt lat="46.0440330" lon="10.3830640">
	<ele>1613.80</ele>
	<time>2024-07-24T09:53:14.000Z</time>
</trkpt>
<trkpt lat="46.0440450" lon="10.3830570">
	<ele>1613.60</ele>
	<time>2024-07-24T09:53:15.000Z</time>
</trkpt>
<trkpt lat="46.0440590" lon="10.3830520">
	<ele>1613.40</ele>
	<time>2024-07-24T09:53:16.000Z</time>
</trkpt>
<trkpt lat="46.0440720" lon="10.3830440">
	<ele>1613.20</ele>
	<time>2024-07-24T09:53:17.000Z</time>
</trkpt>
<trkpt lat="46.0440860" lon="10.3830400">
	<ele>1613.20</ele>
	<time>2024-07-24T09:53:18.000Z</time>
</trkpt>
<trkpt lat="46.0440900" lon="10.3830400">
	<ele>1612.80</ele>
	<time>2024-07-24T09:53:19.000Z</time>
</trkpt>
<trkpt lat="46.0440920" lon="10.3830390">
	<ele>1612.60</ele>
	<time>2024-07-24T09:53:20.000Z</time>
</trkpt>
<trkpt lat="46.0441010" lon="10.3830360">
	<ele>1612.60</ele>
	<time>2024-07-24T09:53:21.000Z</time>
</trkpt>
<trkpt lat="46.0441150" lon="10.3830330">
	<ele>1612.20</ele>
	<time>2024-07-24T09:53:22.000Z</time>
</trkpt>
<trkpt lat="46.0441250" lon="10.3830320">
	<ele>1612.00</ele>
	<time>2024-07-24T09:53:23.000Z</time>
</trkpt>
<trkpt lat="46.0441360" lon="10.3830220">
	<ele>1611.80</ele>
	<time>2024-07-24T09:53:24.000Z</time>
</trkpt>
<trkpt lat="46.0441410" lon="10.3830110">
	<ele>1611.40</ele>
	<time>2024-07-24T09:53:25.000Z</time>
</trkpt>
<trkpt lat="46.0441430" lon="10.3829990">
	<ele>1611.00</ele>
	<time>2024-07-24T09:53:26.000Z</time>
</trkpt>
<trkpt lat="46.0441480" lon="10.3829860">
	<ele>1610.80</ele>
	<time>2024-07-24T09:53:27.000Z</time>
</trkpt>
<trkpt lat="46.0441580" lon="10.3829760">
	<ele>1610.60</ele>
	<time>2024-07-24T09:53:28.000Z</time>
</trkpt>
<trkpt lat="46.0441590" lon="10.3829710">
	<ele>1610.40</ele>
	<time>2024-07-24T09:53:29.000Z</time>
</trkpt>
<trkpt lat="46.0441590" lon="10.3829660">
	<ele>1610.20</ele>
	<time>2024-07-24T09:53:30.000Z</time>
</trkpt>
<trkpt lat="46.0441590" lon="10.3829600">
	<ele>1610.00</ele>
	<time>2024-07-24T09:53:31.000Z</time>
</trkpt>
<trkpt lat="46.0441620" lon="10.3829540">
	<ele>1609.80</ele>
	<time>2024-07-24T09:53:32.000Z</time>
</trkpt>
<trkpt lat="46.0441580" lon="10.3829430">
	<ele>1609.60</ele>
	<time>2024-07-24T09:53:33.000Z</time>
</trkpt>
<trkpt lat="46.0441540" lon="10.3829320">
	<ele>1609.60</ele>
	<time>2024-07-24T09:53:34.000Z</time>
</trkpt>
<trkpt lat="46.0441600" lon="10.3829110">
	<ele>1609.20</ele>
	<time>2024-07-24T09:53:35.000Z</time>
</trkpt>
<trkpt lat="46.0441640" lon="10.3828950">
	<ele>1609.00</ele>
	<time>2024-07-24T09:53:36.000Z</time>
</trkpt>
<trkpt lat="46.0441680" lon="10.3828800">
	<ele>1608.80</ele>
	<time>2024-07-24T09:53:37.000Z</time>
</trkpt>
<trkpt lat="46.0441720" lon="10.3828690">
	<ele>1608.60</ele>
	<time>2024-07-24T09:53:38.000Z</time>
</trkpt>
<trkpt lat="46.0441720" lon="10.3828650">
	<ele>1608.40</ele>
	<time>2024-07-24T09:53:39.000Z</time>
</trkpt>
<trkpt lat="46.0441750" lon="10.3828600">
	<ele>1608.20</ele>
	<time>2024-07-24T09:53:40.000Z</time>
</trkpt>
<trkpt lat="46.0441820" lon="10.3828500">
	<ele>1608.00</ele>
	<time>2024-07-24T09:53:41.000Z</time>
</trkpt>
<trkpt lat="46.0441900" lon="10.3828440">
	<ele>1608.00</ele>
	<time>2024-07-24T09:53:42.000Z</time>
</trkpt>
<trkpt lat="46.0441930" lon="10.3828430">
	<ele>1607.80</ele>
	<time>2024-07-24T09:53:43.000Z</time>
</trkpt>
<trkpt lat="46.0442000" lon="10.3828430">
	<ele>1607.40</ele>
	<time>2024-07-24T09:53:44.000Z</time>
</trkpt>
<trkpt lat="46.0442100" lon="10.3828420">
	<ele>1607.20</ele>
	<time>2024-07-24T09:53:45.000Z</time>
</trkpt>
<trkpt lat="46.0442170" lon="10.3828440">
	<ele>1607.00</ele>
	<time>2024-07-24T09:53:46.000Z</time>
</trkpt>
<trkpt lat="46.0442280" lon="10.3828390">
	<ele>1606.80</ele>
	<time>2024-07-24T09:53:47.000Z</time>
</trkpt>
<trkpt lat="46.0442310" lon="10.3828320">
	<ele>1606.60</ele>
	<time>2024-07-24T09:53:48.000Z</time>
</trkpt>
<trkpt lat="46.0442250" lon="10.3828300">
	<ele>1606.40</ele>
	<time>2024-07-24T09:53:49.000Z</time>
</trkpt>
<trkpt lat="46.0442250" lon="10.3828280">
	<ele>1606.20</ele>
	<time>2024-07-24T09:53:50.000Z</time>
</trkpt>
<trkpt lat="46.0442260" lon="10.3828240">
	<ele>1606.00</ele>
	<time>2024-07-24T09:53:51.000Z</time>
</trkpt>
<trkpt lat="46.0442260" lon="10.3828210">
	<ele>1605.80</ele>
	<time>2024-07-24T09:53:52.000Z</time>
</trkpt>
<trkpt lat="46.0442300" lon="10.3828100">
	<ele>1605.60</ele>
	<time>2024-07-24T09:53:53.000Z</time>
</trkpt>
<trkpt lat="46.0442430" lon="10.3827850">
	<ele>1605.40</ele>
	<time>2024-07-24T09:53:54.000Z</time>
</trkpt>
<trkpt lat="46.0442480" lon="10.3827720">
	<ele>1605.20</ele>
	<time>2024-07-24T09:53:55.000Z</time>
</trkpt>
<trkpt lat="46.0442570" lon="10.3827530">
	<ele>1604.80</ele>
	<time>2024-07-24T09:53:56.000Z</time>
</trkpt>
<trkpt lat="46.0442690" lon="10.3827410">
	<ele>1604.60</ele>
	<time>2024-07-24T09:53:57.000Z</time>
</trkpt>
<trkpt lat="46.0442750" lon="10.3827340">
	<ele>1604.40</ele>
	<time>2024-07-24T09:53:58.000Z</time>
</trkpt>
<trkpt lat="46.0442840" lon="10.3827300">
	<ele>1604.40</ele>
	<time>2024-07-24T09:53:59.000Z</time>
</trkpt>
<trkpt lat="46.0442930" lon="10.3827220">
	<ele>1603.80</ele>
	<time>2024-07-24T09:54:00.000Z</time>
</trkpt>
<trkpt lat="46.0443000" lon="10.3827150">
	<ele>1603.60</ele>
	<time>2024-07-24T09:54:01.000Z</time>
</trkpt>
<trkpt lat="46.0443010" lon="10.3827030">
	<ele>1603.40</ele>
	<time>2024-07-24T09:54:02.000Z</time>
</trkpt>
<trkpt lat="46.0443050" lon="10.3826930">
	<ele>1603.20</ele>
	<time>2024-07-24T09:54:03.000Z</time>
</trkpt>
<trkpt lat="46.0443070" lon="10.3826760">
	<ele>1603.20</ele>
	<time>2024-07-24T09:54:04.000Z</time>
</trkpt>
<trkpt lat="46.0443110" lon="10.3826620">
	<ele>1603.00</ele>
	<time>2024-07-24T09:54:05.000Z</time>
</trkpt>
<trkpt lat="46.0443130" lon="10.3826550">
	<ele>1603.00</ele>
	<time>2024-07-24T09:54:06.000Z</time>
</trkpt>
<trkpt lat="46.0443190" lon="10.3826410">
	<ele>1602.60</ele>
	<time>2024-07-24T09:54:07.000Z</time>
</trkpt>
<trkpt lat="46.0443240" lon="10.3826250">
	<ele>1602.40</ele>
	<time>2024-07-24T09:54:08.000Z</time>
</trkpt>
<trkpt lat="46.0443270" lon="10.3826050">
	<ele>1602.20</ele>
	<time>2024-07-24T09:54:09.000Z</time>
</trkpt>
<trkpt lat="46.0443340" lon="10.3825920">
	<ele>1602.00</ele>
	<time>2024-07-24T09:54:10.000Z</time>
</trkpt>
<trkpt lat="46.0443430" lon="10.3825810">
	<ele>1601.80</ele>
	<time>2024-07-24T09:54:11.000Z</time>
</trkpt>
<trkpt lat="46.0443460" lon="10.3825740">
	<ele>1601.60</ele>
	<time>2024-07-24T09:54:12.000Z</time>
</trkpt>
<trkpt lat="46.0443550" lon="10.3825610">
	<ele>1601.40</ele>
	<time>2024-07-24T09:54:13.000Z</time>
</trkpt>
<trkpt lat="46.0443630" lon="10.3825510">
	<ele>1601.20</ele>
	<time>2024-07-24T09:54:14.000Z</time>
</trkpt>
<trkpt lat="46.0443710" lon="10.3825470">
	<ele>1601.00</ele>
	<time>2024-07-24T09:54:15.000Z</time>
</trkpt>
<trkpt lat="46.0443790" lon="10.3825440">
	<ele>1600.80</ele>
	<time>2024-07-24T09:54:16.000Z</time>
</trkpt>
<trkpt lat="46.0443870" lon="10.3825390">
	<ele>1600.60</ele>
	<time>2024-07-24T09:54:17.000Z</time>
</trkpt>
<trkpt lat="46.0443950" lon="10.3825330">
	<ele>1600.40</ele>
	<time>2024-07-24T09:54:18.000Z</time>
</trkpt>
<trkpt lat="46.0444030" lon="10.3825310">
	<ele>1600.20</ele>
	<time>2024-07-24T09:54:19.000Z</time>
</trkpt>
<trkpt lat="46.0444060" lon="10.3825290">
	<ele>1600.00</ele>
	<time>2024-07-24T09:54:20.000Z</time>
</trkpt>
<trkpt lat="46.0444050" lon="10.3825280">
	<ele>1600.00</ele>
	<time>2024-07-24T09:54:21.000Z</time>
</trkpt>
<trkpt lat="46.0444130" lon="10.3825300">
	<ele>1599.60</ele>
	<time>2024-07-24T09:54:22.000Z</time>
</trkpt>
<trkpt lat="46.0444230" lon="10.3825270">
	<ele>1599.40</ele>
	<time>2024-07-24T09:54:23.000Z</time>
</trkpt>
<trkpt lat="46.0444330" lon="10.3825200">
	<ele>1599.20</ele>
	<time>2024-07-24T09:54:24.000Z</time>
</trkpt>
<trkpt lat="46.0444420" lon="10.3825160">
	<ele>1599.00</ele>
	<time>2024-07-24T09:54:25.000Z</time>
</trkpt>
<trkpt lat="46.0444560" lon="10.3825130">
	<ele>1598.60</ele>
	<time>2024-07-24T09:54:26.000Z</time>
</trkpt>
<trkpt lat="46.0444690" lon="10.3825100">
	<ele>1598.40</ele>
	<time>2024-07-24T09:54:27.000Z</time>
</trkpt>
<trkpt lat="46.0444820" lon="10.3825050">
	<ele>1598.20</ele>
	<time>2024-07-24T09:54:28.000Z</time>
</trkpt>
<trkpt lat="46.0444910" lon="10.3824980">
	<ele>1598.20</ele>
	<time>2024-07-24T09:54:29.000Z</time>
</trkpt>
<trkpt lat="46.0445000" lon="10.3824860">
	<ele>1598.00</ele>
	<time>2024-07-24T09:54:30.000Z</time>
</trkpt>
<trkpt lat="46.0445130" lon="10.3824750">
	<ele>1597.80</ele>
	<time>2024-07-24T09:54:31.000Z</time>
</trkpt>
<trkpt lat="46.0445210" lon="10.3824660">
	<ele>1597.40</ele>
	<time>2024-07-24T09:54:32.000Z</time>
</trkpt>
<trkpt lat="46.0445330" lon="10.3824570">
	<ele>1597.20</ele>
	<time>2024-07-24T09:54:33.000Z</time>
</trkpt>
<trkpt lat="46.0445430" lon="10.3824470">
	<ele>1597.00</ele>
	<time>2024-07-24T09:54:34.000Z</time>
</trkpt>
<trkpt lat="46.0445570" lon="10.3824300">
	<ele>1596.80</ele>
	<time>2024-07-24T09:54:35.000Z</time>
</trkpt>
<trkpt lat="46.0445650" lon="10.3824240">
	<ele>1596.60</ele>
	<time>2024-07-24T09:54:36.000Z</time>
</trkpt>
<trkpt lat="46.0445730" lon="10.3824230">
	<ele>1596.40</ele>
	<time>2024-07-24T09:54:37.000Z</time>
</trkpt>
<trkpt lat="46.0445780" lon="10.3824190">
	<ele>1596.00</ele>
	<time>2024-07-24T09:54:38.000Z</time>
</trkpt>
<trkpt lat="46.0445770" lon="10.3824030">
	<ele>1596.00</ele>
	<time>2024-07-24T09:54:39.000Z</time>
</trkpt>
<trkpt lat="46.0445790" lon="10.3823920">
	<ele>1595.60</ele>
	<time>2024-07-24T09:54:40.000Z</time>
</trkpt>
<trkpt lat="46.0445890" lon="10.3823890">
	<ele>1595.40</ele>
	<time>2024-07-24T09:54:41.000Z</time>
</trkpt>
<trkpt lat="46.0445950" lon="10.3823900">
	<ele>1595.20</ele>
	<time>2024-07-24T09:54:42.000Z</time>
</trkpt>
<trkpt lat="46.0446040" lon="10.3823930">
	<ele>1595.00</ele>
	<time>2024-07-24T09:54:43.000Z</time>
</trkpt>
<trkpt lat="46.0446210" lon="10.3823890">
	<ele>1594.80</ele>
	<time>2024-07-24T09:54:44.000Z</time>
</trkpt>
<trkpt lat="46.0446250" lon="10.3823860">
	<ele>1594.40</ele>
	<time>2024-07-24T09:54:45.000Z</time>
</trkpt>
<trkpt lat="46.0446320" lon="10.3823750">
	<ele>1594.20</ele>
	<time>2024-07-24T09:54:46.000Z</time>
</trkpt>
<trkpt lat="46.0446360" lon="10.3823650">
	<ele>1594.00</ele>
	<time>2024-07-24T09:54:47.000Z</time>
</trkpt>
<trkpt lat="46.0446370" lon="10.3823550">
	<ele>1593.80</ele>
	<time>2024-07-24T09:54:48.000Z</time>
</trkpt>
<trkpt lat="46.0446370" lon="10.3823470">
	<ele>1593.60</ele>
	<time>2024-07-24T09:54:49.000Z</time>
</trkpt>
<trkpt lat="46.0446370" lon="10.3823410">
	<ele>1593.40</ele>
	<time>2024-07-24T09:54:50.000Z</time>
</trkpt>
<trkpt lat="46.0446410" lon="10.3823360">
	<ele>1593.40</ele>
	<time>2024-07-24T09:54:51.000Z</time>
</trkpt>
<trkpt lat="46.0446450" lon="10.3823280">
	<ele>1593.20</ele>
	<time>2024-07-24T09:54:52.000Z</time>
</trkpt>
<trkpt lat="46.0446550" lon="10.3823260">
	<ele>1592.80</ele>
	<time>2024-07-24T09:54:53.000Z</time>
</trkpt>
<trkpt lat="46.0446640" lon="10.3823230">
	<ele>1592.40</ele>
	<time>2024-07-24T09:54:54.000Z</time>
</trkpt>
<trkpt lat="46.0446720" lon="10.3823140">
	<ele>1592.20</ele>
	<time>2024-07-24T09:54:55.000Z</time>
</trkpt>
<trkpt lat="46.0446730" lon="10.3822980">
	<ele>1592.00</ele>
	<time>2024-07-24T09:54:56.000Z</time>
</trkpt>
<trkpt lat="46.0446790" lon="10.3822900">
	<ele>1591.80</ele>
	<time>2024-07-24T09:54:57.000Z</time>
</trkpt>
<trkpt lat="46.0446800" lon="10.3822820">
	<ele>1591.60</ele>
	<time>2024-07-24T09:54:58.000Z</time>
</trkpt>
<trkpt lat="46.0446830" lon="10.3822650">
	<ele>1591.20</ele>
	<time>2024-07-24T09:54:59.000Z</time>
</trkpt>
<trkpt lat="46.0446890" lon="10.3822520">
	<ele>1591.00</ele>
	<time>2024-07-24T09:55:00.000Z</time>
</trkpt>
<trkpt lat="46.0446970" lon="10.3822520">
	<ele>1590.60</ele>
	<time>2024-07-24T09:55:01.000Z</time>
</trkpt>
<trkpt lat="46.0447050" lon="10.3822480">
	<ele>1590.40</ele>
	<time>2024-07-24T09:55:02.000Z</time>
</trkpt>
<trkpt lat="46.0447110" lon="10.3822370">
	<ele>1590.20</ele>
	<time>2024-07-24T09:55:03.000Z</time>
</trkpt>
<trkpt lat="46.0447150" lon="10.3822240">
	<ele>1589.80</ele>
	<time>2024-07-24T09:55:04.000Z</time>
</trkpt>
<trkpt lat="46.0447200" lon="10.3822100">
	<ele>1589.60</ele>
	<time>2024-07-24T09:55:05.000Z</time>
</trkpt>
<trkpt lat="46.0447260" lon="10.3821950">
	<ele>1589.40</ele>
	<time>2024-07-24T09:55:06.000Z</time>
</trkpt>
<trkpt lat="46.0447320" lon="10.3821840">
	<ele>1589.20</ele>
	<time>2024-07-24T09:55:07.000Z</time>
</trkpt>
<trkpt lat="46.0447400" lon="10.3821790">
	<ele>1588.80</ele>
	<time>2024-07-24T09:55:08.000Z</time>
</trkpt>
<trkpt lat="46.0447510" lon="10.3821830">
	<ele>1588.60</ele>
	<time>2024-07-24T09:55:09.000Z</time>
</trkpt>
<trkpt lat="46.0447610" lon="10.3821940">
	<ele>1588.40</ele>
	<time>2024-07-24T09:55:10.000Z</time>
</trkpt>
<trkpt lat="46.0447680" lon="10.3821970">
	<ele>1588.00</ele>
	<time>2024-07-24T09:55:11.000Z</time>
</trkpt>
<trkpt lat="46.0447730" lon="10.3821980">
	<ele>1587.80</ele>
	<time>2024-07-24T09:55:12.000Z</time>
</trkpt>
<trkpt lat="46.0447800" lon="10.3821920">
	<ele>1587.40</ele>
	<time>2024-07-24T09:55:13.000Z</time>
</trkpt>
<trkpt lat="46.0447870" lon="10.3821840">
	<ele>1587.40</ele>
	<time>2024-07-24T09:55:14.000Z</time>
</trkpt>
<trkpt lat="46.0447960" lon="10.3821710">
	<ele>1587.00</ele>
	<time>2024-07-24T09:55:15.000Z</time>
</trkpt>
<trkpt lat="46.0448030" lon="10.3821600">
	<ele>1586.80</ele>
	<time>2024-07-24T09:55:16.000Z</time>
</trkpt>
<trkpt lat="46.0448100" lon="10.3821530">
	<ele>1586.60</ele>
	<time>2024-07-24T09:55:17.000Z</time>
</trkpt>
<trkpt lat="46.0448180" lon="10.3821480">
	<ele>1586.40</ele>
	<time>2024-07-24T09:55:18.000Z</time>
</trkpt>
<trkpt lat="46.0448270" lon="10.3821430">
	<ele>1586.20</ele>
	<time>2024-07-24T09:55:19.000Z</time>
</trkpt>
<trkpt lat="46.0448360" lon="10.3821380">
	<ele>1586.00</ele>
	<time>2024-07-24T09:55:20.000Z</time>
</trkpt>
<trkpt lat="46.0448460" lon="10.3821380">
	<ele>1585.60</ele>
	<time>2024-07-24T09:55:21.000Z</time>
</trkpt>
<trkpt lat="46.0448540" lon="10.3821350">
	<ele>1585.40</ele>
	<time>2024-07-24T09:55:22.000Z</time>
</trkpt>
<trkpt lat="46.0448630" lon="10.3821350">
	<ele>1585.00</ele>
	<time>2024-07-24T09:55:23.000Z</time>
</trkpt>
<trkpt lat="46.0448710" lon="10.3821300">
	<ele>1584.80</ele>
	<time>2024-07-24T09:55:24.000Z</time>
</trkpt>
<trkpt lat="46.0448760" lon="10.3821120">
	<ele>1584.60</ele>
	<time>2024-07-24T09:55:25.000Z</time>
</trkpt>
<trkpt lat="46.0448830" lon="10.3821030">
	<ele>1584.40</ele>
	<time>2024-07-24T09:55:26.000Z</time>
</trkpt>
<trkpt lat="46.0448920" lon="10.3821010">
	<ele>1584.00</ele>
	<time>2024-07-24T09:55:27.000Z</time>
</trkpt>
<trkpt lat="46.0448950" lon="10.3820980">
	<ele>1583.80</ele>
	<time>2024-07-24T09:55:28.000Z</time>
</trkpt>
<trkpt lat="46.0449030" lon="10.3821000">
	<ele>1583.60</ele>
	<time>2024-07-24T09:55:29.000Z</time>
</trkpt>
<trkpt lat="46.0449090" lon="10.3820950">
	<ele>1583.40</ele>
	<time>2024-07-24T09:55:30.000Z</time>
</trkpt>
<trkpt lat="46.0449100" lon="10.3820870">
	<ele>1583.20</ele>
	<time>2024-07-24T09:55:31.000Z</time>
</trkpt>
<trkpt lat="46.0449150" lon="10.3820910">
	<ele>1583.20</ele>
	<time>2024-07-24T09:55:32.000Z</time>
</trkpt>
<trkpt lat="46.0449230" lon="10.3820920">
	<ele>1583.00</ele>
	<time>2024-07-24T09:55:33.000Z</time>
</trkpt>
<trkpt lat="46.0449310" lon="10.3820900">
	<ele>1582.60</ele>
	<time>2024-07-24T09:55:34.000Z</time>
</trkpt>
<trkpt lat="46.0449390" lon="10.3820870">
	<ele>1582.40</ele>
	<time>2024-07-24T09:55:35.000Z</time>
</trkpt>
<trkpt lat="46.0449420" lon="10.3820720">
	<ele>1582.20</ele>
	<time>2024-07-24T09:55:36.000Z</time>
</trkpt>
<trkpt lat="46.0449440" lon="10.3820550">
	<ele>1582.00</ele>
	<time>2024-07-24T09:55:37.000Z</time>
</trkpt>
<trkpt lat="46.0449520" lon="10.3820430">
	<ele>1581.60</ele>
	<time>2024-07-24T09:55:38.000Z</time>
</trkpt>
<trkpt lat="46.0449640" lon="10.3820340">
	<ele>1581.40</ele>
	<time>2024-07-24T09:55:39.000Z</time>
</trkpt>
<trkpt lat="46.0449660" lon="10.3820300">
	<ele>1581.20</ele>
	<time>2024-07-24T09:55:40.000Z</time>
</trkpt>
<trkpt lat="46.0449750" lon="10.3820470">
	<ele>1580.80</ele>
	<time>2024-07-24T09:55:41.000Z</time>
</trkpt>
<trkpt lat="46.0449840" lon="10.3820600">
	<ele>1580.60</ele>
	<time>2024-07-24T09:55:42.000Z</time>
</trkpt>
<trkpt lat="46.0449960" lon="10.3820530">
	<ele>1580.40</ele>
	<time>2024-07-24T09:55:43.000Z</time>
</trkpt>
<trkpt lat="46.0450230" lon="10.3820430">
	<ele>1580.20</ele>
	<time>2024-07-24T09:55:44.000Z</time>
</trkpt>
<trkpt lat="46.0450380" lon="10.3820450">
	<ele>1580.00</ele>
	<time>2024-07-24T09:55:45.000Z</time>
</trkpt>
<trkpt lat="46.0450460" lon="10.3820520">
	<ele>1579.80</ele>
	<time>2024-07-24T09:55:46.000Z</time>
</trkpt>
<trkpt lat="46.0450530" lon="10.3820530">
	<ele>1579.60</ele>
	<time>2024-07-24T09:55:47.000Z</time>
</trkpt>
<trkpt lat="46.0450620" lon="10.3820520">
	<ele>1579.40</ele>
	<time>2024-07-24T09:55:48.000Z</time>
</trkpt>
<trkpt lat="46.0450670" lon="10.3820530">
	<ele>1579.20</ele>
	<time>2024-07-24T09:55:49.000Z</time>
</trkpt>
<trkpt lat="46.0450770" lon="10.3820530">
	<ele>1579.00</ele>
	<time>2024-07-24T09:55:50.000Z</time>
</trkpt>
<trkpt lat="46.0450880" lon="10.3820550">
	<ele>1578.80</ele>
	<time>2024-07-24T09:55:51.000Z</time>
</trkpt>
<trkpt lat="46.0450980" lon="10.3820570">
	<ele>1578.60</ele>
	<time>2024-07-24T09:55:52.000Z</time>
</trkpt>
<trkpt lat="46.0451050" lon="10.3820590">
	<ele>1578.40</ele>
	<time>2024-07-24T09:55:53.000Z</time>
</trkpt>
<trkpt lat="46.0451120" lon="10.3820600">
	<ele>1578.20</ele>
	<time>2024-07-24T09:55:54.000Z</time>
</trkpt>
<trkpt lat="46.0451210" lon="10.3820630">
	<ele>1578.00</ele>
	<time>2024-07-24T09:55:55.000Z</time>
</trkpt>
<trkpt lat="46.0451310" lon="10.3820590">
	<ele>1577.80</ele>
	<time>2024-07-24T09:55:56.000Z</time>
</trkpt>
<trkpt lat="46.0451400" lon="10.3820560">
	<ele>1577.60</ele>
	<time>2024-07-24T09:55:57.000Z</time>
</trkpt>
<trkpt lat="46.0451500" lon="10.3820550">
	<ele>1577.40</ele>
	<time>2024-07-24T09:55:58.000Z</time>
</trkpt>
<trkpt lat="46.0451630" lon="10.3820540">
	<ele>1577.40</ele>
	<time>2024-07-24T09:55:59.000Z</time>
</trkpt>
<trkpt lat="46.0451760" lon="10.3820560">
	<ele>1577.20</ele>
	<time>2024-07-24T09:56:00.000Z</time>
</trkpt>
<trkpt lat="46.0451910" lon="10.3820550">
	<ele>1577.00</ele>
	<time>2024-07-24T09:56:01.000Z</time>
</trkpt>
<trkpt lat="46.0452060" lon="10.3820540">
	<ele>1576.80</ele>
	<time>2024-07-24T09:56:02.000Z</time>
</trkpt>
<trkpt lat="46.0452200" lon="10.3820530">
	<ele>1576.60</ele>
	<time>2024-07-24T09:56:03.000Z</time>
</trkpt>
<trkpt lat="46.0452380" lon="10.3820470">
	<ele>1576.60</ele>
	<time>2024-07-24T09:56:04.000Z</time>
</trkpt>
<trkpt lat="46.0452520" lon="10.3820420">
	<ele>1576.40</ele>
	<time>2024-07-24T09:56:05.000Z</time>
</trkpt>
<trkpt lat="46.0452710" lon="10.3820500">
	<ele>1576.40</ele>
	<time>2024-07-24T09:56:06.000Z</time>
</trkpt>
<trkpt lat="46.0452830" lon="10.3820460">
	<ele>1576.20</ele>
	<time>2024-07-24T09:56:07.000Z</time>
</trkpt>
<trkpt lat="46.0452940" lon="10.3820400">
	<ele>1576.00</ele>
	<time>2024-07-24T09:56:08.000Z</time>
</trkpt>
<trkpt lat="46.0453080" lon="10.3820350">
	<ele>1575.80</ele>
	<time>2024-07-24T09:56:09.000Z</time>
</trkpt>
<trkpt lat="46.0453190" lon="10.3820310">
	<ele>1575.60</ele>
	<time>2024-07-24T09:56:10.000Z</time>
</trkpt>
<trkpt lat="46.0453270" lon="10.3820280">
	<ele>1575.40</ele>
	<time>2024-07-24T09:56:11.000Z</time>
</trkpt>
<trkpt lat="46.0453340" lon="10.3820260">
	<ele>1575.20</ele>
	<time>2024-07-24T09:56:12.000Z</time>
</trkpt>
<trkpt lat="46.0453410" lon="10.3820220">
	<ele>1575.20</ele>
	<time>2024-07-24T09:56:13.000Z</time>
</trkpt>
<trkpt lat="46.0453500" lon="10.3820190">
	<ele>1575.00</ele>
	<time>2024-07-24T09:56:14.000Z</time>
</trkpt>
<trkpt lat="46.0453590" lon="10.3820120">
	<ele>1574.80</ele>
	<time>2024-07-24T09:56:15.000Z</time>
</trkpt>
<trkpt lat="46.0453690" lon="10.3820050">
	<ele>1574.60</ele>
	<time>2024-07-24T09:56:16.000Z</time>
</trkpt>
<trkpt lat="46.0453830" lon="10.3820050">
	<ele>1574.40</ele>
	<time>2024-07-24T09:56:17.000Z</time>
</trkpt>
<trkpt lat="46.0453860" lon="10.3820040">
	<ele>1574.40</ele>
	<time>2024-07-24T09:56:18.000Z</time>
</trkpt>
<trkpt lat="46.0453850" lon="10.3820050">
	<ele>1574.20</ele>
	<time>2024-07-24T09:56:19.000Z</time>
</trkpt>
<trkpt lat="46.0453830" lon="10.3820060">
	<ele>1574.20</ele>
	<time>2024-07-24T09:56:20.000Z</time>
</trkpt>
<trkpt lat="46.0453790" lon="10.3820040">
	<ele>1574.00</ele>
	<time>2024-07-24T09:56:21.000Z</time>
</trkpt>
<trkpt lat="46.0453770" lon="10.3820050">
	<ele>1573.80</ele>
	<time>2024-07-24T09:56:22.000Z</time>
</trkpt>
<trkpt lat="46.0453770" lon="10.3820060">
	<ele>1573.80</ele>
	<time>2024-07-24T09:56:23.000Z</time>
</trkpt>
<trkpt lat="46.0453770" lon="10.3820060">
	<ele>1573.60</ele>
	<time>2024-07-24T09:56:24.000Z</time>
</trkpt>
<trkpt lat="46.0453780" lon="10.3820070">
	<ele>1573.60</ele>
	<time>2024-07-24T09:56:25.000Z</time>
</trkpt>
<trkpt lat="46.0453790" lon="10.3820070">
	<ele>1573.60</ele>
	<time>2024-07-24T09:56:26.000Z</time>
</trkpt>
<trkpt lat="46.0453810" lon="10.3820080">
	<ele>1573.60</ele>
	<time>2024-07-24T09:56:27.000Z</time>
</trkpt>
<trkpt lat="46.0453830" lon="10.3820100">
	<ele>1573.60</ele>
	<time>2024-07-24T09:56:28.000Z</time>
</trkpt>
<trkpt lat="46.0453840" lon="10.3820110">
	<ele>1573.60</ele>
	<time>2024-07-24T09:56:29.000Z</time>
</trkpt>
<trkpt lat="46.0453850" lon="10.3820120">
	<ele>1573.60</ele>
	<time>2024-07-24T09:56:30.000Z</time>
</trkpt>
<trkpt lat="46.0453860" lon="10.3820150">
	<ele>1573.60</ele>
	<time>2024-07-24T09:56:31.000Z</time>
</trkpt>
<trkpt lat="46.0453870" lon="10.3820170">
	<ele>1573.40</ele>
	<time>2024-07-24T09:56:32.000Z</time>
</trkpt>
<trkpt lat="46.0453880" lon="10.3820140">
	<ele>1573.40</ele>
	<time>2024-07-24T09:56:33.000Z</time>
</trkpt>
<trkpt lat="46.0453860" lon="10.3820130">
	<ele>1573.40</ele>
	<time>2024-07-24T09:56:34.000Z</time>
</trkpt>
<trkpt lat="46.0453860" lon="10.3820110">
	<ele>1573.20</ele>
	<time>2024-07-24T09:56:35.000Z</time>
</trkpt>
<trkpt lat="46.0453860" lon="10.3820110">
	<ele>1573.20</ele>
	<time>2024-07-24T09:56:36.000Z</time>
</trkpt>
<trkpt lat="46.0453860" lon="10.3820110">
	<ele>1573.20</ele>
	<time>2024-07-24T09:56:37.000Z</time>
</trkpt>
<trkpt lat="46.0453860" lon="10.3820110">
	<ele>1573.20</ele>
	<time>2024-07-24T09:56:38.000Z</time>
</trkpt>
<trkpt lat="46.0453860" lon="10.3820110">
	<ele>1573.20</ele>
	<time>2024-07-24T09:56:39.000Z</time>
</trkpt>
<trkpt lat="46.0453860" lon="10.3820110">
	<ele>1573.20</ele>
	<time>2024-07-24T09:56:40.000Z</time>
</trkpt>
<trkpt lat="46.0453860" lon="10.3820110">
	<ele>1573.20</ele>
	<time>2024-07-24T09:56:41.000Z</time>
</trkpt>
<trkpt lat="46.0453900" lon="10.3820100">
	<ele>1573.00</ele>
	<time>2024-07-24T09:56:42.000Z</time>
</trkpt>
<trkpt lat="46.0454060" lon="10.3820050">
	<ele>1572.80</ele>
	<time>2024-07-24T09:56:43.000Z</time>
</trkpt>
<trkpt lat="46.0454160" lon="10.3819990">
	<ele>1572.60</ele>
	<time>2024-07-24T09:56:44.000Z</time>
</trkpt>
<trkpt lat="46.0454290" lon="10.3819880">
	<ele>1572.40</ele>
	<time>2024-07-24T09:56:45.000Z</time>
</trkpt>
<trkpt lat="46.0454390" lon="10.3819850">
	<ele>1572.00</ele>
	<time>2024-07-24T09:56:46.000Z</time>
</trkpt>
<trkpt lat="46.0454500" lon="10.3819760">
	<ele>1571.80</ele>
	<time>2024-07-24T09:56:47.000Z</time>
</trkpt>
<trkpt lat="46.0454610" lon="10.3819680">
	<ele>1571.60</ele>
	<time>2024-07-24T09:56:48.000Z</time>
</trkpt>
<trkpt lat="46.0454770" lon="10.3819590">
	<ele>1571.40</ele>
	<time>2024-07-24T09:56:49.000Z</time>
</trkpt>
<trkpt lat="46.0454850" lon="10.3819540">
	<ele>1571.00</ele>
	<time>2024-07-24T09:56:50.000Z</time>
</trkpt>
<trkpt lat="46.0454960" lon="10.3819450">
	<ele>1570.80</ele>
	<time>2024-07-24T09:56:51.000Z</time>
</trkpt>
<trkpt lat="46.0454990" lon="10.3819450">
	<ele>1570.60</ele>
	<time>2024-07-24T09:56:52.000Z</time>
</trkpt>
<trkpt lat="46.0454990" lon="10.3819470">
	<ele>1570.60</ele>
	<time>2024-07-24T09:56:53.000Z</time>
</trkpt>
<trkpt lat="46.0455020" lon="10.3819490">
	<ele>1570.40</ele>
	<time>2024-07-24T09:56:54.000Z</time>
</trkpt>
<trkpt lat="46.0455080" lon="10.3819510">
	<ele>1570.40</ele>
	<time>2024-07-24T09:56:55.000Z</time>
</trkpt>
<trkpt lat="46.0455130" lon="10.3819520">
	<ele>1570.20</ele>
	<time>2024-07-24T09:56:56.000Z</time>
</trkpt>
<trkpt lat="46.0455170" lon="10.3819550">
	<ele>1570.20</ele>
	<time>2024-07-24T09:56:57.000Z</time>
</trkpt>
<trkpt lat="46.0455170" lon="10.3819560">
	<ele>1570.20</ele>
	<time>2024-07-24T09:56:58.000Z</time>
</trkpt>
<trkpt lat="46.0455160" lon="10.3819580">
	<ele>1570.20</ele>
	<time>2024-07-24T09:56:59.000Z</time>
</trkpt>
<trkpt lat="46.0455160" lon="10.3819590">
	<ele>1570.20</ele>
	<time>2024-07-24T09:57:00.000Z</time>
</trkpt>
<trkpt lat="46.0455160" lon="10.3819610">
	<ele>1570.20</ele>
	<time>2024-07-24T09:57:01.000Z</time>
</trkpt>
<trkpt lat="46.0455160" lon="10.3819620">
	<ele>1570.20</ele>
	<time>2024-07-24T09:57:02.000Z</time>
</trkpt>
<trkpt lat="46.0455160" lon="10.3819640">
	<ele>1570.20</ele>
	<time>2024-07-24T09:57:03.000Z</time>
</trkpt>
<trkpt lat="46.0455160" lon="10.3819650">
	<ele>1570.20</ele>
	<time>2024-07-24T09:57:04.000Z</time>
</trkpt>
<trkpt lat="46.0455160" lon="10.3819650">
	<ele>1570.20</ele>
	<time>2024-07-24T09:57:05.000Z</time>
</trkpt>
<trkpt lat="46.0455160" lon="10.3819650">
	<ele>1570.00</ele>
	<time>2024-07-24T09:57:06.000Z</time>
</trkpt>
<trkpt lat="46.0455160" lon="10.3819650">
	<ele>1570.00</ele>
	<time>2024-07-24T09:57:07.000Z</time>
</trkpt>
<trkpt lat="46.0455160" lon="10.3819650">
	<ele>1570.00</ele>
	<time>2024-07-24T09:57:08.000Z</time>
</trkpt>
<trkpt lat="46.0455160" lon="10.3819650">
	<ele>1570.20</ele>
	<time>2024-07-24T09:57:09.000Z</time>
</trkpt>
<trkpt lat="46.0455160" lon="10.3819650">
	<ele>1570.00</ele>
	<time>2024-07-24T09:57:10.000Z</time>
</trkpt>
<trkpt lat="46.0455160" lon="10.3819650">
	<ele>1570.00</ele>
	<time>2024-07-24T09:57:11.000Z</time>
</trkpt>
<trkpt lat="46.0455160" lon="10.3819640">
	<ele>1569.80</ele>
	<time>2024-07-24T09:57:12.000Z</time>
</trkpt>
<trkpt lat="46.0455160" lon="10.3819620">
	<ele>1569.80</ele>
	<time>2024-07-24T09:57:13.000Z</time>
</trkpt>
<trkpt lat="46.0455160" lon="10.3819620">
	<ele>1569.80</ele>
	<time>2024-07-24T09:57:14.000Z</time>
</trkpt>
<trkpt lat="46.0455160" lon="10.3819610">
	<ele>1569.80</ele>
	<time>2024-07-24T09:57:15.000Z</time>
</trkpt>
<trkpt lat="46.0455160" lon="10.3819610">
	<ele>1569.80</ele>
	<time>2024-07-24T09:57:16.000Z</time>
</trkpt>
<trkpt lat="46.0455160" lon="10.3819610">
	<ele>1569.80</ele>
	<time>2024-07-24T09:57:17.000Z</time>
</trkpt>
<trkpt lat="46.0455160" lon="10.3819610">
	<ele>1569.60</ele>
	<time>2024-07-24T09:57:18.000Z</time>
</trkpt>
<trkpt lat="46.0455160" lon="10.3819610">
	<ele>1569.60</ele>
	<time>2024-07-24T09:57:19.000Z</time>
</trkpt>
<trkpt lat="46.0455170" lon="10.3819610">
	<ele>1569.60</ele>
	<time>2024-07-24T09:57:20.000Z</time>
</trkpt>
<trkpt lat="46.0455170" lon="10.3819610">
	<ele>1569.60</ele>
	<time>2024-07-24T09:57:21.000Z</time>
</trkpt>
<trkpt lat="46.0455170" lon="10.3819600">
	<ele>1569.60</ele>
	<time>2024-07-24T09:57:22.000Z</time>
</trkpt>
<trkpt lat="46.0455170" lon="10.3819600">
	<ele>1569.40</ele>
	<time>2024-07-24T09:57:23.000Z</time>
</trkpt>
<trkpt lat="46.0455170" lon="10.3819600">
	<ele>1569.40</ele>
	<time>2024-07-24T09:57:24.000Z</time>
</trkpt>
<trkpt lat="46.0455170" lon="10.3819590">
	<ele>1569.40</ele>
	<time>2024-07-24T09:57:25.000Z</time>
</trkpt>
<trkpt lat="46.0455190" lon="10.3819590">
	<ele>1569.20</ele>
	<time>2024-07-24T09:57:26.000Z</time>
</trkpt>
<trkpt lat="46.0455200" lon="10.3819590">
	<ele>1569.20</ele>
	<time>2024-07-24T09:57:27.000Z</time>
</trkpt>
<trkpt lat="46.0455230" lon="10.3819590">
	<ele>1569.20</ele>
	<time>2024-07-24T09:57:28.000Z</time>
</trkpt>
<trkpt lat="46.0455240" lon="10.3819590">
	<ele>1569.20</ele>
	<time>2024-07-24T09:57:29.000Z</time>
</trkpt>
<trkpt lat="46.0455240" lon="10.3819590">
	<ele>1569.00</ele>
	<time>2024-07-24T09:57:30.000Z</time>
</trkpt>
<trkpt lat="46.0455240" lon="10.3819590">
	<ele>1569.00</ele>
	<time>2024-07-24T09:57:31.000Z</time>
</trkpt>
<trkpt lat="46.0455240" lon="10.3819590">
	<ele>1569.00</ele>
	<time>2024-07-24T09:57:32.000Z</time>
</trkpt>
<trkpt lat="46.0455240" lon="10.3819590">
	<ele>1569.00</ele>
	<time>2024-07-24T09:57:33.000Z</time>
</trkpt>
<trkpt lat="46.0455240" lon="10.3819590">
	<ele>1569.00</ele>
	<time>2024-07-24T09:57:34.000Z</time>
</trkpt>
<trkpt lat="46.0455240" lon="10.3819590">
	<ele>1569.00</ele>
	<time>2024-07-24T09:57:35.000Z</time>
</trkpt>
<trkpt lat="46.0455240" lon="10.3819590">
	<ele>1569.00</ele>
	<time>2024-07-24T09:57:36.000Z</time>
</trkpt>
<trkpt lat="46.0455240" lon="10.3819580">
	<ele>1568.80</ele>
	<time>2024-07-24T09:57:37.000Z</time>
</trkpt>
<trkpt lat="46.0455240" lon="10.3819580">
	<ele>1568.80</ele>
	<time>2024-07-24T09:57:38.000Z</time>
</trkpt>
<trkpt lat="46.0455240" lon="10.3819580">
	<ele>1568.80</ele>
	<time>2024-07-24T09:57:39.000Z</time>
</trkpt>
<trkpt lat="46.0455240" lon="10.3819580">
	<ele>1568.80</ele>
	<time>2024-07-24T09:57:40.000Z</time>
</trkpt>
<trkpt lat="46.0455240" lon="10.3819580">
	<ele>1568.80</ele>
	<time>2024-07-24T09:57:41.000Z</time>
</trkpt>
<trkpt lat="46.0455240" lon="10.3819580">
	<ele>1568.80</ele>
	<time>2024-07-24T09:57:42.000Z</time>
</trkpt>
<trkpt lat="46.0455240" lon="10.3819580">
	<ele>1568.80</ele>
	<time>2024-07-24T09:57:43.000Z</time>
</trkpt>
<trkpt lat="46.0455240" lon="10.3819580">
	<ele>1568.80</ele>
	<time>2024-07-24T09:57:44.000Z</time>
</trkpt>
<trkpt lat="46.0455240" lon="10.3819580">
	<ele>1568.80</ele>
	<time>2024-07-24T09:57:45.000Z</time>
</trkpt>
<trkpt lat="46.0455240" lon="10.3819580">
	<ele>1568.80</ele>
	<time>2024-07-24T09:57:46.000Z</time>
</trkpt>
<trkpt lat="46.0455250" lon="10.3819560">
	<ele>1568.60</ele>
	<time>2024-07-24T09:57:47.000Z</time>
</trkpt>
<trkpt lat="46.0455250" lon="10.3819520">
	<ele>1568.60</ele>
	<time>2024-07-24T09:57:48.000Z</time>
</trkpt>
<trkpt lat="46.0455260" lon="10.3819510">
	<ele>1568.60</ele>
	<time>2024-07-24T09:57:49.000Z</time>
</trkpt>
<trkpt lat="46.0455260" lon="10.3819500">
	<ele>1568.60</ele>
	<time>2024-07-24T09:57:50.000Z</time>
</trkpt>
<trkpt lat="46.0455270" lon="10.3819500">
	<ele>1568.60</ele>
	<time>2024-07-24T09:57:51.000Z</time>
</trkpt>
<trkpt lat="46.0455280" lon="10.3819490">
	<ele>1568.60</ele>
	<time>2024-07-24T09:57:52.000Z</time>
</trkpt>
<trkpt lat="46.0455280" lon="10.3819470">
	<ele>1568.60</ele>
	<time>2024-07-24T09:57:53.000Z</time>
</trkpt>
<trkpt lat="46.0455280" lon="10.3819460">
	<ele>1568.60</ele>
	<time>2024-07-24T09:57:54.000Z</time>
</trkpt>
<trkpt lat="46.0455280" lon="10.3819450">
	<ele>1568.60</ele>
	<time>2024-07-24T09:57:55.000Z</time>
</trkpt>
<trkpt lat="46.0455280" lon="10.3819450">
	<ele>1568.60</ele>
	<time>2024-07-24T09:57:56.000Z</time>
</trkpt>
<trkpt lat="46.0455280" lon="10.3819450">
	<ele>1568.60</ele>
	<time>2024-07-24T09:57:57.000Z</time>
</trkpt>
<trkpt lat="46.0455280" lon="10.3819450">
	<ele>1568.40</ele>
	<time>2024-07-24T09:57:58.000Z</time>
</trkpt>
<trkpt lat="46.0455280" lon="10.3819450">
	<ele>1568.40</ele>
	<time>2024-07-24T09:57:59.000Z</time>
</trkpt>
<trkpt lat="46.0455280" lon="10.3819450">
	<ele>1568.40</ele>
	<time>2024-07-24T09:58:00.000Z</time>
</trkpt>
<trkpt lat="46.0455280" lon="10.3819450">
	<ele>1568.60</ele>
	<time>2024-07-24T09:58:01.000Z</time>
</trkpt>
<trkpt lat="46.0455280" lon="10.3819450">
	<ele>1568.60</ele>
	<time>2024-07-24T09:58:02.000Z</time>
</trkpt>
<trkpt lat="46.0455280" lon="10.3819450">
	<ele>1568.60</ele>
	<time>2024-07-24T09:58:03.000Z</time>
</trkpt>
<trkpt lat="46.0455290" lon="10.3819460">
	<ele>1568.60</ele>
	<time>2024-07-24T09:58:04.000Z</time>
</trkpt>
<trkpt lat="46.0455290" lon="10.3819460">
	<ele>1568.60</ele>
	<time>2024-07-24T09:58:05.000Z</time>
</trkpt>
<trkpt lat="46.0455290" lon="10.3819460">
	<ele>1568.60</ele>
	<time>2024-07-24T09:58:06.000Z</time>
</trkpt>
<trkpt lat="46.0455300" lon="10.3819470">
	<ele>1568.60</ele>
	<time>2024-07-24T09:58:07.000Z</time>
</trkpt>
<trkpt lat="46.0455300" lon="10.3819480">
	<ele>1568.60</ele>
	<time>2024-07-24T09:58:08.000Z</time>
</trkpt>
<trkpt lat="46.0455300" lon="10.3819480">
	<ele>1568.60</ele>
	<time>2024-07-24T09:58:09.000Z</time>
</trkpt>
<trkpt lat="46.0455310" lon="10.3819490">
	<ele>1568.60</ele>
	<time>2024-07-24T09:58:10.000Z</time>
</trkpt>
<trkpt lat="46.0455310" lon="10.3819490">
	<ele>1568.80</ele>
	<time>2024-07-24T09:58:11.000Z</time>
</trkpt>
<trkpt lat="46.0455310" lon="10.3819500">
	<ele>1568.80</ele>
	<time>2024-07-24T09:58:12.000Z</time>
</trkpt>
<trkpt lat="46.0455310" lon="10.3819510">
	<ele>1568.80</ele>
	<time>2024-07-24T09:58:13.000Z</time>
</trkpt>
<trkpt lat="46.0455310" lon="10.3819510">
	<ele>1568.80</ele>
	<time>2024-07-24T09:58:14.000Z</time>
</trkpt>
<trkpt lat="46.0455310" lon="10.3819520">
	<ele>1568.80</ele>
	<time>2024-07-24T09:58:15.000Z</time>
</trkpt>
<trkpt lat="46.0455310" lon="10.3819560">
	<ele>1568.80</ele>
	<time>2024-07-24T09:58:16.000Z</time>
</trkpt>
<trkpt lat="46.0455310" lon="10.3819590">
	<ele>1568.80</ele>
	<time>2024-07-24T09:58:17.000Z</time>
</trkpt>
<trkpt lat="46.0455310" lon="10.3819620">
	<ele>1568.80</ele>
	<time>2024-07-24T09:58:18.000Z</time>
</trkpt>
<trkpt lat="46.0455310" lon="10.3819650">
	<ele>1568.80</ele>
	<time>2024-07-24T09:58:19.000Z</time>
</trkpt>
<trkpt lat="46.0455310" lon="10.3819670">
	<ele>1569.00</ele>
	<time>2024-07-24T09:58:20.000Z</time>
</trkpt>
<trkpt lat="46.0455310" lon="10.3819690">
	<ele>1569.00</ele>
	<time>2024-07-24T09:58:21.000Z</time>
</trkpt>
<trkpt lat="46.0455310" lon="10.3819720">
	<ele>1569.00</ele>
	<time>2024-07-24T09:58:22.000Z</time>
</trkpt>
<trkpt lat="46.0455320" lon="10.3819740">
	<ele>1569.00</ele>
	<time>2024-07-24T09:58:23.000Z</time>
</trkpt>
<trkpt lat="46.0455320" lon="10.3819770">
	<ele>1569.00</ele>
	<time>2024-07-24T09:58:24.000Z</time>
</trkpt>
<trkpt lat="46.0455320" lon="10.3819780">
	<ele>1569.00</ele>
	<time>2024-07-24T09:58:25.000Z</time>
</trkpt>
<trkpt lat="46.0455320" lon="10.3819790">
	<ele>1569.00</ele>
	<time>2024-07-24T09:58:26.000Z</time>
</trkpt>
<trkpt lat="46.0455320" lon="10.3819810">
	<ele>1569.00</ele>
	<time>2024-07-24T09:58:27.000Z</time>
</trkpt>
<trkpt lat="46.0455320" lon="10.3819820">
	<ele>1569.00</ele>
	<time>2024-07-24T09:58:28.000Z</time>
</trkpt>
<trkpt lat="46.0455320" lon="10.3819820">
	<ele>1569.00</ele>
	<time>2024-07-24T09:58:29.000Z</time>
</trkpt>
<trkpt lat="46.0455320" lon="10.3819820">
	<ele>1569.00</ele>
	<time>2024-07-24T09:58:30.000Z</time>
</trkpt>
<trkpt lat="46.0455320" lon="10.3819820">
	<ele>1569.00</ele>
	<time>2024-07-24T09:58:31.000Z</time>
</trkpt>
<trkpt lat="46.0455320" lon="10.3819820">
	<ele>1569.00</ele>
	<time>2024-07-24T09:58:32.000Z</time>
</trkpt>
<trkpt lat="46.0455320" lon="10.3819820">
	<ele>1569.20</ele>
	<time>2024-07-24T09:58:33.000Z</time>
</trkpt>
<trkpt lat="46.0455320" lon="10.3819820">
	<ele>1569.20</ele>
	<time>2024-07-24T09:58:34.000Z</time>
</trkpt>
<trkpt lat="46.0455320" lon="10.3819820">
	<ele>1569.20</ele>
	<time>2024-07-24T09:58:35.000Z</time>
</trkpt>
<trkpt lat="46.0455320" lon="10.3819820">
	<ele>1569.40</ele>
	<time>2024-07-24T09:58:36.000Z</time>
</trkpt>
<trkpt lat="46.0455320" lon="10.3819820">
	<ele>1569.40</ele>
	<time>2024-07-24T09:58:37.000Z</time>
</trkpt>
<trkpt lat="46.0455320" lon="10.3819820">
	<ele>1569.40</ele>
	<time>2024-07-24T09:58:38.000Z</time>
</trkpt>
<trkpt lat="46.0455320" lon="10.3819820">
	<ele>1569.60</ele>
	<time>2024-07-24T09:58:39.000Z</time>
</trkpt>
<trkpt lat="46.0455320" lon="10.3819820">
	<ele>1569.60</ele>
	<time>2024-07-24T09:58:40.000Z</time>
</trkpt>
<trkpt lat="46.0455310" lon="10.3819820">
	<ele>1569.60</ele>
	<time>2024-07-24T09:58:41.000Z</time>
</trkpt>
<trkpt lat="46.0455310" lon="10.3819810">
	<ele>1569.60</ele>
	<time>2024-07-24T09:58:42.000Z</time>
</trkpt>
<trkpt lat="46.0455300" lon="10.3819770">
	<ele>1569.20</ele>
	<time>2024-07-24T09:58:43.000Z</time>
</trkpt>
<trkpt lat="46.0455290" lon="10.3819750">
	<ele>1569.20</ele>
	<time>2024-07-24T09:58:44.000Z</time>
</trkpt>
<trkpt lat="46.0455290" lon="10.3819740">
	<ele>1569.20</ele>
	<time>2024-07-24T09:58:45.000Z</time>
</trkpt>
<trkpt lat="46.0455280" lon="10.3819730">
	<ele>1569.20</ele>
	<time>2024-07-24T09:58:46.000Z</time>
</trkpt>
<trkpt lat="46.0455280" lon="10.3819730">
	<ele>1569.20</ele>
	<time>2024-07-24T09:58:47.000Z</time>
</trkpt>
<trkpt lat="46.0455280" lon="10.3819730">
	<ele>1569.20</ele>
	<time>2024-07-24T09:58:48.000Z</time>
</trkpt>
<trkpt lat="46.0455270" lon="10.3819720">
	<ele>1569.20</ele>
	<time>2024-07-24T09:58:49.000Z</time>
</trkpt>
<trkpt lat="46.0455270" lon="10.3819720">
	<ele>1569.20</ele>
	<time>2024-07-24T09:58:50.000Z</time>
</trkpt>
<trkpt lat="46.0455270" lon="10.3819710">
	<ele>1569.20</ele>
	<time>2024-07-24T09:58:51.000Z</time>
</trkpt>
<trkpt lat="46.0455270" lon="10.3819710">
	<ele>1569.20</ele>
	<time>2024-07-24T09:58:52.000Z</time>
</trkpt>
<trkpt lat="46.0455270" lon="10.3819700">
	<ele>1569.20</ele>
	<time>2024-07-24T09:58:53.000Z</time>
</trkpt>
<trkpt lat="46.0455270" lon="10.3819690">
	<ele>1569.20</ele>
	<time>2024-07-24T09:58:54.000Z</time>
</trkpt>
<trkpt lat="46.0455330" lon="10.3819620">
	<ele>1569.20</ele>
	<time>2024-07-24T09:58:55.000Z</time>
</trkpt>
<trkpt lat="46.0455460" lon="10.3819320">
	<ele>1569.20</ele>
	<time>2024-07-24T09:58:56.000Z</time>
</trkpt>
<trkpt lat="46.0455590" lon="10.3819060">
	<ele>1569.20</ele>
	<time>2024-07-24T09:58:57.000Z</time>
</trkpt>
<trkpt lat="46.0455730" lon="10.3818810">
	<ele>1569.20</ele>
	<time>2024-07-24T09:58:58.000Z</time>
</trkpt>
<trkpt lat="46.0455870" lon="10.3818520">
	<ele>1569.20</ele>
	<time>2024-07-24T09:58:59.000Z</time>
</trkpt>
<trkpt lat="46.0456020" lon="10.3818240">
	<ele>1569.20</ele>
	<time>2024-07-24T09:59:00.000Z</time>
</trkpt>
<trkpt lat="46.0456160" lon="10.3817950">
	<ele>1569.20</ele>
	<time>2024-07-24T09:59:01.000Z</time>
</trkpt>
<trkpt lat="46.0456260" lon="10.3817660">
	<ele>1569.20</ele>
	<time>2024-07-24T09:59:02.000Z</time>
</trkpt>
<trkpt lat="46.0456290" lon="10.3817390">
	<ele>1569.20</ele>
	<time>2024-07-24T09:59:03.000Z</time>
</trkpt>
<trkpt lat="46.0456330" lon="10.3817130">
	<ele>1569.20</ele>
	<time>2024-07-24T09:59:04.000Z</time>
</trkpt>
<trkpt lat="46.0456310" lon="10.3816920">
	<ele>1567.20</ele>
	<time>2024-07-24T09:59:05.000Z</time>
</trkpt>
<trkpt lat="46.0456340" lon="10.3816740">
	<ele>1566.00</ele>
	<time>2024-07-24T09:59:06.000Z</time>
</trkpt>
<trkpt lat="46.0456350" lon="10.3816670">
	<ele>1565.40</ele>
	<time>2024-07-24T09:59:07.000Z</time>
</trkpt>
<trkpt lat="46.0456340" lon="10.3816570">
	<ele>1565.00</ele>
	<time>2024-07-24T09:59:08.000Z</time>
</trkpt>
<trkpt lat="46.0456270" lon="10.3816510">
	<ele>1564.80</ele>
	<time>2024-07-24T09:59:09.000Z</time>
</trkpt>
<trkpt lat="46.0456180" lon="10.3816430">
	<ele>1564.40</ele>
	<time>2024-07-24T09:59:10.000Z</time>
</trkpt>
<trkpt lat="46.0456100" lon="10.3816330">
	<ele>1563.80</ele>
	<time>2024-07-24T09:59:11.000Z</time>
</trkpt>
<trkpt lat="46.0456020" lon="10.3816230">
	<ele>1563.40</ele>
	<time>2024-07-24T09:59:12.000Z</time>
</trkpt>
<trkpt lat="46.0455940" lon="10.3816150">
	<ele>1563.20</ele>
	<time>2024-07-24T09:59:13.000Z</time>
</trkpt>
<trkpt lat="46.0455840" lon="10.3816170">
	<ele>1563.00</ele>
	<time>2024-07-24T09:59:14.000Z</time>
</trkpt>
<trkpt lat="46.0455790" lon="10.3816200">
	<ele>1562.60</ele>
	<time>2024-07-24T09:59:15.000Z</time>
</trkpt>
<trkpt lat="46.0455740" lon="10.3816220">
	<ele>1562.40</ele>
	<time>2024-07-24T09:59:16.000Z</time>
</trkpt>
<trkpt lat="46.0455660" lon="10.3816220">
	<ele>1562.20</ele>
	<time>2024-07-24T09:59:17.000Z</time>
</trkpt>
<trkpt lat="46.0455580" lon="10.3816270">
	<ele>1562.00</ele>
	<time>2024-07-24T09:59:18.000Z</time>
</trkpt>
<trkpt lat="46.0455420" lon="10.3816220">
	<ele>1561.80</ele>
	<time>2024-07-24T09:59:19.000Z</time>
</trkpt>
<trkpt lat="46.0455170" lon="10.3816080">
	<ele>1561.60</ele>
	<time>2024-07-24T09:59:20.000Z</time>
</trkpt>
<trkpt lat="46.0454970" lon="10.3816030">
	<ele>1561.40</ele>
	<time>2024-07-24T09:59:21.000Z</time>
</trkpt>
<trkpt lat="46.0454900" lon="10.3816040">
	<ele>1561.20</ele>
	<time>2024-07-24T09:59:22.000Z</time>
</trkpt>
<trkpt lat="46.0454760" lon="10.3815920">
	<ele>1560.80</ele>
	<time>2024-07-24T09:59:23.000Z</time>
</trkpt>
<trkpt lat="46.0454530" lon="10.3815850">
	<ele>1560.80</ele>
	<time>2024-07-24T09:59:24.000Z</time>
</trkpt>
<trkpt lat="46.0454470" lon="10.3815870">
	<ele>1560.60</ele>
	<time>2024-07-24T09:59:25.000Z</time>
</trkpt>
<trkpt lat="46.0454420" lon="10.3815880">
	<ele>1560.40</ele>
	<time>2024-07-24T09:59:26.000Z</time>
</trkpt>
<trkpt lat="46.0454330" lon="10.3815850">
	<ele>1560.40</ele>
	<time>2024-07-24T09:59:27.000Z</time>
</trkpt>
<trkpt lat="46.0454250" lon="10.3815790">
	<ele>1560.20</ele>
	<time>2024-07-24T09:59:28.000Z</time>
</trkpt>
<trkpt lat="46.0454120" lon="10.3815770">
	<ele>1560.20</ele>
	<time>2024-07-24T09:59:29.000Z</time>
</trkpt>
<trkpt lat="46.0453980" lon="10.3815770">
	<ele>1559.80</ele>
	<time>2024-07-24T09:59:30.000Z</time>
</trkpt>
<trkpt lat="46.0453870" lon="10.3815790">
	<ele>1559.40</ele>
	<time>2024-07-24T09:59:31.000Z</time>
</trkpt>
<trkpt lat="46.0453790" lon="10.3815810">
	<ele>1559.20</ele>
	<time>2024-07-24T09:59:32.000Z</time>
</trkpt>
<trkpt lat="46.0453700" lon="10.3815790">
	<ele>1559.00</ele>
	<time>2024-07-24T09:59:33.000Z</time>
</trkpt>
<trkpt lat="46.0453540" lon="10.3815790">
	<ele>1558.80</ele>
	<time>2024-07-24T09:59:34.000Z</time>
</trkpt>
<trkpt lat="46.0453420" lon="10.3815780">
	<ele>1558.60</ele>
	<time>2024-07-24T09:59:35.000Z</time>
</trkpt>
<trkpt lat="46.0453290" lon="10.3815730">
	<ele>1558.40</ele>
	<time>2024-07-24T09:59:36.000Z</time>
</trkpt>
<trkpt lat="46.0453180" lon="10.3815660">
	<ele>1558.00</ele>
	<time>2024-07-24T09:59:37.000Z</time>
</trkpt>
<trkpt lat="46.0453070" lon="10.3815670">
	<ele>1557.80</ele>
	<time>2024-07-24T09:59:38.000Z</time>
</trkpt>
<trkpt lat="46.0452970" lon="10.3815690">
	<ele>1557.80</ele>
	<time>2024-07-24T09:59:39.000Z</time>
</trkpt>
<trkpt lat="46.0452950" lon="10.3815720">
	<ele>1557.40</ele>
	<time>2024-07-24T09:59:40.000Z</time>
</trkpt>
<trkpt lat="46.0452950" lon="10.3815760">
	<ele>1557.20</ele>
	<time>2024-07-24T09:59:41.000Z</time>
</trkpt>
<trkpt lat="46.0452900" lon="10.3815780">
	<ele>1557.00</ele>
	<time>2024-07-24T09:59:42.000Z</time>
</trkpt>
<trkpt lat="46.0452890" lon="10.3815790">
	<ele>1557.00</ele>
	<time>2024-07-24T09:59:43.000Z</time>
</trkpt>
<trkpt lat="46.0452900" lon="10.3815790">
	<ele>1557.00</ele>
	<time>2024-07-24T09:59:44.000Z</time>
</trkpt>
<trkpt lat="46.0452900" lon="10.3815790">
	<ele>1557.00</ele>
	<time>2024-07-24T09:59:45.000Z</time>
</trkpt>
<trkpt lat="46.0452910" lon="10.3815790">
	<ele>1557.00</ele>
	<time>2024-07-24T09:59:46.000Z</time>
</trkpt>
<trkpt lat="46.0452920" lon="10.3815780">
	<ele>1557.00</ele>
	<time>2024-07-24T09:59:47.000Z</time>
</trkpt>
<trkpt lat="46.0452890" lon="10.3815790">
	<ele>1557.00</ele>
	<time>2024-07-24T09:59:48.000Z</time>
</trkpt>
<trkpt lat="46.0452890" lon="10.3815870">
	<ele>1557.00</ele>
	<time>2024-07-24T09:59:49.000Z</time>
</trkpt>
<trkpt lat="46.0452890" lon="10.3815920">
	<ele>1557.00</ele>
	<time>2024-07-24T09:59:50.000Z</time>
</trkpt>
<trkpt lat="46.0452860" lon="10.3815960">
	<ele>1557.00</ele>
	<time>2024-07-24T09:59:51.000Z</time>
</trkpt>
<trkpt lat="46.0452840" lon="10.3816000">
	<ele>1557.00</ele>
	<time>2024-07-24T09:59:52.000Z</time>
</trkpt>
<trkpt lat="46.0452810" lon="10.3816000">
	<ele>1557.00</ele>
	<time>2024-07-24T09:59:53.000Z</time>
</trkpt>
<trkpt lat="46.0452820" lon="10.3816010">
	<ele>1557.00</ele>
	<time>2024-07-24T09:59:54.000Z</time>
</trkpt>
<trkpt lat="46.0452820" lon="10.3815980">
	<ele>1557.00</ele>
	<time>2024-07-24T09:59:55.000Z</time>
</trkpt>
<trkpt lat="46.0452770" lon="10.3816040">
	<ele>1556.80</ele>
	<time>2024-07-24T09:59:56.000Z</time>
</trkpt>
<trkpt lat="46.0452680" lon="10.3816090">
	<ele>1556.80</ele>
	<time>2024-07-24T09:59:57.000Z</time>
</trkpt>
<trkpt lat="46.0452540" lon="10.3816170">
	<ele>1556.80</ele>
	<time>2024-07-24T09:59:58.000Z</time>
</trkpt>
<trkpt lat="46.0452410" lon="10.3816260">
	<ele>1556.60</ele>
	<time>2024-07-24T09:59:59.000Z</time>
</trkpt>
<trkpt lat="46.0452280" lon="10.3816320">
	<ele>1556.40</ele>
	<time>2024-07-24T10:00:00.000Z</time>
</trkpt>
<trkpt lat="46.0452150" lon="10.3816300">
	<ele>1556.20</ele>
	<time>2024-07-24T10:00:01.000Z</time>
</trkpt>
<trkpt lat="46.0452020" lon="10.3816240">
	<ele>1556.00</ele>
	<time>2024-07-24T10:00:02.000Z</time>
</trkpt>
<trkpt lat="46.0451910" lon="10.3816200">
	<ele>1555.80</ele>
	<time>2024-07-24T10:00:03.000Z</time>
</trkpt>
<trkpt lat="46.0451760" lon="10.3816140">
	<ele>1555.60</ele>
	<time>2024-07-24T10:00:04.000Z</time>
</trkpt>
<trkpt lat="46.0451630" lon="10.3816100">
	<ele>1555.20</ele>
	<time>2024-07-24T10:00:05.000Z</time>
</trkpt>
<trkpt lat="46.0451500" lon="10.3815930">
	<ele>1554.80</ele>
	<time>2024-07-24T10:00:06.000Z</time>
</trkpt>
<trkpt lat="46.0451400" lon="10.3815800">
	<ele>1554.40</ele>
	<time>2024-07-24T10:00:07.000Z</time>
</trkpt>
<trkpt lat="46.0451310" lon="10.3815700">
	<ele>1554.20</ele>
	<time>2024-07-24T10:00:08.000Z</time>
</trkpt>
<trkpt lat="46.0451230" lon="10.3815640">
	<ele>1553.80</ele>
	<time>2024-07-24T10:00:09.000Z</time>
</trkpt>
<trkpt lat="46.0451160" lon="10.3815570">
	<ele>1553.60</ele>
	<time>2024-07-24T10:00:10.000Z</time>
</trkpt>
<trkpt lat="46.0451060" lon="10.3815520">
	<ele>1553.40</ele>
	<time>2024-07-24T10:00:11.000Z</time>
</trkpt>
<trkpt lat="46.0450950" lon="10.3815540">
	<ele>1553.20</ele>
	<time>2024-07-24T10:00:12.000Z</time>
</trkpt>
<trkpt lat="46.0450840" lon="10.3815500">
	<ele>1552.80</ele>
	<time>2024-07-24T10:00:13.000Z</time>
</trkpt>
<trkpt lat="46.0450760" lon="10.3815460">
	<ele>1552.60</ele>
	<time>2024-07-24T10:00:14.000Z</time>
</trkpt>
<trkpt lat="46.0450710" lon="10.3815410">
	<ele>1552.60</ele>
	<time>2024-07-24T10:00:15.000Z</time>
</trkpt>
<trkpt lat="46.0450690" lon="10.3815430">
	<ele>1552.60</ele>
	<time>2024-07-24T10:00:16.000Z</time>
</trkpt>
<trkpt lat="46.0450700" lon="10.3815410">
	<ele>1552.40</ele>
	<time>2024-07-24T10:00:17.000Z</time>
</trkpt>
<trkpt lat="46.0450700" lon="10.3815390">
	<ele>1552.40</ele>
	<time>2024-07-24T10:00:18.000Z</time>
</trkpt>
<trkpt lat="46.0450700" lon="10.3815360">
	<ele>1552.20</ele>
	<time>2024-07-24T10:00:19.000Z</time>
</trkpt>
<trkpt lat="46.0450700" lon="10.3815380">
	<ele>1552.20</ele>
	<time>2024-07-24T10:00:20.000Z</time>
</trkpt>
<trkpt lat="46.0450730" lon="10.3815390">
	<ele>1552.20</ele>
	<time>2024-07-24T10:00:21.000Z</time>
</trkpt>
<trkpt lat="46.0450850" lon="10.3815180">
	<ele>1552.00</ele>
	<time>2024-07-24T10:00:22.000Z</time>
</trkpt>
<trkpt lat="46.0450820" lon="10.3815170">
	<ele>1552.00</ele>
	<time>2024-07-24T10:00:23.000Z</time>
</trkpt>
<trkpt lat="46.0450810" lon="10.3815190">
	<ele>1552.00</ele>
	<time>2024-07-24T10:00:24.000Z</time>
</trkpt>
<trkpt lat="46.0450800" lon="10.3815180">
	<ele>1552.00</ele>
	<time>2024-07-24T10:00:25.000Z</time>
</trkpt>
<trkpt lat="46.0450810" lon="10.3815180">
	<ele>1552.00</ele>
	<time>2024-07-24T10:00:26.000Z</time>
</trkpt>
<trkpt lat="46.0450820" lon="10.3815190">
	<ele>1552.00</ele>
	<time>2024-07-24T10:00:27.000Z</time>
</trkpt>
<trkpt lat="46.0450820" lon="10.3815190">
	<ele>1552.00</ele>
	<time>2024-07-24T10:00:28.000Z</time>
</trkpt>
<trkpt lat="46.0450820" lon="10.3815190">
	<ele>1552.00</ele>
	<time>2024-07-24T10:00:29.000Z</time>
</trkpt>
<trkpt lat="46.0450820" lon="10.3815190">
	<ele>1552.00</ele>
	<time>2024-07-24T10:00:30.000Z</time>
</trkpt>
<trkpt lat="46.0450820" lon="10.3815190">
	<ele>1552.00</ele>
	<time>2024-07-24T10:00:31.000Z</time>
</trkpt>
<trkpt lat="46.0450820" lon="10.3815190">
	<ele>1552.00</ele>
	<time>2024-07-24T10:00:32.000Z</time>
</trkpt>
<trkpt lat="46.0450820" lon="10.3815190">
	<ele>1552.00</ele>
	<time>2024-07-24T10:00:33.000Z</time>
</trkpt>
<trkpt lat="46.0450820" lon="10.3815190">
	<ele>1552.00</ele>
	<time>2024-07-24T10:00:34.000Z</time>
</trkpt>
<trkpt lat="46.0450820" lon="10.3815190">
	<ele>1552.00</ele>
	<time>2024-07-24T10:00:35.000Z</time>
</trkpt>
<trkpt lat="46.0450820" lon="10.3815190">
	<ele>1552.00</ele>
	<time>2024-07-24T10:00:36.000Z</time>
</trkpt>
<trkpt lat="46.0450820" lon="10.3815190">
	<ele>1552.00</ele>
	<time>2024-07-24T10:00:37.000Z</time>
</trkpt>
<trkpt lat="46.0450820" lon="10.3815190">
	<ele>1552.20</ele>
	<time>2024-07-24T10:00:38.000Z</time>
</trkpt>
<trkpt lat="46.0450810" lon="10.3815190">
	<ele>1552.20</ele>
	<time>2024-07-24T10:00:39.000Z</time>
</trkpt>
<trkpt lat="46.0450810" lon="10.3815210">
	<ele>1552.20</ele>
	<time>2024-07-24T10:00:40.000Z</time>
</trkpt>
<trkpt lat="46.0450800" lon="10.3815250">
	<ele>1552.20</ele>
	<time>2024-07-24T10:00:41.000Z</time>
</trkpt>
<trkpt lat="46.0450800" lon="10.3815250">
	<ele>1552.20</ele>
	<time>2024-07-24T10:00:42.000Z</time>
</trkpt>
<trkpt lat="46.0450790" lon="10.3815260">
	<ele>1552.20</ele>
	<time>2024-07-24T10:00:43.000Z</time>
</trkpt>
<trkpt lat="46.0450740" lon="10.3815260">
	<ele>1552.20</ele>
	<time>2024-07-24T10:00:44.000Z</time>
</trkpt>
<trkpt lat="46.0450730" lon="10.3815270">
	<ele>1552.20</ele>
	<time>2024-07-24T10:00:45.000Z</time>
</trkpt>
<trkpt lat="46.0450720" lon="10.3815300">
	<ele>1552.00</ele>
	<time>2024-07-24T10:00:46.000Z</time>
</trkpt>
<trkpt lat="46.0450700" lon="10.3815330">
	<ele>1552.00</ele>
	<time>2024-07-24T10:00:47.000Z</time>
</trkpt>
<trkpt lat="46.0450670" lon="10.3815400">
	<ele>1552.00</ele>
	<time>2024-07-24T10:00:48.000Z</time>
</trkpt>
<trkpt lat="46.0450650" lon="10.3815470">
	<ele>1552.00</ele>
	<time>2024-07-24T10:00:49.000Z</time>
</trkpt>
<trkpt lat="46.0450610" lon="10.3815500">
	<ele>1552.00</ele>
	<time>2024-07-24T10:00:50.000Z</time>
</trkpt>
<trkpt lat="46.0450600" lon="10.3815530">
	<ele>1552.00</ele>
	<time>2024-07-24T10:00:51.000Z</time>
</trkpt>
<trkpt lat="46.0450590" lon="10.3815570">
	<ele>1552.00</ele>
	<time>2024-07-24T10:00:52.000Z</time>
</trkpt>
<trkpt lat="46.0450500" lon="10.3815580">
	<ele>1552.00</ele>
	<time>2024-07-24T10:00:53.000Z</time>
</trkpt>
<trkpt lat="46.0450450" lon="10.3815620">
	<ele>1552.00</ele>
	<time>2024-07-24T10:00:54.000Z</time>
</trkpt>
<trkpt lat="46.0450440" lon="10.3815650">
	<ele>1552.00</ele>
	<time>2024-07-24T10:00:55.000Z</time>
</trkpt>
<trkpt lat="46.0450430" lon="10.3815670">
	<ele>1552.20</ele>
	<time>2024-07-24T10:00:56.000Z</time>
</trkpt>
<trkpt lat="46.0450460" lon="10.3815680">
	<ele>1552.20</ele>
	<time>2024-07-24T10:00:57.000Z</time>
</trkpt>
<trkpt lat="46.0450470" lon="10.3815690">
	<ele>1552.20</ele>
	<time>2024-07-24T10:00:58.000Z</time>
</trkpt>
<trkpt lat="46.0450500" lon="10.3815680">
	<ele>1552.20</ele>
	<time>2024-07-24T10:00:59.000Z</time>
</trkpt>
<trkpt lat="46.0450530" lon="10.3815630">
	<ele>1552.20</ele>
	<time>2024-07-24T10:01:00.000Z</time>
</trkpt>
<trkpt lat="46.0450570" lon="10.3815590">
	<ele>1552.20</ele>
	<time>2024-07-24T10:01:01.000Z</time>
</trkpt>
<trkpt lat="46.0450610" lon="10.3815500">
	<ele>1552.20</ele>
	<time>2024-07-24T10:01:02.000Z</time>
</trkpt>
<trkpt lat="46.0450620" lon="10.3815410">
	<ele>1552.20</ele>
	<time>2024-07-24T10:01:03.000Z</time>
</trkpt>
<trkpt lat="46.0450620" lon="10.3815410">
	<ele>1552.20</ele>
	<time>2024-07-24T10:01:04.000Z</time>
</trkpt>
<trkpt lat="46.0450620" lon="10.3815410">
	<ele>1552.20</ele>
	<time>2024-07-24T10:01:05.000Z</time>
</trkpt>
<trkpt lat="46.0450620" lon="10.3815410">
	<ele>1552.20</ele>
	<time>2024-07-24T10:01:06.000Z</time>
</trkpt>
<trkpt lat="46.0450620" lon="10.3815410">
	<ele>1552.20</ele>
	<time>2024-07-24T10:01:07.000Z</time>
</trkpt>
<trkpt lat="46.0450620" lon="10.3815410">
	<ele>1552.20</ele>
	<time>2024-07-24T10:01:08.000Z</time>
</trkpt>
<trkpt lat="46.0450620" lon="10.3815410">
	<ele>1552.20</ele>
	<time>2024-07-24T10:01:09.000Z</time>
</trkpt>
<trkpt lat="46.0450620" lon="10.3815410">
	<ele>1552.20</ele>
	<time>2024-07-24T10:01:10.000Z</time>
</trkpt>
<trkpt lat="46.0450620" lon="10.3815410">
	<ele>1552.20</ele>
	<time>2024-07-24T10:01:11.000Z</time>
</trkpt>
<trkpt lat="46.0450620" lon="10.3815410">
	<ele>1552.20</ele>
	<time>2024-07-24T10:01:12.000Z</time>
</trkpt>
<trkpt lat="46.0450620" lon="10.3815410">
	<ele>1552.40</ele>
	<time>2024-07-24T10:01:13.000Z</time>
</trkpt>
<trkpt lat="46.0450620" lon="10.3815410">
	<ele>1552.40</ele>
	<time>2024-07-24T10:01:14.000Z</time>
</trkpt>
<trkpt lat="46.0450620" lon="10.3815410">
	<ele>1552.40</ele>
	<time>2024-07-24T10:01:15.000Z</time>
</trkpt>
<trkpt lat="46.0450620" lon="10.3815410">
	<ele>1552.40</ele>
	<time>2024-07-24T10:01:16.000Z</time>
</trkpt>
<trkpt lat="46.0450620" lon="10.3815410">
	<ele>1552.40</ele>
	<time>2024-07-24T10:01:17.000Z</time>
</trkpt>
<trkpt lat="46.0450620" lon="10.3815410">
	<ele>1552.60</ele>
	<time>2024-07-24T10:01:18.000Z</time>
</trkpt>
<trkpt lat="46.0450620" lon="10.3815460">
	<ele>1552.60</ele>
	<time>2024-07-24T10:01:19.000Z</time>
</trkpt>
<trkpt lat="46.0450620" lon="10.3815470">
	<ele>1552.40</ele>
	<time>2024-07-24T10:01:20.000Z</time>
</trkpt>
<trkpt lat="46.0450620" lon="10.3815480">
	<ele>1552.40</ele>
	<time>2024-07-24T10:01:21.000Z</time>
</trkpt>
<trkpt lat="46.0450610" lon="10.3815490">
	<ele>1552.40</ele>
	<time>2024-07-24T10:01:22.000Z</time>
</trkpt>
<trkpt lat="46.0450580" lon="10.3815490">
	<ele>1552.40</ele>
	<time>2024-07-24T10:01:23.000Z</time>
</trkpt>
<trkpt lat="46.0450570" lon="10.3815490">
	<ele>1552.80</ele>
	<time>2024-07-24T10:01:24.000Z</time>
</trkpt>
<trkpt lat="46.0450570" lon="10.3815490">
	<ele>1552.80</ele>
	<time>2024-07-24T10:01:25.000Z</time>
</trkpt>
<trkpt lat="46.0450570" lon="10.3815490">
	<ele>1553.00</ele>
	<time>2024-07-24T10:01:26.000Z</time>
</trkpt>
<trkpt lat="46.0450570" lon="10.3815490">
	<ele>1553.00</ele>
	<time>2024-07-24T10:01:27.000Z</time>
</trkpt>
<trkpt lat="46.0450580" lon="10.3815490">
	<ele>1553.00</ele>
	<time>2024-07-24T10:01:28.000Z</time>
</trkpt>
<trkpt lat="46.0450580" lon="10.3815490">
	<ele>1552.80</ele>
	<time>2024-07-24T10:01:29.000Z</time>
</trkpt>
<trkpt lat="46.0450590" lon="10.3815490">
	<ele>1552.60</ele>
	<time>2024-07-24T10:01:30.000Z</time>
</trkpt>
<trkpt lat="46.0450600" lon="10.3815490">
	<ele>1552.40</ele>
	<time>2024-07-24T10:01:31.000Z</time>
</trkpt>
<trkpt lat="46.0450600" lon="10.3815490">
	<ele>1552.40</ele>
	<time>2024-07-24T10:01:32.000Z</time>
</trkpt>
<trkpt lat="46.0450600" lon="10.3815490">
	<ele>1552.40</ele>
	<time>2024-07-24T10:01:33.000Z</time>
</trkpt>
<trkpt lat="46.0450600" lon="10.3815490">
	<ele>1552.40</ele>
	<time>2024-07-24T10:01:34.000Z</time>
</trkpt>
<trkpt lat="46.0450600" lon="10.3815490">
	<ele>1552.40</ele>
	<time>2024-07-24T10:01:35.000Z</time>
</trkpt>
<trkpt lat="46.0450600" lon="10.3815490">
	<ele>1552.40</ele>
	<time>2024-07-24T10:01:36.000Z</time>
</trkpt>
<trkpt lat="46.0450600" lon="10.3815480">
	<ele>1552.40</ele>
	<time>2024-07-24T10:01:37.000Z</time>
</trkpt>
<trkpt lat="46.0450600" lon="10.3815480">
	<ele>1552.40</ele>
	<time>2024-07-24T10:01:38.000Z</time>
</trkpt>
<trkpt lat="46.0450600" lon="10.3815480">
	<ele>1552.20</ele>
	<time>2024-07-24T10:01:39.000Z</time>
</trkpt>
<trkpt lat="46.0450600" lon="10.3815480">
	<ele>1552.40</ele>
	<time>2024-07-24T10:01:40.000Z</time>
</trkpt>
<trkpt lat="46.0450600" lon="10.3815480">
	<ele>1552.40</ele>
	<time>2024-07-24T10:01:41.000Z</time>
</trkpt>
<trkpt lat="46.0450660" lon="10.3815500">
	<ele>1552.40</ele>
	<time>2024-07-24T10:01:42.000Z</time>
</trkpt>
<trkpt lat="46.0450750" lon="10.3815510">
	<ele>1552.40</ele>
	<time>2024-07-24T10:01:43.000Z</time>
</trkpt>
<trkpt lat="46.0450770" lon="10.3815530">
	<ele>1552.40</ele>
	<time>2024-07-24T10:01:44.000Z</time>
</trkpt>
<trkpt lat="46.0450750" lon="10.3815600">
	<ele>1552.40</ele>
	<time>2024-07-24T10:01:45.000Z</time>
</trkpt>
<trkpt lat="46.0450720" lon="10.3815600">
	<ele>1552.20</ele>
	<time>2024-07-24T10:01:46.000Z</time>
</trkpt>
<trkpt lat="46.0450790" lon="10.3815620">
	<ele>1552.20</ele>
	<time>2024-07-24T10:01:47.000Z</time>
</trkpt>
<trkpt lat="46.0450770" lon="10.3815570">
	<ele>1552.20</ele>
	<time>2024-07-24T10:01:48.000Z</time>
</trkpt>
<trkpt lat="46.0450850" lon="10.3815620">
	<ele>1552.20</ele>
	<time>2024-07-24T10:01:49.000Z</time>
</trkpt>
<trkpt lat="46.0450910" lon="10.3815660">
	<ele>1552.20</ele>
	<time>2024-07-24T10:01:50.000Z</time>
</trkpt>
<trkpt lat="46.0450980" lon="10.3815800">
	<ele>1552.20</ele>
	<time>2024-07-24T10:01:51.000Z</time>
</trkpt>
<trkpt lat="46.0451000" lon="10.3815760">
	<ele>1552.20</ele>
	<time>2024-07-24T10:01:52.000Z</time>
</trkpt>
<trkpt lat="46.0451000" lon="10.3815780">
	<ele>1552.20</ele>
	<time>2024-07-24T10:01:53.000Z</time>
</trkpt>
<trkpt lat="46.0451010" lon="10.3815770">
	<ele>1552.20</ele>
	<time>2024-07-24T10:01:54.000Z</time>
</trkpt>
<trkpt lat="46.0451010" lon="10.3815780">
	<ele>1552.20</ele>
	<time>2024-07-24T10:01:55.000Z</time>
</trkpt>
<trkpt lat="46.0451030" lon="10.3815770">
	<ele>1552.20</ele>
	<time>2024-07-24T10:01:56.000Z</time>
</trkpt>
<trkpt lat="46.0451050" lon="10.3815770">
	<ele>1552.20</ele>
	<time>2024-07-24T10:01:57.000Z</time>
</trkpt>
<trkpt lat="46.0451050" lon="10.3815770">
	<ele>1552.20</ele>
	<time>2024-07-24T10:01:58.000Z</time>
</trkpt>
<trkpt lat="46.0451070" lon="10.3815750">
	<ele>1552.20</ele>
	<time>2024-07-24T10:01:59.000Z</time>
</trkpt>
<trkpt lat="46.0451080" lon="10.3815730">
	<ele>1552.20</ele>
	<time>2024-07-24T10:02:00.000Z</time>
</trkpt>
<trkpt lat="46.0451070" lon="10.3815710">
	<ele>1552.20</ele>
	<time>2024-07-24T10:02:01.000Z</time>
</trkpt>
<trkpt lat="46.0451050" lon="10.3815750">
	<ele>1552.20</ele>
	<time>2024-07-24T10:02:02.000Z</time>
</trkpt>
<trkpt lat="46.0451110" lon="10.3815790">
	<ele>1552.20</ele>
	<time>2024-07-24T10:02:03.000Z</time>
</trkpt>
<trkpt lat="46.0451110" lon="10.3815790">
	<ele>1552.20</ele>
	<time>2024-07-24T10:02:04.000Z</time>
</trkpt>
<trkpt lat="46.0451110" lon="10.3815790">
	<ele>1552.20</ele>
	<time>2024-07-24T10:02:05.000Z</time>
</trkpt>
<trkpt lat="46.0451110" lon="10.3815790">
	<ele>1552.20</ele>
	<time>2024-07-24T10:02:06.000Z</time>
</trkpt>
<trkpt lat="46.0451110" lon="10.3815790">
	<ele>1552.20</ele>
	<time>2024-07-24T10:02:07.000Z</time>
</trkpt>
<trkpt lat="46.0451110" lon="10.3815790">
	<ele>1552.20</ele>
	<time>2024-07-24T10:02:08.000Z</time>
</trkpt>
<trkpt lat="46.0451110" lon="10.3815790">
	<ele>1552.20</ele>
	<time>2024-07-24T10:02:09.000Z</time>
</trkpt>
<trkpt lat="46.0451110" lon="10.3815790">
	<ele>1552.20</ele>
	<time>2024-07-24T10:02:10.000Z</time>
</trkpt>
<trkpt lat="46.0451110" lon="10.3815790">
	<ele>1552.20</ele>
	<time>2024-07-24T10:02:11.000Z</time>
</trkpt>
<trkpt lat="46.0451110" lon="10.3815790">
	<ele>1552.20</ele>
	<time>2024-07-24T10:02:12.000Z</time>
</trkpt>
<trkpt lat="46.0451110" lon="10.3815790">
	<ele>1552.20</ele>
	<time>2024-07-24T10:02:13.000Z</time>
</trkpt>
<trkpt lat="46.0451110" lon="10.3815790">
	<ele>1552.20</ele>
	<time>2024-07-24T10:02:14.000Z</time>
</trkpt>
<trkpt lat="46.0451110" lon="10.3815790">
	<ele>1552.20</ele>
	<time>2024-07-24T10:02:15.000Z</time>
</trkpt>
<trkpt lat="46.0451110" lon="10.3815790">
	<ele>1552.20</ele>
	<time>2024-07-24T10:02:16.000Z</time>
</trkpt>
<trkpt lat="46.0451110" lon="10.3815790">
	<ele>1552.20</ele>
	<time>2024-07-24T10:02:17.000Z</time>
</trkpt>
<trkpt lat="46.0451060" lon="10.3815780">
	<ele>1552.20</ele>
	<time>2024-07-24T10:02:18.000Z</time>
</trkpt>
<trkpt lat="46.0450860" lon="10.3815570">
	<ele>1552.20</ele>
	<time>2024-07-24T10:02:19.000Z</time>
</trkpt>
<trkpt lat="46.0450710" lon="10.3815430">
	<ele>1552.20</ele>
	<time>2024-07-24T10:02:20.000Z</time>
</trkpt>
<trkpt lat="46.0450560" lon="10.3815300">
	<ele>1552.20</ele>
	<time>2024-07-24T10:02:21.000Z</time>
</trkpt>
<trkpt lat="46.0450430" lon="10.3815140">
	<ele>1552.20</ele>
	<time>2024-07-24T10:02:22.000Z</time>
</trkpt>
<trkpt lat="46.0450320" lon="10.3815030">
	<ele>1552.20</ele>
	<time>2024-07-24T10:02:23.000Z</time>
</trkpt>
<trkpt lat="46.0450200" lon="10.3814840">
	<ele>1552.20</ele>
	<time>2024-07-24T10:02:24.000Z</time>
</trkpt>
<trkpt lat="46.0450120" lon="10.3814630">
	<ele>1552.20</ele>
	<time>2024-07-24T10:02:25.000Z</time>
</trkpt>
<trkpt lat="46.0450030" lon="10.3814380">
	<ele>1552.20</ele>
	<time>2024-07-24T10:02:26.000Z</time>
</trkpt>
<trkpt lat="46.0449970" lon="10.3814200">
	<ele>1551.00</ele>
	<time>2024-07-24T10:02:27.000Z</time>
</trkpt>
<trkpt lat="46.0449970" lon="10.3814090">
	<ele>1550.00</ele>
	<time>2024-07-24T10:02:28.000Z</time>
</trkpt>
<trkpt lat="46.0449980" lon="10.3813980">
	<ele>1549.60</ele>
	<time>2024-07-24T10:02:29.000Z</time>
</trkpt>
<trkpt lat="46.0450030" lon="10.3813920">
	<ele>1549.20</ele>
	<time>2024-07-24T10:02:30.000Z</time>
</trkpt>
<trkpt lat="46.0450090" lon="10.3813860">
	<ele>1549.00</ele>
	<time>2024-07-24T10:02:31.000Z</time>
</trkpt>
<trkpt lat="46.0450150" lon="10.3813770">
	<ele>1548.60</ele>
	<time>2024-07-24T10:02:32.000Z</time>
</trkpt>
<trkpt lat="46.0450250" lon="10.3813650">
	<ele>1548.40</ele>
	<time>2024-07-24T10:02:33.000Z</time>
</trkpt>
<trkpt lat="46.0450310" lon="10.3813550">
	<ele>1548.20</ele>
	<time>2024-07-24T10:02:34.000Z</time>
</trkpt>
<trkpt lat="46.0450370" lon="10.3813450">
	<ele>1547.80</ele>
	<time>2024-07-24T10:02:35.000Z</time>
</trkpt>
<trkpt lat="46.0450440" lon="10.3813380">
	<ele>1547.60</ele>
	<time>2024-07-24T10:02:36.000Z</time>
</trkpt>
<trkpt lat="46.0450500" lon="10.3813360">
	<ele>1547.20</ele>
	<time>2024-07-24T10:02:37.000Z</time>
</trkpt>
<trkpt lat="46.0450610" lon="10.3813290">
	<ele>1547.20</ele>
	<time>2024-07-24T10:02:38.000Z</time>
</trkpt>
<trkpt lat="46.0450740" lon="10.3813170">
	<ele>1546.60</ele>
	<time>2024-07-24T10:02:39.000Z</time>
</trkpt>
<trkpt lat="46.0450800" lon="10.3813000">
	<ele>1546.40</ele>
	<time>2024-07-24T10:02:40.000Z</time>
</trkpt>
<trkpt lat="46.0450890" lon="10.3812870">
	<ele>1546.00</ele>
	<time>2024-07-24T10:02:41.000Z</time>
</trkpt>
<trkpt lat="46.0450940" lon="10.3812720">
	<ele>1545.60</ele>
	<time>2024-07-24T10:02:42.000Z</time>
</trkpt>
<trkpt lat="46.0450940" lon="10.3812590">
	<ele>1545.40</ele>
	<time>2024-07-24T10:02:43.000Z</time>
</trkpt>
<trkpt lat="46.0451030" lon="10.3812460">
	<ele>1545.20</ele>
	<time>2024-07-24T10:02:44.000Z</time>
</trkpt>
<trkpt lat="46.0451120" lon="10.3812400">
	<ele>1545.00</ele>
	<time>2024-07-24T10:02:45.000Z</time>
</trkpt>
<trkpt lat="46.0451200" lon="10.3812350">
	<ele>1544.60</ele>
	<time>2024-07-24T10:02:46.000Z</time>
</trkpt>
<trkpt lat="46.0451320" lon="10.3812280">
	<ele>1544.20</ele>
	<time>2024-07-24T10:02:47.000Z</time>
</trkpt>
<trkpt lat="46.0451440" lon="10.3812220">
	<ele>1544.20</ele>
	<time>2024-07-24T10:02:48.000Z</time>
</trkpt>
<trkpt lat="46.0451500" lon="10.3812190">
	<ele>1544.00</ele>
	<time>2024-07-24T10:02:49.000Z</time>
</trkpt>
<trkpt lat="46.0451510" lon="10.3812110">
	<ele>1543.60</ele>
	<time>2024-07-24T10:02:50.000Z</time>
</trkpt>
<trkpt lat="46.0451560" lon="10.3811960">
	<ele>1543.40</ele>
	<time>2024-07-24T10:02:51.000Z</time>
</trkpt>
<trkpt lat="46.0451660" lon="10.3811780">
	<ele>1543.00</ele>
	<time>2024-07-24T10:02:52.000Z</time>
</trkpt>
<trkpt lat="46.0451770" lon="10.3811590">
	<ele>1542.60</ele>
	<time>2024-07-24T10:02:53.000Z</time>
</trkpt>
<trkpt lat="46.0451840" lon="10.3811470">
	<ele>1542.20</ele>
	<time>2024-07-24T10:02:54.000Z</time>
</trkpt>
<trkpt lat="46.0451900" lon="10.3811380">
	<ele>1542.00</ele>
	<time>2024-07-24T10:02:55.000Z</time>
</trkpt>
<trkpt lat="46.0451940" lon="10.3811340">
	<ele>1541.60</ele>
	<time>2024-07-24T10:02:56.000Z</time>
</trkpt>
<trkpt lat="46.0451980" lon="10.3811280">
	<ele>1541.40</ele>
	<time>2024-07-24T10:02:57.000Z</time>
</trkpt>
<trkpt lat="46.0452030" lon="10.3811160">
	<ele>1540.80</ele>
	<time>2024-07-24T10:02:58.000Z</time>
</trkpt>
<trkpt lat="46.0452090" lon="10.3811050">
	<ele>1540.60</ele>
	<time>2024-07-24T10:02:59.000Z</time>
</trkpt>
<trkpt lat="46.0452150" lon="10.3810980">
	<ele>1540.20</ele>
	<time>2024-07-24T10:03:00.000Z</time>
</trkpt>
<trkpt lat="46.0452210" lon="10.3810920">
	<ele>1540.00</ele>
	<time>2024-07-24T10:03:01.000Z</time>
</trkpt>
<trkpt lat="46.0452260" lon="10.3810870">
	<ele>1539.80</ele>
	<time>2024-07-24T10:03:02.000Z</time>
</trkpt>
<trkpt lat="46.0452330" lon="10.3810830">
	<ele>1539.60</ele>
	<time>2024-07-24T10:03:03.000Z</time>
</trkpt>
<trkpt lat="46.0452340" lon="10.3810760">
	<ele>1539.40</ele>
	<time>2024-07-24T10:03:04.000Z</time>
</trkpt>
<trkpt lat="46.0452400" lon="10.3810650">
	<ele>1539.20</ele>
	<time>2024-07-24T10:03:05.000Z</time>
</trkpt>
<trkpt lat="46.0452510" lon="10.3810540">
	<ele>1539.00</ele>
	<time>2024-07-24T10:03:06.000Z</time>
</trkpt>
<trkpt lat="46.0452620" lon="10.3810450">
	<ele>1538.80</ele>
	<time>2024-07-24T10:03:07.000Z</time>
</trkpt>
<trkpt lat="46.0452760" lon="10.3810360">
	<ele>1538.20</ele>
	<time>2024-07-24T10:03:08.000Z</time>
</trkpt>
<trkpt lat="46.0452880" lon="10.3810300">
	<ele>1537.80</ele>
	<time>2024-07-24T10:03:09.000Z</time>
</trkpt>
<trkpt lat="46.0452970" lon="10.3810190">
	<ele>1537.60</ele>
	<time>2024-07-24T10:03:10.000Z</time>
</trkpt>
<trkpt lat="46.0453040" lon="10.3810110">
	<ele>1537.20</ele>
	<time>2024-07-24T10:03:11.000Z</time>
</trkpt>
<trkpt lat="46.0453170" lon="10.3809920">
	<ele>1537.00</ele>
	<time>2024-07-24T10:03:12.000Z</time>
</trkpt>
<trkpt lat="46.0453270" lon="10.3809770">
	<ele>1536.80</ele>
	<time>2024-07-24T10:03:13.000Z</time>
</trkpt>
<trkpt lat="46.0453340" lon="10.3809620">
	<ele>1536.60</ele>
	<time>2024-07-24T10:03:14.000Z</time>
</trkpt>
<trkpt lat="46.0453380" lon="10.3809400">
	<ele>1536.20</ele>
	<time>2024-07-24T10:03:15.000Z</time>
</trkpt>
<trkpt lat="46.0453470" lon="10.3809320">
	<ele>1536.00</ele>
	<time>2024-07-24T10:03:16.000Z</time>
</trkpt>
<trkpt lat="46.0453520" lon="10.3809210">
	<ele>1535.80</ele>
	<time>2024-07-24T10:03:17.000Z</time>
</trkpt>
<trkpt lat="46.0453570" lon="10.3809130">
	<ele>1535.60</ele>
	<time>2024-07-24T10:03:18.000Z</time>
</trkpt>
<trkpt lat="46.0453620" lon="10.3809040">
	<ele>1535.40</ele>
	<time>2024-07-24T10:03:19.000Z</time>
</trkpt>
<trkpt lat="46.0453720" lon="10.3808940">
	<ele>1535.20</ele>
	<time>2024-07-24T10:03:20.000Z</time>
</trkpt>
<trkpt lat="46.0453800" lon="10.3808940">
	<ele>1534.60</ele>
	<time>2024-07-24T10:03:21.000Z</time>
</trkpt>
<trkpt lat="46.0453910" lon="10.3808810">
	<ele>1534.40</ele>
	<time>2024-07-24T10:03:22.000Z</time>
</trkpt>
<trkpt lat="46.0454000" lon="10.3808610">
	<ele>1534.20</ele>
	<time>2024-07-24T10:03:23.000Z</time>
</trkpt>
<trkpt lat="46.0454090" lon="10.3808510">
	<ele>1534.00</ele>
	<time>2024-07-24T10:03:24.000Z</time>
</trkpt>
<trkpt lat="46.0454180" lon="10.3808490">
	<ele>1533.60</ele>
	<time>2024-07-24T10:03:25.000Z</time>
</trkpt>
<trkpt lat="46.0454240" lon="10.3808380">
	<ele>1533.40</ele>
	<time>2024-07-24T10:03:26.000Z</time>
</trkpt>
<trkpt lat="46.0454280" lon="10.3808350">
	<ele>1533.20</ele>
	<time>2024-07-24T10:03:27.000Z</time>
</trkpt>
<trkpt lat="46.0454370" lon="10.3808260">
	<ele>1533.00</ele>
	<time>2024-07-24T10:03:28.000Z</time>
</trkpt>
<trkpt lat="46.0454440" lon="10.3808160">
	<ele>1532.80</ele>
	<time>2024-07-24T10:03:29.000Z</time>
</trkpt>
<trkpt lat="46.0454520" lon="10.3808100">
	<ele>1532.60</ele>
	<time>2024-07-24T10:03:30.000Z</time>
</trkpt>
<trkpt lat="46.0454570" lon="10.3808100">
	<ele>1532.60</ele>
	<time>2024-07-24T10:03:31.000Z</time>
</trkpt>
<trkpt lat="46.0454590" lon="10.3808080">
	<ele>1532.40</ele>
	<time>2024-07-24T10:03:32.000Z</time>
</trkpt>
<trkpt lat="46.0454640" lon="10.3807970">
	<ele>1532.40</ele>
	<time>2024-07-24T10:03:33.000Z</time>
</trkpt>
<trkpt lat="46.0454700" lon="10.3807810">
	<ele>1532.40</ele>
	<time>2024-07-24T10:03:34.000Z</time>
</trkpt>
<trkpt lat="46.0454840" lon="10.3807620">
	<ele>1532.20</ele>
	<time>2024-07-24T10:03:35.000Z</time>
</trkpt>
<trkpt lat="46.0454950" lon="10.3807570">
	<ele>1532.00</ele>
	<time>2024-07-24T10:03:36.000Z</time>
</trkpt>
<trkpt lat="46.0455020" lon="10.3807410">
	<ele>1531.80</ele>
	<time>2024-07-24T10:03:37.000Z</time>
</trkpt>
<trkpt lat="46.0455090" lon="10.3807280">
	<ele>1531.60</ele>
	<time>2024-07-24T10:03:38.000Z</time>
</trkpt>
<trkpt lat="46.0455180" lon="10.3807160">
	<ele>1531.40</ele>
	<time>2024-07-24T10:03:39.000Z</time>
</trkpt>
<trkpt lat="46.0455260" lon="10.3806940">
	<ele>1531.20</ele>
	<time>2024-07-24T10:03:40.000Z</time>
</trkpt>
<trkpt lat="46.0455350" lon="10.3806780">
	<ele>1531.00</ele>
	<time>2024-07-24T10:03:41.000Z</time>
</trkpt>
<trkpt lat="46.0455460" lon="10.3806730">
	<ele>1530.80</ele>
	<time>2024-07-24T10:03:42.000Z</time>
</trkpt>
<trkpt lat="46.0455560" lon="10.3806640">
	<ele>1530.40</ele>
	<time>2024-07-24T10:03:43.000Z</time>
</trkpt>
<trkpt lat="46.0455700" lon="10.3806640">
	<ele>1530.40</ele>
	<time>2024-07-24T10:03:44.000Z</time>
</trkpt>
<trkpt lat="46.0455860" lon="10.3806710">
	<ele>1529.80</ele>
	<time>2024-07-24T10:03:45.000Z</time>
</trkpt>
<trkpt lat="46.0456020" lon="10.3806750">
	<ele>1529.60</ele>
	<time>2024-07-24T10:03:46.000Z</time>
</trkpt>
<trkpt lat="46.0456160" lon="10.3806750">
	<ele>1529.40</ele>
	<time>2024-07-24T10:03:47.000Z</time>
</trkpt>
<trkpt lat="46.0456270" lon="10.3806700">
	<ele>1529.20</ele>
	<time>2024-07-24T10:03:48.000Z</time>
</trkpt>
<trkpt lat="46.0456370" lon="10.3806660">
	<ele>1528.80</ele>
	<time>2024-07-24T10:03:49.000Z</time>
</trkpt>
<trkpt lat="46.0456500" lon="10.3806640">
	<ele>1528.60</ele>
	<time>2024-07-24T10:03:50.000Z</time>
</trkpt>
<trkpt lat="46.0456650" lon="10.3806700">
	<ele>1528.40</ele>
	<time>2024-07-24T10:03:51.000Z</time>
</trkpt>
<trkpt lat="46.0456830" lon="10.3806820">
	<ele>1528.20</ele>
	<time>2024-07-24T10:03:52.000Z</time>
</trkpt>
<trkpt lat="46.0456990" lon="10.3806840">
	<ele>1528.00</ele>
	<time>2024-07-24T10:03:53.000Z</time>
</trkpt>
<trkpt lat="46.0457100" lon="10.3806800">
	<ele>1527.60</ele>
	<time>2024-07-24T10:03:54.000Z</time>
</trkpt>
<trkpt lat="46.0457200" lon="10.3806700">
	<ele>1527.40</ele>
	<time>2024-07-24T10:03:55.000Z</time>
</trkpt>
<trkpt lat="46.0457310" lon="10.3806650">
	<ele>1527.20</ele>
	<time>2024-07-24T10:03:56.000Z</time>
</trkpt>
<trkpt lat="46.0457500" lon="10.3806720">
	<ele>1527.00</ele>
	<time>2024-07-24T10:03:57.000Z</time>
</trkpt>
<trkpt lat="46.0457680" lon="10.3806750">
	<ele>1526.80</ele>
	<time>2024-07-24T10:03:58.000Z</time>
</trkpt>
<trkpt lat="46.0457830" lon="10.3806780">
	<ele>1526.60</ele>
	<time>2024-07-24T10:03:59.000Z</time>
</trkpt>
<trkpt lat="46.0458030" lon="10.3806770">
	<ele>1526.40</ele>
	<time>2024-07-24T10:04:00.000Z</time>
</trkpt>
<trkpt lat="46.0458230" lon="10.3806720">
	<ele>1526.20</ele>
	<time>2024-07-24T10:04:01.000Z</time>
</trkpt>
<trkpt lat="46.0458320" lon="10.3806600">
	<ele>1526.00</ele>
	<time>2024-07-24T10:04:02.000Z</time>
</trkpt>
<trkpt lat="46.0458460" lon="10.3806460">
	<ele>1525.80</ele>
	<time>2024-07-24T10:04:03.000Z</time>
</trkpt>
<trkpt lat="46.0458550" lon="10.3806390">
	<ele>1525.60</ele>
	<time>2024-07-24T10:04:04.000Z</time>
</trkpt>
<trkpt lat="46.0458670" lon="10.3806320">
	<ele>1525.40</ele>
	<time>2024-07-24T10:04:05.000Z</time>
</trkpt>
<trkpt lat="46.0458770" lon="10.3806130">
	<ele>1525.20</ele>
	<time>2024-07-24T10:04:06.000Z</time>
</trkpt>
<trkpt lat="46.0458880" lon="10.3806040">
	<ele>1525.00</ele>
	<time>2024-07-24T10:04:07.000Z</time>
</trkpt>
<trkpt lat="46.0459010" lon="10.3805940">
	<ele>1524.80</ele>
	<time>2024-07-24T10:04:08.000Z</time>
</trkpt>
<trkpt lat="46.0459080" lon="10.3805860">
	<ele>1524.60</ele>
	<time>2024-07-24T10:04:09.000Z</time>
</trkpt>
<trkpt lat="46.0459110" lon="10.3805760">
	<ele>1524.40</ele>
	<time>2024-07-24T10:04:10.000Z</time>
</trkpt>
<trkpt lat="46.0459130" lon="10.3805570">
	<ele>1524.40</ele>
	<time>2024-07-24T10:04:11.000Z</time>
</trkpt>
<trkpt lat="46.0459150" lon="10.3805420">
	<ele>1524.20</ele>
	<time>2024-07-24T10:04:12.000Z</time>
</trkpt>
<trkpt lat="46.0459180" lon="10.3805260">
	<ele>1524.00</ele>
	<time>2024-07-24T10:04:13.000Z</time>
</trkpt>
<trkpt lat="46.0459200" lon="10.3805110">
	<ele>1523.80</ele>
	<time>2024-07-24T10:04:14.000Z</time>
</trkpt>
<trkpt lat="46.0459180" lon="10.3805000">
	<ele>1523.60</ele>
	<time>2024-07-24T10:04:15.000Z</time>
</trkpt>
<trkpt lat="46.0459190" lon="10.3804850">
	<ele>1523.60</ele>
	<time>2024-07-24T10:04:16.000Z</time>
</trkpt>
<trkpt lat="46.0459170" lon="10.3804640">
	<ele>1523.40</ele>
	<time>2024-07-24T10:04:17.000Z</time>
</trkpt>
<trkpt lat="46.0459190" lon="10.3804360">
	<ele>1523.20</ele>
	<time>2024-07-24T10:04:18.000Z</time>
</trkpt>
<trkpt lat="46.0459160" lon="10.3804100">
	<ele>1523.20</ele>
	<time>2024-07-24T10:04:19.000Z</time>
</trkpt>
<trkpt lat="46.0459150" lon="10.3803900">
	<ele>1523.00</ele>
	<time>2024-07-24T10:04:20.000Z</time>
</trkpt>
<trkpt lat="46.0459130" lon="10.3803700">
	<ele>1522.60</ele>
	<time>2024-07-24T10:04:21.000Z</time>
</trkpt>
<trkpt lat="46.0459180" lon="10.3803600">
	<ele>1522.40</ele>
	<time>2024-07-24T10:04:22.000Z</time>
</trkpt>
<trkpt lat="46.0459260" lon="10.3803480">
	<ele>1522.40</ele>
	<time>2024-07-24T10:04:23.000Z</time>
</trkpt>
<trkpt lat="46.0459310" lon="10.3803450">
	<ele>1522.20</ele>
	<time>2024-07-24T10:04:24.000Z</time>
</trkpt>
<trkpt lat="46.0459310" lon="10.3803420">
	<ele>1522.00</ele>
	<time>2024-07-24T10:04:25.000Z</time>
</trkpt>
<trkpt lat="46.0459310" lon="10.3803330">
	<ele>1521.60</ele>
	<time>2024-07-24T10:04:26.000Z</time>
</trkpt>
<trkpt lat="46.0459340" lon="10.3803210">
	<ele>1521.20</ele>
	<time>2024-07-24T10:04:27.000Z</time>
</trkpt>
<trkpt lat="46.0459450" lon="10.3803090">
	<ele>1521.00</ele>
	<time>2024-07-24T10:04:28.000Z</time>
</trkpt>
<trkpt lat="46.0459580" lon="10.3802950">
	<ele>1520.80</ele>
	<time>2024-07-24T10:04:29.000Z</time>
</trkpt>
<trkpt lat="46.0459690" lon="10.3802810">
	<ele>1520.40</ele>
	<time>2024-07-24T10:04:30.000Z</time>
</trkpt>
<trkpt lat="46.0459780" lon="10.3802640">
	<ele>1520.20</ele>
	<time>2024-07-24T10:04:31.000Z</time>
</trkpt>
<trkpt lat="46.0459880" lon="10.3802450">
	<ele>1519.80</ele>
	<time>2024-07-24T10:04:32.000Z</time>
</trkpt>
<trkpt lat="46.0459970" lon="10.3802270">
	<ele>1519.60</ele>
	<time>2024-07-24T10:04:33.000Z</time>
</trkpt>
<trkpt lat="46.0460040" lon="10.3802140">
	<ele>1519.20</ele>
	<time>2024-07-24T10:04:34.000Z</time>
</trkpt>
<trkpt lat="46.0460050" lon="10.3801940">
	<ele>1519.20</ele>
	<time>2024-07-24T10:04:35.000Z</time>
</trkpt>
<trkpt lat="46.0460050" lon="10.3801710">
	<ele>1518.80</ele>
	<time>2024-07-24T10:04:36.000Z</time>
</trkpt>
<trkpt lat="46.0460070" lon="10.3801530">
	<ele>1518.80</ele>
	<time>2024-07-24T10:04:37.000Z</time>
</trkpt>
<trkpt lat="46.0460120" lon="10.3801440">
	<ele>1518.60</ele>
	<time>2024-07-24T10:04:38.000Z</time>
</trkpt>
<trkpt lat="46.0460130" lon="10.3801350">
	<ele>1518.20</ele>
	<time>2024-07-24T10:04:39.000Z</time>
</trkpt>
<trkpt lat="46.0460050" lon="10.3801290">
	<ele>1518.00</ele>
	<time>2024-07-24T10:04:40.000Z</time>
</trkpt>
<trkpt lat="46.0459920" lon="10.3801270">
	<ele>1517.80</ele>
	<time>2024-07-24T10:04:41.000Z</time>
</trkpt>
<trkpt lat="46.0459780" lon="10.3801200">
	<ele>1517.60</ele>
	<time>2024-07-24T10:04:42.000Z</time>
</trkpt>
<trkpt lat="46.0459640" lon="10.3801120">
	<ele>1517.60</ele>
	<time>2024-07-24T10:04:43.000Z</time>
</trkpt>
<trkpt lat="46.0459480" lon="10.3801100">
	<ele>1517.40</ele>
	<time>2024-07-24T10:04:44.000Z</time>
</trkpt>
<trkpt lat="46.0459340" lon="10.3801070">
	<ele>1517.00</ele>
	<time>2024-07-24T10:04:45.000Z</time>
</trkpt>
<trkpt lat="46.0459180" lon="10.3801020">
	<ele>1516.60</ele>
	<time>2024-07-24T10:04:46.000Z</time>
</trkpt>
<trkpt lat="46.0459030" lon="10.3800950">
	<ele>1516.40</ele>
	<time>2024-07-24T10:04:47.000Z</time>
</trkpt>
<trkpt lat="46.0458870" lon="10.3800960">
	<ele>1516.20</ele>
	<time>2024-07-24T10:04:48.000Z</time>
</trkpt>
<trkpt lat="46.0458720" lon="10.3800930">
	<ele>1516.00</ele>
	<time>2024-07-24T10:04:49.000Z</time>
</trkpt>
<trkpt lat="46.0458550" lon="10.3800960">
	<ele>1515.80</ele>
	<time>2024-07-24T10:04:50.000Z</time>
</trkpt>
<trkpt lat="46.0458430" lon="10.3801000">
	<ele>1515.80</ele>
	<time>2024-07-24T10:04:51.000Z</time>
</trkpt>
<trkpt lat="46.0458350" lon="10.3801030">
	<ele>1515.80</ele>
	<time>2024-07-24T10:04:52.000Z</time>
</trkpt>
<trkpt lat="46.0458270" lon="10.3801050">
	<ele>1515.80</ele>
	<time>2024-07-24T10:04:53.000Z</time>
</trkpt>
<trkpt lat="46.0458180" lon="10.3801090">
	<ele>1515.60</ele>
	<time>2024-07-24T10:04:54.000Z</time>
</trkpt>
<trkpt lat="46.0458080" lon="10.3801080">
	<ele>1515.40</ele>
	<time>2024-07-24T10:04:55.000Z</time>
</trkpt>
<trkpt lat="46.0457910" lon="10.3801090">
	<ele>1515.00</ele>
	<time>2024-07-24T10:04:56.000Z</time>
</trkpt>
<trkpt lat="46.0457780" lon="10.3801100">
	<ele>1514.60</ele>
	<time>2024-07-24T10:04:57.000Z</time>
</trkpt>
<trkpt lat="46.0457660" lon="10.3801140">
	<ele>1514.20</ele>
	<time>2024-07-24T10:04:58.000Z</time>
</trkpt>
<trkpt lat="46.0457570" lon="10.3801140">
	<ele>1514.00</ele>
	<time>2024-07-24T10:04:59.000Z</time>
</trkpt>
<trkpt lat="46.0457450" lon="10.3801090">
	<ele>1513.80</ele>
	<time>2024-07-24T10:05:00.000Z</time>
</trkpt>
<trkpt lat="46.0457330" lon="10.3801060">
	<ele>1513.60</ele>
	<time>2024-07-24T10:05:01.000Z</time>
</trkpt>
<trkpt lat="46.0457180" lon="10.3801050">
	<ele>1513.40</ele>
	<time>2024-07-24T10:05:02.000Z</time>
</trkpt>
<trkpt lat="46.0457080" lon="10.3801040">
	<ele>1513.20</ele>
	<time>2024-07-24T10:05:03.000Z</time>
</trkpt>
<trkpt lat="46.0456960" lon="10.3801000">
	<ele>1513.00</ele>
	<time>2024-07-24T10:05:04.000Z</time>
</trkpt>
<trkpt lat="46.0456840" lon="10.3800930">
	<ele>1512.80</ele>
	<time>2024-07-24T10:05:05.000Z</time>
</trkpt>
<trkpt lat="46.0456710" lon="10.3800890">
	<ele>1512.60</ele>
	<time>2024-07-24T10:05:06.000Z</time>
</trkpt>
<trkpt lat="46.0456640" lon="10.3800900">
	<ele>1512.40</ele>
	<time>2024-07-24T10:05:07.000Z</time>
</trkpt>
<trkpt lat="46.0456540" lon="10.3800880">
	<ele>1512.00</ele>
	<time>2024-07-24T10:05:08.000Z</time>
</trkpt>
<trkpt lat="46.0456470" lon="10.3800860">
	<ele>1511.80</ele>
	<time>2024-07-24T10:05:09.000Z</time>
</trkpt>
<trkpt lat="46.0456380" lon="10.3800980">
	<ele>1511.60</ele>
	<time>2024-07-24T10:05:10.000Z</time>
</trkpt>
<trkpt lat="46.0456310" lon="10.3801150">
	<ele>1511.40</ele>
	<time>2024-07-24T10:05:11.000Z</time>
</trkpt>
<trkpt lat="46.0456250" lon="10.3801250">
	<ele>1511.00</ele>
	<time>2024-07-24T10:05:12.000Z</time>
</trkpt>
<trkpt lat="46.0456150" lon="10.3801270">
	<ele>1510.80</ele>
	<time>2024-07-24T10:05:13.000Z</time>
</trkpt>
<trkpt lat="46.0456050" lon="10.3801360">
	<ele>1510.60</ele>
	<time>2024-07-24T10:05:14.000Z</time>
</trkpt>
<trkpt lat="46.0455990" lon="10.3801450">
	<ele>1510.40</ele>
	<time>2024-07-24T10:05:15.000Z</time>
</trkpt>
<trkpt lat="46.0455920" lon="10.3801560">
	<ele>1510.00</ele>
	<time>2024-07-24T10:05:16.000Z</time>
</trkpt>
<trkpt lat="46.0455840" lon="10.3801630">
	<ele>1509.80</ele>
	<time>2024-07-24T10:05:17.000Z</time>
</trkpt>
<trkpt lat="46.0455720" lon="10.3801690">
	<ele>1509.80</ele>
	<time>2024-07-24T10:05:18.000Z</time>
</trkpt>
<trkpt lat="46.0455580" lon="10.3801720">
	<ele>1509.60</ele>
	<time>2024-07-24T10:05:19.000Z</time>
</trkpt>
<trkpt lat="46.0455470" lon="10.3801770">
	<ele>1509.60</ele>
	<time>2024-07-24T10:05:20.000Z</time>
</trkpt>
<trkpt lat="46.0455390" lon="10.3801880">
	<ele>1509.40</ele>
	<time>2024-07-24T10:05:21.000Z</time>
</trkpt>
<trkpt lat="46.0455300" lon="10.3801950">
	<ele>1509.20</ele>
	<time>2024-07-24T10:05:22.000Z</time>
</trkpt>
<trkpt lat="46.0455210" lon="10.3801990">
	<ele>1509.00</ele>
	<time>2024-07-24T10:05:23.000Z</time>
</trkpt>
<trkpt lat="46.0455090" lon="10.3802040">
	<ele>1508.80</ele>
	<time>2024-07-24T10:05:24.000Z</time>
</trkpt>
<trkpt lat="46.0454970" lon="10.3802030">
	<ele>1508.60</ele>
	<time>2024-07-24T10:05:25.000Z</time>
</trkpt>
<trkpt lat="46.0454870" lon="10.3801940">
	<ele>1508.60</ele>
	<time>2024-07-24T10:05:26.000Z</time>
</trkpt>
<trkpt lat="46.0454760" lon="10.3801700">
	<ele>1508.40</ele>
	<time>2024-07-24T10:05:27.000Z</time>
</trkpt>
<trkpt lat="46.0454640" lon="10.3801540">
	<ele>1508.20</ele>
	<time>2024-07-24T10:05:28.000Z</time>
</trkpt>
<trkpt lat="46.0454600" lon="10.3801260">
	<ele>1507.80</ele>
	<time>2024-07-24T10:05:29.000Z</time>
</trkpt>
<trkpt lat="46.0454580" lon="10.3801110">
	<ele>1507.60</ele>
	<time>2024-07-24T10:05:30.000Z</time>
</trkpt>
<trkpt lat="46.0454550" lon="10.3800990">
	<ele>1507.60</ele>
	<time>2024-07-24T10:05:31.000Z</time>
</trkpt>
<trkpt lat="46.0454510" lon="10.3800940">
	<ele>1507.40</ele>
	<time>2024-07-24T10:05:32.000Z</time>
</trkpt>
<trkpt lat="46.0454390" lon="10.3800920">
	<ele>1507.00</ele>
	<time>2024-07-24T10:05:33.000Z</time>
</trkpt>
<trkpt lat="46.0454280" lon="10.3800910">
	<ele>1506.80</ele>
	<time>2024-07-24T10:05:34.000Z</time>
</trkpt>
<trkpt lat="46.0454130" lon="10.3800940">
	<ele>1506.40</ele>
	<time>2024-07-24T10:05:35.000Z</time>
</trkpt>
<trkpt lat="46.0454000" lon="10.3800930">
	<ele>1506.20</ele>
	<time>2024-07-24T10:05:36.000Z</time>
</trkpt>
<trkpt lat="46.0453900" lon="10.3800890">
	<ele>1505.80</ele>
	<time>2024-07-24T10:05:37.000Z</time>
</trkpt>
<trkpt lat="46.0453810" lon="10.3800830">
	<ele>1505.60</ele>
	<time>2024-07-24T10:05:38.000Z</time>
</trkpt>
<trkpt lat="46.0453700" lon="10.3800810">
	<ele>1505.40</ele>
	<time>2024-07-24T10:05:39.000Z</time>
</trkpt>
<trkpt lat="46.0453580" lon="10.3800790">
	<ele>1505.40</ele>
	<time>2024-07-24T10:05:40.000Z</time>
</trkpt>
<trkpt lat="46.0453450" lon="10.3800770">
	<ele>1505.20</ele>
	<time>2024-07-24T10:05:41.000Z</time>
</trkpt>
<trkpt lat="46.0453310" lon="10.3800720">
	<ele>1505.00</ele>
	<time>2024-07-24T10:05:42.000Z</time>
</trkpt>
<trkpt lat="46.0453210" lon="10.3800650">
	<ele>1504.80</ele>
	<time>2024-07-24T10:05:43.000Z</time>
</trkpt>
<trkpt lat="46.0453150" lon="10.3800640">
	<ele>1504.60</ele>
	<time>2024-07-24T10:05:44.000Z</time>
</trkpt>
<trkpt lat="46.0453100" lon="10.3800690">
	<ele>1504.20</ele>
	<time>2024-07-24T10:05:45.000Z</time>
</trkpt>
<trkpt lat="46.0453000" lon="10.3800760">
	<ele>1504.00</ele>
	<time>2024-07-24T10:05:46.000Z</time>
</trkpt>
<trkpt lat="46.0452870" lon="10.3800760">
	<ele>1503.80</ele>
	<time>2024-07-24T10:05:47.000Z</time>
</trkpt>
<trkpt lat="46.0452680" lon="10.3800690">
	<ele>1503.60</ele>
	<time>2024-07-24T10:05:48.000Z</time>
</trkpt>
<trkpt lat="46.0452530" lon="10.3800650">
	<ele>1503.40</ele>
	<time>2024-07-24T10:05:49.000Z</time>
</trkpt>
<trkpt lat="46.0452390" lon="10.3800620">
	<ele>1503.20</ele>
	<time>2024-07-24T10:05:50.000Z</time>
</trkpt>
<trkpt lat="46.0452240" lon="10.3800560">
	<ele>1502.80</ele>
	<time>2024-07-24T10:05:51.000Z</time>
</trkpt>
<trkpt lat="46.0452100" lon="10.3800530">
	<ele>1502.60</ele>
	<time>2024-07-24T10:05:52.000Z</time>
</trkpt>
<trkpt lat="46.0451980" lon="10.3800540">
	<ele>1502.40</ele>
	<time>2024-07-24T10:05:53.000Z</time>
</trkpt>
<trkpt lat="46.0451900" lon="10.3800590">
	<ele>1502.20</ele>
	<time>2024-07-24T10:05:54.000Z</time>
</trkpt>
<trkpt lat="46.0451780" lon="10.3800600">
	<ele>1502.20</ele>
	<time>2024-07-24T10:05:55.000Z</time>
</trkpt>
<trkpt lat="46.0451650" lon="10.3800420">
	<ele>1502.00</ele>
	<time>2024-07-24T10:05:56.000Z</time>
</trkpt>
<trkpt lat="46.0451540" lon="10.3800390">
	<ele>1502.00</ele>
	<time>2024-07-24T10:05:57.000Z</time>
</trkpt>
<trkpt lat="46.0451460" lon="10.3800360">
	<ele>1501.80</ele>
	<time>2024-07-24T10:05:58.000Z</time>
</trkpt>
<trkpt lat="46.0451410" lon="10.3800380">
	<ele>1501.60</ele>
	<time>2024-07-24T10:05:59.000Z</time>
</trkpt>
<trkpt lat="46.0451380" lon="10.3800420">
	<ele>1501.40</ele>
	<time>2024-07-24T10:06:00.000Z</time>
</trkpt>
<trkpt lat="46.0451380" lon="10.3800460">
	<ele>1501.20</ele>
	<time>2024-07-24T10:06:01.000Z</time>
</trkpt>
<trkpt lat="46.0451390" lon="10.3800450">
	<ele>1501.20</ele>
	<time>2024-07-24T10:06:02.000Z</time>
</trkpt>
<trkpt lat="46.0451400" lon="10.3800510">
	<ele>1501.00</ele>
	<time>2024-07-24T10:06:03.000Z</time>
</trkpt>
<trkpt lat="46.0451420" lon="10.3800540">
	<ele>1501.00</ele>
	<time>2024-07-24T10:06:04.000Z</time>
</trkpt>
<trkpt lat="46.0451430" lon="10.3800580">
	<ele>1500.80</ele>
	<time>2024-07-24T10:06:05.000Z</time>
</trkpt>
<trkpt lat="46.0451400" lon="10.3800580">
	<ele>1500.80</ele>
	<time>2024-07-24T10:06:06.000Z</time>
</trkpt>
<trkpt lat="46.0451390" lon="10.3800570">
	<ele>1500.80</ele>
	<time>2024-07-24T10:06:07.000Z</time>
</trkpt>
<trkpt lat="46.0451400" lon="10.3800570">
	<ele>1500.80</ele>
	<time>2024-07-24T10:06:08.000Z</time>
</trkpt>
<trkpt lat="46.0451360" lon="10.3800580">
	<ele>1500.80</ele>
	<time>2024-07-24T10:06:09.000Z</time>
</trkpt>
<trkpt lat="46.0451300" lon="10.3800610">
	<ele>1500.60</ele>
	<time>2024-07-24T10:06:10.000Z</time>
</trkpt>
<trkpt lat="46.0451290" lon="10.3800650">
	<ele>1500.60</ele>
	<time>2024-07-24T10:06:11.000Z</time>
</trkpt>
<trkpt lat="46.0451300" lon="10.3800620">
	<ele>1500.60</ele>
	<time>2024-07-24T10:06:12.000Z</time>
</trkpt>
<trkpt lat="46.0451300" lon="10.3800570">
	<ele>1500.60</ele>
	<time>2024-07-24T10:06:13.000Z</time>
</trkpt>
<trkpt lat="46.0451270" lon="10.3800470">
	<ele>1500.60</ele>
	<time>2024-07-24T10:06:14.000Z</time>
</trkpt>
<trkpt lat="46.0451250" lon="10.3800350">
	<ele>1500.40</ele>
	<time>2024-07-24T10:06:15.000Z</time>
</trkpt>
<trkpt lat="46.0451240" lon="10.3800340">
	<ele>1500.20</ele>
	<time>2024-07-24T10:06:16.000Z</time>
</trkpt>
<trkpt lat="46.0451240" lon="10.3800310">
	<ele>1500.00</ele>
	<time>2024-07-24T10:06:17.000Z</time>
</trkpt>
<trkpt lat="46.0451340" lon="10.3800320">
	<ele>1499.80</ele>
	<time>2024-07-24T10:06:18.000Z</time>
</trkpt>
<trkpt lat="46.0451410" lon="10.3800400">
	<ele>1499.80</ele>
	<time>2024-07-24T10:06:19.000Z</time>
</trkpt>
<trkpt lat="46.0451460" lon="10.3800490">
	<ele>1499.80</ele>
	<time>2024-07-24T10:06:20.000Z</time>
</trkpt>
<trkpt lat="46.0451510" lon="10.3800620">
	<ele>1499.80</ele>
	<time>2024-07-24T10:06:21.000Z</time>
</trkpt>
<trkpt lat="46.0451530" lon="10.3800650">
	<ele>1500.00</ele>
	<time>2024-07-24T10:06:22.000Z</time>
</trkpt>
<trkpt lat="46.0451550" lon="10.3800720">
	<ele>1500.40</ele>
	<time>2024-07-24T10:06:23.000Z</time>
</trkpt>
<trkpt lat="46.0451530" lon="10.3800820">
	<ele>1500.40</ele>
	<time>2024-07-24T10:06:24.000Z</time>
</trkpt>
<trkpt lat="46.0451540" lon="10.3800850">
	<ele>1500.60</ele>
	<time>2024-07-24T10:06:25.000Z</time>
</trkpt>
<trkpt lat="46.0451580" lon="10.3800860">
	<ele>1500.60</ele>
	<time>2024-07-24T10:06:26.000Z</time>
</trkpt>
<trkpt lat="46.0451620" lon="10.3800870">
	<ele>1500.60</ele>
	<time>2024-07-24T10:06:27.000Z</time>
</trkpt>
<trkpt lat="46.0451660" lon="10.3800860">
	<ele>1500.60</ele>
	<time>2024-07-24T10:06:28.000Z</time>
</trkpt>
<trkpt lat="46.0451690" lon="10.3800850">
	<ele>1500.20</ele>
	<time>2024-07-24T10:06:29.000Z</time>
</trkpt>
<trkpt lat="46.0451660" lon="10.3800780">
	<ele>1500.00</ele>
	<time>2024-07-24T10:06:30.000Z</time>
</trkpt>
<trkpt lat="46.0451660" lon="10.3800730">
	<ele>1499.80</ele>
	<time>2024-07-24T10:06:31.000Z</time>
</trkpt>
<trkpt lat="46.0451670" lon="10.3800700">
	<ele>1499.60</ele>
	<time>2024-07-24T10:06:32.000Z</time>
</trkpt>
<trkpt lat="46.0451660" lon="10.3800590">
	<ele>1499.60</ele>
	<time>2024-07-24T10:06:33.000Z</time>
</trkpt>
<trkpt lat="46.0451710" lon="10.3800460">
	<ele>1499.40</ele>
	<time>2024-07-24T10:06:34.000Z</time>
</trkpt>
<trkpt lat="46.0451700" lon="10.3800300">
	<ele>1499.20</ele>
	<time>2024-07-24T10:06:35.000Z</time>
</trkpt>
<trkpt lat="46.0451720" lon="10.3800160">
	<ele>1499.00</ele>
	<time>2024-07-24T10:06:36.000Z</time>
</trkpt>
<trkpt lat="46.0451740" lon="10.3800000">
	<ele>1499.00</ele>
	<time>2024-07-24T10:06:37.000Z</time>
</trkpt>
<trkpt lat="46.0451770" lon="10.3799810">
	<ele>1498.80</ele>
	<time>2024-07-24T10:06:38.000Z</time>
</trkpt>
<trkpt lat="46.0451830" lon="10.3799630">
	<ele>1498.60</ele>
	<time>2024-07-24T10:06:39.000Z</time>
</trkpt>
<trkpt lat="46.0451860" lon="10.3799450">
	<ele>1498.60</ele>
	<time>2024-07-24T10:06:40.000Z</time>
</trkpt>
<trkpt lat="46.0451900" lon="10.3799270">
	<ele>1498.40</ele>
	<time>2024-07-24T10:06:41.000Z</time>
</trkpt>
<trkpt lat="46.0451890" lon="10.3799140">
	<ele>1498.40</ele>
	<time>2024-07-24T10:06:42.000Z</time>
</trkpt>
<trkpt lat="46.0451840" lon="10.3799090">
	<ele>1498.20</ele>
	<time>2024-07-24T10:06:43.000Z</time>
</trkpt>
<trkpt lat="46.0451750" lon="10.3799040">
	<ele>1497.80</ele>
	<time>2024-07-24T10:06:44.000Z</time>
</trkpt>
<trkpt lat="46.0451700" lon="10.3799040">
	<ele>1497.60</ele>
	<time>2024-07-24T10:06:45.000Z</time>
</trkpt>
<trkpt lat="46.0451620" lon="10.3799020">
	<ele>1497.40</ele>
	<time>2024-07-24T10:06:46.000Z</time>
</trkpt>
<trkpt lat="46.0451550" lon="10.3798920">
	<ele>1497.00</ele>
	<time>2024-07-24T10:06:47.000Z</time>
</trkpt>
<trkpt lat="46.0451490" lon="10.3798850">
	<ele>1496.80</ele>
	<time>2024-07-24T10:06:48.000Z</time>
</trkpt>
<trkpt lat="46.0451450" lon="10.3798830">
	<ele>1496.40</ele>
	<time>2024-07-24T10:06:49.000Z</time>
</trkpt>
<trkpt lat="46.0451380" lon="10.3798820">
	<ele>1496.20</ele>
	<time>2024-07-24T10:06:50.000Z</time>
</trkpt>
<trkpt lat="46.0451330" lon="10.3798770">
	<ele>1495.80</ele>
	<time>2024-07-24T10:06:51.000Z</time>
</trkpt>
<trkpt lat="46.0451300" lon="10.3798650">
	<ele>1495.60</ele>
	<time>2024-07-24T10:06:52.000Z</time>
</trkpt>
<trkpt lat="46.0451270" lon="10.3798500">
	<ele>1495.40</ele>
	<time>2024-07-24T10:06:53.000Z</time>
</trkpt>
<trkpt lat="46.0451210" lon="10.3798350">
	<ele>1495.20</ele>
	<time>2024-07-24T10:06:54.000Z</time>
</trkpt>
<trkpt lat="46.0451170" lon="10.3798320">
	<ele>1495.00</ele>
	<time>2024-07-24T10:06:55.000Z</time>
</trkpt>
<trkpt lat="46.0451160" lon="10.3798250">
	<ele>1494.80</ele>
	<time>2024-07-24T10:06:56.000Z</time>
</trkpt>
<trkpt lat="46.0451120" lon="10.3798150">
	<ele>1494.40</ele>
	<time>2024-07-24T10:06:57.000Z</time>
</trkpt>
<trkpt lat="46.0451030" lon="10.3798020">
	<ele>1494.40</ele>
	<time>2024-07-24T10:06:58.000Z</time>
</trkpt>
<trkpt lat="46.0450910" lon="10.3797910">
	<ele>1494.20</ele>
	<time>2024-07-24T10:06:59.000Z</time>
</trkpt>
<trkpt lat="46.0450730" lon="10.3797820">
	<ele>1493.80</ele>
	<time>2024-07-24T10:07:00.000Z</time>
</trkpt>
<trkpt lat="46.0450540" lon="10.3797790">
	<ele>1493.60</ele>
	<time>2024-07-24T10:07:01.000Z</time>
</trkpt>
<trkpt lat="46.0450360" lon="10.3797850">
	<ele>1493.60</ele>
	<time>2024-07-24T10:07:02.000Z</time>
</trkpt>
<trkpt lat="46.0450200" lon="10.3797920">
	<ele>1493.20</ele>
	<time>2024-07-24T10:07:03.000Z</time>
</trkpt>
<trkpt lat="46.0450010" lon="10.3797960">
	<ele>1493.00</ele>
	<time>2024-07-24T10:07:04.000Z</time>
</trkpt>
<trkpt lat="46.0449860" lon="10.3798000">
	<ele>1492.80</ele>
	<time>2024-07-24T10:07:05.000Z</time>
</trkpt>
<trkpt lat="46.0449700" lon="10.3797980">
	<ele>1492.80</ele>
	<time>2024-07-24T10:07:06.000Z</time>
</trkpt>
<trkpt lat="46.0449560" lon="10.3797990">
	<ele>1492.60</ele>
	<time>2024-07-24T10:07:07.000Z</time>
</trkpt>
<trkpt lat="46.0449440" lon="10.3798020">
	<ele>1492.40</ele>
	<time>2024-07-24T10:07:08.000Z</time>
</trkpt>
<trkpt lat="46.0449320" lon="10.3798010">
	<ele>1492.40</ele>
	<time>2024-07-24T10:07:09.000Z</time>
</trkpt>
<trkpt lat="46.0449210" lon="10.3797910">
	<ele>1492.20</ele>
	<time>2024-07-24T10:07:10.000Z</time>
</trkpt>
<trkpt lat="46.0449070" lon="10.3797820">
	<ele>1492.00</ele>
	<time>2024-07-24T10:07:11.000Z</time>
</trkpt>
<trkpt lat="46.0448990" lon="10.3797780">
	<ele>1491.60</ele>
	<time>2024-07-24T10:07:12.000Z</time>
</trkpt>
<trkpt lat="46.0448920" lon="10.3797730">
	<ele>1491.40</ele>
	<time>2024-07-24T10:07:13.000Z</time>
</trkpt>
<trkpt lat="46.0448890" lon="10.3797720">
	<ele>1491.20</ele>
	<time>2024-07-24T10:07:14.000Z</time>
</trkpt>
<trkpt lat="46.0448810" lon="10.3797750">
	<ele>1490.80</ele>
	<time>2024-07-24T10:07:15.000Z</time>
</trkpt>
<trkpt lat="46.0448730" lon="10.3797690">
	<ele>1490.60</ele>
	<time>2024-07-24T10:07:16.000Z</time>
</trkpt>
<trkpt lat="46.0448640" lon="10.3797600">
	<ele>1490.40</ele>
	<time>2024-07-24T10:07:17.000Z</time>
</trkpt>
<trkpt lat="46.0448560" lon="10.3797530">
	<ele>1490.20</ele>
	<time>2024-07-24T10:07:18.000Z</time>
</trkpt>
<trkpt lat="46.0448420" lon="10.3797410">
	<ele>1490.00</ele>
	<time>2024-07-24T10:07:19.000Z</time>
</trkpt>
<trkpt lat="46.0448350" lon="10.3797430">
	<ele>1489.60</ele>
	<time>2024-07-24T10:07:20.000Z</time>
</trkpt>
<trkpt lat="46.0448280" lon="10.3797490">
	<ele>1489.40</ele>
	<time>2024-07-24T10:07:21.000Z</time>
</trkpt>
<trkpt lat="46.0448210" lon="10.3797530">
	<ele>1489.00</ele>
	<time>2024-07-24T10:07:22.000Z</time>
</trkpt>
<trkpt lat="46.0448170" lon="10.3797520">
	<ele>1488.80</ele>
	<time>2024-07-24T10:07:23.000Z</time>
</trkpt>
<trkpt lat="46.0448120" lon="10.3797450">
	<ele>1488.60</ele>
	<time>2024-07-24T10:07:24.000Z</time>
</trkpt>
<trkpt lat="46.0448020" lon="10.3797280">
	<ele>1488.20</ele>
	<time>2024-07-24T10:07:25.000Z</time>
</trkpt>
<trkpt lat="46.0447950" lon="10.3797160">
	<ele>1487.80</ele>
	<time>2024-07-24T10:07:26.000Z</time>
</trkpt>
<trkpt lat="46.0447850" lon="10.3797130">
	<ele>1487.60</ele>
	<time>2024-07-24T10:07:27.000Z</time>
</trkpt>
<trkpt lat="46.0447710" lon="10.3797160">
	<ele>1487.20</ele>
	<time>2024-07-24T10:07:28.000Z</time>
</trkpt>
<trkpt lat="46.0447590" lon="10.3797200">
	<ele>1486.80</ele>
	<time>2024-07-24T10:07:29.000Z</time>
</trkpt>
<trkpt lat="46.0447470" lon="10.3797270">
	<ele>1486.40</ele>
	<time>2024-07-24T10:07:30.000Z</time>
</trkpt>
<trkpt lat="46.0447320" lon="10.3797300">
	<ele>1486.20</ele>
	<time>2024-07-24T10:07:31.000Z</time>
</trkpt>
<trkpt lat="46.0447200" lon="10.3797300">
	<ele>1486.00</ele>
	<time>2024-07-24T10:07:32.000Z</time>
</trkpt>
<trkpt lat="46.0447100" lon="10.3797320">
	<ele>1485.60</ele>
	<time>2024-07-24T10:07:33.000Z</time>
</trkpt>
<trkpt lat="46.0446980" lon="10.3797270">
	<ele>1485.40</ele>
	<time>2024-07-24T10:07:34.000Z</time>
</trkpt>
<trkpt lat="46.0446920" lon="10.3797300">
	<ele>1485.20</ele>
	<time>2024-07-24T10:07:35.000Z</time>
</trkpt>
<trkpt lat="46.0446870" lon="10.3797340">
	<ele>1485.00</ele>
	<time>2024-07-24T10:07:36.000Z</time>
</trkpt>
<trkpt lat="46.0446780" lon="10.3797360">
	<ele>1484.80</ele>
	<time>2024-07-24T10:07:37.000Z</time>
</trkpt>
<trkpt lat="46.0446720" lon="10.3797430">
	<ele>1484.80</ele>
	<time>2024-07-24T10:07:38.000Z</time>
</trkpt>
<trkpt lat="46.0446610" lon="10.3797380">
	<ele>1484.60</ele>
	<time>2024-07-24T10:07:39.000Z</time>
</trkpt>
<trkpt lat="46.0446570" lon="10.3797370">
	<ele>1484.40</ele>
	<time>2024-07-24T10:07:40.000Z</time>
</trkpt>
<trkpt lat="46.0446500" lon="10.3797300">
	<ele>1484.20</ele>
	<time>2024-07-24T10:07:41.000Z</time>
</trkpt>
<trkpt lat="46.0446470" lon="10.3797320">
	<ele>1484.00</ele>
	<time>2024-07-24T10:07:42.000Z</time>
</trkpt>
<trkpt lat="46.0446470" lon="10.3797260">
	<ele>1484.00</ele>
	<time>2024-07-24T10:07:43.000Z</time>
</trkpt>
<trkpt lat="46.0446520" lon="10.3797190">
	<ele>1483.80</ele>
	<time>2024-07-24T10:07:44.000Z</time>
</trkpt>
<trkpt lat="46.0446550" lon="10.3797190">
	<ele>1483.80</ele>
	<time>2024-07-24T10:07:45.000Z</time>
</trkpt>
<trkpt lat="46.0446560" lon="10.3797190">
	<ele>1483.60</ele>
	<time>2024-07-24T10:07:46.000Z</time>
</trkpt>
<trkpt lat="46.0446550" lon="10.3797170">
	<ele>1483.60</ele>
	<time>2024-07-24T10:07:47.000Z</time>
</trkpt>
<trkpt lat="46.0446550" lon="10.3797140">
	<ele>1483.60</ele>
	<time>2024-07-24T10:07:48.000Z</time>
</trkpt>
<trkpt lat="46.0446560" lon="10.3797100">
	<ele>1483.60</ele>
	<time>2024-07-24T10:07:49.000Z</time>
</trkpt>
<trkpt lat="46.0446580" lon="10.3797110">
	<ele>1483.60</ele>
	<time>2024-07-24T10:07:50.000Z</time>
</trkpt>
<trkpt lat="46.0446600" lon="10.3797120">
	<ele>1483.60</ele>
	<time>2024-07-24T10:07:51.000Z</time>
</trkpt>
<trkpt lat="46.0446620" lon="10.3797140">
	<ele>1483.80</ele>
	<time>2024-07-24T10:07:52.000Z</time>
</trkpt>
<trkpt lat="46.0446640" lon="10.3797220">
	<ele>1483.80</ele>
	<time>2024-07-24T10:07:53.000Z</time>
</trkpt>
<trkpt lat="46.0446670" lon="10.3797250">
	<ele>1483.80</ele>
	<time>2024-07-24T10:07:54.000Z</time>
</trkpt>
<trkpt lat="46.0446680" lon="10.3797250">
	<ele>1483.80</ele>
	<time>2024-07-24T10:07:55.000Z</time>
</trkpt>
<trkpt lat="46.0446670" lon="10.3797210">
	<ele>1483.80</ele>
	<time>2024-07-24T10:07:56.000Z</time>
</trkpt>
<trkpt lat="46.0446630" lon="10.3797200">
	<ele>1483.80</ele>
	<time>2024-07-24T10:07:57.000Z</time>
</trkpt>
<trkpt lat="46.0446610" lon="10.3797110">
	<ele>1483.80</ele>
	<time>2024-07-24T10:07:58.000Z</time>
</trkpt>
<trkpt lat="46.0446580" lon="10.3797000">
	<ele>1483.80</ele>
	<time>2024-07-24T10:07:59.000Z</time>
</trkpt>
<trkpt lat="46.0446540" lon="10.3796900">
	<ele>1483.80</ele>
	<time>2024-07-24T10:08:00.000Z</time>
</trkpt>
<trkpt lat="46.0446460" lon="10.3796720">
	<ele>1483.80</ele>
	<time>2024-07-24T10:08:01.000Z</time>
</trkpt>
<trkpt lat="46.0446400" lon="10.3796660">
	<ele>1483.80</ele>
	<time>2024-07-24T10:08:02.000Z</time>
</trkpt>
<trkpt lat="46.0446360" lon="10.3796650">
	<ele>1483.80</ele>
	<time>2024-07-24T10:08:03.000Z</time>
</trkpt>
<trkpt lat="46.0446250" lon="10.3796630">
	<ele>1483.40</ele>
	<time>2024-07-24T10:08:04.000Z</time>
</trkpt>
<trkpt lat="46.0446120" lon="10.3796620">
	<ele>1483.00</ele>
	<time>2024-07-24T10:08:05.000Z</time>
</trkpt>
<trkpt lat="46.0445980" lon="10.3796570">
	<ele>1482.60</ele>
	<time>2024-07-24T10:08:06.000Z</time>
</trkpt>
<trkpt lat="46.0445870" lon="10.3796530">
	<ele>1482.40</ele>
	<time>2024-07-24T10:08:07.000Z</time>
</trkpt>
<trkpt lat="46.0445760" lon="10.3796470">
	<ele>1482.00</ele>
	<time>2024-07-24T10:08:08.000Z</time>
</trkpt>
<trkpt lat="46.0445610" lon="10.3796420">
	<ele>1481.80</ele>
	<time>2024-07-24T10:08:09.000Z</time>
</trkpt>
<trkpt lat="46.0445460" lon="10.3796430">
	<ele>1481.60</ele>
	<time>2024-07-24T10:08:10.000Z</time>
</trkpt>
<trkpt lat="46.0445330" lon="10.3796440">
	<ele>1481.60</ele>
	<time>2024-07-24T10:08:11.000Z</time>
</trkpt>
<trkpt lat="46.0445210" lon="10.3796430">
	<ele>1481.40</ele>
	<time>2024-07-24T10:08:12.000Z</time>
</trkpt>
<trkpt lat="46.0445100" lon="10.3796430">
	<ele>1481.00</ele>
	<time>2024-07-24T10:08:13.000Z</time>
</trkpt>
<trkpt lat="46.0444990" lon="10.3796440">
	<ele>1480.80</ele>
	<time>2024-07-24T10:08:14.000Z</time>
</trkpt>
<trkpt lat="46.0444860" lon="10.3796370">
	<ele>1480.60</ele>
	<time>2024-07-24T10:08:15.000Z</time>
</trkpt>
<trkpt lat="46.0444740" lon="10.3796260">
	<ele>1480.60</ele>
	<time>2024-07-24T10:08:16.000Z</time>
</trkpt>
<trkpt lat="46.0444650" lon="10.3796170">
	<ele>1480.40</ele>
	<time>2024-07-24T10:08:17.000Z</time>
</trkpt>
<trkpt lat="46.0444520" lon="10.3796150">
	<ele>1480.40</ele>
	<time>2024-07-24T10:08:18.000Z</time>
</trkpt>
<trkpt lat="46.0444350" lon="10.3796110">
	<ele>1480.20</ele>
	<time>2024-07-24T10:08:19.000Z</time>
</trkpt>
<trkpt lat="46.0444200" lon="10.3796010">
	<ele>1480.00</ele>
	<time>2024-07-24T10:08:20.000Z</time>
</trkpt>
<trkpt lat="46.0444060" lon="10.3796000">
	<ele>1480.00</ele>
	<time>2024-07-24T10:08:21.000Z</time>
</trkpt>
<trkpt lat="46.0443940" lon="10.3796040">
	<ele>1479.80</ele>
	<time>2024-07-24T10:08:22.000Z</time>
</trkpt>
<trkpt lat="46.0443780" lon="10.3796070">
	<ele>1479.60</ele>
	<time>2024-07-24T10:08:23.000Z</time>
</trkpt>
<trkpt lat="46.0443640" lon="10.3796110">
	<ele>1479.40</ele>
	<time>2024-07-24T10:08:24.000Z</time>
</trkpt>
<trkpt lat="46.0443590" lon="10.3796140">
	<ele>1479.20</ele>
	<time>2024-07-24T10:08:25.000Z</time>
</trkpt>
<trkpt lat="46.0443480" lon="10.3796220">
	<ele>1479.00</ele>
	<time>2024-07-24T10:08:26.000Z</time>
</trkpt>
<trkpt lat="46.0443370" lon="10.3796330">
	<ele>1479.00</ele>
	<time>2024-07-24T10:08:27.000Z</time>
</trkpt>
<trkpt lat="46.0443230" lon="10.3796440">
	<ele>1478.80</ele>
	<time>2024-07-24T10:08:28.000Z</time>
</trkpt>
<trkpt lat="46.0443110" lon="10.3796490">
	<ele>1478.40</ele>
	<time>2024-07-24T10:08:29.000Z</time>
</trkpt>
<trkpt lat="46.0443020" lon="10.3796550">
	<ele>1478.20</ele>
	<time>2024-07-24T10:08:30.000Z</time>
</trkpt>
<trkpt lat="46.0442920" lon="10.3796650">
	<ele>1478.20</ele>
	<time>2024-07-24T10:08:31.000Z</time>
</trkpt>
<trkpt lat="46.0442770" lon="10.3796730">
	<ele>1478.00</ele>
	<time>2024-07-24T10:08:32.000Z</time>
</trkpt>
<trkpt lat="46.0442720" lon="10.3796770">
	<ele>1477.60</ele>
	<time>2024-07-24T10:08:33.000Z</time>
</trkpt>
<trkpt lat="46.0442670" lon="10.3796790">
	<ele>1477.40</ele>
	<time>2024-07-24T10:08:34.000Z</time>
</trkpt>
<trkpt lat="46.0442600" lon="10.3796820">
	<ele>1477.20</ele>
	<time>2024-07-24T10:08:35.000Z</time>
</trkpt>
<trkpt lat="46.0442510" lon="10.3796830">
	<ele>1476.80</ele>
	<time>2024-07-24T10:08:36.000Z</time>
</trkpt>
<trkpt lat="46.0442430" lon="10.3796850">
	<ele>1476.80</ele>
	<time>2024-07-24T10:08:37.000Z</time>
</trkpt>
<trkpt lat="46.0442380" lon="10.3796880">
	<ele>1476.60</ele>
	<time>2024-07-24T10:08:38.000Z</time>
</trkpt>
<trkpt lat="46.0442360" lon="10.3796910">
	<ele>1476.40</ele>
	<time>2024-07-24T10:08:39.000Z</time>
</trkpt>
<trkpt lat="46.0442340" lon="10.3796940">
	<ele>1476.00</ele>
	<time>2024-07-24T10:08:40.000Z</time>
</trkpt>
<trkpt lat="46.0442240" lon="10.3796960">
	<ele>1475.80</ele>
	<time>2024-07-24T10:08:41.000Z</time>
</trkpt>
<trkpt lat="46.0442140" lon="10.3797020">
	<ele>1475.60</ele>
	<time>2024-07-24T10:08:42.000Z</time>
</trkpt>
<trkpt lat="46.0442040" lon="10.3797040">
	<ele>1475.60</ele>
	<time>2024-07-24T10:08:43.000Z</time>
</trkpt>
<trkpt lat="46.0441930" lon="10.3796920">
	<ele>1475.40</ele>
	<time>2024-07-24T10:08:44.000Z</time>
</trkpt>
<trkpt lat="46.0441790" lon="10.3796860">
	<ele>1475.20</ele>
	<time>2024-07-24T10:08:45.000Z</time>
</trkpt>
<trkpt lat="46.0441670" lon="10.3796830">
	<ele>1475.00</ele>
	<time>2024-07-24T10:08:46.000Z</time>
</trkpt>
<trkpt lat="46.0441590" lon="10.3796750">
	<ele>1474.80</ele>
	<time>2024-07-24T10:08:47.000Z</time>
</trkpt>
<trkpt lat="46.0441460" lon="10.3796730">
	<ele>1474.60</ele>
	<time>2024-07-24T10:08:48.000Z</time>
</trkpt>
<trkpt lat="46.0441360" lon="10.3796710">
	<ele>1474.40</ele>
	<time>2024-07-24T10:08:49.000Z</time>
</trkpt>
<trkpt lat="46.0441220" lon="10.3796670">
	<ele>1474.20</ele>
	<time>2024-07-24T10:08:50.000Z</time>
</trkpt>
<trkpt lat="46.0441170" lon="10.3796640">
	<ele>1474.00</ele>
	<time>2024-07-24T10:08:51.000Z</time>
</trkpt>
<trkpt lat="46.0441140" lon="10.3796630">
	<ele>1473.80</ele>
	<time>2024-07-24T10:08:52.000Z</time>
</trkpt>
<trkpt lat="46.0441020" lon="10.3796660">
	<ele>1473.60</ele>
	<time>2024-07-24T10:08:53.000Z</time>
</trkpt>
<trkpt lat="46.0440830" lon="10.3796640">
	<ele>1473.60</ele>
	<time>2024-07-24T10:08:54.000Z</time>
</trkpt>
<trkpt lat="46.0440690" lon="10.3796650">
	<ele>1473.40</ele>
	<time>2024-07-24T10:08:55.000Z</time>
</trkpt>
<trkpt lat="46.0440550" lon="10.3796720">
	<ele>1473.00</ele>
	<time>2024-07-24T10:08:56.000Z</time>
</trkpt>
<trkpt lat="46.0440430" lon="10.3796750">
	<ele>1472.80</ele>
	<time>2024-07-24T10:08:57.000Z</time>
</trkpt>
<trkpt lat="46.0440300" lon="10.3796750">
	<ele>1472.40</ele>
	<time>2024-07-24T10:08:58.000Z</time>
</trkpt>
<trkpt lat="46.0440190" lon="10.3796690">
	<ele>1472.20</ele>
	<time>2024-07-24T10:08:59.000Z</time>
</trkpt>
<trkpt lat="46.0440070" lon="10.3796640">
	<ele>1472.00</ele>
	<time>2024-07-24T10:09:00.000Z</time>
</trkpt>
<trkpt lat="46.0439930" lon="10.3796640">
	<ele>1472.00</ele>
	<time>2024-07-24T10:09:01.000Z</time>
</trkpt>
<trkpt lat="46.0439800" lon="10.3796640">
	<ele>1471.80</ele>
	<time>2024-07-24T10:09:02.000Z</time>
</trkpt>
<trkpt lat="46.0439640" lon="10.3796620">
	<ele>1471.40</ele>
	<time>2024-07-24T10:09:03.000Z</time>
</trkpt>
<trkpt lat="46.0439470" lon="10.3796620">
	<ele>1471.20</ele>
	<time>2024-07-24T10:09:04.000Z</time>
</trkpt>
<trkpt lat="46.0439310" lon="10.3796600">
	<ele>1471.00</ele>
	<time>2024-07-24T10:09:05.000Z</time>
</trkpt>
<trkpt lat="46.0439150" lon="10.3796580">
	<ele>1470.80</ele>
	<time>2024-07-24T10:09:06.000Z</time>
</trkpt>
<trkpt lat="46.0439010" lon="10.3796610">
	<ele>1470.60</ele>
	<time>2024-07-24T10:09:07.000Z</time>
</trkpt>
<trkpt lat="46.0438850" lon="10.3796690">
	<ele>1470.20</ele>
	<time>2024-07-24T10:09:08.000Z</time>
</trkpt>
<trkpt lat="46.0438640" lon="10.3796720">
	<ele>1469.80</ele>
	<time>2024-07-24T10:09:09.000Z</time>
</trkpt>
<trkpt lat="46.0438460" lon="10.3796750">
	<ele>1469.60</ele>
	<time>2024-07-24T10:09:10.000Z</time>
</trkpt>
<trkpt lat="46.0438360" lon="10.3796800">
	<ele>1469.40</ele>
	<time>2024-07-24T10:09:11.000Z</time>
</trkpt>
<trkpt lat="46.0438290" lon="10.3796830">
	<ele>1469.20</ele>
	<time>2024-07-24T10:09:12.000Z</time>
</trkpt>
<trkpt lat="46.0438210" lon="10.3796820">
	<ele>1469.00</ele>
	<time>2024-07-24T10:09:13.000Z</time>
</trkpt>
<trkpt lat="46.0438090" lon="10.3796780">
	<ele>1468.80</ele>
	<time>2024-07-24T10:09:14.000Z</time>
</trkpt>
<trkpt lat="46.0437980" lon="10.3796760">
	<ele>1468.60</ele>
	<time>2024-07-24T10:09:15.000Z</time>
</trkpt>
<trkpt lat="46.0437840" lon="10.3796730">
	<ele>1468.20</ele>
	<time>2024-07-24T10:09:16.000Z</time>
</trkpt>
<trkpt lat="46.0437730" lon="10.3796700">
	<ele>1468.00</ele>
	<time>2024-07-24T10:09:17.000Z</time>
</trkpt>
<trkpt lat="46.0437630" lon="10.3796670">
	<ele>1467.80</ele>
	<time>2024-07-24T10:09:18.000Z</time>
</trkpt>
<trkpt lat="46.0437500" lon="10.3796630">
	<ele>1467.60</ele>
	<time>2024-07-24T10:09:19.000Z</time>
</trkpt>
<trkpt lat="46.0437360" lon="10.3796630">
	<ele>1467.20</ele>
	<time>2024-07-24T10:09:20.000Z</time>
</trkpt>
<trkpt lat="46.0437220" lon="10.3796630">
	<ele>1467.00</ele>
	<time>2024-07-24T10:09:21.000Z</time>
</trkpt>
<trkpt lat="46.0437120" lon="10.3796610">
	<ele>1466.80</ele>
	<time>2024-07-24T10:09:22.000Z</time>
</trkpt>
<trkpt lat="46.0436960" lon="10.3796530">
	<ele>1466.40</ele>
	<time>2024-07-24T10:09:23.000Z</time>
</trkpt>
<trkpt lat="46.0436830" lon="10.3796380">
	<ele>1466.20</ele>
	<time>2024-07-24T10:09:24.000Z</time>
</trkpt>
<trkpt lat="46.0436690" lon="10.3796250">
	<ele>1466.00</ele>
	<time>2024-07-24T10:09:25.000Z</time>
</trkpt>
<trkpt lat="46.0436590" lon="10.3796220">
	<ele>1466.00</ele>
	<time>2024-07-24T10:09:26.000Z</time>
</trkpt>
<trkpt lat="46.0436480" lon="10.3796220">
	<ele>1465.80</ele>
	<time>2024-07-24T10:09:27.000Z</time>
</trkpt>
<trkpt lat="46.0436330" lon="10.3796170">
	<ele>1465.60</ele>
	<time>2024-07-24T10:09:28.000Z</time>
</trkpt>
<trkpt lat="46.0436190" lon="10.3796090">
	<ele>1465.40</ele>
	<time>2024-07-24T10:09:29.000Z</time>
</trkpt>
<trkpt lat="46.0436050" lon="10.3796020">
	<ele>1465.20</ele>
	<time>2024-07-24T10:09:30.000Z</time>
</trkpt>
<trkpt lat="46.0435910" lon="10.3795990">
	<ele>1464.80</ele>
	<time>2024-07-24T10:09:31.000Z</time>
</trkpt>
<trkpt lat="46.0435770" lon="10.3796000">
	<ele>1464.60</ele>
	<time>2024-07-24T10:09:32.000Z</time>
</trkpt>
<trkpt lat="46.0435660" lon="10.3796000">
	<ele>1464.40</ele>
	<time>2024-07-24T10:09:33.000Z</time>
</trkpt>
<trkpt lat="46.0435510" lon="10.3795970">
	<ele>1464.00</ele>
	<time>2024-07-24T10:09:34.000Z</time>
</trkpt>
<trkpt lat="46.0435350" lon="10.3795950">
	<ele>1463.80</ele>
	<time>2024-07-24T10:09:35.000Z</time>
</trkpt>
<trkpt lat="46.0435170" lon="10.3795880">
	<ele>1463.40</ele>
	<time>2024-07-24T10:09:36.000Z</time>
</trkpt>
<trkpt lat="46.0435090" lon="10.3795870">
	<ele>1463.20</ele>
	<time>2024-07-24T10:09:37.000Z</time>
</trkpt>
<trkpt lat="46.0435000" lon="10.3795920">
	<ele>1462.80</ele>
	<time>2024-07-24T10:09:38.000Z</time>
</trkpt>
<trkpt lat="46.0434880" lon="10.3795940">
	<ele>1462.80</ele>
	<time>2024-07-24T10:09:39.000Z</time>
</trkpt>
<trkpt lat="46.0434770" lon="10.3795930">
	<ele>1462.40</ele>
	<time>2024-07-24T10:09:40.000Z</time>
</trkpt>
<trkpt lat="46.0434700" lon="10.3795910">
	<ele>1462.20</ele>
	<time>2024-07-24T10:09:41.000Z</time>
</trkpt>
<trkpt lat="46.0434640" lon="10.3795850">
	<ele>1462.00</ele>
	<time>2024-07-24T10:09:42.000Z</time>
</trkpt>
<trkpt lat="46.0434570" lon="10.3795850">
	<ele>1461.80</ele>
	<time>2024-07-24T10:09:43.000Z</time>
</trkpt>
<trkpt lat="46.0434480" lon="10.3795830">
	<ele>1461.80</ele>
	<time>2024-07-24T10:09:44.000Z</time>
</trkpt>
<trkpt lat="46.0434310" lon="10.3795760">
	<ele>1461.60</ele>
	<time>2024-07-24T10:09:45.000Z</time>
</trkpt>
<trkpt lat="46.0434150" lon="10.3795680">
	<ele>1461.40</ele>
	<time>2024-07-24T10:09:46.000Z</time>
</trkpt>
<trkpt lat="46.0434010" lon="10.3795650">
	<ele>1461.20</ele>
	<time>2024-07-24T10:09:47.000Z</time>
</trkpt>
<trkpt lat="46.0433860" lon="10.3795660">
	<ele>1461.00</ele>
	<time>2024-07-24T10:09:48.000Z</time>
</trkpt>
<trkpt lat="46.0433730" lon="10.3795680">
	<ele>1460.80</ele>
	<time>2024-07-24T10:09:49.000Z</time>
</trkpt>
<trkpt lat="46.0433620" lon="10.3795560">
	<ele>1460.60</ele>
	<time>2024-07-24T10:09:50.000Z</time>
</trkpt>
<trkpt lat="46.0433480" lon="10.3795400">
	<ele>1460.60</ele>
	<time>2024-07-24T10:09:51.000Z</time>
</trkpt>
<trkpt lat="46.0433340" lon="10.3795290">
	<ele>1460.40</ele>
	<time>2024-07-24T10:09:52.000Z</time>
</trkpt>
<trkpt lat="46.0433270" lon="10.3795280">
	<ele>1460.40</ele>
	<time>2024-07-24T10:09:53.000Z</time>
</trkpt>
<trkpt lat="46.0433170" lon="10.3795210">
	<ele>1460.40</ele>
	<time>2024-07-24T10:09:54.000Z</time>
</trkpt>
<trkpt lat="46.0432960" lon="10.3795080">
	<ele>1460.20</ele>
	<time>2024-07-24T10:09:55.000Z</time>
</trkpt>
<trkpt lat="46.0432750" lon="10.3795030">
	<ele>1460.20</ele>
	<time>2024-07-24T10:09:56.000Z</time>
</trkpt>
<trkpt lat="46.0432620" lon="10.3795060">
	<ele>1460.20</ele>
	<time>2024-07-24T10:09:57.000Z</time>
</trkpt>
<trkpt lat="46.0432490" lon="10.3795040">
	<ele>1460.00</ele>
	<time>2024-07-24T10:09:58.000Z</time>
</trkpt>
<trkpt lat="46.0432260" lon="10.3794990">
	<ele>1460.00</ele>
	<time>2024-07-24T10:09:59.000Z</time>
</trkpt>
<trkpt lat="46.0432050" lon="10.3794920">
	<ele>1459.80</ele>
	<time>2024-07-24T10:10:00.000Z</time>
</trkpt>
<trkpt lat="46.0431900" lon="10.3795000">
	<ele>1459.80</ele>
	<time>2024-07-24T10:10:01.000Z</time>
</trkpt>
<trkpt lat="46.0431820" lon="10.3795030">
	<ele>1459.80</ele>
	<time>2024-07-24T10:10:02.000Z</time>
</trkpt>
<trkpt lat="46.0431750" lon="10.3795070">
	<ele>1459.60</ele>
	<time>2024-07-24T10:10:03.000Z</time>
</trkpt>
<trkpt lat="46.0431620" lon="10.3795100">
	<ele>1459.60</ele>
	<time>2024-07-24T10:10:04.000Z</time>
</trkpt>
<trkpt lat="46.0431510" lon="10.3795160">
	<ele>1459.40</ele>
	<time>2024-07-24T10:10:05.000Z</time>
</trkpt>
<trkpt lat="46.0431370" lon="10.3795190">
	<ele>1459.40</ele>
	<time>2024-07-24T10:10:06.000Z</time>
</trkpt>
<trkpt lat="46.0431240" lon="10.3795330">
	<ele>1459.20</ele>
	<time>2024-07-24T10:10:07.000Z</time>
</trkpt>
<trkpt lat="46.0431150" lon="10.3795370">
	<ele>1459.00</ele>
	<time>2024-07-24T10:10:08.000Z</time>
</trkpt>
<trkpt lat="46.0431050" lon="10.3795330">
	<ele>1459.00</ele>
	<time>2024-07-24T10:10:09.000Z</time>
</trkpt>
<trkpt lat="46.0430970" lon="10.3795220">
	<ele>1459.00</ele>
	<time>2024-07-24T10:10:10.000Z</time>
</trkpt>
<trkpt lat="46.0430910" lon="10.3795220">
	<ele>1458.80</ele>
	<time>2024-07-24T10:10:11.000Z</time>
</trkpt>
<trkpt lat="46.0430840" lon="10.3795190">
	<ele>1458.60</ele>
	<time>2024-07-24T10:10:12.000Z</time>
</trkpt>
<trkpt lat="46.0430690" lon="10.3795080">
	<ele>1458.40</ele>
	<time>2024-07-24T10:10:13.000Z</time>
</trkpt>
<trkpt lat="46.0430540" lon="10.3794960">
	<ele>1458.00</ele>
	<time>2024-07-24T10:10:14.000Z</time>
</trkpt>
<trkpt lat="46.0430420" lon="10.3794840">
	<ele>1457.80</ele>
	<time>2024-07-24T10:10:15.000Z</time>
</trkpt>
<trkpt lat="46.0430310" lon="10.3794800">
	<ele>1457.60</ele>
	<time>2024-07-24T10:10:16.000Z</time>
</trkpt>
<trkpt lat="46.0430240" lon="10.3794780">
	<ele>1457.20</ele>
	<time>2024-07-24T10:10:17.000Z</time>
</trkpt>
<trkpt lat="46.0430150" lon="10.3794740">
	<ele>1457.00</ele>
	<time>2024-07-24T10:10:18.000Z</time>
</trkpt>
<trkpt lat="46.0430090" lon="10.3794760">
	<ele>1456.60</ele>
	<time>2024-07-24T10:10:19.000Z</time>
</trkpt>
<trkpt lat="46.0430000" lon="10.3794780">
	<ele>1456.40</ele>
	<time>2024-07-24T10:10:20.000Z</time>
</trkpt>
<trkpt lat="46.0429950" lon="10.3794750">
	<ele>1456.20</ele>
	<time>2024-07-24T10:10:21.000Z</time>
</trkpt>
<trkpt lat="46.0429900" lon="10.3794690">
	<ele>1456.00</ele>
	<time>2024-07-24T10:10:22.000Z</time>
</trkpt>
<trkpt lat="46.0429850" lon="10.3794660">
	<ele>1455.80</ele>
	<time>2024-07-24T10:10:23.000Z</time>
</trkpt>
<trkpt lat="46.0429780" lon="10.3794540">
	<ele>1455.60</ele>
	<time>2024-07-24T10:10:24.000Z</time>
</trkpt>
<trkpt lat="46.0429700" lon="10.3794520">
	<ele>1455.40</ele>
	<time>2024-07-24T10:10:25.000Z</time>
</trkpt>
<trkpt lat="46.0429610" lon="10.3794540">
	<ele>1455.20</ele>
	<time>2024-07-24T10:10:26.000Z</time>
</trkpt>
<trkpt lat="46.0429590" lon="10.3794570">
	<ele>1455.00</ele>
	<time>2024-07-24T10:10:27.000Z</time>
</trkpt>
<trkpt lat="46.0429580" lon="10.3794560">
	<ele>1455.00</ele>
	<time>2024-07-24T10:10:28.000Z</time>
</trkpt>
<trkpt lat="46.0429510" lon="10.3794460">
	<ele>1454.80</ele>
	<time>2024-07-24T10:10:29.000Z</time>
</trkpt>
<trkpt lat="46.0429420" lon="10.3794370">
	<ele>1454.60</ele>
	<time>2024-07-24T10:10:30.000Z</time>
</trkpt>
<trkpt lat="46.0429260" lon="10.3794290">
	<ele>1454.60</ele>
	<time>2024-07-24T10:10:31.000Z</time>
</trkpt>
<trkpt lat="46.0429130" lon="10.3794180">
	<ele>1454.40</ele>
	<time>2024-07-24T10:10:32.000Z</time>
</trkpt>
<trkpt lat="46.0429040" lon="10.3794050">
	<ele>1454.00</ele>
	<time>2024-07-24T10:10:33.000Z</time>
</trkpt>
<trkpt lat="46.0428980" lon="10.3793940">
	<ele>1453.80</ele>
	<time>2024-07-24T10:10:34.000Z</time>
</trkpt>
<trkpt lat="46.0428910" lon="10.3793900">
	<ele>1453.60</ele>
	<time>2024-07-24T10:10:35.000Z</time>
</trkpt>
<trkpt lat="46.0428840" lon="10.3793930">
	<ele>1453.40</ele>
	<time>2024-07-24T10:10:36.000Z</time>
</trkpt>
<trkpt lat="46.0428760" lon="10.3793940">
	<ele>1453.40</ele>
	<time>2024-07-24T10:10:37.000Z</time>
</trkpt>
<trkpt lat="46.0428730" lon="10.3793880">
	<ele>1453.20</ele>
	<time>2024-07-24T10:10:38.000Z</time>
</trkpt>
<trkpt lat="46.0428640" lon="10.3793790">
	<ele>1453.00</ele>
	<time>2024-07-24T10:10:39.000Z</time>
</trkpt>
<trkpt lat="46.0428550" lon="10.3793740">
	<ele>1452.80</ele>
	<time>2024-07-24T10:10:40.000Z</time>
</trkpt>
<trkpt lat="46.0428420" lon="10.3793680">
	<ele>1452.60</ele>
	<time>2024-07-24T10:10:41.000Z</time>
</trkpt>
<trkpt lat="46.0428330" lon="10.3793610">
	<ele>1452.60</ele>
	<time>2024-07-24T10:10:42.000Z</time>
</trkpt>
<trkpt lat="46.0428200" lon="10.3793500">
	<ele>1452.40</ele>
	<time>2024-07-24T10:10:43.000Z</time>
</trkpt>
<trkpt lat="46.0428090" lon="10.3793430">
	<ele>1452.00</ele>
	<time>2024-07-24T10:10:44.000Z</time>
</trkpt>
<trkpt lat="46.0427960" lon="10.3793380">
	<ele>1451.80</ele>
	<time>2024-07-24T10:10:45.000Z</time>
</trkpt>
<trkpt lat="46.0427860" lon="10.3793380">
	<ele>1451.60</ele>
	<time>2024-07-24T10:10:46.000Z</time>
</trkpt>
<trkpt lat="46.0427710" lon="10.3793290">
	<ele>1451.40</ele>
	<time>2024-07-24T10:10:47.000Z</time>
</trkpt>
<trkpt lat="46.0427530" lon="10.3793170">
	<ele>1451.00</ele>
	<time>2024-07-24T10:10:48.000Z</time>
</trkpt>
<trkpt lat="46.0427340" lon="10.3793090">
	<ele>1451.00</ele>
	<time>2024-07-24T10:10:49.000Z</time>
</trkpt>
<trkpt lat="46.0427180" lon="10.3793010">
	<ele>1450.80</ele>
	<time>2024-07-24T10:10:50.000Z</time>
</trkpt>
<trkpt lat="46.0427020" lon="10.3792930">
	<ele>1450.60</ele>
	<time>2024-07-24T10:10:51.000Z</time>
</trkpt>
<trkpt lat="46.0426860" lon="10.3792860">
	<ele>1450.40</ele>
	<time>2024-07-24T10:10:52.000Z</time>
</trkpt>
<trkpt lat="46.0426710" lon="10.3792810">
	<ele>1450.20</ele>
	<time>2024-07-24T10:10:53.000Z</time>
</trkpt>
<trkpt lat="46.0426530" lon="10.3792700">
	<ele>1450.00</ele>
	<time>2024-07-24T10:10:54.000Z</time>
</trkpt>
<trkpt lat="46.0426350" lon="10.3792550">
	<ele>1449.80</ele>
	<time>2024-07-24T10:10:55.000Z</time>
</trkpt>
<trkpt lat="46.0426240" lon="10.3792520">
	<ele>1449.60</ele>
	<time>2024-07-24T10:10:56.000Z</time>
</trkpt>
<trkpt lat="46.0426120" lon="10.3792530">
	<ele>1449.40</ele>
	<time>2024-07-24T10:10:57.000Z</time>
</trkpt>
<trkpt lat="46.0425970" lon="10.3792450">
	<ele>1449.20</ele>
	<time>2024-07-24T10:10:58.000Z</time>
</trkpt>
<trkpt lat="46.0425780" lon="10.3792340">
	<ele>1449.00</ele>
	<time>2024-07-24T10:10:59.000Z</time>
</trkpt>
<trkpt lat="46.0425660" lon="10.3792310">
	<ele>1448.80</ele>
	<time>2024-07-24T10:11:00.000Z</time>
</trkpt>
<trkpt lat="46.0425510" lon="10.3792350">
	<ele>1448.60</ele>
	<time>2024-07-24T10:11:01.000Z</time>
</trkpt>
<trkpt lat="46.0425410" lon="10.3792380">
	<ele>1448.40</ele>
	<time>2024-07-24T10:11:02.000Z</time>
</trkpt>
<trkpt lat="46.0425320" lon="10.3792390">
	<ele>1448.20</ele>
	<time>2024-07-24T10:11:03.000Z</time>
</trkpt>
<trkpt lat="46.0425220" lon="10.3792410">
	<ele>1448.00</ele>
	<time>2024-07-24T10:11:04.000Z</time>
</trkpt>
<trkpt lat="46.0425130" lon="10.3792430">
	<ele>1448.00</ele>
	<time>2024-07-24T10:11:05.000Z</time>
</trkpt>
<trkpt lat="46.0425040" lon="10.3792430">
	<ele>1448.00</ele>
	<time>2024-07-24T10:11:06.000Z</time>
</trkpt>
<trkpt lat="46.0424980" lon="10.3792470">
	<ele>1447.60</ele>
	<time>2024-07-24T10:11:07.000Z</time>
</trkpt>
<trkpt lat="46.0424930" lon="10.3792500">
	<ele>1447.20</ele>
	<time>2024-07-24T10:11:08.000Z</time>
</trkpt>
<trkpt lat="46.0424860" lon="10.3792450">
	<ele>1447.00</ele>
	<time>2024-07-24T10:11:09.000Z</time>
</trkpt>
<trkpt lat="46.0424790" lon="10.3792310">
	<ele>1446.80</ele>
	<time>2024-07-24T10:11:10.000Z</time>
</trkpt>
<trkpt lat="46.0424670" lon="10.3792200">
	<ele>1446.60</ele>
	<time>2024-07-24T10:11:11.000Z</time>
</trkpt>
<trkpt lat="46.0424520" lon="10.3792110">
	<ele>1446.40</ele>
	<time>2024-07-24T10:11:12.000Z</time>
</trkpt>
<trkpt lat="46.0424380" lon="10.3792020">
	<ele>1446.20</ele>
	<time>2024-07-24T10:11:13.000Z</time>
</trkpt>
<trkpt lat="46.0424230" lon="10.3791840">
	<ele>1446.00</ele>
	<time>2024-07-24T10:11:14.000Z</time>
</trkpt>
<trkpt lat="46.0424150" lon="10.3791730">
	<ele>1445.80</ele>
	<time>2024-07-24T10:11:15.000Z</time>
</trkpt>
<trkpt lat="46.0424030" lon="10.3791630">
	<ele>1445.60</ele>
	<time>2024-07-24T10:11:16.000Z</time>
</trkpt>
<trkpt lat="46.0423930" lon="10.3791530">
	<ele>1445.40</ele>
	<time>2024-07-24T10:11:17.000Z</time>
</trkpt>
<trkpt lat="46.0423800" lon="10.3791420">
	<ele>1445.20</ele>
	<time>2024-07-24T10:11:18.000Z</time>
</trkpt>
<trkpt lat="46.0423740" lon="10.3791210">
	<ele>1445.00</ele>
	<time>2024-07-24T10:11:19.000Z</time>
</trkpt>
<trkpt lat="46.0423650" lon="10.3791080">
	<ele>1444.80</ele>
	<time>2024-07-24T10:11:20.000Z</time>
</trkpt>
<trkpt lat="46.0423620" lon="10.3791010">
	<ele>1444.80</ele>
	<time>2024-07-24T10:11:21.000Z</time>
</trkpt>
<trkpt lat="46.0423600" lon="10.3791010">
	<ele>1444.40</ele>
	<time>2024-07-24T10:11:22.000Z</time>
</trkpt>
<trkpt lat="46.0423630" lon="10.3791100">
	<ele>1444.40</ele>
	<time>2024-07-24T10:11:23.000Z</time>
</trkpt>
<trkpt lat="46.0423670" lon="10.3791060">
	<ele>1444.20</ele>
	<time>2024-07-24T10:11:24.000Z</time>
</trkpt>
<trkpt lat="46.0423720" lon="10.3791020">
	<ele>1444.20</ele>
	<time>2024-07-24T10:11:25.000Z</time>
</trkpt>
<trkpt lat="46.0423700" lon="10.3791030">
	<ele>1444.00</ele>
	<time>2024-07-24T10:11:26.000Z</time>
</trkpt>
<trkpt lat="46.0423710" lon="10.3791040">
	<ele>1444.00</ele>
	<time>2024-07-24T10:11:27.000Z</time>
</trkpt>
<trkpt lat="46.0423770" lon="10.3791030">
	<ele>1444.20</ele>
	<time>2024-07-24T10:11:28.000Z</time>
</trkpt>
<trkpt lat="46.0423820" lon="10.3791080">
	<ele>1444.20</ele>
	<time>2024-07-24T10:11:29.000Z</time>
</trkpt>
<trkpt lat="46.0423850" lon="10.3791100">
	<ele>1444.40</ele>
	<time>2024-07-24T10:11:30.000Z</time>
</trkpt>
<trkpt lat="46.0423870" lon="10.3791140">
	<ele>1444.60</ele>
	<time>2024-07-24T10:11:31.000Z</time>
</trkpt>
<trkpt lat="46.0423860" lon="10.3791170">
	<ele>1444.60</ele>
	<time>2024-07-24T10:11:32.000Z</time>
</trkpt>
<trkpt lat="46.0423860" lon="10.3791170">
	<ele>1444.80</ele>
	<time>2024-07-24T10:11:33.000Z</time>
</trkpt>
<trkpt lat="46.0423850" lon="10.3791200">
	<ele>1444.80</ele>
	<time>2024-07-24T10:11:34.000Z</time>
</trkpt>
<trkpt lat="46.0423800" lon="10.3791200">
	<ele>1444.60</ele>
	<time>2024-07-24T10:11:35.000Z</time>
</trkpt>
<trkpt lat="46.0423810" lon="10.3791230">
	<ele>1444.60</ele>
	<time>2024-07-24T10:11:36.000Z</time>
</trkpt>
<trkpt lat="46.0423810" lon="10.3791250">
	<ele>1444.40</ele>
	<time>2024-07-24T10:11:37.000Z</time>
</trkpt>
<trkpt lat="46.0423810" lon="10.3791230">
	<ele>1444.40</ele>
	<time>2024-07-24T10:11:38.000Z</time>
</trkpt>
<trkpt lat="46.0423810" lon="10.3791220">
	<ele>1444.20</ele>
	<time>2024-07-24T10:11:39.000Z</time>
</trkpt>
<trkpt lat="46.0423840" lon="10.3791170">
	<ele>1444.20</ele>
	<time>2024-07-24T10:11:40.000Z</time>
</trkpt>
<trkpt lat="46.0423770" lon="10.3791250">
	<ele>1444.20</ele>
	<time>2024-07-24T10:11:41.000Z</time>
</trkpt>
<trkpt lat="46.0423780" lon="10.3791280">
	<ele>1444.20</ele>
	<time>2024-07-24T10:11:42.000Z</time>
</trkpt>
<trkpt lat="46.0423770" lon="10.3791240">
	<ele>1444.20</ele>
	<time>2024-07-24T10:11:43.000Z</time>
</trkpt>
<trkpt lat="46.0423760" lon="10.3791270">
	<ele>1444.20</ele>
	<time>2024-07-24T10:11:44.000Z</time>
</trkpt>
<trkpt lat="46.0423740" lon="10.3791260">
	<ele>1444.20</ele>
	<time>2024-07-24T10:11:45.000Z</time>
</trkpt>
<trkpt lat="46.0423720" lon="10.3791290">
	<ele>1444.20</ele>
	<time>2024-07-24T10:11:46.000Z</time>
</trkpt>
<trkpt lat="46.0423660" lon="10.3791280">
	<ele>1444.20</ele>
	<time>2024-07-24T10:11:47.000Z</time>
</trkpt>
<trkpt lat="46.0423600" lon="10.3791340">
	<ele>1444.20</ele>
	<time>2024-07-24T10:11:48.000Z</time>
</trkpt>
<trkpt lat="46.0423530" lon="10.3791310">
	<ele>1444.20</ele>
	<time>2024-07-24T10:11:49.000Z</time>
</trkpt>
<trkpt lat="46.0423460" lon="10.3791210">
	<ele>1444.20</ele>
	<time>2024-07-24T10:11:50.000Z</time>
</trkpt>
<trkpt lat="46.0423440" lon="10.3791070">
	<ele>1444.00</ele>
	<time>2024-07-24T10:11:51.000Z</time>
</trkpt>
<trkpt lat="46.0423410" lon="10.3790900">
	<ele>1444.00</ele>
	<time>2024-07-24T10:11:52.000Z</time>
</trkpt>
<trkpt lat="46.0423370" lon="10.3790740">
	<ele>1443.80</ele>
	<time>2024-07-24T10:11:53.000Z</time>
</trkpt>
<trkpt lat="46.0423340" lon="10.3790570">
	<ele>1443.80</ele>
	<time>2024-07-24T10:11:54.000Z</time>
</trkpt>
<trkpt lat="46.0423340" lon="10.3790400">
	<ele>1443.60</ele>
	<time>2024-07-24T10:11:55.000Z</time>
</trkpt>
<trkpt lat="46.0423340" lon="10.3790200">
	<ele>1443.60</ele>
	<time>2024-07-24T10:11:56.000Z</time>
</trkpt>
<trkpt lat="46.0423320" lon="10.3790050">
	<ele>1443.40</ele>
	<time>2024-07-24T10:11:57.000Z</time>
</trkpt>
<trkpt lat="46.0423280" lon="10.3789960">
	<ele>1443.00</ele>
	<time>2024-07-24T10:11:58.000Z</time>
</trkpt>
<trkpt lat="46.0423190" lon="10.3789930">
	<ele>1442.80</ele>
	<time>2024-07-24T10:11:59.000Z</time>
</trkpt>
<trkpt lat="46.0423130" lon="10.3789900">
	<ele>1442.40</ele>
	<time>2024-07-24T10:12:00.000Z</time>
</trkpt>
<trkpt lat="46.0423040" lon="10.3789870">
	<ele>1442.40</ele>
	<time>2024-07-24T10:12:01.000Z</time>
</trkpt>
<trkpt lat="46.0422990" lon="10.3789870">
	<ele>1442.20</ele>
	<time>2024-07-24T10:12:02.000Z</time>
</trkpt>
<trkpt lat="46.0423000" lon="10.3789770">
	<ele>1441.80</ele>
	<time>2024-07-24T10:12:03.000Z</time>
</trkpt>
<trkpt lat="46.0422980" lon="10.3789680">
	<ele>1441.60</ele>
	<time>2024-07-24T10:12:04.000Z</time>
</trkpt>
<trkpt lat="46.0422920" lon="10.3789660">
	<ele>1441.40</ele>
	<time>2024-07-24T10:12:05.000Z</time>
</trkpt>
<trkpt lat="46.0422900" lon="10.3789580">
	<ele>1441.00</ele>
	<time>2024-07-24T10:12:06.000Z</time>
</trkpt>
<trkpt lat="46.0422870" lon="10.3789470">
	<ele>1440.80</ele>
	<time>2024-07-24T10:12:07.000Z</time>
</trkpt>
<trkpt lat="46.0422890" lon="10.3789340">
	<ele>1440.60</ele>
	<time>2024-07-24T10:12:08.000Z</time>
</trkpt>
<trkpt lat="46.0422880" lon="10.3789230">
	<ele>1440.60</ele>
	<time>2024-07-24T10:12:09.000Z</time>
</trkpt>
<trkpt lat="46.0422810" lon="10.3789140">
	<ele>1440.40</ele>
	<time>2024-07-24T10:12:10.000Z</time>
</trkpt>
<trkpt lat="46.0422730" lon="10.3789050">
	<ele>1440.20</ele>
	<time>2024-07-24T10:12:11.000Z</time>
</trkpt>
<trkpt lat="46.0422690" lon="10.3788890">
	<ele>1440.00</ele>
	<time>2024-07-24T10:12:12.000Z</time>
</trkpt>
<trkpt lat="46.0422630" lon="10.3788720">
	<ele>1439.80</ele>
	<time>2024-07-24T10:12:13.000Z</time>
</trkpt>
<trkpt lat="46.0422600" lon="10.3788580">
	<ele>1439.60</ele>
	<time>2024-07-24T10:12:14.000Z</time>
</trkpt>
<trkpt lat="46.0422540" lon="10.3788440">
	<ele>1439.40</ele>
	<time>2024-07-24T10:12:15.000Z</time>
</trkpt>
<trkpt lat="46.0422420" lon="10.3788270">
	<ele>1439.40</ele>
	<time>2024-07-24T10:12:16.000Z</time>
</trkpt>
<trkpt lat="46.0422220" lon="10.3788130">
	<ele>1439.40</ele>
	<time>2024-07-24T10:12:17.000Z</time>
</trkpt>
<trkpt lat="46.0422110" lon="10.3787940">
	<ele>1439.20</ele>
	<time>2024-07-24T10:12:18.000Z</time>
</trkpt>
<trkpt lat="46.0422090" lon="10.3787730">
	<ele>1439.20</ele>
	<time>2024-07-24T10:12:19.000Z</time>
</trkpt>
<trkpt lat="46.0422130" lon="10.3787550">
	<ele>1439.00</ele>
	<time>2024-07-24T10:12:20.000Z</time>
</trkpt>
<trkpt lat="46.0422180" lon="10.3787250">
	<ele>1439.00</ele>
	<time>2024-07-24T10:12:21.000Z</time>
</trkpt>
<trkpt lat="46.0422200" lon="10.3787040">
	<ele>1438.80</ele>
	<time>2024-07-24T10:12:22.000Z</time>
</trkpt>
<trkpt lat="46.0422150" lon="10.3786890">
	<ele>1438.80</ele>
	<time>2024-07-24T10:12:23.000Z</time>
</trkpt>
<trkpt lat="46.0422100" lon="10.3786750">
	<ele>1438.60</ele>
	<time>2024-07-24T10:12:24.000Z</time>
</trkpt>
<trkpt lat="46.0422050" lon="10.3786630">
	<ele>1438.40</ele>
	<time>2024-07-24T10:12:25.000Z</time>
</trkpt>
<trkpt lat="46.0422020" lon="10.3786510">
	<ele>1438.40</ele>
	<time>2024-07-24T10:12:26.000Z</time>
</trkpt>
<trkpt lat="46.0422000" lon="10.3786410">
	<ele>1438.40</ele>
	<time>2024-07-24T10:12:27.000Z</time>
</trkpt>
<trkpt lat="46.0421950" lon="10.3786330">
	<ele>1438.20</ele>
	<time>2024-07-24T10:12:28.000Z</time>
</trkpt>
<trkpt lat="46.0421890" lon="10.3786250">
	<ele>1438.20</ele>
	<time>2024-07-24T10:12:29.000Z</time>
</trkpt>
<trkpt lat="46.0421820" lon="10.3786150">
	<ele>1438.00</ele>
	<time>2024-07-24T10:12:30.000Z</time>
</trkpt>
<trkpt lat="46.0421740" lon="10.3786060">
	<ele>1438.00</ele>
	<time>2024-07-24T10:12:31.000Z</time>
</trkpt>
<trkpt lat="46.0421650" lon="10.3785940">
	<ele>1438.00</ele>
	<time>2024-07-24T10:12:32.000Z</time>
</trkpt>
<trkpt lat="46.0421570" lon="10.3785850">
	<ele>1437.80</ele>
	<time>2024-07-24T10:12:33.000Z</time>
</trkpt>
<trkpt lat="46.0421530" lon="10.3785780">
	<ele>1437.80</ele>
	<time>2024-07-24T10:12:34.000Z</time>
</trkpt>
<trkpt lat="46.0421510" lon="10.3785750">
	<ele>1437.80</ele>
	<time>2024-07-24T10:12:35.000Z</time>
</trkpt>
<trkpt lat="46.0421470" lon="10.3785700">
	<ele>1437.80</ele>
	<time>2024-07-24T10:12:36.000Z</time>
</trkpt>
<trkpt lat="46.0421400" lon="10.3785640">
	<ele>1437.60</ele>
	<time>2024-07-24T10:12:37.000Z</time>
</trkpt>
<trkpt lat="46.0421320" lon="10.3785520">
	<ele>1437.60</ele>
	<time>2024-07-24T10:12:38.000Z</time>
</trkpt>
<trkpt lat="46.0421220" lon="10.3785340">
	<ele>1437.40</ele>
	<time>2024-07-24T10:12:39.000Z</time>
</trkpt>
<trkpt lat="46.0421130" lon="10.3785140">
	<ele>1437.20</ele>
	<time>2024-07-24T10:12:40.000Z</time>
</trkpt>
<trkpt lat="46.0421050" lon="10.3784990">
	<ele>1437.20</ele>
	<time>2024-07-24T10:12:41.000Z</time>
</trkpt>
<trkpt lat="46.0420980" lon="10.3784940">
	<ele>1437.00</ele>
	<time>2024-07-24T10:12:42.000Z</time>
</trkpt>
<trkpt lat="46.0420920" lon="10.3784860">
	<ele>1436.80</ele>
	<time>2024-07-24T10:12:43.000Z</time>
</trkpt>
<trkpt lat="46.0420840" lon="10.3784800">
	<ele>1436.80</ele>
	<time>2024-07-24T10:12:44.000Z</time>
</trkpt>
<trkpt lat="46.0420700" lon="10.3784710">
	<ele>1436.60</ele>
	<time>2024-07-24T10:12:45.000Z</time>
</trkpt>
<trkpt lat="46.0420570" lon="10.3784560">
	<ele>1436.40</ele>
	<time>2024-07-24T10:12:46.000Z</time>
</trkpt>
<trkpt lat="46.0420430" lon="10.3784490">
	<ele>1436.20</ele>
	<time>2024-07-24T10:12:47.000Z</time>
</trkpt>
<trkpt lat="46.0420240" lon="10.3784470">
	<ele>1436.00</ele>
	<time>2024-07-24T10:12:48.000Z</time>
</trkpt>
<trkpt lat="46.0420060" lon="10.3784390">
	<ele>1435.80</ele>
	<time>2024-07-24T10:12:49.000Z</time>
</trkpt>
<trkpt lat="46.0419860" lon="10.3784240">
	<ele>1435.60</ele>
	<time>2024-07-24T10:12:50.000Z</time>
</trkpt>
<trkpt lat="46.0419700" lon="10.3784060">
	<ele>1435.60</ele>
	<time>2024-07-24T10:12:51.000Z</time>
</trkpt>
<trkpt lat="46.0419610" lon="10.3783960">
	<ele>1435.40</ele>
	<time>2024-07-24T10:12:52.000Z</time>
</trkpt>
<trkpt lat="46.0419510" lon="10.3783880">
	<ele>1435.20</ele>
	<time>2024-07-24T10:12:53.000Z</time>
</trkpt>
<trkpt lat="46.0419390" lon="10.3783770">
	<ele>1435.00</ele>
	<time>2024-07-24T10:12:54.000Z</time>
</trkpt>
<trkpt lat="46.0419280" lon="10.3783650">
	<ele>1434.80</ele>
	<time>2024-07-24T10:12:55.000Z</time>
</trkpt>
<trkpt lat="46.0419150" lon="10.3783520">
	<ele>1434.60</ele>
	<time>2024-07-24T10:12:56.000Z</time>
</trkpt>
<trkpt lat="46.0419010" lon="10.3783450">
	<ele>1434.40</ele>
	<time>2024-07-24T10:12:57.000Z</time>
</trkpt>
<trkpt lat="46.0418900" lon="10.3783460">
	<ele>1434.40</ele>
	<time>2024-07-24T10:12:58.000Z</time>
</trkpt>
<trkpt lat="46.0418810" lon="10.3783460">
	<ele>1434.20</ele>
	<time>2024-07-24T10:12:59.000Z</time>
</trkpt>
<trkpt lat="46.0418670" lon="10.3783530">
	<ele>1434.20</ele>
	<time>2024-07-24T10:13:00.000Z</time>
</trkpt>
<trkpt lat="46.0418510" lon="10.3783540">
	<ele>1434.00</ele>
	<time>2024-07-24T10:13:01.000Z</time>
</trkpt>
<trkpt lat="46.0418330" lon="10.3783570">
	<ele>1433.80</ele>
	<time>2024-07-24T10:13:02.000Z</time>
</trkpt>
<trkpt lat="46.0418220" lon="10.3783580">
	<ele>1433.80</ele>
	<time>2024-07-24T10:13:03.000Z</time>
</trkpt>
<trkpt lat="46.0418160" lon="10.3783490">
	<ele>1433.60</ele>
	<time>2024-07-24T10:13:04.000Z</time>
</trkpt>
<trkpt lat="46.0418130" lon="10.3783450">
	<ele>1433.40</ele>
	<time>2024-07-24T10:13:05.000Z</time>
</trkpt>
<trkpt lat="46.0418110" lon="10.3783270">
	<ele>1433.20</ele>
	<time>2024-07-24T10:13:06.000Z</time>
</trkpt>
<trkpt lat="46.0418050" lon="10.3783230">
	<ele>1432.80</ele>
	<time>2024-07-24T10:13:07.000Z</time>
</trkpt>
<trkpt lat="46.0417960" lon="10.3783090">
	<ele>1432.60</ele>
	<time>2024-07-24T10:13:08.000Z</time>
</trkpt>
<trkpt lat="46.0417890" lon="10.3783040">
	<ele>1432.40</ele>
	<time>2024-07-24T10:13:09.000Z</time>
</trkpt>
<trkpt lat="46.0417790" lon="10.3782990">
	<ele>1432.20</ele>
	<time>2024-07-24T10:13:10.000Z</time>
</trkpt>
<trkpt lat="46.0417670" lon="10.3782910">
	<ele>1432.00</ele>
	<time>2024-07-24T10:13:11.000Z</time>
</trkpt>
<trkpt lat="46.0417580" lon="10.3782910">
	<ele>1431.80</ele>
	<time>2024-07-24T10:13:12.000Z</time>
</trkpt>
<trkpt lat="46.0417550" lon="10.3782960">
	<ele>1431.80</ele>
	<time>2024-07-24T10:13:13.000Z</time>
</trkpt>
<trkpt lat="46.0417470" lon="10.3782970">
	<ele>1431.80</ele>
	<time>2024-07-24T10:13:14.000Z</time>
</trkpt>
<trkpt lat="46.0417420" lon="10.3782930">
	<ele>1431.40</ele>
	<time>2024-07-24T10:13:15.000Z</time>
</trkpt>
<trkpt lat="46.0417340" lon="10.3782910">
	<ele>1431.00</ele>
	<time>2024-07-24T10:13:16.000Z</time>
</trkpt>
<trkpt lat="46.0417310" lon="10.3782870">
	<ele>1430.80</ele>
	<time>2024-07-24T10:13:17.000Z</time>
</trkpt>
<trkpt lat="46.0417260" lon="10.3782820">
	<ele>1430.60</ele>
	<time>2024-07-24T10:13:18.000Z</time>
</trkpt>
<trkpt lat="46.0417190" lon="10.3782710">
	<ele>1430.40</ele>
	<time>2024-07-24T10:13:19.000Z</time>
</trkpt>
<trkpt lat="46.0417100" lon="10.3782560">
	<ele>1430.20</ele>
	<time>2024-07-24T10:13:20.000Z</time>
</trkpt>
<trkpt lat="46.0416970" lon="10.3782380">
	<ele>1430.00</ele>
	<time>2024-07-24T10:13:21.000Z</time>
</trkpt>
<trkpt lat="46.0416860" lon="10.3782330">
	<ele>1429.80</ele>
	<time>2024-07-24T10:13:22.000Z</time>
</trkpt>
<trkpt lat="46.0416780" lon="10.3782270">
	<ele>1429.40</ele>
	<time>2024-07-24T10:13:23.000Z</time>
</trkpt>
<trkpt lat="46.0416680" lon="10.3782230">
	<ele>1429.20</ele>
	<time>2024-07-24T10:13:24.000Z</time>
</trkpt>
<trkpt lat="46.0416590" lon="10.3782210">
	<ele>1429.00</ele>
	<time>2024-07-24T10:13:25.000Z</time>
</trkpt>
<trkpt lat="46.0416470" lon="10.3782210">
	<ele>1428.80</ele>
	<time>2024-07-24T10:13:26.000Z</time>
</trkpt>
<trkpt lat="46.0416330" lon="10.3782190">
	<ele>1428.60</ele>
	<time>2024-07-24T10:13:27.000Z</time>
</trkpt>
<trkpt lat="46.0416290" lon="10.3782210">
	<ele>1428.40</ele>
	<time>2024-07-24T10:13:28.000Z</time>
</trkpt>
<trkpt lat="46.0416170" lon="10.3782170">
	<ele>1428.20</ele>
	<time>2024-07-24T10:13:29.000Z</time>
</trkpt>
<trkpt lat="46.0416000" lon="10.3782170">
	<ele>1428.00</ele>
	<time>2024-07-24T10:13:30.000Z</time>
</trkpt>
<trkpt lat="46.0415810" lon="10.3782070">
	<ele>1427.80</ele>
	<time>2024-07-24T10:13:31.000Z</time>
</trkpt>
<trkpt lat="46.0415630" lon="10.3781990">
	<ele>1427.60</ele>
	<time>2024-07-24T10:13:32.000Z</time>
</trkpt>
<trkpt lat="46.0415470" lon="10.3781930">
	<ele>1427.20</ele>
	<time>2024-07-24T10:13:33.000Z</time>
</trkpt>
<trkpt lat="46.0415320" lon="10.3781840">
	<ele>1427.20</ele>
	<time>2024-07-24T10:13:34.000Z</time>
</trkpt>
<trkpt lat="46.0415150" lon="10.3781730">
	<ele>1427.00</ele>
	<time>2024-07-24T10:13:35.000Z</time>
</trkpt>
<trkpt lat="46.0415000" lon="10.3781610">
	<ele>1426.80</ele>
	<time>2024-07-24T10:13:36.000Z</time>
</trkpt>
<trkpt lat="46.0414910" lon="10.3781570">
	<ele>1426.60</ele>
	<time>2024-07-24T10:13:37.000Z</time>
</trkpt>
<trkpt lat="46.0414800" lon="10.3781540">
	<ele>1426.40</ele>
	<time>2024-07-24T10:13:38.000Z</time>
</trkpt>
<trkpt lat="46.0414690" lon="10.3781490">
	<ele>1426.00</ele>
	<time>2024-07-24T10:13:39.000Z</time>
</trkpt>
<trkpt lat="46.0414590" lon="10.3781440">
	<ele>1425.80</ele>
	<time>2024-07-24T10:13:40.000Z</time>
</trkpt>
<trkpt lat="46.0414560" lon="10.3781430">
	<ele>1425.60</ele>
	<time>2024-07-24T10:13:41.000Z</time>
</trkpt>
<trkpt lat="46.0414550" lon="10.3781430">
	<ele>1425.40</ele>
	<time>2024-07-24T10:13:42.000Z</time>
</trkpt>
<trkpt lat="46.0414520" lon="10.3781420">
	<ele>1425.40</ele>
	<time>2024-07-24T10:13:43.000Z</time>
</trkpt>
<trkpt lat="46.0414580" lon="10.3781480">
	<ele>1425.40</ele>
	<time>2024-07-24T10:13:44.000Z</time>
</trkpt>
<trkpt lat="46.0414610" lon="10.3781580">
	<ele>1425.20</ele>
	<time>2024-07-24T10:13:45.000Z</time>
</trkpt>
<trkpt lat="46.0414620" lon="10.3781630">
	<ele>1425.20</ele>
	<time>2024-07-24T10:13:46.000Z</time>
</trkpt>
<trkpt lat="46.0414610" lon="10.3781630">
	<ele>1425.00</ele>
	<time>2024-07-24T10:13:47.000Z</time>
</trkpt>
<trkpt lat="46.0414610" lon="10.3781610">
	<ele>1425.00</ele>
	<time>2024-07-24T10:13:48.000Z</time>
</trkpt>
<trkpt lat="46.0414610" lon="10.3781510">
	<ele>1425.00</ele>
	<time>2024-07-24T10:13:49.000Z</time>
</trkpt>
<trkpt lat="46.0414630" lon="10.3781500">
	<ele>1425.00</ele>
	<time>2024-07-24T10:13:50.000Z</time>
</trkpt>
<trkpt lat="46.0414640" lon="10.3781500">
	<ele>1425.00</ele>
	<time>2024-07-24T10:13:51.000Z</time>
</trkpt>
<trkpt lat="46.0414640" lon="10.3781490">
	<ele>1424.80</ele>
	<time>2024-07-24T10:13:52.000Z</time>
</trkpt>
<trkpt lat="46.0414650" lon="10.3781500">
	<ele>1425.00</ele>
	<time>2024-07-24T10:13:53.000Z</time>
</trkpt>
<trkpt lat="46.0414620" lon="10.3781540">
	<ele>1425.00</ele>
	<time>2024-07-24T10:13:54.000Z</time>
</trkpt>
<trkpt lat="46.0414610" lon="10.3781570">
	<ele>1425.00</ele>
	<time>2024-07-24T10:13:55.000Z</time>
</trkpt>
<trkpt lat="46.0414630" lon="10.3781590">
	<ele>1425.00</ele>
	<time>2024-07-24T10:13:56.000Z</time>
</trkpt>
<trkpt lat="46.0414740" lon="10.3781530">
	<ele>1424.80</ele>
	<time>2024-07-24T10:13:57.000Z</time>
</trkpt>
<trkpt lat="46.0414790" lon="10.3781490">
	<ele>1424.80</ele>
	<time>2024-07-24T10:13:58.000Z</time>
</trkpt>
<trkpt lat="46.0414810" lon="10.3781490">
	<ele>1425.00</ele>
	<time>2024-07-24T10:13:59.000Z</time>
</trkpt>
<trkpt lat="46.0414780" lon="10.3781480">
	<ele>1424.80</ele>
	<time>2024-07-24T10:14:00.000Z</time>
</trkpt>
<trkpt lat="46.0414780" lon="10.3781470">
	<ele>1424.80</ele>
	<time>2024-07-24T10:14:01.000Z</time>
</trkpt>
<trkpt lat="46.0414740" lon="10.3781410">
	<ele>1424.80</ele>
	<time>2024-07-24T10:14:02.000Z</time>
</trkpt>
<trkpt lat="46.0414710" lon="10.3781400">
	<ele>1424.80</ele>
	<time>2024-07-24T10:14:03.000Z</time>
</trkpt>
<trkpt lat="46.0414680" lon="10.3781380">
	<ele>1424.80</ele>
	<time>2024-07-24T10:14:04.000Z</time>
</trkpt>
<trkpt lat="46.0414690" lon="10.3781410">
	<ele>1425.00</ele>
	<time>2024-07-24T10:14:05.000Z</time>
</trkpt>
<trkpt lat="46.0414690" lon="10.3781410">
	<ele>1425.00</ele>
	<time>2024-07-24T10:14:06.000Z</time>
</trkpt>
<trkpt lat="46.0414690" lon="10.3781410">
	<ele>1425.00</ele>
	<time>2024-07-24T10:14:07.000Z</time>
</trkpt>
<trkpt lat="46.0414690" lon="10.3781410">
	<ele>1425.00</ele>
	<time>2024-07-24T10:14:08.000Z</time>
</trkpt>
<trkpt lat="46.0414690" lon="10.3781410">
	<ele>1425.00</ele>
	<time>2024-07-24T10:14:09.000Z</time>
</trkpt>
<trkpt lat="46.0414690" lon="10.3781410">
	<ele>1425.00</ele>
	<time>2024-07-24T10:14:10.000Z</time>
</trkpt>
<trkpt lat="46.0414690" lon="10.3781410">
	<ele>1425.00</ele>
	<time>2024-07-24T10:14:11.000Z</time>
</trkpt>
<trkpt lat="46.0414690" lon="10.3781410">
	<ele>1425.00</ele>
	<time>2024-07-24T10:14:12.000Z</time>
</trkpt>
<trkpt lat="46.0414690" lon="10.3781410">
	<ele>1425.00</ele>
	<time>2024-07-24T10:14:13.000Z</time>
</trkpt>
<trkpt lat="46.0414690" lon="10.3781410">
	<ele>1425.20</ele>
	<time>2024-07-24T10:14:14.000Z</time>
</trkpt>
<trkpt lat="46.0414690" lon="10.3781410">
	<ele>1425.00</ele>
	<time>2024-07-24T10:14:15.000Z</time>
</trkpt>
<trkpt lat="46.0414690" lon="10.3781410">
	<ele>1425.20</ele>
	<time>2024-07-24T10:14:16.000Z</time>
</trkpt>
<trkpt lat="46.0414690" lon="10.3781410">
	<ele>1425.20</ele>
	<time>2024-07-24T10:14:17.000Z</time>
</trkpt>
<trkpt lat="46.0414680" lon="10.3781450">
	<ele>1425.00</ele>
	<time>2024-07-24T10:14:18.000Z</time>
</trkpt>
<trkpt lat="46.0414580" lon="10.3781500">
	<ele>1425.00</ele>
	<time>2024-07-24T10:14:19.000Z</time>
</trkpt>
<trkpt lat="46.0414460" lon="10.3781550">
	<ele>1424.80</ele>
	<time>2024-07-24T10:14:20.000Z</time>
</trkpt>
<trkpt lat="46.0414350" lon="10.3781530">
	<ele>1424.60</ele>
	<time>2024-07-24T10:14:21.000Z</time>
</trkpt>
<trkpt lat="46.0414240" lon="10.3781490">
	<ele>1424.40</ele>
	<time>2024-07-24T10:14:22.000Z</time>
</trkpt>
<trkpt lat="46.0414110" lon="10.3781490">
	<ele>1424.20</ele>
	<time>2024-07-24T10:14:23.000Z</time>
</trkpt>
<trkpt lat="46.0414000" lon="10.3781410">
	<ele>1423.80</ele>
	<time>2024-07-24T10:14:24.000Z</time>
</trkpt>
<trkpt lat="46.0413930" lon="10.3781290">
	<ele>1423.60</ele>
	<time>2024-07-24T10:14:25.000Z</time>
</trkpt>
<trkpt lat="46.0413880" lon="10.3781260">
	<ele>1423.20</ele>
	<time>2024-07-24T10:14:26.000Z</time>
</trkpt>
<trkpt lat="46.0413770" lon="10.3781250">
	<ele>1423.00</ele>
	<time>2024-07-24T10:14:27.000Z</time>
</trkpt>
<trkpt lat="46.0413720" lon="10.3781210">
	<ele>1422.80</ele>
	<time>2024-07-24T10:14:28.000Z</time>
</trkpt>
<trkpt lat="46.0413650" lon="10.3781200">
	<ele>1422.60</ele>
	<time>2024-07-24T10:14:29.000Z</time>
</trkpt>
<trkpt lat="46.0413590" lon="10.3781190">
	<ele>1422.40</ele>
	<time>2024-07-24T10:14:30.000Z</time>
</trkpt>
<trkpt lat="46.0413490" lon="10.3781140">
	<ele>1421.80</ele>
	<time>2024-07-24T10:14:31.000Z</time>
</trkpt>
<trkpt lat="46.0413410" lon="10.3781070">
	<ele>1421.60</ele>
	<time>2024-07-24T10:14:32.000Z</time>
</trkpt>
<trkpt lat="46.0413300" lon="10.3781050">
	<ele>1421.40</ele>
	<time>2024-07-24T10:14:33.000Z</time>
</trkpt>
<trkpt lat="46.0413190" lon="10.3780990">
	<ele>1421.20</ele>
	<time>2024-07-24T10:14:34.000Z</time>
</trkpt>
<trkpt lat="46.0413090" lon="10.3780930">
	<ele>1421.00</ele>
	<time>2024-07-24T10:14:35.000Z</time>
</trkpt>
<trkpt lat="46.0413020" lon="10.3780820">
	<ele>1420.60</ele>
	<time>2024-07-24T10:14:36.000Z</time>
</trkpt>
<trkpt lat="46.0412930" lon="10.3780730">
	<ele>1420.20</ele>
	<time>2024-07-24T10:14:37.000Z</time>
</trkpt>
<trkpt lat="46.0412820" lon="10.3780680">
	<ele>1420.00</ele>
	<time>2024-07-24T10:14:38.000Z</time>
</trkpt>
<trkpt lat="46.0412750" lon="10.3780600">
	<ele>1419.60</ele>
	<time>2024-07-24T10:14:39.000Z</time>
</trkpt>
<trkpt lat="46.0412670" lon="10.3780590">
	<ele>1419.20</ele>
	<time>2024-07-24T10:14:40.000Z</time>
</trkpt>
<trkpt lat="46.0412570" lon="10.3780600">
	<ele>1419.00</ele>
	<time>2024-07-24T10:14:41.000Z</time>
</trkpt>
<trkpt lat="46.0412430" lon="10.3780620">
	<ele>1418.60</ele>
	<time>2024-07-24T10:14:42.000Z</time>
</trkpt>
<trkpt lat="46.0412290" lon="10.3780610">
	<ele>1418.40</ele>
	<time>2024-07-24T10:14:43.000Z</time>
</trkpt>
<trkpt lat="46.0412180" lon="10.3780600">
	<ele>1418.20</ele>
	<time>2024-07-24T10:14:44.000Z</time>
</trkpt>
<trkpt lat="46.0412090" lon="10.3780560">
	<ele>1417.80</ele>
	<time>2024-07-24T10:14:45.000Z</time>
</trkpt>
<trkpt lat="46.0411990" lon="10.3780490">
	<ele>1417.40</ele>
	<time>2024-07-24T10:14:46.000Z</time>
</trkpt>
<trkpt lat="46.0411830" lon="10.3780390">
	<ele>1417.20</ele>
	<time>2024-07-24T10:14:47.000Z</time>
</trkpt>
<trkpt lat="46.0411680" lon="10.3780360">
	<ele>1416.80</ele>
	<time>2024-07-24T10:14:48.000Z</time>
</trkpt>
<trkpt lat="46.0411550" lon="10.3780400">
	<ele>1416.60</ele>
	<time>2024-07-24T10:14:49.000Z</time>
</trkpt>
<trkpt lat="46.0411440" lon="10.3780490">
	<ele>1416.20</ele>
	<time>2024-07-24T10:14:50.000Z</time>
</trkpt>
<trkpt lat="46.0411350" lon="10.3780540">
	<ele>1416.00</ele>
	<time>2024-07-24T10:14:51.000Z</time>
</trkpt>
<trkpt lat="46.0411230" lon="10.3780590">
	<ele>1415.80</ele>
	<time>2024-07-24T10:14:52.000Z</time>
</trkpt>
<trkpt lat="46.0411070" lon="10.3780590">
	<ele>1415.60</ele>
	<time>2024-07-24T10:14:53.000Z</time>
</trkpt>
<trkpt lat="46.0410930" lon="10.3780480">
	<ele>1415.40</ele>
	<time>2024-07-24T10:14:54.000Z</time>
</trkpt>
<trkpt lat="46.0410780" lon="10.3780450">
	<ele>1415.20</ele>
	<time>2024-07-24T10:14:55.000Z</time>
</trkpt>
<trkpt lat="46.0410640" lon="10.3780490">
	<ele>1415.20</ele>
	<time>2024-07-24T10:14:56.000Z</time>
</trkpt>
<trkpt lat="46.0410520" lon="10.3780520">
	<ele>1415.00</ele>
	<time>2024-07-24T10:14:57.000Z</time>
</trkpt>
<trkpt lat="46.0410430" lon="10.3780500">
	<ele>1414.80</ele>
	<time>2024-07-24T10:14:58.000Z</time>
</trkpt>
<trkpt lat="46.0410330" lon="10.3780510">
	<ele>1414.80</ele>
	<time>2024-07-24T10:14:59.000Z</time>
</trkpt>
<trkpt lat="46.0410230" lon="10.3780460">
	<ele>1414.40</ele>
	<time>2024-07-24T10:15:00.000Z</time>
</trkpt>
<trkpt lat="46.0410110" lon="10.3780390">
	<ele>1414.20</ele>
	<time>2024-07-24T10:15:01.000Z</time>
</trkpt>
<trkpt lat="46.0410060" lon="10.3780380">
	<ele>1414.00</ele>
	<time>2024-07-24T10:15:02.000Z</time>
</trkpt>
<trkpt lat="46.0409950" lon="10.3780350">
	<ele>1413.60</ele>
	<time>2024-07-24T10:15:03.000Z</time>
</trkpt>
<trkpt lat="46.0409830" lon="10.3780190">
	<ele>1413.40</ele>
	<time>2024-07-24T10:15:04.000Z</time>
</trkpt>
<trkpt lat="46.0409740" lon="10.3780050">
	<ele>1413.00</ele>
	<time>2024-07-24T10:15:05.000Z</time>
</trkpt>
<trkpt lat="46.0409690" lon="10.3780020">
	<ele>1413.00</ele>
	<time>2024-07-24T10:15:06.000Z</time>
</trkpt>
<trkpt lat="46.0409660" lon="10.3780040">
	<ele>1412.80</ele>
	<time>2024-07-24T10:15:07.000Z</time>
</trkpt>
<trkpt lat="46.0409640" lon="10.3780120">
	<ele>1412.60</ele>
	<time>2024-07-24T10:15:08.000Z</time>
</trkpt>
<trkpt lat="46.0409600" lon="10.3780190">
	<ele>1412.60</ele>
	<time>2024-07-24T10:15:09.000Z</time>
</trkpt>
<trkpt lat="46.0409580" lon="10.3780190">
	<ele>1412.60</ele>
	<time>2024-07-24T10:15:10.000Z</time>
</trkpt>
<trkpt lat="46.0409570" lon="10.3780200">
	<ele>1412.40</ele>
	<time>2024-07-24T10:15:11.000Z</time>
</trkpt>
<trkpt lat="46.0409560" lon="10.3780220">
	<ele>1412.40</ele>
	<time>2024-07-24T10:15:12.000Z</time>
</trkpt>
<trkpt lat="46.0409570" lon="10.3780240">
	<ele>1412.20</ele>
	<time>2024-07-24T10:15:13.000Z</time>
</trkpt>
<trkpt lat="46.0409590" lon="10.3780260">
	<ele>1412.20</ele>
	<time>2024-07-24T10:15:14.000Z</time>
</trkpt>
<trkpt lat="46.0409590" lon="10.3780310">
	<ele>1412.20</ele>
	<time>2024-07-24T10:15:15.000Z</time>
</trkpt>
<trkpt lat="46.0409580" lon="10.3780380">
	<ele>1412.20</ele>
	<time>2024-07-24T10:15:16.000Z</time>
</trkpt>
<trkpt lat="46.0409580" lon="10.3780430">
	<ele>1412.40</ele>
	<time>2024-07-24T10:15:17.000Z</time>
</trkpt>
<trkpt lat="46.0409670" lon="10.3780390">
	<ele>1412.40</ele>
	<time>2024-07-24T10:15:18.000Z</time>
</trkpt>
<trkpt lat="46.0409670" lon="10.3780440">
	<ele>1412.60</ele>
	<time>2024-07-24T10:15:19.000Z</time>
</trkpt>
<trkpt lat="46.0409690" lon="10.3780490">
	<ele>1412.60</ele>
	<time>2024-07-24T10:15:20.000Z</time>
</trkpt>
<trkpt lat="46.0409690" lon="10.3780530">
	<ele>1412.60</ele>
	<time>2024-07-24T10:15:21.000Z</time>
</trkpt>
<trkpt lat="46.0409650" lon="10.3780530">
	<ele>1412.60</ele>
	<time>2024-07-24T10:15:22.000Z</time>
</trkpt>
<trkpt lat="46.0409590" lon="10.3780500">
	<ele>1412.60</ele>
	<time>2024-07-24T10:15:23.000Z</time>
</trkpt>
<trkpt lat="46.0409550" lon="10.3780500">
	<ele>1412.40</ele>
	<time>2024-07-24T10:15:24.000Z</time>
</trkpt>
<trkpt lat="46.0409470" lon="10.3780400">
	<ele>1412.20</ele>
	<time>2024-07-24T10:15:25.000Z</time>
</trkpt>
<trkpt lat="46.0409360" lon="10.3780290">
	<ele>1412.00</ele>
	<time>2024-07-24T10:15:26.000Z</time>
</trkpt>
<trkpt lat="46.0409250" lon="10.3780210">
	<ele>1412.00</ele>
	<time>2024-07-24T10:15:27.000Z</time>
</trkpt>
<trkpt lat="46.0409190" lon="10.3780070">
	<ele>1412.00</ele>
	<time>2024-07-24T10:15:28.000Z</time>
</trkpt>
<trkpt lat="46.0409160" lon="10.3779950">
	<ele>1411.60</ele>
	<time>2024-07-24T10:15:29.000Z</time>
</trkpt>
<trkpt lat="46.0409170" lon="10.3779820">
	<ele>1411.40</ele>
	<time>2024-07-24T10:15:30.000Z</time>
</trkpt>
<trkpt lat="46.0409200" lon="10.3779650">
	<ele>1411.20</ele>
	<time>2024-07-24T10:15:31.000Z</time>
</trkpt>
<trkpt lat="46.0409240" lon="10.3779440">
	<ele>1411.00</ele>
	<time>2024-07-24T10:15:32.000Z</time>
</trkpt>
<trkpt lat="46.0409280" lon="10.3779270">
	<ele>1410.80</ele>
	<time>2024-07-24T10:15:33.000Z</time>
</trkpt>
<trkpt lat="46.0409330" lon="10.3779170">
	<ele>1410.60</ele>
	<time>2024-07-24T10:15:34.000Z</time>
</trkpt>
<trkpt lat="46.0409390" lon="10.3779090">
	<ele>1410.40</ele>
	<time>2024-07-24T10:15:35.000Z</time>
</trkpt>
<trkpt lat="46.0409450" lon="10.3779080">
	<ele>1410.20</ele>
	<time>2024-07-24T10:15:36.000Z</time>
</trkpt>
<trkpt lat="46.0409510" lon="10.3778970">
	<ele>1409.80</ele>
	<time>2024-07-24T10:15:37.000Z</time>
</trkpt>
<trkpt lat="46.0409590" lon="10.3778880">
	<ele>1409.80</ele>
	<time>2024-07-24T10:15:38.000Z</time>
</trkpt>
<trkpt lat="46.0409640" lon="10.3778810">
	<ele>1409.20</ele>
	<time>2024-07-24T10:15:39.000Z</time>
</trkpt>
<trkpt lat="46.0409690" lon="10.3778720">
	<ele>1409.00</ele>
	<time>2024-07-24T10:15:40.000Z</time>
</trkpt>
<trkpt lat="46.0409700" lon="10.3778650">
	<ele>1409.00</ele>
	<time>2024-07-24T10:15:41.000Z</time>
</trkpt>
<trkpt lat="46.0409700" lon="10.3778630">
	<ele>1408.80</ele>
	<time>2024-07-24T10:15:42.000Z</time>
</trkpt>
<trkpt lat="46.0409700" lon="10.3778640">
	<ele>1408.60</ele>
	<time>2024-07-24T10:15:43.000Z</time>
</trkpt>
<trkpt lat="46.0409710" lon="10.3778670">
	<ele>1408.60</ele>
	<time>2024-07-24T10:15:44.000Z</time>
</trkpt>
<trkpt lat="46.0409720" lon="10.3778660">
	<ele>1408.60</ele>
	<time>2024-07-24T10:15:45.000Z</time>
</trkpt>
<trkpt lat="46.0409710" lon="10.3778640">
	<ele>1408.80</ele>
	<time>2024-07-24T10:15:46.000Z</time>
</trkpt>
<trkpt lat="46.0409700" lon="10.3778640">
	<ele>1408.80</ele>
	<time>2024-07-24T10:15:47.000Z</time>
</trkpt>
<trkpt lat="46.0409700" lon="10.3778650">
	<ele>1408.80</ele>
	<time>2024-07-24T10:15:48.000Z</time>
</trkpt>
<trkpt lat="46.0409700" lon="10.3778670">
	<ele>1408.80</ele>
	<time>2024-07-24T10:15:49.000Z</time>
</trkpt>
<trkpt lat="46.0409710" lon="10.3778700">
	<ele>1409.00</ele>
	<time>2024-07-24T10:15:50.000Z</time>
</trkpt>
<trkpt lat="46.0409720" lon="10.3778700">
	<ele>1409.00</ele>
	<time>2024-07-24T10:15:51.000Z</time>
</trkpt>
<trkpt lat="46.0409740" lon="10.3778720">
	<ele>1409.00</ele>
	<time>2024-07-24T10:15:52.000Z</time>
</trkpt>
<trkpt lat="46.0409740" lon="10.3778730">
	<ele>1408.80</ele>
	<time>2024-07-24T10:15:53.000Z</time>
</trkpt>
<trkpt lat="46.0409740" lon="10.3778750">
	<ele>1408.80</ele>
	<time>2024-07-24T10:15:54.000Z</time>
</trkpt>
<trkpt lat="46.0409730" lon="10.3778770">
	<ele>1408.80</ele>
	<time>2024-07-24T10:15:55.000Z</time>
</trkpt>
<trkpt lat="46.0409720" lon="10.3778780">
	<ele>1408.60</ele>
	<time>2024-07-24T10:15:56.000Z</time>
</trkpt>
<trkpt lat="46.0409730" lon="10.3778640">
	<ele>1408.40</ele>
	<time>2024-07-24T10:15:57.000Z</time>
</trkpt>
<trkpt lat="46.0409780" lon="10.3778480">
	<ele>1408.20</ele>
	<time>2024-07-24T10:15:58.000Z</time>
</trkpt>
<trkpt lat="46.0409810" lon="10.3778300">
	<ele>1408.20</ele>
	<time>2024-07-24T10:15:59.000Z</time>
</trkpt>
<trkpt lat="46.0409820" lon="10.3778100">
	<ele>1408.00</ele>
	<time>2024-07-24T10:16:00.000Z</time>
</trkpt>
<trkpt lat="46.0409770" lon="10.3777960">
	<ele>1407.80</ele>
	<time>2024-07-24T10:16:01.000Z</time>
</trkpt>
<trkpt lat="46.0409710" lon="10.3777960">
	<ele>1407.60</ele>
	<time>2024-07-24T10:16:02.000Z</time>
</trkpt>
<trkpt lat="46.0409660" lon="10.3777900">
	<ele>1407.60</ele>
	<time>2024-07-24T10:16:03.000Z</time>
</trkpt>
<trkpt lat="46.0409620" lon="10.3777720">
	<ele>1407.40</ele>
	<time>2024-07-24T10:16:04.000Z</time>
</trkpt>
<trkpt lat="46.0409610" lon="10.3777550">
	<ele>1407.20</ele>
	<time>2024-07-24T10:16:05.000Z</time>
</trkpt>
<trkpt lat="46.0409610" lon="10.3777370">
	<ele>1407.00</ele>
	<time>2024-07-24T10:16:06.000Z</time>
</trkpt>
<trkpt lat="46.0409580" lon="10.3777200">
	<ele>1406.80</ele>
	<time>2024-07-24T10:16:07.000Z</time>
</trkpt>
<trkpt lat="46.0409580" lon="10.3777070">
	<ele>1406.60</ele>
	<time>2024-07-24T10:16:08.000Z</time>
</trkpt>
<trkpt lat="46.0409600" lon="10.3776910">
	<ele>1406.40</ele>
	<time>2024-07-24T10:16:09.000Z</time>
</trkpt>
<trkpt lat="46.0409610" lon="10.3776720">
	<ele>1406.20</ele>
	<time>2024-07-24T10:16:10.000Z</time>
</trkpt>
<trkpt lat="46.0409660" lon="10.3776580">
	<ele>1406.00</ele>
	<time>2024-07-24T10:16:11.000Z</time>
</trkpt>
<trkpt lat="46.0409730" lon="10.3776520">
	<ele>1405.60</ele>
	<time>2024-07-24T10:16:12.000Z</time>
</trkpt>
<trkpt lat="46.0409770" lon="10.3776380">
	<ele>1405.40</ele>
	<time>2024-07-24T10:16:13.000Z</time>
</trkpt>
<trkpt lat="46.0409850" lon="10.3776320">
	<ele>1405.20</ele>
	<time>2024-07-24T10:16:14.000Z</time>
</trkpt>
<trkpt lat="46.0409950" lon="10.3776260">
	<ele>1405.00</ele>
	<time>2024-07-24T10:16:15.000Z</time>
</trkpt>
<trkpt lat="46.0410050" lon="10.3776200">
	<ele>1404.80</ele>
	<time>2024-07-24T10:16:16.000Z</time>
</trkpt>
<trkpt lat="46.0410100" lon="10.3776070">
	<ele>1404.60</ele>
	<time>2024-07-24T10:16:17.000Z</time>
</trkpt>
<trkpt lat="46.0410180" lon="10.3776130">
	<ele>1404.40</ele>
	<time>2024-07-24T10:16:18.000Z</time>
</trkpt>
<trkpt lat="46.0410330" lon="10.3776420">
	<ele>1404.20</ele>
	<time>2024-07-24T10:16:19.000Z</time>
</trkpt>
<trkpt lat="46.0410500" lon="10.3776780">
	<ele>1403.80</ele>
	<time>2024-07-24T10:16:20.000Z</time>
</trkpt>
<trkpt lat="46.0410670" lon="10.3776910">
	<ele>1403.20</ele>
	<time>2024-07-24T10:16:21.000Z</time>
</trkpt>
<trkpt lat="46.0410810" lon="10.3776950">
	<ele>1403.00</ele>
	<time>2024-07-24T10:16:22.000Z</time>
</trkpt>
<trkpt lat="46.0410950" lon="10.3776990">
	<ele>1402.80</ele>
	<time>2024-07-24T10:16:23.000Z</time>
</trkpt>
<trkpt lat="46.0411060" lon="10.3776990">
	<ele>1402.40</ele>
	<time>2024-07-24T10:16:24.000Z</time>
</trkpt>
<trkpt lat="46.0411170" lon="10.3777000">
	<ele>1402.20</ele>
	<time>2024-07-24T10:16:25.000Z</time>
</trkpt>
<trkpt lat="46.0411280" lon="10.3776960">
	<ele>1401.60</ele>
	<time>2024-07-24T10:16:26.000Z</time>
</trkpt>
<trkpt lat="46.0411380" lon="10.3776920">
	<ele>1401.40</ele>
	<time>2024-07-24T10:16:27.000Z</time>
</trkpt>
<trkpt lat="46.0411480" lon="10.3776860">
	<ele>1401.20</ele>
	<time>2024-07-24T10:16:28.000Z</time>
</trkpt>
<trkpt lat="46.0411560" lon="10.3776770">
	<ele>1401.00</ele>
	<time>2024-07-24T10:16:29.000Z</time>
</trkpt>
<trkpt lat="46.0411660" lon="10.3776710">
	<ele>1400.60</ele>
	<time>2024-07-24T10:16:30.000Z</time>
</trkpt>
<trkpt lat="46.0411780" lon="10.3776730">
	<ele>1400.40</ele>
	<time>2024-07-24T10:16:31.000Z</time>
</trkpt>
<trkpt lat="46.0411880" lon="10.3776730">
	<ele>1400.00</ele>
	<time>2024-07-24T10:16:32.000Z</time>
</trkpt>
<trkpt lat="46.0411980" lon="10.3776690">
	<ele>1399.80</ele>
	<time>2024-07-24T10:16:33.000Z</time>
</trkpt>
<trkpt lat="46.0412050" lon="10.3776610">
	<ele>1399.60</ele>
	<time>2024-07-24T10:16:34.000Z</time>
</trkpt>
<trkpt lat="46.0412130" lon="10.3776570">
	<ele>1399.20</ele>
	<time>2024-07-24T10:16:35.000Z</time>
</trkpt>
<trkpt lat="46.0412220" lon="10.3776530">
	<ele>1399.00</ele>
	<time>2024-07-24T10:16:36.000Z</time>
</trkpt>
<trkpt lat="46.0412280" lon="10.3776440">
	<ele>1398.60</ele>
	<time>2024-07-24T10:16:37.000Z</time>
</trkpt>
<trkpt lat="46.0412360" lon="10.3776350">
	<ele>1398.40</ele>
	<time>2024-07-24T10:16:38.000Z</time>
</trkpt>
<trkpt lat="46.0412460" lon="10.3776230">
	<ele>1398.20</ele>
	<time>2024-07-24T10:16:39.000Z</time>
</trkpt>
<trkpt lat="46.0412580" lon="10.3776170">
	<ele>1398.00</ele>
	<time>2024-07-24T10:16:40.000Z</time>
</trkpt>
<trkpt lat="46.0412640" lon="10.3776090">
	<ele>1397.60</ele>
	<time>2024-07-24T10:16:41.000Z</time>
</trkpt>
<trkpt lat="46.0412710" lon="10.3775930">
	<ele>1397.20</ele>
	<time>2024-07-24T10:16:42.000Z</time>
</trkpt>
<trkpt lat="46.0412780" lon="10.3775790">
	<ele>1397.00</ele>
	<time>2024-07-24T10:16:43.000Z</time>
</trkpt>
<trkpt lat="46.0412870" lon="10.3775730">
	<ele>1396.80</ele>
	<time>2024-07-24T10:16:44.000Z</time>
</trkpt>
<trkpt lat="46.0412940" lon="10.3775530">
	<ele>1396.60</ele>
	<time>2024-07-24T10:16:45.000Z</time>
</trkpt>
<trkpt lat="46.0413030" lon="10.3775380">
	<ele>1396.20</ele>
	<time>2024-07-24T10:16:46.000Z</time>
</trkpt>
<trkpt lat="46.0413070" lon="10.3775240">
	<ele>1396.00</ele>
	<time>2024-07-24T10:16:47.000Z</time>
</trkpt>
<trkpt lat="46.0413090" lon="10.3775000">
	<ele>1395.80</ele>
	<time>2024-07-24T10:16:48.000Z</time>
</trkpt>
<trkpt lat="46.0413140" lon="10.3774780">
	<ele>1395.40</ele>
	<time>2024-07-24T10:16:49.000Z</time>
</trkpt>
<trkpt lat="46.0413240" lon="10.3774670">
	<ele>1395.20</ele>
	<time>2024-07-24T10:16:50.000Z</time>
</trkpt>
<trkpt lat="46.0413340" lon="10.3774610">
	<ele>1395.00</ele>
	<time>2024-07-24T10:16:51.000Z</time>
</trkpt>
<trkpt lat="46.0413440" lon="10.3774500">
	<ele>1394.60</ele>
	<time>2024-07-24T10:16:52.000Z</time>
</trkpt>
<trkpt lat="46.0413550" lon="10.3774390">
	<ele>1394.40</ele>
	<time>2024-07-24T10:16:53.000Z</time>
</trkpt>
<trkpt lat="46.0413640" lon="10.3774260">
	<ele>1394.20</ele>
	<time>2024-07-24T10:16:54.000Z</time>
</trkpt>
<trkpt lat="46.0413750" lon="10.3774150">
	<ele>1394.00</ele>
	<time>2024-07-24T10:16:55.000Z</time>
</trkpt>
<trkpt lat="46.0413840" lon="10.3774060">
	<ele>1393.60</ele>
	<time>2024-07-24T10:16:56.000Z</time>
</trkpt>
<trkpt lat="46.0413920" lon="10.3773970">
	<ele>1393.40</ele>
	<time>2024-07-24T10:16:57.000Z</time>
</trkpt>
<trkpt lat="46.0414020" lon="10.3773920">
	<ele>1393.20</ele>
	<time>2024-07-24T10:16:58.000Z</time>
</trkpt>
<trkpt lat="46.0414140" lon="10.3773910">
	<ele>1392.80</ele>
	<time>2024-07-24T10:16:59.000Z</time>
</trkpt>
<trkpt lat="46.0414240" lon="10.3773910">
	<ele>1392.60</ele>
	<time>2024-07-24T10:17:00.000Z</time>
</trkpt>
<trkpt lat="46.0414350" lon="10.3773880">
	<ele>1392.20</ele>
	<time>2024-07-24T10:17:01.000Z</time>
</trkpt>
<trkpt lat="46.0414440" lon="10.3773860">
	<ele>1391.80</ele>
	<time>2024-07-24T10:17:02.000Z</time>
</trkpt>
<trkpt lat="46.0414520" lon="10.3773900">
	<ele>1391.80</ele>
	<time>2024-07-24T10:17:03.000Z</time>
</trkpt>
<trkpt lat="46.0414570" lon="10.3773860">
	<ele>1391.40</ele>
	<time>2024-07-24T10:17:04.000Z</time>
</trkpt>
<trkpt lat="46.0414600" lon="10.3773760">
	<ele>1391.20</ele>
	<time>2024-07-24T10:17:05.000Z</time>
</trkpt>
<trkpt lat="46.0414690" lon="10.3773550">
	<ele>1390.80</ele>
	<time>2024-07-24T10:17:06.000Z</time>
</trkpt>
<trkpt lat="46.0414800" lon="10.3773470">
	<ele>1390.60</ele>
	<time>2024-07-24T10:17:07.000Z</time>
</trkpt>
<trkpt lat="46.0414900" lon="10.3773380">
	<ele>1390.40</ele>
	<time>2024-07-24T10:17:08.000Z</time>
</trkpt>
<trkpt lat="46.0414980" lon="10.3773270">
	<ele>1390.20</ele>
	<time>2024-07-24T10:17:09.000Z</time>
</trkpt>
<trkpt lat="46.0415010" lon="10.3773120">
	<ele>1390.00</ele>
	<time>2024-07-24T10:17:10.000Z</time>
</trkpt>
<trkpt lat="46.0415030" lon="10.3773010">
	<ele>1389.80</ele>
	<time>2024-07-24T10:17:11.000Z</time>
</trkpt>
<trkpt lat="46.0415010" lon="10.3772910">
	<ele>1389.60</ele>
	<time>2024-07-24T10:17:12.000Z</time>
</trkpt>
<trkpt lat="46.0415060" lon="10.3772850">
	<ele>1389.40</ele>
	<time>2024-07-24T10:17:13.000Z</time>
</trkpt>
<trkpt lat="46.0415120" lon="10.3772710">
	<ele>1389.00</ele>
	<time>2024-07-24T10:17:14.000Z</time>
</trkpt>
<trkpt lat="46.0415190" lon="10.3772570">
	<ele>1388.60</ele>
	<time>2024-07-24T10:17:15.000Z</time>
</trkpt>
<trkpt lat="46.0415210" lon="10.3772470">
	<ele>1388.20</ele>
	<time>2024-07-24T10:17:16.000Z</time>
</trkpt>
<trkpt lat="46.0415260" lon="10.3772310">
	<ele>1388.00</ele>
	<time>2024-07-24T10:17:17.000Z</time>
</trkpt>
<trkpt lat="46.0415290" lon="10.3772250">
	<ele>1387.80</ele>
	<time>2024-07-24T10:17:18.000Z</time>
</trkpt>
<trkpt lat="46.0415290" lon="10.3772200">
	<ele>1387.60</ele>
	<time>2024-07-24T10:17:19.000Z</time>
</trkpt>
<trkpt lat="46.0415310" lon="10.3772020">
	<ele>1387.20</ele>
	<time>2024-07-24T10:17:20.000Z</time>
</trkpt>
<trkpt lat="46.0415280" lon="10.3771790">
	<ele>1387.00</ele>
	<time>2024-07-24T10:17:21.000Z</time>
</trkpt>
<trkpt lat="46.0415240" lon="10.3771540">
	<ele>1386.80</ele>
	<time>2024-07-24T10:17:22.000Z</time>
</trkpt>
<trkpt lat="46.0415160" lon="10.3771400">
	<ele>1386.60</ele>
	<time>2024-07-24T10:17:23.000Z</time>
</trkpt>
<trkpt lat="46.0415130" lon="10.3771310">
	<ele>1386.40</ele>
	<time>2024-07-24T10:17:24.000Z</time>
</trkpt>
<trkpt lat="46.0415120" lon="10.3771210">
	<ele>1386.00</ele>
	<time>2024-07-24T10:17:25.000Z</time>
</trkpt>
<trkpt lat="46.0415140" lon="10.3771090">
	<ele>1385.60</ele>
	<time>2024-07-24T10:17:26.000Z</time>
</trkpt>
<trkpt lat="46.0415120" lon="10.3770860">
	<ele>1385.40</ele>
	<time>2024-07-24T10:17:27.000Z</time>
</trkpt>
<trkpt lat="46.0415080" lon="10.3770700">
	<ele>1385.00</ele>
	<time>2024-07-24T10:17:28.000Z</time>
</trkpt>
<trkpt lat="46.0415070" lon="10.3770650">
	<ele>1384.80</ele>
	<time>2024-07-24T10:17:29.000Z</time>
</trkpt>
<trkpt lat="46.0415060" lon="10.3770560">
	<ele>1384.60</ele>
	<time>2024-07-24T10:17:30.000Z</time>
</trkpt>
<trkpt lat="46.0415050" lon="10.3770460">
	<ele>1384.40</ele>
	<time>2024-07-24T10:17:31.000Z</time>
</trkpt>
<trkpt lat="46.0415000" lon="10.3770220">
	<ele>1384.00</ele>
	<time>2024-07-24T10:17:32.000Z</time>
</trkpt>
<trkpt lat="46.0414970" lon="10.3770060">
	<ele>1383.80</ele>
	<time>2024-07-24T10:17:33.000Z</time>
</trkpt>
<trkpt lat="46.0414880" lon="10.3769830">
	<ele>1383.60</ele>
	<time>2024-07-24T10:17:34.000Z</time>
</trkpt>
<trkpt lat="46.0414810" lon="10.3769590">
	<ele>1383.40</ele>
	<time>2024-07-24T10:17:35.000Z</time>
</trkpt>
<trkpt lat="46.0414810" lon="10.3769380">
	<ele>1383.20</ele>
	<time>2024-07-24T10:17:36.000Z</time>
</trkpt>
<trkpt lat="46.0414790" lon="10.3769300">
	<ele>1383.00</ele>
	<time>2024-07-24T10:17:37.000Z</time>
</trkpt>
<trkpt lat="46.0414700" lon="10.3769210">
	<ele>1382.60</ele>
	<time>2024-07-24T10:17:38.000Z</time>
</trkpt>
<trkpt lat="46.0414620" lon="10.3769130">
	<ele>1382.40</ele>
	<time>2024-07-24T10:17:39.000Z</time>
</trkpt>
<trkpt lat="46.0414560" lon="10.3769020">
	<ele>1382.00</ele>
	<time>2024-07-24T10:17:40.000Z</time>
</trkpt>
<trkpt lat="46.0414500" lon="10.3768840">
	<ele>1381.60</ele>
	<time>2024-07-24T10:17:41.000Z</time>
</trkpt>
<trkpt lat="46.0414440" lon="10.3768650">
	<ele>1381.40</ele>
	<time>2024-07-24T10:17:42.000Z</time>
</trkpt>
<trkpt lat="46.0414430" lon="10.3768460">
	<ele>1381.00</ele>
	<time>2024-07-24T10:17:43.000Z</time>
</trkpt>
<trkpt lat="46.0414370" lon="10.3768260">
	<ele>1380.80</ele>
	<time>2024-07-24T10:17:44.000Z</time>
</trkpt>
<trkpt lat="46.0414300" lon="10.3768180">
	<ele>1380.40</ele>
	<time>2024-07-24T10:17:45.000Z</time>
</trkpt>
<trkpt lat="46.0414220" lon="10.3768140">
	<ele>1380.20</ele>
	<time>2024-07-24T10:17:46.000Z</time>
</trkpt>
<trkpt lat="46.0414110" lon="10.3768200">
	<ele>1380.00</ele>
	<time>2024-07-24T10:17:47.000Z</time>
</trkpt>
<trkpt lat="46.0413990" lon="10.3768260">
	<ele>1379.60</ele>
	<time>2024-07-24T10:17:48.000Z</time>
</trkpt>
<trkpt lat="46.0413870" lon="10.3768340">
	<ele>1379.40</ele>
	<time>2024-07-24T10:17:49.000Z</time>
</trkpt>
<trkpt lat="46.0413770" lon="10.3768300">
	<ele>1379.00</ele>
	<time>2024-07-24T10:17:50.000Z</time>
</trkpt>
<trkpt lat="46.0413760" lon="10.3768240">
	<ele>1379.00</ele>
	<time>2024-07-24T10:17:51.000Z</time>
</trkpt>
<trkpt lat="46.0413740" lon="10.3768180">
	<ele>1378.60</ele>
	<time>2024-07-24T10:17:52.000Z</time>
</trkpt>
<trkpt lat="46.0413660" lon="10.3768130">
	<ele>1378.40</ele>
	<time>2024-07-24T10:17:53.000Z</time>
</trkpt>
<trkpt lat="46.0413570" lon="10.3768080">
	<ele>1378.20</ele>
	<time>2024-07-24T10:17:54.000Z</time>
</trkpt>
<trkpt lat="46.0413480" lon="10.3768060">
	<ele>1377.80</ele>
	<time>2024-07-24T10:17:55.000Z</time>
</trkpt>
<trkpt lat="46.0413410" lon="10.3768090">
	<ele>1377.40</ele>
	<time>2024-07-24T10:17:56.000Z</time>
</trkpt>
<trkpt lat="46.0413340" lon="10.3768090">
	<ele>1377.20</ele>
	<time>2024-07-24T10:17:57.000Z</time>
</trkpt>
<trkpt lat="46.0413280" lon="10.3768080">
	<ele>1377.00</ele>
	<time>2024-07-24T10:17:58.000Z</time>
</trkpt>
<trkpt lat="46.0413250" lon="10.3768080">
	<ele>1376.80</ele>
	<time>2024-07-24T10:17:59.000Z</time>
</trkpt>
<trkpt lat="46.0413230" lon="10.3768080">
	<ele>1376.80</ele>
	<time>2024-07-24T10:18:00.000Z</time>
</trkpt>
<trkpt lat="46.0413230" lon="10.3768120">
	<ele>1376.80</ele>
	<time>2024-07-24T10:18:01.000Z</time>
</trkpt>
<trkpt lat="46.0413240" lon="10.3768140">
	<ele>1376.60</ele>
	<time>2024-07-24T10:18:02.000Z</time>
</trkpt>
<trkpt lat="46.0413250" lon="10.3768160">
	<ele>1376.60</ele>
	<time>2024-07-24T10:18:03.000Z</time>
</trkpt>
<trkpt lat="46.0413260" lon="10.3768200">
	<ele>1376.60</ele>
	<time>2024-07-24T10:18:04.000Z</time>
</trkpt>
<trkpt lat="46.0413270" lon="10.3768220">
	<ele>1376.60</ele>
	<time>2024-07-24T10:18:05.000Z</time>
</trkpt>
<trkpt lat="46.0413270" lon="10.3768240">
	<ele>1376.60</ele>
	<time>2024-07-24T10:18:06.000Z</time>
</trkpt>
<trkpt lat="46.0413280" lon="10.3768250">
	<ele>1376.60</ele>
	<time>2024-07-24T10:18:07.000Z</time>
</trkpt>
<trkpt lat="46.0413280" lon="10.3768250">
	<ele>1376.60</ele>
	<time>2024-07-24T10:18:08.000Z</time>
</trkpt>
<trkpt lat="46.0413280" lon="10.3768230">
	<ele>1376.60</ele>
	<time>2024-07-24T10:18:09.000Z</time>
</trkpt>
<trkpt lat="46.0413280" lon="10.3768230">
	<ele>1376.60</ele>
	<time>2024-07-24T10:18:10.000Z</time>
</trkpt>
<trkpt lat="46.0413280" lon="10.3768230">
	<ele>1376.40</ele>
	<time>2024-07-24T10:18:11.000Z</time>
</trkpt>
<trkpt lat="46.0413280" lon="10.3768230">
	<ele>1376.40</ele>
	<time>2024-07-24T10:18:12.000Z</time>
</trkpt>
<trkpt lat="46.0413280" lon="10.3768230">
	<ele>1376.40</ele>
	<time>2024-07-24T10:18:13.000Z</time>
</trkpt>
<trkpt lat="46.0413280" lon="10.3768230">
	<ele>1376.40</ele>
	<time>2024-07-24T10:18:14.000Z</time>
</trkpt>
<trkpt lat="46.0413280" lon="10.3768230">
	<ele>1376.20</ele>
	<time>2024-07-24T10:18:15.000Z</time>
</trkpt>
<trkpt lat="46.0413250" lon="10.3768200">
	<ele>1376.20</ele>
	<time>2024-07-24T10:18:16.000Z</time>
</trkpt>
<trkpt lat="46.0413160" lon="10.3768190">
	<ele>1376.00</ele>
	<time>2024-07-24T10:18:17.000Z</time>
</trkpt>
<trkpt lat="46.0413050" lon="10.3768140">
	<ele>1375.60</ele>
	<time>2024-07-24T10:18:18.000Z</time>
</trkpt>
<trkpt lat="46.0412960" lon="10.3768090">
	<ele>1375.20</ele>
	<time>2024-07-24T10:18:19.000Z</time>
</trkpt>
<trkpt lat="46.0412870" lon="10.3768050">
	<ele>1374.80</ele>
	<time>2024-07-24T10:18:20.000Z</time>
</trkpt>
<trkpt lat="46.0412780" lon="10.3767930">
	<ele>1374.40</ele>
	<time>2024-07-24T10:18:21.000Z</time>
</trkpt>
<trkpt lat="46.0412680" lon="10.3767830">
	<ele>1374.40</ele>
	<time>2024-07-24T10:18:22.000Z</time>
</trkpt>
<trkpt lat="46.0412570" lon="10.3767730">
	<ele>1374.00</ele>
	<time>2024-07-24T10:18:23.000Z</time>
</trkpt>
<trkpt lat="46.0412420" lon="10.3767580">
	<ele>1373.80</ele>
	<time>2024-07-24T10:18:24.000Z</time>
</trkpt>
<trkpt lat="46.0412300" lon="10.3767490">
	<ele>1373.80</ele>
	<time>2024-07-24T10:18:25.000Z</time>
</trkpt>
<trkpt lat="46.0412200" lon="10.3767380">
	<ele>1373.60</ele>
	<time>2024-07-24T10:18:26.000Z</time>
</trkpt>
<trkpt lat="46.0412120" lon="10.3767300">
	<ele>1373.40</ele>
	<time>2024-07-24T10:18:27.000Z</time>
</trkpt>
<trkpt lat="46.0412030" lon="10.3767260">
	<ele>1373.20</ele>
	<time>2024-07-24T10:18:28.000Z</time>
</trkpt>
<trkpt lat="46.0411940" lon="10.3767200">
	<ele>1372.60</ele>
	<time>2024-07-24T10:18:29.000Z</time>
</trkpt>
<trkpt lat="46.0411850" lon="10.3767130">
	<ele>1372.40</ele>
	<time>2024-07-24T10:18:30.000Z</time>
</trkpt>
<trkpt lat="46.0411760" lon="10.3767120">
	<ele>1372.20</ele>
	<time>2024-07-24T10:18:31.000Z</time>
</trkpt>
<trkpt lat="46.0411670" lon="10.3767090">
	<ele>1371.80</ele>
	<time>2024-07-24T10:18:32.000Z</time>
</trkpt>
<trkpt lat="46.0411610" lon="10.3767030">
	<ele>1371.40</ele>
	<time>2024-07-24T10:18:33.000Z</time>
</trkpt>
<trkpt lat="46.0411520" lon="10.3766940">
	<ele>1371.00</ele>
	<time>2024-07-24T10:18:34.000Z</time>
</trkpt>
<trkpt lat="46.0411430" lon="10.3766820">
	<ele>1370.60</ele>
	<time>2024-07-24T10:18:35.000Z</time>
</trkpt>
<trkpt lat="46.0411340" lon="10.3766760">
	<ele>1370.40</ele>
	<time>2024-07-24T10:18:36.000Z</time>
</trkpt>
<trkpt lat="46.0411220" lon="10.3766600">
	<ele>1370.20</ele>
	<time>2024-07-24T10:18:37.000Z</time>
</trkpt>
<trkpt lat="46.0411110" lon="10.3766500">
	<ele>1370.00</ele>
	<time>2024-07-24T10:18:38.000Z</time>
</trkpt>
<trkpt lat="46.0411020" lon="10.3766380">
	<ele>1369.80</ele>
	<time>2024-07-24T10:18:39.000Z</time>
</trkpt>
<trkpt lat="46.0410950" lon="10.3766250">
	<ele>1369.60</ele>
	<time>2024-07-24T10:18:40.000Z</time>
</trkpt>
<trkpt lat="46.0410870" lon="10.3766130">
	<ele>1369.20</ele>
	<time>2024-07-24T10:18:41.000Z</time>
</trkpt>
<trkpt lat="46.0410790" lon="10.3766010">
	<ele>1369.00</ele>
	<time>2024-07-24T10:18:42.000Z</time>
</trkpt>
<trkpt lat="46.0410710" lon="10.3765950">
	<ele>1368.60</ele>
	<time>2024-07-24T10:18:43.000Z</time>
</trkpt>
<trkpt lat="46.0410600" lon="10.3765920">
	<ele>1368.20</ele>
	<time>2024-07-24T10:18:44.000Z</time>
</trkpt>
<trkpt lat="46.0410500" lon="10.3765880">
	<ele>1368.20</ele>
	<time>2024-07-24T10:18:45.000Z</time>
</trkpt>
<trkpt lat="46.0410390" lon="10.3765850">
	<ele>1367.80</ele>
	<time>2024-07-24T10:18:46.000Z</time>
</trkpt>
<trkpt lat="46.0410310" lon="10.3765800">
	<ele>1367.60</ele>
	<time>2024-07-24T10:18:47.000Z</time>
</trkpt>
<trkpt lat="46.0410240" lon="10.3765690">
	<ele>1367.40</ele>
	<time>2024-07-24T10:18:48.000Z</time>
</trkpt>
<trkpt lat="46.0410170" lon="10.3765560">
	<ele>1367.00</ele>
	<time>2024-07-24T10:18:49.000Z</time>
</trkpt>
<trkpt lat="46.0410110" lon="10.3765370">
	<ele>1366.80</ele>
	<time>2024-07-24T10:18:50.000Z</time>
</trkpt>
<trkpt lat="46.0410010" lon="10.3765220">
	<ele>1366.40</ele>
	<time>2024-07-24T10:18:51.000Z</time>
</trkpt>
<trkpt lat="46.0409920" lon="10.3765080">
	<ele>1366.20</ele>
	<time>2024-07-24T10:18:52.000Z</time>
</trkpt>
<trkpt lat="46.0409830" lon="10.3764960">
	<ele>1366.00</ele>
	<time>2024-07-24T10:18:53.000Z</time>
</trkpt>
<trkpt lat="46.0409730" lon="10.3764870">
	<ele>1365.80</ele>
	<time>2024-07-24T10:18:54.000Z</time>
</trkpt>
<trkpt lat="46.0409630" lon="10.3764820">
	<ele>1365.80</ele>
	<time>2024-07-24T10:18:55.000Z</time>
</trkpt>
<trkpt lat="46.0409530" lon="10.3764750">
	<ele>1365.80</ele>
	<time>2024-07-24T10:18:56.000Z</time>
</trkpt>
<trkpt lat="46.0409410" lon="10.3764700">
	<ele>1365.80</ele>
	<time>2024-07-24T10:18:57.000Z</time>
</trkpt>
<trkpt lat="46.0409290" lon="10.3764640">
	<ele>1365.60</ele>
	<time>2024-07-24T10:18:58.000Z</time>
</trkpt>
<trkpt lat="46.0409170" lon="10.3764600">
	<ele>1365.40</ele>
	<time>2024-07-24T10:18:59.000Z</time>
</trkpt>
<trkpt lat="46.0409070" lon="10.3764570">
	<ele>1365.00</ele>
	<time>2024-07-24T10:19:00.000Z</time>
</trkpt>
<trkpt lat="46.0408960" lon="10.3764580">
	<ele>1364.80</ele>
	<time>2024-07-24T10:19:01.000Z</time>
</trkpt>
<trkpt lat="46.0408860" lon="10.3764580">
	<ele>1364.60</ele>
	<time>2024-07-24T10:19:02.000Z</time>
</trkpt>
<trkpt lat="46.0408760" lon="10.3764560">
	<ele>1364.40</ele>
	<time>2024-07-24T10:19:03.000Z</time>
</trkpt>
<trkpt lat="46.0408640" lon="10.3764550">
	<ele>1364.20</ele>
	<time>2024-07-24T10:19:04.000Z</time>
</trkpt>
<trkpt lat="46.0408530" lon="10.3764550">
	<ele>1363.80</ele>
	<time>2024-07-24T10:19:05.000Z</time>
</trkpt>
<trkpt lat="46.0408400" lon="10.3764500">
	<ele>1363.60</ele>
	<time>2024-07-24T10:19:06.000Z</time>
</trkpt>
<trkpt lat="46.0408300" lon="10.3764490">
	<ele>1363.40</ele>
	<time>2024-07-24T10:19:07.000Z</time>
</trkpt>
<trkpt lat="46.0408200" lon="10.3764480">
	<ele>1363.20</ele>
	<time>2024-07-24T10:19:08.000Z</time>
</trkpt>
<trkpt lat="46.0408100" lon="10.3764450">
	<ele>1363.00</ele>
	<time>2024-07-24T10:19:09.000Z</time>
</trkpt>
<trkpt lat="46.0408020" lon="10.3764410">
	<ele>1362.60</ele>
	<time>2024-07-24T10:19:10.000Z</time>
</trkpt>
<trkpt lat="46.0407930" lon="10.3764360">
	<ele>1362.40</ele>
	<time>2024-07-24T10:19:11.000Z</time>
</trkpt>
<trkpt lat="46.0407830" lon="10.3764310">
	<ele>1362.20</ele>
	<time>2024-07-24T10:19:12.000Z</time>
</trkpt>
<trkpt lat="46.0407730" lon="10.3764260">
	<ele>1362.00</ele>
	<time>2024-07-24T10:19:13.000Z</time>
</trkpt>
<trkpt lat="46.0407600" lon="10.3764180">
	<ele>1361.60</ele>
	<time>2024-07-24T10:19:14.000Z</time>
</trkpt>
<trkpt lat="46.0407480" lon="10.3764050">
	<ele>1361.40</ele>
	<time>2024-07-24T10:19:15.000Z</time>
</trkpt>
<trkpt lat="46.0407360" lon="10.3763940">
	<ele>1361.20</ele>
	<time>2024-07-24T10:19:16.000Z</time>
</trkpt>
<trkpt lat="46.0407260" lon="10.3763870">
	<ele>1361.00</ele>
	<time>2024-07-24T10:19:17.000Z</time>
</trkpt>
<trkpt lat="46.0407180" lon="10.3763800">
	<ele>1360.60</ele>
	<time>2024-07-24T10:19:18.000Z</time>
</trkpt>
<trkpt lat="46.0407110" lon="10.3763700">
	<ele>1360.20</ele>
	<time>2024-07-24T10:19:19.000Z</time>
</trkpt>
<trkpt lat="46.0407050" lon="10.3763610">
	<ele>1360.00</ele>
	<time>2024-07-24T10:19:20.000Z</time>
</trkpt>
<trkpt lat="46.0407010" lon="10.3763600">
	<ele>1359.60</ele>
	<time>2024-07-24T10:19:21.000Z</time>
</trkpt>
<trkpt lat="46.0407000" lon="10.3763660">
	<ele>1359.40</ele>
	<time>2024-07-24T10:19:22.000Z</time>
</trkpt>
<trkpt lat="46.0406930" lon="10.3763640">
	<ele>1359.20</ele>
	<time>2024-07-24T10:19:23.000Z</time>
</trkpt>
<trkpt lat="46.0406890" lon="10.3763620">
	<ele>1359.00</ele>
	<time>2024-07-24T10:19:24.000Z</time>
</trkpt>
<trkpt lat="46.0406850" lon="10.3763600">
	<ele>1359.00</ele>
	<time>2024-07-24T10:19:25.000Z</time>
</trkpt>
<trkpt lat="46.0406770" lon="10.3763530">
	<ele>1358.80</ele>
	<time>2024-07-24T10:19:26.000Z</time>
</trkpt>
<trkpt lat="46.0406760" lon="10.3763500">
	<ele>1358.80</ele>
	<time>2024-07-24T10:19:27.000Z</time>
</trkpt>
<trkpt lat="46.0406770" lon="10.3763480">
	<ele>1358.80</ele>
	<time>2024-07-24T10:19:28.000Z</time>
</trkpt>
<trkpt lat="46.0406750" lon="10.3763530">
	<ele>1358.80</ele>
	<time>2024-07-24T10:19:29.000Z</time>
</trkpt>
<trkpt lat="46.0406760" lon="10.3763550">
	<ele>1358.80</ele>
	<time>2024-07-24T10:19:30.000Z</time>
</trkpt>
<trkpt lat="46.0406760" lon="10.3763570">
	<ele>1358.60</ele>
	<time>2024-07-24T10:19:31.000Z</time>
</trkpt>
<trkpt lat="46.0406660" lon="10.3763530">
	<ele>1358.60</ele>
	<time>2024-07-24T10:19:32.000Z</time>
</trkpt>
<trkpt lat="46.0406660" lon="10.3763500">
	<ele>1358.40</ele>
	<time>2024-07-24T10:19:33.000Z</time>
</trkpt>
<trkpt lat="46.0406650" lon="10.3763510">
	<ele>1358.40</ele>
	<time>2024-07-24T10:19:34.000Z</time>
</trkpt>
<trkpt lat="46.0406650" lon="10.3763530">
	<ele>1358.40</ele>
	<time>2024-07-24T10:19:35.000Z</time>
</trkpt>
<trkpt lat="46.0406600" lon="10.3763490">
	<ele>1358.40</ele>
	<time>2024-07-24T10:19:36.000Z</time>
</trkpt>
<trkpt lat="46.0406530" lon="10.3763430">
	<ele>1358.20</ele>
	<time>2024-07-24T10:19:37.000Z</time>
</trkpt>
<trkpt lat="46.0406450" lon="10.3763400">
	<ele>1358.20</ele>
	<time>2024-07-24T10:19:38.000Z</time>
</trkpt>
<trkpt lat="46.0406390" lon="10.3763340">
	<ele>1358.00</ele>
	<time>2024-07-24T10:19:39.000Z</time>
</trkpt>
<trkpt lat="46.0406300" lon="10.3763340">
	<ele>1357.80</ele>
	<time>2024-07-24T10:19:40.000Z</time>
</trkpt>
<trkpt lat="46.0406220" lon="10.3763360">
	<ele>1357.60</ele>
	<time>2024-07-24T10:19:41.000Z</time>
</trkpt>
<trkpt lat="46.0406140" lon="10.3763310">
	<ele>1357.20</ele>
	<time>2024-07-24T10:19:42.000Z</time>
</trkpt>
<trkpt lat="46.0406010" lon="10.3763200">
	<ele>1357.00</ele>
	<time>2024-07-24T10:19:43.000Z</time>
</trkpt>
<trkpt lat="46.0405900" lon="10.3763130">
	<ele>1356.80</ele>
	<time>2024-07-24T10:19:44.000Z</time>
</trkpt>
<trkpt lat="46.0405790" lon="10.3763070">
	<ele>1356.60</ele>
	<time>2024-07-24T10:19:45.000Z</time>
</trkpt>
<trkpt lat="46.0405660" lon="10.3763050">
	<ele>1356.40</ele>
	<time>2024-07-24T10:19:46.000Z</time>
</trkpt>
<trkpt lat="46.0405540" lon="10.3763010">
	<ele>1356.20</ele>
	<time>2024-07-24T10:19:47.000Z</time>
</trkpt>
<trkpt lat="46.0405470" lon="10.3762940">
	<ele>1356.00</ele>
	<time>2024-07-24T10:19:48.000Z</time>
</trkpt>
<trkpt lat="46.0405420" lon="10.3762930">
	<ele>1355.80</ele>
	<time>2024-07-24T10:19:49.000Z</time>
</trkpt>
<trkpt lat="46.0405360" lon="10.3762950">
	<ele>1355.60</ele>
	<time>2024-07-24T10:19:50.000Z</time>
</trkpt>
<trkpt lat="46.0405290" lon="10.3762950">
	<ele>1355.40</ele>
	<time>2024-07-24T10:19:51.000Z</time>
</trkpt>
<trkpt lat="46.0405190" lon="10.3762980">
	<ele>1355.20</ele>
	<time>2024-07-24T10:19:52.000Z</time>
</trkpt>
<trkpt lat="46.0405100" lon="10.3762980">
	<ele>1355.20</ele>
	<time>2024-07-24T10:19:53.000Z</time>
</trkpt>
<trkpt lat="46.0405000" lon="10.3763020">
	<ele>1354.80</ele>
	<time>2024-07-24T10:19:54.000Z</time>
</trkpt>
<trkpt lat="46.0404880" lon="10.3763030">
	<ele>1354.60</ele>
	<time>2024-07-24T10:19:55.000Z</time>
</trkpt>
<trkpt lat="46.0404760" lon="10.3763010">
	<ele>1354.40</ele>
	<time>2024-07-24T10:19:56.000Z</time>
</trkpt>
<trkpt lat="46.0404630" lon="10.3763040">
	<ele>1354.20</ele>
	<time>2024-07-24T10:19:57.000Z</time>
</trkpt>
<trkpt lat="46.0404490" lon="10.3763140">
	<ele>1354.20</ele>
	<time>2024-07-24T10:19:58.000Z</time>
</trkpt>
<trkpt lat="46.0404310" lon="10.3763170">
	<ele>1354.00</ele>
	<time>2024-07-24T10:19:59.000Z</time>
</trkpt>
<trkpt lat="46.0404210" lon="10.3763130">
	<ele>1354.00</ele>
	<time>2024-07-24T10:20:00.000Z</time>
</trkpt>
<trkpt lat="46.0404110" lon="10.3763100">
	<ele>1354.00</ele>
	<time>2024-07-24T10:20:01.000Z</time>
</trkpt>
<trkpt lat="46.0404060" lon="10.3763080">
	<ele>1354.00</ele>
	<time>2024-07-24T10:20:02.000Z</time>
</trkpt>
<trkpt lat="46.0404030" lon="10.3763070">
	<ele>1353.80</ele>
	<time>2024-07-24T10:20:03.000Z</time>
</trkpt>
<trkpt lat="46.0403950" lon="10.3763170">
	<ele>1353.80</ele>
	<time>2024-07-24T10:20:04.000Z</time>
</trkpt>
<trkpt lat="46.0403890" lon="10.3763250">
	<ele>1353.80</ele>
	<time>2024-07-24T10:20:05.000Z</time>
</trkpt>
<trkpt lat="46.0403820" lon="10.3763340">
	<ele>1353.60</ele>
	<time>2024-07-24T10:20:06.000Z</time>
</trkpt>
<trkpt lat="46.0403740" lon="10.3763420">
	<ele>1353.40</ele>
	<time>2024-07-24T10:20:07.000Z</time>
</trkpt>
<trkpt lat="46.0403610" lon="10.3763460">
	<ele>1353.20</ele>
	<time>2024-07-24T10:20:08.000Z</time>
</trkpt>
<trkpt lat="46.0403410" lon="10.3763630">
	<ele>1353.00</ele>
	<time>2024-07-24T10:20:09.000Z</time>
</trkpt>
<trkpt lat="46.0403290" lon="10.3763820">
	<ele>1352.80</ele>
	<time>2024-07-24T10:20:10.000Z</time>
</trkpt>
<trkpt lat="46.0403120" lon="10.3763960">
	<ele>1352.80</ele>
	<time>2024-07-24T10:20:11.000Z</time>
</trkpt>
<trkpt lat="46.0402950" lon="10.3764080">
	<ele>1352.60</ele>
	<time>2024-07-24T10:20:12.000Z</time>
</trkpt>
<trkpt lat="46.0402800" lon="10.3764170">
	<ele>1352.60</ele>
	<time>2024-07-24T10:20:13.000Z</time>
</trkpt>
<trkpt lat="46.0402660" lon="10.3764220">
	<ele>1352.40</ele>
	<time>2024-07-24T10:20:14.000Z</time>
</trkpt>
<trkpt lat="46.0402510" lon="10.3764220">
	<ele>1352.40</ele>
	<time>2024-07-24T10:20:15.000Z</time>
</trkpt>
<trkpt lat="46.0402420" lon="10.3764210">
	<ele>1352.00</ele>
	<time>2024-07-24T10:20:16.000Z</time>
</trkpt>
<trkpt lat="46.0402340" lon="10.3764220">
	<ele>1351.80</ele>
	<time>2024-07-24T10:20:17.000Z</time>
</trkpt>
<trkpt lat="46.0402260" lon="10.3764210">
	<ele>1351.60</ele>
	<time>2024-07-24T10:20:18.000Z</time>
</trkpt>
<trkpt lat="46.0402130" lon="10.3764210">
	<ele>1351.60</ele>
	<time>2024-07-24T10:20:19.000Z</time>
</trkpt>
<trkpt lat="46.0401960" lon="10.3764270">
	<ele>1351.40</ele>
	<time>2024-07-24T10:20:20.000Z</time>
</trkpt>
<trkpt lat="46.0401810" lon="10.3764330">
	<ele>1351.40</ele>
	<time>2024-07-24T10:20:21.000Z</time>
</trkpt>
<trkpt lat="46.0401610" lon="10.3764420">
	<ele>1351.40</ele>
	<time>2024-07-24T10:20:22.000Z</time>
</trkpt>
<trkpt lat="46.0401480" lon="10.3764530">
	<ele>1351.40</ele>
	<time>2024-07-24T10:20:23.000Z</time>
</trkpt>
<trkpt lat="46.0401400" lon="10.3764670">
	<ele>1351.20</ele>
	<time>2024-07-24T10:20:24.000Z</time>
</trkpt>
<trkpt lat="46.0401310" lon="10.3764800">
	<ele>1351.00</ele>
	<time>2024-07-24T10:20:25.000Z</time>
</trkpt>
<trkpt lat="46.0401220" lon="10.3764950">
	<ele>1350.80</ele>
	<time>2024-07-24T10:20:26.000Z</time>
</trkpt>
<trkpt lat="46.0401100" lon="10.3765070">
	<ele>1350.60</ele>
	<time>2024-07-24T10:20:27.000Z</time>
</trkpt>
<trkpt lat="46.0400950" lon="10.3765150">
	<ele>1350.40</ele>
	<time>2024-07-24T10:20:28.000Z</time>
</trkpt>
<trkpt lat="46.0400840" lon="10.3765210">
	<ele>1350.20</ele>
	<time>2024-07-24T10:20:29.000Z</time>
</trkpt>
<trkpt lat="46.0400780" lon="10.3765240">
	<ele>1350.00</ele>
	<time>2024-07-24T10:20:30.000Z</time>
</trkpt>
<trkpt lat="46.0400660" lon="10.3765270">
	<ele>1350.00</ele>
	<time>2024-07-24T10:20:31.000Z</time>
</trkpt>
<trkpt lat="46.0400590" lon="10.3765350">
	<ele>1349.80</ele>
	<time>2024-07-24T10:20:32.000Z</time>
</trkpt>
<trkpt lat="46.0400540" lon="10.3765430">
	<ele>1349.40</ele>
	<time>2024-07-24T10:20:33.000Z</time>
</trkpt>
<trkpt lat="46.0400510" lon="10.3765500">
	<ele>1349.00</ele>
	<time>2024-07-24T10:20:34.000Z</time>
</trkpt>
<trkpt lat="46.0400440" lon="10.3765540">
	<ele>1348.80</ele>
	<time>2024-07-24T10:20:35.000Z</time>
</trkpt>
<trkpt lat="46.0400330" lon="10.3765540">
	<ele>1348.60</ele>
	<time>2024-07-24T10:20:36.000Z</time>
</trkpt>
<trkpt lat="46.0400190" lon="10.3765580">
	<ele>1348.40</ele>
	<time>2024-07-24T10:20:37.000Z</time>
</trkpt>
<trkpt lat="46.0400080" lon="10.3765700">
	<ele>1348.20</ele>
	<time>2024-07-24T10:20:38.000Z</time>
</trkpt>
<trkpt lat="46.0399960" lon="10.3765790">
	<ele>1348.00</ele>
	<time>2024-07-24T10:20:39.000Z</time>
</trkpt>
<trkpt lat="46.0399830" lon="10.3765780">
	<ele>1347.80</ele>
	<time>2024-07-24T10:20:40.000Z</time>
</trkpt>
<trkpt lat="46.0399640" lon="10.3765730">
	<ele>1347.60</ele>
	<time>2024-07-24T10:20:41.000Z</time>
</trkpt>
<trkpt lat="46.0399520" lon="10.3765670">
	<ele>1347.40</ele>
	<time>2024-07-24T10:20:42.000Z</time>
</trkpt>
<trkpt lat="46.0399450" lon="10.3765690">
	<ele>1347.00</ele>
	<time>2024-07-24T10:20:43.000Z</time>
</trkpt>
<trkpt lat="46.0399400" lon="10.3765710">
	<ele>1346.80</ele>
	<time>2024-07-24T10:20:44.000Z</time>
</trkpt>
<trkpt lat="46.0399320" lon="10.3765670">
	<ele>1346.60</ele>
	<time>2024-07-24T10:20:45.000Z</time>
</trkpt>
<trkpt lat="46.0399170" lon="10.3765640">
	<ele>1346.40</ele>
	<time>2024-07-24T10:20:46.000Z</time>
</trkpt>
<trkpt lat="46.0399070" lon="10.3765640">
	<ele>1346.20</ele>
	<time>2024-07-24T10:20:47.000Z</time>
</trkpt>
<trkpt lat="46.0398980" lon="10.3765630">
	<ele>1345.80</ele>
	<time>2024-07-24T10:20:48.000Z</time>
</trkpt>
<trkpt lat="46.0398870" lon="10.3765690">
	<ele>1345.60</ele>
	<time>2024-07-24T10:20:49.000Z</time>
</trkpt>
<trkpt lat="46.0398730" lon="10.3765720">
	<ele>1345.60</ele>
	<time>2024-07-24T10:20:50.000Z</time>
</trkpt>
<trkpt lat="46.0398660" lon="10.3765790">
	<ele>1345.40</ele>
	<time>2024-07-24T10:20:51.000Z</time>
</trkpt>
<trkpt lat="46.0398560" lon="10.3765910">
	<ele>1345.20</ele>
	<time>2024-07-24T10:20:52.000Z</time>
</trkpt>
<trkpt lat="46.0398420" lon="10.3766010">
	<ele>1345.00</ele>
	<time>2024-07-24T10:20:53.000Z</time>
</trkpt>
<trkpt lat="46.0398290" lon="10.3766110">
	<ele>1344.80</ele>
	<time>2024-07-24T10:20:54.000Z</time>
</trkpt>
<trkpt lat="46.0398160" lon="10.3766190">
	<ele>1344.60</ele>
	<time>2024-07-24T10:20:55.000Z</time>
</trkpt>
<trkpt lat="46.0398050" lon="10.3766240">
	<ele>1344.40</ele>
	<time>2024-07-24T10:20:56.000Z</time>
</trkpt>
<trkpt lat="46.0397950" lon="10.3766320">
	<ele>1344.00</ele>
	<time>2024-07-24T10:20:57.000Z</time>
</trkpt>
<trkpt lat="46.0397860" lon="10.3766450">
	<ele>1343.80</ele>
	<time>2024-07-24T10:20:58.000Z</time>
</trkpt>
<trkpt lat="46.0397750" lon="10.3766590">
	<ele>1343.80</ele>
	<time>2024-07-24T10:20:59.000Z</time>
</trkpt>
<trkpt lat="46.0397680" lon="10.3766740">
	<ele>1343.60</ele>
	<time>2024-07-24T10:21:00.000Z</time>
</trkpt>
<trkpt lat="46.0397600" lon="10.3766910">
	<ele>1343.40</ele>
	<time>2024-07-24T10:21:01.000Z</time>
</trkpt>
<trkpt lat="46.0397460" lon="10.3767070">
	<ele>1343.20</ele>
	<time>2024-07-24T10:21:02.000Z</time>
</trkpt>
<trkpt lat="46.0397300" lon="10.3767200">
	<ele>1343.00</ele>
	<time>2024-07-24T10:21:03.000Z</time>
</trkpt>
<trkpt lat="46.0397120" lon="10.3767170">
	<ele>1343.00</ele>
	<time>2024-07-24T10:21:04.000Z</time>
</trkpt>
<trkpt lat="46.0396960" lon="10.3767070">
	<ele>1342.80</ele>
	<time>2024-07-24T10:21:05.000Z</time>
</trkpt>
<trkpt lat="46.0396810" lon="10.3766990">
	<ele>1342.60</ele>
	<time>2024-07-24T10:21:06.000Z</time>
</trkpt>
<trkpt lat="46.0396710" lon="10.3766980">
	<ele>1342.40</ele>
	<time>2024-07-24T10:21:07.000Z</time>
</trkpt>
<trkpt lat="46.0396630" lon="10.3766950">
	<ele>1342.20</ele>
	<time>2024-07-24T10:21:08.000Z</time>
</trkpt>
<trkpt lat="46.0396540" lon="10.3766950">
	<ele>1342.00</ele>
	<time>2024-07-24T10:21:09.000Z</time>
</trkpt>
<trkpt lat="46.0396430" lon="10.3766960">
	<ele>1341.80</ele>
	<time>2024-07-24T10:21:10.000Z</time>
</trkpt>
<trkpt lat="46.0396300" lon="10.3766990">
	<ele>1341.60</ele>
	<time>2024-07-24T10:21:11.000Z</time>
</trkpt>
<trkpt lat="46.0396160" lon="10.3766960">
	<ele>1341.40</ele>
	<time>2024-07-24T10:21:12.000Z</time>
</trkpt>
<trkpt lat="46.0396030" lon="10.3766980">
	<ele>1341.40</ele>
	<time>2024-07-24T10:21:13.000Z</time>
</trkpt>
<trkpt lat="46.0395910" lon="10.3767030">
	<ele>1341.00</ele>
	<time>2024-07-24T10:21:14.000Z</time>
</trkpt>
<trkpt lat="46.0395790" lon="10.3767060">
	<ele>1340.80</ele>
	<time>2024-07-24T10:21:15.000Z</time>
</trkpt>
<trkpt lat="46.0395680" lon="10.3767090">
	<ele>1340.60</ele>
	<time>2024-07-24T10:21:16.000Z</time>
</trkpt>
<trkpt lat="46.0395580" lon="10.3767080">
	<ele>1340.40</ele>
	<time>2024-07-24T10:21:17.000Z</time>
</trkpt>
<trkpt lat="46.0395510" lon="10.3767060">
	<ele>1340.20</ele>
	<time>2024-07-24T10:21:18.000Z</time>
</trkpt>
<trkpt lat="46.0395430" lon="10.3767020">
	<ele>1340.00</ele>
	<time>2024-07-24T10:21:19.000Z</time>
</trkpt>
<trkpt lat="46.0395300" lon="10.3766940">
	<ele>1339.60</ele>
	<time>2024-07-24T10:21:20.000Z</time>
</trkpt>
<trkpt lat="46.0395170" lon="10.3766850">
	<ele>1339.40</ele>
	<time>2024-07-24T10:21:21.000Z</time>
</trkpt>
<trkpt lat="46.0395030" lon="10.3766760">
	<ele>1339.20</ele>
	<time>2024-07-24T10:21:22.000Z</time>
</trkpt>
<trkpt lat="46.0394860" lon="10.3766670">
	<ele>1339.20</ele>
	<time>2024-07-24T10:21:23.000Z</time>
</trkpt>
<trkpt lat="46.0394750" lon="10.3766630">
	<ele>1339.00</ele>
	<time>2024-07-24T10:21:24.000Z</time>
</trkpt>
<trkpt lat="46.0394640" lon="10.3766650">
	<ele>1338.60</ele>
	<time>2024-07-24T10:21:25.000Z</time>
</trkpt>
<trkpt lat="46.0394530" lon="10.3766680">
	<ele>1338.40</ele>
	<time>2024-07-24T10:21:26.000Z</time>
</trkpt>
<trkpt lat="46.0394430" lon="10.3766720">
	<ele>1338.00</ele>
	<time>2024-07-24T10:21:27.000Z</time>
</trkpt>
<trkpt lat="46.0394320" lon="10.3766750">
	<ele>1337.80</ele>
	<time>2024-07-24T10:21:28.000Z</time>
</trkpt>
<trkpt lat="46.0394200" lon="10.3766780">
	<ele>1337.60</ele>
	<time>2024-07-24T10:21:29.000Z</time>
</trkpt>
<trkpt lat="46.0394070" lon="10.3766820">
	<ele>1337.40</ele>
	<time>2024-07-24T10:21:30.000Z</time>
</trkpt>
<trkpt lat="46.0393940" lon="10.3766820">
	<ele>1337.00</ele>
	<time>2024-07-24T10:21:31.000Z</time>
</trkpt>
<trkpt lat="46.0393830" lon="10.3766830">
	<ele>1336.80</ele>
	<time>2024-07-24T10:21:32.000Z</time>
</trkpt>
<trkpt lat="46.0393740" lon="10.3766840">
	<ele>1336.40</ele>
	<time>2024-07-24T10:21:33.000Z</time>
</trkpt>
<trkpt lat="46.0393650" lon="10.3766820">
	<ele>1336.20</ele>
	<time>2024-07-24T10:21:34.000Z</time>
</trkpt>
<trkpt lat="46.0393550" lon="10.3766850">
	<ele>1336.00</ele>
	<time>2024-07-24T10:21:35.000Z</time>
</trkpt>
<trkpt lat="46.0393470" lon="10.3766920">
	<ele>1335.80</ele>
	<time>2024-07-24T10:21:36.000Z</time>
</trkpt>
<trkpt lat="46.0393400" lon="10.3766970">
	<ele>1335.60</ele>
	<time>2024-07-24T10:21:37.000Z</time>
</trkpt>
<trkpt lat="46.0393320" lon="10.3767050">
	<ele>1335.40</ele>
	<time>2024-07-24T10:21:38.000Z</time>
</trkpt>
<trkpt lat="46.0393210" lon="10.3767100">
	<ele>1335.00</ele>
	<time>2024-07-24T10:21:39.000Z</time>
</trkpt>
<trkpt lat="46.0393100" lon="10.3767140">
	<ele>1334.80</ele>
	<time>2024-07-24T10:21:40.000Z</time>
</trkpt>
<trkpt lat="46.0393020" lon="10.3767190">
	<ele>1334.60</ele>
	<time>2024-07-24T10:21:41.000Z</time>
</trkpt>
<trkpt lat="46.0392930" lon="10.3767240">
	<ele>1334.20</ele>
	<time>2024-07-24T10:21:42.000Z</time>
</trkpt>
<trkpt lat="46.0392860" lon="10.3767260">
	<ele>1334.00</ele>
	<time>2024-07-24T10:21:43.000Z</time>
</trkpt>
<trkpt lat="46.0392800" lon="10.3767240">
	<ele>1333.80</ele>
	<time>2024-07-24T10:21:44.000Z</time>
</trkpt>
<trkpt lat="46.0392730" lon="10.3767300">
	<ele>1333.60</ele>
	<time>2024-07-24T10:21:45.000Z</time>
</trkpt>
<trkpt lat="46.0392640" lon="10.3767370">
	<ele>1333.40</ele>
	<time>2024-07-24T10:21:46.000Z</time>
</trkpt>
<trkpt lat="46.0392550" lon="10.3767380">
	<ele>1333.00</ele>
	<time>2024-07-24T10:21:47.000Z</time>
</trkpt>
<trkpt lat="46.0392470" lon="10.3767380">
	<ele>1332.80</ele>
	<time>2024-07-24T10:21:48.000Z</time>
</trkpt>
<trkpt lat="46.0392410" lon="10.3767390">
	<ele>1332.60</ele>
	<time>2024-07-24T10:21:49.000Z</time>
</trkpt>
<trkpt lat="46.0392330" lon="10.3767400">
	<ele>1332.20</ele>
	<time>2024-07-24T10:21:50.000Z</time>
</trkpt>
<trkpt lat="46.0392240" lon="10.3767450">
	<ele>1331.80</ele>
	<time>2024-07-24T10:21:51.000Z</time>
</trkpt>
<trkpt lat="46.0392150" lon="10.3767490">
	<ele>1331.60</ele>
	<time>2024-07-24T10:21:52.000Z</time>
</trkpt>
<trkpt lat="46.0392060" lon="10.3767520">
	<ele>1331.60</ele>
	<time>2024-07-24T10:21:53.000Z</time>
</trkpt>
<trkpt lat="46.0391960" lon="10.3767550">
	<ele>1331.40</ele>
	<time>2024-07-24T10:21:54.000Z</time>
</trkpt>
<trkpt lat="46.0391840" lon="10.3767580">
	<ele>1331.20</ele>
	<time>2024-07-24T10:21:55.000Z</time>
</trkpt>
<trkpt lat="46.0391710" lon="10.3767620">
	<ele>1331.00</ele>
	<time>2024-07-24T10:21:56.000Z</time>
</trkpt>
<trkpt lat="46.0391600" lon="10.3767610">
	<ele>1330.40</ele>
	<time>2024-07-24T10:21:57.000Z</time>
</trkpt>
<trkpt lat="46.0391460" lon="10.3767650">
	<ele>1330.20</ele>
	<time>2024-07-24T10:21:58.000Z</time>
</trkpt>
<trkpt lat="46.0391330" lon="10.3767700">
	<ele>1330.00</ele>
	<time>2024-07-24T10:21:59.000Z</time>
</trkpt>
<trkpt lat="46.0391190" lon="10.3767710">
	<ele>1329.80</ele>
	<time>2024-07-24T10:22:00.000Z</time>
</trkpt>
<trkpt lat="46.0391050" lon="10.3767720">
	<ele>1329.60</ele>
	<time>2024-07-24T10:22:01.000Z</time>
</trkpt>
<trkpt lat="46.0390930" lon="10.3767720">
	<ele>1329.60</ele>
	<time>2024-07-24T10:22:02.000Z</time>
</trkpt>
<trkpt lat="46.0390790" lon="10.3767700">
	<ele>1329.60</ele>
	<time>2024-07-24T10:22:03.000Z</time>
</trkpt>
<trkpt lat="46.0390650" lon="10.3767690">
	<ele>1329.40</ele>
	<time>2024-07-24T10:22:04.000Z</time>
</trkpt>
<trkpt lat="46.0390530" lon="10.3767670">
	<ele>1329.40</ele>
	<time>2024-07-24T10:22:05.000Z</time>
</trkpt>
<trkpt lat="46.0390420" lon="10.3767640">
	<ele>1329.40</ele>
	<time>2024-07-24T10:22:06.000Z</time>
</trkpt>
<trkpt lat="46.0390320" lon="10.3767660">
	<ele>1329.20</ele>
	<time>2024-07-24T10:22:07.000Z</time>
</trkpt>
<trkpt lat="46.0390210" lon="10.3767680">
	<ele>1329.20</ele>
	<time>2024-07-24T10:22:08.000Z</time>
</trkpt>
<trkpt lat="46.0390090" lon="10.3767630">
	<ele>1329.20</ele>
	<time>2024-07-24T10:22:09.000Z</time>
</trkpt>
<trkpt lat="46.0389970" lon="10.3767600">
	<ele>1329.20</ele>
	<time>2024-07-24T10:22:10.000Z</time>
</trkpt>
<trkpt lat="46.0389860" lon="10.3767580">
	<ele>1329.20</ele>
	<time>2024-07-24T10:22:11.000Z</time>
</trkpt>
<trkpt lat="46.0389740" lon="10.3767510">
	<ele>1329.20</ele>
	<time>2024-07-24T10:22:12.000Z</time>
</trkpt>
<trkpt lat="46.0389600" lon="10.3767400">
	<ele>1329.20</ele>
	<time>2024-07-24T10:22:13.000Z</time>
</trkpt>
<trkpt lat="46.0389440" lon="10.3767350">
	<ele>1328.80</ele>
	<time>2024-07-24T10:22:14.000Z</time>
</trkpt>
<trkpt lat="46.0389310" lon="10.3767370">
	<ele>1328.60</ele>
	<time>2024-07-24T10:22:15.000Z</time>
</trkpt>
<trkpt lat="46.0389170" lon="10.3767410">
	<ele>1328.40</ele>
	<time>2024-07-24T10:22:16.000Z</time>
</trkpt>
<trkpt lat="46.0389030" lon="10.3767390">
	<ele>1328.40</ele>
	<time>2024-07-24T10:22:17.000Z</time>
</trkpt>
<trkpt lat="46.0388840" lon="10.3767440">
	<ele>1328.20</ele>
	<time>2024-07-24T10:22:18.000Z</time>
</trkpt>
<trkpt lat="46.0388630" lon="10.3767480">
	<ele>1328.20</ele>
	<time>2024-07-24T10:22:19.000Z</time>
</trkpt>
<trkpt lat="46.0388470" lon="10.3767380">
	<ele>1328.00</ele>
	<time>2024-07-24T10:22:20.000Z</time>
</trkpt>
<trkpt lat="46.0388320" lon="10.3767410">
	<ele>1327.80</ele>
	<time>2024-07-24T10:22:21.000Z</time>
</trkpt>
<trkpt lat="46.0388200" lon="10.3767420">
	<ele>1327.80</ele>
	<time>2024-07-24T10:22:22.000Z</time>
</trkpt>
<trkpt lat="46.0388060" lon="10.3767420">
	<ele>1327.80</ele>
	<time>2024-07-24T10:22:23.000Z</time>
</trkpt>
<trkpt lat="46.0387930" lon="10.3767380">
	<ele>1327.80</ele>
	<time>2024-07-24T10:22:24.000Z</time>
</trkpt>
<trkpt lat="46.0387820" lon="10.3767360">
	<ele>1327.60</ele>
	<time>2024-07-24T10:22:25.000Z</time>
</trkpt>
<trkpt lat="46.0387700" lon="10.3767370">
	<ele>1327.60</ele>
	<time>2024-07-24T10:22:26.000Z</time>
</trkpt>
<trkpt lat="46.0387610" lon="10.3767420">
	<ele>1327.60</ele>
	<time>2024-07-24T10:22:27.000Z</time>
</trkpt>
<trkpt lat="46.0387500" lon="10.3767480">
	<ele>1327.40</ele>
	<time>2024-07-24T10:22:28.000Z</time>
</trkpt>
<trkpt lat="46.0387360" lon="10.3767620">
	<ele>1327.40</ele>
	<time>2024-07-24T10:22:29.000Z</time>
</trkpt>
<trkpt lat="46.0387250" lon="10.3767660">
	<ele>1327.40</ele>
	<time>2024-07-24T10:22:30.000Z</time>
</trkpt>
<trkpt lat="46.0387140" lon="10.3767680">
	<ele>1327.20</ele>
	<time>2024-07-24T10:22:31.000Z</time>
</trkpt>
<trkpt lat="46.0387010" lon="10.3767660">
	<ele>1327.00</ele>
	<time>2024-07-24T10:22:32.000Z</time>
</trkpt>
<trkpt lat="46.0386920" lon="10.3767600">
	<ele>1326.80</ele>
	<time>2024-07-24T10:22:33.000Z</time>
</trkpt>
<trkpt lat="46.0386770" lon="10.3767490">
	<ele>1326.60</ele>
	<time>2024-07-24T10:22:34.000Z</time>
</trkpt>
<trkpt lat="46.0386670" lon="10.3767410">
	<ele>1326.40</ele>
	<time>2024-07-24T10:22:35.000Z</time>
</trkpt>
<trkpt lat="46.0386550" lon="10.3767360">
	<ele>1326.20</ele>
	<time>2024-07-24T10:22:36.000Z</time>
</trkpt>
<trkpt lat="46.0386430" lon="10.3767320">
	<ele>1326.00</ele>
	<time>2024-07-24T10:22:37.000Z</time>
</trkpt>
<trkpt lat="46.0386290" lon="10.3767260">
	<ele>1325.80</ele>
	<time>2024-07-24T10:22:38.000Z</time>
</trkpt>
<trkpt lat="46.0386160" lon="10.3767170">
	<ele>1325.60</ele>
	<time>2024-07-24T10:22:39.000Z</time>
</trkpt>
<trkpt lat="46.0386040" lon="10.3767130">
	<ele>1325.20</ele>
	<time>2024-07-24T10:22:40.000Z</time>
</trkpt>
<trkpt lat="46.0385940" lon="10.3767200">
	<ele>1325.00</ele>
	<time>2024-07-24T10:22:41.000Z</time>
</trkpt>
<trkpt lat="46.0385860" lon="10.3767330">
	<ele>1325.00</ele>
	<time>2024-07-24T10:22:42.000Z</time>
</trkpt>
<trkpt lat="46.0385790" lon="10.3767440">
	<ele>1324.60</ele>
	<time>2024-07-24T10:22:43.000Z</time>
</trkpt>
<trkpt lat="46.0385650" lon="10.3767550">
	<ele>1324.40</ele>
	<time>2024-07-24T10:22:44.000Z</time>
</trkpt>
<trkpt lat="46.0385510" lon="10.3767640">
	<ele>1324.20</ele>
	<time>2024-07-24T10:22:45.000Z</time>
</trkpt>
<trkpt lat="46.0385390" lon="10.3767730">
	<ele>1324.00</ele>
	<time>2024-07-24T10:22:46.000Z</time>
</trkpt>
<trkpt lat="46.0385360" lon="10.3767890">
	<ele>1324.00</ele>
	<time>2024-07-24T10:22:47.000Z</time>
</trkpt>
<trkpt lat="46.0385300" lon="10.3768010">
	<ele>1324.00</ele>
	<time>2024-07-24T10:22:48.000Z</time>
</trkpt>
<trkpt lat="46.0385240" lon="10.3768030">
	<ele>1323.80</ele>
	<time>2024-07-24T10:22:49.000Z</time>
</trkpt>
<trkpt lat="46.0385130" lon="10.3768010">
	<ele>1323.60</ele>
	<time>2024-07-24T10:22:50.000Z</time>
</trkpt>
<trkpt lat="46.0384990" lon="10.3768030">
	<ele>1323.20</ele>
	<time>2024-07-24T10:22:51.000Z</time>
</trkpt>
<trkpt lat="46.0384850" lon="10.3768110">
	<ele>1322.80</ele>
	<time>2024-07-24T10:22:52.000Z</time>
</trkpt>
<trkpt lat="46.0384740" lon="10.3768240">
	<ele>1322.60</ele>
	<time>2024-07-24T10:22:53.000Z</time>
</trkpt>
<trkpt lat="46.0384630" lon="10.3768320">
	<ele>1322.40</ele>
	<time>2024-07-24T10:22:54.000Z</time>
</trkpt>
<trkpt lat="46.0384500" lon="10.3768330">
	<ele>1322.40</ele>
	<time>2024-07-24T10:22:55.000Z</time>
</trkpt>
<trkpt lat="46.0384390" lon="10.3768350">
	<ele>1322.20</ele>
	<time>2024-07-24T10:22:56.000Z</time>
</trkpt>
<trkpt lat="46.0384280" lon="10.3768380">
	<ele>1322.00</ele>
	<time>2024-07-24T10:22:57.000Z</time>
</trkpt>
<trkpt lat="46.0384160" lon="10.3768390">
	<ele>1321.80</ele>
	<time>2024-07-24T10:22:58.000Z</time>
</trkpt>
<trkpt lat="46.0384020" lon="10.3768420">
	<ele>1321.60</ele>
	<time>2024-07-24T10:22:59.000Z</time>
</trkpt>
<trkpt lat="46.0383900" lon="10.3768480">
	<ele>1321.40</ele>
	<time>2024-07-24T10:23:00.000Z</time>
</trkpt>
<trkpt lat="46.0383770" lon="10.3768540">
	<ele>1321.20</ele>
	<time>2024-07-24T10:23:01.000Z</time>
</trkpt>
<trkpt lat="46.0383660" lon="10.3768540">
	<ele>1321.20</ele>
	<time>2024-07-24T10:23:02.000Z</time>
</trkpt>
<trkpt lat="46.0383550" lon="10.3768580">
	<ele>1321.00</ele>
	<time>2024-07-24T10:23:03.000Z</time>
</trkpt>
<trkpt lat="46.0383460" lon="10.3768640">
	<ele>1320.80</ele>
	<time>2024-07-24T10:23:04.000Z</time>
</trkpt>
<trkpt lat="46.0383350" lon="10.3768680">
	<ele>1320.80</ele>
	<time>2024-07-24T10:23:05.000Z</time>
</trkpt>
<trkpt lat="46.0383200" lon="10.3768720">
	<ele>1320.60</ele>
	<time>2024-07-24T10:23:06.000Z</time>
</trkpt>
<trkpt lat="46.0383070" lon="10.3768710">
	<ele>1320.40</ele>
	<time>2024-07-24T10:23:07.000Z</time>
</trkpt>
<trkpt lat="46.0382980" lon="10.3768690">
	<ele>1320.20</ele>
	<time>2024-07-24T10:23:08.000Z</time>
</trkpt>
<trkpt lat="46.0382900" lon="10.3768750">
	<ele>1320.00</ele>
	<time>2024-07-24T10:23:09.000Z</time>
</trkpt>
<trkpt lat="46.0382840" lon="10.3768830">
	<ele>1319.80</ele>
	<time>2024-07-24T10:23:10.000Z</time>
</trkpt>
<trkpt lat="46.0382790" lon="10.3768950">
	<ele>1319.80</ele>
	<time>2024-07-24T10:23:11.000Z</time>
</trkpt>
<trkpt lat="46.0382680" lon="10.3769050">
	<ele>1319.60</ele>
	<time>2024-07-24T10:23:12.000Z</time>
</trkpt>
<trkpt lat="46.0382590" lon="10.3769160">
	<ele>1319.40</ele>
	<time>2024-07-24T10:23:13.000Z</time>
</trkpt>
<trkpt lat="46.0382480" lon="10.3769280">
	<ele>1319.40</ele>
	<time>2024-07-24T10:23:14.000Z</time>
</trkpt>
<trkpt lat="46.0382370" lon="10.3769360">
	<ele>1319.20</ele>
	<time>2024-07-24T10:23:15.000Z</time>
</trkpt>
<trkpt lat="46.0382240" lon="10.3769440">
	<ele>1318.80</ele>
	<time>2024-07-24T10:23:16.000Z</time>
</trkpt>
<trkpt lat="46.0382120" lon="10.3769580">
	<ele>1318.60</ele>
	<time>2024-07-24T10:23:17.000Z</time>
</trkpt>
<trkpt lat="46.0382000" lon="10.3769710">
	<ele>1318.40</ele>
	<time>2024-07-24T10:23:18.000Z</time>
</trkpt>
<trkpt lat="46.0381900" lon="10.3769770">
	<ele>1318.20</ele>
	<time>2024-07-24T10:23:19.000Z</time>
</trkpt>
<trkpt lat="46.0381780" lon="10.3769810">
	<ele>1318.20</ele>
	<time>2024-07-24T10:23:20.000Z</time>
</trkpt>
<trkpt lat="46.0381670" lon="10.3769840">
	<ele>1318.00</ele>
	<time>2024-07-24T10:23:21.000Z</time>
</trkpt>
<trkpt lat="46.0381560" lon="10.3769790">
	<ele>1317.60</ele>
	<time>2024-07-24T10:23:22.000Z</time>
</trkpt>
<trkpt lat="46.0381450" lon="10.3769700">
	<ele>1317.40</ele>
	<time>2024-07-24T10:23:23.000Z</time>
</trkpt>
<trkpt lat="46.0381370" lon="10.3769590">
	<ele>1317.20</ele>
	<time>2024-07-24T10:23:24.000Z</time>
</trkpt>
<trkpt lat="46.0381270" lon="10.3769540">
	<ele>1317.20</ele>
	<time>2024-07-24T10:23:25.000Z</time>
</trkpt>
<trkpt lat="46.0381260" lon="10.3769470">
	<ele>1317.00</ele>
	<time>2024-07-24T10:23:26.000Z</time>
</trkpt>
<trkpt lat="46.0381270" lon="10.3769340">
	<ele>1317.00</ele>
	<time>2024-07-24T10:23:27.000Z</time>
</trkpt>
<trkpt lat="46.0381260" lon="10.3769230">
	<ele>1316.80</ele>
	<time>2024-07-24T10:23:28.000Z</time>
</trkpt>
<trkpt lat="46.0381220" lon="10.3769100">
	<ele>1316.60</ele>
	<time>2024-07-24T10:23:29.000Z</time>
</trkpt>
<trkpt lat="46.0381180" lon="10.3768940">
	<ele>1316.40</ele>
	<time>2024-07-24T10:23:30.000Z</time>
</trkpt>
<trkpt lat="46.0381160" lon="10.3768850">
	<ele>1316.00</ele>
	<time>2024-07-24T10:23:31.000Z</time>
</trkpt>
<trkpt lat="46.0381140" lon="10.3768760">
	<ele>1315.80</ele>
	<time>2024-07-24T10:23:32.000Z</time>
</trkpt>
<trkpt lat="46.0381160" lon="10.3768690">
	<ele>1315.60</ele>
	<time>2024-07-24T10:23:33.000Z</time>
</trkpt>
<trkpt lat="46.0381200" lon="10.3768680">
	<ele>1315.40</ele>
	<time>2024-07-24T10:23:34.000Z</time>
</trkpt>
<trkpt lat="46.0381240" lon="10.3768620">
	<ele>1315.00</ele>
	<time>2024-07-24T10:23:35.000Z</time>
</trkpt>
<trkpt lat="46.0381260" lon="10.3768470">
	<ele>1314.80</ele>
	<time>2024-07-24T10:23:36.000Z</time>
</trkpt>
<trkpt lat="46.0381270" lon="10.3768350">
	<ele>1314.40</ele>
	<time>2024-07-24T10:23:37.000Z</time>
</trkpt>
<trkpt lat="46.0381250" lon="10.3768230">
	<ele>1314.20</ele>
	<time>2024-07-24T10:23:38.000Z</time>
</trkpt>
<trkpt lat="46.0381270" lon="10.3768080">
	<ele>1314.00</ele>
	<time>2024-07-24T10:23:39.000Z</time>
</trkpt>
<trkpt lat="46.0381280" lon="10.3767960">
	<ele>1313.60</ele>
	<time>2024-07-24T10:23:40.000Z</time>
</trkpt>
<trkpt lat="46.0381250" lon="10.3767820">
	<ele>1313.40</ele>
	<time>2024-07-24T10:23:41.000Z</time>
</trkpt>
<trkpt lat="46.0381220" lon="10.3767710">
	<ele>1313.00</ele>
	<time>2024-07-24T10:23:42.000Z</time>
</trkpt>
<trkpt lat="46.0381250" lon="10.3767610">
	<ele>1312.80</ele>
	<time>2024-07-24T10:23:43.000Z</time>
</trkpt>
<trkpt lat="46.0381260" lon="10.3767510">
	<ele>1312.60</ele>
	<time>2024-07-24T10:23:44.000Z</time>
</trkpt>
<trkpt lat="46.0381260" lon="10.3767450">
	<ele>1312.20</ele>
	<time>2024-07-24T10:23:45.000Z</time>
</trkpt>
<trkpt lat="46.0381260" lon="10.3767360">
	<ele>1311.80</ele>
	<time>2024-07-24T10:23:46.000Z</time>
</trkpt>
<trkpt lat="46.0381280" lon="10.3767260">
	<ele>1311.40</ele>
	<time>2024-07-24T10:23:47.000Z</time>
</trkpt>
<trkpt lat="46.0381310" lon="10.3767140">
	<ele>1311.20</ele>
	<time>2024-07-24T10:23:48.000Z</time>
</trkpt>
<trkpt lat="46.0381350" lon="10.3766980">
	<ele>1311.00</ele>
	<time>2024-07-24T10:23:49.000Z</time>
</trkpt>
<trkpt lat="46.0381420" lon="10.3766900">
	<ele>1310.40</ele>
	<time>2024-07-24T10:23:50.000Z</time>
</trkpt>
<trkpt lat="46.0381470" lon="10.3766800">
	<ele>1310.20</ele>
	<time>2024-07-24T10:23:51.000Z</time>
</trkpt>
<trkpt lat="46.0381540" lon="10.3766690">
	<ele>1310.00</ele>
	<time>2024-07-24T10:23:52.000Z</time>
</trkpt>
<trkpt lat="46.0381620" lon="10.3766600">
	<ele>1310.00</ele>
	<time>2024-07-24T10:23:53.000Z</time>
</trkpt>
<trkpt lat="46.0381720" lon="10.3766640">
	<ele>1309.60</ele>
	<time>2024-07-24T10:23:54.000Z</time>
</trkpt>
<trkpt lat="46.0381850" lon="10.3766660">
	<ele>1309.20</ele>
	<time>2024-07-24T10:23:55.000Z</time>
</trkpt>
<trkpt lat="46.0381980" lon="10.3766600">
	<ele>1309.00</ele>
	<time>2024-07-24T10:23:56.000Z</time>
</trkpt>
<trkpt lat="46.0382050" lon="10.3766400">
	<ele>1308.80</ele>
	<time>2024-07-24T10:23:57.000Z</time>
</trkpt>
<trkpt lat="46.0382060" lon="10.3766210">
	<ele>1308.60</ele>
	<time>2024-07-24T10:23:58.000Z</time>
</trkpt>
<trkpt lat="46.0382080" lon="10.3766090">
	<ele>1308.20</ele>
	<time>2024-07-24T10:23:59.000Z</time>
</trkpt>
<trkpt lat="46.0382070" lon="10.3766080">
	<ele>1307.80</ele>
	<time>2024-07-24T10:24:00.000Z</time>
</trkpt>
<trkpt lat="46.0382080" lon="10.3766040">
	<ele>1307.80</ele>
	<time>2024-07-24T10:24:01.000Z</time>
</trkpt>
<trkpt lat="46.0382100" lon="10.3765960">
	<ele>1307.40</ele>
	<time>2024-07-24T10:24:02.000Z</time>
</trkpt>
<trkpt lat="46.0382190" lon="10.3765920">
	<ele>1307.20</ele>
	<time>2024-07-24T10:24:03.000Z</time>
</trkpt>
<trkpt lat="46.0382230" lon="10.3765940">
	<ele>1307.00</ele>
	<time>2024-07-24T10:24:04.000Z</time>
</trkpt>
<trkpt lat="46.0382360" lon="10.3765990">
	<ele>1306.60</ele>
	<time>2024-07-24T10:24:05.000Z</time>
</trkpt>
<trkpt lat="46.0382520" lon="10.3766050">
	<ele>1306.60</ele>
	<time>2024-07-24T10:24:06.000Z</time>
</trkpt>
<trkpt lat="46.0382660" lon="10.3766130">
	<ele>1306.20</ele>
	<time>2024-07-24T10:24:07.000Z</time>
</trkpt>
<trkpt lat="46.0382820" lon="10.3766210">
	<ele>1306.00</ele>
	<time>2024-07-24T10:24:08.000Z</time>
</trkpt>
<trkpt lat="46.0382880" lon="10.3766170">
	<ele>1305.80</ele>
	<time>2024-07-24T10:24:09.000Z</time>
</trkpt>
<trkpt lat="46.0382960" lon="10.3766060">
	<ele>1305.60</ele>
	<time>2024-07-24T10:24:10.000Z</time>
</trkpt>
<trkpt lat="46.0383020" lon="10.3765920">
	<ele>1305.20</ele>
	<time>2024-07-24T10:24:11.000Z</time>
</trkpt>
<trkpt lat="46.0383140" lon="10.3765750">
	<ele>1305.00</ele>
	<time>2024-07-24T10:24:12.000Z</time>
</trkpt>
<trkpt lat="46.0383250" lon="10.3765490">
	<ele>1304.80</ele>
	<time>2024-07-24T10:24:13.000Z</time>
</trkpt>
<trkpt lat="46.0383300" lon="10.3765170">
	<ele>1304.60</ele>
	<time>2024-07-24T10:24:14.000Z</time>
</trkpt>
<trkpt lat="46.0383310" lon="10.3764910">
	<ele>1304.40</ele>
	<time>2024-07-24T10:24:15.000Z</time>
</trkpt>
<trkpt lat="46.0383300" lon="10.3764680">
	<ele>1304.20</ele>
	<time>2024-07-24T10:24:16.000Z</time>
</trkpt>
<trkpt lat="46.0383300" lon="10.3764460">
	<ele>1304.00</ele>
	<time>2024-07-24T10:24:17.000Z</time>
</trkpt>
<trkpt lat="46.0383300" lon="10.3764210">
	<ele>1303.80</ele>
	<time>2024-07-24T10:24:18.000Z</time>
</trkpt>
<trkpt lat="46.0383340" lon="10.3764040">
	<ele>1303.80</ele>
	<time>2024-07-24T10:24:19.000Z</time>
</trkpt>
<trkpt lat="46.0383380" lon="10.3763890">
	<ele>1303.40</ele>
	<time>2024-07-24T10:24:20.000Z</time>
</trkpt>
<trkpt lat="46.0383450" lon="10.3763780">
	<ele>1303.40</ele>
	<time>2024-07-24T10:24:21.000Z</time>
</trkpt>
<trkpt lat="46.0383520" lon="10.3763630">
	<ele>1303.20</ele>
	<time>2024-07-24T10:24:22.000Z</time>
</trkpt>
<trkpt lat="46.0383560" lon="10.3763510">
	<ele>1303.00</ele>
	<time>2024-07-24T10:24:23.000Z</time>
</trkpt>
<trkpt lat="46.0383630" lon="10.3763350">
	<ele>1303.00</ele>
	<time>2024-07-24T10:24:24.000Z</time>
</trkpt>
<trkpt lat="46.0383680" lon="10.3763290">
	<ele>1302.80</ele>
	<time>2024-07-24T10:24:25.000Z</time>
</trkpt>
<trkpt lat="46.0383740" lon="10.3763270">
	<ele>1302.60</ele>
	<time>2024-07-24T10:24:26.000Z</time>
</trkpt>
<trkpt lat="46.0383800" lon="10.3763250">
	<ele>1302.20</ele>
	<time>2024-07-24T10:24:27.000Z</time>
</trkpt>
<trkpt lat="46.0383900" lon="10.3763150">
	<ele>1302.00</ele>
	<time>2024-07-24T10:24:28.000Z</time>
</trkpt>
<trkpt lat="46.0384010" lon="10.3763030">
	<ele>1302.00</ele>
	<time>2024-07-24T10:24:29.000Z</time>
</trkpt>
<trkpt lat="46.0384110" lon="10.3762900">
	<ele>1301.80</ele>
	<time>2024-07-24T10:24:30.000Z</time>
</trkpt>
<trkpt lat="46.0384180" lon="10.3762760">
	<ele>1301.60</ele>
	<time>2024-07-24T10:24:31.000Z</time>
</trkpt>
<trkpt lat="46.0384290" lon="10.3762660">
	<ele>1301.40</ele>
	<time>2024-07-24T10:24:32.000Z</time>
</trkpt>
<trkpt lat="46.0384420" lon="10.3762630">
	<ele>1301.40</ele>
	<time>2024-07-24T10:24:33.000Z</time>
</trkpt>
<trkpt lat="46.0384520" lon="10.3762540">
	<ele>1301.20</ele>
	<time>2024-07-24T10:24:34.000Z</time>
</trkpt>
<trkpt lat="46.0384610" lon="10.3762420">
	<ele>1301.00</ele>
	<time>2024-07-24T10:24:35.000Z</time>
</trkpt>
<trkpt lat="46.0384670" lon="10.3762360">
	<ele>1301.00</ele>
	<time>2024-07-24T10:24:36.000Z</time>
</trkpt>
<trkpt lat="46.0384700" lon="10.3762240">
	<ele>1300.80</ele>
	<time>2024-07-24T10:24:37.000Z</time>
</trkpt>
<trkpt lat="46.0384760" lon="10.3762130">
	<ele>1300.80</ele>
	<time>2024-07-24T10:24:38.000Z</time>
</trkpt>
<trkpt lat="46.0384830" lon="10.3762020">
	<ele>1300.60</ele>
	<time>2024-07-24T10:24:39.000Z</time>
</trkpt>
<trkpt lat="46.0384930" lon="10.3761970">
	<ele>1300.40</ele>
	<time>2024-07-24T10:24:40.000Z</time>
</trkpt>
<trkpt lat="46.0385000" lon="10.3761850">
	<ele>1300.20</ele>
	<time>2024-07-24T10:24:41.000Z</time>
</trkpt>
<trkpt lat="46.0385090" lon="10.3761740">
	<ele>1300.20</ele>
	<time>2024-07-24T10:24:42.000Z</time>
</trkpt>
<trkpt lat="46.0385230" lon="10.3761700">
	<ele>1299.80</ele>
	<time>2024-07-24T10:24:43.000Z</time>
</trkpt>
<trkpt lat="46.0385390" lon="10.3761690">
	<ele>1299.80</ele>
	<time>2024-07-24T10:24:44.000Z</time>
</trkpt>
<trkpt lat="46.0385460" lon="10.3761600">
	<ele>1299.40</ele>
	<time>2024-07-24T10:24:45.000Z</time>
</trkpt>
<trkpt lat="46.0385490" lon="10.3761400">
	<ele>1299.20</ele>
	<time>2024-07-24T10:24:46.000Z</time>
</trkpt>
<trkpt lat="46.0385580" lon="10.3761190">
	<ele>1299.00</ele>
	<time>2024-07-24T10:24:47.000Z</time>
</trkpt>
<trkpt lat="46.0385650" lon="10.3760970">
	<ele>1298.80</ele>
	<time>2024-07-24T10:24:48.000Z</time>
</trkpt>
<trkpt lat="46.0385740" lon="10.3760800">
	<ele>1298.40</ele>
	<time>2024-07-24T10:24:49.000Z</time>
</trkpt>
<trkpt lat="46.0385800" lon="10.3760660">
	<ele>1298.20</ele>
	<time>2024-07-24T10:24:50.000Z</time>
</trkpt>
<trkpt lat="46.0385880" lon="10.3760510">
	<ele>1298.00</ele>
	<time>2024-07-24T10:24:51.000Z</time>
</trkpt>
<trkpt lat="46.0385960" lon="10.3760400">
	<ele>1297.80</ele>
	<time>2024-07-24T10:24:52.000Z</time>
</trkpt>
<trkpt lat="46.0385990" lon="10.3760330">
	<ele>1297.60</ele>
	<time>2024-07-24T10:24:53.000Z</time>
</trkpt>
<trkpt lat="46.0386080" lon="10.3760110">
	<ele>1297.40</ele>
	<time>2024-07-24T10:24:54.000Z</time>
</trkpt>
<trkpt lat="46.0386130" lon="10.3759900">
	<ele>1297.20</ele>
	<time>2024-07-24T10:24:55.000Z</time>
</trkpt>
<trkpt lat="46.0386150" lon="10.3759730">
	<ele>1297.00</ele>
	<time>2024-07-24T10:24:56.000Z</time>
</trkpt>
<trkpt lat="46.0386170" lon="10.3759550">
	<ele>1296.80</ele>
	<time>2024-07-24T10:24:57.000Z</time>
</trkpt>
<trkpt lat="46.0386180" lon="10.3759420">
	<ele>1296.60</ele>
	<time>2024-07-24T10:24:58.000Z</time>
</trkpt>
<trkpt lat="46.0386210" lon="10.3759320">
	<ele>1296.40</ele>
	<time>2024-07-24T10:24:59.000Z</time>
</trkpt>
<trkpt lat="46.0386280" lon="10.3759280">
	<ele>1296.20</ele>
	<time>2024-07-24T10:25:00.000Z</time>
</trkpt>
<trkpt lat="46.0386400" lon="10.3759200">
	<ele>1296.20</ele>
	<time>2024-07-24T10:25:01.000Z</time>
</trkpt>
<trkpt lat="46.0386500" lon="10.3759050">
	<ele>1295.80</ele>
	<time>2024-07-24T10:25:02.000Z</time>
</trkpt>
<trkpt lat="46.0386560" lon="10.3758910">
	<ele>1295.80</ele>
	<time>2024-07-24T10:25:03.000Z</time>
</trkpt>
<trkpt lat="46.0386630" lon="10.3758760">
	<ele>1295.60</ele>
	<time>2024-07-24T10:25:04.000Z</time>
</trkpt>
<trkpt lat="46.0386700" lon="10.3758670">
	<ele>1295.40</ele>
	<time>2024-07-24T10:25:05.000Z</time>
</trkpt>
<trkpt lat="46.0386790" lon="10.3758590">
	<ele>1295.20</ele>
	<time>2024-07-24T10:25:06.000Z</time>
</trkpt>
<trkpt lat="46.0386830" lon="10.3758520">
	<ele>1295.00</ele>
	<time>2024-07-24T10:25:07.000Z</time>
</trkpt>
<trkpt lat="46.0386850" lon="10.3758460">
	<ele>1295.00</ele>
	<time>2024-07-24T10:25:08.000Z</time>
</trkpt>
<trkpt lat="46.0386860" lon="10.3758360">
	<ele>1294.60</ele>
	<time>2024-07-24T10:25:09.000Z</time>
</trkpt>
<trkpt lat="46.0386840" lon="10.3758230">
	<ele>1294.40</ele>
	<time>2024-07-24T10:25:10.000Z</time>
</trkpt>
<trkpt lat="46.0386840" lon="10.3758080">
	<ele>1294.20</ele>
	<time>2024-07-24T10:25:11.000Z</time>
</trkpt>
<trkpt lat="46.0386920" lon="10.3757950">
	<ele>1294.20</ele>
	<time>2024-07-24T10:25:12.000Z</time>
</trkpt>
<trkpt lat="46.0387050" lon="10.3757860">
	<ele>1294.00</ele>
	<time>2024-07-24T10:25:13.000Z</time>
</trkpt>
<trkpt lat="46.0387210" lon="10.3757720">
	<ele>1293.80</ele>
	<time>2024-07-24T10:25:14.000Z</time>
</trkpt>
<trkpt lat="46.0387400" lon="10.3757600">
	<ele>1293.60</ele>
	<time>2024-07-24T10:25:15.000Z</time>
</trkpt>
<trkpt lat="46.0387590" lon="10.3757540">
	<ele>1293.40</ele>
	<time>2024-07-24T10:25:16.000Z</time>
</trkpt>
<trkpt lat="46.0387630" lon="10.3757410">
	<ele>1293.20</ele>
	<time>2024-07-24T10:25:17.000Z</time>
</trkpt>
<trkpt lat="46.0387730" lon="10.3757260">
	<ele>1293.00</ele>
	<time>2024-07-24T10:25:18.000Z</time>
</trkpt>
<trkpt lat="46.0387830" lon="10.3757150">
	<ele>1292.80</ele>
	<time>2024-07-24T10:25:19.000Z</time>
</trkpt>
<trkpt lat="46.0387930" lon="10.3757030">
	<ele>1292.60</ele>
	<time>2024-07-24T10:25:20.000Z</time>
</trkpt>
<trkpt lat="46.0388030" lon="10.3756920">
	<ele>1292.40</ele>
	<time>2024-07-24T10:25:21.000Z</time>
</trkpt>
<trkpt lat="46.0388090" lon="10.3756820">
	<ele>1292.20</ele>
	<time>2024-07-24T10:25:22.000Z</time>
</trkpt>
<trkpt lat="46.0388090" lon="10.3756750">
	<ele>1292.00</ele>
	<time>2024-07-24T10:25:23.000Z</time>
</trkpt>
<trkpt lat="46.0388080" lon="10.3756600">
	<ele>1291.80</ele>
	<time>2024-07-24T10:25:24.000Z</time>
</trkpt>
<trkpt lat="46.0388110" lon="10.3756420">
	<ele>1291.60</ele>
	<time>2024-07-24T10:25:25.000Z</time>
</trkpt>
<trkpt lat="46.0388170" lon="10.3756220">
	<ele>1291.40</ele>
	<time>2024-07-24T10:25:26.000Z</time>
</trkpt>
<trkpt lat="46.0388260" lon="10.3756030">
	<ele>1291.40</ele>
	<time>2024-07-24T10:25:27.000Z</time>
</trkpt>
<trkpt lat="46.0388330" lon="10.3755900">
	<ele>1291.20</ele>
	<time>2024-07-24T10:25:28.000Z</time>
</trkpt>
<trkpt lat="46.0388430" lon="10.3755700">
	<ele>1290.80</ele>
	<time>2024-07-24T10:25:29.000Z</time>
</trkpt>
<trkpt lat="46.0388460" lon="10.3755610">
	<ele>1290.60</ele>
	<time>2024-07-24T10:25:30.000Z</time>
</trkpt>
<trkpt lat="46.0388510" lon="10.3755450">
	<ele>1290.40</ele>
	<time>2024-07-24T10:25:31.000Z</time>
</trkpt>
<trkpt lat="46.0388580" lon="10.3755340">
	<ele>1290.20</ele>
	<time>2024-07-24T10:25:32.000Z</time>
</trkpt>
<trkpt lat="46.0388630" lon="10.3755280">
	<ele>1290.00</ele>
	<time>2024-07-24T10:25:33.000Z</time>
</trkpt>
<trkpt lat="46.0388670" lon="10.3755220">
	<ele>1289.80</ele>
	<time>2024-07-24T10:25:34.000Z</time>
</trkpt>
<trkpt lat="46.0388740" lon="10.3755140">
	<ele>1289.80</ele>
	<time>2024-07-24T10:25:35.000Z</time>
</trkpt>
<trkpt lat="46.0388800" lon="10.3755040">
	<ele>1289.40</ele>
	<time>2024-07-24T10:25:36.000Z</time>
</trkpt>
<trkpt lat="46.0388890" lon="10.3754930">
	<ele>1289.20</ele>
	<time>2024-07-24T10:25:37.000Z</time>
</trkpt>
<trkpt lat="46.0388960" lon="10.3754790">
	<ele>1289.00</ele>
	<time>2024-07-24T10:25:38.000Z</time>
</trkpt>
<trkpt lat="46.0389030" lon="10.3754700">
	<ele>1288.60</ele>
	<time>2024-07-24T10:25:39.000Z</time>
</trkpt>
<trkpt lat="46.0389040" lon="10.3754660">
	<ele>1288.40</ele>
	<time>2024-07-24T10:25:40.000Z</time>
</trkpt>
<trkpt lat="46.0389080" lon="10.3754470">
	<ele>1288.20</ele>
	<time>2024-07-24T10:25:41.000Z</time>
</trkpt>
<trkpt lat="46.0389100" lon="10.3754450">
	<ele>1288.20</ele>
	<time>2024-07-24T10:25:42.000Z</time>
</trkpt>
<trkpt lat="46.0389110" lon="10.3754460">
	<ele>1288.20</ele>
	<time>2024-07-24T10:25:43.000Z</time>
</trkpt>
<trkpt lat="46.0389120" lon="10.3754510">
	<ele>1288.00</ele>
	<time>2024-07-24T10:25:44.000Z</time>
</trkpt>
<trkpt lat="46.0389100" lon="10.3754520">
	<ele>1288.00</ele>
	<time>2024-07-24T10:25:45.000Z</time>
</trkpt>
<trkpt lat="46.0389090" lon="10.3754500">
	<ele>1288.00</ele>
	<time>2024-07-24T10:25:46.000Z</time>
</trkpt>
<trkpt lat="46.0389100" lon="10.3754520">
	<ele>1288.20</ele>
	<time>2024-07-24T10:25:47.000Z</time>
</trkpt>
<trkpt lat="46.0389120" lon="10.3754560">
	<ele>1288.00</ele>
	<time>2024-07-24T10:25:48.000Z</time>
</trkpt>
<trkpt lat="46.0389190" lon="10.3754620">
	<ele>1288.00</ele>
	<time>2024-07-24T10:25:49.000Z</time>
</trkpt>
<trkpt lat="46.0389210" lon="10.3754690">
	<ele>1288.00</ele>
	<time>2024-07-24T10:25:50.000Z</time>
</trkpt>
<trkpt lat="46.0389220" lon="10.3754720">
	<ele>1288.00</ele>
	<time>2024-07-24T10:25:51.000Z</time>
</trkpt>
<trkpt lat="46.0389210" lon="10.3754720">
	<ele>1288.00</ele>
	<time>2024-07-24T10:25:52.000Z</time>
</trkpt>
<trkpt lat="46.0389190" lon="10.3754730">
	<ele>1287.80</ele>
	<time>2024-07-24T10:25:53.000Z</time>
</trkpt>
<trkpt lat="46.0389150" lon="10.3754610">
	<ele>1287.80</ele>
	<time>2024-07-24T10:25:54.000Z</time>
</trkpt>
<trkpt lat="46.0389100" lon="10.3754550">
	<ele>1287.80</ele>
	<time>2024-07-24T10:25:55.000Z</time>
</trkpt>
<trkpt lat="46.0389090" lon="10.3754550">
	<ele>1287.80</ele>
	<time>2024-07-24T10:25:56.000Z</time>
</trkpt>
<trkpt lat="46.0389060" lon="10.3754520">
	<ele>1287.80</ele>
	<time>2024-07-24T10:25:57.000Z</time>
</trkpt>
<trkpt lat="46.0389050" lon="10.3754510">
	<ele>1287.80</ele>
	<time>2024-07-24T10:25:58.000Z</time>
</trkpt>
<trkpt lat="46.0389050" lon="10.3754510">
	<ele>1287.60</ele>
	<time>2024-07-24T10:25:59.000Z</time>
</trkpt>
<trkpt lat="46.0389050" lon="10.3754510">
	<ele>1287.60</ele>
	<time>2024-07-24T10:26:00.000Z</time>
</trkpt>
<trkpt lat="46.0389050" lon="10.3754510">
	<ele>1287.80</ele>
	<time>2024-07-24T10:26:01.000Z</time>
</trkpt>
<trkpt lat="46.0389050" lon="10.3754510">
	<ele>1287.80</ele>
	<time>2024-07-24T10:26:02.000Z</time>
</trkpt>
<trkpt lat="46.0389050" lon="10.3754510">
	<ele>1287.60</ele>
	<time>2024-07-24T10:26:03.000Z</time>
</trkpt>
<trkpt lat="46.0389050" lon="10.3754510">
	<ele>1287.60</ele>
	<time>2024-07-24T10:26:04.000Z</time>
</trkpt>
<trkpt lat="46.0389050" lon="10.3754510">
	<ele>1287.60</ele>
	<time>2024-07-24T10:26:05.000Z</time>
</trkpt>
<trkpt lat="46.0389050" lon="10.3754510">
	<ele>1287.60</ele>
	<time>2024-07-24T10:26:06.000Z</time>
</trkpt>
<trkpt lat="46.0389050" lon="10.3754510">
	<ele>1287.80</ele>
	<time>2024-07-24T10:26:07.000Z</time>
</trkpt>
<trkpt lat="46.0389040" lon="10.3754510">
	<ele>1287.80</ele>
	<time>2024-07-24T10:26:08.000Z</time>
</trkpt>
<trkpt lat="46.0389080" lon="10.3754440">
	<ele>1287.80</ele>
	<time>2024-07-24T10:26:09.000Z</time>
</trkpt>
<trkpt lat="46.0389050" lon="10.3754400">
	<ele>1287.80</ele>
	<time>2024-07-24T10:26:10.000Z</time>
</trkpt>
<trkpt lat="46.0389020" lon="10.3754380">
	<ele>1287.80</ele>
	<time>2024-07-24T10:26:11.000Z</time>
</trkpt>
<trkpt lat="46.0389020" lon="10.3754380">
	<ele>1287.80</ele>
	<time>2024-07-24T10:26:12.000Z</time>
</trkpt>
<trkpt lat="46.0389020" lon="10.3754380">
	<ele>1287.80</ele>
	<time>2024-07-24T10:26:13.000Z</time>
</trkpt>
<trkpt lat="46.0389020" lon="10.3754380">
	<ele>1287.80</ele>
	<time>2024-07-24T10:26:14.000Z</time>
</trkpt>
<trkpt lat="46.0389020" lon="10.3754380">
	<ele>1287.80</ele>
	<time>2024-07-24T10:26:15.000Z</time>
</trkpt>
<trkpt lat="46.0389020" lon="10.3754380">
	<ele>1287.60</ele>
	<time>2024-07-24T10:26:16.000Z</time>
</trkpt>
<trkpt lat="46.0389020" lon="10.3754380">
	<ele>1287.60</ele>
	<time>2024-07-24T10:26:17.000Z</time>
</trkpt>
<trkpt lat="46.0389020" lon="10.3754380">
	<ele>1287.60</ele>
	<time>2024-07-24T10:26:18.000Z</time>
</trkpt>
<trkpt lat="46.0389020" lon="10.3754380">
	<ele>1287.60</ele>
	<time>2024-07-24T10:26:19.000Z</time>
</trkpt>
<trkpt lat="46.0389060" lon="10.3754330">
	<ele>1287.40</ele>
	<time>2024-07-24T10:26:20.000Z</time>
</trkpt>
<trkpt lat="46.0389180" lon="10.3754210">
	<ele>1287.20</ele>
	<time>2024-07-24T10:26:21.000Z</time>
</trkpt>
<trkpt lat="46.0389310" lon="10.3754080">
	<ele>1287.00</ele>
	<time>2024-07-24T10:26:22.000Z</time>
</trkpt>
<trkpt lat="46.0389440" lon="10.3753970">
	<ele>1286.60</ele>
	<time>2024-07-24T10:26:23.000Z</time>
</trkpt>
<trkpt lat="46.0389550" lon="10.3753800">
	<ele>1286.40</ele>
	<time>2024-07-24T10:26:24.000Z</time>
</trkpt>
<trkpt lat="46.0389630" lon="10.3753660">
	<ele>1286.00</ele>
	<time>2024-07-24T10:26:25.000Z</time>
</trkpt>
<trkpt lat="46.0389700" lon="10.3753550">
	<ele>1285.60</ele>
	<time>2024-07-24T10:26:26.000Z</time>
</trkpt>
<trkpt lat="46.0389780" lon="10.3753510">
	<ele>1285.40</ele>
	<time>2024-07-24T10:26:27.000Z</time>
</trkpt>
<trkpt lat="46.0389900" lon="10.3753500">
	<ele>1284.80</ele>
	<time>2024-07-24T10:26:28.000Z</time>
</trkpt>
<trkpt lat="46.0390060" lon="10.3753430">
	<ele>1284.60</ele>
	<time>2024-07-24T10:26:29.000Z</time>
</trkpt>
<trkpt lat="46.0390140" lon="10.3753290">
	<ele>1284.40</ele>
	<time>2024-07-24T10:26:30.000Z</time>
</trkpt>
<trkpt lat="46.0390240" lon="10.3753230">
	<ele>1284.20</ele>
	<time>2024-07-24T10:26:31.000Z</time>
</trkpt>
<trkpt lat="46.0390270" lon="10.3753180">
	<ele>1283.80</ele>
	<time>2024-07-24T10:26:32.000Z</time>
</trkpt>
<trkpt lat="46.0390310" lon="10.3753260">
	<ele>1283.80</ele>
	<time>2024-07-24T10:26:33.000Z</time>
</trkpt>
<trkpt lat="46.0390440" lon="10.3753240">
	<ele>1283.40</ele>
	<time>2024-07-24T10:26:34.000Z</time>
</trkpt>
<trkpt lat="46.0390560" lon="10.3753210">
	<ele>1283.00</ele>
	<time>2024-07-24T10:26:35.000Z</time>
</trkpt>
<trkpt lat="46.0390640" lon="10.3753140">
	<ele>1282.80</ele>
	<time>2024-07-24T10:26:36.000Z</time>
</trkpt>
<trkpt lat="46.0390770" lon="10.3753120">
	<ele>1282.40</ele>
	<time>2024-07-24T10:26:37.000Z</time>
</trkpt>
<trkpt lat="46.0390890" lon="10.3753180">
	<ele>1282.20</ele>
	<time>2024-07-24T10:26:38.000Z</time>
</trkpt>
<trkpt lat="46.0391010" lon="10.3753130">
	<ele>1281.80</ele>
	<time>2024-07-24T10:26:39.000Z</time>
</trkpt>
<trkpt lat="46.0391140" lon="10.3753110">
	<ele>1281.80</ele>
	<time>2024-07-24T10:26:40.000Z</time>
</trkpt>
<trkpt lat="46.0391270" lon="10.3753070">
	<ele>1281.40</ele>
	<time>2024-07-24T10:26:41.000Z</time>
</trkpt>
<trkpt lat="46.0391400" lon="10.3753010">
	<ele>1281.20</ele>
	<time>2024-07-24T10:26:42.000Z</time>
</trkpt>
<trkpt lat="46.0391540" lon="10.3752980">
	<ele>1281.00</ele>
	<time>2024-07-24T10:26:43.000Z</time>
</trkpt>
<trkpt lat="46.0391640" lon="10.3752880">
	<ele>1280.60</ele>
	<time>2024-07-24T10:26:44.000Z</time>
</trkpt>
<trkpt lat="46.0391750" lon="10.3752790">
	<ele>1280.40</ele>
	<time>2024-07-24T10:26:45.000Z</time>
</trkpt>
<trkpt lat="46.0391860" lon="10.3752720">
	<ele>1280.20</ele>
	<time>2024-07-24T10:26:46.000Z</time>
</trkpt>
<trkpt lat="46.0391950" lon="10.3752610">
	<ele>1279.80</ele>
	<time>2024-07-24T10:26:47.000Z</time>
</trkpt>
<trkpt lat="46.0392050" lon="10.3752480">
	<ele>1279.80</ele>
	<time>2024-07-24T10:26:48.000Z</time>
</trkpt>
<trkpt lat="46.0392180" lon="10.3752410">
	<ele>1279.60</ele>
	<time>2024-07-24T10:26:49.000Z</time>
</trkpt>
<trkpt lat="46.0392330" lon="10.3752360">
	<ele>1279.60</ele>
	<time>2024-07-24T10:26:50.000Z</time>
</trkpt>
<trkpt lat="46.0392430" lon="10.3752220">
	<ele>1279.40</ele>
	<time>2024-07-24T10:26:51.000Z</time>
</trkpt>
<trkpt lat="46.0392610" lon="10.3752240">
	<ele>1279.20</ele>
	<time>2024-07-24T10:26:52.000Z</time>
</trkpt>
<trkpt lat="46.0392700" lon="10.3752170">
	<ele>1279.00</ele>
	<time>2024-07-24T10:26:53.000Z</time>
</trkpt>
<trkpt lat="46.0392820" lon="10.3752160">
	<ele>1278.80</ele>
	<time>2024-07-24T10:26:54.000Z</time>
</trkpt>
<trkpt lat="46.0392920" lon="10.3752110">
	<ele>1278.60</ele>
	<time>2024-07-24T10:26:55.000Z</time>
</trkpt>
<trkpt lat="46.0393010" lon="10.3752130">
	<ele>1278.40</ele>
	<time>2024-07-24T10:26:56.000Z</time>
</trkpt>
<trkpt lat="46.0393150" lon="10.3752110">
	<ele>1278.40</ele>
	<time>2024-07-24T10:26:57.000Z</time>
</trkpt>
<trkpt lat="46.0393320" lon="10.3752010">
	<ele>1278.00</ele>
	<time>2024-07-24T10:26:58.000Z</time>
</trkpt>
<trkpt lat="46.0393480" lon="10.3751970">
	<ele>1277.80</ele>
	<time>2024-07-24T10:26:59.000Z</time>
</trkpt>
<trkpt lat="46.0393660" lon="10.3751940">
	<ele>1277.60</ele>
	<time>2024-07-24T10:27:00.000Z</time>
</trkpt>
<trkpt lat="46.0393830" lon="10.3751930">
	<ele>1277.60</ele>
	<time>2024-07-24T10:27:01.000Z</time>
</trkpt>
<trkpt lat="46.0394000" lon="10.3751850">
	<ele>1277.40</ele>
	<time>2024-07-24T10:27:02.000Z</time>
</trkpt>
<trkpt lat="46.0394170" lon="10.3751840">
	<ele>1277.20</ele>
	<time>2024-07-24T10:27:03.000Z</time>
</trkpt>
<trkpt lat="46.0394290" lon="10.3751800">
	<ele>1277.00</ele>
	<time>2024-07-24T10:27:04.000Z</time>
</trkpt>
<trkpt lat="46.0394390" lon="10.3751750">
	<ele>1277.00</ele>
	<time>2024-07-24T10:27:05.000Z</time>
</trkpt>
<trkpt lat="46.0394470" lon="10.3751760">
	<ele>1276.80</ele>
	<time>2024-07-24T10:27:06.000Z</time>
</trkpt>
<trkpt lat="46.0394560" lon="10.3751690">
	<ele>1276.80</ele>
	<time>2024-07-24T10:27:07.000Z</time>
</trkpt>
<trkpt lat="46.0394640" lon="10.3751560">
	<ele>1276.40</ele>
	<time>2024-07-24T10:27:08.000Z</time>
</trkpt>
<trkpt lat="46.0394720" lon="10.3751480">
	<ele>1276.20</ele>
	<time>2024-07-24T10:27:09.000Z</time>
</trkpt>
<trkpt lat="46.0394810" lon="10.3751430">
	<ele>1276.00</ele>
	<time>2024-07-24T10:27:10.000Z</time>
</trkpt>
<trkpt lat="46.0394840" lon="10.3751430">
	<ele>1275.80</ele>
	<time>2024-07-24T10:27:11.000Z</time>
</trkpt>
<trkpt lat="46.0394970" lon="10.3751480">
	<ele>1275.60</ele>
	<time>2024-07-24T10:27:12.000Z</time>
</trkpt>
<trkpt lat="46.0395150" lon="10.3751570">
	<ele>1275.40</ele>
	<time>2024-07-24T10:27:13.000Z</time>
</trkpt>
<trkpt lat="46.0395300" lon="10.3751660">
	<ele>1275.40</ele>
	<time>2024-07-24T10:27:14.000Z</time>
</trkpt>
<trkpt lat="46.0395420" lon="10.3751680">
	<ele>1275.20</ele>
	<time>2024-07-24T10:27:15.000Z</time>
</trkpt>
<trkpt lat="46.0395530" lon="10.3751550">
	<ele>1275.20</ele>
	<time>2024-07-24T10:27:16.000Z</time>
</trkpt>
<trkpt lat="46.0395630" lon="10.3751400">
	<ele>1275.00</ele>
	<time>2024-07-24T10:27:17.000Z</time>
</trkpt>
<trkpt lat="46.0395730" lon="10.3751260">
	<ele>1274.80</ele>
	<time>2024-07-24T10:27:18.000Z</time>
</trkpt>
<trkpt lat="46.0395820" lon="10.3751140">
	<ele>1274.60</ele>
	<time>2024-07-24T10:27:19.000Z</time>
</trkpt>
<trkpt lat="46.0395930" lon="10.3751010">
	<ele>1274.60</ele>
	<time>2024-07-24T10:27:20.000Z</time>
</trkpt>
<trkpt lat="46.0396060" lon="10.3750940">
	<ele>1274.40</ele>
	<time>2024-07-24T10:27:21.000Z</time>
</trkpt>
<trkpt lat="46.0396180" lon="10.3750820">
	<ele>1274.20</ele>
	<time>2024-07-24T10:27:22.000Z</time>
</trkpt>
<trkpt lat="46.0396270" lon="10.3750750">
	<ele>1274.00</ele>
	<time>2024-07-24T10:27:23.000Z</time>
</trkpt>
<trkpt lat="46.0396370" lon="10.3750680">
	<ele>1273.80</ele>
	<time>2024-07-24T10:27:24.000Z</time>
</trkpt>
<trkpt lat="46.0396460" lon="10.3750690">
	<ele>1273.80</ele>
	<time>2024-07-24T10:27:25.000Z</time>
</trkpt>
<trkpt lat="46.0396540" lon="10.3750660">
	<ele>1273.60</ele>
	<time>2024-07-24T10:27:26.000Z</time>
</trkpt>
<trkpt lat="46.0396610" lon="10.3750550">
	<ele>1273.60</ele>
	<time>2024-07-24T10:27:27.000Z</time>
</trkpt>
<trkpt lat="46.0396700" lon="10.3750490">
	<ele>1273.40</ele>
	<time>2024-07-24T10:27:28.000Z</time>
</trkpt>
<trkpt lat="46.0396770" lon="10.3750410">
	<ele>1273.40</ele>
	<time>2024-07-24T10:27:29.000Z</time>
</trkpt>
<trkpt lat="46.0396850" lon="10.3750370">
	<ele>1273.20</ele>
	<time>2024-07-24T10:27:30.000Z</time>
</trkpt>
<trkpt lat="46.0396980" lon="10.3750390">
	<ele>1273.00</ele>
	<time>2024-07-24T10:27:31.000Z</time>
</trkpt>
<trkpt lat="46.0397110" lon="10.3750390">
	<ele>1272.80</ele>
	<time>2024-07-24T10:27:32.000Z</time>
</trkpt>
<trkpt lat="46.0397210" lon="10.3750310">
	<ele>1272.60</ele>
	<time>2024-07-24T10:27:33.000Z</time>
</trkpt>
<trkpt lat="46.0397320" lon="10.3750200">
	<ele>1272.60</ele>
	<time>2024-07-24T10:27:34.000Z</time>
</trkpt>
<trkpt lat="46.0397430" lon="10.3750070">
	<ele>1272.60</ele>
	<time>2024-07-24T10:27:35.000Z</time>
</trkpt>
<trkpt lat="46.0397530" lon="10.3749870">
	<ele>1272.40</ele>
	<time>2024-07-24T10:27:36.000Z</time>
</trkpt>
<trkpt lat="46.0397630" lon="10.3749730">
	<ele>1272.20</ele>
	<time>2024-07-24T10:27:37.000Z</time>
</trkpt>
<trkpt lat="46.0397710" lon="10.3749560">
	<ele>1272.20</ele>
	<time>2024-07-24T10:27:38.000Z</time>
</trkpt>
<trkpt lat="46.0397780" lon="10.3749430">
	<ele>1272.20</ele>
	<time>2024-07-24T10:27:39.000Z</time>
</trkpt>
<trkpt lat="46.0397850" lon="10.3749340">
	<ele>1272.00</ele>
	<time>2024-07-24T10:27:40.000Z</time>
</trkpt>
<trkpt lat="46.0397840" lon="10.3749200">
	<ele>1272.00</ele>
	<time>2024-07-24T10:27:41.000Z</time>
</trkpt>
<trkpt lat="46.0397830" lon="10.3749100">
	<ele>1271.80</ele>
	<time>2024-07-24T10:27:42.000Z</time>
</trkpt>
<trkpt lat="46.0397920" lon="10.3748910">
	<ele>1271.80</ele>
	<time>2024-07-24T10:27:43.000Z</time>
</trkpt>
<trkpt lat="46.0398030" lon="10.3748760">
	<ele>1271.60</ele>
	<time>2024-07-24T10:27:44.000Z</time>
</trkpt>
<trkpt lat="46.0398190" lon="10.3748730">
	<ele>1271.20</ele>
	<time>2024-07-24T10:27:45.000Z</time>
</trkpt>
<trkpt lat="46.0398340" lon="10.3748660">
	<ele>1271.00</ele>
	<time>2024-07-24T10:27:46.000Z</time>
</trkpt>
<trkpt lat="46.0398440" lon="10.3748520">
	<ele>1270.80</ele>
	<time>2024-07-24T10:27:47.000Z</time>
</trkpt>
<trkpt lat="46.0398520" lon="10.3748380">
	<ele>1270.80</ele>
	<time>2024-07-24T10:27:48.000Z</time>
</trkpt>
<trkpt lat="46.0398610" lon="10.3748370">
	<ele>1270.80</ele>
	<time>2024-07-24T10:27:49.000Z</time>
</trkpt>
<trkpt lat="46.0398750" lon="10.3748340">
	<ele>1270.60</ele>
	<time>2024-07-24T10:27:50.000Z</time>
</trkpt>
<trkpt lat="46.0398900" lon="10.3748220">
	<ele>1270.60</ele>
	<time>2024-07-24T10:27:51.000Z</time>
</trkpt>
<trkpt lat="46.0399030" lon="10.3748300">
	<ele>1270.40</ele>
	<time>2024-07-24T10:27:52.000Z</time>
</trkpt>
<trkpt lat="46.0399140" lon="10.3748360">
	<ele>1270.40</ele>
	<time>2024-07-24T10:27:53.000Z</time>
</trkpt>
<trkpt lat="46.0399160" lon="10.3748380">
	<ele>1270.20</ele>
	<time>2024-07-24T10:27:54.000Z</time>
</trkpt>
<trkpt lat="46.0399230" lon="10.3748350">
	<ele>1270.00</ele>
	<time>2024-07-24T10:27:55.000Z</time>
</trkpt>
<trkpt lat="46.0399330" lon="10.3748340">
	<ele>1269.60</ele>
	<time>2024-07-24T10:27:56.000Z</time>
</trkpt>
<trkpt lat="46.0399420" lon="10.3748320">
	<ele>1269.40</ele>
	<time>2024-07-24T10:27:57.000Z</time>
</trkpt>
<trkpt lat="46.0399550" lon="10.3748290">
	<ele>1269.00</ele>
	<time>2024-07-24T10:27:58.000Z</time>
</trkpt>
<trkpt lat="46.0399590" lon="10.3748350">
	<ele>1268.80</ele>
	<time>2024-07-24T10:27:59.000Z</time>
</trkpt>
<trkpt lat="46.0399610" lon="10.3748300">
	<ele>1268.60</ele>
	<time>2024-07-24T10:28:00.000Z</time>
</trkpt>
<trkpt lat="46.0399630" lon="10.3748260">
	<ele>1268.60</ele>
	<time>2024-07-24T10:28:01.000Z</time>
</trkpt>
<trkpt lat="46.0399740" lon="10.3748190">
	<ele>1268.60</ele>
	<time>2024-07-24T10:28:02.000Z</time>
</trkpt>
<trkpt lat="46.0399770" lon="10.3748160">
	<ele>1268.60</ele>
	<time>2024-07-24T10:28:03.000Z</time>
</trkpt>
<trkpt lat="46.0399780" lon="10.3748180">
	<ele>1268.60</ele>
	<time>2024-07-24T10:28:04.000Z</time>
</trkpt>
<trkpt lat="46.0399790" lon="10.3748180">
	<ele>1268.60</ele>
	<time>2024-07-24T10:28:05.000Z</time>
</trkpt>
<trkpt lat="46.0399810" lon="10.3748210">
	<ele>1268.60</ele>
	<time>2024-07-24T10:28:06.000Z</time>
</trkpt>
<trkpt lat="46.0399790" lon="10.3748230">
	<ele>1268.80</ele>
	<time>2024-07-24T10:28:07.000Z</time>
</trkpt>
<trkpt lat="46.0399800" lon="10.3748230">
	<ele>1268.80</ele>
	<time>2024-07-24T10:28:08.000Z</time>
</trkpt>
<trkpt lat="46.0399810" lon="10.3748230">
	<ele>1269.00</ele>
	<time>2024-07-24T10:28:09.000Z</time>
</trkpt>
<trkpt lat="46.0399780" lon="10.3748230">
	<ele>1269.00</ele>
	<time>2024-07-24T10:28:10.000Z</time>
</trkpt>
<trkpt lat="46.0399780" lon="10.3748260">
	<ele>1269.00</ele>
	<time>2024-07-24T10:28:11.000Z</time>
</trkpt>
<trkpt lat="46.0399800" lon="10.3748280">
	<ele>1269.20</ele>
	<time>2024-07-24T10:28:12.000Z</time>
</trkpt>
<trkpt lat="46.0399710" lon="10.3748290">
	<ele>1269.00</ele>
	<time>2024-07-24T10:28:13.000Z</time>
</trkpt>
<trkpt lat="46.0399650" lon="10.3748300">
	<ele>1269.00</ele>
	<time>2024-07-24T10:28:14.000Z</time>
</trkpt>
<trkpt lat="46.0399680" lon="10.3748370">
	<ele>1269.00</ele>
	<time>2024-07-24T10:28:15.000Z</time>
</trkpt>
<trkpt lat="46.0399690" lon="10.3748350">
	<ele>1269.00</ele>
	<time>2024-07-24T10:28:16.000Z</time>
</trkpt>
<trkpt lat="46.0399730" lon="10.3748240">
	<ele>1268.80</ele>
	<time>2024-07-24T10:28:17.000Z</time>
</trkpt>
<trkpt lat="46.0399720" lon="10.3748070">
	<ele>1268.60</ele>
	<time>2024-07-24T10:28:18.000Z</time>
</trkpt>
<trkpt lat="46.0399760" lon="10.3748040">
	<ele>1268.60</ele>
	<time>2024-07-24T10:28:19.000Z</time>
</trkpt>
<trkpt lat="46.0399940" lon="10.3747970">
	<ele>1268.40</ele>
	<time>2024-07-24T10:28:20.000Z</time>
</trkpt>
<trkpt lat="46.0400030" lon="10.3747830">
	<ele>1268.40</ele>
	<time>2024-07-24T10:28:21.000Z</time>
</trkpt>
<trkpt lat="46.0399950" lon="10.3747670">
	<ele>1268.40</ele>
	<time>2024-07-24T10:28:22.000Z</time>
</trkpt>
<trkpt lat="46.0399770" lon="10.3747500">
	<ele>1268.20</ele>
	<time>2024-07-24T10:28:23.000Z</time>
</trkpt>
<trkpt lat="46.0399730" lon="10.3747470">
	<ele>1268.20</ele>
	<time>2024-07-24T10:28:24.000Z</time>
</trkpt>
<trkpt lat="46.0399770" lon="10.3747510">
	<ele>1268.20</ele>
	<time>2024-07-24T10:28:25.000Z</time>
</trkpt>
<trkpt lat="46.0399770" lon="10.3747500">
	<ele>1268.40</ele>
	<time>2024-07-24T10:28:26.000Z</time>
</trkpt>
<trkpt lat="46.0399780" lon="10.3747500">
	<ele>1268.40</ele>
	<time>2024-07-24T10:28:27.000Z</time>
</trkpt>
<trkpt lat="46.0399800" lon="10.3747390">
	<ele>1268.40</ele>
	<time>2024-07-24T10:28:28.000Z</time>
</trkpt>
<trkpt lat="46.0399820" lon="10.3747170">
	<ele>1268.20</ele>
	<time>2024-07-24T10:28:29.000Z</time>
</trkpt>
<trkpt lat="46.0399790" lon="10.3747010">
	<ele>1268.20</ele>
	<time>2024-07-24T10:28:30.000Z</time>
</trkpt>
<trkpt lat="46.0399830" lon="10.3747000">
	<ele>1268.00</ele>
	<time>2024-07-24T10:28:31.000Z</time>
</trkpt>
<trkpt lat="46.0399930" lon="10.3746990">
	<ele>1268.00</ele>
	<time>2024-07-24T10:28:32.000Z</time>
</trkpt>
<trkpt lat="46.0399970" lon="10.3747000">
	<ele>1267.80</ele>
	<time>2024-07-24T10:28:33.000Z</time>
</trkpt>
<trkpt lat="46.0400040" lon="10.3747020">
	<ele>1267.60</ele>
	<time>2024-07-24T10:28:34.000Z</time>
</trkpt>
<trkpt lat="46.0400090" lon="10.3747020">
	<ele>1267.60</ele>
	<time>2024-07-24T10:28:35.000Z</time>
</trkpt>
<trkpt lat="46.0400160" lon="10.3747040">
	<ele>1267.60</ele>
	<time>2024-07-24T10:28:36.000Z</time>
</trkpt>
<trkpt lat="46.0400210" lon="10.3747000">
	<ele>1267.40</ele>
	<time>2024-07-24T10:28:37.000Z</time>
</trkpt>
<trkpt lat="46.0400320" lon="10.3746900">
	<ele>1267.20</ele>
	<time>2024-07-24T10:28:38.000Z</time>
</trkpt>
<trkpt lat="46.0400390" lon="10.3746850">
	<ele>1267.00</ele>
	<time>2024-07-24T10:28:39.000Z</time>
</trkpt>
<trkpt lat="46.0400390" lon="10.3746750">
	<ele>1266.80</ele>
	<time>2024-07-24T10:28:40.000Z</time>
</trkpt>
<trkpt lat="46.0400370" lon="10.3746680">
	<ele>1266.60</ele>
	<time>2024-07-24T10:28:41.000Z</time>
</trkpt>
<trkpt lat="46.0400370" lon="10.3746540">
	<ele>1266.40</ele>
	<time>2024-07-24T10:28:42.000Z</time>
</trkpt>
<trkpt lat="46.0400370" lon="10.3746450">
	<ele>1266.00</ele>
	<time>2024-07-24T10:28:43.000Z</time>
</trkpt>
<trkpt lat="46.0400350" lon="10.3746330">
	<ele>1266.00</ele>
	<time>2024-07-24T10:28:44.000Z</time>
</trkpt>
<trkpt lat="46.0400320" lon="10.3746230">
	<ele>1265.60</ele>
	<time>2024-07-24T10:28:45.000Z</time>
</trkpt>
<trkpt lat="46.0400280" lon="10.3746120">
	<ele>1265.40</ele>
	<time>2024-07-24T10:28:46.000Z</time>
</trkpt>
<trkpt lat="46.0400360" lon="10.3745850">
	<ele>1265.00</ele>
	<time>2024-07-24T10:28:47.000Z</time>
</trkpt>
<trkpt lat="46.0400370" lon="10.3745640">
	<ele>1264.80</ele>
	<time>2024-07-24T10:28:48.000Z</time>
</trkpt>
<trkpt lat="46.0400410" lon="10.3745470">
	<ele>1264.40</ele>
	<time>2024-07-24T10:28:49.000Z</time>
</trkpt>
<trkpt lat="46.0400470" lon="10.3745280">
	<ele>1264.20</ele>
	<time>2024-07-24T10:28:50.000Z</time>
</trkpt>
<trkpt lat="46.0400620" lon="10.3745100">
	<ele>1264.00</ele>
	<time>2024-07-24T10:28:51.000Z</time>
</trkpt>
<trkpt lat="46.0400690" lon="10.3744990">
	<ele>1263.80</ele>
	<time>2024-07-24T10:28:52.000Z</time>
</trkpt>
<trkpt lat="46.0400760" lon="10.3744870">
	<ele>1263.60</ele>
	<time>2024-07-24T10:28:53.000Z</time>
</trkpt>
<trkpt lat="46.0400840" lon="10.3744550">
	<ele>1263.40</ele>
	<time>2024-07-24T10:28:54.000Z</time>
</trkpt>
<trkpt lat="46.0400860" lon="10.3744250">
	<ele>1263.40</ele>
	<time>2024-07-24T10:28:55.000Z</time>
</trkpt>
<trkpt lat="46.0400920" lon="10.3743960">
	<ele>1262.80</ele>
	<time>2024-07-24T10:28:56.000Z</time>
</trkpt>
<trkpt lat="46.0401050" lon="10.3743650">
	<ele>1262.60</ele>
	<time>2024-07-24T10:28:57.000Z</time>
</trkpt>
<trkpt lat="46.0401190" lon="10.3743400">
	<ele>1262.40</ele>
	<time>2024-07-24T10:28:58.000Z</time>
</trkpt>
<trkpt lat="46.0401290" lon="10.3743160">
	<ele>1262.20</ele>
	<time>2024-07-24T10:28:59.000Z</time>
</trkpt>
<trkpt lat="46.0401370" lon="10.3742890">
	<ele>1261.80</ele>
	<time>2024-07-24T10:29:00.000Z</time>
</trkpt>
<trkpt lat="46.0401340" lon="10.3742670">
	<ele>1261.60</ele>
	<time>2024-07-24T10:29:01.000Z</time>
</trkpt>
<trkpt lat="46.0401280" lon="10.3742460">
	<ele>1261.40</ele>
	<time>2024-07-24T10:29:02.000Z</time>
</trkpt>
<trkpt lat="46.0401290" lon="10.3742340">
	<ele>1261.20</ele>
	<time>2024-07-24T10:29:03.000Z</time>
</trkpt>
<trkpt lat="46.0401280" lon="10.3742220">
	<ele>1261.00</ele>
	<time>2024-07-24T10:29:04.000Z</time>
</trkpt>
<trkpt lat="46.0401310" lon="10.3742050">
	<ele>1260.80</ele>
	<time>2024-07-24T10:29:05.000Z</time>
</trkpt>
<trkpt lat="46.0401100" lon="10.3742040">
	<ele>1260.60</ele>
	<time>2024-07-24T10:29:06.000Z</time>
</trkpt>
<trkpt lat="46.0400940" lon="10.3741910">
	<ele>1260.40</ele>
	<time>2024-07-24T10:29:07.000Z</time>
</trkpt>
<trkpt lat="46.0400830" lon="10.3741690">
	<ele>1260.20</ele>
	<time>2024-07-24T10:29:08.000Z</time>
</trkpt>
<trkpt lat="46.0400650" lon="10.3741560">
	<ele>1260.00</ele>
	<time>2024-07-24T10:29:09.000Z</time>
</trkpt>
<trkpt lat="46.0400450" lon="10.3741400">
	<ele>1259.80</ele>
	<time>2024-07-24T10:29:10.000Z</time>
</trkpt>
<trkpt lat="46.0400300" lon="10.3741240">
	<ele>1259.60</ele>
	<time>2024-07-24T10:29:11.000Z</time>
</trkpt>
<trkpt lat="46.0400110" lon="10.3741120">
	<ele>1259.60</ele>
	<time>2024-07-24T10:29:12.000Z</time>
</trkpt>
<trkpt lat="46.0400050" lon="10.3740950">
	<ele>1259.40</ele>
	<time>2024-07-24T10:29:13.000Z</time>
</trkpt>
<trkpt lat="46.0400000" lon="10.3740780">
	<ele>1259.20</ele>
	<time>2024-07-24T10:29:14.000Z</time>
</trkpt>
<trkpt lat="46.0399960" lon="10.3740480">
	<ele>1259.00</ele>
	<time>2024-07-24T10:29:15.000Z</time>
</trkpt>
<trkpt lat="46.0400030" lon="10.3740140">
	<ele>1259.00</ele>
	<time>2024-07-24T10:29:16.000Z</time>
</trkpt>
<trkpt lat="46.0400100" lon="10.3739830">
	<ele>1258.80</ele>
	<time>2024-07-24T10:29:17.000Z</time>
</trkpt>
<trkpt lat="46.0400320" lon="10.3739570">
	<ele>1258.80</ele>
	<time>2024-07-24T10:29:18.000Z</time>
</trkpt>
<trkpt lat="46.0400410" lon="10.3739300">
	<ele>1258.60</ele>
	<time>2024-07-24T10:29:19.000Z</time>
</trkpt>
<trkpt lat="46.0400290" lon="10.3739260">
	<ele>1258.60</ele>
	<time>2024-07-24T10:29:20.000Z</time>
</trkpt>
<trkpt lat="46.0400050" lon="10.3739410">
	<ele>1258.60</ele>
	<time>2024-07-24T10:29:21.000Z</time>
</trkpt>
<trkpt lat="46.0399860" lon="10.3739290">
	<ele>1258.40</ele>
	<time>2024-07-24T10:29:22.000Z</time>
</trkpt>
<trkpt lat="46.0399810" lon="10.3739070">
	<ele>1258.20</ele>
	<time>2024-07-24T10:29:23.000Z</time>
</trkpt>
<trkpt lat="46.0399750" lon="10.3738880">
	<ele>1258.00</ele>
	<time>2024-07-24T10:29:24.000Z</time>
</trkpt>
<trkpt lat="46.0399870" lon="10.3738590">
	<ele>1258.00</ele>
	<time>2024-07-24T10:29:25.000Z</time>
</trkpt>
<trkpt lat="46.0399850" lon="10.3738340">
	<ele>1257.80</ele>
	<time>2024-07-24T10:29:26.000Z</time>
</trkpt>
<trkpt lat="46.0399840" lon="10.3738160">
	<ele>1257.60</ele>
	<time>2024-07-24T10:29:27.000Z</time>
</trkpt>
<trkpt lat="46.0399830" lon="10.3738070">
	<ele>1257.60</ele>
	<time>2024-07-24T10:29:28.000Z</time>
</trkpt>
<trkpt lat="46.0399710" lon="10.3738210">
	<ele>1257.40</ele>
	<time>2024-07-24T10:29:29.000Z</time>
</trkpt>
<trkpt lat="46.0399640" lon="10.3738130">
	<ele>1257.40</ele>
	<time>2024-07-24T10:29:30.000Z</time>
</trkpt>
<trkpt lat="46.0399600" lon="10.3738010">
	<ele>1257.20</ele>
	<time>2024-07-24T10:29:31.000Z</time>
</trkpt>
<trkpt lat="46.0399500" lon="10.3737820">
	<ele>1257.20</ele>
	<time>2024-07-24T10:29:32.000Z</time>
</trkpt>
<trkpt lat="46.0399450" lon="10.3737730">
	<ele>1257.20</ele>
	<time>2024-07-24T10:29:33.000Z</time>
</trkpt>
<trkpt lat="46.0399430" lon="10.3737620">
	<ele>1256.80</ele>
	<time>2024-07-24T10:29:34.000Z</time>
</trkpt>
<trkpt lat="46.0399450" lon="10.3737500">
	<ele>1256.60</ele>
	<time>2024-07-24T10:29:35.000Z</time>
</trkpt>
<trkpt lat="46.0399450" lon="10.3737420">
	<ele>1256.40</ele>
	<time>2024-07-24T10:29:36.000Z</time>
</trkpt>
<trkpt lat="46.0399430" lon="10.3737330">
	<ele>1256.20</ele>
	<time>2024-07-24T10:29:37.000Z</time>
</trkpt>
<trkpt lat="46.0399360" lon="10.3737120">
	<ele>1255.80</ele>
	<time>2024-07-24T10:29:38.000Z</time>
</trkpt>
<trkpt lat="46.0399280" lon="10.3736930">
	<ele>1255.60</ele>
	<time>2024-07-24T10:29:39.000Z</time>
</trkpt>
<trkpt lat="46.0399290" lon="10.3736800">
	<ele>1255.40</ele>
	<time>2024-07-24T10:29:40.000Z</time>
</trkpt>
<trkpt lat="46.0399360" lon="10.3736750">
	<ele>1255.40</ele>
	<time>2024-07-24T10:29:41.000Z</time>
</trkpt>
<trkpt lat="46.0399450" lon="10.3736680">
	<ele>1255.00</ele>
	<time>2024-07-24T10:29:42.000Z</time>
</trkpt>
<trkpt lat="46.0399440" lon="10.3736490">
	<ele>1255.00</ele>
	<time>2024-07-24T10:29:43.000Z</time>
</trkpt>
<trkpt lat="46.0399430" lon="10.3736330">
	<ele>1254.60</ele>
	<time>2024-07-24T10:29:44.000Z</time>
</trkpt>
<trkpt lat="46.0399380" lon="10.3736200">
	<ele>1254.40</ele>
	<time>2024-07-24T10:29:45.000Z</time>
</trkpt>
<trkpt lat="46.0399410" lon="10.3736050">
	<ele>1254.20</ele>
	<time>2024-07-24T10:29:46.000Z</time>
</trkpt>
<trkpt lat="46.0399480" lon="10.3735860">
	<ele>1254.00</ele>
	<time>2024-07-24T10:29:47.000Z</time>
</trkpt>
<trkpt lat="46.0399500" lon="10.3735680">
	<ele>1253.60</ele>
	<time>2024-07-24T10:29:48.000Z</time>
</trkpt>
<trkpt lat="46.0399490" lon="10.3735510">
	<ele>1253.40</ele>
	<time>2024-07-24T10:29:49.000Z</time>
</trkpt>
<trkpt lat="46.0399440" lon="10.3735400">
	<ele>1253.20</ele>
	<time>2024-07-24T10:29:50.000Z</time>
</trkpt>
<trkpt lat="46.0399400" lon="10.3735220">
	<ele>1253.00</ele>
	<time>2024-07-24T10:29:51.000Z</time>
</trkpt>
<trkpt lat="46.0399360" lon="10.3735090">
	<ele>1252.60</ele>
	<time>2024-07-24T10:29:52.000Z</time>
</trkpt>
<trkpt lat="46.0399260" lon="10.3735000">
	<ele>1252.40</ele>
	<time>2024-07-24T10:29:53.000Z</time>
</trkpt>
<trkpt lat="46.0399160" lon="10.3734920">
	<ele>1252.00</ele>
	<time>2024-07-24T10:29:54.000Z</time>
</trkpt>
<trkpt lat="46.0399060" lon="10.3734910">
	<ele>1251.80</ele>
	<time>2024-07-24T10:29:55.000Z</time>
</trkpt>
<trkpt lat="46.0398970" lon="10.3734870">
	<ele>1251.60</ele>
	<time>2024-07-24T10:29:56.000Z</time>
</trkpt>
<trkpt lat="46.0398850" lon="10.3734840">
	<ele>1251.40</ele>
	<time>2024-07-24T10:29:57.000Z</time>
</trkpt>
<trkpt lat="46.0398750" lon="10.3734820">
	<ele>1251.20</ele>
	<time>2024-07-24T10:29:58.000Z</time>
</trkpt>
<trkpt lat="46.0398630" lon="10.3734830">
	<ele>1251.00</ele>
	<time>2024-07-24T10:29:59.000Z</time>
</trkpt>
<trkpt lat="46.0398510" lon="10.3734820">
	<ele>1250.60</ele>
	<time>2024-07-24T10:30:00.000Z</time>
</trkpt>
<trkpt lat="46.0398410" lon="10.3734840">
	<ele>1250.40</ele>
	<time>2024-07-24T10:30:01.000Z</time>
</trkpt>
<trkpt lat="46.0398300" lon="10.3734920">
	<ele>1250.20</ele>
	<time>2024-07-24T10:30:02.000Z</time>
</trkpt>
<trkpt lat="46.0398180" lon="10.3734990">
	<ele>1250.00</ele>
	<time>2024-07-24T10:30:03.000Z</time>
</trkpt>
<trkpt lat="46.0398090" lon="10.3735040">
	<ele>1249.80</ele>
	<time>2024-07-24T10:30:04.000Z</time>
</trkpt>
<trkpt lat="46.0398060" lon="10.3735110">
	<ele>1249.60</ele>
	<time>2024-07-24T10:30:05.000Z</time>
</trkpt>
<trkpt lat="46.0398050" lon="10.3735210">
	<ele>1249.40</ele>
	<time>2024-07-24T10:30:06.000Z</time>
</trkpt>
<trkpt lat="46.0398040" lon="10.3735290">
	<ele>1249.00</ele>
	<time>2024-07-24T10:30:07.000Z</time>
</trkpt>
<trkpt lat="46.0398010" lon="10.3735360">
	<ele>1248.80</ele>
	<time>2024-07-24T10:30:08.000Z</time>
</trkpt>
<trkpt lat="46.0397970" lon="10.3735400">
	<ele>1248.60</ele>
	<time>2024-07-24T10:30:09.000Z</time>
</trkpt>
<trkpt lat="46.0397900" lon="10.3735470">
	<ele>1248.20</ele>
	<time>2024-07-24T10:30:10.000Z</time>
</trkpt>
<trkpt lat="46.0397820" lon="10.3735520">
	<ele>1247.80</ele>
	<time>2024-07-24T10:30:11.000Z</time>
</trkpt>
<trkpt lat="46.0397740" lon="10.3735560">
	<ele>1247.60</ele>
	<time>2024-07-24T10:30:12.000Z</time>
</trkpt>
<trkpt lat="46.0397680" lon="10.3735610">
	<ele>1247.40</ele>
	<time>2024-07-24T10:30:13.000Z</time>
</trkpt>
<trkpt lat="46.0397640" lon="10.3735700">
	<ele>1247.20</ele>
	<time>2024-07-24T10:30:14.000Z</time>
</trkpt>
<trkpt lat="46.0397600" lon="10.3735780">
	<ele>1247.00</ele>
	<time>2024-07-24T10:30:15.000Z</time>
</trkpt>
<trkpt lat="46.0397550" lon="10.3735910">
	<ele>1246.80</ele>
	<time>2024-07-24T10:30:16.000Z</time>
</trkpt>
<trkpt lat="46.0397520" lon="10.3736070">
	<ele>1246.60</ele>
	<time>2024-07-24T10:30:17.000Z</time>
</trkpt>
<trkpt lat="46.0397510" lon="10.3736160">
	<ele>1246.40</ele>
	<time>2024-07-24T10:30:18.000Z</time>
</trkpt>
<trkpt lat="46.0397490" lon="10.3736240">
	<ele>1246.20</ele>
	<time>2024-07-24T10:30:19.000Z</time>
</trkpt>
<trkpt lat="46.0397460" lon="10.3736310">
	<ele>1246.20</ele>
	<time>2024-07-24T10:30:20.000Z</time>
</trkpt>
<trkpt lat="46.0397430" lon="10.3736430">
	<ele>1245.80</ele>
	<time>2024-07-24T10:30:21.000Z</time>
</trkpt>
<trkpt lat="46.0397440" lon="10.3736550">
	<ele>1245.60</ele>
	<time>2024-07-24T10:30:22.000Z</time>
</trkpt>
<trkpt lat="46.0397440" lon="10.3736690">
	<ele>1245.40</ele>
	<time>2024-07-24T10:30:23.000Z</time>
</trkpt>
<trkpt lat="46.0397370" lon="10.3736850">
	<ele>1245.20</ele>
	<time>2024-07-24T10:30:24.000Z</time>
</trkpt>
<trkpt lat="46.0397330" lon="10.3736980">
	<ele>1245.20</ele>
	<time>2024-07-24T10:30:25.000Z</time>
</trkpt>
<trkpt lat="46.0397320" lon="10.3737150">
	<ele>1244.80</ele>
	<time>2024-07-24T10:30:26.000Z</time>
</trkpt>
<trkpt lat="46.0397250" lon="10.3737430">
	<ele>1244.60</ele>
	<time>2024-07-24T10:30:27.000Z</time>
</trkpt>
<trkpt lat="46.0397240" lon="10.3737710">
	<ele>1244.60</ele>
	<time>2024-07-24T10:30:28.000Z</time>
</trkpt>
<trkpt lat="46.0397250" lon="10.3737910">
	<ele>1244.40</ele>
	<time>2024-07-24T10:30:29.000Z</time>
</trkpt>
<trkpt lat="46.0397230" lon="10.3738080">
	<ele>1244.20</ele>
	<time>2024-07-24T10:30:30.000Z</time>
</trkpt>
<trkpt lat="46.0397180" lon="10.3738240">
	<ele>1244.20</ele>
	<time>2024-07-24T10:30:31.000Z</time>
</trkpt>
<trkpt lat="46.0397110" lon="10.3738420">
	<ele>1244.00</ele>
	<time>2024-07-24T10:30:32.000Z</time>
</trkpt>
<trkpt lat="46.0397000" lon="10.3738580">
	<ele>1243.80</ele>
	<time>2024-07-24T10:30:33.000Z</time>
</trkpt>
<trkpt lat="46.0396910" lon="10.3738740">
	<ele>1243.60</ele>
	<time>2024-07-24T10:30:34.000Z</time>
</trkpt>
<trkpt lat="46.0396810" lon="10.3738830">
	<ele>1243.60</ele>
	<time>2024-07-24T10:30:35.000Z</time>
</trkpt>
<trkpt lat="46.0396710" lon="10.3738900">
	<ele>1243.40</ele>
	<time>2024-07-24T10:30:36.000Z</time>
</trkpt>
<trkpt lat="46.0396670" lon="10.3739020">
	<ele>1243.40</ele>
	<time>2024-07-24T10:30:37.000Z</time>
</trkpt>
<trkpt lat="46.0396610" lon="10.3739120">
	<ele>1243.40</ele>
	<time>2024-07-24T10:30:38.000Z</time>
</trkpt>
<trkpt lat="46.0396560" lon="10.3739220">
	<ele>1243.20</ele>
	<time>2024-07-24T10:30:39.000Z</time>
</trkpt>
<trkpt lat="46.0396490" lon="10.3739360">
	<ele>1243.20</ele>
	<time>2024-07-24T10:30:40.000Z</time>
</trkpt>
<trkpt lat="46.0396410" lon="10.3739520">
	<ele>1243.00</ele>
	<time>2024-07-24T10:30:41.000Z</time>
</trkpt>
<trkpt lat="46.0396300" lon="10.3739610">
	<ele>1242.80</ele>
	<time>2024-07-24T10:30:42.000Z</time>
</trkpt>
<trkpt lat="46.0396180" lon="10.3739660">
	<ele>1242.60</ele>
	<time>2024-07-24T10:30:43.000Z</time>
</trkpt>
<trkpt lat="46.0396090" lon="10.3739800">
	<ele>1242.40</ele>
	<time>2024-07-24T10:30:44.000Z</time>
</trkpt>
<trkpt lat="46.0395970" lon="10.3739870">
	<ele>1242.40</ele>
	<time>2024-07-24T10:30:45.000Z</time>
</trkpt>
<trkpt lat="46.0395840" lon="10.3739970">
	<ele>1242.00</ele>
	<time>2024-07-24T10:30:46.000Z</time>
</trkpt>
<trkpt lat="46.0395760" lon="10.3740130">
	<ele>1241.80</ele>
	<time>2024-07-24T10:30:47.000Z</time>
</trkpt>
<trkpt lat="46.0395740" lon="10.3740410">
	<ele>1241.80</ele>
	<time>2024-07-24T10:30:48.000Z</time>
</trkpt>
<trkpt lat="46.0395700" lon="10.3740650">
	<ele>1241.60</ele>
	<time>2024-07-24T10:30:49.000Z</time>
</trkpt>
<trkpt lat="46.0395640" lon="10.3740820">
	<ele>1241.40</ele>
	<time>2024-07-24T10:30:50.000Z</time>
</trkpt>
<trkpt lat="46.0395590" lon="10.3740920">
	<ele>1241.00</ele>
	<time>2024-07-24T10:30:51.000Z</time>
</trkpt>
<trkpt lat="46.0395530" lon="10.3741000">
	<ele>1240.60</ele>
	<time>2024-07-24T10:30:52.000Z</time>
</trkpt>
<trkpt lat="46.0395410" lon="10.3741000">
	<ele>1240.40</ele>
	<time>2024-07-24T10:30:53.000Z</time>
</trkpt>
<trkpt lat="46.0395320" lon="10.3741030">
	<ele>1240.20</ele>
	<time>2024-07-24T10:30:54.000Z</time>
</trkpt>
<trkpt lat="46.0395220" lon="10.3741100">
	<ele>1240.00</ele>
	<time>2024-07-24T10:30:55.000Z</time>
</trkpt>
<trkpt lat="46.0395100" lon="10.3741170">
	<ele>1239.80</ele>
	<time>2024-07-24T10:30:56.000Z</time>
</trkpt>
<trkpt lat="46.0394980" lon="10.3741210">
	<ele>1239.60</ele>
	<time>2024-07-24T10:30:57.000Z</time>
</trkpt>
<trkpt lat="46.0394910" lon="10.3741260">
	<ele>1239.40</ele>
	<time>2024-07-24T10:30:58.000Z</time>
</trkpt>
<trkpt lat="46.0394820" lon="10.3741310">
	<ele>1239.20</ele>
	<time>2024-07-24T10:30:59.000Z</time>
</trkpt>
<trkpt lat="46.0394720" lon="10.3741340">
	<ele>1239.20</ele>
	<time>2024-07-24T10:31:00.000Z</time>
</trkpt>
<trkpt lat="46.0394650" lon="10.3741360">
	<ele>1239.00</ele>
	<time>2024-07-24T10:31:01.000Z</time>
</trkpt>
<trkpt lat="46.0394520" lon="10.3741350">
	<ele>1239.00</ele>
	<time>2024-07-24T10:31:02.000Z</time>
</trkpt>
<trkpt lat="46.0394410" lon="10.3741380">
	<ele>1238.80</ele>
	<time>2024-07-24T10:31:03.000Z</time>
</trkpt>
<trkpt lat="46.0394270" lon="10.3741420">
	<ele>1238.60</ele>
	<time>2024-07-24T10:31:04.000Z</time>
</trkpt>
<trkpt lat="46.0394170" lon="10.3741510">
	<ele>1238.20</ele>
	<time>2024-07-24T10:31:05.000Z</time>
</trkpt>
<trkpt lat="46.0394110" lon="10.3741560">
	<ele>1238.00</ele>
	<time>2024-07-24T10:31:06.000Z</time>
</trkpt>
<trkpt lat="46.0394010" lon="10.3741570">
	<ele>1237.80</ele>
	<time>2024-07-24T10:31:07.000Z</time>
</trkpt>
<trkpt lat="46.0393920" lon="10.3741550">
	<ele>1237.80</ele>
	<time>2024-07-24T10:31:08.000Z</time>
</trkpt>
<trkpt lat="46.0393830" lon="10.3741600">
	<ele>1237.60</ele>
	<time>2024-07-24T10:31:09.000Z</time>
</trkpt>
<trkpt lat="46.0393750" lon="10.3741660">
	<ele>1237.20</ele>
	<time>2024-07-24T10:31:10.000Z</time>
</trkpt>
<trkpt lat="46.0393680" lon="10.3741740">
	<ele>1237.00</ele>
	<time>2024-07-24T10:31:11.000Z</time>
</trkpt>
<trkpt lat="46.0393600" lon="10.3741790">
	<ele>1236.80</ele>
	<time>2024-07-24T10:31:12.000Z</time>
</trkpt>
<trkpt lat="46.0393440" lon="10.3741730">
	<ele>1236.60</ele>
	<time>2024-07-24T10:31:13.000Z</time>
</trkpt>
<trkpt lat="46.0393300" lon="10.3741650">
	<ele>1236.40</ele>
	<time>2024-07-24T10:31:14.000Z</time>
</trkpt>
<trkpt lat="46.0393180" lon="10.3741590">
	<ele>1236.20</ele>
	<time>2024-07-24T10:31:15.000Z</time>
</trkpt>
<trkpt lat="46.0393040" lon="10.3741570">
	<ele>1235.80</ele>
	<time>2024-07-24T10:31:16.000Z</time>
</trkpt>
<trkpt lat="46.0392880" lon="10.3741510">
	<ele>1235.60</ele>
	<time>2024-07-24T10:31:17.000Z</time>
</trkpt>
<trkpt lat="46.0392720" lon="10.3741450">
	<ele>1235.40</ele>
	<time>2024-07-24T10:31:18.000Z</time>
</trkpt>
<trkpt lat="46.0392600" lon="10.3741410">
	<ele>1235.20</ele>
	<time>2024-07-24T10:31:19.000Z</time>
</trkpt>
<trkpt lat="46.0392460" lon="10.3741330">
	<ele>1235.00</ele>
	<time>2024-07-24T10:31:20.000Z</time>
</trkpt>
<trkpt lat="46.0392380" lon="10.3741310">
	<ele>1235.00</ele>
	<time>2024-07-24T10:31:21.000Z</time>
</trkpt>
<trkpt lat="46.0392320" lon="10.3741250">
	<ele>1234.80</ele>
	<time>2024-07-24T10:31:22.000Z</time>
</trkpt>
<trkpt lat="46.0392260" lon="10.3741230">
	<ele>1234.60</ele>
	<time>2024-07-24T10:31:23.000Z</time>
</trkpt>
<trkpt lat="46.0392110" lon="10.3741160">
	<ele>1234.60</ele>
	<time>2024-07-24T10:31:24.000Z</time>
</trkpt>
<trkpt lat="46.0391980" lon="10.3741100">
	<ele>1234.40</ele>
	<time>2024-07-24T10:31:25.000Z</time>
</trkpt>
<trkpt lat="46.0391880" lon="10.3741130">
	<ele>1234.20</ele>
	<time>2024-07-24T10:31:26.000Z</time>
</trkpt>
<trkpt lat="46.0391750" lon="10.3741120">
	<ele>1233.80</ele>
	<time>2024-07-24T10:31:27.000Z</time>
</trkpt>
<trkpt lat="46.0391680" lon="10.3741080">
	<ele>1233.60</ele>
	<time>2024-07-24T10:31:28.000Z</time>
</trkpt>
<trkpt lat="46.0391540" lon="10.3740960">
	<ele>1233.40</ele>
	<time>2024-07-24T10:31:29.000Z</time>
</trkpt>
<trkpt lat="46.0391430" lon="10.3740820">
	<ele>1233.00</ele>
	<time>2024-07-24T10:31:30.000Z</time>
</trkpt>
<trkpt lat="46.0391310" lon="10.3740720">
	<ele>1232.80</ele>
	<time>2024-07-24T10:31:31.000Z</time>
</trkpt>
<trkpt lat="46.0391190" lon="10.3740690">
	<ele>1232.40</ele>
	<time>2024-07-24T10:31:32.000Z</time>
</trkpt>
<trkpt lat="46.0391080" lon="10.3740690">
	<ele>1232.20</ele>
	<time>2024-07-24T10:31:33.000Z</time>
</trkpt>
<trkpt lat="46.0391010" lon="10.3740620">
	<ele>1232.00</ele>
	<time>2024-07-24T10:31:34.000Z</time>
</trkpt>
<trkpt lat="46.0390890" lon="10.3740570">
	<ele>1231.80</ele>
	<time>2024-07-24T10:31:35.000Z</time>
</trkpt>
<trkpt lat="46.0390790" lon="10.3740560">
	<ele>1231.60</ele>
	<time>2024-07-24T10:31:36.000Z</time>
</trkpt>
<trkpt lat="46.0390700" lon="10.3740530">
	<ele>1231.20</ele>
	<time>2024-07-24T10:31:37.000Z</time>
</trkpt>
<trkpt lat="46.0390610" lon="10.3740510">
	<ele>1231.00</ele>
	<time>2024-07-24T10:31:38.000Z</time>
</trkpt>
<trkpt lat="46.0390520" lon="10.3740460">
	<ele>1230.60</ele>
	<time>2024-07-24T10:31:39.000Z</time>
</trkpt>
<trkpt lat="46.0390430" lon="10.3740380">
	<ele>1230.60</ele>
	<time>2024-07-24T10:31:40.000Z</time>
</trkpt>
<trkpt lat="46.0390340" lon="10.3740250">
	<ele>1230.20</ele>
	<time>2024-07-24T10:31:41.000Z</time>
</trkpt>
<trkpt lat="46.0390240" lon="10.3740210">
	<ele>1229.80</ele>
	<time>2024-07-24T10:31:42.000Z</time>
</trkpt>
<trkpt lat="46.0390170" lon="10.3740190">
	<ele>1229.80</ele>
	<time>2024-07-24T10:31:43.000Z</time>
</trkpt>
<trkpt lat="46.0390070" lon="10.3740120">
	<ele>1229.40</ele>
	<time>2024-07-24T10:31:44.000Z</time>
</trkpt>
<trkpt lat="46.0389960" lon="10.3740050">
	<ele>1229.20</ele>
	<time>2024-07-24T10:31:45.000Z</time>
</trkpt>
<trkpt lat="46.0389860" lon="10.3739990">
	<ele>1229.00</ele>
	<time>2024-07-24T10:31:46.000Z</time>
</trkpt>
<trkpt lat="46.0389750" lon="10.3739940">
	<ele>1228.80</ele>
	<time>2024-07-24T10:31:47.000Z</time>
</trkpt>
<trkpt lat="46.0389630" lon="10.3739920">
	<ele>1228.60</ele>
	<time>2024-07-24T10:31:48.000Z</time>
</trkpt>
<trkpt lat="46.0389550" lon="10.3739930">
	<ele>1228.40</ele>
	<time>2024-07-24T10:31:49.000Z</time>
</trkpt>
<trkpt lat="46.0389460" lon="10.3739860">
	<ele>1228.20</ele>
	<time>2024-07-24T10:31:50.000Z</time>
</trkpt>
<trkpt lat="46.0389440" lon="10.3739890">
	<ele>1227.80</ele>
	<time>2024-07-24T10:31:51.000Z</time>
</trkpt>
<trkpt lat="46.0389390" lon="10.3739860">
	<ele>1227.80</ele>
	<time>2024-07-24T10:31:52.000Z</time>
</trkpt>
<trkpt lat="46.0389360" lon="10.3739860">
	<ele>1227.40</ele>
	<time>2024-07-24T10:31:53.000Z</time>
</trkpt>
<trkpt lat="46.0389290" lon="10.3739830">
	<ele>1226.80</ele>
	<time>2024-07-24T10:31:54.000Z</time>
</trkpt>
<trkpt lat="46.0389200" lon="10.3739850">
	<ele>1226.40</ele>
	<time>2024-07-24T10:31:55.000Z</time>
</trkpt>
<trkpt lat="46.0389150" lon="10.3739850">
	<ele>1226.20</ele>
	<time>2024-07-24T10:31:56.000Z</time>
</trkpt>
<trkpt lat="46.0389060" lon="10.3739760">
	<ele>1226.00</ele>
	<time>2024-07-24T10:31:57.000Z</time>
</trkpt>
<trkpt lat="46.0388920" lon="10.3739720">
	<ele>1225.60</ele>
	<time>2024-07-24T10:31:58.000Z</time>
</trkpt>
<trkpt lat="46.0388800" lon="10.3739700">
	<ele>1225.40</ele>
	<time>2024-07-24T10:31:59.000Z</time>
</trkpt>
<trkpt lat="46.0388750" lon="10.3739620">
	<ele>1225.20</ele>
	<time>2024-07-24T10:32:00.000Z</time>
</trkpt>
<trkpt lat="46.0388740" lon="10.3739510">
	<ele>1225.00</ele>
	<time>2024-07-24T10:32:01.000Z</time>
</trkpt>
<trkpt lat="46.0388750" lon="10.3739330">
	<ele>1224.60</ele>
	<time>2024-07-24T10:32:02.000Z</time>
</trkpt>
<trkpt lat="46.0388770" lon="10.3739160">
	<ele>1224.40</ele>
	<time>2024-07-24T10:32:03.000Z</time>
</trkpt>
<trkpt lat="46.0388800" lon="10.3739000">
	<ele>1224.40</ele>
	<time>2024-07-24T10:32:04.000Z</time>
</trkpt>
<trkpt lat="46.0388780" lon="10.3738860">
	<ele>1224.20</ele>
	<time>2024-07-24T10:32:05.000Z</time>
</trkpt>
<trkpt lat="46.0388720" lon="10.3738840">
	<ele>1224.00</ele>
	<time>2024-07-24T10:32:06.000Z</time>
</trkpt>
<trkpt lat="46.0388620" lon="10.3738800">
	<ele>1223.80</ele>
	<time>2024-07-24T10:32:07.000Z</time>
</trkpt>
<trkpt lat="46.0388550" lon="10.3738750">
	<ele>1223.60</ele>
	<time>2024-07-24T10:32:08.000Z</time>
</trkpt>
<trkpt lat="46.0388400" lon="10.3738630">
	<ele>1223.20</ele>
	<time>2024-07-24T10:32:09.000Z</time>
</trkpt>
<trkpt lat="46.0388330" lon="10.3738480">
	<ele>1223.00</ele>
	<time>2024-07-24T10:32:10.000Z</time>
</trkpt>
<trkpt lat="46.0388310" lon="10.3738410">
	<ele>1222.80</ele>
	<time>2024-07-24T10:32:11.000Z</time>
</trkpt>
<trkpt lat="46.0388320" lon="10.3738290">
	<ele>1222.60</ele>
	<time>2024-07-24T10:32:12.000Z</time>
</trkpt>
<trkpt lat="46.0388290" lon="10.3738190">
	<ele>1222.40</ele>
	<time>2024-07-24T10:32:13.000Z</time>
</trkpt>
<trkpt lat="46.0388220" lon="10.3738130">
	<ele>1222.20</ele>
	<time>2024-07-24T10:32:14.000Z</time>
</trkpt>
<trkpt lat="46.0388160" lon="10.3738010">
	<ele>1222.00</ele>
	<time>2024-07-24T10:32:15.000Z</time>
</trkpt>
<trkpt lat="46.0388120" lon="10.3737880">
	<ele>1222.00</ele>
	<time>2024-07-24T10:32:16.000Z</time>
</trkpt>
<trkpt lat="46.0388090" lon="10.3737730">
	<ele>1221.80</ele>
	<time>2024-07-24T10:32:17.000Z</time>
</trkpt>
<trkpt lat="46.0388080" lon="10.3737600">
	<ele>1221.40</ele>
	<time>2024-07-24T10:32:18.000Z</time>
</trkpt>
<trkpt lat="46.0388050" lon="10.3737450">
	<ele>1221.40</ele>
	<time>2024-07-24T10:32:19.000Z</time>
</trkpt>
<trkpt lat="46.0388040" lon="10.3737290">
	<ele>1221.20</ele>
	<time>2024-07-24T10:32:20.000Z</time>
</trkpt>
<trkpt lat="46.0388010" lon="10.3737110">
	<ele>1221.00</ele>
	<time>2024-07-24T10:32:21.000Z</time>
</trkpt>
<trkpt lat="46.0387980" lon="10.3736870">
	<ele>1220.80</ele>
	<time>2024-07-24T10:32:22.000Z</time>
</trkpt>
<trkpt lat="46.0387920" lon="10.3736620">
	<ele>1220.60</ele>
	<time>2024-07-24T10:32:23.000Z</time>
</trkpt>
<trkpt lat="46.0387850" lon="10.3736420">
	<ele>1220.60</ele>
	<time>2024-07-24T10:32:24.000Z</time>
</trkpt>
<trkpt lat="46.0387800" lon="10.3736240">
	<ele>1220.40</ele>
	<time>2024-07-24T10:32:25.000Z</time>
</trkpt>
<trkpt lat="46.0387720" lon="10.3736130">
	<ele>1220.20</ele>
	<time>2024-07-24T10:32:26.000Z</time>
</trkpt>
<trkpt lat="46.0387670" lon="10.3736010">
	<ele>1220.20</ele>
	<time>2024-07-24T10:32:27.000Z</time>
</trkpt>
<trkpt lat="46.0387620" lon="10.3735870">
	<ele>1220.00</ele>
	<time>2024-07-24T10:32:28.000Z</time>
</trkpt>
<trkpt lat="46.0387600" lon="10.3735730">
	<ele>1219.80</ele>
	<time>2024-07-24T10:32:29.000Z</time>
</trkpt>
<trkpt lat="46.0387580" lon="10.3735550">
	<ele>1219.60</ele>
	<time>2024-07-24T10:32:30.000Z</time>
</trkpt>
<trkpt lat="46.0387590" lon="10.3735450">
	<ele>1219.40</ele>
	<time>2024-07-24T10:32:31.000Z</time>
</trkpt>
<trkpt lat="46.0387620" lon="10.3735390">
	<ele>1219.40</ele>
	<time>2024-07-24T10:32:32.000Z</time>
</trkpt>
<trkpt lat="46.0387620" lon="10.3735330">
	<ele>1219.20</ele>
	<time>2024-07-24T10:32:33.000Z</time>
</trkpt>
<trkpt lat="46.0387610" lon="10.3735160">
	<ele>1219.20</ele>
	<time>2024-07-24T10:32:34.000Z</time>
</trkpt>
<trkpt lat="46.0387600" lon="10.3735010">
	<ele>1219.00</ele>
	<time>2024-07-24T10:32:35.000Z</time>
</trkpt>
<trkpt lat="46.0387550" lon="10.3734870">
	<ele>1219.00</ele>
	<time>2024-07-24T10:32:36.000Z</time>
</trkpt>
<trkpt lat="46.0387480" lon="10.3734680">
	<ele>1219.00</ele>
	<time>2024-07-24T10:32:37.000Z</time>
</trkpt>
<trkpt lat="46.0387420" lon="10.3734450">
	<ele>1218.80</ele>
	<time>2024-07-24T10:32:38.000Z</time>
</trkpt>
<trkpt lat="46.0387400" lon="10.3734240">
	<ele>1218.80</ele>
	<time>2024-07-24T10:32:39.000Z</time>
</trkpt>
<trkpt lat="46.0387370" lon="10.3734100">
	<ele>1218.80</ele>
	<time>2024-07-24T10:32:40.000Z</time>
</trkpt>
<trkpt lat="46.0387330" lon="10.3733920">
	<ele>1218.60</ele>
	<time>2024-07-24T10:32:41.000Z</time>
</trkpt>
<trkpt lat="46.0387270" lon="10.3733700">
	<ele>1218.40</ele>
	<time>2024-07-24T10:32:42.000Z</time>
</trkpt>
<trkpt lat="46.0387260" lon="10.3733550">
	<ele>1218.20</ele>
	<time>2024-07-24T10:32:43.000Z</time>
</trkpt>
<trkpt lat="46.0387230" lon="10.3733380">
	<ele>1218.20</ele>
	<time>2024-07-24T10:32:44.000Z</time>
</trkpt>
<trkpt lat="46.0387200" lon="10.3733260">
	<ele>1218.00</ele>
	<time>2024-07-24T10:32:45.000Z</time>
</trkpt>
<trkpt lat="46.0387150" lon="10.3733140">
	<ele>1217.80</ele>
	<time>2024-07-24T10:32:46.000Z</time>
</trkpt>
<trkpt lat="46.0387110" lon="10.3733050">
	<ele>1217.80</ele>
	<time>2024-07-24T10:32:47.000Z</time>
</trkpt>
<trkpt lat="46.0387100" lon="10.3733000">
	<ele>1217.60</ele>
	<time>2024-07-24T10:32:48.000Z</time>
</trkpt>
<trkpt lat="46.0387100" lon="10.3732940">
	<ele>1217.20</ele>
	<time>2024-07-24T10:32:49.000Z</time>
</trkpt>
<trkpt lat="46.0387110" lon="10.3732860">
	<ele>1217.00</ele>
	<time>2024-07-24T10:32:50.000Z</time>
</trkpt>
<trkpt lat="46.0387110" lon="10.3732670">
	<ele>1216.60</ele>
	<time>2024-07-24T10:32:51.000Z</time>
</trkpt>
<trkpt lat="46.0387200" lon="10.3732550">
	<ele>1216.40</ele>
	<time>2024-07-24T10:32:52.000Z</time>
</trkpt>
<trkpt lat="46.0387290" lon="10.3732480">
	<ele>1216.20</ele>
	<time>2024-07-24T10:32:53.000Z</time>
</trkpt>
<trkpt lat="46.0387390" lon="10.3732410">
	<ele>1215.80</ele>
	<time>2024-07-24T10:32:54.000Z</time>
</trkpt>
<trkpt lat="46.0387440" lon="10.3732350">
	<ele>1215.60</ele>
	<time>2024-07-24T10:32:55.000Z</time>
</trkpt>
<trkpt lat="46.0387460" lon="10.3732310">
	<ele>1215.40</ele>
	<time>2024-07-24T10:32:56.000Z</time>
</trkpt>
<trkpt lat="46.0387340" lon="10.3732220">
	<ele>1215.00</ele>
	<time>2024-07-24T10:32:57.000Z</time>
</trkpt>
<trkpt lat="46.0387300" lon="10.3732140">
	<ele>1214.80</ele>
	<time>2024-07-24T10:32:58.000Z</time>
</trkpt>
<trkpt lat="46.0387440" lon="10.3732090">
	<ele>1214.60</ele>
	<time>2024-07-24T10:32:59.000Z</time>
</trkpt>
<trkpt lat="46.0387470" lon="10.3732090">
	<ele>1214.60</ele>
	<time>2024-07-24T10:33:00.000Z</time>
</trkpt>
<trkpt lat="46.0387510" lon="10.3732080">
	<ele>1214.60</ele>
	<time>2024-07-24T10:33:01.000Z</time>
</trkpt>
<trkpt lat="46.0387580" lon="10.3732080">
	<ele>1214.60</ele>
	<time>2024-07-24T10:33:02.000Z</time>
</trkpt>
<trkpt lat="46.0387630" lon="10.3732080">
	<ele>1214.60</ele>
	<time>2024-07-24T10:33:03.000Z</time>
</trkpt>
<trkpt lat="46.0387660" lon="10.3732070">
	<ele>1214.60</ele>
	<time>2024-07-24T10:33:04.000Z</time>
</trkpt>
<trkpt lat="46.0387680" lon="10.3732050">
	<ele>1214.60</ele>
	<time>2024-07-24T10:33:05.000Z</time>
</trkpt>
<trkpt lat="46.0387680" lon="10.3732050">
	<ele>1214.60</ele>
	<time>2024-07-24T10:33:06.000Z</time>
</trkpt>
<trkpt lat="46.0387690" lon="10.3732070">
	<ele>1214.60</ele>
	<time>2024-07-24T10:33:07.000Z</time>
</trkpt>
<trkpt lat="46.0387730" lon="10.3732110">
	<ele>1214.60</ele>
	<time>2024-07-24T10:33:08.000Z</time>
</trkpt>
<trkpt lat="46.0387760" lon="10.3732120">
	<ele>1214.60</ele>
	<time>2024-07-24T10:33:09.000Z</time>
</trkpt>
<trkpt lat="46.0387780" lon="10.3732130">
	<ele>1214.60</ele>
	<time>2024-07-24T10:33:10.000Z</time>
</trkpt>
<trkpt lat="46.0387760" lon="10.3732100">
	<ele>1214.60</ele>
	<time>2024-07-24T10:33:11.000Z</time>
</trkpt>
<trkpt lat="46.0387760" lon="10.3732100">
	<ele>1214.60</ele>
	<time>2024-07-24T10:33:12.000Z</time>
</trkpt>
<trkpt lat="46.0387780" lon="10.3732090">
	<ele>1214.60</ele>
	<time>2024-07-24T10:33:13.000Z</time>
</trkpt>
<trkpt lat="46.0387850" lon="10.3732160">
	<ele>1214.60</ele>
	<time>2024-07-24T10:33:14.000Z</time>
</trkpt>
<trkpt lat="46.0387920" lon="10.3732280">
	<ele>1214.40</ele>
	<time>2024-07-24T10:33:15.000Z</time>
</trkpt>
<trkpt lat="46.0387970" lon="10.3732310">
	<ele>1214.40</ele>
	<time>2024-07-24T10:33:16.000Z</time>
</trkpt>
<trkpt lat="46.0388020" lon="10.3732310">
	<ele>1214.40</ele>
	<time>2024-07-24T10:33:17.000Z</time>
</trkpt>
<trkpt lat="46.0388110" lon="10.3732380">
	<ele>1214.20</ele>
	<time>2024-07-24T10:33:18.000Z</time>
</trkpt>
<trkpt lat="46.0388160" lon="10.3732370">
	<ele>1214.20</ele>
	<time>2024-07-24T10:33:19.000Z</time>
</trkpt>
<trkpt lat="46.0388180" lon="10.3732280">
	<ele>1214.00</ele>
	<time>2024-07-24T10:33:20.000Z</time>
</trkpt>
<trkpt lat="46.0388180" lon="10.3732150">
	<ele>1214.00</ele>
	<time>2024-07-24T10:33:21.000Z</time>
</trkpt>
<trkpt lat="46.0388160" lon="10.3732020">
	<ele>1213.80</ele>
	<time>2024-07-24T10:33:22.000Z</time>
</trkpt>
<trkpt lat="46.0388140" lon="10.3731950">
	<ele>1213.60</ele>
	<time>2024-07-24T10:33:23.000Z</time>
</trkpt>
<trkpt lat="46.0388150" lon="10.3731870">
	<ele>1213.40</ele>
	<time>2024-07-24T10:33:24.000Z</time>
</trkpt>
<trkpt lat="46.0388200" lon="10.3731890">
	<ele>1213.00</ele>
	<time>2024-07-24T10:33:25.000Z</time>
</trkpt>
<trkpt lat="46.0388220" lon="10.3731890">
	<ele>1212.80</ele>
	<time>2024-07-24T10:33:26.000Z</time>
</trkpt>
<trkpt lat="46.0388290" lon="10.3731880">
	<ele>1212.60</ele>
	<time>2024-07-24T10:33:27.000Z</time>
</trkpt>
<trkpt lat="46.0388330" lon="10.3731790">
	<ele>1212.60</ele>
	<time>2024-07-24T10:33:28.000Z</time>
</trkpt>
<trkpt lat="46.0388390" lon="10.3731730">
	<ele>1212.40</ele>
	<time>2024-07-24T10:33:29.000Z</time>
</trkpt>
<trkpt lat="46.0388480" lon="10.3731600">
	<ele>1212.20</ele>
	<time>2024-07-24T10:33:30.000Z</time>
</trkpt>
<trkpt lat="46.0388530" lon="10.3731510">
	<ele>1212.20</ele>
	<time>2024-07-24T10:33:31.000Z</time>
</trkpt>
<trkpt lat="46.0388620" lon="10.3731480">
	<ele>1211.80</ele>
	<time>2024-07-24T10:33:32.000Z</time>
</trkpt>
<trkpt lat="46.0388740" lon="10.3731500">
	<ele>1211.60</ele>
	<time>2024-07-24T10:33:33.000Z</time>
</trkpt>
<trkpt lat="46.0388860" lon="10.3731550">
	<ele>1211.40</ele>
	<time>2024-07-24T10:33:34.000Z</time>
</trkpt>
<trkpt lat="46.0388970" lon="10.3731540">
	<ele>1211.20</ele>
	<time>2024-07-24T10:33:35.000Z</time>
</trkpt>
<trkpt lat="46.0389050" lon="10.3731520">
	<ele>1211.00</ele>
	<time>2024-07-24T10:33:36.000Z</time>
</trkpt>
<trkpt lat="46.0389090" lon="10.3731500">
	<ele>1210.80</ele>
	<time>2024-07-24T10:33:37.000Z</time>
</trkpt>
<trkpt lat="46.0389150" lon="10.3731400">
	<ele>1210.60</ele>
	<time>2024-07-24T10:33:38.000Z</time>
</trkpt>
<trkpt lat="46.0389200" lon="10.3731280">
	<ele>1210.40</ele>
	<time>2024-07-24T10:33:39.000Z</time>
</trkpt>
<trkpt lat="46.0389290" lon="10.3731190">
	<ele>1210.20</ele>
	<time>2024-07-24T10:33:40.000Z</time>
</trkpt>
<trkpt lat="46.0389350" lon="10.3731120">
	<ele>1210.00</ele>
	<time>2024-07-24T10:33:41.000Z</time>
</trkpt>
<trkpt lat="46.0389380" lon="10.3731070">
	<ele>1210.00</ele>
	<time>2024-07-24T10:33:42.000Z</time>
</trkpt>
<trkpt lat="46.0389480" lon="10.3731090">
	<ele>1209.80</ele>
	<time>2024-07-24T10:33:43.000Z</time>
</trkpt>
<trkpt lat="46.0389620" lon="10.3731110">
	<ele>1209.60</ele>
	<time>2024-07-24T10:33:44.000Z</time>
</trkpt>
<trkpt lat="46.0389750" lon="10.3731080">
	<ele>1209.20</ele>
	<time>2024-07-24T10:33:45.000Z</time>
</trkpt>
<trkpt lat="46.0389840" lon="10.3731010">
	<ele>1209.00</ele>
	<time>2024-07-24T10:33:46.000Z</time>
</trkpt>
<trkpt lat="46.0389900" lon="10.3730900">
	<ele>1209.00</ele>
	<time>2024-07-24T10:33:47.000Z</time>
</trkpt>
<trkpt lat="46.0389950" lon="10.3730770">
	<ele>1208.80</ele>
	<time>2024-07-24T10:33:48.000Z</time>
</trkpt>
<trkpt lat="46.0390010" lon="10.3730730">
	<ele>1208.60</ele>
	<time>2024-07-24T10:33:49.000Z</time>
</trkpt>
<trkpt lat="46.0390040" lon="10.3730630">
	<ele>1208.40</ele>
	<time>2024-07-24T10:33:50.000Z</time>
</trkpt>
<trkpt lat="46.0390010" lon="10.3730440">
	<ele>1208.40</ele>
	<time>2024-07-24T10:33:51.000Z</time>
</trkpt>
<trkpt lat="46.0390010" lon="10.3730190">
	<ele>1208.20</ele>
	<time>2024-07-24T10:33:52.000Z</time>
</trkpt>
<trkpt lat="46.0389990" lon="10.3730080">
	<ele>1208.00</ele>
	<time>2024-07-24T10:33:53.000Z</time>
</trkpt>
<trkpt lat="46.0390100" lon="10.3729920">
	<ele>1207.80</ele>
	<time>2024-07-24T10:33:54.000Z</time>
</trkpt>
<trkpt lat="46.0390220" lon="10.3729830">
	<ele>1207.40</ele>
	<time>2024-07-24T10:33:55.000Z</time>
</trkpt>
<trkpt lat="46.0390300" lon="10.3729650">
	<ele>1207.40</ele>
	<time>2024-07-24T10:33:56.000Z</time>
</trkpt>
<trkpt lat="46.0390380" lon="10.3729420">
	<ele>1207.20</ele>
	<time>2024-07-24T10:33:57.000Z</time>
</trkpt>
<trkpt lat="46.0390380" lon="10.3729240">
	<ele>1207.00</ele>
	<time>2024-07-24T10:33:58.000Z</time>
</trkpt>
<trkpt lat="46.0390400" lon="10.3729020">
	<ele>1206.80</ele>
	<time>2024-07-24T10:33:59.000Z</time>
</trkpt>
<trkpt lat="46.0390360" lon="10.3728850">
	<ele>1206.60</ele>
	<time>2024-07-24T10:34:00.000Z</time>
</trkpt>
<trkpt lat="46.0390240" lon="10.3728610">
	<ele>1206.40</ele>
	<time>2024-07-24T10:34:01.000Z</time>
</trkpt>
<trkpt lat="46.0390270" lon="10.3728340">
	<ele>1206.20</ele>
	<time>2024-07-24T10:34:02.000Z</time>
</trkpt>
<trkpt lat="46.0390280" lon="10.3728110">
	<ele>1206.20</ele>
	<time>2024-07-24T10:34:03.000Z</time>
</trkpt>
<trkpt lat="46.0390280" lon="10.3727910">
	<ele>1206.00</ele>
	<time>2024-07-24T10:34:04.000Z</time>
</trkpt>
<trkpt lat="46.0390260" lon="10.3727730">
	<ele>1205.80</ele>
	<time>2024-07-24T10:34:05.000Z</time>
</trkpt>
<trkpt lat="46.0390240" lon="10.3727570">
	<ele>1205.60</ele>
	<time>2024-07-24T10:34:06.000Z</time>
</trkpt>
<trkpt lat="46.0390210" lon="10.3727360">
	<ele>1205.40</ele>
	<time>2024-07-24T10:34:07.000Z</time>
</trkpt>
<trkpt lat="46.0390250" lon="10.3727230">
	<ele>1205.20</ele>
	<time>2024-07-24T10:34:08.000Z</time>
</trkpt>
<trkpt lat="46.0390260" lon="10.3727040">
	<ele>1205.00</ele>
	<time>2024-07-24T10:34:09.000Z</time>
</trkpt>
<trkpt lat="46.0390260" lon="10.3726870">
	<ele>1205.00</ele>
	<time>2024-07-24T10:34:10.000Z</time>
</trkpt>
<trkpt lat="46.0390240" lon="10.3726680">
	<ele>1204.60</ele>
	<time>2024-07-24T10:34:11.000Z</time>
</trkpt>
<trkpt lat="46.0390200" lon="10.3726450">
	<ele>1204.20</ele>
	<time>2024-07-24T10:34:12.000Z</time>
</trkpt>
<trkpt lat="46.0390150" lon="10.3726260">
	<ele>1203.80</ele>
	<time>2024-07-24T10:34:13.000Z</time>
</trkpt>
<trkpt lat="46.0390120" lon="10.3726090">
	<ele>1203.40</ele>
	<time>2024-07-24T10:34:14.000Z</time>
</trkpt>
<trkpt lat="46.0390110" lon="10.3725910">
	<ele>1203.20</ele>
	<time>2024-07-24T10:34:15.000Z</time>
</trkpt>
<trkpt lat="46.0390070" lon="10.3725820">
	<ele>1203.00</ele>
	<time>2024-07-24T10:34:16.000Z</time>
</trkpt>
<trkpt lat="46.0390030" lon="10.3725720">
	<ele>1202.80</ele>
	<time>2024-07-24T10:34:17.000Z</time>
</trkpt>
<trkpt lat="46.0389990" lon="10.3725620">
	<ele>1202.60</ele>
	<time>2024-07-24T10:34:18.000Z</time>
</trkpt>
<trkpt lat="46.0389920" lon="10.3725540">
	<ele>1202.20</ele>
	<time>2024-07-24T10:34:19.000Z</time>
</trkpt>
<trkpt lat="46.0389840" lon="10.3725430">
	<ele>1202.00</ele>
	<time>2024-07-24T10:34:20.000Z</time>
</trkpt>
<trkpt lat="46.0389770" lon="10.3725260">
	<ele>1201.60</ele>
	<time>2024-07-24T10:34:21.000Z</time>
</trkpt>
<trkpt lat="46.0389720" lon="10.3725080">
	<ele>1201.40</ele>
	<time>2024-07-24T10:34:22.000Z</time>
</trkpt>
<trkpt lat="46.0389710" lon="10.3724910">
	<ele>1201.00</ele>
	<time>2024-07-24T10:34:23.000Z</time>
</trkpt>
<trkpt lat="46.0389720" lon="10.3724630">
	<ele>1200.60</ele>
	<time>2024-07-24T10:34:24.000Z</time>
</trkpt>
<trkpt lat="46.0389750" lon="10.3724410">
	<ele>1200.40</ele>
	<time>2024-07-24T10:34:25.000Z</time>
</trkpt>
<trkpt lat="46.0389770" lon="10.3724210">
	<ele>1200.20</ele>
	<time>2024-07-24T10:34:26.000Z</time>
</trkpt>
<trkpt lat="46.0389790" lon="10.3724110">
	<ele>1200.00</ele>
	<time>2024-07-24T10:34:27.000Z</time>
</trkpt>
<trkpt lat="46.0389730" lon="10.3724040">
	<ele>1199.80</ele>
	<time>2024-07-24T10:34:28.000Z</time>
</trkpt>
<trkpt lat="46.0389680" lon="10.3723990">
	<ele>1199.60</ele>
	<time>2024-07-24T10:34:29.000Z</time>
</trkpt>
<trkpt lat="46.0389610" lon="10.3723910">
	<ele>1199.40</ele>
	<time>2024-07-24T10:34:30.000Z</time>
</trkpt>
<trkpt lat="46.0389560" lon="10.3723880">
	<ele>1199.00</ele>
	<time>2024-07-24T10:34:31.000Z</time>
</trkpt>
<trkpt lat="46.0389510" lon="10.3723820">
	<ele>1198.80</ele>
	<time>2024-07-24T10:34:32.000Z</time>
</trkpt>
<trkpt lat="46.0389480" lon="10.3723780">
	<ele>1198.60</ele>
	<time>2024-07-24T10:34:33.000Z</time>
</trkpt>
<trkpt lat="46.0389410" lon="10.3723700">
	<ele>1198.20</ele>
	<time>2024-07-24T10:34:34.000Z</time>
</trkpt>
<trkpt lat="46.0389320" lon="10.3723650">
	<ele>1198.20</ele>
	<time>2024-07-24T10:34:35.000Z</time>
</trkpt>
<trkpt lat="46.0389260" lon="10.3723600">
	<ele>1197.80</ele>
	<time>2024-07-24T10:34:36.000Z</time>
</trkpt>
<trkpt lat="46.0389220" lon="10.3723540">
	<ele>1197.80</ele>
	<time>2024-07-24T10:34:37.000Z</time>
</trkpt>
<trkpt lat="46.0389200" lon="10.3723520">
	<ele>1197.60</ele>
	<time>2024-07-24T10:34:38.000Z</time>
</trkpt>
<trkpt lat="46.0389210" lon="10.3723540">
	<ele>1197.60</ele>
	<time>2024-07-24T10:34:39.000Z</time>
</trkpt>
<trkpt lat="46.0389190" lon="10.3723590">
	<ele>1197.40</ele>
	<time>2024-07-24T10:34:40.000Z</time>
</trkpt>
<trkpt lat="46.0389140" lon="10.3723560">
	<ele>1197.40</ele>
	<time>2024-07-24T10:34:41.000Z</time>
</trkpt>
<trkpt lat="46.0389140" lon="10.3723600">
	<ele>1197.60</ele>
	<time>2024-07-24T10:34:42.000Z</time>
</trkpt>
<trkpt lat="46.0389140" lon="10.3723600">
	<ele>1197.60</ele>
	<time>2024-07-24T10:34:43.000Z</time>
</trkpt>
<trkpt lat="46.0389130" lon="10.3723580">
	<ele>1197.60</ele>
	<time>2024-07-24T10:34:44.000Z</time>
</trkpt>
<trkpt lat="46.0389140" lon="10.3723630">
	<ele>1197.60</ele>
	<time>2024-07-24T10:34:45.000Z</time>
</trkpt>
<trkpt lat="46.0389170" lon="10.3723660">
	<ele>1197.60</ele>
	<time>2024-07-24T10:34:46.000Z</time>
</trkpt>
<trkpt lat="46.0389100" lon="10.3723550">
	<ele>1197.60</ele>
	<time>2024-07-24T10:34:47.000Z</time>
</trkpt>
<trkpt lat="46.0389020" lon="10.3723450">
	<ele>1197.40</ele>
	<time>2024-07-24T10:34:48.000Z</time>
</trkpt>
<trkpt lat="46.0388920" lon="10.3723360">
	<ele>1197.20</ele>
	<time>2024-07-24T10:34:49.000Z</time>
</trkpt>
<trkpt lat="46.0388860" lon="10.3723270">
	<ele>1197.00</ele>
	<time>2024-07-24T10:34:50.000Z</time>
</trkpt>
<trkpt lat="46.0388780" lon="10.3723230">
	<ele>1196.80</ele>
	<time>2024-07-24T10:34:51.000Z</time>
</trkpt>
<trkpt lat="46.0388690" lon="10.3723290">
	<ele>1196.60</ele>
	<time>2024-07-24T10:34:52.000Z</time>
</trkpt>
<trkpt lat="46.0388610" lon="10.3723330">
	<ele>1196.40</ele>
	<time>2024-07-24T10:34:53.000Z</time>
</trkpt>
<trkpt lat="46.0388550" lon="10.3723480">
	<ele>1196.20</ele>
	<time>2024-07-24T10:34:54.000Z</time>
</trkpt>
<trkpt lat="46.0388450" lon="10.3723630">
	<ele>1196.00</ele>
	<time>2024-07-24T10:34:55.000Z</time>
</trkpt>
<trkpt lat="46.0388400" lon="10.3723650">
	<ele>1195.80</ele>
	<time>2024-07-24T10:34:56.000Z</time>
</trkpt>
<trkpt lat="46.0388370" lon="10.3723630">
	<ele>1195.60</ele>
	<time>2024-07-24T10:34:57.000Z</time>
</trkpt>
<trkpt lat="46.0388280" lon="10.3723620">
	<ele>1195.40</ele>
	<time>2024-07-24T10:34:58.000Z</time>
</trkpt>
<trkpt lat="46.0388190" lon="10.3723690">
	<ele>1195.20</ele>
	<time>2024-07-24T10:34:59.000Z</time>
</trkpt>
<trkpt lat="46.0388140" lon="10.3723700">
	<ele>1195.20</ele>
	<time>2024-07-24T10:35:00.000Z</time>
</trkpt>
<trkpt lat="46.0388040" lon="10.3723690">
	<ele>1194.80</ele>
	<time>2024-07-24T10:35:01.000Z</time>
</trkpt>
<trkpt lat="46.0387970" lon="10.3723650">
	<ele>1194.40</ele>
	<time>2024-07-24T10:35:02.000Z</time>
</trkpt>
<trkpt lat="46.0387900" lon="10.3723560">
	<ele>1194.20</ele>
	<time>2024-07-24T10:35:03.000Z</time>
</trkpt>
<trkpt lat="46.0387810" lon="10.3723550">
	<ele>1193.80</ele>
	<time>2024-07-24T10:35:04.000Z</time>
</trkpt>
<trkpt lat="46.0387750" lon="10.3723560">
	<ele>1193.60</ele>
	<time>2024-07-24T10:35:05.000Z</time>
</trkpt>
<trkpt lat="46.0387700" lon="10.3723630">
	<ele>1193.40</ele>
	<time>2024-07-24T10:35:06.000Z</time>
</trkpt>
<trkpt lat="46.0387610" lon="10.3723690">
	<ele>1193.40</ele>
	<time>2024-07-24T10:35:07.000Z</time>
</trkpt>
<trkpt lat="46.0387500" lon="10.3723800">
	<ele>1193.20</ele>
	<time>2024-07-24T10:35:08.000Z</time>
</trkpt>
<trkpt lat="46.0387370" lon="10.3723860">
	<ele>1192.80</ele>
	<time>2024-07-24T10:35:09.000Z</time>
</trkpt>
<trkpt lat="46.0387230" lon="10.3723850">
	<ele>1192.40</ele>
	<time>2024-07-24T10:35:10.000Z</time>
</trkpt>
<trkpt lat="46.0387120" lon="10.3723910">
	<ele>1192.20</ele>
	<time>2024-07-24T10:35:11.000Z</time>
</trkpt>
<trkpt lat="46.0387050" lon="10.3724000">
	<ele>1192.00</ele>
	<time>2024-07-24T10:35:12.000Z</time>
</trkpt>
<trkpt lat="46.0386960" lon="10.3724010">
	<ele>1191.80</ele>
	<time>2024-07-24T10:35:13.000Z</time>
</trkpt>
<trkpt lat="46.0386850" lon="10.3724020">
	<ele>1191.40</ele>
	<time>2024-07-24T10:35:14.000Z</time>
</trkpt>
<trkpt lat="46.0386780" lon="10.3724070">
	<ele>1191.20</ele>
	<time>2024-07-24T10:35:15.000Z</time>
</trkpt>
<trkpt lat="46.0386680" lon="10.3724110">
	<ele>1191.20</ele>
	<time>2024-07-24T10:35:16.000Z</time>
</trkpt>
<trkpt lat="46.0386590" lon="10.3724220">
	<ele>1191.00</ele>
	<time>2024-07-24T10:35:17.000Z</time>
</trkpt>
<trkpt lat="46.0386490" lon="10.3724270">
	<ele>1190.60</ele>
	<time>2024-07-24T10:35:18.000Z</time>
</trkpt>
<trkpt lat="46.0386420" lon="10.3724340">
	<ele>1190.20</ele>
	<time>2024-07-24T10:35:19.000Z</time>
</trkpt>
<trkpt lat="46.0386340" lon="10.3724390">
	<ele>1190.00</ele>
	<time>2024-07-24T10:35:20.000Z</time>
</trkpt>
<trkpt lat="46.0386260" lon="10.3724480">
	<ele>1189.80</ele>
	<time>2024-07-24T10:35:21.000Z</time>
</trkpt>
<trkpt lat="46.0386180" lon="10.3724620">
	<ele>1189.40</ele>
	<time>2024-07-24T10:35:22.000Z</time>
</trkpt>
<trkpt lat="46.0386050" lon="10.3724700">
	<ele>1189.20</ele>
	<time>2024-07-24T10:35:23.000Z</time>
</trkpt>
<trkpt lat="46.0385900" lon="10.3724690">
	<ele>1189.00</ele>
	<time>2024-07-24T10:35:24.000Z</time>
</trkpt>
<trkpt lat="46.0385770" lon="10.3724690">
	<ele>1188.80</ele>
	<time>2024-07-24T10:35:25.000Z</time>
</trkpt>
<trkpt lat="46.0385650" lon="10.3724610">
	<ele>1188.40</ele>
	<time>2024-07-24T10:35:26.000Z</time>
</trkpt>
<trkpt lat="46.0385550" lon="10.3724600">
	<ele>1188.20</ele>
	<time>2024-07-24T10:35:27.000Z</time>
</trkpt>
<trkpt lat="46.0385460" lon="10.3724610">
	<ele>1188.00</ele>
	<time>2024-07-24T10:35:28.000Z</time>
</trkpt>
<trkpt lat="46.0385410" lon="10.3724590">
	<ele>1187.80</ele>
	<time>2024-07-24T10:35:29.000Z</time>
</trkpt>
<trkpt lat="46.0385370" lon="10.3724610">
	<ele>1187.40</ele>
	<time>2024-07-24T10:35:30.000Z</time>
</trkpt>
<trkpt lat="46.0385310" lon="10.3724620">
	<ele>1187.20</ele>
	<time>2024-07-24T10:35:31.000Z</time>
</trkpt>
<trkpt lat="46.0385200" lon="10.3724640">
	<ele>1187.00</ele>
	<time>2024-07-24T10:35:32.000Z</time>
</trkpt>
<trkpt lat="46.0385110" lon="10.3724650">
	<ele>1186.60</ele>
	<time>2024-07-24T10:35:33.000Z</time>
</trkpt>
<trkpt lat="46.0385010" lon="10.3724640">
	<ele>1186.40</ele>
	<time>2024-07-24T10:35:34.000Z</time>
</trkpt>
<trkpt lat="46.0384920" lon="10.3724660">
	<ele>1186.20</ele>
	<time>2024-07-24T10:35:35.000Z</time>
</trkpt>
<trkpt lat="46.0384820" lon="10.3724720">
	<ele>1186.00</ele>
	<time>2024-07-24T10:35:36.000Z</time>
</trkpt>
<trkpt lat="46.0384700" lon="10.3724750">
	<ele>1185.80</ele>
	<time>2024-07-24T10:35:37.000Z</time>
</trkpt>
<trkpt lat="46.0384600" lon="10.3724760">
	<ele>1185.60</ele>
	<time>2024-07-24T10:35:38.000Z</time>
</trkpt>
<trkpt lat="46.0384560" lon="10.3724760">
	<ele>1185.40</ele>
	<time>2024-07-24T10:35:39.000Z</time>
</trkpt>
<trkpt lat="46.0384470" lon="10.3724780">
	<ele>1185.20</ele>
	<time>2024-07-24T10:35:40.000Z</time>
</trkpt>
<trkpt lat="46.0384400" lon="10.3724820">
	<ele>1185.00</ele>
	<time>2024-07-24T10:35:41.000Z</time>
</trkpt>
<trkpt lat="46.0384310" lon="10.3724840">
	<ele>1184.60</ele>
	<time>2024-07-24T10:35:42.000Z</time>
</trkpt>
<trkpt lat="46.0384230" lon="10.3724840">
	<ele>1184.40</ele>
	<time>2024-07-24T10:35:43.000Z</time>
</trkpt>
<trkpt lat="46.0384130" lon="10.3724790">
	<ele>1184.20</ele>
	<time>2024-07-24T10:35:44.000Z</time>
</trkpt>
<trkpt lat="46.0384030" lon="10.3724730">
	<ele>1183.80</ele>
	<time>2024-07-24T10:35:45.000Z</time>
</trkpt>
<trkpt lat="46.0383900" lon="10.3724710">
	<ele>1183.40</ele>
	<time>2024-07-24T10:35:46.000Z</time>
</trkpt>
<trkpt lat="46.0383800" lon="10.3724730">
	<ele>1183.20</ele>
	<time>2024-07-24T10:35:47.000Z</time>
</trkpt>
<trkpt lat="46.0383650" lon="10.3724750">
	<ele>1183.00</ele>
	<time>2024-07-24T10:35:48.000Z</time>
</trkpt>
<trkpt lat="46.0383520" lon="10.3724810">
	<ele>1182.80</ele>
	<time>2024-07-24T10:35:49.000Z</time>
</trkpt>
<trkpt lat="46.0383460" lon="10.3724790">
	<ele>1182.60</ele>
	<time>2024-07-24T10:35:50.000Z</time>
</trkpt>
<trkpt lat="46.0383370" lon="10.3724730">
	<ele>1182.40</ele>
	<time>2024-07-24T10:35:51.000Z</time>
</trkpt>
<trkpt lat="46.0383260" lon="10.3724650">
	<ele>1182.00</ele>
	<time>2024-07-24T10:35:52.000Z</time>
</trkpt>
<trkpt lat="46.0383140" lon="10.3724580">
	<ele>1181.80</ele>
	<time>2024-07-24T10:35:53.000Z</time>
</trkpt>
<trkpt lat="46.0383030" lon="10.3724560">
	<ele>1181.60</ele>
	<time>2024-07-24T10:35:54.000Z</time>
</trkpt>
<trkpt lat="46.0382910" lon="10.3724570">
	<ele>1181.40</ele>
	<time>2024-07-24T10:35:55.000Z</time>
</trkpt>
<trkpt lat="46.0382810" lon="10.3724650">
	<ele>1181.20</ele>
	<time>2024-07-24T10:35:56.000Z</time>
</trkpt>
<trkpt lat="46.0382680" lon="10.3724670">
	<ele>1181.00</ele>
	<time>2024-07-24T10:35:57.000Z</time>
</trkpt>
<trkpt lat="46.0382550" lon="10.3724670">
	<ele>1180.80</ele>
	<time>2024-07-24T10:35:58.000Z</time>
</trkpt>
<trkpt lat="46.0382470" lon="10.3724700">
	<ele>1180.60</ele>
	<time>2024-07-24T10:35:59.000Z</time>
</trkpt>
<trkpt lat="46.0382420" lon="10.3724780">
	<ele>1180.20</ele>
	<time>2024-07-24T10:36:00.000Z</time>
</trkpt>
<trkpt lat="46.0382340" lon="10.3724830">
	<ele>1180.00</ele>
	<time>2024-07-24T10:36:01.000Z</time>
</trkpt>
<trkpt lat="46.0382290" lon="10.3724860">
	<ele>1180.00</ele>
	<time>2024-07-24T10:36:02.000Z</time>
</trkpt>
<trkpt lat="46.0382260" lon="10.3724890">
	<ele>1179.60</ele>
	<time>2024-07-24T10:36:03.000Z</time>
</trkpt>
<trkpt lat="46.0382160" lon="10.3724910">
	<ele>1179.40</ele>
	<time>2024-07-24T10:36:04.000Z</time>
</trkpt>
<trkpt lat="46.0382080" lon="10.3724900">
	<ele>1179.00</ele>
	<time>2024-07-24T10:36:05.000Z</time>
</trkpt>
<trkpt lat="46.0382040" lon="10.3724910">
	<ele>1178.80</ele>
	<time>2024-07-24T10:36:06.000Z</time>
</trkpt>
<trkpt lat="46.0381990" lon="10.3725050">
	<ele>1178.80</ele>
	<time>2024-07-24T10:36:07.000Z</time>
</trkpt>
<trkpt lat="46.0381860" lon="10.3725170">
	<ele>1178.60</ele>
	<time>2024-07-24T10:36:08.000Z</time>
</trkpt>
<trkpt lat="46.0381710" lon="10.3725250">
	<ele>1178.40</ele>
	<time>2024-07-24T10:36:09.000Z</time>
</trkpt>
<trkpt lat="46.0381610" lon="10.3725280">
	<ele>1178.20</ele>
	<time>2024-07-24T10:36:10.000Z</time>
</trkpt>
<trkpt lat="46.0381510" lon="10.3725370">
	<ele>1177.80</ele>
	<time>2024-07-24T10:36:11.000Z</time>
</trkpt>
<trkpt lat="46.0381400" lon="10.3725500">
	<ele>1177.80</ele>
	<time>2024-07-24T10:36:12.000Z</time>
</trkpt>
<trkpt lat="46.0381280" lon="10.3725640">
	<ele>1177.60</ele>
	<time>2024-07-24T10:36:13.000Z</time>
</trkpt>
<trkpt lat="46.0381160" lon="10.3725850">
	<ele>1177.40</ele>
	<time>2024-07-24T10:36:14.000Z</time>
</trkpt>
<trkpt lat="46.0380980" lon="10.3725960">
	<ele>1177.20</ele>
	<time>2024-07-24T10:36:15.000Z</time>
</trkpt>
<trkpt lat="46.0380860" lon="10.3726020">
	<ele>1177.00</ele>
	<time>2024-07-24T10:36:16.000Z</time>
</trkpt>
<trkpt lat="46.0380700" lon="10.3726080">
	<ele>1176.80</ele>
	<time>2024-07-24T10:36:17.000Z</time>
</trkpt>
<trkpt lat="46.0380550" lon="10.3726080">
	<ele>1176.60</ele>
	<time>2024-07-24T10:36:18.000Z</time>
</trkpt>
<trkpt lat="46.0380390" lon="10.3726150">
	<ele>1176.60</ele>
	<time>2024-07-24T10:36:19.000Z</time>
</trkpt>
<trkpt lat="46.0380260" lon="10.3726230">
	<ele>1176.20</ele>
	<time>2024-07-24T10:36:20.000Z</time>
</trkpt>
<trkpt lat="46.0380180" lon="10.3726280">
	<ele>1175.80</ele>
	<time>2024-07-24T10:36:21.000Z</time>
</trkpt>
<trkpt lat="46.0380110" lon="10.3726340">
	<ele>1175.60</ele>
	<time>2024-07-24T10:36:22.000Z</time>
</trkpt>
<trkpt lat="46.0379980" lon="10.3726380">
	<ele>1175.40</ele>
	<time>2024-07-24T10:36:23.000Z</time>
</trkpt>
<trkpt lat="46.0379860" lon="10.3726460">
	<ele>1175.20</ele>
	<time>2024-07-24T10:36:24.000Z</time>
</trkpt>
<trkpt lat="46.0379740" lon="10.3726580">
	<ele>1175.00</ele>
	<time>2024-07-24T10:36:25.000Z</time>
</trkpt>
<trkpt lat="46.0379660" lon="10.3726590">
	<ele>1174.80</ele>
	<time>2024-07-24T10:36:26.000Z</time>
</trkpt>
<trkpt lat="46.0379560" lon="10.3726560">
	<ele>1174.60</ele>
	<time>2024-07-24T10:36:27.000Z</time>
</trkpt>
<trkpt lat="46.0379440" lon="10.3726600">
	<ele>1174.40</ele>
	<time>2024-07-24T10:36:28.000Z</time>
</trkpt>
<trkpt lat="46.0379370" lon="10.3726680">
	<ele>1174.40</ele>
	<time>2024-07-24T10:36:29.000Z</time>
</trkpt>
<trkpt lat="46.0379290" lon="10.3726770">
	<ele>1174.20</ele>
	<time>2024-07-24T10:36:30.000Z</time>
</trkpt>
<trkpt lat="46.0379210" lon="10.3726850">
	<ele>1174.20</ele>
	<time>2024-07-24T10:36:31.000Z</time>
</trkpt>
<trkpt lat="46.0379150" lon="10.3726920">
	<ele>1173.80</ele>
	<time>2024-07-24T10:36:32.000Z</time>
</trkpt>
<trkpt lat="46.0379100" lon="10.3727050">
	<ele>1173.60</ele>
	<time>2024-07-24T10:36:33.000Z</time>
</trkpt>
<trkpt lat="46.0379080" lon="10.3727220">
	<ele>1173.60</ele>
	<time>2024-07-24T10:36:34.000Z</time>
</trkpt>
<trkpt lat="46.0379020" lon="10.3727400">
	<ele>1173.40</ele>
	<time>2024-07-24T10:36:35.000Z</time>
</trkpt>
<trkpt lat="46.0378950" lon="10.3727550">
	<ele>1173.40</ele>
	<time>2024-07-24T10:36:36.000Z</time>
</trkpt>
<trkpt lat="46.0378860" lon="10.3727670">
	<ele>1173.20</ele>
	<time>2024-07-24T10:36:37.000Z</time>
</trkpt>
<trkpt lat="46.0378770" lon="10.3727860">
	<ele>1173.00</ele>
	<time>2024-07-24T10:36:38.000Z</time>
</trkpt>
<trkpt lat="46.0378690" lon="10.3727960">
	<ele>1172.80</ele>
	<time>2024-07-24T10:36:39.000Z</time>
</trkpt>
<trkpt lat="46.0378620" lon="10.3728060">
	<ele>1172.80</ele>
	<time>2024-07-24T10:36:40.000Z</time>
</trkpt>
<trkpt lat="46.0378510" lon="10.3728090">
	<ele>1172.60</ele>
	<time>2024-07-24T10:36:41.000Z</time>
</trkpt>
<trkpt lat="46.0378400" lon="10.3728160">
	<ele>1172.40</ele>
	<time>2024-07-24T10:36:42.000Z</time>
</trkpt>
<trkpt lat="46.0378280" lon="10.3728240">
	<ele>1172.20</ele>
	<time>2024-07-24T10:36:43.000Z</time>
</trkpt>
<trkpt lat="46.0378160" lon="10.3728320">
	<ele>1172.00</ele>
	<time>2024-07-24T10:36:44.000Z</time>
</trkpt>
<trkpt lat="46.0378050" lon="10.3728350">
	<ele>1171.80</ele>
	<time>2024-07-24T10:36:45.000Z</time>
</trkpt>
<trkpt lat="46.0377900" lon="10.3728350">
	<ele>1171.80</ele>
	<time>2024-07-24T10:36:46.000Z</time>
</trkpt>
<trkpt lat="46.0377700" lon="10.3728340">
	<ele>1171.80</ele>
	<time>2024-07-24T10:36:47.000Z</time>
</trkpt>
<trkpt lat="46.0377560" lon="10.3728340">
	<ele>1171.60</ele>
	<time>2024-07-24T10:36:48.000Z</time>
</trkpt>
<trkpt lat="46.0377480" lon="10.3728340">
	<ele>1171.60</ele>
	<time>2024-07-24T10:36:49.000Z</time>
</trkpt>
<trkpt lat="46.0377380" lon="10.3728330">
	<ele>1171.60</ele>
	<time>2024-07-24T10:36:50.000Z</time>
</trkpt>
<trkpt lat="46.0377250" lon="10.3728410">
	<ele>1171.40</ele>
	<time>2024-07-24T10:36:51.000Z</time>
</trkpt>
<trkpt lat="46.0377130" lon="10.3728530">
	<ele>1171.20</ele>
	<time>2024-07-24T10:36:52.000Z</time>
</trkpt>
<trkpt lat="46.0377010" lon="10.3728560">
	<ele>1171.00</ele>
	<time>2024-07-24T10:36:53.000Z</time>
</trkpt>
<trkpt lat="46.0376860" lon="10.3728560">
	<ele>1170.80</ele>
	<time>2024-07-24T10:36:54.000Z</time>
</trkpt>
<trkpt lat="46.0376780" lon="10.3728630">
	<ele>1170.80</ele>
	<time>2024-07-24T10:36:55.000Z</time>
</trkpt>
<trkpt lat="46.0376670" lon="10.3728700">
	<ele>1170.80</ele>
	<time>2024-07-24T10:36:56.000Z</time>
</trkpt>
<trkpt lat="46.0376590" lon="10.3728770">
	<ele>1170.60</ele>
	<time>2024-07-24T10:36:57.000Z</time>
</trkpt>
<trkpt lat="46.0376530" lon="10.3728830">
	<ele>1170.40</ele>
	<time>2024-07-24T10:36:58.000Z</time>
</trkpt>
<trkpt lat="46.0376450" lon="10.3728850">
	<ele>1170.20</ele>
	<time>2024-07-24T10:36:59.000Z</time>
</trkpt>
<trkpt lat="46.0376340" lon="10.3728840">
	<ele>1169.60</ele>
	<time>2024-07-24T10:37:00.000Z</time>
</trkpt>
<trkpt lat="46.0376230" lon="10.3728800">
	<ele>1169.40</ele>
	<time>2024-07-24T10:37:01.000Z</time>
</trkpt>
<trkpt lat="46.0376050" lon="10.3728760">
	<ele>1169.20</ele>
	<time>2024-07-24T10:37:02.000Z</time>
</trkpt>
<trkpt lat="46.0375920" lon="10.3728800">
	<ele>1169.20</ele>
	<time>2024-07-24T10:37:03.000Z</time>
</trkpt>
<trkpt lat="46.0375780" lon="10.3728770">
	<ele>1169.00</ele>
	<time>2024-07-24T10:37:04.000Z</time>
</trkpt>
<trkpt lat="46.0375660" lon="10.3728730">
	<ele>1168.60</ele>
	<time>2024-07-24T10:37:05.000Z</time>
</trkpt>
<trkpt lat="46.0375580" lon="10.3728690">
	<ele>1168.40</ele>
	<time>2024-07-24T10:37:06.000Z</time>
</trkpt>
<trkpt lat="46.0375520" lon="10.3728680">
	<ele>1168.40</ele>
	<time>2024-07-24T10:37:07.000Z</time>
</trkpt>
<trkpt lat="46.0375440" lon="10.3728690">
	<ele>1168.20</ele>
	<time>2024-07-24T10:37:08.000Z</time>
</trkpt>
<trkpt lat="46.0375360" lon="10.3728750">
	<ele>1167.80</ele>
	<time>2024-07-24T10:37:09.000Z</time>
</trkpt>
<trkpt lat="46.0375250" lon="10.3728860">
	<ele>1167.60</ele>
	<time>2024-07-24T10:37:10.000Z</time>
</trkpt>
<trkpt lat="46.0375130" lon="10.3728930">
	<ele>1167.60</ele>
	<time>2024-07-24T10:37:11.000Z</time>
</trkpt>
<trkpt lat="46.0375040" lon="10.3728930">
	<ele>1167.20</ele>
	<time>2024-07-24T10:37:12.000Z</time>
</trkpt>
<trkpt lat="46.0374980" lon="10.3728950">
	<ele>1167.00</ele>
	<time>2024-07-24T10:37:13.000Z</time>
</trkpt>
<trkpt lat="46.0374900" lon="10.3729050">
	<ele>1166.60</ele>
	<time>2024-07-24T10:37:14.000Z</time>
</trkpt>
<trkpt lat="46.0374780" lon="10.3729120">
	<ele>1166.20</ele>
	<time>2024-07-24T10:37:15.000Z</time>
</trkpt>
<trkpt lat="46.0374650" lon="10.3729100">
	<ele>1166.00</ele>
	<time>2024-07-24T10:37:16.000Z</time>
</trkpt>
<trkpt lat="46.0374530" lon="10.3729050">
	<ele>1165.60</ele>
	<time>2024-07-24T10:37:17.000Z</time>
</trkpt>
<trkpt lat="46.0374420" lon="10.3729040">
	<ele>1165.40</ele>
	<time>2024-07-24T10:37:18.000Z</time>
</trkpt>
<trkpt lat="46.0374350" lon="10.3729040">
	<ele>1165.00</ele>
	<time>2024-07-24T10:37:19.000Z</time>
</trkpt>
<trkpt lat="46.0374290" lon="10.3729070">
	<ele>1164.80</ele>
	<time>2024-07-24T10:37:20.000Z</time>
</trkpt>
<trkpt lat="46.0374240" lon="10.3729040">
	<ele>1164.60</ele>
	<time>2024-07-24T10:37:21.000Z</time>
</trkpt>
<trkpt lat="46.0374140" lon="10.3729050">
	<ele>1164.40</ele>
	<time>2024-07-24T10:37:22.000Z</time>
</trkpt>
<trkpt lat="46.0374030" lon="10.3729130">
	<ele>1164.20</ele>
	<time>2024-07-24T10:37:23.000Z</time>
</trkpt>
<trkpt lat="46.0373920" lon="10.3729220">
	<ele>1164.00</ele>
	<time>2024-07-24T10:37:24.000Z</time>
</trkpt>
<trkpt lat="46.0373790" lon="10.3729300">
	<ele>1163.80</ele>
	<time>2024-07-24T10:37:25.000Z</time>
</trkpt>
<trkpt lat="46.0373680" lon="10.3729360">
	<ele>1163.40</ele>
	<time>2024-07-24T10:37:26.000Z</time>
</trkpt>
<trkpt lat="46.0373620" lon="10.3729380">
	<ele>1163.40</ele>
	<time>2024-07-24T10:37:27.000Z</time>
</trkpt>
<trkpt lat="46.0373510" lon="10.3729400">
	<ele>1163.00</ele>
	<time>2024-07-24T10:37:28.000Z</time>
</trkpt>
<trkpt lat="46.0373400" lon="10.3729430">
	<ele>1162.80</ele>
	<time>2024-07-24T10:37:29.000Z</time>
</trkpt>
<trkpt lat="46.0373280" lon="10.3729470">
	<ele>1162.40</ele>
	<time>2024-07-24T10:37:30.000Z</time>
</trkpt>
<trkpt lat="46.0373210" lon="10.3729440">
	<ele>1162.00</ele>
	<time>2024-07-24T10:37:31.000Z</time>
</trkpt>
<trkpt lat="46.0373130" lon="10.3729420">
	<ele>1161.60</ele>
	<time>2024-07-24T10:37:32.000Z</time>
</trkpt>
<trkpt lat="46.0372990" lon="10.3729350">
	<ele>1161.40</ele>
	<time>2024-07-24T10:37:33.000Z</time>
</trkpt>
<trkpt lat="46.0372870" lon="10.3729290">
	<ele>1161.20</ele>
	<time>2024-07-24T10:37:34.000Z</time>
</trkpt>
<trkpt lat="46.0372810" lon="10.3729270">
	<ele>1160.80</ele>
	<time>2024-07-24T10:37:35.000Z</time>
</trkpt>
<trkpt lat="46.0372710" lon="10.3729290">
	<ele>1160.60</ele>
	<time>2024-07-24T10:37:36.000Z</time>
</trkpt>
<trkpt lat="46.0372590" lon="10.3729300">
	<ele>1160.40</ele>
	<time>2024-07-24T10:37:37.000Z</time>
</trkpt>
<trkpt lat="46.0372480" lon="10.3729320">
	<ele>1160.20</ele>
	<time>2024-07-24T10:37:38.000Z</time>
</trkpt>
<trkpt lat="46.0372400" lon="10.3729310">
	<ele>1160.00</ele>
	<time>2024-07-24T10:37:39.000Z</time>
</trkpt>
<trkpt lat="46.0372340" lon="10.3729330">
	<ele>1159.60</ele>
	<time>2024-07-24T10:37:40.000Z</time>
</trkpt>
<trkpt lat="46.0372270" lon="10.3729340">
	<ele>1159.20</ele>
	<time>2024-07-24T10:37:41.000Z</time>
</trkpt>
<trkpt lat="46.0372140" lon="10.3729350">
	<ele>1158.80</ele>
	<time>2024-07-24T10:37:42.000Z</time>
</trkpt>
<trkpt lat="46.0372030" lon="10.3729380">
	<ele>1158.60</ele>
	<time>2024-07-24T10:37:43.000Z</time>
</trkpt>
<trkpt lat="46.0371940" lon="10.3729400">
	<ele>1158.40</ele>
	<time>2024-07-24T10:37:44.000Z</time>
</trkpt>
<trkpt lat="46.0371840" lon="10.3729440">
	<ele>1158.20</ele>
	<time>2024-07-24T10:37:45.000Z</time>
</trkpt>
<trkpt lat="46.0371760" lon="10.3729510">
	<ele>1157.80</ele>
	<time>2024-07-24T10:37:46.000Z</time>
</trkpt>
<trkpt lat="46.0371620" lon="10.3729570">
	<ele>1157.80</ele>
	<time>2024-07-24T10:37:47.000Z</time>
</trkpt>
<trkpt lat="46.0371500" lon="10.3729650">
	<ele>1157.60</ele>
	<time>2024-07-24T10:37:48.000Z</time>
</trkpt>
<trkpt lat="46.0371370" lon="10.3729690">
	<ele>1157.00</ele>
	<time>2024-07-24T10:37:49.000Z</time>
</trkpt>
<trkpt lat="46.0371270" lon="10.3729730">
	<ele>1156.80</ele>
	<time>2024-07-24T10:37:50.000Z</time>
</trkpt>
<trkpt lat="46.0371190" lon="10.3729800">
	<ele>1156.60</ele>
	<time>2024-07-24T10:37:51.000Z</time>
</trkpt>
<trkpt lat="46.0371120" lon="10.3729820">
	<ele>1156.40</ele>
	<time>2024-07-24T10:37:52.000Z</time>
</trkpt>
<trkpt lat="46.0371000" lon="10.3729830">
	<ele>1156.20</ele>
	<time>2024-07-24T10:37:53.000Z</time>
</trkpt>
<trkpt lat="46.0370910" lon="10.3729880">
	<ele>1156.00</ele>
	<time>2024-07-24T10:37:54.000Z</time>
</trkpt>
<trkpt lat="46.0370830" lon="10.3729960">
	<ele>1155.60</ele>
	<time>2024-07-24T10:37:55.000Z</time>
</trkpt>
<trkpt lat="46.0370750" lon="10.3730080">
	<ele>1155.20</ele>
	<time>2024-07-24T10:37:56.000Z</time>
</trkpt>
<trkpt lat="46.0370650" lon="10.3730210">
	<ele>1155.00</ele>
	<time>2024-07-24T10:37:57.000Z</time>
</trkpt>
<trkpt lat="46.0370590" lon="10.3730320">
	<ele>1154.80</ele>
	<time>2024-07-24T10:37:58.000Z</time>
</trkpt>
<trkpt lat="46.0370540" lon="10.3730410">
	<ele>1154.60</ele>
	<time>2024-07-24T10:37:59.000Z</time>
</trkpt>
<trkpt lat="46.0370460" lon="10.3730490">
	<ele>1154.40</ele>
	<time>2024-07-24T10:38:00.000Z</time>
</trkpt>
<trkpt lat="46.0370420" lon="10.3730540">
	<ele>1154.00</ele>
	<time>2024-07-24T10:38:01.000Z</time>
</trkpt>
<trkpt lat="46.0370390" lon="10.3730580">
	<ele>1153.80</ele>
	<time>2024-07-24T10:38:02.000Z</time>
</trkpt>
<trkpt lat="46.0370350" lon="10.3730590">
	<ele>1153.60</ele>
	<time>2024-07-24T10:38:03.000Z</time>
</trkpt>
<trkpt lat="46.0370310" lon="10.3730650">
	<ele>1153.40</ele>
	<time>2024-07-24T10:38:04.000Z</time>
</trkpt>
<trkpt lat="46.0370290" lon="10.3730780">
	<ele>1153.20</ele>
	<time>2024-07-24T10:38:05.000Z</time>
</trkpt>
<trkpt lat="46.0370230" lon="10.3730920">
	<ele>1153.00</ele>
	<time>2024-07-24T10:38:06.000Z</time>
</trkpt>
<trkpt lat="46.0370190" lon="10.3731060">
	<ele>1152.80</ele>
	<time>2024-07-24T10:38:07.000Z</time>
</trkpt>
<trkpt lat="46.0370170" lon="10.3731120">
	<ele>1152.60</ele>
	<time>2024-07-24T10:38:08.000Z</time>
</trkpt>
<trkpt lat="46.0370080" lon="10.3731190">
	<ele>1152.40</ele>
	<time>2024-07-24T10:38:09.000Z</time>
</trkpt>
<trkpt lat="46.0369980" lon="10.3731310">
	<ele>1152.00</ele>
	<time>2024-07-24T10:38:10.000Z</time>
</trkpt>
<trkpt lat="46.0369860" lon="10.3731460">
	<ele>1152.00</ele>
	<time>2024-07-24T10:38:11.000Z</time>
</trkpt>
<trkpt lat="46.0369720" lon="10.3731570">
	<ele>1151.80</ele>
	<time>2024-07-24T10:38:12.000Z</time>
</trkpt>
<trkpt lat="46.0369580" lon="10.3731710">
	<ele>1151.60</ele>
	<time>2024-07-24T10:38:13.000Z</time>
</trkpt>
<trkpt lat="46.0369430" lon="10.3731850">
	<ele>1151.40</ele>
	<time>2024-07-24T10:38:14.000Z</time>
</trkpt>
<trkpt lat="46.0369320" lon="10.3731940">
	<ele>1151.20</ele>
	<time>2024-07-24T10:38:15.000Z</time>
</trkpt>
<trkpt lat="46.0369220" lon="10.3731960">
	<ele>1151.00</ele>
	<time>2024-07-24T10:38:16.000Z</time>
</trkpt>
<trkpt lat="46.0369090" lon="10.3731940">
	<ele>1150.80</ele>
	<time>2024-07-24T10:38:17.000Z</time>
</trkpt>
<trkpt lat="46.0368980" lon="10.3731880">
	<ele>1150.40</ele>
	<time>2024-07-24T10:38:18.000Z</time>
</trkpt>
<trkpt lat="46.0368920" lon="10.3731920">
	<ele>1150.20</ele>
	<time>2024-07-24T10:38:19.000Z</time>
</trkpt>
<trkpt lat="46.0368800" lon="10.3731930">
	<ele>1150.00</ele>
	<time>2024-07-24T10:38:20.000Z</time>
</trkpt>
<trkpt lat="46.0368650" lon="10.3731930">
	<ele>1150.00</ele>
	<time>2024-07-24T10:38:21.000Z</time>
</trkpt>
<trkpt lat="46.0368570" lon="10.3732010">
	<ele>1149.80</ele>
	<time>2024-07-24T10:38:22.000Z</time>
</trkpt>
<trkpt lat="46.0368500" lon="10.3732080">
	<ele>1149.60</ele>
	<time>2024-07-24T10:38:23.000Z</time>
</trkpt>
<trkpt lat="46.0368410" lon="10.3732240">
	<ele>1149.60</ele>
	<time>2024-07-24T10:38:24.000Z</time>
</trkpt>
<trkpt lat="46.0368320" lon="10.3732350">
	<ele>1149.40</ele>
	<time>2024-07-24T10:38:25.000Z</time>
</trkpt>
<trkpt lat="46.0368210" lon="10.3732390">
	<ele>1149.20</ele>
	<time>2024-07-24T10:38:26.000Z</time>
</trkpt>
<trkpt lat="46.0368120" lon="10.3732540">
	<ele>1149.00</ele>
	<time>2024-07-24T10:38:27.000Z</time>
</trkpt>
<trkpt lat="46.0368020" lon="10.3732650">
	<ele>1149.00</ele>
	<time>2024-07-24T10:38:28.000Z</time>
</trkpt>
<trkpt lat="46.0367900" lon="10.3732720">
	<ele>1148.80</ele>
	<time>2024-07-24T10:38:29.000Z</time>
</trkpt>
<trkpt lat="46.0367750" lon="10.3732740">
	<ele>1148.60</ele>
	<time>2024-07-24T10:38:30.000Z</time>
</trkpt>
<trkpt lat="46.0367610" lon="10.3732800">
	<ele>1148.40</ele>
	<time>2024-07-24T10:38:31.000Z</time>
</trkpt>
<trkpt lat="46.0367510" lon="10.3732840">
	<ele>1148.40</ele>
	<time>2024-07-24T10:38:32.000Z</time>
</trkpt>
<trkpt lat="46.0367390" lon="10.3732910">
	<ele>1148.20</ele>
	<time>2024-07-24T10:38:33.000Z</time>
</trkpt>
<trkpt lat="46.0367280" lon="10.3732960">
	<ele>1148.00</ele>
	<time>2024-07-24T10:38:34.000Z</time>
</trkpt>
<trkpt lat="46.0367180" lon="10.3732990">
	<ele>1148.00</ele>
	<time>2024-07-24T10:38:35.000Z</time>
</trkpt>
<trkpt lat="46.0367050" lon="10.3733020">
	<ele>1147.80</ele>
	<time>2024-07-24T10:38:36.000Z</time>
</trkpt>
<trkpt lat="46.0366950" lon="10.3733020">
	<ele>1147.60</ele>
	<time>2024-07-24T10:38:37.000Z</time>
</trkpt>
<trkpt lat="46.0366930" lon="10.3732990">
	<ele>1147.60</ele>
	<time>2024-07-24T10:38:38.000Z</time>
</trkpt>
<trkpt lat="46.0366910" lon="10.3733010">
	<ele>1147.40</ele>
	<time>2024-07-24T10:38:39.000Z</time>
</trkpt>
<trkpt lat="46.0366880" lon="10.3733040">
	<ele>1147.40</ele>
	<time>2024-07-24T10:38:40.000Z</time>
</trkpt>
<trkpt lat="46.0366830" lon="10.3733070">
	<ele>1147.40</ele>
	<time>2024-07-24T10:38:41.000Z</time>
</trkpt>
<trkpt lat="46.0366700" lon="10.3733220">
	<ele>1147.40</ele>
	<time>2024-07-24T10:38:42.000Z</time>
</trkpt>
<trkpt lat="46.0366660" lon="10.3733270">
	<ele>1147.00</ele>
	<time>2024-07-24T10:38:43.000Z</time>
</trkpt>
<trkpt lat="46.0366660" lon="10.3733400">
	<ele>1146.80</ele>
	<time>2024-07-24T10:38:44.000Z</time>
</trkpt>
<trkpt lat="46.0366670" lon="10.3733430">
	<ele>1146.80</ele>
	<time>2024-07-24T10:38:45.000Z</time>
</trkpt>
<trkpt lat="46.0366690" lon="10.3733550">
	<ele>1146.60</ele>
	<time>2024-07-24T10:38:46.000Z</time>
</trkpt>
<trkpt lat="46.0366710" lon="10.3733570">
	<ele>1146.60</ele>
	<time>2024-07-24T10:38:47.000Z</time>
</trkpt>
<trkpt lat="46.0366730" lon="10.3733600">
	<ele>1146.60</ele>
	<time>2024-07-24T10:38:48.000Z</time>
</trkpt>
<trkpt lat="46.0366760" lon="10.3733680">
	<ele>1146.60</ele>
	<time>2024-07-24T10:38:49.000Z</time>
</trkpt>
<trkpt lat="46.0366740" lon="10.3733680">
	<ele>1146.40</ele>
	<time>2024-07-24T10:38:50.000Z</time>
</trkpt>
<trkpt lat="46.0366710" lon="10.3733580">
	<ele>1146.40</ele>
	<time>2024-07-24T10:38:51.000Z</time>
</trkpt>
<trkpt lat="46.0366660" lon="10.3733450">
	<ele>1146.40</ele>
	<time>2024-07-24T10:38:52.000Z</time>
</trkpt>
<trkpt lat="46.0366620" lon="10.3733360">
	<ele>1146.40</ele>
	<time>2024-07-24T10:38:53.000Z</time>
</trkpt>
<trkpt lat="46.0366580" lon="10.3733290">
	<ele>1146.40</ele>
	<time>2024-07-24T10:38:54.000Z</time>
</trkpt>
<trkpt lat="46.0366590" lon="10.3733280">
	<ele>1146.40</ele>
	<time>2024-07-24T10:38:55.000Z</time>
</trkpt>
<trkpt lat="46.0366580" lon="10.3733260">
	<ele>1146.40</ele>
	<time>2024-07-24T10:38:56.000Z</time>
</trkpt>
<trkpt lat="46.0366540" lon="10.3733160">
	<ele>1146.40</ele>
	<time>2024-07-24T10:38:57.000Z</time>
</trkpt>
<trkpt lat="46.0366530" lon="10.3733140">
	<ele>1146.40</ele>
	<time>2024-07-24T10:38:58.000Z</time>
</trkpt>
<trkpt lat="46.0366520" lon="10.3733120">
	<ele>1146.40</ele>
	<time>2024-07-24T10:38:59.000Z</time>
</trkpt>
<trkpt lat="46.0366570" lon="10.3733070">
	<ele>1146.40</ele>
	<time>2024-07-24T10:39:00.000Z</time>
</trkpt>
<trkpt lat="46.0366620" lon="10.3733030">
	<ele>1146.40</ele>
	<time>2024-07-24T10:39:01.000Z</time>
</trkpt>
<trkpt lat="46.0366630" lon="10.3733040">
	<ele>1146.40</ele>
	<time>2024-07-24T10:39:02.000Z</time>
</trkpt>
<trkpt lat="46.0366610" lon="10.3733050">
	<ele>1146.40</ele>
	<time>2024-07-24T10:39:03.000Z</time>
</trkpt>
<trkpt lat="46.0366610" lon="10.3733060">
	<ele>1146.40</ele>
	<time>2024-07-24T10:39:04.000Z</time>
</trkpt>
<trkpt lat="46.0366640" lon="10.3733000">
	<ele>1146.40</ele>
	<time>2024-07-24T10:39:05.000Z</time>
</trkpt>
<trkpt lat="46.0366620" lon="10.3733040">
	<ele>1146.20</ele>
	<time>2024-07-24T10:39:06.000Z</time>
</trkpt>
<trkpt lat="46.0366630" lon="10.3733120">
	<ele>1146.20</ele>
	<time>2024-07-24T10:39:07.000Z</time>
</trkpt>
<trkpt lat="46.0366620" lon="10.3733180">
	<ele>1146.20</ele>
	<time>2024-07-24T10:39:08.000Z</time>
</trkpt>
<trkpt lat="46.0366630" lon="10.3733210">
	<ele>1146.20</ele>
	<time>2024-07-24T10:39:09.000Z</time>
</trkpt>
<trkpt lat="46.0366610" lon="10.3733270">
	<ele>1146.20</ele>
	<time>2024-07-24T10:39:10.000Z</time>
</trkpt>
<trkpt lat="46.0366550" lon="10.3733280">
	<ele>1146.20</ele>
	<time>2024-07-24T10:39:11.000Z</time>
</trkpt>
<trkpt lat="46.0366470" lon="10.3733330">
	<ele>1146.00</ele>
	<time>2024-07-24T10:39:12.000Z</time>
</trkpt>
<trkpt lat="46.0366430" lon="10.3733340">
	<ele>1146.00</ele>
	<time>2024-07-24T10:39:13.000Z</time>
</trkpt>
<trkpt lat="46.0366450" lon="10.3733270">
	<ele>1146.00</ele>
	<time>2024-07-24T10:39:14.000Z</time>
</trkpt>
<trkpt lat="46.0366350" lon="10.3733240">
	<ele>1146.00</ele>
	<time>2024-07-24T10:39:15.000Z</time>
</trkpt>
<trkpt lat="46.0366240" lon="10.3733210">
	<ele>1145.80</ele>
	<time>2024-07-24T10:39:16.000Z</time>
</trkpt>
<trkpt lat="46.0366140" lon="10.3733210">
	<ele>1145.60</ele>
	<time>2024-07-24T10:39:17.000Z</time>
</trkpt>
<trkpt lat="46.0366020" lon="10.3733200">
	<ele>1145.40</ele>
	<time>2024-07-24T10:39:18.000Z</time>
</trkpt>
<trkpt lat="46.0365920" lon="10.3733170">
	<ele>1145.40</ele>
	<time>2024-07-24T10:39:19.000Z</time>
</trkpt>
<trkpt lat="46.0365820" lon="10.3733170">
	<ele>1145.20</ele>
	<time>2024-07-24T10:39:20.000Z</time>
</trkpt>
<trkpt lat="46.0365740" lon="10.3733170">
	<ele>1145.00</ele>
	<time>2024-07-24T10:39:21.000Z</time>
</trkpt>
<trkpt lat="46.0365610" lon="10.3733150">
	<ele>1145.00</ele>
	<time>2024-07-24T10:39:22.000Z</time>
</trkpt>
<trkpt lat="46.0365480" lon="10.3733160">
	<ele>1144.80</ele>
	<time>2024-07-24T10:39:23.000Z</time>
</trkpt>
<trkpt lat="46.0365330" lon="10.3733170">
	<ele>1144.80</ele>
	<time>2024-07-24T10:39:24.000Z</time>
</trkpt>
<trkpt lat="46.0365130" lon="10.3733150">
	<ele>1144.60</ele>
	<time>2024-07-24T10:39:25.000Z</time>
</trkpt>
<trkpt lat="46.0365030" lon="10.3733210">
	<ele>1144.40</ele>
	<time>2024-07-24T10:39:26.000Z</time>
</trkpt>
<trkpt lat="46.0364900" lon="10.3733210">
	<ele>1144.20</ele>
	<time>2024-07-24T10:39:27.000Z</time>
</trkpt>
<trkpt lat="46.0364780" lon="10.3733250">
	<ele>1144.00</ele>
	<time>2024-07-24T10:39:28.000Z</time>
</trkpt>
<trkpt lat="46.0364700" lon="10.3733210">
	<ele>1144.00</ele>
	<time>2024-07-24T10:39:29.000Z</time>
</trkpt>
<trkpt lat="46.0364610" lon="10.3733200">
	<ele>1143.80</ele>
	<time>2024-07-24T10:39:30.000Z</time>
</trkpt>
<trkpt lat="46.0364530" lon="10.3733190">
	<ele>1143.60</ele>
	<time>2024-07-24T10:39:31.000Z</time>
</trkpt>
<trkpt lat="46.0364430" lon="10.3733140">
	<ele>1143.60</ele>
	<time>2024-07-24T10:39:32.000Z</time>
</trkpt>
<trkpt lat="46.0364330" lon="10.3733150">
	<ele>1143.40</ele>
	<time>2024-07-24T10:39:33.000Z</time>
</trkpt>
<trkpt lat="46.0364240" lon="10.3733160">
	<ele>1143.20</ele>
	<time>2024-07-24T10:39:34.000Z</time>
</trkpt>
<trkpt lat="46.0364160" lon="10.3733130">
	<ele>1143.00</ele>
	<time>2024-07-24T10:39:35.000Z</time>
</trkpt>
<trkpt lat="46.0364110" lon="10.3733090">
	<ele>1142.60</ele>
	<time>2024-07-24T10:39:36.000Z</time>
</trkpt>
<trkpt lat="46.0364040" lon="10.3733100">
	<ele>1142.40</ele>
	<time>2024-07-24T10:39:37.000Z</time>
</trkpt>
<trkpt lat="46.0363960" lon="10.3733100">
	<ele>1142.40</ele>
	<time>2024-07-24T10:39:38.000Z</time>
</trkpt>
<trkpt lat="46.0363860" lon="10.3733100">
	<ele>1142.00</ele>
	<time>2024-07-24T10:39:39.000Z</time>
</trkpt>
<trkpt lat="46.0363800" lon="10.3733130">
	<ele>1141.80</ele>
	<time>2024-07-24T10:39:40.000Z</time>
</trkpt>
<trkpt lat="46.0363750" lon="10.3733150">
	<ele>1141.60</ele>
	<time>2024-07-24T10:39:41.000Z</time>
</trkpt>
<trkpt lat="46.0363670" lon="10.3733200">
	<ele>1141.00</ele>
	<time>2024-07-24T10:39:42.000Z</time>
</trkpt>
<trkpt lat="46.0363590" lon="10.3733240">
	<ele>1140.60</ele>
	<time>2024-07-24T10:39:43.000Z</time>
</trkpt>
<trkpt lat="46.0363500" lon="10.3733300">
	<ele>1140.40</ele>
	<time>2024-07-24T10:39:44.000Z</time>
</trkpt>
<trkpt lat="46.0363430" lon="10.3733380">
	<ele>1140.40</ele>
	<time>2024-07-24T10:39:45.000Z</time>
</trkpt>
<trkpt lat="46.0363380" lon="10.3733650">
	<ele>1140.20</ele>
	<time>2024-07-24T10:39:46.000Z</time>
</trkpt>
<trkpt lat="46.0363260" lon="10.3733730">
	<ele>1140.00</ele>
	<time>2024-07-24T10:39:47.000Z</time>
</trkpt>
<trkpt lat="46.0363140" lon="10.3733840">
	<ele>1139.80</ele>
	<time>2024-07-24T10:39:48.000Z</time>
</trkpt>
<trkpt lat="46.0363120" lon="10.3733870">
	<ele>1139.60</ele>
	<time>2024-07-24T10:39:49.000Z</time>
</trkpt>
<trkpt lat="46.0363360" lon="10.3733950">
	<ele>1139.60</ele>
	<time>2024-07-24T10:39:50.000Z</time>
</trkpt>
<trkpt lat="46.0363520" lon="10.3734040">
	<ele>1139.60</ele>
	<time>2024-07-24T10:39:51.000Z</time>
</trkpt>
<trkpt lat="46.0363570" lon="10.3734040">
	<ele>1139.40</ele>
	<time>2024-07-24T10:39:52.000Z</time>
</trkpt>
<trkpt lat="46.0363540" lon="10.3734060">
	<ele>1139.20</ele>
	<time>2024-07-24T10:39:53.000Z</time>
</trkpt>
<trkpt lat="46.0363450" lon="10.3734190">
	<ele>1139.20</ele>
	<time>2024-07-24T10:39:54.000Z</time>
</trkpt>
<trkpt lat="46.0363340" lon="10.3734260">
	<ele>1139.20</ele>
	<time>2024-07-24T10:39:55.000Z</time>
</trkpt>
<trkpt lat="46.0363250" lon="10.3734330">
	<ele>1139.00</ele>
	<time>2024-07-24T10:39:56.000Z</time>
</trkpt>
<trkpt lat="46.0363140" lon="10.3734380">
	<ele>1138.80</ele>
	<time>2024-07-24T10:39:57.000Z</time>
</trkpt>
<trkpt lat="46.0363020" lon="10.3734310">
	<ele>1138.60</ele>
	<time>2024-07-24T10:39:58.000Z</time>
</trkpt>
<trkpt lat="46.0362930" lon="10.3734270">
	<ele>1138.40</ele>
	<time>2024-07-24T10:39:59.000Z</time>
</trkpt>
<trkpt lat="46.0362830" lon="10.3734240">
	<ele>1138.20</ele>
	<time>2024-07-24T10:40:00.000Z</time>
</trkpt>
<trkpt lat="46.0362720" lon="10.3734230">
	<ele>1138.00</ele>
	<time>2024-07-24T10:40:01.000Z</time>
</trkpt>
<trkpt lat="46.0362640" lon="10.3734230">
	<ele>1137.60</ele>
	<time>2024-07-24T10:40:02.000Z</time>
</trkpt>
<trkpt lat="46.0362560" lon="10.3734220">
	<ele>1137.40</ele>
	<time>2024-07-24T10:40:03.000Z</time>
</trkpt>
<trkpt lat="46.0362450" lon="10.3734220">
	<ele>1137.20</ele>
	<time>2024-07-24T10:40:04.000Z</time>
</trkpt>
<trkpt lat="46.0362330" lon="10.3734190">
	<ele>1137.00</ele>
	<time>2024-07-24T10:40:05.000Z</time>
</trkpt>
<trkpt lat="46.0362180" lon="10.3734170">
	<ele>1136.80</ele>
	<time>2024-07-24T10:40:06.000Z</time>
</trkpt>
<trkpt lat="46.0362040" lon="10.3734160">
	<ele>1136.60</ele>
	<time>2024-07-24T10:40:07.000Z</time>
</trkpt>
<trkpt lat="46.0361870" lon="10.3734120">
	<ele>1136.20</ele>
	<time>2024-07-24T10:40:08.000Z</time>
</trkpt>
<trkpt lat="46.0361730" lon="10.3734040">
	<ele>1135.80</ele>
	<time>2024-07-24T10:40:09.000Z</time>
</trkpt>
<trkpt lat="46.0361620" lon="10.3734040">
	<ele>1135.60</ele>
	<time>2024-07-24T10:40:10.000Z</time>
</trkpt>
<trkpt lat="46.0361480" lon="10.3734040">
	<ele>1135.40</ele>
	<time>2024-07-24T10:40:11.000Z</time>
</trkpt>
<trkpt lat="46.0361380" lon="10.3734060">
	<ele>1135.00</ele>
	<time>2024-07-24T10:40:12.000Z</time>
</trkpt>
<trkpt lat="46.0361230" lon="10.3734040">
	<ele>1134.80</ele>
	<time>2024-07-24T10:40:13.000Z</time>
</trkpt>
<trkpt lat="46.0361120" lon="10.3734000">
	<ele>1134.60</ele>
	<time>2024-07-24T10:40:14.000Z</time>
</trkpt>
<trkpt lat="46.0361010" lon="10.3733920">
	<ele>1134.40</ele>
	<time>2024-07-24T10:40:15.000Z</time>
</trkpt>
<trkpt lat="46.0360960" lon="10.3733930">
	<ele>1134.00</ele>
	<time>2024-07-24T10:40:16.000Z</time>
</trkpt>
<trkpt lat="46.0360920" lon="10.3733950">
	<ele>1133.80</ele>
	<time>2024-07-24T10:40:17.000Z</time>
</trkpt>
<trkpt lat="46.0360810" lon="10.3733830">
	<ele>1133.80</ele>
	<time>2024-07-24T10:40:18.000Z</time>
</trkpt>
<trkpt lat="46.0360710" lon="10.3733830">
	<ele>1133.60</ele>
	<time>2024-07-24T10:40:19.000Z</time>
</trkpt>
<trkpt lat="46.0360560" lon="10.3733830">
	<ele>1133.40</ele>
	<time>2024-07-24T10:40:20.000Z</time>
</trkpt>
<trkpt lat="46.0360360" lon="10.3733830">
	<ele>1133.20</ele>
	<time>2024-07-24T10:40:21.000Z</time>
</trkpt>
<trkpt lat="46.0360210" lon="10.3733800">
	<ele>1133.00</ele>
	<time>2024-07-24T10:40:22.000Z</time>
</trkpt>
<trkpt lat="46.0360040" lon="10.3733710">
	<ele>1132.80</ele>
	<time>2024-07-24T10:40:23.000Z</time>
</trkpt>
<trkpt lat="46.0359940" lon="10.3733700">
	<ele>1132.60</ele>
	<time>2024-07-24T10:40:24.000Z</time>
</trkpt>
<trkpt lat="46.0359850" lon="10.3733760">
	<ele>1132.20</ele>
	<time>2024-07-24T10:40:25.000Z</time>
</trkpt>
<trkpt lat="46.0359770" lon="10.3733830">
	<ele>1132.00</ele>
	<time>2024-07-24T10:40:26.000Z</time>
</trkpt>
<trkpt lat="46.0359680" lon="10.3733880">
	<ele>1131.80</ele>
	<time>2024-07-24T10:40:27.000Z</time>
</trkpt>
<trkpt lat="46.0359560" lon="10.3733960">
	<ele>1131.60</ele>
	<time>2024-07-24T10:40:28.000Z</time>
</trkpt>
<trkpt lat="46.0359410" lon="10.3733900">
	<ele>1131.40</ele>
	<time>2024-07-24T10:40:29.000Z</time>
</trkpt>
<trkpt lat="46.0359310" lon="10.3733800">
	<ele>1131.40</ele>
	<time>2024-07-24T10:40:30.000Z</time>
</trkpt>
<trkpt lat="46.0359180" lon="10.3733760">
	<ele>1131.20</ele>
	<time>2024-07-24T10:40:31.000Z</time>
</trkpt>
<trkpt lat="46.0359080" lon="10.3733840">
	<ele>1131.00</ele>
	<time>2024-07-24T10:40:32.000Z</time>
</trkpt>
<trkpt lat="46.0358980" lon="10.3733880">
	<ele>1130.60</ele>
	<time>2024-07-24T10:40:33.000Z</time>
</trkpt>
<trkpt lat="46.0358870" lon="10.3733850">
	<ele>1130.20</ele>
	<time>2024-07-24T10:40:34.000Z</time>
</trkpt>
<trkpt lat="46.0358720" lon="10.3733810">
	<ele>1130.00</ele>
	<time>2024-07-24T10:40:35.000Z</time>
</trkpt>
<trkpt lat="46.0358590" lon="10.3733760">
	<ele>1129.80</ele>
	<time>2024-07-24T10:40:36.000Z</time>
</trkpt>
<trkpt lat="46.0358470" lon="10.3733740">
	<ele>1129.60</ele>
	<time>2024-07-24T10:40:37.000Z</time>
</trkpt>
<trkpt lat="46.0358390" lon="10.3733680">
	<ele>1129.40</ele>
	<time>2024-07-24T10:40:38.000Z</time>
</trkpt>
<trkpt lat="46.0358320" lon="10.3733650">
	<ele>1129.40</ele>
	<time>2024-07-24T10:40:39.000Z</time>
</trkpt>
<trkpt lat="46.0358150" lon="10.3733460">
	<ele>1129.20</ele>
	<time>2024-07-24T10:40:40.000Z</time>
</trkpt>
<trkpt lat="46.0358010" lon="10.3733350">
	<ele>1129.00</ele>
	<time>2024-07-24T10:40:41.000Z</time>
</trkpt>
<trkpt lat="46.0357830" lon="10.3733220">
	<ele>1128.80</ele>
	<time>2024-07-24T10:40:42.000Z</time>
</trkpt>
<trkpt lat="46.0357710" lon="10.3733170">
	<ele>1128.60</ele>
	<time>2024-07-24T10:40:43.000Z</time>
</trkpt>
<trkpt lat="46.0357610" lon="10.3733160">
	<ele>1128.40</ele>
	<time>2024-07-24T10:40:44.000Z</time>
</trkpt>
<trkpt lat="46.0357460" lon="10.3733110">
	<ele>1128.20</ele>
	<time>2024-07-24T10:40:45.000Z</time>
</trkpt>
<trkpt lat="46.0357330" lon="10.3733070">
	<ele>1128.00</ele>
	<time>2024-07-24T10:40:46.000Z</time>
</trkpt>
<trkpt lat="46.0357220" lon="10.3733110">
	<ele>1127.80</ele>
	<time>2024-07-24T10:40:47.000Z</time>
</trkpt>
<trkpt lat="46.0357120" lon="10.3733190">
	<ele>1127.60</ele>
	<time>2024-07-24T10:40:48.000Z</time>
</trkpt>
<trkpt lat="46.0357050" lon="10.3733210">
	<ele>1127.40</ele>
	<time>2024-07-24T10:40:49.000Z</time>
</trkpt>
<trkpt lat="46.0356980" lon="10.3733250">
	<ele>1127.00</ele>
	<time>2024-07-24T10:40:50.000Z</time>
</trkpt>
<trkpt lat="46.0356920" lon="10.3733280">
	<ele>1127.00</ele>
	<time>2024-07-24T10:40:51.000Z</time>
</trkpt>
<trkpt lat="46.0356910" lon="10.3733340">
	<ele>1126.80</ele>
	<time>2024-07-24T10:40:52.000Z</time>
</trkpt>
<trkpt lat="46.0356830" lon="10.3733330">
	<ele>1126.60</ele>
	<time>2024-07-24T10:40:53.000Z</time>
</trkpt>
<trkpt lat="46.0356690" lon="10.3733290">
	<ele>1126.60</ele>
	<time>2024-07-24T10:40:54.000Z</time>
</trkpt>
<trkpt lat="46.0356520" lon="10.3733270">
	<ele>1126.40</ele>
	<time>2024-07-24T10:40:55.000Z</time>
</trkpt>
<trkpt lat="46.0356340" lon="10.3733210">
	<ele>1126.40</ele>
	<time>2024-07-24T10:40:56.000Z</time>
</trkpt>
<trkpt lat="46.0356280" lon="10.3733180">
	<ele>1126.40</ele>
	<time>2024-07-24T10:40:57.000Z</time>
</trkpt>
<trkpt lat="46.0356180" lon="10.3733140">
	<ele>1126.00</ele>
	<time>2024-07-24T10:40:58.000Z</time>
</trkpt>
<trkpt lat="46.0356100" lon="10.3733080">
	<ele>1125.80</ele>
	<time>2024-07-24T10:40:59.000Z</time>
</trkpt>
<trkpt lat="46.0356010" lon="10.3733040">
	<ele>1125.40</ele>
	<time>2024-07-24T10:41:00.000Z</time>
</trkpt>
<trkpt lat="46.0355940" lon="10.3732980">
	<ele>1125.40</ele>
	<time>2024-07-24T10:41:01.000Z</time>
</trkpt>
<trkpt lat="46.0355860" lon="10.3732950">
	<ele>1125.20</ele>
	<time>2024-07-24T10:41:02.000Z</time>
</trkpt>
<trkpt lat="46.0355740" lon="10.3732900">
	<ele>1125.00</ele>
	<time>2024-07-24T10:41:03.000Z</time>
</trkpt>
<trkpt lat="46.0355600" lon="10.3732870">
	<ele>1125.00</ele>
	<time>2024-07-24T10:41:04.000Z</time>
</trkpt>
<trkpt lat="46.0355450" lon="10.3732840">
	<ele>1124.80</ele>
	<time>2024-07-24T10:41:05.000Z</time>
</trkpt>
<trkpt lat="46.0355390" lon="10.3732830">
	<ele>1124.60</ele>
	<time>2024-07-24T10:41:06.000Z</time>
</trkpt>
<trkpt lat="46.0355270" lon="10.3732780">
	<ele>1124.60</ele>
	<time>2024-07-24T10:41:07.000Z</time>
</trkpt>
<trkpt lat="46.0355080" lon="10.3732810">
	<ele>1124.40</ele>
	<time>2024-07-24T10:41:08.000Z</time>
</trkpt>
<trkpt lat="46.0354970" lon="10.3732860">
	<ele>1124.40</ele>
	<time>2024-07-24T10:41:09.000Z</time>
</trkpt>
<trkpt lat="46.0354810" lon="10.3732840">
	<ele>1124.20</ele>
	<time>2024-07-24T10:41:10.000Z</time>
</trkpt>
<trkpt lat="46.0354700" lon="10.3732800">
	<ele>1124.00</ele>
	<time>2024-07-24T10:41:11.000Z</time>
</trkpt>
<trkpt lat="46.0354540" lon="10.3732750">
	<ele>1124.00</ele>
	<time>2024-07-24T10:41:12.000Z</time>
</trkpt>
<trkpt lat="46.0354330" lon="10.3732710">
	<ele>1123.80</ele>
	<time>2024-07-24T10:41:13.000Z</time>
</trkpt>
<trkpt lat="46.0354120" lon="10.3732580">
	<ele>1123.80</ele>
	<time>2024-07-24T10:41:14.000Z</time>
</trkpt>
<trkpt lat="46.0353900" lon="10.3732450">
	<ele>1123.80</ele>
	<time>2024-07-24T10:41:15.000Z</time>
</trkpt>
<trkpt lat="46.0353750" lon="10.3732410">
	<ele>1123.80</ele>
	<time>2024-07-24T10:41:16.000Z</time>
</trkpt>
<trkpt lat="46.0353570" lon="10.3732410">
	<ele>1123.80</ele>
	<time>2024-07-24T10:41:17.000Z</time>
</trkpt>
<trkpt lat="46.0353460" lon="10.3732440">
	<ele>1123.60</ele>
	<time>2024-07-24T10:41:18.000Z</time>
</trkpt>
<trkpt lat="46.0353310" lon="10.3732480">
	<ele>1123.60</ele>
	<time>2024-07-24T10:41:19.000Z</time>
</trkpt>
<trkpt lat="46.0353130" lon="10.3732420">
	<ele>1123.60</ele>
	<time>2024-07-24T10:41:20.000Z</time>
</trkpt>
<trkpt lat="46.0352930" lon="10.3732410">
	<ele>1123.40</ele>
	<time>2024-07-24T10:41:21.000Z</time>
</trkpt>
<trkpt lat="46.0352780" lon="10.3732430">
	<ele>1123.20</ele>
	<time>2024-07-24T10:41:22.000Z</time>
</trkpt>
<trkpt lat="46.0352600" lon="10.3732400">
	<ele>1123.20</ele>
	<time>2024-07-24T10:41:23.000Z</time>
</trkpt>
<trkpt lat="46.0352440" lon="10.3732350">
	<ele>1123.20</ele>
	<time>2024-07-24T10:41:24.000Z</time>
</trkpt>
<trkpt lat="46.0352320" lon="10.3732340">
	<ele>1123.00</ele>
	<time>2024-07-24T10:41:25.000Z</time>
</trkpt>
<trkpt lat="46.0352220" lon="10.3732300">
	<ele>1122.80</ele>
	<time>2024-07-24T10:41:26.000Z</time>
</trkpt>
<trkpt lat="46.0352120" lon="10.3732250">
	<ele>1122.80</ele>
	<time>2024-07-24T10:41:27.000Z</time>
</trkpt>
<trkpt lat="46.0352010" lon="10.3732160">
	<ele>1122.80</ele>
	<time>2024-07-24T10:41:28.000Z</time>
</trkpt>
<trkpt lat="46.0351870" lon="10.3732090">
	<ele>1122.60</ele>
	<time>2024-07-24T10:41:29.000Z</time>
</trkpt>
<trkpt lat="46.0351770" lon="10.3732060">
	<ele>1122.40</ele>
	<time>2024-07-24T10:41:30.000Z</time>
</trkpt>
<trkpt lat="46.0351620" lon="10.3731990">
	<ele>1122.00</ele>
	<time>2024-07-24T10:41:31.000Z</time>
</trkpt>
<trkpt lat="46.0351500" lon="10.3731950">
	<ele>1121.80</ele>
	<time>2024-07-24T10:41:32.000Z</time>
</trkpt>
<trkpt lat="46.0351350" lon="10.3731870">
	<ele>1121.80</ele>
	<time>2024-07-24T10:41:33.000Z</time>
</trkpt>
<trkpt lat="46.0351240" lon="10.3731830">
	<ele>1121.60</ele>
	<time>2024-07-24T10:41:34.000Z</time>
</trkpt>
<trkpt lat="46.0351150" lon="10.3731860">
	<ele>1121.40</ele>
	<time>2024-07-24T10:41:35.000Z</time>
</trkpt>
<trkpt lat="46.0351060" lon="10.3731870">
	<ele>1121.20</ele>
	<time>2024-07-24T10:41:36.000Z</time>
</trkpt>
<trkpt lat="46.0350980" lon="10.3731890">
	<ele>1121.20</ele>
	<time>2024-07-24T10:41:37.000Z</time>
</trkpt>
<trkpt lat="46.0350890" lon="10.3731900">
	<ele>1120.80</ele>
	<time>2024-07-24T10:41:38.000Z</time>
</trkpt>
<trkpt lat="46.0350770" lon="10.3731830">
	<ele>1120.60</ele>
	<time>2024-07-24T10:41:39.000Z</time>
</trkpt>
<trkpt lat="46.0350630" lon="10.3731850">
	<ele>1120.40</ele>
	<time>2024-07-24T10:41:40.000Z</time>
</trkpt>
<trkpt lat="46.0350470" lon="10.3731880">
	<ele>1120.00</ele>
	<time>2024-07-24T10:41:41.000Z</time>
</trkpt>
<trkpt lat="46.0350370" lon="10.3732030">
	<ele>1119.80</ele>
	<time>2024-07-24T10:41:42.000Z</time>
</trkpt>
<trkpt lat="46.0350210" lon="10.3732100">
	<ele>1119.60</ele>
	<time>2024-07-24T10:41:43.000Z</time>
</trkpt>
<trkpt lat="46.0350140" lon="10.3732160">
	<ele>1119.40</ele>
	<time>2024-07-24T10:41:44.000Z</time>
</trkpt>
<trkpt lat="46.0350000" lon="10.3732170">
	<ele>1119.00</ele>
	<time>2024-07-24T10:41:45.000Z</time>
</trkpt>
<trkpt lat="46.0349870" lon="10.3732160">
	<ele>1118.80</ele>
	<time>2024-07-24T10:41:46.000Z</time>
</trkpt>
<trkpt lat="46.0349810" lon="10.3732170">
	<ele>1118.40</ele>
	<time>2024-07-24T10:41:47.000Z</time>
</trkpt>
<trkpt lat="46.0349740" lon="10.3732180">
	<ele>1118.20</ele>
	<time>2024-07-24T10:41:48.000Z</time>
</trkpt>
<trkpt lat="46.0349650" lon="10.3732200">
	<ele>1118.00</ele>
	<time>2024-07-24T10:41:49.000Z</time>
</trkpt>
<trkpt lat="46.0349580" lon="10.3732210">
	<ele>1117.80</ele>
	<time>2024-07-24T10:41:50.000Z</time>
</trkpt>
<trkpt lat="46.0349490" lon="10.3732190">
	<ele>1117.40</ele>
	<time>2024-07-24T10:41:51.000Z</time>
</trkpt>
<trkpt lat="46.0349390" lon="10.3732150">
	<ele>1117.20</ele>
	<time>2024-07-24T10:41:52.000Z</time>
</trkpt>
<trkpt lat="46.0349270" lon="10.3732140">
	<ele>1117.00</ele>
	<time>2024-07-24T10:41:53.000Z</time>
</trkpt>
<trkpt lat="46.0349170" lon="10.3732160">
	<ele>1116.80</ele>
	<time>2024-07-24T10:41:54.000Z</time>
</trkpt>
<trkpt lat="46.0349080" lon="10.3732260">
	<ele>1116.60</ele>
	<time>2024-07-24T10:41:55.000Z</time>
</trkpt>
<trkpt lat="46.0348940" lon="10.3732190">
	<ele>1116.40</ele>
	<time>2024-07-24T10:41:56.000Z</time>
</trkpt>
<trkpt lat="46.0348860" lon="10.3732120">
	<ele>1116.20</ele>
	<time>2024-07-24T10:41:57.000Z</time>
</trkpt>
<trkpt lat="46.0348790" lon="10.3732150">
	<ele>1116.00</ele>
	<time>2024-07-24T10:41:58.000Z</time>
</trkpt>
<trkpt lat="46.0348710" lon="10.3732080">
	<ele>1115.60</ele>
	<time>2024-07-24T10:41:59.000Z</time>
</trkpt>
<trkpt lat="46.0348610" lon="10.3732070">
	<ele>1115.20</ele>
	<time>2024-07-24T10:42:00.000Z</time>
</trkpt>
<trkpt lat="46.0348570" lon="10.3732130">
	<ele>1115.20</ele>
	<time>2024-07-24T10:42:01.000Z</time>
</trkpt>
<trkpt lat="46.0348480" lon="10.3732060">
	<ele>1114.80</ele>
	<time>2024-07-24T10:42:02.000Z</time>
</trkpt>
<trkpt lat="46.0348350" lon="10.3732090">
	<ele>1114.60</ele>
	<time>2024-07-24T10:42:03.000Z</time>
</trkpt>
<trkpt lat="46.0348210" lon="10.3732060">
	<ele>1114.40</ele>
	<time>2024-07-24T10:42:04.000Z</time>
</trkpt>
<trkpt lat="46.0348100" lon="10.3732020">
	<ele>1114.20</ele>
	<time>2024-07-24T10:42:05.000Z</time>
</trkpt>
<trkpt lat="46.0348050" lon="10.3731990">
	<ele>1113.80</ele>
	<time>2024-07-24T10:42:06.000Z</time>
</trkpt>
<trkpt lat="46.0347980" lon="10.3731960">
	<ele>1113.60</ele>
	<time>2024-07-24T10:42:07.000Z</time>
</trkpt>
<trkpt lat="46.0347900" lon="10.3731990">
	<ele>1113.40</ele>
	<time>2024-07-24T10:42:08.000Z</time>
</trkpt>
<trkpt lat="46.0347840" lon="10.3732080">
	<ele>1113.20</ele>
	<time>2024-07-24T10:42:09.000Z</time>
</trkpt>
<trkpt lat="46.0347860" lon="10.3732120">
	<ele>1112.80</ele>
	<time>2024-07-24T10:42:10.000Z</time>
</trkpt>
<trkpt lat="46.0347860" lon="10.3732110">
	<ele>1112.80</ele>
	<time>2024-07-24T10:42:11.000Z</time>
</trkpt>
<trkpt lat="46.0347790" lon="10.3731960">
	<ele>1112.60</ele>
	<time>2024-07-24T10:42:12.000Z</time>
</trkpt>
<trkpt lat="46.0347710" lon="10.3731890">
	<ele>1112.20</ele>
	<time>2024-07-24T10:42:13.000Z</time>
</trkpt>
<trkpt lat="46.0347660" lon="10.3731860">
	<ele>1111.80</ele>
	<time>2024-07-24T10:42:14.000Z</time>
</trkpt>
<trkpt lat="46.0347580" lon="10.3731800">
	<ele>1111.40</ele>
	<time>2024-07-24T10:42:15.000Z</time>
</trkpt>
<trkpt lat="46.0347450" lon="10.3731730">
	<ele>1111.20</ele>
	<time>2024-07-24T10:42:16.000Z</time>
</trkpt>
<trkpt lat="46.0347280" lon="10.3731650">
	<ele>1111.00</ele>
	<time>2024-07-24T10:42:17.000Z</time>
</trkpt>
<trkpt lat="46.0347180" lon="10.3731600">
	<ele>1110.80</ele>
	<time>2024-07-24T10:42:18.000Z</time>
</trkpt>
<trkpt lat="46.0347080" lon="10.3731570">
	<ele>1110.40</ele>
	<time>2024-07-24T10:42:19.000Z</time>
</trkpt>
<trkpt lat="46.0346970" lon="10.3731530">
	<ele>1110.20</ele>
	<time>2024-07-24T10:42:20.000Z</time>
</trkpt>
<trkpt lat="46.0346860" lon="10.3731540">
	<ele>1110.00</ele>
	<time>2024-07-24T10:42:21.000Z</time>
</trkpt>
<trkpt lat="46.0346800" lon="10.3731530">
	<ele>1109.80</ele>
	<time>2024-07-24T10:42:22.000Z</time>
</trkpt>
<trkpt lat="46.0346680" lon="10.3731450">
	<ele>1109.60</ele>
	<time>2024-07-24T10:42:23.000Z</time>
</trkpt>
<trkpt lat="46.0346590" lon="10.3731380">
	<ele>1109.40</ele>
	<time>2024-07-24T10:42:24.000Z</time>
</trkpt>
<trkpt lat="46.0346490" lon="10.3731350">
	<ele>1109.20</ele>
	<time>2024-07-24T10:42:25.000Z</time>
</trkpt>
<trkpt lat="46.0346360" lon="10.3731270">
	<ele>1109.00</ele>
	<time>2024-07-24T10:42:26.000Z</time>
</trkpt>
<trkpt lat="46.0346220" lon="10.3731210">
	<ele>1108.80</ele>
	<time>2024-07-24T10:42:27.000Z</time>
</trkpt>
<trkpt lat="46.0346070" lon="10.3731130">
	<ele>1108.60</ele>
	<time>2024-07-24T10:42:28.000Z</time>
</trkpt>
<trkpt lat="46.0345940" lon="10.3731050">
	<ele>1108.20</ele>
	<time>2024-07-24T10:42:29.000Z</time>
</trkpt>
<trkpt lat="46.0345830" lon="10.3730940">
	<ele>1108.00</ele>
	<time>2024-07-24T10:42:30.000Z</time>
</trkpt>
<trkpt lat="46.0345710" lon="10.3730830">
	<ele>1107.60</ele>
	<time>2024-07-24T10:42:31.000Z</time>
</trkpt>
<trkpt lat="46.0345600" lon="10.3730730">
	<ele>1107.40</ele>
	<time>2024-07-24T10:42:32.000Z</time>
</trkpt>
<trkpt lat="46.0345520" lon="10.3730730">
	<ele>1107.20</ele>
	<time>2024-07-24T10:42:33.000Z</time>
</trkpt>
<trkpt lat="46.0345400" lon="10.3730710">
	<ele>1107.00</ele>
	<time>2024-07-24T10:42:34.000Z</time>
</trkpt>
<trkpt lat="46.0345280" lon="10.3730650">
	<ele>1106.80</ele>
	<time>2024-07-24T10:42:35.000Z</time>
</trkpt>
<trkpt lat="46.0345170" lon="10.3730600">
	<ele>1106.60</ele>
	<time>2024-07-24T10:42:36.000Z</time>
</trkpt>
<trkpt lat="46.0345070" lon="10.3730570">
	<ele>1106.20</ele>
	<time>2024-07-24T10:42:37.000Z</time>
</trkpt>
<trkpt lat="46.0344970" lon="10.3730580">
	<ele>1106.00</ele>
	<time>2024-07-24T10:42:38.000Z</time>
</trkpt>
<trkpt lat="46.0344870" lon="10.3730550">
	<ele>1105.80</ele>
	<time>2024-07-24T10:42:39.000Z</time>
</trkpt>
<trkpt lat="46.0344720" lon="10.3730570">
	<ele>1105.40</ele>
	<time>2024-07-24T10:42:40.000Z</time>
</trkpt>
<trkpt lat="46.0344630" lon="10.3730540">
	<ele>1105.00</ele>
	<time>2024-07-24T10:42:41.000Z</time>
</trkpt>
<trkpt lat="46.0344570" lon="10.3730530">
	<ele>1104.80</ele>
	<time>2024-07-24T10:42:42.000Z</time>
</trkpt>
<trkpt lat="46.0344460" lon="10.3730450">
	<ele>1104.40</ele>
	<time>2024-07-24T10:42:43.000Z</time>
</trkpt>
<trkpt lat="46.0344340" lon="10.3730280">
	<ele>1104.00</ele>
	<time>2024-07-24T10:42:44.000Z</time>
</trkpt>
<trkpt lat="46.0344280" lon="10.3730270">
	<ele>1103.80</ele>
	<time>2024-07-24T10:42:45.000Z</time>
</trkpt>
<trkpt lat="46.0344240" lon="10.3730260">
	<ele>1103.40</ele>
	<time>2024-07-24T10:42:46.000Z</time>
</trkpt>
<trkpt lat="46.0344220" lon="10.3730280">
	<ele>1103.00</ele>
	<time>2024-07-24T10:42:47.000Z</time>
</trkpt>
<trkpt lat="46.0344160" lon="10.3730280">
	<ele>1102.60</ele>
	<time>2024-07-24T10:42:48.000Z</time>
</trkpt>
<trkpt lat="46.0344130" lon="10.3730300">
	<ele>1102.20</ele>
	<time>2024-07-24T10:42:49.000Z</time>
</trkpt>
<trkpt lat="46.0344150" lon="10.3730300">
	<ele>1102.00</ele>
	<time>2024-07-24T10:42:50.000Z</time>
</trkpt>
<trkpt lat="46.0344170" lon="10.3730310">
	<ele>1102.00</ele>
	<time>2024-07-24T10:42:51.000Z</time>
</trkpt>
<trkpt lat="46.0344240" lon="10.3730330">
	<ele>1101.80</ele>
	<time>2024-07-24T10:42:52.000Z</time>
</trkpt>
<trkpt lat="46.0344260" lon="10.3730290">
	<ele>1101.80</ele>
	<time>2024-07-24T10:42:53.000Z</time>
</trkpt>
<trkpt lat="46.0344250" lon="10.3730260">
	<ele>1101.80</ele>
	<time>2024-07-24T10:42:54.000Z</time>
</trkpt>
<trkpt lat="46.0344160" lon="10.3730280">
	<ele>1101.60</ele>
	<time>2024-07-24T10:42:55.000Z</time>
</trkpt>
<trkpt lat="46.0344030" lon="10.3730270">
	<ele>1101.20</ele>
	<time>2024-07-24T10:42:56.000Z</time>
</trkpt>
<trkpt lat="46.0343860" lon="10.3730220">
	<ele>1101.20</ele>
	<time>2024-07-24T10:42:57.000Z</time>
</trkpt>
<trkpt lat="46.0343720" lon="10.3730220">
	<ele>1101.00</ele>
	<time>2024-07-24T10:42:58.000Z</time>
</trkpt>
<trkpt lat="46.0343620" lon="10.3730250">
	<ele>1100.80</ele>
	<time>2024-07-24T10:42:59.000Z</time>
</trkpt>
<trkpt lat="46.0343510" lon="10.3730280">
	<ele>1100.60</ele>
	<time>2024-07-24T10:43:00.000Z</time>
</trkpt>
<trkpt lat="46.0343400" lon="10.3730310">
	<ele>1100.40</ele>
	<time>2024-07-24T10:43:01.000Z</time>
</trkpt>
<trkpt lat="46.0343310" lon="10.3730280">
	<ele>1100.00</ele>
	<time>2024-07-24T10:43:02.000Z</time>
</trkpt>
<trkpt lat="46.0343240" lon="10.3730240">
	<ele>1099.80</ele>
	<time>2024-07-24T10:43:03.000Z</time>
</trkpt>
<trkpt lat="46.0343160" lon="10.3730240">
	<ele>1099.80</ele>
	<time>2024-07-24T10:43:04.000Z</time>
</trkpt>
<trkpt lat="46.0343100" lon="10.3730240">
	<ele>1099.60</ele>
	<time>2024-07-24T10:43:05.000Z</time>
</trkpt>
<trkpt lat="46.0343020" lon="10.3730240">
	<ele>1099.40</ele>
	<time>2024-07-24T10:43:06.000Z</time>
</trkpt>
<trkpt lat="46.0342960" lon="10.3730200">
	<ele>1099.20</ele>
	<time>2024-07-24T10:43:07.000Z</time>
</trkpt>
<trkpt lat="46.0342920" lon="10.3730050">
	<ele>1099.20</ele>
	<time>2024-07-24T10:43:08.000Z</time>
</trkpt>
<trkpt lat="46.0342920" lon="10.3729990">
	<ele>1099.20</ele>
	<time>2024-07-24T10:43:09.000Z</time>
</trkpt>
<trkpt lat="46.0342920" lon="10.3729910">
	<ele>1099.40</ele>
	<time>2024-07-24T10:43:10.000Z</time>
</trkpt>
<trkpt lat="46.0342950" lon="10.3729930">
	<ele>1099.60</ele>
	<time>2024-07-24T10:43:11.000Z</time>
</trkpt>
<trkpt lat="46.0342980" lon="10.3729930">
	<ele>1099.80</ele>
	<time>2024-07-24T10:43:12.000Z</time>
</trkpt>
<trkpt lat="46.0342970" lon="10.3729940">
	<ele>1099.80</ele>
	<time>2024-07-24T10:43:13.000Z</time>
</trkpt>
<trkpt lat="46.0342970" lon="10.3729960">
	<ele>1099.80</ele>
	<time>2024-07-24T10:43:14.000Z</time>
</trkpt>
<trkpt lat="46.0342960" lon="10.3730050">
	<ele>1099.60</ele>
	<time>2024-07-24T10:43:15.000Z</time>
</trkpt>
<trkpt lat="46.0342970" lon="10.3730090">
	<ele>1099.20</ele>
	<time>2024-07-24T10:43:16.000Z</time>
</trkpt>
<trkpt lat="46.0342900" lon="10.3730050">
	<ele>1099.20</ele>
	<time>2024-07-24T10:43:17.000Z</time>
</trkpt>
<trkpt lat="46.0342850" lon="10.3730020">
	<ele>1098.80</ele>
	<time>2024-07-24T10:43:18.000Z</time>
</trkpt>
<trkpt lat="46.0342790" lon="10.3730020">
	<ele>1098.80</ele>
	<time>2024-07-24T10:43:19.000Z</time>
</trkpt>
<trkpt lat="46.0342690" lon="10.3729940">
	<ele>1098.60</ele>
	<time>2024-07-24T10:43:20.000Z</time>
</trkpt>
<trkpt lat="46.0342530" lon="10.3729810">
	<ele>1098.40</ele>
	<time>2024-07-24T10:43:21.000Z</time>
</trkpt>
<trkpt lat="46.0342400" lon="10.3729640">
	<ele>1098.00</ele>
	<time>2024-07-24T10:43:22.000Z</time>
</trkpt>
<trkpt lat="46.0342280" lon="10.3729460">
	<ele>1097.80</ele>
	<time>2024-07-24T10:43:23.000Z</time>
</trkpt>
<trkpt lat="46.0342180" lon="10.3729460">
	<ele>1097.80</ele>
	<time>2024-07-24T10:43:24.000Z</time>
</trkpt>
<trkpt lat="46.0342140" lon="10.3729450">
	<ele>1097.80</ele>
	<time>2024-07-24T10:43:25.000Z</time>
</trkpt>
<trkpt lat="46.0342120" lon="10.3729460">
	<ele>1097.80</ele>
	<time>2024-07-24T10:43:26.000Z</time>
</trkpt>
<trkpt lat="46.0342090" lon="10.3729430">
	<ele>1097.80</ele>
	<time>2024-07-24T10:43:27.000Z</time>
</trkpt>
<trkpt lat="46.0342070" lon="10.3729420">
	<ele>1097.80</ele>
	<time>2024-07-24T10:43:28.000Z</time>
</trkpt>
<trkpt lat="46.0342060" lon="10.3729370">
	<ele>1097.80</ele>
	<time>2024-07-24T10:43:29.000Z</time>
</trkpt>
<trkpt lat="46.0342100" lon="10.3729370">
	<ele>1097.80</ele>
	<time>2024-07-24T10:43:30.000Z</time>
</trkpt>
<trkpt lat="46.0342150" lon="10.3729440">
	<ele>1097.60</ele>
	<time>2024-07-24T10:43:31.000Z</time>
</trkpt>
<trkpt lat="46.0342230" lon="10.3729570">
	<ele>1097.60</ele>
	<time>2024-07-24T10:43:32.000Z</time>
</trkpt>
<trkpt lat="46.0342260" lon="10.3729620">
	<ele>1097.60</ele>
	<time>2024-07-24T10:43:33.000Z</time>
</trkpt>
<trkpt lat="46.0342290" lon="10.3729650">
	<ele>1097.60</ele>
	<time>2024-07-24T10:43:34.000Z</time>
</trkpt>
<trkpt lat="46.0342360" lon="10.3729670">
	<ele>1097.60</ele>
	<time>2024-07-24T10:43:35.000Z</time>
</trkpt>
<trkpt lat="46.0342400" lon="10.3729670">
	<ele>1097.60</ele>
	<time>2024-07-24T10:43:36.000Z</time>
</trkpt>
<trkpt lat="46.0342430" lon="10.3729660">
	<ele>1097.60</ele>
	<time>2024-07-24T10:43:37.000Z</time>
</trkpt>
<trkpt lat="46.0342440" lon="10.3729650">
	<ele>1097.60</ele>
	<time>2024-07-24T10:43:38.000Z</time>
</trkpt>
<trkpt lat="46.0342440" lon="10.3729650">
	<ele>1097.40</ele>
	<time>2024-07-24T10:43:39.000Z</time>
</trkpt>
<trkpt lat="46.0342440" lon="10.3729650">
	<ele>1097.40</ele>
	<time>2024-07-24T10:43:40.000Z</time>
</trkpt>
<trkpt lat="46.0342440" lon="10.3729650">
	<ele>1097.20</ele>
	<time>2024-07-24T10:43:41.000Z</time>
</trkpt>
<trkpt lat="46.0342440" lon="10.3729650">
	<ele>1097.20</ele>
	<time>2024-07-24T10:43:42.000Z</time>
</trkpt>
<trkpt lat="46.0342440" lon="10.3729650">
	<ele>1097.00</ele>
	<time>2024-07-24T10:43:43.000Z</time>
</trkpt>
<trkpt lat="46.0342400" lon="10.3729640">
	<ele>1097.00</ele>
	<time>2024-07-24T10:43:44.000Z</time>
</trkpt>
<trkpt lat="46.0342270" lon="10.3729630">
	<ele>1097.00</ele>
	<time>2024-07-24T10:43:45.000Z</time>
</trkpt>
<trkpt lat="46.0342180" lon="10.3729600">
	<ele>1097.00</ele>
	<time>2024-07-24T10:43:46.000Z</time>
</trkpt>
<trkpt lat="46.0342110" lon="10.3729570">
	<ele>1097.00</ele>
	<time>2024-07-24T10:43:47.000Z</time>
</trkpt>
<trkpt lat="46.0342060" lon="10.3729520">
	<ele>1097.00</ele>
	<time>2024-07-24T10:43:48.000Z</time>
</trkpt>
<trkpt lat="46.0342000" lon="10.3729520">
	<ele>1097.00</ele>
	<time>2024-07-24T10:43:49.000Z</time>
</trkpt>
<trkpt lat="46.0342000" lon="10.3729480">
	<ele>1097.00</ele>
	<time>2024-07-24T10:43:50.000Z</time>
</trkpt>
<trkpt lat="46.0341940" lon="10.3729400">
	<ele>1097.00</ele>
	<time>2024-07-24T10:43:51.000Z</time>
</trkpt>
<trkpt lat="46.0341820" lon="10.3729370">
	<ele>1096.80</ele>
	<time>2024-07-24T10:43:52.000Z</time>
</trkpt>
<trkpt lat="46.0341720" lon="10.3729340">
	<ele>1096.60</ele>
	<time>2024-07-24T10:43:53.000Z</time>
</trkpt>
<trkpt lat="46.0341640" lon="10.3729240">
	<ele>1096.40</ele>
	<time>2024-07-24T10:43:54.000Z</time>
</trkpt>
<trkpt lat="46.0341570" lon="10.3729120">
	<ele>1096.40</ele>
	<time>2024-07-24T10:43:55.000Z</time>
</trkpt>
<trkpt lat="46.0341530" lon="10.3729020">
	<ele>1096.20</ele>
	<time>2024-07-24T10:43:56.000Z</time>
</trkpt>
<trkpt lat="46.0341480" lon="10.3728950">
	<ele>1096.00</ele>
	<time>2024-07-24T10:43:57.000Z</time>
</trkpt>
<trkpt lat="46.0341440" lon="10.3728950">
	<ele>1095.80</ele>
	<time>2024-07-24T10:43:58.000Z</time>
</trkpt>
<trkpt lat="46.0341420" lon="10.3728980">
	<ele>1095.60</ele>
	<time>2024-07-24T10:43:59.000Z</time>
</trkpt>
<trkpt lat="46.0341320" lon="10.3728950">
	<ele>1095.40</ele>
	<time>2024-07-24T10:44:00.000Z</time>
</trkpt>
<trkpt lat="46.0341250" lon="10.3728940">
	<ele>1095.20</ele>
	<time>2024-07-24T10:44:01.000Z</time>
</trkpt>
<trkpt lat="46.0341170" lon="10.3728820">
	<ele>1095.00</ele>
	<time>2024-07-24T10:44:02.000Z</time>
</trkpt>
<trkpt lat="46.0341130" lon="10.3728790">
	<ele>1094.80</ele>
	<time>2024-07-24T10:44:03.000Z</time>
</trkpt>
<trkpt lat="46.0341040" lon="10.3728760">
	<ele>1094.40</ele>
	<time>2024-07-24T10:44:04.000Z</time>
</trkpt>
<trkpt lat="46.0340940" lon="10.3728710">
	<ele>1094.20</ele>
	<time>2024-07-24T10:44:05.000Z</time>
</trkpt>
<trkpt lat="46.0340870" lon="10.3728720">
	<ele>1093.80</ele>
	<time>2024-07-24T10:44:06.000Z</time>
</trkpt>
<trkpt lat="46.0340830" lon="10.3728690">
	<ele>1093.60</ele>
	<time>2024-07-24T10:44:07.000Z</time>
</trkpt>
<trkpt lat="46.0340760" lon="10.3728670">
	<ele>1093.20</ele>
	<time>2024-07-24T10:44:08.000Z</time>
</trkpt>
<trkpt lat="46.0340690" lon="10.3728660">
	<ele>1093.00</ele>
	<time>2024-07-24T10:44:09.000Z</time>
</trkpt>
<trkpt lat="46.0340600" lon="10.3728600">
	<ele>1092.60</ele>
	<time>2024-07-24T10:44:10.000Z</time>
</trkpt>
<trkpt lat="46.0340580" lon="10.3728580">
	<ele>1092.40</ele>
	<time>2024-07-24T10:44:11.000Z</time>
</trkpt>
<trkpt lat="46.0340520" lon="10.3728490">
	<ele>1092.20</ele>
	<time>2024-07-24T10:44:12.000Z</time>
</trkpt>
<trkpt lat="46.0340510" lon="10.3728390">
	<ele>1092.20</ele>
	<time>2024-07-24T10:44:13.000Z</time>
</trkpt>
<trkpt lat="46.0340480" lon="10.3728260">
	<ele>1091.80</ele>
	<time>2024-07-24T10:44:14.000Z</time>
</trkpt>
<trkpt lat="46.0340420" lon="10.3728130">
	<ele>1091.60</ele>
	<time>2024-07-24T10:44:15.000Z</time>
</trkpt>
<trkpt lat="46.0340360" lon="10.3728010">
	<ele>1091.20</ele>
	<time>2024-07-24T10:44:16.000Z</time>
</trkpt>
<trkpt lat="46.0340310" lon="10.3727990">
	<ele>1091.00</ele>
	<time>2024-07-24T10:44:17.000Z</time>
</trkpt>
<trkpt lat="46.0340280" lon="10.3727960">
	<ele>1090.80</ele>
	<time>2024-07-24T10:44:18.000Z</time>
</trkpt>
<trkpt lat="46.0340210" lon="10.3727910">
	<ele>1090.40</ele>
	<time>2024-07-24T10:44:19.000Z</time>
</trkpt>
<trkpt lat="46.0340040" lon="10.3727760">
	<ele>1090.20</ele>
	<time>2024-07-24T10:44:20.000Z</time>
</trkpt>
<trkpt lat="46.0339910" lon="10.3727710">
	<ele>1090.20</ele>
	<time>2024-07-24T10:44:21.000Z</time>
</trkpt>
<trkpt lat="46.0339780" lon="10.3727660">
	<ele>1089.80</ele>
	<time>2024-07-24T10:44:22.000Z</time>
</trkpt>
<trkpt lat="46.0339650" lon="10.3727580">
	<ele>1089.60</ele>
	<time>2024-07-24T10:44:23.000Z</time>
</trkpt>
<trkpt lat="46.0339610" lon="10.3727570">
	<ele>1089.40</ele>
	<time>2024-07-24T10:44:24.000Z</time>
</trkpt>
<trkpt lat="46.0339600" lon="10.3727530">
	<ele>1089.00</ele>
	<time>2024-07-24T10:44:25.000Z</time>
</trkpt>
<trkpt lat="46.0339600" lon="10.3727490">
	<ele>1088.80</ele>
	<time>2024-07-24T10:44:26.000Z</time>
</trkpt>
<trkpt lat="46.0339580" lon="10.3727470">
	<ele>1088.60</ele>
	<time>2024-07-24T10:44:27.000Z</time>
</trkpt>
<trkpt lat="46.0339570" lon="10.3727490">
	<ele>1088.60</ele>
	<time>2024-07-24T10:44:28.000Z</time>
</trkpt>
<trkpt lat="46.0339550" lon="10.3727510">
	<ele>1088.40</ele>
	<time>2024-07-24T10:44:29.000Z</time>
</trkpt>
<trkpt lat="46.0339540" lon="10.3727520">
	<ele>1088.40</ele>
	<time>2024-07-24T10:44:30.000Z</time>
</trkpt>
<trkpt lat="46.0339530" lon="10.3727520">
	<ele>1088.20</ele>
	<time>2024-07-24T10:44:31.000Z</time>
</trkpt>
<trkpt lat="46.0339510" lon="10.3727490">
	<ele>1088.20</ele>
	<time>2024-07-24T10:44:32.000Z</time>
</trkpt>
<trkpt lat="46.0339450" lon="10.3727530">
	<ele>1088.20</ele>
	<time>2024-07-24T10:44:33.000Z</time>
</trkpt>
<trkpt lat="46.0339470" lon="10.3727550">
	<ele>1088.20</ele>
	<time>2024-07-24T10:44:34.000Z</time>
</trkpt>
<trkpt lat="46.0339410" lon="10.3727570">
	<ele>1088.20</ele>
	<time>2024-07-24T10:44:35.000Z</time>
</trkpt>
<trkpt lat="46.0339430" lon="10.3727580">
	<ele>1088.20</ele>
	<time>2024-07-24T10:44:36.000Z</time>
</trkpt>
<trkpt lat="46.0339440" lon="10.3727570">
	<ele>1088.20</ele>
	<time>2024-07-24T10:44:37.000Z</time>
</trkpt>
<trkpt lat="46.0339440" lon="10.3727570">
	<ele>1088.40</ele>
	<time>2024-07-24T10:44:38.000Z</time>
</trkpt>
<trkpt lat="46.0339440" lon="10.3727570">
	<ele>1088.40</ele>
	<time>2024-07-24T10:44:39.000Z</time>
</trkpt>
<trkpt lat="46.0339440" lon="10.3727570">
	<ele>1088.20</ele>
	<time>2024-07-24T10:44:40.000Z</time>
</trkpt>
<trkpt lat="46.0339440" lon="10.3727570">
	<ele>1088.20</ele>
	<time>2024-07-24T10:44:41.000Z</time>
</trkpt>
<trkpt lat="46.0339440" lon="10.3727570">
	<ele>1088.20</ele>
	<time>2024-07-24T10:44:42.000Z</time>
</trkpt>
<trkpt lat="46.0339440" lon="10.3727570">
	<ele>1088.20</ele>
	<time>2024-07-24T10:44:43.000Z</time>
</trkpt>
<trkpt lat="46.0339440" lon="10.3727570">
	<ele>1088.00</ele>
	<time>2024-07-24T10:44:44.000Z</time>
</trkpt>
<trkpt lat="46.0339440" lon="10.3727570">
	<ele>1088.00</ele>
	<time>2024-07-24T10:44:45.000Z</time>
</trkpt>
<trkpt lat="46.0339440" lon="10.3727570">
	<ele>1087.80</ele>
	<time>2024-07-24T10:44:46.000Z</time>
</trkpt>
<trkpt lat="46.0339440" lon="10.3727570">
	<ele>1087.80</ele>
	<time>2024-07-24T10:44:47.000Z</time>
</trkpt>
<trkpt lat="46.0339440" lon="10.3727570">
	<ele>1087.80</ele>
	<time>2024-07-24T10:44:48.000Z</time>
</trkpt>
<trkpt lat="46.0339440" lon="10.3727570">
	<ele>1087.80</ele>
	<time>2024-07-24T10:44:49.000Z</time>
</trkpt>
<trkpt lat="46.0339440" lon="10.3727570">
	<ele>1087.80</ele>
	<time>2024-07-24T10:44:50.000Z</time>
</trkpt>
<trkpt lat="46.0339440" lon="10.3727570">
	<ele>1087.80</ele>
	<time>2024-07-24T10:44:51.000Z</time>
</trkpt>
<trkpt lat="46.0339440" lon="10.3727570">
	<ele>1087.80</ele>
	<time>2024-07-24T10:44:52.000Z</time>
</trkpt>
<trkpt lat="46.0339440" lon="10.3727570">
	<ele>1087.80</ele>
	<time>2024-07-24T10:44:53.000Z</time>
</trkpt>
<trkpt lat="46.0339440" lon="10.3727570">
	<ele>1087.80</ele>
	<time>2024-07-24T10:44:54.000Z</time>
</trkpt>
<trkpt lat="46.0339440" lon="10.3727580">
	<ele>1087.80</ele>
	<time>2024-07-24T10:44:55.000Z</time>
</trkpt>
<trkpt lat="46.0339440" lon="10.3727580">
	<ele>1087.60</ele>
	<time>2024-07-24T10:44:56.000Z</time>
</trkpt>
<trkpt lat="46.0339430" lon="10.3727590">
	<ele>1087.60</ele>
	<time>2024-07-24T10:44:57.000Z</time>
</trkpt>
<trkpt lat="46.0339370" lon="10.3727600">
	<ele>1087.20</ele>
	<time>2024-07-24T10:44:58.000Z</time>
</trkpt>
<trkpt lat="46.0339210" lon="10.3727540">
	<ele>1087.00</ele>
	<time>2024-07-24T10:44:59.000Z</time>
</trkpt>
<trkpt lat="46.0339040" lon="10.3727550">
	<ele>1086.80</ele>
	<time>2024-07-24T10:45:00.000Z</time>
</trkpt>
<trkpt lat="46.0338870" lon="10.3727590">
	<ele>1086.40</ele>
	<time>2024-07-24T10:45:01.000Z</time>
</trkpt>
<trkpt lat="46.0338680" lon="10.3727620">
	<ele>1086.20</ele>
	<time>2024-07-24T10:45:02.000Z</time>
</trkpt>
<trkpt lat="46.0338430" lon="10.3727670">
	<ele>1086.00</ele>
	<time>2024-07-24T10:45:03.000Z</time>
</trkpt>
<trkpt lat="46.0338270" lon="10.3727730">
	<ele>1085.60</ele>
	<time>2024-07-24T10:45:04.000Z</time>
</trkpt>
<trkpt lat="46.0338100" lon="10.3727790">
	<ele>1085.40</ele>
	<time>2024-07-24T10:45:05.000Z</time>
</trkpt>
<trkpt lat="46.0337910" lon="10.3727810">
	<ele>1085.00</ele>
	<time>2024-07-24T10:45:06.000Z</time>
</trkpt>
<trkpt lat="46.0337760" lon="10.3727780">
	<ele>1084.80</ele>
	<time>2024-07-24T10:45:07.000Z</time>
</trkpt>
<trkpt lat="46.0337690" lon="10.3727800">
	<ele>1084.80</ele>
	<time>2024-07-24T10:45:08.000Z</time>
</trkpt>
<trkpt lat="46.0337600" lon="10.3727850">
	<ele>1084.60</ele>
	<time>2024-07-24T10:45:09.000Z</time>
</trkpt>
<trkpt lat="46.0337510" lon="10.3727900">
	<ele>1084.40</ele>
	<time>2024-07-24T10:45:10.000Z</time>
</trkpt>
<trkpt lat="46.0337400" lon="10.3727930">
	<ele>1084.00</ele>
	<time>2024-07-24T10:45:11.000Z</time>
</trkpt>
<trkpt lat="46.0337260" lon="10.3727920">
	<ele>1083.80</ele>
	<time>2024-07-24T10:45:12.000Z</time>
</trkpt>
<trkpt lat="46.0337120" lon="10.3727890">
	<ele>1083.60</ele>
	<time>2024-07-24T10:45:13.000Z</time>
</trkpt>
<trkpt lat="46.0337010" lon="10.3727880">
	<ele>1083.40</ele>
	<time>2024-07-24T10:45:14.000Z</time>
</trkpt>
<trkpt lat="46.0336900" lon="10.3727880">
	<ele>1083.20</ele>
	<time>2024-07-24T10:45:15.000Z</time>
</trkpt>
<trkpt lat="46.0336800" lon="10.3727860">
	<ele>1083.00</ele>
	<time>2024-07-24T10:45:16.000Z</time>
</trkpt>
<trkpt lat="46.0336720" lon="10.3727840">
	<ele>1082.60</ele>
	<time>2024-07-24T10:45:17.000Z</time>
</trkpt>
<trkpt lat="46.0336610" lon="10.3727810">
	<ele>1082.40</ele>
	<time>2024-07-24T10:45:18.000Z</time>
</trkpt>
<trkpt lat="46.0336480" lon="10.3727730">
	<ele>1082.20</ele>
	<time>2024-07-24T10:45:19.000Z</time>
</trkpt>
<trkpt lat="46.0336330" lon="10.3727720">
	<ele>1082.00</ele>
	<time>2024-07-24T10:45:20.000Z</time>
</trkpt>
<trkpt lat="46.0336210" lon="10.3727710">
	<ele>1082.00</ele>
	<time>2024-07-24T10:45:21.000Z</time>
</trkpt>
<trkpt lat="46.0336080" lon="10.3727700">
	<ele>1081.80</ele>
	<time>2024-07-24T10:45:22.000Z</time>
</trkpt>
<trkpt lat="46.0335990" lon="10.3727660">
	<ele>1081.60</ele>
	<time>2024-07-24T10:45:23.000Z</time>
</trkpt>
<trkpt lat="46.0335920" lon="10.3727640">
	<ele>1081.40</ele>
	<time>2024-07-24T10:45:24.000Z</time>
</trkpt>
<trkpt lat="46.0335860" lon="10.3727630">
	<ele>1080.80</ele>
	<time>2024-07-24T10:45:25.000Z</time>
</trkpt>
<trkpt lat="46.0335780" lon="10.3727650">
	<ele>1080.60</ele>
	<time>2024-07-24T10:45:26.000Z</time>
</trkpt>
<trkpt lat="46.0335660" lon="10.3727690">
	<ele>1080.40</ele>
	<time>2024-07-24T10:45:27.000Z</time>
</trkpt>
<trkpt lat="46.0335560" lon="10.3727750">
	<ele>1080.20</ele>
	<time>2024-07-24T10:45:28.000Z</time>
</trkpt>
<trkpt lat="46.0335470" lon="10.3727670">
	<ele>1080.00</ele>
	<time>2024-07-24T10:45:29.000Z</time>
</trkpt>
<trkpt lat="46.0335390" lon="10.3727640">
	<ele>1079.80</ele>
	<time>2024-07-24T10:45:30.000Z</time>
</trkpt>
<trkpt lat="46.0335290" lon="10.3727610">
	<ele>1079.60</ele>
	<time>2024-07-24T10:45:31.000Z</time>
</trkpt>
<trkpt lat="46.0335190" lon="10.3727570">
	<ele>1079.60</ele>
	<time>2024-07-24T10:45:32.000Z</time>
</trkpt>
<trkpt lat="46.0335070" lon="10.3727450">
	<ele>1079.20</ele>
	<time>2024-07-24T10:45:33.000Z</time>
</trkpt>
<trkpt lat="46.0334940" lon="10.3727380">
	<ele>1079.00</ele>
	<time>2024-07-24T10:45:34.000Z</time>
</trkpt>
<trkpt lat="46.0334800" lon="10.3727370">
	<ele>1078.80</ele>
	<time>2024-07-24T10:45:35.000Z</time>
</trkpt>
<trkpt lat="46.0334700" lon="10.3727350">
	<ele>1078.60</ele>
	<time>2024-07-24T10:45:36.000Z</time>
</trkpt>
<trkpt lat="46.0334650" lon="10.3727300">
	<ele>1078.40</ele>
	<time>2024-07-24T10:45:37.000Z</time>
</trkpt>
<trkpt lat="46.0334620" lon="10.3727250">
	<ele>1078.20</ele>
	<time>2024-07-24T10:45:38.000Z</time>
</trkpt>
<trkpt lat="46.0334570" lon="10.3727250">
	<ele>1077.80</ele>
	<time>2024-07-24T10:45:39.000Z</time>
</trkpt>
<trkpt lat="46.0334490" lon="10.3727270">
	<ele>1077.60</ele>
	<time>2024-07-24T10:45:40.000Z</time>
</trkpt>
<trkpt lat="46.0334380" lon="10.3727240">
	<ele>1077.40</ele>
	<time>2024-07-24T10:45:41.000Z</time>
</trkpt>
<trkpt lat="46.0334300" lon="10.3727160">
	<ele>1077.20</ele>
	<time>2024-07-24T10:45:42.000Z</time>
</trkpt>
<trkpt lat="46.0334210" lon="10.3727130">
	<ele>1077.00</ele>
	<time>2024-07-24T10:45:43.000Z</time>
</trkpt>
<trkpt lat="46.0334180" lon="10.3727110">
	<ele>1076.80</ele>
	<time>2024-07-24T10:45:44.000Z</time>
</trkpt>
<trkpt lat="46.0334130" lon="10.3727090">
	<ele>1076.60</ele>
	<time>2024-07-24T10:45:45.000Z</time>
</trkpt>
<trkpt lat="46.0334020" lon="10.3727120">
	<ele>1076.40</ele>
	<time>2024-07-24T10:45:46.000Z</time>
</trkpt>
<trkpt lat="46.0333940" lon="10.3727120">
	<ele>1076.40</ele>
	<time>2024-07-24T10:45:47.000Z</time>
</trkpt>
<trkpt lat="46.0333870" lon="10.3727110">
	<ele>1076.20</ele>
	<time>2024-07-24T10:45:48.000Z</time>
</trkpt>
<trkpt lat="46.0333850" lon="10.3727140">
	<ele>1076.00</ele>
	<time>2024-07-24T10:45:49.000Z</time>
</trkpt>
<trkpt lat="46.0333770" lon="10.3727180">
	<ele>1075.80</ele>
	<time>2024-07-24T10:45:50.000Z</time>
</trkpt>
<trkpt lat="46.0333660" lon="10.3727220">
	<ele>1075.60</ele>
	<time>2024-07-24T10:45:51.000Z</time>
</trkpt>
<trkpt lat="46.0333530" lon="10.3727210">
	<ele>1075.40</ele>
	<time>2024-07-24T10:45:52.000Z</time>
</trkpt>
<trkpt lat="46.0333400" lon="10.3727190">
	<ele>1075.20</ele>
	<time>2024-07-24T10:45:53.000Z</time>
</trkpt>
<trkpt lat="46.0333310" lon="10.3727130">
	<ele>1075.00</ele>
	<time>2024-07-24T10:45:54.000Z</time>
</trkpt>
<trkpt lat="46.0333210" lon="10.3727130">
	<ele>1074.80</ele>
	<time>2024-07-24T10:45:55.000Z</time>
</trkpt>
<trkpt lat="46.0333110" lon="10.3727150">
	<ele>1074.40</ele>
	<time>2024-07-24T10:45:56.000Z</time>
</trkpt>
<trkpt lat="46.0333000" lon="10.3727120">
	<ele>1074.20</ele>
	<time>2024-07-24T10:45:57.000Z</time>
</trkpt>
<trkpt lat="46.0332900" lon="10.3727060">
	<ele>1074.00</ele>
	<time>2024-07-24T10:45:58.000Z</time>
</trkpt>
<trkpt lat="46.0332830" lon="10.3727070">
	<ele>1073.80</ele>
	<time>2024-07-24T10:45:59.000Z</time>
</trkpt>
<trkpt lat="46.0332690" lon="10.3727090">
	<ele>1073.80</ele>
	<time>2024-07-24T10:46:00.000Z</time>
</trkpt>
<trkpt lat="46.0332560" lon="10.3727070">
	<ele>1073.40</ele>
	<time>2024-07-24T10:46:01.000Z</time>
</trkpt>
<trkpt lat="46.0332410" lon="10.3726960">
	<ele>1073.20</ele>
	<time>2024-07-24T10:46:02.000Z</time>
</trkpt>
<trkpt lat="46.0332320" lon="10.3726920">
	<ele>1073.00</ele>
	<time>2024-07-24T10:46:03.000Z</time>
</trkpt>
<trkpt lat="46.0332240" lon="10.3726880">
	<ele>1072.80</ele>
	<time>2024-07-24T10:46:04.000Z</time>
</trkpt>
<trkpt lat="46.0332200" lon="10.3726880">
	<ele>1072.60</ele>
	<time>2024-07-24T10:46:05.000Z</time>
</trkpt>
<trkpt lat="46.0332140" lon="10.3726890">
	<ele>1072.40</ele>
	<time>2024-07-24T10:46:06.000Z</time>
</trkpt>
<trkpt lat="46.0332040" lon="10.3726840">
	<ele>1072.20</ele>
	<time>2024-07-24T10:46:07.000Z</time>
</trkpt>
<trkpt lat="46.0331910" lon="10.3726680">
	<ele>1072.20</ele>
	<time>2024-07-24T10:46:08.000Z</time>
</trkpt>
<trkpt lat="46.0331860" lon="10.3726650">
	<ele>1071.80</ele>
	<time>2024-07-24T10:46:09.000Z</time>
</trkpt>
<trkpt lat="46.0331710" lon="10.3726640">
	<ele>1071.40</ele>
	<time>2024-07-24T10:46:10.000Z</time>
</trkpt>
<trkpt lat="46.0331600" lon="10.3726700">
	<ele>1071.20</ele>
	<time>2024-07-24T10:46:11.000Z</time>
</trkpt>
<trkpt lat="46.0331520" lon="10.3726780">
	<ele>1071.00</ele>
	<time>2024-07-24T10:46:12.000Z</time>
</trkpt>
<trkpt lat="46.0331440" lon="10.3726740">
	<ele>1070.60</ele>
	<time>2024-07-24T10:46:13.000Z</time>
</trkpt>
<trkpt lat="46.0331370" lon="10.3726660">
	<ele>1070.40</ele>
	<time>2024-07-24T10:46:14.000Z</time>
</trkpt>
<trkpt lat="46.0331310" lon="10.3726660">
	<ele>1070.20</ele>
	<time>2024-07-24T10:46:15.000Z</time>
</trkpt>
<trkpt lat="46.0331210" lon="10.3726610">
	<ele>1069.80</ele>
	<time>2024-07-24T10:46:16.000Z</time>
</trkpt>
<trkpt lat="46.0331090" lon="10.3726580">
	<ele>1069.60</ele>
	<time>2024-07-24T10:46:17.000Z</time>
</trkpt>
<trkpt lat="46.0331030" lon="10.3726550">
	<ele>1069.20</ele>
	<time>2024-07-24T10:46:18.000Z</time>
</trkpt>
<trkpt lat="46.0330960" lon="10.3726600">
	<ele>1069.00</ele>
	<time>2024-07-24T10:46:19.000Z</time>
</trkpt>
<trkpt lat="46.0330850" lon="10.3726580">
	<ele>1068.80</ele>
	<time>2024-07-24T10:46:20.000Z</time>
</trkpt>
<trkpt lat="46.0330750" lon="10.3726640">
	<ele>1068.60</ele>
	<time>2024-07-24T10:46:21.000Z</time>
</trkpt>
<trkpt lat="46.0330640" lon="10.3726680">
	<ele>1068.20</ele>
	<time>2024-07-24T10:46:22.000Z</time>
</trkpt>
<trkpt lat="46.0330510" lon="10.3726640">
	<ele>1068.00</ele>
	<time>2024-07-24T10:46:23.000Z</time>
</trkpt>
<trkpt lat="46.0330390" lon="10.3726570">
	<ele>1067.80</ele>
	<time>2024-07-24T10:46:24.000Z</time>
</trkpt>
<trkpt lat="46.0330270" lon="10.3726600">
	<ele>1067.40</ele>
	<time>2024-07-24T10:46:25.000Z</time>
</trkpt>
<trkpt lat="46.0330150" lon="10.3726630">
	<ele>1067.00</ele>
	<time>2024-07-24T10:46:26.000Z</time>
</trkpt>
<trkpt lat="46.0330030" lon="10.3726610">
	<ele>1066.80</ele>
	<time>2024-07-24T10:46:27.000Z</time>
</trkpt>
<trkpt lat="46.0329960" lon="10.3726570">
	<ele>1066.60</ele>
	<time>2024-07-24T10:46:28.000Z</time>
</trkpt>
<trkpt lat="46.0329860" lon="10.3726520">
	<ele>1066.40</ele>
	<time>2024-07-24T10:46:29.000Z</time>
</trkpt>
<trkpt lat="46.0329720" lon="10.3726480">
	<ele>1066.20</ele>
	<time>2024-07-24T10:46:30.000Z</time>
</trkpt>
<trkpt lat="46.0329600" lon="10.3726410">
	<ele>1066.00</ele>
	<time>2024-07-24T10:46:31.000Z</time>
</trkpt>
<trkpt lat="46.0329490" lon="10.3726340">
	<ele>1065.80</ele>
	<time>2024-07-24T10:46:32.000Z</time>
</trkpt>
<trkpt lat="46.0329360" lon="10.3726280">
	<ele>1065.60</ele>
	<time>2024-07-24T10:46:33.000Z</time>
</trkpt>
<trkpt lat="46.0329230" lon="10.3726190">
	<ele>1065.40</ele>
	<time>2024-07-24T10:46:34.000Z</time>
</trkpt>
<trkpt lat="46.0329150" lon="10.3726140">
	<ele>1065.00</ele>
	<time>2024-07-24T10:46:35.000Z</time>
</trkpt>
<trkpt lat="46.0329050" lon="10.3726100">
	<ele>1064.80</ele>
	<time>2024-07-24T10:46:36.000Z</time>
</trkpt>
<trkpt lat="46.0328970" lon="10.3726100">
	<ele>1064.40</ele>
	<time>2024-07-24T10:46:37.000Z</time>
</trkpt>
<trkpt lat="46.0328870" lon="10.3726080">
	<ele>1064.20</ele>
	<time>2024-07-24T10:46:38.000Z</time>
</trkpt>
<trkpt lat="46.0328750" lon="10.3726060">
	<ele>1064.00</ele>
	<time>2024-07-24T10:46:39.000Z</time>
</trkpt>
<trkpt lat="46.0328630" lon="10.3726050">
	<ele>1063.80</ele>
	<time>2024-07-24T10:46:40.000Z</time>
</trkpt>
<trkpt lat="46.0328560" lon="10.3726080">
	<ele>1063.40</ele>
	<time>2024-07-24T10:46:41.000Z</time>
</trkpt>
<trkpt lat="46.0328480" lon="10.3726070">
	<ele>1063.20</ele>
	<time>2024-07-24T10:46:42.000Z</time>
</trkpt>
<trkpt lat="46.0328420" lon="10.3726050">
	<ele>1062.80</ele>
	<time>2024-07-24T10:46:43.000Z</time>
</trkpt>
<trkpt lat="46.0328340" lon="10.3726060">
	<ele>1062.60</ele>
	<time>2024-07-24T10:46:44.000Z</time>
</trkpt>
<trkpt lat="46.0328240" lon="10.3726090">
	<ele>1062.40</ele>
	<time>2024-07-24T10:46:45.000Z</time>
</trkpt>
<trkpt lat="46.0328130" lon="10.3726100">
	<ele>1062.20</ele>
	<time>2024-07-24T10:46:46.000Z</time>
</trkpt>
<trkpt lat="46.0328050" lon="10.3726100">
	<ele>1062.00</ele>
	<time>2024-07-24T10:46:47.000Z</time>
</trkpt>
<trkpt lat="46.0327950" lon="10.3726130">
	<ele>1061.60</ele>
	<time>2024-07-24T10:46:48.000Z</time>
</trkpt>
<trkpt lat="46.0327850" lon="10.3726240">
	<ele>1061.40</ele>
	<time>2024-07-24T10:46:49.000Z</time>
</trkpt>
<trkpt lat="46.0327740" lon="10.3726270">
	<ele>1061.00</ele>
	<time>2024-07-24T10:46:50.000Z</time>
</trkpt>
<trkpt lat="46.0327660" lon="10.3726280">
	<ele>1060.80</ele>
	<time>2024-07-24T10:46:51.000Z</time>
</trkpt>
<trkpt lat="46.0327540" lon="10.3726330">
	<ele>1060.40</ele>
	<time>2024-07-24T10:46:52.000Z</time>
</trkpt>
<trkpt lat="46.0327410" lon="10.3726380">
	<ele>1060.20</ele>
	<time>2024-07-24T10:46:53.000Z</time>
</trkpt>
<trkpt lat="46.0327370" lon="10.3726450">
	<ele>1060.00</ele>
	<time>2024-07-24T10:46:54.000Z</time>
</trkpt>
<trkpt lat="46.0327340" lon="10.3726510">
	<ele>1059.80</ele>
	<time>2024-07-24T10:46:55.000Z</time>
</trkpt>
<trkpt lat="46.0327300" lon="10.3726550">
	<ele>1059.40</ele>
	<time>2024-07-24T10:46:56.000Z</time>
</trkpt>
<trkpt lat="46.0327270" lon="10.3726520">
	<ele>1059.00</ele>
	<time>2024-07-24T10:46:57.000Z</time>
</trkpt>
<trkpt lat="46.0327240" lon="10.3726460">
	<ele>1058.80</ele>
	<time>2024-07-24T10:46:58.000Z</time>
</trkpt>
<trkpt lat="46.0327170" lon="10.3726400">
	<ele>1058.60</ele>
	<time>2024-07-24T10:46:59.000Z</time>
</trkpt>
<trkpt lat="46.0327080" lon="10.3726350">
	<ele>1058.40</ele>
	<time>2024-07-24T10:47:00.000Z</time>
</trkpt>
<trkpt lat="46.0326960" lon="10.3726310">
	<ele>1058.20</ele>
	<time>2024-07-24T10:47:01.000Z</time>
</trkpt>
<trkpt lat="46.0326860" lon="10.3726300">
	<ele>1058.00</ele>
	<time>2024-07-24T10:47:02.000Z</time>
</trkpt>
<trkpt lat="46.0326760" lon="10.3726280">
	<ele>1057.60</ele>
	<time>2024-07-24T10:47:03.000Z</time>
</trkpt>
<trkpt lat="46.0326650" lon="10.3726240">
	<ele>1057.20</ele>
	<time>2024-07-24T10:47:04.000Z</time>
</trkpt>
<trkpt lat="46.0326550" lon="10.3726170">
	<ele>1057.00</ele>
	<time>2024-07-24T10:47:05.000Z</time>
</trkpt>
<trkpt lat="46.0326460" lon="10.3726160">
	<ele>1056.80</ele>
	<time>2024-07-24T10:47:06.000Z</time>
</trkpt>
<trkpt lat="46.0326330" lon="10.3726120">
	<ele>1056.40</ele>
	<time>2024-07-24T10:47:07.000Z</time>
</trkpt>
<trkpt lat="46.0326220" lon="10.3726040">
	<ele>1056.20</ele>
	<time>2024-07-24T10:47:08.000Z</time>
</trkpt>
<trkpt lat="46.0326130" lon="10.3726010">
	<ele>1056.00</ele>
	<time>2024-07-24T10:47:09.000Z</time>
</trkpt>
<trkpt lat="46.0325990" lon="10.3725950">
	<ele>1055.80</ele>
	<time>2024-07-24T10:47:10.000Z</time>
</trkpt>
<trkpt lat="46.0325850" lon="10.3725870">
	<ele>1055.40</ele>
	<time>2024-07-24T10:47:11.000Z</time>
</trkpt>
<trkpt lat="46.0325780" lon="10.3725840">
	<ele>1055.20</ele>
	<time>2024-07-24T10:47:12.000Z</time>
</trkpt>
<trkpt lat="46.0325700" lon="10.3725730">
	<ele>1055.00</ele>
	<time>2024-07-24T10:47:13.000Z</time>
</trkpt>
<trkpt lat="46.0325590" lon="10.3725630">
	<ele>1054.60</ele>
	<time>2024-07-24T10:47:14.000Z</time>
</trkpt>
<trkpt lat="46.0325520" lon="10.3725580">
	<ele>1054.40</ele>
	<time>2024-07-24T10:47:15.000Z</time>
</trkpt>
<trkpt lat="46.0325440" lon="10.3725530">
	<ele>1054.20</ele>
	<time>2024-07-24T10:47:16.000Z</time>
</trkpt>
<trkpt lat="46.0325340" lon="10.3725460">
	<ele>1054.00</ele>
	<time>2024-07-24T10:47:17.000Z</time>
</trkpt>
<trkpt lat="46.0325250" lon="10.3725360">
	<ele>1053.80</ele>
	<time>2024-07-24T10:47:18.000Z</time>
</trkpt>
<trkpt lat="46.0325170" lon="10.3725270">
	<ele>1053.60</ele>
	<time>2024-07-24T10:47:19.000Z</time>
</trkpt>
<trkpt lat="46.0325130" lon="10.3725220">
	<ele>1053.60</ele>
	<time>2024-07-24T10:47:20.000Z</time>
</trkpt>
<trkpt lat="46.0325020" lon="10.3725150">
	<ele>1053.40</ele>
	<time>2024-07-24T10:47:21.000Z</time>
</trkpt>
<trkpt lat="46.0324870" lon="10.3725110">
	<ele>1053.20</ele>
	<time>2024-07-24T10:47:22.000Z</time>
</trkpt>
<trkpt lat="46.0324790" lon="10.3725120">
	<ele>1053.00</ele>
	<time>2024-07-24T10:47:23.000Z</time>
</trkpt>
<trkpt lat="46.0324740" lon="10.3725140">
	<ele>1052.80</ele>
	<time>2024-07-24T10:47:24.000Z</time>
</trkpt>
<trkpt lat="46.0324690" lon="10.3725120">
	<ele>1052.60</ele>
	<time>2024-07-24T10:47:25.000Z</time>
</trkpt>
<trkpt lat="46.0324600" lon="10.3725100">
	<ele>1052.60</ele>
	<time>2024-07-24T10:47:26.000Z</time>
</trkpt>
<trkpt lat="46.0324490" lon="10.3725080">
	<ele>1052.40</ele>
	<time>2024-07-24T10:47:27.000Z</time>
</trkpt>
<trkpt lat="46.0324360" lon="10.3725070">
	<ele>1052.00</ele>
	<time>2024-07-24T10:47:28.000Z</time>
</trkpt>
<trkpt lat="46.0324250" lon="10.3725070">
	<ele>1051.80</ele>
	<time>2024-07-24T10:47:29.000Z</time>
</trkpt>
<trkpt lat="46.0324100" lon="10.3725050">
	<ele>1051.60</ele>
	<time>2024-07-24T10:47:30.000Z</time>
</trkpt>
<trkpt lat="46.0323930" lon="10.3725060">
	<ele>1051.40</ele>
	<time>2024-07-24T10:47:31.000Z</time>
</trkpt>
<trkpt lat="46.0323720" lon="10.3725160">
	<ele>1051.20</ele>
	<time>2024-07-24T10:47:32.000Z</time>
</trkpt>
<trkpt lat="46.0323460" lon="10.3725270">
	<ele>1051.00</ele>
	<time>2024-07-24T10:47:33.000Z</time>
</trkpt>
<trkpt lat="46.0323300" lon="10.3725260">
	<ele>1050.80</ele>
	<time>2024-07-24T10:47:34.000Z</time>
</trkpt>
<trkpt lat="46.0323140" lon="10.3725230">
	<ele>1050.60</ele>
	<time>2024-07-24T10:47:35.000Z</time>
</trkpt>
<trkpt lat="46.0322960" lon="10.3725200">
	<ele>1050.40</ele>
	<time>2024-07-24T10:47:36.000Z</time>
</trkpt>
<trkpt lat="46.0322850" lon="10.3725120">
	<ele>1050.20</ele>
	<time>2024-07-24T10:47:37.000Z</time>
</trkpt>
<trkpt lat="46.0322730" lon="10.3724980">
	<ele>1050.00</ele>
	<time>2024-07-24T10:47:38.000Z</time>
</trkpt>
<trkpt lat="46.0322610" lon="10.3724880">
	<ele>1049.80</ele>
	<time>2024-07-24T10:47:39.000Z</time>
</trkpt>
<trkpt lat="46.0322500" lon="10.3724770">
	<ele>1049.60</ele>
	<time>2024-07-24T10:47:40.000Z</time>
</trkpt>
<trkpt lat="46.0322420" lon="10.3724650">
	<ele>1049.40</ele>
	<time>2024-07-24T10:47:41.000Z</time>
</trkpt>
<trkpt lat="46.0322280" lon="10.3724570">
	<ele>1049.40</ele>
	<time>2024-07-24T10:47:42.000Z</time>
</trkpt>
<trkpt lat="46.0322180" lon="10.3724530">
	<ele>1049.00</ele>
	<time>2024-07-24T10:47:43.000Z</time>
</trkpt>
<trkpt lat="46.0322140" lon="10.3724500">
	<ele>1048.80</ele>
	<time>2024-07-24T10:47:44.000Z</time>
</trkpt>
<trkpt lat="46.0322160" lon="10.3724450">
	<ele>1048.60</ele>
	<time>2024-07-24T10:47:45.000Z</time>
</trkpt>
<trkpt lat="46.0322150" lon="10.3724420">
	<ele>1048.40</ele>
	<time>2024-07-24T10:47:46.000Z</time>
</trkpt>
<trkpt lat="46.0322130" lon="10.3724380">
	<ele>1048.40</ele>
	<time>2024-07-24T10:47:47.000Z</time>
</trkpt>
<trkpt lat="46.0322130" lon="10.3724360">
	<ele>1048.20</ele>
	<time>2024-07-24T10:47:48.000Z</time>
</trkpt>
<trkpt lat="46.0322140" lon="10.3724350">
	<ele>1048.20</ele>
	<time>2024-07-24T10:47:49.000Z</time>
</trkpt>
<trkpt lat="46.0322150" lon="10.3724330">
	<ele>1048.20</ele>
	<time>2024-07-24T10:47:50.000Z</time>
</trkpt>
<trkpt lat="46.0322160" lon="10.3724320">
	<ele>1048.20</ele>
	<time>2024-07-24T10:47:51.000Z</time>
</trkpt>
<trkpt lat="46.0322160" lon="10.3724310">
	<ele>1048.20</ele>
	<time>2024-07-24T10:47:52.000Z</time>
</trkpt>
<trkpt lat="46.0322160" lon="10.3724300">
	<ele>1048.40</ele>
	<time>2024-07-24T10:47:53.000Z</time>
</trkpt>
<trkpt lat="46.0322200" lon="10.3724400">
	<ele>1048.40</ele>
	<time>2024-07-24T10:47:54.000Z</time>
</trkpt>
<trkpt lat="46.0321760" lon="10.3723870">
	<ele>1048.40</ele>
	<time>2024-07-24T10:47:55.000Z</time>
</trkpt>
<trkpt lat="46.0321490" lon="10.3723570">
	<ele>1048.60</ele>
	<time>2024-07-24T10:47:56.000Z</time>
</trkpt>
<trkpt lat="46.0321470" lon="10.3723530">
	<ele>1048.40</ele>
	<time>2024-07-24T10:47:57.000Z</time>
</trkpt>
<trkpt lat="46.0321460" lon="10.3723720">
	<ele>1048.20</ele>
	<time>2024-07-24T10:47:58.000Z</time>
</trkpt>
<trkpt lat="46.0321390" lon="10.3723810">
	<ele>1048.20</ele>
	<time>2024-07-24T10:47:59.000Z</time>
</trkpt>
<trkpt lat="46.0321320" lon="10.3723830">
	<ele>1048.00</ele>
	<time>2024-07-24T10:48:00.000Z</time>
</trkpt>
<trkpt lat="46.0321260" lon="10.3723820">
	<ele>1048.00</ele>
	<time>2024-07-24T10:48:01.000Z</time>
</trkpt>
<trkpt lat="46.0321200" lon="10.3723880">
	<ele>1047.60</ele>
	<time>2024-07-24T10:48:02.000Z</time>
</trkpt>
<trkpt lat="46.0321070" lon="10.3723990">
	<ele>1047.60</ele>
	<time>2024-07-24T10:48:03.000Z</time>
</trkpt>
<trkpt lat="46.0320940" lon="10.3724090">
	<ele>1047.40</ele>
	<time>2024-07-24T10:48:04.000Z</time>
</trkpt>
<trkpt lat="46.0320800" lon="10.3724160">
	<ele>1047.20</ele>
	<time>2024-07-24T10:48:05.000Z</time>
</trkpt>
<trkpt lat="46.0320770" lon="10.3724230">
	<ele>1047.00</ele>
	<time>2024-07-24T10:48:06.000Z</time>
</trkpt>
<trkpt lat="46.0320670" lon="10.3724280">
	<ele>1046.80</ele>
	<time>2024-07-24T10:48:07.000Z</time>
</trkpt>
<trkpt lat="46.0320530" lon="10.3724320">
	<ele>1046.60</ele>
	<time>2024-07-24T10:48:08.000Z</time>
</trkpt>
<trkpt lat="46.0320440" lon="10.3724370">
	<ele>1046.60</ele>
	<time>2024-07-24T10:48:09.000Z</time>
</trkpt>
<trkpt lat="46.0320350" lon="10.3724450">
	<ele>1046.40</ele>
	<time>2024-07-24T10:48:10.000Z</time>
</trkpt>
<trkpt lat="46.0320280" lon="10.3724550">
	<ele>1046.20</ele>
	<time>2024-07-24T10:48:11.000Z</time>
</trkpt>
<trkpt lat="46.0320170" lon="10.3724650">
	<ele>1046.20</ele>
	<time>2024-07-24T10:48:12.000Z</time>
</trkpt>
<trkpt lat="46.0320100" lon="10.3724750">
	<ele>1045.80</ele>
	<time>2024-07-24T10:48:13.000Z</time>
</trkpt>
<trkpt lat="46.0320010" lon="10.3724750">
	<ele>1045.60</ele>
	<time>2024-07-24T10:48:14.000Z</time>
</trkpt>
<trkpt lat="46.0319910" lon="10.3724720">
	<ele>1045.20</ele>
	<time>2024-07-24T10:48:15.000Z</time>
</trkpt>
<trkpt lat="46.0319850" lon="10.3724650">
	<ele>1045.00</ele>
	<time>2024-07-24T10:48:16.000Z</time>
</trkpt>
<trkpt lat="46.0319830" lon="10.3724620">
	<ele>1044.80</ele>
	<time>2024-07-24T10:48:17.000Z</time>
</trkpt>
<trkpt lat="46.0319740" lon="10.3724550">
	<ele>1044.60</ele>
	<time>2024-07-24T10:48:18.000Z</time>
</trkpt>
<trkpt lat="46.0319630" lon="10.3724570">
	<ele>1044.40</ele>
	<time>2024-07-24T10:48:19.000Z</time>
</trkpt>
<trkpt lat="46.0319510" lon="10.3724510">
	<ele>1044.20</ele>
	<time>2024-07-24T10:48:20.000Z</time>
</trkpt>
<trkpt lat="46.0319420" lon="10.3724550">
	<ele>1044.00</ele>
	<time>2024-07-24T10:48:21.000Z</time>
</trkpt>
<trkpt lat="46.0319300" lon="10.3724540">
	<ele>1043.80</ele>
	<time>2024-07-24T10:48:22.000Z</time>
</trkpt>
<trkpt lat="46.0319170" lon="10.3724550">
	<ele>1043.60</ele>
	<time>2024-07-24T10:48:23.000Z</time>
</trkpt>
<trkpt lat="46.0319060" lon="10.3724580">
	<ele>1043.40</ele>
	<time>2024-07-24T10:48:24.000Z</time>
</trkpt>
<trkpt lat="46.0318930" lon="10.3724570">
	<ele>1043.00</ele>
	<time>2024-07-24T10:48:25.000Z</time>
</trkpt>
<trkpt lat="46.0318820" lon="10.3724560">
	<ele>1042.80</ele>
	<time>2024-07-24T10:48:26.000Z</time>
</trkpt>
<trkpt lat="46.0318750" lon="10.3724580">
	<ele>1042.60</ele>
	<time>2024-07-24T10:48:27.000Z</time>
</trkpt>
<trkpt lat="46.0318670" lon="10.3724640">
	<ele>1042.40</ele>
	<time>2024-07-24T10:48:28.000Z</time>
</trkpt>
<trkpt lat="46.0318560" lon="10.3724620">
	<ele>1042.20</ele>
	<time>2024-07-24T10:48:29.000Z</time>
</trkpt>
<trkpt lat="46.0318430" lon="10.3724600">
	<ele>1042.00</ele>
	<time>2024-07-24T10:48:30.000Z</time>
</trkpt>
<trkpt lat="46.0318300" lon="10.3724590">
	<ele>1041.80</ele>
	<time>2024-07-24T10:48:31.000Z</time>
</trkpt>
<trkpt lat="46.0318190" lon="10.3724580">
	<ele>1041.60</ele>
	<time>2024-07-24T10:48:32.000Z</time>
</trkpt>
<trkpt lat="46.0318100" lon="10.3724520">
	<ele>1041.60</ele>
	<time>2024-07-24T10:48:33.000Z</time>
</trkpt>
<trkpt lat="46.0318040" lon="10.3724490">
	<ele>1041.20</ele>
	<time>2024-07-24T10:48:34.000Z</time>
</trkpt>
<trkpt lat="46.0317870" lon="10.3724450">
	<ele>1041.00</ele>
	<time>2024-07-24T10:48:35.000Z</time>
</trkpt>
<trkpt lat="46.0317740" lon="10.3724440">
	<ele>1040.80</ele>
	<time>2024-07-24T10:48:36.000Z</time>
</trkpt>
<trkpt lat="46.0317630" lon="10.3724470">
	<ele>1040.60</ele>
	<time>2024-07-24T10:48:37.000Z</time>
</trkpt>
<trkpt lat="46.0317530" lon="10.3724520">
	<ele>1040.60</ele>
	<time>2024-07-24T10:48:38.000Z</time>
</trkpt>
<trkpt lat="46.0317400" lon="10.3724520">
	<ele>1040.40</ele>
	<time>2024-07-24T10:48:39.000Z</time>
</trkpt>
<trkpt lat="46.0317250" lon="10.3724490">
	<ele>1040.40</ele>
	<time>2024-07-24T10:48:40.000Z</time>
</trkpt>
<trkpt lat="46.0317140" lon="10.3724480">
	<ele>1040.00</ele>
	<time>2024-07-24T10:48:41.000Z</time>
</trkpt>
<trkpt lat="46.0317020" lon="10.3724430">
	<ele>1039.80</ele>
	<time>2024-07-24T10:48:42.000Z</time>
</trkpt>
<trkpt lat="46.0316920" lon="10.3724410">
	<ele>1039.60</ele>
	<time>2024-07-24T10:48:43.000Z</time>
</trkpt>
<trkpt lat="46.0316820" lon="10.3724410">
	<ele>1039.20</ele>
	<time>2024-07-24T10:48:44.000Z</time>
</trkpt>
<trkpt lat="46.0316710" lon="10.3724460">
	<ele>1039.00</ele>
	<time>2024-07-24T10:48:45.000Z</time>
</trkpt>
<trkpt lat="46.0316550" lon="10.3724480">
	<ele>1038.80</ele>
	<time>2024-07-24T10:48:46.000Z</time>
</trkpt>
<trkpt lat="46.0316420" lon="10.3724550">
	<ele>1038.60</ele>
	<time>2024-07-24T10:48:47.000Z</time>
</trkpt>
<trkpt lat="46.0316290" lon="10.3724570">
	<ele>1038.20</ele>
	<time>2024-07-24T10:48:48.000Z</time>
</trkpt>
<trkpt lat="46.0316210" lon="10.3724640">
	<ele>1038.00</ele>
	<time>2024-07-24T10:48:49.000Z</time>
</trkpt>
<trkpt lat="46.0316180" lon="10.3724670">
	<ele>1037.60</ele>
	<time>2024-07-24T10:48:50.000Z</time>
</trkpt>
<trkpt lat="46.0316150" lon="10.3724680">
	<ele>1037.40</ele>
	<time>2024-07-24T10:48:51.000Z</time>
</trkpt>
<trkpt lat="46.0316100" lon="10.3724690">
	<ele>1037.00</ele>
	<time>2024-07-24T10:48:52.000Z</time>
</trkpt>
<trkpt lat="46.0316040" lon="10.3724680">
	<ele>1036.80</ele>
	<time>2024-07-24T10:48:53.000Z</time>
</trkpt>
<trkpt lat="46.0315920" lon="10.3724650">
	<ele>1036.60</ele>
	<time>2024-07-24T10:48:54.000Z</time>
</trkpt>
<trkpt lat="46.0315840" lon="10.3724630">
	<ele>1036.40</ele>
	<time>2024-07-24T10:48:55.000Z</time>
</trkpt>
<trkpt lat="46.0315720" lon="10.3724610">
	<ele>1036.00</ele>
	<time>2024-07-24T10:48:56.000Z</time>
</trkpt>
<trkpt lat="46.0315600" lon="10.3724590">
	<ele>1035.80</ele>
	<time>2024-07-24T10:48:57.000Z</time>
</trkpt>
<trkpt lat="46.0315520" lon="10.3724600">
	<ele>1035.60</ele>
	<time>2024-07-24T10:48:58.000Z</time>
</trkpt>
<trkpt lat="46.0315440" lon="10.3724610">
	<ele>1035.40</ele>
	<time>2024-07-24T10:48:59.000Z</time>
</trkpt>
<trkpt lat="46.0315360" lon="10.3724630">
	<ele>1035.00</ele>
	<time>2024-07-24T10:49:00.000Z</time>
</trkpt>
<trkpt lat="46.0315290" lon="10.3724640">
	<ele>1034.80</ele>
	<time>2024-07-24T10:49:01.000Z</time>
</trkpt>
<trkpt lat="46.0315190" lon="10.3724610">
	<ele>1034.40</ele>
	<time>2024-07-24T10:49:02.000Z</time>
</trkpt>
<trkpt lat="46.0315060" lon="10.3724520">
	<ele>1034.20</ele>
	<time>2024-07-24T10:49:03.000Z</time>
</trkpt>
<trkpt lat="46.0315020" lon="10.3724530">
	<ele>1033.80</ele>
	<time>2024-07-24T10:49:04.000Z</time>
</trkpt>
<trkpt lat="46.0314950" lon="10.3724560">
	<ele>1033.60</ele>
	<time>2024-07-24T10:49:05.000Z</time>
</trkpt>
<trkpt lat="46.0314850" lon="10.3724590">
	<ele>1033.40</ele>
	<time>2024-07-24T10:49:06.000Z</time>
</trkpt>
<trkpt lat="46.0314760" lon="10.3724620">
	<ele>1033.00</ele>
	<time>2024-07-24T10:49:07.000Z</time>
</trkpt>
<trkpt lat="46.0314650" lon="10.3724620">
	<ele>1032.80</ele>
	<time>2024-07-24T10:49:08.000Z</time>
</trkpt>
<trkpt lat="46.0314540" lon="10.3724620">
	<ele>1032.40</ele>
	<time>2024-07-24T10:49:09.000Z</time>
</trkpt>
<trkpt lat="46.0314460" lon="10.3724590">
	<ele>1032.20</ele>
	<time>2024-07-24T10:49:10.000Z</time>
</trkpt>
<trkpt lat="46.0314400" lon="10.3724550">
	<ele>1032.00</ele>
	<time>2024-07-24T10:49:11.000Z</time>
</trkpt>
<trkpt lat="46.0314290" lon="10.3724500">
	<ele>1031.80</ele>
	<time>2024-07-24T10:49:12.000Z</time>
</trkpt>
<trkpt lat="46.0314220" lon="10.3724520">
	<ele>1031.60</ele>
	<time>2024-07-24T10:49:13.000Z</time>
</trkpt>
<trkpt lat="46.0314120" lon="10.3724530">
	<ele>1031.40</ele>
	<time>2024-07-24T10:49:14.000Z</time>
</trkpt>
<trkpt lat="46.0314030" lon="10.3724560">
	<ele>1031.00</ele>
	<time>2024-07-24T10:49:15.000Z</time>
</trkpt>
<trkpt lat="46.0313980" lon="10.3724600">
	<ele>1030.80</ele>
	<time>2024-07-24T10:49:16.000Z</time>
</trkpt>
<trkpt lat="46.0313890" lon="10.3724640">
	<ele>1030.60</ele>
	<time>2024-07-24T10:49:17.000Z</time>
</trkpt>
<trkpt lat="46.0313780" lon="10.3724630">
	<ele>1030.40</ele>
	<time>2024-07-24T10:49:18.000Z</time>
</trkpt>
<trkpt lat="46.0313650" lon="10.3724600">
	<ele>1030.00</ele>
	<time>2024-07-24T10:49:19.000Z</time>
</trkpt>
<trkpt lat="46.0313560" lon="10.3724630">
	<ele>1029.80</ele>
	<time>2024-07-24T10:49:20.000Z</time>
</trkpt>
<trkpt lat="46.0313430" lon="10.3724630">
	<ele>1029.40</ele>
	<time>2024-07-24T10:49:21.000Z</time>
</trkpt>
<trkpt lat="46.0313340" lon="10.3724680">
	<ele>1029.20</ele>
	<time>2024-07-24T10:49:22.000Z</time>
</trkpt>
<trkpt lat="46.0313240" lon="10.3724730">
	<ele>1029.00</ele>
	<time>2024-07-24T10:49:23.000Z</time>
</trkpt>
<trkpt lat="46.0313160" lon="10.3724790">
	<ele>1028.60</ele>
	<time>2024-07-24T10:49:24.000Z</time>
</trkpt>
<trkpt lat="46.0313070" lon="10.3724850">
	<ele>1028.40</ele>
	<time>2024-07-24T10:49:25.000Z</time>
</trkpt>
<trkpt lat="46.0313020" lon="10.3724860">
	<ele>1028.20</ele>
	<time>2024-07-24T10:49:26.000Z</time>
</trkpt>
<trkpt lat="46.0312950" lon="10.3724850">
	<ele>1028.00</ele>
	<time>2024-07-24T10:49:27.000Z</time>
</trkpt>
<trkpt lat="46.0312870" lon="10.3724860">
	<ele>1027.80</ele>
	<time>2024-07-24T10:49:28.000Z</time>
</trkpt>
<trkpt lat="46.0312740" lon="10.3724930">
	<ele>1027.60</ele>
	<time>2024-07-24T10:49:29.000Z</time>
</trkpt>
<trkpt lat="46.0312600" lon="10.3725000">
	<ele>1027.20</ele>
	<time>2024-07-24T10:49:30.000Z</time>
</trkpt>
<trkpt lat="46.0312460" lon="10.3725130">
	<ele>1027.00</ele>
	<time>2024-07-24T10:49:31.000Z</time>
</trkpt>
<trkpt lat="46.0312340" lon="10.3725170">
	<ele>1026.60</ele>
	<time>2024-07-24T10:49:32.000Z</time>
</trkpt>
<trkpt lat="46.0312210" lon="10.3725220">
	<ele>1026.40</ele>
	<time>2024-07-24T10:49:33.000Z</time>
</trkpt>
<trkpt lat="46.0312100" lon="10.3725290">
	<ele>1026.00</ele>
	<time>2024-07-24T10:49:34.000Z</time>
</trkpt>
<trkpt lat="46.0311990" lon="10.3725400">
	<ele>1025.80</ele>
	<time>2024-07-24T10:49:35.000Z</time>
</trkpt>
<trkpt lat="46.0311910" lon="10.3725510">
	<ele>1025.60</ele>
	<time>2024-07-24T10:49:36.000Z</time>
</trkpt>
<trkpt lat="46.0311800" lon="10.3725560">
	<ele>1025.40</ele>
	<time>2024-07-24T10:49:37.000Z</time>
</trkpt>
<trkpt lat="46.0311660" lon="10.3725610">
	<ele>1025.20</ele>
	<time>2024-07-24T10:49:38.000Z</time>
</trkpt>
<trkpt lat="46.0311560" lon="10.3725650">
	<ele>1024.80</ele>
	<time>2024-07-24T10:49:39.000Z</time>
</trkpt>
<trkpt lat="46.0311500" lon="10.3725720">
	<ele>1024.60</ele>
	<time>2024-07-24T10:49:40.000Z</time>
</trkpt>
<trkpt lat="46.0311390" lon="10.3725750">
	<ele>1024.40</ele>
	<time>2024-07-24T10:49:41.000Z</time>
</trkpt>
<trkpt lat="46.0311320" lon="10.3725850">
	<ele>1024.20</ele>
	<time>2024-07-24T10:49:42.000Z</time>
</trkpt>
<trkpt lat="46.0311270" lon="10.3725940">
	<ele>1023.80</ele>
	<time>2024-07-24T10:49:43.000Z</time>
</trkpt>
<trkpt lat="46.0311190" lon="10.3725970">
	<ele>1023.60</ele>
	<time>2024-07-24T10:49:44.000Z</time>
</trkpt>
<trkpt lat="46.0311120" lon="10.3726010">
	<ele>1023.40</ele>
	<time>2024-07-24T10:49:45.000Z</time>
</trkpt>
<trkpt lat="46.0311040" lon="10.3726090">
	<ele>1023.20</ele>
	<time>2024-07-24T10:49:46.000Z</time>
</trkpt>
<trkpt lat="46.0310930" lon="10.3726210">
	<ele>1023.00</ele>
	<time>2024-07-24T10:49:47.000Z</time>
</trkpt>
<trkpt lat="46.0310830" lon="10.3726280">
	<ele>1022.80</ele>
	<time>2024-07-24T10:49:48.000Z</time>
</trkpt>
<trkpt lat="46.0310740" lon="10.3726320">
	<ele>1022.40</ele>
	<time>2024-07-24T10:49:49.000Z</time>
</trkpt>
<trkpt lat="46.0310650" lon="10.3726320">
	<ele>1022.20</ele>
	<time>2024-07-24T10:49:50.000Z</time>
</trkpt>
<trkpt lat="46.0310560" lon="10.3726350">
	<ele>1022.00</ele>
	<time>2024-07-24T10:49:51.000Z</time>
</trkpt>
<trkpt lat="46.0310450" lon="10.3726360">
	<ele>1021.60</ele>
	<time>2024-07-24T10:49:52.000Z</time>
</trkpt>
<trkpt lat="46.0310380" lon="10.3726450">
	<ele>1021.20</ele>
	<time>2024-07-24T10:49:53.000Z</time>
</trkpt>
<trkpt lat="46.0310270" lon="10.3726470">
	<ele>1021.00</ele>
	<time>2024-07-24T10:49:54.000Z</time>
</trkpt>
<trkpt lat="46.0310190" lon="10.3726600">
	<ele>1020.80</ele>
	<time>2024-07-24T10:49:55.000Z</time>
</trkpt>
<trkpt lat="46.0310120" lon="10.3726730">
	<ele>1020.60</ele>
	<time>2024-07-24T10:49:56.000Z</time>
</trkpt>
<trkpt lat="46.0310050" lon="10.3726820">
	<ele>1020.40</ele>
	<time>2024-07-24T10:49:57.000Z</time>
</trkpt>
<trkpt lat="46.0309970" lon="10.3726880">
	<ele>1020.00</ele>
	<time>2024-07-24T10:49:58.000Z</time>
</trkpt>
<trkpt lat="46.0309920" lon="10.3726970">
	<ele>1019.80</ele>
	<time>2024-07-24T10:49:59.000Z</time>
</trkpt>
<trkpt lat="46.0309890" lon="10.3727100">
	<ele>1019.60</ele>
	<time>2024-07-24T10:50:00.000Z</time>
</trkpt>
<trkpt lat="46.0309800" lon="10.3727300">
	<ele>1019.40</ele>
	<time>2024-07-24T10:50:01.000Z</time>
</trkpt>
<trkpt lat="46.0309670" lon="10.3727480">
	<ele>1019.00</ele>
	<time>2024-07-24T10:50:02.000Z</time>
</trkpt>
<trkpt lat="46.0309540" lon="10.3727710">
	<ele>1018.80</ele>
	<time>2024-07-24T10:50:03.000Z</time>
</trkpt>
<trkpt lat="46.0309430" lon="10.3727880">
	<ele>1018.60</ele>
	<time>2024-07-24T10:50:04.000Z</time>
</trkpt>
<trkpt lat="46.0309370" lon="10.3728030">
	<ele>1018.20</ele>
	<time>2024-07-24T10:50:05.000Z</time>
</trkpt>
<trkpt lat="46.0309310" lon="10.3728180">
	<ele>1018.00</ele>
	<time>2024-07-24T10:50:06.000Z</time>
</trkpt>
<trkpt lat="46.0309260" lon="10.3728330">
	<ele>1017.80</ele>
	<time>2024-07-24T10:50:07.000Z</time>
</trkpt>
<trkpt lat="46.0309230" lon="10.3728470">
	<ele>1017.40</ele>
	<time>2024-07-24T10:50:08.000Z</time>
</trkpt>
<trkpt lat="46.0309160" lon="10.3728550">
	<ele>1017.40</ele>
	<time>2024-07-24T10:50:09.000Z</time>
</trkpt>
<trkpt lat="46.0309070" lon="10.3728620">
	<ele>1017.00</ele>
	<time>2024-07-24T10:50:10.000Z</time>
</trkpt>
<trkpt lat="46.0308960" lon="10.3728710">
	<ele>1016.60</ele>
	<time>2024-07-24T10:50:11.000Z</time>
</trkpt>
<trkpt lat="46.0308880" lon="10.3728790">
	<ele>1016.40</ele>
	<time>2024-07-24T10:50:12.000Z</time>
</trkpt>
<trkpt lat="46.0308820" lon="10.3728840">
	<ele>1016.20</ele>
	<time>2024-07-24T10:50:13.000Z</time>
</trkpt>
<trkpt lat="46.0308790" lon="10.3728960">
	<ele>1016.00</ele>
	<time>2024-07-24T10:50:14.000Z</time>
</trkpt>
<trkpt lat="46.0308730" lon="10.3729060">
	<ele>1015.60</ele>
	<time>2024-07-24T10:50:15.000Z</time>
</trkpt>
<trkpt lat="46.0308710" lon="10.3729180">
	<ele>1015.40</ele>
	<time>2024-07-24T10:50:16.000Z</time>
</trkpt>
<trkpt lat="46.0308660" lon="10.3729280">
	<ele>1015.20</ele>
	<time>2024-07-24T10:50:17.000Z</time>
</trkpt>
<trkpt lat="46.0308620" lon="10.3729410">
	<ele>1015.00</ele>
	<time>2024-07-24T10:50:18.000Z</time>
</trkpt>
<trkpt lat="46.0308600" lon="10.3729580">
	<ele>1014.80</ele>
	<time>2024-07-24T10:50:19.000Z</time>
</trkpt>
<trkpt lat="46.0308610" lon="10.3729700">
	<ele>1014.60</ele>
	<time>2024-07-24T10:50:20.000Z</time>
</trkpt>
<trkpt lat="46.0308600" lon="10.3729810">
	<ele>1014.20</ele>
	<time>2024-07-24T10:50:21.000Z</time>
</trkpt>
<trkpt lat="46.0308580" lon="10.3729880">
	<ele>1014.00</ele>
	<time>2024-07-24T10:50:22.000Z</time>
</trkpt>
<trkpt lat="46.0308580" lon="10.3729940">
	<ele>1013.80</ele>
	<time>2024-07-24T10:50:23.000Z</time>
</trkpt>
<trkpt lat="46.0308540" lon="10.3730040">
	<ele>1013.40</ele>
	<time>2024-07-24T10:50:24.000Z</time>
</trkpt>
<trkpt lat="46.0308450" lon="10.3730100">
	<ele>1013.20</ele>
	<time>2024-07-24T10:50:25.000Z</time>
</trkpt>
<trkpt lat="46.0308390" lon="10.3730200">
	<ele>1013.00</ele>
	<time>2024-07-24T10:50:26.000Z</time>
</trkpt>
<trkpt lat="46.0308360" lon="10.3730380">
	<ele>1012.80</ele>
	<time>2024-07-24T10:50:27.000Z</time>
</trkpt>
<trkpt lat="46.0308320" lon="10.3730500">
	<ele>1012.60</ele>
	<time>2024-07-24T10:50:28.000Z</time>
</trkpt>
<trkpt lat="46.0308300" lon="10.3730610">
	<ele>1012.40</ele>
	<time>2024-07-24T10:50:29.000Z</time>
</trkpt>
<trkpt lat="46.0308270" lon="10.3730730">
	<ele>1012.00</ele>
	<time>2024-07-24T10:50:30.000Z</time>
</trkpt>
<trkpt lat="46.0308250" lon="10.3730850">
	<ele>1011.80</ele>
	<time>2024-07-24T10:50:31.000Z</time>
</trkpt>
<trkpt lat="46.0308230" lon="10.3730980">
	<ele>1011.40</ele>
	<time>2024-07-24T10:50:32.000Z</time>
</trkpt>
<trkpt lat="46.0308200" lon="10.3731100">
	<ele>1011.20</ele>
	<time>2024-07-24T10:50:33.000Z</time>
</trkpt>
<trkpt lat="46.0308120" lon="10.3731240">
	<ele>1011.00</ele>
	<time>2024-07-24T10:50:34.000Z</time>
</trkpt>
<trkpt lat="46.0308080" lon="10.3731400">
	<ele>1010.80</ele>
	<time>2024-07-24T10:50:35.000Z</time>
</trkpt>
<trkpt lat="46.0308070" lon="10.3731530">
	<ele>1010.60</ele>
	<time>2024-07-24T10:50:36.000Z</time>
</trkpt>
<trkpt lat="46.0308040" lon="10.3731630">
	<ele>1010.40</ele>
	<time>2024-07-24T10:50:37.000Z</time>
</trkpt>
<trkpt lat="46.0308020" lon="10.3731770">
	<ele>1010.00</ele>
	<time>2024-07-24T10:50:38.000Z</time>
</trkpt>
<trkpt lat="46.0308010" lon="10.3731930">
	<ele>1009.80</ele>
	<time>2024-07-24T10:50:39.000Z</time>
</trkpt>
<trkpt lat="46.0307960" lon="10.3732090">
	<ele>1009.40</ele>
	<time>2024-07-24T10:50:40.000Z</time>
</trkpt>
<trkpt lat="46.0307900" lon="10.3732210">
	<ele>1009.00</ele>
	<time>2024-07-24T10:50:41.000Z</time>
</trkpt>
<trkpt lat="46.0307820" lon="10.3732310">
	<ele>1008.80</ele>
	<time>2024-07-24T10:50:42.000Z</time>
</trkpt>
<trkpt lat="46.0307720" lon="10.3732410">
	<ele>1008.60</ele>
	<time>2024-07-24T10:50:43.000Z</time>
</trkpt>
<trkpt lat="46.0307610" lon="10.3732480">
	<ele>1008.40</ele>
	<time>2024-07-24T10:50:44.000Z</time>
</trkpt>
<trkpt lat="46.0307500" lon="10.3732520">
	<ele>1008.20</ele>
	<time>2024-07-24T10:50:45.000Z</time>
</trkpt>
<trkpt lat="46.0307410" lon="10.3732640">
	<ele>1008.00</ele>
	<time>2024-07-24T10:50:46.000Z</time>
</trkpt>
<trkpt lat="46.0307340" lon="10.3732750">
	<ele>1007.80</ele>
	<time>2024-07-24T10:50:47.000Z</time>
</trkpt>
<trkpt lat="46.0307260" lon="10.3732870">
	<ele>1007.40</ele>
	<time>2024-07-24T10:50:48.000Z</time>
</trkpt>
<trkpt lat="46.0307180" lon="10.3733020">
	<ele>1007.00</ele>
	<time>2024-07-24T10:50:49.000Z</time>
</trkpt>
<trkpt lat="46.0307070" lon="10.3733140">
	<ele>1007.00</ele>
	<time>2024-07-24T10:50:50.000Z</time>
</trkpt>
<trkpt lat="46.0306930" lon="10.3733140">
	<ele>1006.80</ele>
	<time>2024-07-24T10:50:51.000Z</time>
</trkpt>
<trkpt lat="46.0306890" lon="10.3733280">
	<ele>1006.80</ele>
	<time>2024-07-24T10:50:52.000Z</time>
</trkpt>
<trkpt lat="46.0306790" lon="10.3733360">
	<ele>1006.40</ele>
	<time>2024-07-24T10:50:53.000Z</time>
</trkpt>
<trkpt lat="46.0306670" lon="10.3733340">
	<ele>1006.00</ele>
	<time>2024-07-24T10:50:54.000Z</time>
</trkpt>
<trkpt lat="46.0306600" lon="10.3733420">
	<ele>1005.80</ele>
	<time>2024-07-24T10:50:55.000Z</time>
</trkpt>
<trkpt lat="46.0306580" lon="10.3733500">
	<ele>1005.60</ele>
	<time>2024-07-24T10:50:56.000Z</time>
</trkpt>
<trkpt lat="46.0306420" lon="10.3733580">
	<ele>1005.40</ele>
	<time>2024-07-24T10:50:57.000Z</time>
</trkpt>
<trkpt lat="46.0306320" lon="10.3733610">
	<ele>1005.20</ele>
	<time>2024-07-24T10:50:58.000Z</time>
</trkpt>
<trkpt lat="46.0306230" lon="10.3733630">
	<ele>1005.00</ele>
	<time>2024-07-24T10:50:59.000Z</time>
</trkpt>
<trkpt lat="46.0306210" lon="10.3733660">
	<ele>1004.80</ele>
	<time>2024-07-24T10:51:00.000Z</time>
</trkpt>
<trkpt lat="46.0306140" lon="10.3733740">
	<ele>1004.60</ele>
	<time>2024-07-24T10:51:01.000Z</time>
</trkpt>
<trkpt lat="46.0306030" lon="10.3733760">
	<ele>1004.40</ele>
	<time>2024-07-24T10:51:02.000Z</time>
</trkpt>
<trkpt lat="46.0305950" lon="10.3733800">
	<ele>1004.20</ele>
	<time>2024-07-24T10:51:03.000Z</time>
</trkpt>
<trkpt lat="46.0305820" lon="10.3733830">
	<ele>1003.80</ele>
	<time>2024-07-24T10:51:04.000Z</time>
</trkpt>
<trkpt lat="46.0305700" lon="10.3733850">
	<ele>1003.60</ele>
	<time>2024-07-24T10:51:05.000Z</time>
</trkpt>
<trkpt lat="46.0305590" lon="10.3733870">
	<ele>1003.40</ele>
	<time>2024-07-24T10:51:06.000Z</time>
</trkpt>
<trkpt lat="46.0305500" lon="10.3733920">
	<ele>1003.40</ele>
	<time>2024-07-24T10:51:07.000Z</time>
</trkpt>
<trkpt lat="46.0305500" lon="10.3733960">
	<ele>1003.40</ele>
	<time>2024-07-24T10:51:08.000Z</time>
</trkpt>
<trkpt lat="46.0305460" lon="10.3733890">
	<ele>1003.20</ele>
	<time>2024-07-24T10:51:09.000Z</time>
</trkpt>
<trkpt lat="46.0305450" lon="10.3733910">
	<ele>1003.20</ele>
	<time>2024-07-24T10:51:10.000Z</time>
</trkpt>
<trkpt lat="46.0305460" lon="10.3733940">
	<ele>1003.20</ele>
	<time>2024-07-24T10:51:11.000Z</time>
</trkpt>
<trkpt lat="46.0305460" lon="10.3733970">
	<ele>1003.20</ele>
	<time>2024-07-24T10:51:12.000Z</time>
</trkpt>
<trkpt lat="46.0305440" lon="10.3733970">
	<ele>1003.20</ele>
	<time>2024-07-24T10:51:13.000Z</time>
</trkpt>
<trkpt lat="46.0305440" lon="10.3733990">
	<ele>1003.20</ele>
	<time>2024-07-24T10:51:14.000Z</time>
</trkpt>
<trkpt lat="46.0305430" lon="10.3733850">
	<ele>1003.20</ele>
	<time>2024-07-24T10:51:15.000Z</time>
</trkpt>
<trkpt lat="46.0305420" lon="10.3733830">
	<ele>1003.20</ele>
	<time>2024-07-24T10:51:16.000Z</time>
</trkpt>
<trkpt lat="46.0305400" lon="10.3733840">
	<ele>1003.20</ele>
	<time>2024-07-24T10:51:17.000Z</time>
</trkpt>
<trkpt lat="46.0305390" lon="10.3733830">
	<ele>1003.20</ele>
	<time>2024-07-24T10:51:18.000Z</time>
</trkpt>
<trkpt lat="46.0305370" lon="10.3733810">
	<ele>1003.20</ele>
	<time>2024-07-24T10:51:19.000Z</time>
</trkpt>
<trkpt lat="46.0305350" lon="10.3733790">
	<ele>1003.20</ele>
	<time>2024-07-24T10:51:20.000Z</time>
</trkpt>
<trkpt lat="46.0305330" lon="10.3733800">
	<ele>1003.00</ele>
	<time>2024-07-24T10:51:21.000Z</time>
</trkpt>
<trkpt lat="46.0305290" lon="10.3733870">
	<ele>1003.00</ele>
	<time>2024-07-24T10:51:22.000Z</time>
</trkpt>
<trkpt lat="46.0305210" lon="10.3733890">
	<ele>1002.80</ele>
	<time>2024-07-24T10:51:23.000Z</time>
</trkpt>
<trkpt lat="46.0305130" lon="10.3733930">
	<ele>1002.60</ele>
	<time>2024-07-24T10:51:24.000Z</time>
</trkpt>
<trkpt lat="46.0305050" lon="10.3733970">
	<ele>1002.60</ele>
	<time>2024-07-24T10:51:25.000Z</time>
</trkpt>
<trkpt lat="46.0304940" lon="10.3734040">
	<ele>1002.40</ele>
	<time>2024-07-24T10:51:26.000Z</time>
</trkpt>
<trkpt lat="46.0304830" lon="10.3734090">
	<ele>1002.40</ele>
	<time>2024-07-24T10:51:27.000Z</time>
</trkpt>
<trkpt lat="46.0304710" lon="10.3734180">
	<ele>1002.40</ele>
	<time>2024-07-24T10:51:28.000Z</time>
</trkpt>
<trkpt lat="46.0304610" lon="10.3734270">
	<ele>1002.20</ele>
	<time>2024-07-24T10:51:29.000Z</time>
</trkpt>
<trkpt lat="46.0304500" lon="10.3734340">
	<ele>1002.00</ele>
	<time>2024-07-24T10:51:30.000Z</time>
</trkpt>
<trkpt lat="46.0304380" lon="10.3734360">
	<ele>1001.80</ele>
	<time>2024-07-24T10:51:31.000Z</time>
</trkpt>
<trkpt lat="46.0304250" lon="10.3734360">
	<ele>1001.60</ele>
	<time>2024-07-24T10:51:32.000Z</time>
</trkpt>
<trkpt lat="46.0304180" lon="10.3734390">
	<ele>1001.60</ele>
	<time>2024-07-24T10:51:33.000Z</time>
</trkpt>
<trkpt lat="46.0304090" lon="10.3734410">
	<ele>1001.40</ele>
	<time>2024-07-24T10:51:34.000Z</time>
</trkpt>
<trkpt lat="46.0304020" lon="10.3734470">
	<ele>1001.20</ele>
	<time>2024-07-24T10:51:35.000Z</time>
</trkpt>
<trkpt lat="46.0303920" lon="10.3734590">
	<ele>1000.80</ele>
	<time>2024-07-24T10:51:36.000Z</time>
</trkpt>
<trkpt lat="46.0303800" lon="10.3734710">
	<ele>1000.60</ele>
	<time>2024-07-24T10:51:37.000Z</time>
</trkpt>
<trkpt lat="46.0303690" lon="10.3734840">
	<ele>1000.40</ele>
	<time>2024-07-24T10:51:38.000Z</time>
</trkpt>
<trkpt lat="46.0303550" lon="10.3734890">
	<ele>1000.00</ele>
	<time>2024-07-24T10:51:39.000Z</time>
</trkpt>
<trkpt lat="46.0303460" lon="10.3734980">
	<ele>999.80</ele>
	<time>2024-07-24T10:51:40.000Z</time>
</trkpt>
<trkpt lat="46.0303370" lon="10.3735070">
	<ele>999.40</ele>
	<time>2024-07-24T10:51:41.000Z</time>
</trkpt>
<trkpt lat="46.0303220" lon="10.3735030">
	<ele>999.20</ele>
	<time>2024-07-24T10:51:42.000Z</time>
</trkpt>
<trkpt lat="46.0303080" lon="10.3734980">
	<ele>999.00</ele>
	<time>2024-07-24T10:51:43.000Z</time>
</trkpt>
<trkpt lat="46.0302940" lon="10.3735000">
	<ele>998.60</ele>
	<time>2024-07-24T10:51:44.000Z</time>
</trkpt>
<trkpt lat="46.0302800" lon="10.3735040">
	<ele>998.40</ele>
	<time>2024-07-24T10:51:45.000Z</time>
</trkpt>
<trkpt lat="46.0302720" lon="10.3735110">
	<ele>998.20</ele>
	<time>2024-07-24T10:51:46.000Z</time>
</trkpt>
<trkpt lat="46.0302730" lon="10.3735280">
	<ele>998.00</ele>
	<time>2024-07-24T10:51:47.000Z</time>
</trkpt>
<trkpt lat="46.0302730" lon="10.3735400">
	<ele>997.80</ele>
	<time>2024-07-24T10:51:48.000Z</time>
</trkpt>
<trkpt lat="46.0302680" lon="10.3735470">
	<ele>997.40</ele>
	<time>2024-07-24T10:51:49.000Z</time>
</trkpt>
<trkpt lat="46.0302610" lon="10.3735520">
	<ele>997.20</ele>
	<time>2024-07-24T10:51:50.000Z</time>
</trkpt>
<trkpt lat="46.0302530" lon="10.3735530">
	<ele>997.00</ele>
	<time>2024-07-24T10:51:51.000Z</time>
</trkpt>
<trkpt lat="46.0302490" lon="10.3735590">
	<ele>996.80</ele>
	<time>2024-07-24T10:51:52.000Z</time>
</trkpt>
<trkpt lat="46.0302440" lon="10.3735700">
	<ele>996.60</ele>
	<time>2024-07-24T10:51:53.000Z</time>
</trkpt>
<trkpt lat="46.0302360" lon="10.3735850">
	<ele>996.40</ele>
	<time>2024-07-24T10:51:54.000Z</time>
</trkpt>
<trkpt lat="46.0302280" lon="10.3735970">
	<ele>996.00</ele>
	<time>2024-07-24T10:51:55.000Z</time>
</trkpt>
<trkpt lat="46.0302200" lon="10.3736010">
	<ele>996.00</ele>
	<time>2024-07-24T10:51:56.000Z</time>
</trkpt>
<trkpt lat="46.0302110" lon="10.3736100">
	<ele>995.80</ele>
	<time>2024-07-24T10:51:57.000Z</time>
</trkpt>
<trkpt lat="46.0301970" lon="10.3736280">
	<ele>995.60</ele>
	<time>2024-07-24T10:51:58.000Z</time>
</trkpt>
<trkpt lat="46.0301840" lon="10.3736400">
	<ele>995.40</ele>
	<time>2024-07-24T10:51:59.000Z</time>
</trkpt>
<trkpt lat="46.0301710" lon="10.3736500">
	<ele>995.20</ele>
	<time>2024-07-24T10:52:00.000Z</time>
</trkpt>
<trkpt lat="46.0301600" lon="10.3736600">
	<ele>995.00</ele>
	<time>2024-07-24T10:52:01.000Z</time>
</trkpt>
<trkpt lat="46.0301520" lon="10.3736710">
	<ele>994.80</ele>
	<time>2024-07-24T10:52:02.000Z</time>
</trkpt>
<trkpt lat="46.0301450" lon="10.3736820">
	<ele>994.60</ele>
	<time>2024-07-24T10:52:03.000Z</time>
</trkpt>
<trkpt lat="46.0301360" lon="10.3736880">
	<ele>994.40</ele>
	<time>2024-07-24T10:52:04.000Z</time>
</trkpt>
<trkpt lat="46.0301290" lon="10.3736920">
	<ele>994.40</ele>
	<time>2024-07-24T10:52:05.000Z</time>
</trkpt>
<trkpt lat="46.0301200" lon="10.3736960">
	<ele>994.00</ele>
	<time>2024-07-24T10:52:06.000Z</time>
</trkpt>
<trkpt lat="46.0301090" lon="10.3737000">
	<ele>993.80</ele>
	<time>2024-07-24T10:52:07.000Z</time>
</trkpt>
<trkpt lat="46.0300970" lon="10.3737090">
	<ele>993.60</ele>
	<time>2024-07-24T10:52:08.000Z</time>
</trkpt>
<trkpt lat="46.0300860" lon="10.3737200">
	<ele>993.20</ele>
	<time>2024-07-24T10:52:09.000Z</time>
</trkpt>
<trkpt lat="46.0300760" lon="10.3737320">
	<ele>993.00</ele>
	<time>2024-07-24T10:52:10.000Z</time>
</trkpt>
<trkpt lat="46.0300660" lon="10.3737420">
	<ele>993.00</ele>
	<time>2024-07-24T10:52:11.000Z</time>
</trkpt>
<trkpt lat="46.0300540" lon="10.3737510">
	<ele>992.80</ele>
	<time>2024-07-24T10:52:12.000Z</time>
</trkpt>
<trkpt lat="46.0300430" lon="10.3737600">
	<ele>992.80</ele>
	<time>2024-07-24T10:52:13.000Z</time>
</trkpt>
<trkpt lat="46.0300320" lon="10.3737680">
	<ele>992.60</ele>
	<time>2024-07-24T10:52:14.000Z</time>
</trkpt>
<trkpt lat="46.0300200" lon="10.3737740">
	<ele>992.60</ele>
	<time>2024-07-24T10:52:15.000Z</time>
</trkpt>
<trkpt lat="46.0300060" lon="10.3737810">
	<ele>992.60</ele>
	<time>2024-07-24T10:52:16.000Z</time>
</trkpt>
<trkpt lat="46.0300000" lon="10.3738010">
	<ele>992.40</ele>
	<time>2024-07-24T10:52:17.000Z</time>
</trkpt>
<trkpt lat="46.0299930" lon="10.3738170">
	<ele>992.40</ele>
	<time>2024-07-24T10:52:18.000Z</time>
</trkpt>
<trkpt lat="46.0299870" lon="10.3738260">
	<ele>992.20</ele>
	<time>2024-07-24T10:52:19.000Z</time>
</trkpt>
<trkpt lat="46.0299810" lon="10.3738330">
	<ele>991.80</ele>
	<time>2024-07-24T10:52:20.000Z</time>
</trkpt>
<trkpt lat="46.0299690" lon="10.3738320">
	<ele>991.40</ele>
	<time>2024-07-24T10:52:21.000Z</time>
</trkpt>
<trkpt lat="46.0299580" lon="10.3738290">
	<ele>991.40</ele>
	<time>2024-07-24T10:52:22.000Z</time>
</trkpt>
<trkpt lat="46.0299480" lon="10.3738290">
	<ele>991.00</ele>
	<time>2024-07-24T10:52:23.000Z</time>
</trkpt>
<trkpt lat="46.0299400" lon="10.3738290">
	<ele>990.60</ele>
	<time>2024-07-24T10:52:24.000Z</time>
</trkpt>
<trkpt lat="46.0299260" lon="10.3738240">
	<ele>990.40</ele>
	<time>2024-07-24T10:52:25.000Z</time>
</trkpt>
<trkpt lat="46.0299170" lon="10.3738250">
	<ele>990.00</ele>
	<time>2024-07-24T10:52:26.000Z</time>
</trkpt>
<trkpt lat="46.0299070" lon="10.3738140">
	<ele>989.60</ele>
	<time>2024-07-24T10:52:27.000Z</time>
</trkpt>
<trkpt lat="46.0298990" lon="10.3738190">
	<ele>989.40</ele>
	<time>2024-07-24T10:52:28.000Z</time>
</trkpt>
<trkpt lat="46.0298950" lon="10.3738280">
	<ele>989.00</ele>
	<time>2024-07-24T10:52:29.000Z</time>
</trkpt>
<trkpt lat="46.0298890" lon="10.3738350">
	<ele>988.80</ele>
	<time>2024-07-24T10:52:30.000Z</time>
</trkpt>
<trkpt lat="46.0298780" lon="10.3738470">
	<ele>988.60</ele>
	<time>2024-07-24T10:52:31.000Z</time>
</trkpt>
<trkpt lat="46.0298670" lon="10.3738490">
	<ele>988.20</ele>
	<time>2024-07-24T10:52:32.000Z</time>
</trkpt>
<trkpt lat="46.0298580" lon="10.3738550">
	<ele>988.00</ele>
	<time>2024-07-24T10:52:33.000Z</time>
</trkpt>
<trkpt lat="46.0298510" lon="10.3738580">
	<ele>987.80</ele>
	<time>2024-07-24T10:52:34.000Z</time>
</trkpt>
<trkpt lat="46.0298420" lon="10.3738550">
	<ele>987.60</ele>
	<time>2024-07-24T10:52:35.000Z</time>
</trkpt>
<trkpt lat="46.0298400" lon="10.3738560">
	<ele>987.20</ele>
	<time>2024-07-24T10:52:36.000Z</time>
</trkpt>
<trkpt lat="46.0298270" lon="10.3738400">
	<ele>987.00</ele>
	<time>2024-07-24T10:52:37.000Z</time>
</trkpt>
<trkpt lat="46.0298220" lon="10.3738330">
	<ele>986.80</ele>
	<time>2024-07-24T10:52:38.000Z</time>
</trkpt>
<trkpt lat="46.0298170" lon="10.3738300">
	<ele>986.20</ele>
	<time>2024-07-24T10:52:39.000Z</time>
</trkpt>
<trkpt lat="46.0298150" lon="10.3738310">
	<ele>985.80</ele>
	<time>2024-07-24T10:52:40.000Z</time>
</trkpt>
<trkpt lat="46.0298100" lon="10.3738260">
	<ele>985.60</ele>
	<time>2024-07-24T10:52:41.000Z</time>
</trkpt>
<trkpt lat="46.0298060" lon="10.3738230">
	<ele>985.60</ele>
	<time>2024-07-24T10:52:42.000Z</time>
</trkpt>
<trkpt lat="46.0298040" lon="10.3738200">
	<ele>985.60</ele>
	<time>2024-07-24T10:52:43.000Z</time>
</trkpt>
<trkpt lat="46.0297890" lon="10.3737940">
	<ele>985.40</ele>
	<time>2024-07-24T10:52:44.000Z</time>
</trkpt>
<trkpt lat="46.0297890" lon="10.3737880">
	<ele>985.40</ele>
	<time>2024-07-24T10:52:45.000Z</time>
</trkpt>
<trkpt lat="46.0297900" lon="10.3737850">
	<ele>985.40</ele>
	<time>2024-07-24T10:52:46.000Z</time>
</trkpt>
<trkpt lat="46.0297920" lon="10.3737840">
	<ele>985.40</ele>
	<time>2024-07-24T10:52:47.000Z</time>
</trkpt>
<trkpt lat="46.0297920" lon="10.3737800">
	<ele>985.40</ele>
	<time>2024-07-24T10:52:48.000Z</time>
</trkpt>
<trkpt lat="46.0297900" lon="10.3737780">
	<ele>985.40</ele>
	<time>2024-07-24T10:52:49.000Z</time>
</trkpt>
<trkpt lat="46.0297900" lon="10.3737780">
	<ele>985.40</ele>
	<time>2024-07-24T10:52:50.000Z</time>
</trkpt>
<trkpt lat="46.0297910" lon="10.3737810">
	<ele>985.40</ele>
	<time>2024-07-24T10:52:51.000Z</time>
</trkpt>
<trkpt lat="46.0297900" lon="10.3737780">
	<ele>985.40</ele>
	<time>2024-07-24T10:52:52.000Z</time>
</trkpt>
<trkpt lat="46.0297900" lon="10.3737770">
	<ele>985.40</ele>
	<time>2024-07-24T10:52:53.000Z</time>
</trkpt>
<trkpt lat="46.0297910" lon="10.3737760">
	<ele>985.40</ele>
	<time>2024-07-24T10:52:54.000Z</time>
</trkpt>
<trkpt lat="46.0297900" lon="10.3737780">
	<ele>985.40</ele>
	<time>2024-07-24T10:52:55.000Z</time>
</trkpt>
<trkpt lat="46.0297910" lon="10.3737780">
	<ele>985.20</ele>
	<time>2024-07-24T10:52:56.000Z</time>
</trkpt>
<trkpt lat="46.0297900" lon="10.3737750">
	<ele>985.20</ele>
	<time>2024-07-24T10:52:57.000Z</time>
</trkpt>
<trkpt lat="46.0297930" lon="10.3737720">
	<ele>985.20</ele>
	<time>2024-07-24T10:52:58.000Z</time>
</trkpt>
<trkpt lat="46.0297950" lon="10.3737710">
	<ele>985.20</ele>
	<time>2024-07-24T10:52:59.000Z</time>
</trkpt>
<trkpt lat="46.0297970" lon="10.3737690">
	<ele>985.00</ele>
	<time>2024-07-24T10:53:00.000Z</time>
</trkpt>
<trkpt lat="46.0298000" lon="10.3737680">
	<ele>985.00</ele>
	<time>2024-07-24T10:53:01.000Z</time>
</trkpt>
<trkpt lat="46.0298000" lon="10.3737700">
	<ele>985.00</ele>
	<time>2024-07-24T10:53:02.000Z</time>
</trkpt>
<trkpt lat="46.0298030" lon="10.3737700">
	<ele>985.00</ele>
	<time>2024-07-24T10:53:03.000Z</time>
</trkpt>
<trkpt lat="46.0298030" lon="10.3737720">
	<ele>985.00</ele>
	<time>2024-07-24T10:53:04.000Z</time>
</trkpt>
<trkpt lat="46.0298040" lon="10.3737710">
	<ele>985.00</ele>
	<time>2024-07-24T10:53:05.000Z</time>
</trkpt>
<trkpt lat="46.0298050" lon="10.3737690">
	<ele>985.00</ele>
	<time>2024-07-24T10:53:06.000Z</time>
</trkpt>
<trkpt lat="46.0298070" lon="10.3737670">
	<ele>985.00</ele>
	<time>2024-07-24T10:53:07.000Z</time>
</trkpt>
<trkpt lat="46.0298060" lon="10.3737660">
	<ele>984.80</ele>
	<time>2024-07-24T10:53:08.000Z</time>
</trkpt>
<trkpt lat="46.0298050" lon="10.3737640">
	<ele>984.80</ele>
	<time>2024-07-24T10:53:09.000Z</time>
</trkpt>
<trkpt lat="46.0298050" lon="10.3737640">
	<ele>984.80</ele>
	<time>2024-07-24T10:53:10.000Z</time>
</trkpt>
<trkpt lat="46.0298050" lon="10.3737640">
	<ele>984.80</ele>
	<time>2024-07-24T10:53:11.000Z</time>
</trkpt>
<trkpt lat="46.0298050" lon="10.3737640">
	<ele>984.80</ele>
	<time>2024-07-24T10:53:12.000Z</time>
</trkpt>
<trkpt lat="46.0298050" lon="10.3737640">
	<ele>984.60</ele>
	<time>2024-07-24T10:53:13.000Z</time>
</trkpt>
<trkpt lat="46.0298050" lon="10.3737640">
	<ele>984.60</ele>
	<time>2024-07-24T10:53:14.000Z</time>
</trkpt>
<trkpt lat="46.0298050" lon="10.3737640">
	<ele>984.60</ele>
	<time>2024-07-24T10:53:15.000Z</time>
</trkpt>
<trkpt lat="46.0298050" lon="10.3737640">
	<ele>984.60</ele>
	<time>2024-07-24T10:53:16.000Z</time>
</trkpt>
<trkpt lat="46.0298050" lon="10.3737640">
	<ele>984.60</ele>
	<time>2024-07-24T10:53:17.000Z</time>
</trkpt>
<trkpt lat="46.0298050" lon="10.3737640">
	<ele>984.60</ele>
	<time>2024-07-24T10:53:18.000Z</time>
</trkpt>
<trkpt lat="46.0298040" lon="10.3737580">
	<ele>984.40</ele>
	<time>2024-07-24T10:53:19.000Z</time>
</trkpt>
<trkpt lat="46.0298060" lon="10.3737420">
	<ele>984.40</ele>
	<time>2024-07-24T10:53:20.000Z</time>
</trkpt>
<trkpt lat="46.0298070" lon="10.3737220">
	<ele>984.20</ele>
	<time>2024-07-24T10:53:21.000Z</time>
</trkpt>
<trkpt lat="46.0298100" lon="10.3737000">
	<ele>984.20</ele>
	<time>2024-07-24T10:53:22.000Z</time>
</trkpt>
<trkpt lat="46.0298130" lon="10.3736800">
	<ele>984.00</ele>
	<time>2024-07-24T10:53:23.000Z</time>
</trkpt>
<trkpt lat="46.0298180" lon="10.3736590">
	<ele>983.80</ele>
	<time>2024-07-24T10:53:24.000Z</time>
</trkpt>
<trkpt lat="46.0298200" lon="10.3736390">
	<ele>983.60</ele>
	<time>2024-07-24T10:53:25.000Z</time>
</trkpt>
<trkpt lat="46.0298230" lon="10.3736230">
	<ele>983.60</ele>
	<time>2024-07-24T10:53:26.000Z</time>
</trkpt>
<trkpt lat="46.0298270" lon="10.3736080">
	<ele>983.40</ele>
	<time>2024-07-24T10:53:27.000Z</time>
</trkpt>
<trkpt lat="46.0298320" lon="10.3735950">
	<ele>983.20</ele>
	<time>2024-07-24T10:53:28.000Z</time>
</trkpt>
<trkpt lat="46.0298380" lon="10.3735920">
	<ele>982.80</ele>
	<time>2024-07-24T10:53:29.000Z</time>
</trkpt>
<trkpt lat="46.0298430" lon="10.3735940">
	<ele>982.60</ele>
	<time>2024-07-24T10:53:30.000Z</time>
</trkpt>
<trkpt lat="46.0298450" lon="10.3735920">
	<ele>982.60</ele>
	<time>2024-07-24T10:53:31.000Z</time>
</trkpt>
<trkpt lat="46.0298470" lon="10.3735890">
	<ele>982.40</ele>
	<time>2024-07-24T10:53:32.000Z</time>
</trkpt>
<trkpt lat="46.0298530" lon="10.3735770">
	<ele>982.00</ele>
	<time>2024-07-24T10:53:33.000Z</time>
</trkpt>
<trkpt lat="46.0298600" lon="10.3735650">
	<ele>981.80</ele>
	<time>2024-07-24T10:53:34.000Z</time>
</trkpt>
<trkpt lat="46.0298720" lon="10.3735530">
	<ele>981.60</ele>
	<time>2024-07-24T10:53:35.000Z</time>
</trkpt>
<trkpt lat="46.0298790" lon="10.3735390">
	<ele>981.20</ele>
	<time>2024-07-24T10:53:36.000Z</time>
</trkpt>
<trkpt lat="46.0298850" lon="10.3735290">
	<ele>981.00</ele>
	<time>2024-07-24T10:53:37.000Z</time>
</trkpt>
<trkpt lat="46.0298910" lon="10.3735220">
	<ele>980.80</ele>
	<time>2024-07-24T10:53:38.000Z</time>
</trkpt>
<trkpt lat="46.0299000" lon="10.3735200">
	<ele>980.80</ele>
	<time>2024-07-24T10:53:39.000Z</time>
</trkpt>
<trkpt lat="46.0299060" lon="10.3735110">
	<ele>980.80</ele>
	<time>2024-07-24T10:53:40.000Z</time>
</trkpt>
<trkpt lat="46.0299160" lon="10.3735080">
	<ele>980.80</ele>
	<time>2024-07-24T10:53:41.000Z</time>
</trkpt>
<trkpt lat="46.0299220" lon="10.3735000">
	<ele>980.60</ele>
	<time>2024-07-24T10:53:42.000Z</time>
</trkpt>
<trkpt lat="46.0299280" lon="10.3734850">
	<ele>980.60</ele>
	<time>2024-07-24T10:53:43.000Z</time>
</trkpt>
<trkpt lat="46.0299370" lon="10.3734840">
	<ele>980.40</ele>
	<time>2024-07-24T10:53:44.000Z</time>
</trkpt>
<trkpt lat="46.0299380" lon="10.3734800">
	<ele>980.40</ele>
	<time>2024-07-24T10:53:45.000Z</time>
</trkpt>
<trkpt lat="46.0299370" lon="10.3734780">
	<ele>980.40</ele>
	<time>2024-07-24T10:53:46.000Z</time>
</trkpt>
<trkpt lat="46.0299380" lon="10.3734780">
	<ele>980.40</ele>
	<time>2024-07-24T10:53:47.000Z</time>
</trkpt>
<trkpt lat="46.0299420" lon="10.3734850">
	<ele>980.40</ele>
	<time>2024-07-24T10:53:48.000Z</time>
</trkpt>
<trkpt lat="46.0299490" lon="10.3734840">
	<ele>980.20</ele>
	<time>2024-07-24T10:53:49.000Z</time>
</trkpt>
<trkpt lat="46.0299530" lon="10.3734640">
	<ele>980.20</ele>
	<time>2024-07-24T10:53:50.000Z</time>
</trkpt>
<trkpt lat="46.0299560" lon="10.3734460">
	<ele>980.00</ele>
	<time>2024-07-24T10:53:51.000Z</time>
</trkpt>
<trkpt lat="46.0299590" lon="10.3734340">
	<ele>980.00</ele>
	<time>2024-07-24T10:53:52.000Z</time>
</trkpt>
<trkpt lat="46.0299640" lon="10.3734090">
	<ele>979.80</ele>
	<time>2024-07-24T10:53:53.000Z</time>
</trkpt>
<trkpt lat="46.0299740" lon="10.3733910">
	<ele>979.60</ele>
	<time>2024-07-24T10:53:54.000Z</time>
</trkpt>
<trkpt lat="46.0299820" lon="10.3733750">
	<ele>979.40</ele>
	<time>2024-07-24T10:53:55.000Z</time>
</trkpt>
<trkpt lat="46.0299930" lon="10.3733730">
	<ele>979.40</ele>
	<time>2024-07-24T10:53:56.000Z</time>
</trkpt>
<trkpt lat="46.0300010" lon="10.3733560">
	<ele>979.40</ele>
	<time>2024-07-24T10:53:57.000Z</time>
</trkpt>
<trkpt lat="46.0300120" lon="10.3733390">
	<ele>979.20</ele>
	<time>2024-07-24T10:53:58.000Z</time>
</trkpt>
<trkpt lat="46.0300190" lon="10.3733190">
	<ele>979.00</ele>
	<time>2024-07-24T10:53:59.000Z</time>
</trkpt>
<trkpt lat="46.0300290" lon="10.3733000">
	<ele>978.80</ele>
	<time>2024-07-24T10:54:00.000Z</time>
</trkpt>
<trkpt lat="46.0300350" lon="10.3732850">
	<ele>978.60</ele>
	<time>2024-07-24T10:54:01.000Z</time>
</trkpt>
<trkpt lat="46.0300230" lon="10.3732580">
	<ele>978.60</ele>
	<time>2024-07-24T10:54:02.000Z</time>
</trkpt>
<trkpt lat="46.0300270" lon="10.3732330">
	<ele>978.40</ele>
	<time>2024-07-24T10:54:03.000Z</time>
</trkpt>
<trkpt lat="46.0300300" lon="10.3732120">
	<ele>978.20</ele>
	<time>2024-07-24T10:54:04.000Z</time>
</trkpt>
<trkpt lat="46.0300330" lon="10.3731960">
	<ele>978.00</ele>
	<time>2024-07-24T10:54:05.000Z</time>
</trkpt>
<trkpt lat="46.0300360" lon="10.3731830">
	<ele>978.00</ele>
	<time>2024-07-24T10:54:06.000Z</time>
</trkpt>
<trkpt lat="46.0300420" lon="10.3731670">
	<ele>977.80</ele>
	<time>2024-07-24T10:54:07.000Z</time>
</trkpt>
<trkpt lat="46.0300430" lon="10.3731490">
	<ele>977.80</ele>
	<time>2024-07-24T10:54:08.000Z</time>
</trkpt>
<trkpt lat="46.0300440" lon="10.3731310">
	<ele>977.60</ele>
	<time>2024-07-24T10:54:09.000Z</time>
</trkpt>
<trkpt lat="46.0300490" lon="10.3731180">
	<ele>977.60</ele>
	<time>2024-07-24T10:54:10.000Z</time>
</trkpt>
<trkpt lat="46.0300490" lon="10.3730960">
	<ele>977.40</ele>
	<time>2024-07-24T10:54:11.000Z</time>
</trkpt>
<trkpt lat="46.0300510" lon="10.3730770">
	<ele>977.20</ele>
	<time>2024-07-24T10:54:12.000Z</time>
</trkpt>
<trkpt lat="46.0300540" lon="10.3730640">
	<ele>977.00</ele>
	<time>2024-07-24T10:54:13.000Z</time>
</trkpt>
<trkpt lat="46.0300510" lon="10.3730450">
	<ele>977.00</ele>
	<time>2024-07-24T10:54:14.000Z</time>
</trkpt>
<trkpt lat="46.0300510" lon="10.3730300">
	<ele>976.80</ele>
	<time>2024-07-24T10:54:15.000Z</time>
</trkpt>
<trkpt lat="46.0300570" lon="10.3730150">
	<ele>976.80</ele>
	<time>2024-07-24T10:54:16.000Z</time>
</trkpt>
<trkpt lat="46.0300580" lon="10.3730050">
	<ele>976.80</ele>
	<time>2024-07-24T10:54:17.000Z</time>
</trkpt>
<trkpt lat="46.0300670" lon="10.3729860">
	<ele>976.60</ele>
	<time>2024-07-24T10:54:18.000Z</time>
</trkpt>
<trkpt lat="46.0300740" lon="10.3729640">
	<ele>976.60</ele>
	<time>2024-07-24T10:54:19.000Z</time>
</trkpt>
<trkpt lat="46.0300760" lon="10.3729450">
	<ele>976.60</ele>
	<time>2024-07-24T10:54:20.000Z</time>
</trkpt>
<trkpt lat="46.0300820" lon="10.3729270">
	<ele>976.60</ele>
	<time>2024-07-24T10:54:21.000Z</time>
</trkpt>
<trkpt lat="46.0300820" lon="10.3729070">
	<ele>976.40</ele>
	<time>2024-07-24T10:54:22.000Z</time>
</trkpt>
<trkpt lat="46.0300840" lon="10.3728940">
	<ele>976.40</ele>
	<time>2024-07-24T10:54:23.000Z</time>
</trkpt>
<trkpt lat="46.0300830" lon="10.3728850">
	<ele>976.20</ele>
	<time>2024-07-24T10:54:24.000Z</time>
</trkpt>
<trkpt lat="46.0300790" lon="10.3728680">
	<ele>976.00</ele>
	<time>2024-07-24T10:54:25.000Z</time>
</trkpt>
<trkpt lat="46.0300710" lon="10.3728520">
	<ele>975.80</ele>
	<time>2024-07-24T10:54:26.000Z</time>
</trkpt>
<trkpt lat="46.0300720" lon="10.3728350">
	<ele>975.60</ele>
	<time>2024-07-24T10:54:27.000Z</time>
</trkpt>
<trkpt lat="46.0300750" lon="10.3728260">
	<ele>975.40</ele>
	<time>2024-07-24T10:54:28.000Z</time>
</trkpt>
<trkpt lat="46.0300800" lon="10.3728150">
	<ele>975.20</ele>
	<time>2024-07-24T10:54:29.000Z</time>
</trkpt>
<trkpt lat="46.0300840" lon="10.3728040">
	<ele>974.80</ele>
	<time>2024-07-24T10:54:30.000Z</time>
</trkpt>
<trkpt lat="46.0300850" lon="10.3727850">
	<ele>974.60</ele>
	<time>2024-07-24T10:54:31.000Z</time>
</trkpt>
<trkpt lat="46.0300870" lon="10.3727660">
	<ele>974.40</ele>
	<time>2024-07-24T10:54:32.000Z</time>
</trkpt>
<trkpt lat="46.0300920" lon="10.3727460">
	<ele>974.20</ele>
	<time>2024-07-24T10:54:33.000Z</time>
</trkpt>
<trkpt lat="46.0300830" lon="10.3727280">
	<ele>974.00</ele>
	<time>2024-07-24T10:54:34.000Z</time>
</trkpt>
<trkpt lat="46.0300720" lon="10.3727110">
	<ele>973.80</ele>
	<time>2024-07-24T10:54:35.000Z</time>
</trkpt>
<trkpt lat="46.0300730" lon="10.3726970">
	<ele>973.40</ele>
	<time>2024-07-24T10:54:36.000Z</time>
</trkpt>
<trkpt lat="46.0300740" lon="10.3726730">
	<ele>973.40</ele>
	<time>2024-07-24T10:54:37.000Z</time>
</trkpt>
<trkpt lat="46.0300830" lon="10.3726590">
	<ele>973.20</ele>
	<time>2024-07-24T10:54:38.000Z</time>
</trkpt>
<trkpt lat="46.0300790" lon="10.3726380">
	<ele>973.00</ele>
	<time>2024-07-24T10:54:39.000Z</time>
</trkpt>
<trkpt lat="46.0300780" lon="10.3726190">
	<ele>972.80</ele>
	<time>2024-07-24T10:54:40.000Z</time>
</trkpt>
<trkpt lat="46.0300770" lon="10.3726060">
	<ele>972.80</ele>
	<time>2024-07-24T10:54:41.000Z</time>
</trkpt>
<trkpt lat="46.0300780" lon="10.3726030">
	<ele>972.60</ele>
	<time>2024-07-24T10:54:42.000Z</time>
</trkpt>
<trkpt lat="46.0300790" lon="10.3725950">
	<ele>972.40</ele>
	<time>2024-07-24T10:54:43.000Z</time>
</trkpt>
<trkpt lat="46.0300760" lon="10.3726140">
	<ele>971.80</ele>
	<time>2024-07-24T10:54:44.000Z</time>
</trkpt>
<trkpt lat="46.0300770" lon="10.3726060">
	<ele>971.60</ele>
	<time>2024-07-24T10:54:45.000Z</time>
</trkpt>
<trkpt lat="46.0300760" lon="10.3726030">
	<ele>971.20</ele>
	<time>2024-07-24T10:54:46.000Z</time>
</trkpt>
<trkpt lat="46.0300750" lon="10.3725950">
	<ele>971.20</ele>
	<time>2024-07-24T10:54:47.000Z</time>
</trkpt>
<trkpt lat="46.0300790" lon="10.3725930">
	<ele>971.00</ele>
	<time>2024-07-24T10:54:48.000Z</time>
</trkpt>
<trkpt lat="46.0300780" lon="10.3725930">
	<ele>971.00</ele>
	<time>2024-07-24T10:54:49.000Z</time>
</trkpt>
<trkpt lat="46.0300780" lon="10.3725910">
	<ele>971.00</ele>
	<time>2024-07-24T10:54:50.000Z</time>
</trkpt>
<trkpt lat="46.0300770" lon="10.3725850">
	<ele>971.00</ele>
	<time>2024-07-24T10:54:51.000Z</time>
</trkpt>
<trkpt lat="46.0300780" lon="10.3725790">
	<ele>971.00</ele>
	<time>2024-07-24T10:54:52.000Z</time>
</trkpt>
<trkpt lat="46.0300770" lon="10.3725820">
	<ele>971.00</ele>
	<time>2024-07-24T10:54:53.000Z</time>
</trkpt>
<trkpt lat="46.0300730" lon="10.3725740">
	<ele>970.80</ele>
	<time>2024-07-24T10:54:54.000Z</time>
</trkpt>
<trkpt lat="46.0300640" lon="10.3725630">
	<ele>970.80</ele>
	<time>2024-07-24T10:54:55.000Z</time>
</trkpt>
<trkpt lat="46.0300600" lon="10.3725420">
	<ele>970.60</ele>
	<time>2024-07-24T10:54:56.000Z</time>
</trkpt>
<trkpt lat="46.0300480" lon="10.3725180">
	<ele>970.60</ele>
	<time>2024-07-24T10:54:57.000Z</time>
</trkpt>
<trkpt lat="46.0300490" lon="10.3725130">
	<ele>970.20</ele>
	<time>2024-07-24T10:54:58.000Z</time>
</trkpt>
<trkpt lat="46.0300480" lon="10.3724980">
	<ele>970.20</ele>
	<time>2024-07-24T10:54:59.000Z</time>
</trkpt>
<trkpt lat="46.0300380" lon="10.3724900">
	<ele>969.80</ele>
	<time>2024-07-24T10:55:00.000Z</time>
</trkpt>
<trkpt lat="46.0300350" lon="10.3724760">
	<ele>969.80</ele>
	<time>2024-07-24T10:55:01.000Z</time>
</trkpt>
<trkpt lat="46.0300470" lon="10.3724530">
	<ele>969.60</ele>
	<time>2024-07-24T10:55:02.000Z</time>
</trkpt>
<trkpt lat="46.0300340" lon="10.3724310">
	<ele>969.40</ele>
	<time>2024-07-24T10:55:03.000Z</time>
</trkpt>
<trkpt lat="46.0300240" lon="10.3724210">
	<ele>969.00</ele>
	<time>2024-07-24T10:55:04.000Z</time>
</trkpt>
<trkpt lat="46.0300140" lon="10.3724030">
	<ele>968.60</ele>
	<time>2024-07-24T10:55:05.000Z</time>
</trkpt>
<trkpt lat="46.0300060" lon="10.3723820">
	<ele>968.40</ele>
	<time>2024-07-24T10:55:06.000Z</time>
</trkpt>
<trkpt lat="46.0300010" lon="10.3723680">
	<ele>968.00</ele>
	<time>2024-07-24T10:55:07.000Z</time>
</trkpt>
<trkpt lat="46.0300020" lon="10.3723570">
	<ele>967.80</ele>
	<time>2024-07-24T10:55:08.000Z</time>
</trkpt>
<trkpt lat="46.0300030" lon="10.3723460">
	<ele>967.60</ele>
	<time>2024-07-24T10:55:09.000Z</time>
</trkpt>
<trkpt lat="46.0300000" lon="10.3723180">
	<ele>967.40</ele>
	<time>2024-07-24T10:55:10.000Z</time>
</trkpt>
<trkpt lat="46.0299990" lon="10.3722960">
	<ele>967.00</ele>
	<time>2024-07-24T10:55:11.000Z</time>
</trkpt>
<trkpt lat="46.0300000" lon="10.3722810">
	<ele>966.60</ele>
	<time>2024-07-24T10:55:12.000Z</time>
</trkpt>
<trkpt lat="46.0299880" lon="10.3722590">
	<ele>966.60</ele>
	<time>2024-07-24T10:55:13.000Z</time>
</trkpt>
<trkpt lat="46.0299700" lon="10.3722480">
	<ele>966.20</ele>
	<time>2024-07-24T10:55:14.000Z</time>
</trkpt>
<trkpt lat="46.0299600" lon="10.3722370">
	<ele>966.00</ele>
	<time>2024-07-24T10:55:15.000Z</time>
</trkpt>
<trkpt lat="46.0299540" lon="10.3722220">
	<ele>965.80</ele>
	<time>2024-07-24T10:55:16.000Z</time>
</trkpt>
<trkpt lat="46.0299470" lon="10.3722120">
	<ele>965.80</ele>
	<time>2024-07-24T10:55:17.000Z</time>
</trkpt>
<trkpt lat="46.0299470" lon="10.3721950">
	<ele>965.40</ele>
	<time>2024-07-24T10:55:18.000Z</time>
</trkpt>
<trkpt lat="46.0299530" lon="10.3721710">
	<ele>965.20</ele>
	<time>2024-07-24T10:55:19.000Z</time>
</trkpt>
<trkpt lat="46.0299560" lon="10.3721460">
	<ele>965.00</ele>
	<time>2024-07-24T10:55:20.000Z</time>
</trkpt>
<trkpt lat="46.0299610" lon="10.3721220">
	<ele>964.80</ele>
	<time>2024-07-24T10:55:21.000Z</time>
</trkpt>
<trkpt lat="46.0299670" lon="10.3720970">
	<ele>964.60</ele>
	<time>2024-07-24T10:55:22.000Z</time>
</trkpt>
<trkpt lat="46.0299720" lon="10.3720710">
	<ele>964.40</ele>
	<time>2024-07-24T10:55:23.000Z</time>
</trkpt>
<trkpt lat="46.0299760" lon="10.3720500">
	<ele>964.20</ele>
	<time>2024-07-24T10:55:24.000Z</time>
</trkpt>
<trkpt lat="46.0299790" lon="10.3720270">
	<ele>964.00</ele>
	<time>2024-07-24T10:55:25.000Z</time>
</trkpt>
<trkpt lat="46.0299870" lon="10.3720050">
	<ele>963.60</ele>
	<time>2024-07-24T10:55:26.000Z</time>
</trkpt>
<trkpt lat="46.0299850" lon="10.3719900">
	<ele>963.40</ele>
	<time>2024-07-24T10:55:27.000Z</time>
</trkpt>
<trkpt lat="46.0299590" lon="10.3719690">
	<ele>963.00</ele>
	<time>2024-07-24T10:55:28.000Z</time>
</trkpt>
<trkpt lat="46.0299490" lon="10.3719560">
	<ele>962.80</ele>
	<time>2024-07-24T10:55:29.000Z</time>
</trkpt>
<trkpt lat="46.0299330" lon="10.3719430">
	<ele>962.80</ele>
	<time>2024-07-24T10:55:30.000Z</time>
</trkpt>
<trkpt lat="46.0299290" lon="10.3719360">
	<ele>962.40</ele>
	<time>2024-07-24T10:55:31.000Z</time>
</trkpt>
<trkpt lat="46.0299270" lon="10.3719230">
	<ele>962.20</ele>
	<time>2024-07-24T10:55:32.000Z</time>
</trkpt>
<trkpt lat="46.0299280" lon="10.3719250">
	<ele>962.00</ele>
	<time>2024-07-24T10:55:33.000Z</time>
</trkpt>
<trkpt lat="46.0299310" lon="10.3719370">
	<ele>961.80</ele>
	<time>2024-07-24T10:55:34.000Z</time>
</trkpt>
<trkpt lat="46.0299320" lon="10.3719310">
	<ele>961.40</ele>
	<time>2024-07-24T10:55:35.000Z</time>
</trkpt>
<trkpt lat="46.0299380" lon="10.3719430">
	<ele>961.40</ele>
	<time>2024-07-24T10:55:36.000Z</time>
</trkpt>
<trkpt lat="46.0299350" lon="10.3719480">
	<ele>961.20</ele>
	<time>2024-07-24T10:55:37.000Z</time>
</trkpt>
<trkpt lat="46.0299450" lon="10.3719480">
	<ele>960.80</ele>
	<time>2024-07-24T10:55:38.000Z</time>
</trkpt>
<trkpt lat="46.0299500" lon="10.3719390">
	<ele>960.60</ele>
	<time>2024-07-24T10:55:39.000Z</time>
</trkpt>
<trkpt lat="46.0299440" lon="10.3719350">
	<ele>960.60</ele>
	<time>2024-07-24T10:55:40.000Z</time>
</trkpt>
<trkpt lat="46.0299410" lon="10.3719310">
	<ele>960.60</ele>
	<time>2024-07-24T10:55:41.000Z</time>
</trkpt>
<trkpt lat="46.0299360" lon="10.3719290">
	<ele>960.60</ele>
	<time>2024-07-24T10:55:42.000Z</time>
</trkpt>
<trkpt lat="46.0299320" lon="10.3719280">
	<ele>960.60</ele>
	<time>2024-07-24T10:55:43.000Z</time>
</trkpt>
<trkpt lat="46.0299300" lon="10.3719280">
	<ele>960.60</ele>
	<time>2024-07-24T10:55:44.000Z</time>
</trkpt>
<trkpt lat="46.0299260" lon="10.3719270">
	<ele>960.60</ele>
	<time>2024-07-24T10:55:45.000Z</time>
</trkpt>
<trkpt lat="46.0299510" lon="10.3719230">
	<ele>960.60</ele>
	<time>2024-07-24T10:55:46.000Z</time>
</trkpt>
<trkpt lat="46.0299290" lon="10.3719280">
	<ele>960.40</ele>
	<time>2024-07-24T10:55:47.000Z</time>
</trkpt>
<trkpt lat="46.0299200" lon="10.3719430">
	<ele>960.40</ele>
	<time>2024-07-24T10:55:48.000Z</time>
</trkpt>
<trkpt lat="46.0299110" lon="10.3719530">
	<ele>960.40</ele>
	<time>2024-07-24T10:55:49.000Z</time>
</trkpt>
<trkpt lat="46.0299020" lon="10.3719610">
	<ele>960.20</ele>
	<time>2024-07-24T10:55:50.000Z</time>
</trkpt>
<trkpt lat="46.0298930" lon="10.3719690">
	<ele>960.20</ele>
	<time>2024-07-24T10:55:51.000Z</time>
</trkpt>
<trkpt lat="46.0298850" lon="10.3719650">
	<ele>960.00</ele>
	<time>2024-07-24T10:55:52.000Z</time>
</trkpt>
<trkpt lat="46.0298840" lon="10.3719530">
	<ele>960.00</ele>
	<time>2024-07-24T10:55:53.000Z</time>
</trkpt>
<trkpt lat="46.0298780" lon="10.3719430">
	<ele>959.80</ele>
	<time>2024-07-24T10:55:54.000Z</time>
</trkpt>
<trkpt lat="46.0298690" lon="10.3719260">
	<ele>959.80</ele>
	<time>2024-07-24T10:55:55.000Z</time>
</trkpt>
<trkpt lat="46.0298620" lon="10.3719300">
	<ele>959.80</ele>
	<time>2024-07-24T10:55:56.000Z</time>
</trkpt>
<trkpt lat="46.0298280" lon="10.3719470">
	<ele>959.60</ele>
	<time>2024-07-24T10:55:57.000Z</time>
</trkpt>
<trkpt lat="46.0298120" lon="10.3719540">
	<ele>959.40</ele>
	<time>2024-07-24T10:55:58.000Z</time>
</trkpt>
<trkpt lat="46.0297420" lon="10.3719680">
	<ele>959.40</ele>
	<time>2024-07-24T10:55:59.000Z</time>
</trkpt>
<trkpt lat="46.0296340" lon="10.3719900">
	<ele>959.00</ele>
	<time>2024-07-24T10:56:01.000Z</time>
</trkpt>
<trkpt lat="46.0294420" lon="10.3719780">
	<ele>958.60</ele>
	<time>2024-07-24T10:56:06.000Z</time>
</trkpt>
<trkpt lat="46.0295630" lon="10.3720080">
	<ele>958.60</ele>
	<time>2024-07-24T10:56:07.000Z</time>
</trkpt>
<trkpt lat="46.0295840" lon="10.3720180">
	<ele>958.60</ele>
	<time>2024-07-24T10:56:08.000Z</time>
</trkpt>
<trkpt lat="46.0295990" lon="10.3720410">
	<ele>958.20</ele>
	<time>2024-07-24T10:56:09.000Z</time>
</trkpt>
<trkpt lat="46.0296040" lon="10.3720710">
	<ele>958.20</ele>
	<time>2024-07-24T10:56:10.000Z</time>
</trkpt>
<trkpt lat="46.0295980" lon="10.3720980">
	<ele>958.00</ele>
	<time>2024-07-24T10:56:11.000Z</time>
</trkpt>
<trkpt lat="46.0295970" lon="10.3721200">
	<ele>957.80</ele>
	<time>2024-07-24T10:56:12.000Z</time>
</trkpt>
<trkpt lat="46.0295870" lon="10.3721360">
	<ele>957.40</ele>
	<time>2024-07-24T10:56:13.000Z</time>
</trkpt>
<trkpt lat="46.0295790" lon="10.3721590">
	<ele>957.20</ele>
	<time>2024-07-24T10:56:14.000Z</time>
</trkpt>
<trkpt lat="46.0295750" lon="10.3721780">
	<ele>957.00</ele>
	<time>2024-07-24T10:56:15.000Z</time>
</trkpt>
<trkpt lat="46.0295630" lon="10.3721800">
	<ele>956.60</ele>
	<time>2024-07-24T10:56:16.000Z</time>
</trkpt>
<trkpt lat="46.0295570" lon="10.3721860">
	<ele>956.40</ele>
	<time>2024-07-24T10:56:17.000Z</time>
</trkpt>
<trkpt lat="46.0295520" lon="10.3721940">
	<ele>956.40</ele>
	<time>2024-07-24T10:56:18.000Z</time>
</trkpt>
<trkpt lat="46.0295480" lon="10.3722110">
	<ele>956.20</ele>
	<time>2024-07-24T10:56:19.000Z</time>
</trkpt>
<trkpt lat="46.0295390" lon="10.3722250">
	<ele>956.20</ele>
	<time>2024-07-24T10:56:20.000Z</time>
</trkpt>
<trkpt lat="46.0295350" lon="10.3722260">
	<ele>956.00</ele>
	<time>2024-07-24T10:56:21.000Z</time>
</trkpt>
<trkpt lat="46.0295210" lon="10.3722380">
	<ele>955.80</ele>
	<time>2024-07-24T10:56:22.000Z</time>
</trkpt>
<trkpt lat="46.0295060" lon="10.3722440">
	<ele>955.40</ele>
	<time>2024-07-24T10:56:23.000Z</time>
</trkpt>
<trkpt lat="46.0294940" lon="10.3722600">
	<ele>955.20</ele>
	<time>2024-07-24T10:56:24.000Z</time>
</trkpt>
<trkpt lat="46.0294790" lon="10.3722710">
	<ele>955.00</ele>
	<time>2024-07-24T10:56:25.000Z</time>
</trkpt>
<trkpt lat="46.0294710" lon="10.3722840">
	<ele>955.00</ele>
	<time>2024-07-24T10:56:26.000Z</time>
</trkpt>
<trkpt lat="46.0294700" lon="10.3722830">
	<ele>955.00</ele>
	<time>2024-07-24T10:56:27.000Z</time>
</trkpt>
<trkpt lat="46.0294700" lon="10.3722830">
	<ele>955.00</ele>
	<time>2024-07-24T10:56:28.000Z</time>
</trkpt>
<trkpt lat="46.0294680" lon="10.3722730">
	<ele>955.00</ele>
	<time>2024-07-24T10:56:29.000Z</time>
</trkpt>
<trkpt lat="46.0294600" lon="10.3722680">
	<ele>955.00</ele>
	<time>2024-07-24T10:56:30.000Z</time>
</trkpt>
<trkpt lat="46.0294540" lon="10.3722650">
	<ele>955.00</ele>
	<time>2024-07-24T10:56:31.000Z</time>
</trkpt>
<trkpt lat="46.0294550" lon="10.3722660">
	<ele>955.00</ele>
	<time>2024-07-24T10:56:32.000Z</time>
</trkpt>
<trkpt lat="46.0294540" lon="10.3722620">
	<ele>955.00</ele>
	<time>2024-07-24T10:56:33.000Z</time>
</trkpt>
<trkpt lat="46.0294460" lon="10.3722540">
	<ele>954.80</ele>
	<time>2024-07-24T10:56:34.000Z</time>
</trkpt>
<trkpt lat="46.0294470" lon="10.3722610">
	<ele>954.80</ele>
	<time>2024-07-24T10:56:35.000Z</time>
</trkpt>
<trkpt lat="46.0294440" lon="10.3722660">
	<ele>954.80</ele>
	<time>2024-07-24T10:56:36.000Z</time>
</trkpt>
<trkpt lat="46.0294420" lon="10.3722710">
	<ele>954.80</ele>
	<time>2024-07-24T10:56:37.000Z</time>
</trkpt>
<trkpt lat="46.0294400" lon="10.3722710">
	<ele>954.60</ele>
	<time>2024-07-24T10:56:38.000Z</time>
</trkpt>
<trkpt lat="46.0294450" lon="10.3722810">
	<ele>954.60</ele>
	<time>2024-07-24T10:56:39.000Z</time>
</trkpt>
<trkpt lat="46.0294490" lon="10.3722900">
	<ele>954.60</ele>
	<time>2024-07-24T10:56:40.000Z</time>
</trkpt>
<trkpt lat="46.0294470" lon="10.3723000">
	<ele>954.60</ele>
	<time>2024-07-24T10:56:41.000Z</time>
</trkpt>
<trkpt lat="46.0294420" lon="10.3723180">
	<ele>954.60</ele>
	<time>2024-07-24T10:56:42.000Z</time>
</trkpt>
<trkpt lat="46.0294290" lon="10.3723230">
	<ele>954.40</ele>
	<time>2024-07-24T10:56:43.000Z</time>
</trkpt>
<trkpt lat="46.0294250" lon="10.3723400">
	<ele>954.40</ele>
	<time>2024-07-24T10:56:44.000Z</time>
</trkpt>
<trkpt lat="46.0294240" lon="10.3723560">
	<ele>954.40</ele>
	<time>2024-07-24T10:56:45.000Z</time>
</trkpt>
<trkpt lat="46.0294260" lon="10.3723620">
	<ele>954.40</ele>
	<time>2024-07-24T10:56:46.000Z</time>
</trkpt>
<trkpt lat="46.0294290" lon="10.3723650">
	<ele>954.60</ele>
	<time>2024-07-24T10:56:47.000Z</time>
</trkpt>
<trkpt lat="46.0294300" lon="10.3723670">
	<ele>954.80</ele>
	<time>2024-07-24T10:56:48.000Z</time>
</trkpt>
<trkpt lat="46.0294290" lon="10.3723640">
	<ele>954.80</ele>
	<time>2024-07-24T10:56:49.000Z</time>
</trkpt>
<trkpt lat="46.0294270" lon="10.3723650">
	<ele>955.00</ele>
	<time>2024-07-24T10:56:50.000Z</time>
</trkpt>
<trkpt lat="46.0294290" lon="10.3723700">
	<ele>955.00</ele>
	<time>2024-07-24T10:56:51.000Z</time>
</trkpt>
<trkpt lat="46.0294280" lon="10.3723780">
	<ele>955.00</ele>
	<time>2024-07-24T10:56:52.000Z</time>
</trkpt>
<trkpt lat="46.0294280" lon="10.3723800">
	<ele>954.80</ele>
	<time>2024-07-24T10:56:53.000Z</time>
</trkpt>
<trkpt lat="46.0294290" lon="10.3723810">
	<ele>954.80</ele>
	<time>2024-07-24T10:56:54.000Z</time>
</trkpt>
<trkpt lat="46.0294310" lon="10.3723820">
	<ele>954.80</ele>
	<time>2024-07-24T10:56:55.000Z</time>
</trkpt>
<trkpt lat="46.0294320" lon="10.3723850">
	<ele>954.80</ele>
	<time>2024-07-24T10:56:56.000Z</time>
</trkpt>
<trkpt lat="46.0294360" lon="10.3723850">
	<ele>954.80</ele>
	<time>2024-07-24T10:56:57.000Z</time>
</trkpt>
<trkpt lat="46.0294370" lon="10.3723840">
	<ele>955.00</ele>
	<time>2024-07-24T10:56:58.000Z</time>
</trkpt>
<trkpt lat="46.0294390" lon="10.3723870">
	<ele>955.00</ele>
	<time>2024-07-24T10:56:59.000Z</time>
</trkpt>
<trkpt lat="46.0294400" lon="10.3723880">
	<ele>955.00</ele>
	<time>2024-07-24T10:57:00.000Z</time>
</trkpt>
<trkpt lat="46.0294410" lon="10.3723880">
	<ele>955.00</ele>
	<time>2024-07-24T10:57:01.000Z</time>
</trkpt>
<trkpt lat="46.0294430" lon="10.3723900">
	<ele>955.00</ele>
	<time>2024-07-24T10:57:02.000Z</time>
</trkpt>
<trkpt lat="46.0294450" lon="10.3723960">
	<ele>955.00</ele>
	<time>2024-07-24T10:57:03.000Z</time>
</trkpt>
<trkpt lat="46.0294440" lon="10.3724070">
	<ele>955.00</ele>
	<time>2024-07-24T10:57:04.000Z</time>
</trkpt>
<trkpt lat="46.0294430" lon="10.3724190">
	<ele>954.80</ele>
	<time>2024-07-24T10:57:05.000Z</time>
</trkpt>
<trkpt lat="46.0294440" lon="10.3724290">
	<ele>954.80</ele>
	<time>2024-07-24T10:57:06.000Z</time>
</trkpt>
<trkpt lat="46.0294430" lon="10.3724410">
	<ele>954.80</ele>
	<time>2024-07-24T10:57:07.000Z</time>
</trkpt>
<trkpt lat="46.0294440" lon="10.3724540">
	<ele>954.80</ele>
	<time>2024-07-24T10:57:08.000Z</time>
</trkpt>
<trkpt lat="46.0294420" lon="10.3724680">
	<ele>954.80</ele>
	<time>2024-07-24T10:57:09.000Z</time>
</trkpt>
<trkpt lat="46.0294400" lon="10.3724810">
	<ele>954.80</ele>
	<time>2024-07-24T10:57:10.000Z</time>
</trkpt>
<trkpt lat="46.0294410" lon="10.3724960">
	<ele>954.80</ele>
	<time>2024-07-24T10:57:11.000Z</time>
</trkpt>
<trkpt lat="46.0294410" lon="10.3725140">
	<ele>954.80</ele>
	<time>2024-07-24T10:57:12.000Z</time>
</trkpt>
<trkpt lat="46.0294390" lon="10.3725360">
	<ele>954.80</ele>
	<time>2024-07-24T10:57:13.000Z</time>
</trkpt>
<trkpt lat="46.0294360" lon="10.3725550">
	<ele>954.80</ele>
	<time>2024-07-24T10:57:14.000Z</time>
</trkpt>
<trkpt lat="46.0294310" lon="10.3725650">
	<ele>954.80</ele>
	<time>2024-07-24T10:57:15.000Z</time>
</trkpt>
<trkpt lat="46.0294290" lon="10.3725820">
	<ele>954.80</ele>
	<time>2024-07-24T10:57:16.000Z</time>
</trkpt>
<trkpt lat="46.0294230" lon="10.3725990">
	<ele>954.80</ele>
	<time>2024-07-24T10:57:17.000Z</time>
</trkpt>
<trkpt lat="46.0294170" lon="10.3726180">
	<ele>954.60</ele>
	<time>2024-07-24T10:57:18.000Z</time>
</trkpt>
<trkpt lat="46.0294130" lon="10.3726400">
	<ele>954.40</ele>
	<time>2024-07-24T10:57:19.000Z</time>
</trkpt>
<trkpt lat="46.0294060" lon="10.3726580">
	<ele>954.20</ele>
	<time>2024-07-24T10:57:20.000Z</time>
</trkpt>
<trkpt lat="46.0293990" lon="10.3726760">
	<ele>954.20</ele>
	<time>2024-07-24T10:57:21.000Z</time>
</trkpt>
<trkpt lat="46.0293900" lon="10.3726930">
	<ele>954.20</ele>
	<time>2024-07-24T10:57:22.000Z</time>
</trkpt>
<trkpt lat="46.0293820" lon="10.3727090">
	<ele>954.20</ele>
	<time>2024-07-24T10:57:23.000Z</time>
</trkpt>
<trkpt lat="46.0293740" lon="10.3727320">
	<ele>954.20</ele>
	<time>2024-07-24T10:57:24.000Z</time>
</trkpt>
<trkpt lat="46.0293650" lon="10.3727570">
	<ele>954.20</ele>
	<time>2024-07-24T10:57:25.000Z</time>
</trkpt>
<trkpt lat="46.0293560" lon="10.3727770">
	<ele>954.00</ele>
	<time>2024-07-24T10:57:26.000Z</time>
</trkpt>
<trkpt lat="46.0293470" lon="10.3727950">
	<ele>954.00</ele>
	<time>2024-07-24T10:57:27.000Z</time>
</trkpt>
<trkpt lat="46.0293400" lon="10.3728150">
	<ele>954.00</ele>
	<time>2024-07-24T10:57:28.000Z</time>
</trkpt>
<trkpt lat="46.0293310" lon="10.3728310">
	<ele>953.80</ele>
	<time>2024-07-24T10:57:29.000Z</time>
</trkpt>
<trkpt lat="46.0293230" lon="10.3728480">
	<ele>953.80</ele>
	<time>2024-07-24T10:57:30.000Z</time>
</trkpt>
<trkpt lat="46.0293150" lon="10.3728640">
	<ele>953.60</ele>
	<time>2024-07-24T10:57:31.000Z</time>
</trkpt>
<trkpt lat="46.0293100" lon="10.3728850">
	<ele>953.40</ele>
	<time>2024-07-24T10:57:32.000Z</time>
</trkpt>
<trkpt lat="46.0293050" lon="10.3729040">
	<ele>953.40</ele>
	<time>2024-07-24T10:57:33.000Z</time>
</trkpt>
<trkpt lat="46.0292990" lon="10.3729210">
	<ele>953.20</ele>
	<time>2024-07-24T10:57:34.000Z</time>
</trkpt>
<trkpt lat="46.0292950" lon="10.3729410">
	<ele>953.20</ele>
	<time>2024-07-24T10:57:35.000Z</time>
</trkpt>
<trkpt lat="46.0292900" lon="10.3729600">
	<ele>953.20</ele>
	<time>2024-07-24T10:57:36.000Z</time>
</trkpt>
<trkpt lat="46.0292840" lon="10.3729770">
	<ele>953.20</ele>
	<time>2024-07-24T10:57:37.000Z</time>
</trkpt>
<trkpt lat="46.0292780" lon="10.3729950">
	<ele>953.20</ele>
	<time>2024-07-24T10:57:38.000Z</time>
</trkpt>
<trkpt lat="46.0292720" lon="10.3730140">
	<ele>953.20</ele>
	<time>2024-07-24T10:57:39.000Z</time>
</trkpt>
<trkpt lat="46.0292660" lon="10.3730360">
	<ele>953.20</ele>
	<time>2024-07-24T10:57:40.000Z</time>
</trkpt>
<trkpt lat="46.0292600" lon="10.3730590">
	<ele>953.20</ele>
	<time>2024-07-24T10:57:41.000Z</time>
</trkpt>
<trkpt lat="46.0292550" lon="10.3730850">
	<ele>953.00</ele>
	<time>2024-07-24T10:57:42.000Z</time>
</trkpt>
<trkpt lat="46.0292500" lon="10.3731080">
	<ele>952.80</ele>
	<time>2024-07-24T10:57:43.000Z</time>
</trkpt>
<trkpt lat="46.0292430" lon="10.3731280">
	<ele>952.80</ele>
	<time>2024-07-24T10:57:44.000Z</time>
</trkpt>
<trkpt lat="46.0292350" lon="10.3731440">
	<ele>952.60</ele>
	<time>2024-07-24T10:57:45.000Z</time>
</trkpt>
<trkpt lat="46.0292270" lon="10.3731600">
	<ele>952.60</ele>
	<time>2024-07-24T10:57:46.000Z</time>
</trkpt>
<trkpt lat="46.0292200" lon="10.3731770">
	<ele>952.40</ele>
	<time>2024-07-24T10:57:47.000Z</time>
</trkpt>
<trkpt lat="46.0292200" lon="10.3732080">
	<ele>952.20</ele>
	<time>2024-07-24T10:57:48.000Z</time>
</trkpt>
<trkpt lat="46.0292200" lon="10.3732420">
	<ele>952.00</ele>
	<time>2024-07-24T10:57:49.000Z</time>
</trkpt>
<trkpt lat="46.0292110" lon="10.3732590">
	<ele>951.80</ele>
	<time>2024-07-24T10:57:50.000Z</time>
</trkpt>
<trkpt lat="46.0291970" lon="10.3732690">
	<ele>951.60</ele>
	<time>2024-07-24T10:57:51.000Z</time>
</trkpt>
<trkpt lat="46.0291870" lon="10.3732870">
	<ele>951.60</ele>
	<time>2024-07-24T10:57:52.000Z</time>
</trkpt>
<trkpt lat="46.0291750" lon="10.3732960">
	<ele>951.40</ele>
	<time>2024-07-24T10:57:53.000Z</time>
</trkpt>
<trkpt lat="46.0291630" lon="10.3733080">
	<ele>951.40</ele>
	<time>2024-07-24T10:57:54.000Z</time>
</trkpt>
<trkpt lat="46.0291530" lon="10.3733160">
	<ele>951.40</ele>
	<time>2024-07-24T10:57:55.000Z</time>
</trkpt>
<trkpt lat="46.0291450" lon="10.3733290">
	<ele>951.20</ele>
	<time>2024-07-24T10:57:56.000Z</time>
</trkpt>
<trkpt lat="46.0291350" lon="10.3733420">
	<ele>951.20</ele>
	<time>2024-07-24T10:57:57.000Z</time>
</trkpt>
<trkpt lat="46.0291230" lon="10.3733540">
	<ele>951.20</ele>
	<time>2024-07-24T10:57:58.000Z</time>
</trkpt>
<trkpt lat="46.0291130" lon="10.3733680">
	<ele>951.20</ele>
	<time>2024-07-24T10:57:59.000Z</time>
</trkpt>
<trkpt lat="46.0291040" lon="10.3733830">
	<ele>951.00</ele>
	<time>2024-07-24T10:58:00.000Z</time>
</trkpt>
<trkpt lat="46.0290920" lon="10.3733950">
	<ele>951.00</ele>
	<time>2024-07-24T10:58:01.000Z</time>
</trkpt>
<trkpt lat="46.0290800" lon="10.3734080">
	<ele>950.80</ele>
	<time>2024-07-24T10:58:02.000Z</time>
</trkpt>
<trkpt lat="46.0290670" lon="10.3734230">
	<ele>950.80</ele>
	<time>2024-07-24T10:58:03.000Z</time>
</trkpt>
<trkpt lat="46.0290520" lon="10.3734380">
	<ele>950.60</ele>
	<time>2024-07-24T10:58:04.000Z</time>
</trkpt>
<trkpt lat="46.0290420" lon="10.3734500">
	<ele>950.60</ele>
	<time>2024-07-24T10:58:05.000Z</time>
</trkpt>
<trkpt lat="46.0290310" lon="10.3734600">
	<ele>950.40</ele>
	<time>2024-07-24T10:58:06.000Z</time>
</trkpt>
<trkpt lat="46.0290220" lon="10.3734720">
	<ele>950.40</ele>
	<time>2024-07-24T10:58:07.000Z</time>
</trkpt>
<trkpt lat="46.0290120" lon="10.3734850">
	<ele>950.20</ele>
	<time>2024-07-24T10:58:08.000Z</time>
</trkpt>
<trkpt lat="46.0290030" lon="10.3734970">
	<ele>950.20</ele>
	<time>2024-07-24T10:58:09.000Z</time>
</trkpt>
<trkpt lat="46.0289960" lon="10.3735110">
	<ele>950.00</ele>
	<time>2024-07-24T10:58:10.000Z</time>
</trkpt>
<trkpt lat="46.0289910" lon="10.3735290">
	<ele>950.00</ele>
	<time>2024-07-24T10:58:11.000Z</time>
</trkpt>
<trkpt lat="46.0289860" lon="10.3735450">
	<ele>949.80</ele>
	<time>2024-07-24T10:58:12.000Z</time>
</trkpt>
<trkpt lat="46.0289840" lon="10.3735640">
	<ele>949.80</ele>
	<time>2024-07-24T10:58:13.000Z</time>
</trkpt>
<trkpt lat="46.0289770" lon="10.3735830">
	<ele>949.80</ele>
	<time>2024-07-24T10:58:14.000Z</time>
</trkpt>
<trkpt lat="46.0289660" lon="10.3735950">
	<ele>949.60</ele>
	<time>2024-07-24T10:58:15.000Z</time>
</trkpt>
<trkpt lat="46.0289530" lon="10.3736060">
	<ele>949.60</ele>
	<time>2024-07-24T10:58:16.000Z</time>
</trkpt>
<trkpt lat="46.0289400" lon="10.3736180">
	<ele>949.60</ele>
	<time>2024-07-24T10:58:17.000Z</time>
</trkpt>
<trkpt lat="46.0289330" lon="10.3736330">
	<ele>949.60</ele>
	<time>2024-07-24T10:58:18.000Z</time>
</trkpt>
<trkpt lat="46.0289220" lon="10.3736490">
	<ele>949.40</ele>
	<time>2024-07-24T10:58:19.000Z</time>
</trkpt>
<trkpt lat="46.0289110" lon="10.3736600">
	<ele>949.40</ele>
	<time>2024-07-24T10:58:20.000Z</time>
</trkpt>
<trkpt lat="46.0289030" lon="10.3736660">
	<ele>949.40</ele>
	<time>2024-07-24T10:58:21.000Z</time>
</trkpt>
<trkpt lat="46.0288940" lon="10.3736750">
	<ele>949.20</ele>
	<time>2024-07-24T10:58:22.000Z</time>
</trkpt>
<trkpt lat="46.0288800" lon="10.3736870">
	<ele>949.20</ele>
	<time>2024-07-24T10:58:23.000Z</time>
</trkpt>
<trkpt lat="46.0288710" lon="10.3736950">
	<ele>949.00</ele>
	<time>2024-07-24T10:58:24.000Z</time>
</trkpt>
<trkpt lat="46.0288620" lon="10.3737030">
	<ele>949.00</ele>
	<time>2024-07-24T10:58:25.000Z</time>
</trkpt>
<trkpt lat="46.0288610" lon="10.3737120">
	<ele>949.00</ele>
	<time>2024-07-24T10:58:26.000Z</time>
</trkpt>
<trkpt lat="46.0288620" lon="10.3737170">
	<ele>949.00</ele>
	<time>2024-07-24T10:58:27.000Z</time>
</trkpt>
<trkpt lat="46.0288620" lon="10.3737190">
	<ele>949.00</ele>
	<time>2024-07-24T10:58:28.000Z</time>
</trkpt>
<trkpt lat="46.0288620" lon="10.3737230">
	<ele>949.00</ele>
	<time>2024-07-24T10:58:29.000Z</time>
</trkpt>
<trkpt lat="46.0288630" lon="10.3737270">
	<ele>949.00</ele>
	<time>2024-07-24T10:58:30.000Z</time>
</trkpt>
<trkpt lat="46.0288640" lon="10.3737300">
	<ele>949.00</ele>
	<time>2024-07-24T10:58:31.000Z</time>
</trkpt>
<trkpt lat="46.0288640" lon="10.3737290">
	<ele>949.00</ele>
	<time>2024-07-24T10:58:32.000Z</time>
</trkpt>
<trkpt lat="46.0288630" lon="10.3737280">
	<ele>949.00</ele>
	<time>2024-07-24T10:58:33.000Z</time>
</trkpt>
<trkpt lat="46.0288620" lon="10.3737330">
	<ele>948.80</ele>
	<time>2024-07-24T10:58:34.000Z</time>
</trkpt>
<trkpt lat="46.0288650" lon="10.3737370">
	<ele>948.80</ele>
	<time>2024-07-24T10:58:35.000Z</time>
</trkpt>
<trkpt lat="46.0288750" lon="10.3737540">
	<ele>948.80</ele>
	<time>2024-07-24T10:58:36.000Z</time>
</trkpt>
<trkpt lat="46.0288770" lon="10.3737560">
	<ele>948.60</ele>
	<time>2024-07-24T10:58:37.000Z</time>
</trkpt>
<trkpt lat="46.0288770" lon="10.3737570">
	<ele>948.60</ele>
	<time>2024-07-24T10:58:38.000Z</time>
</trkpt>
<trkpt lat="46.0288770" lon="10.3737570">
	<ele>948.60</ele>
	<time>2024-07-24T10:58:39.000Z</time>
</trkpt>
<trkpt lat="46.0288770" lon="10.3737570">
	<ele>948.60</ele>
	<time>2024-07-24T10:58:40.000Z</time>
</trkpt>
<trkpt lat="46.0288770" lon="10.3737570">
	<ele>948.40</ele>
	<time>2024-07-24T10:58:41.000Z</time>
</trkpt>
<trkpt lat="46.0288770" lon="10.3737570">
	<ele>948.40</ele>
	<time>2024-07-24T10:58:42.000Z</time>
</trkpt>
<trkpt lat="46.0288770" lon="10.3737570">
	<ele>948.20</ele>
	<time>2024-07-24T10:58:43.000Z</time>
</trkpt>
<trkpt lat="46.0288770" lon="10.3737570">
	<ele>948.20</ele>
	<time>2024-07-24T10:58:44.000Z</time>
</trkpt>
<trkpt lat="46.0288740" lon="10.3737620">
	<ele>948.00</ele>
	<time>2024-07-24T10:58:45.000Z</time>
</trkpt>
<trkpt lat="46.0288630" lon="10.3737750">
	<ele>948.00</ele>
	<time>2024-07-24T10:58:46.000Z</time>
</trkpt>
<trkpt lat="46.0288550" lon="10.3737890">
	<ele>948.00</ele>
	<time>2024-07-24T10:58:47.000Z</time>
</trkpt>
<trkpt lat="46.0288470" lon="10.3738060">
	<ele>947.80</ele>
	<time>2024-07-24T10:58:48.000Z</time>
</trkpt>
<trkpt lat="46.0288350" lon="10.3738210">
	<ele>947.80</ele>
	<time>2024-07-24T10:58:49.000Z</time>
</trkpt>
<trkpt lat="46.0288200" lon="10.3738340">
	<ele>947.80</ele>
	<time>2024-07-24T10:58:50.000Z</time>
</trkpt>
<trkpt lat="46.0288040" lon="10.3738450">
	<ele>947.80</ele>
	<time>2024-07-24T10:58:51.000Z</time>
</trkpt>
<trkpt lat="46.0287870" lon="10.3738470">
	<ele>947.80</ele>
	<time>2024-07-24T10:58:52.000Z</time>
</trkpt>
<trkpt lat="46.0287710" lon="10.3738520">
	<ele>947.80</ele>
	<time>2024-07-24T10:58:53.000Z</time>
</trkpt>
<trkpt lat="46.0287600" lon="10.3738570">
	<ele>947.80</ele>
	<time>2024-07-24T10:58:54.000Z</time>
</trkpt>
<trkpt lat="46.0287490" lon="10.3738600">
	<ele>947.80</ele>
	<time>2024-07-24T10:58:55.000Z</time>
</trkpt>
<trkpt lat="46.0287380" lon="10.3738700">
	<ele>948.00</ele>
	<time>2024-07-24T10:58:56.000Z</time>
</trkpt>
<trkpt lat="46.0287300" lon="10.3738870">
	<ele>948.00</ele>
	<time>2024-07-24T10:58:57.000Z</time>
</trkpt>
<trkpt lat="46.0287230" lon="10.3739040">
	<ele>948.00</ele>
	<time>2024-07-24T10:58:58.000Z</time>
</trkpt>
<trkpt lat="46.0287210" lon="10.3739200">
	<ele>948.00</ele>
	<time>2024-07-24T10:58:59.000Z</time>
</trkpt>
<trkpt lat="46.0287190" lon="10.3739320">
	<ele>948.20</ele>
	<time>2024-07-24T10:59:00.000Z</time>
</trkpt>
<trkpt lat="46.0287150" lon="10.3739400">
	<ele>948.20</ele>
	<time>2024-07-24T10:59:01.000Z</time>
</trkpt>
<trkpt lat="46.0287090" lon="10.3739510">
	<ele>948.20</ele>
	<time>2024-07-24T10:59:02.000Z</time>
</trkpt>
<trkpt lat="46.0287040" lon="10.3739610">
	<ele>948.20</ele>
	<time>2024-07-24T10:59:03.000Z</time>
</trkpt>
<trkpt lat="46.0287000" lon="10.3739700">
	<ele>948.20</ele>
	<time>2024-07-24T10:59:04.000Z</time>
</trkpt>
<trkpt lat="46.0286940" lon="10.3739830">
	<ele>948.20</ele>
	<time>2024-07-24T10:59:05.000Z</time>
</trkpt>
<trkpt lat="46.0286820" lon="10.3739960">
	<ele>948.20</ele>
	<time>2024-07-24T10:59:06.000Z</time>
</trkpt>
<trkpt lat="46.0286690" lon="10.3740070">
	<ele>948.20</ele>
	<time>2024-07-24T10:59:07.000Z</time>
</trkpt>
<trkpt lat="46.0286550" lon="10.3740150">
	<ele>948.20</ele>
	<time>2024-07-24T10:59:08.000Z</time>
</trkpt>
<trkpt lat="46.0286410" lon="10.3740240">
	<ele>948.20</ele>
	<time>2024-07-24T10:59:09.000Z</time>
</trkpt>
<trkpt lat="46.0286310" lon="10.3740390">
	<ele>948.20</ele>
	<time>2024-07-24T10:59:10.000Z</time>
</trkpt>
<trkpt lat="46.0286250" lon="10.3740540">
	<ele>948.20</ele>
	<time>2024-07-24T10:59:11.000Z</time>
</trkpt>
<trkpt lat="46.0286180" lon="10.3740660">
	<ele>948.20</ele>
	<time>2024-07-24T10:59:12.000Z</time>
</trkpt>
<trkpt lat="46.0286090" lon="10.3740780">
	<ele>948.20</ele>
	<time>2024-07-24T10:59:13.000Z</time>
</trkpt>
<trkpt lat="46.0285990" lon="10.3740890">
	<ele>948.20</ele>
	<time>2024-07-24T10:59:14.000Z</time>
</trkpt>
<trkpt lat="46.0285880" lon="10.3740990">
	<ele>948.20</ele>
	<time>2024-07-24T10:59:15.000Z</time>
</trkpt>
<trkpt lat="46.0285770" lon="10.3741060">
	<ele>948.00</ele>
	<time>2024-07-24T10:59:16.000Z</time>
</trkpt>
<trkpt lat="46.0285640" lon="10.3741160">
	<ele>948.00</ele>
	<time>2024-07-24T10:59:17.000Z</time>
</trkpt>
<trkpt lat="46.0285530" lon="10.3741260">
	<ele>948.00</ele>
	<time>2024-07-24T10:59:18.000Z</time>
</trkpt>
<trkpt lat="46.0285440" lon="10.3741440">
	<ele>947.80</ele>
	<time>2024-07-24T10:59:19.000Z</time>
</trkpt>
<trkpt lat="46.0285370" lon="10.3741590">
	<ele>947.80</ele>
	<time>2024-07-24T10:59:20.000Z</time>
</trkpt>
<trkpt lat="46.0285300" lon="10.3741680">
	<ele>947.80</ele>
	<time>2024-07-24T10:59:21.000Z</time>
</trkpt>
<trkpt lat="46.0285220" lon="10.3741710">
	<ele>947.80</ele>
	<time>2024-07-24T10:59:22.000Z</time>
</trkpt>
<trkpt lat="46.0285150" lon="10.3741760">
	<ele>947.80</ele>
	<time>2024-07-24T10:59:23.000Z</time>
</trkpt>
<trkpt lat="46.0285050" lon="10.3741860">
	<ele>947.60</ele>
	<time>2024-07-24T10:59:24.000Z</time>
</trkpt>
<trkpt lat="46.0284940" lon="10.3741960">
	<ele>947.60</ele>
	<time>2024-07-24T10:59:25.000Z</time>
</trkpt>
<trkpt lat="46.0284780" lon="10.3742100">
	<ele>947.60</ele>
	<time>2024-07-24T10:59:26.000Z</time>
</trkpt>
<trkpt lat="46.0284710" lon="10.3742220">
	<ele>947.60</ele>
	<time>2024-07-24T10:59:27.000Z</time>
</trkpt>
<trkpt lat="46.0284680" lon="10.3742440">
	<ele>947.60</ele>
	<time>2024-07-24T10:59:28.000Z</time>
</trkpt>
<trkpt lat="46.0284600" lon="10.3742590">
	<ele>947.40</ele>
	<time>2024-07-24T10:59:29.000Z</time>
</trkpt>
<trkpt lat="46.0284520" lon="10.3742730">
	<ele>947.40</ele>
	<time>2024-07-24T10:59:30.000Z</time>
</trkpt>
<trkpt lat="46.0284390" lon="10.3742890">
	<ele>947.40</ele>
	<time>2024-07-24T10:59:31.000Z</time>
</trkpt>
<trkpt lat="46.0284250" lon="10.3743010">
	<ele>947.40</ele>
	<time>2024-07-24T10:59:32.000Z</time>
</trkpt>
<trkpt lat="46.0284110" lon="10.3743110">
	<ele>947.20</ele>
	<time>2024-07-24T10:59:33.000Z</time>
</trkpt>
<trkpt lat="46.0283990" lon="10.3743260">
	<ele>947.20</ele>
	<time>2024-07-24T10:59:34.000Z</time>
</trkpt>
<trkpt lat="46.0283900" lon="10.3743390">
	<ele>947.20</ele>
	<time>2024-07-24T10:59:35.000Z</time>
</trkpt>
<trkpt lat="46.0283830" lon="10.3743570">
	<ele>947.00</ele>
	<time>2024-07-24T10:59:36.000Z</time>
</trkpt>
<trkpt lat="46.0283770" lon="10.3743720">
	<ele>947.00</ele>
	<time>2024-07-24T10:59:37.000Z</time>
</trkpt>
<trkpt lat="46.0283720" lon="10.3743870">
	<ele>947.00</ele>
	<time>2024-07-24T10:59:38.000Z</time>
</trkpt>
<trkpt lat="46.0283660" lon="10.3744020">
	<ele>946.80</ele>
	<time>2024-07-24T10:59:39.000Z</time>
</trkpt>
<trkpt lat="46.0283600" lon="10.3744270">
	<ele>946.80</ele>
	<time>2024-07-24T10:59:40.000Z</time>
</trkpt>
<trkpt lat="46.0283550" lon="10.3744500">
	<ele>946.60</ele>
	<time>2024-07-24T10:59:41.000Z</time>
</trkpt>
<trkpt lat="46.0283470" lon="10.3744680">
	<ele>946.60</ele>
	<time>2024-07-24T10:59:42.000Z</time>
</trkpt>
<trkpt lat="46.0283360" lon="10.3744810">
	<ele>946.60</ele>
	<time>2024-07-24T10:59:43.000Z</time>
</trkpt>
<trkpt lat="46.0283180" lon="10.3744900">
	<ele>946.40</ele>
	<time>2024-07-24T10:59:44.000Z</time>
</trkpt>
<trkpt lat="46.0282990" lon="10.3744960">
	<ele>946.40</ele>
	<time>2024-07-24T10:59:45.000Z</time>
</trkpt>
<trkpt lat="46.0282890" lon="10.3745030">
	<ele>946.40</ele>
	<time>2024-07-24T10:59:46.000Z</time>
</trkpt>
<trkpt lat="46.0282800" lon="10.3745150">
	<ele>946.20</ele>
	<time>2024-07-24T10:59:47.000Z</time>
</trkpt>
<trkpt lat="46.0282760" lon="10.3745290">
	<ele>946.40</ele>
	<time>2024-07-24T10:59:48.000Z</time>
</trkpt>
<trkpt lat="46.0282710" lon="10.3745430">
	<ele>946.20</ele>
	<time>2024-07-24T10:59:49.000Z</time>
</trkpt>
<trkpt lat="46.0282670" lon="10.3745550">
	<ele>946.20</ele>
	<time>2024-07-24T10:59:50.000Z</time>
</trkpt>
<trkpt lat="46.0282620" lon="10.3745670">
	<ele>946.20</ele>
	<time>2024-07-24T10:59:51.000Z</time>
</trkpt>
<trkpt lat="46.0282530" lon="10.3745730">
	<ele>946.20</ele>
	<time>2024-07-24T10:59:52.000Z</time>
</trkpt>
<trkpt lat="46.0282430" lon="10.3745800">
	<ele>946.20</ele>
	<time>2024-07-24T10:59:53.000Z</time>
</trkpt>
<trkpt lat="46.0282310" lon="10.3745860">
	<ele>946.00</ele>
	<time>2024-07-24T10:59:54.000Z</time>
</trkpt>
<trkpt lat="46.0282220" lon="10.3745950">
	<ele>946.00</ele>
	<time>2024-07-24T10:59:55.000Z</time>
</trkpt>
<trkpt lat="46.0282140" lon="10.3746070">
	<ele>945.80</ele>
	<time>2024-07-24T10:59:56.000Z</time>
</trkpt>
<trkpt lat="46.0282070" lon="10.3746190">
	<ele>945.80</ele>
	<time>2024-07-24T10:59:57.000Z</time>
</trkpt>
<trkpt lat="46.0282000" lon="10.3746310">
	<ele>945.80</ele>
	<time>2024-07-24T10:59:58.000Z</time>
</trkpt>
<trkpt lat="46.0281910" lon="10.3746440">
	<ele>945.80</ele>
	<time>2024-07-24T10:59:59.000Z</time>
</trkpt>
<trkpt lat="46.0281830" lon="10.3746580">
	<ele>945.60</ele>
	<time>2024-07-24T11:00:00.000Z</time>
</trkpt>
<trkpt lat="46.0281720" lon="10.3746690">
	<ele>945.60</ele>
	<time>2024-07-24T11:00:01.000Z</time>
</trkpt>
<trkpt lat="46.0281650" lon="10.3746770">
	<ele>945.60</ele>
	<time>2024-07-24T11:00:02.000Z</time>
</trkpt>
<trkpt lat="46.0281570" lon="10.3746840">
	<ele>945.60</ele>
	<time>2024-07-24T11:00:03.000Z</time>
</trkpt>
<trkpt lat="46.0281480" lon="10.3746900">
	<ele>945.40</ele>
	<time>2024-07-24T11:00:04.000Z</time>
</trkpt>
<trkpt lat="46.0281440" lon="10.3747000">
	<ele>945.40</ele>
	<time>2024-07-24T11:00:05.000Z</time>
</trkpt>
<trkpt lat="46.0281400" lon="10.3747150">
	<ele>945.40</ele>
	<time>2024-07-24T11:00:06.000Z</time>
</trkpt>
<trkpt lat="46.0281340" lon="10.3747260">
	<ele>945.40</ele>
	<time>2024-07-24T11:00:07.000Z</time>
</trkpt>
<trkpt lat="46.0281290" lon="10.3747320">
	<ele>945.40</ele>
	<time>2024-07-24T11:00:08.000Z</time>
</trkpt>
<trkpt lat="46.0281210" lon="10.3747400">
	<ele>945.40</ele>
	<time>2024-07-24T11:00:09.000Z</time>
</trkpt>
<trkpt lat="46.0281130" lon="10.3747500">
	<ele>945.40</ele>
	<time>2024-07-24T11:00:10.000Z</time>
</trkpt>
<trkpt lat="46.0281020" lon="10.3747610">
	<ele>945.40</ele>
	<time>2024-07-24T11:00:11.000Z</time>
</trkpt>
<trkpt lat="46.0280900" lon="10.3747750">
	<ele>945.40</ele>
	<time>2024-07-24T11:00:12.000Z</time>
</trkpt>
<trkpt lat="46.0280730" lon="10.3747970">
	<ele>945.40</ele>
	<time>2024-07-24T11:00:13.000Z</time>
</trkpt>
<trkpt lat="46.0280600" lon="10.3748170">
	<ele>945.40</ele>
	<time>2024-07-24T11:00:14.000Z</time>
</trkpt>
<trkpt lat="46.0280440" lon="10.3748320">
	<ele>945.40</ele>
	<time>2024-07-24T11:00:15.000Z</time>
</trkpt>
<trkpt lat="46.0280210" lon="10.3748430">
	<ele>945.40</ele>
	<time>2024-07-24T11:00:16.000Z</time>
</trkpt>
<trkpt lat="46.0280030" lon="10.3748510">
	<ele>945.20</ele>
	<time>2024-07-24T11:00:17.000Z</time>
</trkpt>
<trkpt lat="46.0279910" lon="10.3748550">
	<ele>945.20</ele>
	<time>2024-07-24T11:00:18.000Z</time>
</trkpt>
<trkpt lat="46.0279810" lon="10.3748630">
	<ele>945.20</ele>
	<time>2024-07-24T11:00:19.000Z</time>
</trkpt>
<trkpt lat="46.0279690" lon="10.3748740">
	<ele>945.20</ele>
	<time>2024-07-24T11:00:20.000Z</time>
</trkpt>
<trkpt lat="46.0279510" lon="10.3748780">
	<ele>945.20</ele>
	<time>2024-07-24T11:00:21.000Z</time>
</trkpt>
<trkpt lat="46.0279390" lon="10.3748890">
	<ele>945.00</ele>
	<time>2024-07-24T11:00:22.000Z</time>
</trkpt>
<trkpt lat="46.0279280" lon="10.3749000">
	<ele>945.00</ele>
	<time>2024-07-24T11:00:23.000Z</time>
</trkpt>
<trkpt lat="46.0279160" lon="10.3749120">
	<ele>945.00</ele>
	<time>2024-07-24T11:00:24.000Z</time>
</trkpt>
<trkpt lat="46.0279050" lon="10.3749240">
	<ele>945.00</ele>
	<time>2024-07-24T11:00:25.000Z</time>
</trkpt>
<trkpt lat="46.0278940" lon="10.3749400">
	<ele>944.80</ele>
	<time>2024-07-24T11:00:26.000Z</time>
</trkpt>
<trkpt lat="46.0278830" lon="10.3749550">
	<ele>944.80</ele>
	<time>2024-07-24T11:00:27.000Z</time>
</trkpt>
<trkpt lat="46.0278710" lon="10.3749670">
	<ele>944.80</ele>
	<time>2024-07-24T11:00:28.000Z</time>
</trkpt>
<trkpt lat="46.0278570" lon="10.3749770">
	<ele>944.60</ele>
	<time>2024-07-24T11:00:29.000Z</time>
</trkpt>
<trkpt lat="46.0278450" lon="10.3749860">
	<ele>944.60</ele>
	<time>2024-07-24T11:00:30.000Z</time>
</trkpt>
<trkpt lat="46.0278340" lon="10.3749960">
	<ele>944.60</ele>
	<time>2024-07-24T11:00:31.000Z</time>
</trkpt>
<trkpt lat="46.0278260" lon="10.3750120">
	<ele>944.60</ele>
	<time>2024-07-24T11:00:32.000Z</time>
</trkpt>
<trkpt lat="46.0278210" lon="10.3750330">
	<ele>944.40</ele>
	<time>2024-07-24T11:00:33.000Z</time>
</trkpt>
<trkpt lat="46.0278130" lon="10.3750470">
	<ele>944.40</ele>
	<time>2024-07-24T11:00:34.000Z</time>
</trkpt>
<trkpt lat="46.0278020" lon="10.3750570">
	<ele>944.40</ele>
	<time>2024-07-24T11:00:35.000Z</time>
</trkpt>
<trkpt lat="46.0277900" lon="10.3750640">
	<ele>944.40</ele>
	<time>2024-07-24T11:00:36.000Z</time>
</trkpt>
<trkpt lat="46.0277810" lon="10.3750750">
	<ele>944.20</ele>
	<time>2024-07-24T11:00:37.000Z</time>
</trkpt>
<trkpt lat="46.0277720" lon="10.3750830">
	<ele>944.20</ele>
	<time>2024-07-24T11:00:38.000Z</time>
</trkpt>
<trkpt lat="46.0277600" lon="10.3750860">
	<ele>944.20</ele>
	<time>2024-07-24T11:00:39.000Z</time>
</trkpt>
<trkpt lat="46.0277480" lon="10.3750870">
	<ele>944.20</ele>
	<time>2024-07-24T11:00:40.000Z</time>
</trkpt>
<trkpt lat="46.0277350" lon="10.3750990">
	<ele>944.00</ele>
	<time>2024-07-24T11:00:41.000Z</time>
</trkpt>
<trkpt lat="46.0277200" lon="10.3751100">
	<ele>944.00</ele>
	<time>2024-07-24T11:00:42.000Z</time>
</trkpt>
<trkpt lat="46.0277080" lon="10.3751300">
	<ele>944.00</ele>
	<time>2024-07-24T11:00:43.000Z</time>
</trkpt>
<trkpt lat="46.0276970" lon="10.3751430">
	<ele>944.00</ele>
	<time>2024-07-24T11:00:44.000Z</time>
</trkpt>
<trkpt lat="46.0276860" lon="10.3751560">
	<ele>944.00</ele>
	<time>2024-07-24T11:00:45.000Z</time>
</trkpt>
<trkpt lat="46.0276770" lon="10.3751660">
	<ele>944.00</ele>
	<time>2024-07-24T11:00:46.000Z</time>
</trkpt>
<trkpt lat="46.0276700" lon="10.3751740">
	<ele>944.20</ele>
	<time>2024-07-24T11:00:47.000Z</time>
</trkpt>
<trkpt lat="46.0276600" lon="10.3751810">
	<ele>944.20</ele>
	<time>2024-07-24T11:00:48.000Z</time>
</trkpt>
<trkpt lat="46.0276510" lon="10.3751920">
	<ele>944.00</ele>
	<time>2024-07-24T11:00:49.000Z</time>
</trkpt>
<trkpt lat="46.0276370" lon="10.3752020">
	<ele>943.80</ele>
	<time>2024-07-24T11:00:50.000Z</time>
</trkpt>
<trkpt lat="46.0276230" lon="10.3752120">
	<ele>943.60</ele>
	<time>2024-07-24T11:00:51.000Z</time>
</trkpt>
<trkpt lat="46.0276090" lon="10.3752240">
	<ele>943.60</ele>
	<time>2024-07-24T11:00:52.000Z</time>
</trkpt>
<trkpt lat="46.0275940" lon="10.3752350">
	<ele>943.60</ele>
	<time>2024-07-24T11:00:53.000Z</time>
</trkpt>
<trkpt lat="46.0275830" lon="10.3752480">
	<ele>943.60</ele>
	<time>2024-07-24T11:00:54.000Z</time>
</trkpt>
<trkpt lat="46.0275740" lon="10.3752600">
	<ele>943.60</ele>
	<time>2024-07-24T11:00:55.000Z</time>
</trkpt>
<trkpt lat="46.0275650" lon="10.3752710">
	<ele>943.60</ele>
	<time>2024-07-24T11:00:56.000Z</time>
</trkpt>
<trkpt lat="46.0275540" lon="10.3752840">
	<ele>943.60</ele>
	<time>2024-07-24T11:00:57.000Z</time>
</trkpt>
<trkpt lat="46.0275300" lon="10.3753150">
	<ele>943.60</ele>
	<time>2024-07-24T11:00:58.000Z</time>
</trkpt>
<trkpt lat="46.0275130" lon="10.3753200">
	<ele>943.60</ele>
	<time>2024-07-24T11:00:59.000Z</time>
</trkpt>
<trkpt lat="46.0274920" lon="10.3753200">
	<ele>943.60</ele>
	<time>2024-07-24T11:01:00.000Z</time>
</trkpt>
<trkpt lat="46.0274750" lon="10.3753240">
	<ele>943.60</ele>
	<time>2024-07-24T11:01:01.000Z</time>
</trkpt>
<trkpt lat="46.0274610" lon="10.3753290">
	<ele>943.60</ele>
	<time>2024-07-24T11:01:02.000Z</time>
</trkpt>
<trkpt lat="46.0274440" lon="10.3753290">
	<ele>943.60</ele>
	<time>2024-07-24T11:01:03.000Z</time>
</trkpt>
<trkpt lat="46.0274340" lon="10.3753380">
	<ele>943.60</ele>
	<time>2024-07-24T11:01:04.000Z</time>
</trkpt>
<trkpt lat="46.0274270" lon="10.3753480">
	<ele>943.60</ele>
	<time>2024-07-24T11:01:05.000Z</time>
</trkpt>
<trkpt lat="46.0274170" lon="10.3753470">
	<ele>943.60</ele>
	<time>2024-07-24T11:01:06.000Z</time>
</trkpt>
<trkpt lat="46.0274100" lon="10.3753530">
	<ele>943.60</ele>
	<time>2024-07-24T11:01:07.000Z</time>
</trkpt>
<trkpt lat="46.0274030" lon="10.3753660">
	<ele>943.60</ele>
	<time>2024-07-24T11:01:08.000Z</time>
</trkpt>
<trkpt lat="46.0273920" lon="10.3753760">
	<ele>943.60</ele>
	<time>2024-07-24T11:01:09.000Z</time>
</trkpt>
<trkpt lat="46.0273780" lon="10.3753950">
	<ele>943.60</ele>
	<time>2024-07-24T11:01:10.000Z</time>
</trkpt>
<trkpt lat="46.0273640" lon="10.3754110">
	<ele>943.60</ele>
	<time>2024-07-24T11:01:11.000Z</time>
</trkpt>
<trkpt lat="46.0273500" lon="10.3754180">
	<ele>943.60</ele>
	<time>2024-07-24T11:01:12.000Z</time>
</trkpt>
<trkpt lat="46.0273370" lon="10.3754280">
	<ele>943.60</ele>
	<time>2024-07-24T11:01:13.000Z</time>
</trkpt>
<trkpt lat="46.0273200" lon="10.3754390">
	<ele>943.60</ele>
	<time>2024-07-24T11:01:14.000Z</time>
</trkpt>
<trkpt lat="46.0273070" lon="10.3754480">
	<ele>943.60</ele>
	<time>2024-07-24T11:01:15.000Z</time>
</trkpt>
<trkpt lat="46.0272960" lon="10.3754540">
	<ele>943.60</ele>
	<time>2024-07-24T11:01:16.000Z</time>
</trkpt>
<trkpt lat="46.0272900" lon="10.3754650">
	<ele>943.60</ele>
	<time>2024-07-24T11:01:17.000Z</time>
</trkpt>
<trkpt lat="46.0272820" lon="10.3754740">
	<ele>943.60</ele>
	<time>2024-07-24T11:01:18.000Z</time>
</trkpt>
<trkpt lat="46.0272780" lon="10.3754890">
	<ele>943.60</ele>
	<time>2024-07-24T11:01:19.000Z</time>
</trkpt>
<trkpt lat="46.0272810" lon="10.3755010">
	<ele>943.60</ele>
	<time>2024-07-24T11:01:20.000Z</time>
</trkpt>
<trkpt lat="46.0272790" lon="10.3755140">
	<ele>943.40</ele>
	<time>2024-07-24T11:01:21.000Z</time>
</trkpt>
<trkpt lat="46.0272740" lon="10.3755240">
	<ele>943.40</ele>
	<time>2024-07-24T11:01:22.000Z</time>
</trkpt>
<trkpt lat="46.0272580" lon="10.3755340">
	<ele>943.40</ele>
	<time>2024-07-24T11:01:23.000Z</time>
</trkpt>
<trkpt lat="46.0272520" lon="10.3755450">
	<ele>943.20</ele>
	<time>2024-07-24T11:01:24.000Z</time>
</trkpt>
<trkpt lat="46.0272480" lon="10.3755550">
	<ele>943.20</ele>
	<time>2024-07-24T11:01:25.000Z</time>
</trkpt>
<trkpt lat="46.0272480" lon="10.3755610">
	<ele>943.20</ele>
	<time>2024-07-24T11:01:26.000Z</time>
</trkpt>
<trkpt lat="46.0272440" lon="10.3755680">
	<ele>943.20</ele>
	<time>2024-07-24T11:01:27.000Z</time>
</trkpt>
<trkpt lat="46.0272400" lon="10.3755730">
	<ele>943.20</ele>
	<time>2024-07-24T11:01:28.000Z</time>
</trkpt>
<trkpt lat="46.0272310" lon="10.3755800">
	<ele>943.20</ele>
	<time>2024-07-24T11:01:29.000Z</time>
</trkpt>
<trkpt lat="46.0272400" lon="10.3755850">
	<ele>943.20</ele>
	<time>2024-07-24T11:01:30.000Z</time>
</trkpt>
<trkpt lat="46.0272470" lon="10.3755890">
	<ele>943.00</ele>
	<time>2024-07-24T11:01:31.000Z</time>
</trkpt>
<trkpt lat="46.0272480" lon="10.3755950">
	<ele>943.00</ele>
	<time>2024-07-24T11:01:32.000Z</time>
</trkpt>
<trkpt lat="46.0272350" lon="10.3756010">
	<ele>943.00</ele>
	<time>2024-07-24T11:01:33.000Z</time>
</trkpt>
<trkpt lat="46.0272230" lon="10.3756090">
	<ele>942.80</ele>
	<time>2024-07-24T11:01:34.000Z</time>
</trkpt>
<trkpt lat="46.0272130" lon="10.3756220">
	<ele>942.80</ele>
	<time>2024-07-24T11:01:35.000Z</time>
</trkpt>
<trkpt lat="46.0272070" lon="10.3756420">
	<ele>942.80</ele>
	<time>2024-07-24T11:01:36.000Z</time>
</trkpt>
<trkpt lat="46.0271950" lon="10.3756540">
	<ele>942.80</ele>
	<time>2024-07-24T11:01:37.000Z</time>
</trkpt>
<trkpt lat="46.0271810" lon="10.3756590">
	<ele>942.80</ele>
	<time>2024-07-24T11:01:38.000Z</time>
</trkpt>
<trkpt lat="46.0271710" lon="10.3756670">
	<ele>942.80</ele>
	<time>2024-07-24T11:01:39.000Z</time>
</trkpt>
<trkpt lat="46.0271590" lon="10.3756760">
	<ele>942.60</ele>
	<time>2024-07-24T11:01:40.000Z</time>
</trkpt>
<trkpt lat="46.0271500" lon="10.3756860">
	<ele>942.60</ele>
	<time>2024-07-24T11:01:41.000Z</time>
</trkpt>
<trkpt lat="46.0271400" lon="10.3756880">
	<ele>942.40</ele>
	<time>2024-07-24T11:01:42.000Z</time>
</trkpt>
<trkpt lat="46.0271310" lon="10.3757000">
	<ele>942.40</ele>
	<time>2024-07-24T11:01:43.000Z</time>
</trkpt>
<trkpt lat="46.0271190" lon="10.3757070">
	<ele>942.40</ele>
	<time>2024-07-24T11:01:44.000Z</time>
</trkpt>
<trkpt lat="46.0271070" lon="10.3757120">
	<ele>942.20</ele>
	<time>2024-07-24T11:01:45.000Z</time>
</trkpt>
<trkpt lat="46.0270900" lon="10.3757190">
	<ele>942.20</ele>
	<time>2024-07-24T11:01:46.000Z</time>
</trkpt>
<trkpt lat="46.0270710" lon="10.3757230">
	<ele>942.20</ele>
	<time>2024-07-24T11:01:47.000Z</time>
</trkpt>
<trkpt lat="46.0270540" lon="10.3757270">
	<ele>942.20</ele>
	<time>2024-07-24T11:01:48.000Z</time>
</trkpt>
<trkpt lat="46.0270330" lon="10.3757290">
	<ele>942.20</ele>
	<time>2024-07-24T11:01:49.000Z</time>
</trkpt>
<trkpt lat="46.0270170" lon="10.3757400">
	<ele>942.20</ele>
	<time>2024-07-24T11:01:50.000Z</time>
</trkpt>
<trkpt lat="46.0270020" lon="10.3757510">
	<ele>942.20</ele>
	<time>2024-07-24T11:01:51.000Z</time>
</trkpt>
<trkpt lat="46.0269910" lon="10.3757630">
	<ele>942.20</ele>
	<time>2024-07-24T11:01:52.000Z</time>
</trkpt>
<trkpt lat="46.0269800" lon="10.3757740">
	<ele>942.20</ele>
	<time>2024-07-24T11:01:53.000Z</time>
</trkpt>
<trkpt lat="46.0269760" lon="10.3757870">
	<ele>942.20</ele>
	<time>2024-07-24T11:01:54.000Z</time>
</trkpt>
<trkpt lat="46.0269760" lon="10.3758000">
	<ele>942.20</ele>
	<time>2024-07-24T11:01:55.000Z</time>
</trkpt>
<trkpt lat="46.0269710" lon="10.3758160">
	<ele>942.40</ele>
	<time>2024-07-24T11:01:56.000Z</time>
</trkpt>
<trkpt lat="46.0269700" lon="10.3758330">
	<ele>942.40</ele>
	<time>2024-07-24T11:01:57.000Z</time>
</trkpt>
<trkpt lat="46.0269710" lon="10.3758490">
	<ele>942.40</ele>
	<time>2024-07-24T11:01:58.000Z</time>
</trkpt>
<trkpt lat="46.0269710" lon="10.3758680">
	<ele>942.40</ele>
	<time>2024-07-24T11:01:59.000Z</time>
</trkpt>
<trkpt lat="46.0269640" lon="10.3758770">
	<ele>942.20</ele>
	<time>2024-07-24T11:02:00.000Z</time>
</trkpt>
<trkpt lat="46.0269530" lon="10.3758880">
	<ele>942.20</ele>
	<time>2024-07-24T11:02:01.000Z</time>
</trkpt>
<trkpt lat="46.0269410" lon="10.3759040">
	<ele>942.20</ele>
	<time>2024-07-24T11:02:02.000Z</time>
</trkpt>
<trkpt lat="46.0269260" lon="10.3759240">
	<ele>942.00</ele>
	<time>2024-07-24T11:02:03.000Z</time>
</trkpt>
<trkpt lat="46.0269100" lon="10.3759400">
	<ele>942.00</ele>
	<time>2024-07-24T11:02:04.000Z</time>
</trkpt>
<trkpt lat="46.0268940" lon="10.3759540">
	<ele>942.00</ele>
	<time>2024-07-24T11:02:05.000Z</time>
</trkpt>
<trkpt lat="46.0268770" lon="10.3759640">
	<ele>942.00</ele>
	<time>2024-07-24T11:02:06.000Z</time>
</trkpt>
<trkpt lat="46.0268590" lon="10.3759730">
	<ele>942.20</ele>
	<time>2024-07-24T11:02:07.000Z</time>
</trkpt>
<trkpt lat="46.0268440" lon="10.3759870">
	<ele>942.20</ele>
	<time>2024-07-24T11:02:08.000Z</time>
</trkpt>
<trkpt lat="46.0268310" lon="10.3760050">
	<ele>942.20</ele>
	<time>2024-07-24T11:02:09.000Z</time>
</trkpt>
<trkpt lat="46.0268160" lon="10.3760230">
	<ele>942.20</ele>
	<time>2024-07-24T11:02:10.000Z</time>
</trkpt>
<trkpt lat="46.0268050" lon="10.3760360">
	<ele>942.20</ele>
	<time>2024-07-24T11:02:11.000Z</time>
</trkpt>
<trkpt lat="46.0267940" lon="10.3760550">
	<ele>942.20</ele>
	<time>2024-07-24T11:02:12.000Z</time>
</trkpt>
<trkpt lat="46.0267880" lon="10.3760670">
	<ele>942.20</ele>
	<time>2024-07-24T11:02:13.000Z</time>
</trkpt>
<trkpt lat="46.0267750" lon="10.3760760">
	<ele>942.20</ele>
	<time>2024-07-24T11:02:14.000Z</time>
</trkpt>
<trkpt lat="46.0267630" lon="10.3760880">
	<ele>942.00</ele>
	<time>2024-07-24T11:02:15.000Z</time>
</trkpt>
<trkpt lat="46.0267550" lon="10.3761050">
	<ele>941.80</ele>
	<time>2024-07-24T11:02:16.000Z</time>
</trkpt>
<trkpt lat="46.0267470" lon="10.3761210">
	<ele>941.80</ele>
	<time>2024-07-24T11:02:17.000Z</time>
</trkpt>
<trkpt lat="46.0267380" lon="10.3761310">
	<ele>941.60</ele>
	<time>2024-07-24T11:02:18.000Z</time>
</trkpt>
<trkpt lat="46.0267290" lon="10.3761400">
	<ele>941.60</ele>
	<time>2024-07-24T11:02:19.000Z</time>
</trkpt>
<trkpt lat="46.0267210" lon="10.3761540">
	<ele>941.60</ele>
	<time>2024-07-24T11:02:20.000Z</time>
</trkpt>
<trkpt lat="46.0267080" lon="10.3761610">
	<ele>941.60</ele>
	<time>2024-07-24T11:02:21.000Z</time>
</trkpt>
<trkpt lat="46.0267010" lon="10.3761710">
	<ele>941.60</ele>
	<time>2024-07-24T11:02:22.000Z</time>
</trkpt>
<trkpt lat="46.0266930" lon="10.3761840">
	<ele>941.60</ele>
	<time>2024-07-24T11:02:23.000Z</time>
</trkpt>
<trkpt lat="46.0266850" lon="10.3761970">
	<ele>941.60</ele>
	<time>2024-07-24T11:02:24.000Z</time>
</trkpt>
<trkpt lat="46.0266790" lon="10.3762100">
	<ele>941.40</ele>
	<time>2024-07-24T11:02:25.000Z</time>
</trkpt>
<trkpt lat="46.0266740" lon="10.3762260">
	<ele>941.40</ele>
	<time>2024-07-24T11:02:26.000Z</time>
</trkpt>
<trkpt lat="46.0266650" lon="10.3762380">
	<ele>941.40</ele>
	<time>2024-07-24T11:02:27.000Z</time>
</trkpt>
<trkpt lat="46.0266580" lon="10.3762530">
	<ele>941.40</ele>
	<time>2024-07-24T11:02:28.000Z</time>
</trkpt>
<trkpt lat="46.0266550" lon="10.3762850">
	<ele>941.40</ele>
	<time>2024-07-24T11:02:29.000Z</time>
</trkpt>
<trkpt lat="46.0266450" lon="10.3762970">
	<ele>941.40</ele>
	<time>2024-07-24T11:02:30.000Z</time>
</trkpt>
<trkpt lat="46.0266390" lon="10.3763110">
	<ele>941.40</ele>
	<time>2024-07-24T11:02:31.000Z</time>
</trkpt>
<trkpt lat="46.0266320" lon="10.3763290">
	<ele>941.40</ele>
	<time>2024-07-24T11:02:32.000Z</time>
</trkpt>
<trkpt lat="46.0266250" lon="10.3763420">
	<ele>941.40</ele>
	<time>2024-07-24T11:02:33.000Z</time>
</trkpt>
<trkpt lat="46.0266180" lon="10.3763570">
	<ele>941.20</ele>
	<time>2024-07-24T11:02:34.000Z</time>
</trkpt>
<trkpt lat="46.0266110" lon="10.3763720">
	<ele>941.20</ele>
	<time>2024-07-24T11:02:35.000Z</time>
</trkpt>
<trkpt lat="46.0266050" lon="10.3763860">
	<ele>941.20</ele>
	<time>2024-07-24T11:02:36.000Z</time>
</trkpt>
<trkpt lat="46.0265950" lon="10.3763970">
	<ele>941.20</ele>
	<time>2024-07-24T11:02:37.000Z</time>
</trkpt>
<trkpt lat="46.0265850" lon="10.3764060">
	<ele>941.20</ele>
	<time>2024-07-24T11:02:38.000Z</time>
</trkpt>
<trkpt lat="46.0265770" lon="10.3764140">
	<ele>941.20</ele>
	<time>2024-07-24T11:02:39.000Z</time>
</trkpt>
<trkpt lat="46.0265690" lon="10.3764250">
	<ele>941.20</ele>
	<time>2024-07-24T11:02:40.000Z</time>
</trkpt>
<trkpt lat="46.0265620" lon="10.3764340">
	<ele>941.20</ele>
	<time>2024-07-24T11:02:41.000Z</time>
</trkpt>
<trkpt lat="46.0265500" lon="10.3764410">
	<ele>941.20</ele>
	<time>2024-07-24T11:02:42.000Z</time>
</trkpt>
<trkpt lat="46.0265380" lon="10.3764470">
	<ele>941.20</ele>
	<time>2024-07-24T11:02:43.000Z</time>
</trkpt>
<trkpt lat="46.0265240" lon="10.3764490">
	<ele>941.20</ele>
	<time>2024-07-24T11:02:44.000Z</time>
</trkpt>
<trkpt lat="46.0265130" lon="10.3764550">
	<ele>941.20</ele>
	<time>2024-07-24T11:02:45.000Z</time>
</trkpt>
<trkpt lat="46.0264990" lon="10.3764630">
	<ele>941.20</ele>
	<time>2024-07-24T11:02:46.000Z</time>
</trkpt>
<trkpt lat="46.0264870" lon="10.3764730">
	<ele>941.20</ele>
	<time>2024-07-24T11:02:47.000Z</time>
</trkpt>
<trkpt lat="46.0264730" lon="10.3764810">
	<ele>941.20</ele>
	<time>2024-07-24T11:02:48.000Z</time>
</trkpt>
<trkpt lat="46.0264600" lon="10.3764860">
	<ele>941.20</ele>
	<time>2024-07-24T11:02:49.000Z</time>
</trkpt>
<trkpt lat="46.0264500" lon="10.3764880">
	<ele>941.20</ele>
	<time>2024-07-24T11:02:50.000Z</time>
</trkpt>
<trkpt lat="46.0264390" lon="10.3764850">
	<ele>941.40</ele>
	<time>2024-07-24T11:02:51.000Z</time>
</trkpt>
<trkpt lat="46.0264270" lon="10.3764800">
	<ele>941.40</ele>
	<time>2024-07-24T11:02:52.000Z</time>
</trkpt>
<trkpt lat="46.0264140" lon="10.3764720">
	<ele>941.40</ele>
	<time>2024-07-24T11:02:53.000Z</time>
</trkpt>
<trkpt lat="46.0264010" lon="10.3764650">
	<ele>941.40</ele>
	<time>2024-07-24T11:02:54.000Z</time>
</trkpt>
<trkpt lat="46.0263890" lon="10.3764600">
	<ele>941.40</ele>
	<time>2024-07-24T11:02:55.000Z</time>
</trkpt>
<trkpt lat="46.0263760" lon="10.3764600">
	<ele>941.20</ele>
	<time>2024-07-24T11:02:56.000Z</time>
</trkpt>
<trkpt lat="46.0263620" lon="10.3764650">
	<ele>941.20</ele>
	<time>2024-07-24T11:02:57.000Z</time>
</trkpt>
<trkpt lat="46.0263510" lon="10.3764810">
	<ele>941.20</ele>
	<time>2024-07-24T11:02:58.000Z</time>
</trkpt>
<trkpt lat="46.0263430" lon="10.3764970">
	<ele>941.00</ele>
	<time>2024-07-24T11:02:59.000Z</time>
</trkpt>
<trkpt lat="46.0263320" lon="10.3765140">
	<ele>941.00</ele>
	<time>2024-07-24T11:03:00.000Z</time>
</trkpt>
<trkpt lat="46.0263260" lon="10.3765290">
	<ele>941.00</ele>
	<time>2024-07-24T11:03:01.000Z</time>
</trkpt>
<trkpt lat="46.0263240" lon="10.3765450">
	<ele>940.80</ele>
	<time>2024-07-24T11:03:02.000Z</time>
</trkpt>
<trkpt lat="46.0263240" lon="10.3765590">
	<ele>940.80</ele>
	<time>2024-07-24T11:03:03.000Z</time>
</trkpt>
<trkpt lat="46.0263230" lon="10.3765690">
	<ele>941.00</ele>
	<time>2024-07-24T11:03:04.000Z</time>
</trkpt>
<trkpt lat="46.0263270" lon="10.3765820">
	<ele>941.00</ele>
	<time>2024-07-24T11:03:05.000Z</time>
</trkpt>
<trkpt lat="46.0263320" lon="10.3765910">
	<ele>941.20</ele>
	<time>2024-07-24T11:03:06.000Z</time>
</trkpt>
<trkpt lat="46.0263420" lon="10.3765980">
	<ele>941.40</ele>
	<time>2024-07-24T11:03:07.000Z</time>
</trkpt>
<trkpt lat="46.0263500" lon="10.3766050">
	<ele>941.40</ele>
	<time>2024-07-24T11:03:08.000Z</time>
</trkpt>
<trkpt lat="46.0263670" lon="10.3766130">
	<ele>941.60</ele>
	<time>2024-07-24T11:03:09.000Z</time>
</trkpt>
<trkpt lat="46.0263800" lon="10.3766290">
	<ele>941.60</ele>
	<time>2024-07-24T11:03:10.000Z</time>
</trkpt>
<trkpt lat="46.0263950" lon="10.3766420">
	<ele>941.60</ele>
	<time>2024-07-24T11:03:11.000Z</time>
</trkpt>
<trkpt lat="46.0263990" lon="10.3766570">
	<ele>941.60</ele>
	<time>2024-07-24T11:03:12.000Z</time>
</trkpt>
<trkpt lat="46.0264050" lon="10.3766750">
	<ele>941.40</ele>
	<time>2024-07-24T11:03:13.000Z</time>
</trkpt>
<trkpt lat="46.0263980" lon="10.3766890">
	<ele>941.20</ele>
	<time>2024-07-24T11:03:14.000Z</time>
</trkpt>
<trkpt lat="46.0263910" lon="10.3766990">
	<ele>941.20</ele>
	<time>2024-07-24T11:03:15.000Z</time>
</trkpt>
<trkpt lat="46.0263900" lon="10.3767040">
	<ele>941.00</ele>
	<time>2024-07-24T11:03:16.000Z</time>
</trkpt>
<trkpt lat="46.0263900" lon="10.3767190">
	<ele>941.00</ele>
	<time>2024-07-24T11:03:17.000Z</time>
</trkpt>
<trkpt lat="46.0263910" lon="10.3767340">
	<ele>941.00</ele>
	<time>2024-07-24T11:03:18.000Z</time>
</trkpt>
<trkpt lat="46.0263960" lon="10.3767470">
	<ele>940.80</ele>
	<time>2024-07-24T11:03:19.000Z</time>
</trkpt>
<trkpt lat="46.0263950" lon="10.3767530">
	<ele>940.80</ele>
	<time>2024-07-24T11:03:20.000Z</time>
</trkpt>
<trkpt lat="46.0263990" lon="10.3767560">
	<ele>940.80</ele>
	<time>2024-07-24T11:03:21.000Z</time>
</trkpt>
<trkpt lat="46.0264060" lon="10.3767680">
	<ele>940.80</ele>
	<time>2024-07-24T11:03:22.000Z</time>
</trkpt>
<trkpt lat="46.0264100" lon="10.3767740">
	<ele>940.80</ele>
	<time>2024-07-24T11:03:23.000Z</time>
</trkpt>
<trkpt lat="46.0264120" lon="10.3767780">
	<ele>940.60</ele>
	<time>2024-07-24T11:03:24.000Z</time>
</trkpt>
<trkpt lat="46.0264110" lon="10.3767790">
	<ele>940.60</ele>
	<time>2024-07-24T11:03:25.000Z</time>
</trkpt>
<trkpt lat="46.0264100" lon="10.3767860">
	<ele>940.60</ele>
	<time>2024-07-24T11:03:26.000Z</time>
</trkpt>
<trkpt lat="46.0264080" lon="10.3767940">
	<ele>940.60</ele>
	<time>2024-07-24T11:03:27.000Z</time>
</trkpt>
<trkpt lat="46.0264090" lon="10.3767950">
	<ele>940.40</ele>
	<time>2024-07-24T11:03:28.000Z</time>
</trkpt>
<trkpt lat="46.0264080" lon="10.3767980">
	<ele>940.20</ele>
	<time>2024-07-24T11:03:29.000Z</time>
</trkpt>
<trkpt lat="46.0264090" lon="10.3768010">
	<ele>940.20</ele>
	<time>2024-07-24T11:03:30.000Z</time>
</trkpt>
<trkpt lat="46.0264080" lon="10.3768010">
	<ele>940.20</ele>
	<time>2024-07-24T11:03:31.000Z</time>
</trkpt>
<trkpt lat="46.0264070" lon="10.3768010">
	<ele>940.00</ele>
	<time>2024-07-24T11:03:32.000Z</time>
</trkpt>
<trkpt lat="46.0263990" lon="10.3767900">
	<ele>940.00</ele>
	<time>2024-07-24T11:03:33.000Z</time>
</trkpt>
<trkpt lat="46.0264020" lon="10.3767930">
	<ele>940.00</ele>
	<time>2024-07-24T11:03:34.000Z</time>
</trkpt>
<trkpt lat="46.0264010" lon="10.3767940">
	<ele>940.00</ele>
	<time>2024-07-24T11:03:35.000Z</time>
</trkpt>
<trkpt lat="46.0264010" lon="10.3767830">
	<ele>940.00</ele>
	<time>2024-07-24T11:03:36.000Z</time>
</trkpt>
<trkpt lat="46.0264010" lon="10.3767830">
	<ele>940.20</ele>
	<time>2024-07-24T11:03:37.000Z</time>
</trkpt>
<trkpt lat="46.0264020" lon="10.3767820">
	<ele>940.20</ele>
	<time>2024-07-24T11:03:38.000Z</time>
</trkpt>
<trkpt lat="46.0264020" lon="10.3767820">
	<ele>940.20</ele>
	<time>2024-07-24T11:03:39.000Z</time>
</trkpt>
<trkpt lat="46.0264020" lon="10.3767820">
	<ele>940.40</ele>
	<time>2024-07-24T11:03:40.000Z</time>
</trkpt>
<trkpt lat="46.0264020" lon="10.3767820">
	<ele>940.40</ele>
	<time>2024-07-24T11:03:41.000Z</time>
</trkpt>
<trkpt lat="46.0264020" lon="10.3767820">
	<ele>940.40</ele>
	<time>2024-07-24T11:03:42.000Z</time>
</trkpt>
<trkpt lat="46.0264020" lon="10.3767820">
	<ele>940.40</ele>
	<time>2024-07-24T11:03:43.000Z</time>
</trkpt>
<trkpt lat="46.0264020" lon="10.3767820">
	<ele>940.40</ele>
	<time>2024-07-24T11:03:44.000Z</time>
</trkpt>
<trkpt lat="46.0264020" lon="10.3767820">
	<ele>940.40</ele>
	<time>2024-07-24T11:03:45.000Z</time>
</trkpt>
<trkpt lat="46.0264020" lon="10.3767820">
	<ele>940.20</ele>
	<time>2024-07-24T11:03:46.000Z</time>
</trkpt>
<trkpt lat="46.0264020" lon="10.3767820">
	<ele>940.20</ele>
	<time>2024-07-24T11:03:47.000Z</time>
</trkpt>
<trkpt lat="46.0264020" lon="10.3767820">
	<ele>940.20</ele>
	<time>2024-07-24T11:03:48.000Z</time>
</trkpt>
<trkpt lat="46.0264020" lon="10.3767820">
	<ele>940.40</ele>
	<time>2024-07-24T11:03:49.000Z</time>
</trkpt>
<trkpt lat="46.0264020" lon="10.3767820">
	<ele>940.60</ele>
	<time>2024-07-24T11:03:50.000Z</time>
</trkpt>
<trkpt lat="46.0264030" lon="10.3767820">
	<ele>940.60</ele>
	<time>2024-07-24T11:03:51.000Z</time>
</trkpt>
<trkpt lat="46.0264040" lon="10.3767820">
	<ele>940.80</ele>
	<time>2024-07-24T11:03:52.000Z</time>
</trkpt>
<trkpt lat="46.0264030" lon="10.3767780">
	<ele>940.80</ele>
	<time>2024-07-24T11:03:53.000Z</time>
</trkpt>
<trkpt lat="46.0264010" lon="10.3767740">
	<ele>941.00</ele>
	<time>2024-07-24T11:03:54.000Z</time>
</trkpt>
<trkpt lat="46.0264010" lon="10.3767750">
	<ele>941.00</ele>
	<time>2024-07-24T11:03:55.000Z</time>
</trkpt>
<trkpt lat="46.0264080" lon="10.3767860">
	<ele>941.00</ele>
	<time>2024-07-24T11:03:56.000Z</time>
</trkpt>
<trkpt lat="46.0264100" lon="10.3767840">
	<ele>941.20</ele>
	<time>2024-07-24T11:03:57.000Z</time>
</trkpt>
<trkpt lat="46.0264110" lon="10.3767810">
	<ele>941.20</ele>
	<time>2024-07-24T11:03:58.000Z</time>
</trkpt>
<trkpt lat="46.0264150" lon="10.3767790">
	<ele>941.40</ele>
	<time>2024-07-24T11:03:59.000Z</time>
</trkpt>
<trkpt lat="46.0264170" lon="10.3767750">
	<ele>941.40</ele>
	<time>2024-07-24T11:04:00.000Z</time>
</trkpt>
<trkpt lat="46.0264180" lon="10.3767680">
	<ele>941.40</ele>
	<time>2024-07-24T11:04:01.000Z</time>
</trkpt>
<trkpt lat="46.0264160" lon="10.3767600">
	<ele>941.40</ele>
	<time>2024-07-24T11:04:02.000Z</time>
</trkpt>
<trkpt lat="46.0264230" lon="10.3767650">
	<ele>941.20</ele>
	<time>2024-07-24T11:04:03.000Z</time>
</trkpt>
<trkpt lat="46.0264260" lon="10.3767640">
	<ele>941.20</ele>
	<time>2024-07-24T11:04:04.000Z</time>
</trkpt>
<trkpt lat="46.0264290" lon="10.3767620">
	<ele>941.20</ele>
	<time>2024-07-24T11:04:05.000Z</time>
</trkpt>
<trkpt lat="46.0264260" lon="10.3767530">
	<ele>941.00</ele>
	<time>2024-07-24T11:04:06.000Z</time>
</trkpt>
<trkpt lat="46.0264210" lon="10.3767420">
	<ele>941.00</ele>
	<time>2024-07-24T11:04:07.000Z</time>
</trkpt>
<trkpt lat="46.0264220" lon="10.3767350">
	<ele>941.00</ele>
	<time>2024-07-24T11:04:08.000Z</time>
</trkpt>
<trkpt lat="46.0264180" lon="10.3767250">
	<ele>941.20</ele>
	<time>2024-07-24T11:04:09.000Z</time>
</trkpt>
<trkpt lat="46.0264200" lon="10.3767100">
	<ele>941.20</ele>
	<time>2024-07-24T11:04:10.000Z</time>
</trkpt>
<trkpt lat="46.0264250" lon="10.3766990">
	<ele>941.40</ele>
	<time>2024-07-24T11:04:11.000Z</time>
</trkpt>
<trkpt lat="46.0264240" lon="10.3766860">
	<ele>941.60</ele>
	<time>2024-07-24T11:04:12.000Z</time>
</trkpt>
<trkpt lat="46.0264170" lon="10.3766810">
	<ele>941.60</ele>
	<time>2024-07-24T11:04:13.000Z</time>
</trkpt>
<trkpt lat="46.0264060" lon="10.3766830">
	<ele>941.60</ele>
	<time>2024-07-24T11:04:14.000Z</time>
</trkpt>
<trkpt lat="46.0264080" lon="10.3766820">
	<ele>941.60</ele>
	<time>2024-07-24T11:04:15.000Z</time>
</trkpt>
<trkpt lat="46.0264030" lon="10.3766910">
	<ele>941.60</ele>
	<time>2024-07-24T11:04:16.000Z</time>
</trkpt>
<trkpt lat="46.0264040" lon="10.3767030">
	<ele>941.60</ele>
	<time>2024-07-24T11:04:17.000Z</time>
</trkpt>
<trkpt lat="46.0264040" lon="10.3767050">
	<ele>941.60</ele>
	<time>2024-07-24T11:04:18.000Z</time>
</trkpt>
<trkpt lat="46.0264020" lon="10.3767150">
	<ele>941.60</ele>
	<time>2024-07-24T11:04:19.000Z</time>
</trkpt>
<trkpt lat="46.0264050" lon="10.3767260">
	<ele>941.60</ele>
	<time>2024-07-24T11:04:20.000Z</time>
</trkpt>
<trkpt lat="46.0264060" lon="10.3767370">
	<ele>941.60</ele>
	<time>2024-07-24T11:04:21.000Z</time>
</trkpt>
<trkpt lat="46.0264050" lon="10.3767490">
	<ele>941.60</ele>
	<time>2024-07-24T11:04:22.000Z</time>
</trkpt>
<trkpt lat="46.0264020" lon="10.3767590">
	<ele>941.60</ele>
	<time>2024-07-24T11:04:23.000Z</time>
</trkpt>
<trkpt lat="46.0264070" lon="10.3767760">
	<ele>941.60</ele>
	<time>2024-07-24T11:04:24.000Z</time>
</trkpt>
<trkpt lat="46.0264160" lon="10.3767950">
	<ele>941.60</ele>
	<time>2024-07-24T11:04:25.000Z</time>
</trkpt>
<trkpt lat="46.0264250" lon="10.3768120">
	<ele>941.40</ele>
	<time>2024-07-24T11:04:26.000Z</time>
</trkpt>
<trkpt lat="46.0264340" lon="10.3768270">
	<ele>941.40</ele>
	<time>2024-07-24T11:04:27.000Z</time>
</trkpt>
<trkpt lat="46.0264390" lon="10.3768420">
	<ele>941.40</ele>
	<time>2024-07-24T11:04:28.000Z</time>
</trkpt>
<trkpt lat="46.0264430" lon="10.3768590">
	<ele>941.20</ele>
	<time>2024-07-24T11:04:29.000Z</time>
</trkpt>
<trkpt lat="46.0264410" lon="10.3768740">
	<ele>940.80</ele>
	<time>2024-07-24T11:04:30.000Z</time>
</trkpt>
<trkpt lat="46.0264410" lon="10.3768920">
	<ele>940.80</ele>
	<time>2024-07-24T11:04:31.000Z</time>
</trkpt>
<trkpt lat="46.0264460" lon="10.3769080">
	<ele>940.60</ele>
	<time>2024-07-24T11:04:32.000Z</time>
</trkpt>
<trkpt lat="46.0264530" lon="10.3769210">
	<ele>940.60</ele>
	<time>2024-07-24T11:04:33.000Z</time>
</trkpt>
<trkpt lat="46.0264610" lon="10.3769350">
	<ele>940.60</ele>
	<time>2024-07-24T11:04:34.000Z</time>
</trkpt>
<trkpt lat="46.0264740" lon="10.3769470">
	<ele>940.60</ele>
	<time>2024-07-24T11:04:35.000Z</time>
</trkpt>
<trkpt lat="46.0264830" lon="10.3769660">
	<ele>940.60</ele>
	<time>2024-07-24T11:04:36.000Z</time>
</trkpt>
<trkpt lat="46.0264880" lon="10.3769840">
	<ele>940.80</ele>
	<time>2024-07-24T11:04:37.000Z</time>
</trkpt>
<trkpt lat="46.0264920" lon="10.3769990">
	<ele>940.40</ele>
	<time>2024-07-24T11:04:38.000Z</time>
</trkpt>
<trkpt lat="46.0264980" lon="10.3770180">
	<ele>940.40</ele>
	<time>2024-07-24T11:04:39.000Z</time>
</trkpt>
<trkpt lat="46.0265060" lon="10.3770370">
	<ele>940.20</ele>
	<time>2024-07-24T11:04:40.000Z</time>
</trkpt>
<trkpt lat="46.0265150" lon="10.3770520">
	<ele>940.00</ele>
	<time>2024-07-24T11:04:41.000Z</time>
</trkpt>
<trkpt lat="46.0265260" lon="10.3770600">
	<ele>940.00</ele>
	<time>2024-07-24T11:04:42.000Z</time>
</trkpt>
<trkpt lat="46.0265310" lon="10.3770630">
	<ele>940.00</ele>
	<time>2024-07-24T11:04:43.000Z</time>
</trkpt>
<trkpt lat="46.0265350" lon="10.3770670">
	<ele>939.80</ele>
	<time>2024-07-24T11:04:44.000Z</time>
</trkpt>
<trkpt lat="46.0265380" lon="10.3770690">
	<ele>939.80</ele>
	<time>2024-07-24T11:04:45.000Z</time>
</trkpt>
<trkpt lat="46.0265440" lon="10.3770750">
	<ele>939.80</ele>
	<time>2024-07-24T11:04:46.000Z</time>
</trkpt>
<trkpt lat="46.0265490" lon="10.3770750">
	<ele>939.80</ele>
	<time>2024-07-24T11:04:47.000Z</time>
</trkpt>
<trkpt lat="46.0265450" lon="10.3770800">
	<ele>939.80</ele>
	<time>2024-07-24T11:04:48.000Z</time>
</trkpt>
<trkpt lat="46.0265450" lon="10.3770810">
	<ele>939.80</ele>
	<time>2024-07-24T11:04:49.000Z</time>
</trkpt>
<trkpt lat="46.0265490" lon="10.3770810">
	<ele>939.60</ele>
	<time>2024-07-24T11:04:50.000Z</time>
</trkpt>
<trkpt lat="46.0265430" lon="10.3770780">
	<ele>939.60</ele>
	<time>2024-07-24T11:04:51.000Z</time>
</trkpt>
<trkpt lat="46.0265440" lon="10.3770800">
	<ele>939.80</ele>
	<time>2024-07-24T11:04:52.000Z</time>
</trkpt>
<trkpt lat="46.0265420" lon="10.3770820">
	<ele>939.80</ele>
	<time>2024-07-24T11:04:53.000Z</time>
</trkpt>
<trkpt lat="46.0265420" lon="10.3770830">
	<ele>939.60</ele>
	<time>2024-07-24T11:04:54.000Z</time>
</trkpt>
<trkpt lat="46.0265360" lon="10.3770800">
	<ele>939.60</ele>
	<time>2024-07-24T11:04:55.000Z</time>
</trkpt>
<trkpt lat="46.0265390" lon="10.3770830">
	<ele>939.40</ele>
	<time>2024-07-24T11:04:56.000Z</time>
</trkpt>
<trkpt lat="46.0265390" lon="10.3770840">
	<ele>939.40</ele>
	<time>2024-07-24T11:04:57.000Z</time>
</trkpt>
<trkpt lat="46.0265290" lon="10.3770870">
	<ele>939.40</ele>
	<time>2024-07-24T11:04:58.000Z</time>
</trkpt>
<trkpt lat="46.0265280" lon="10.3770860">
	<ele>939.40</ele>
	<time>2024-07-24T11:04:59.000Z</time>
</trkpt>
<trkpt lat="46.0265110" lon="10.3770790">
	<ele>939.40</ele>
	<time>2024-07-24T11:05:00.000Z</time>
</trkpt>
<trkpt lat="46.0265130" lon="10.3770780">
	<ele>939.40</ele>
	<time>2024-07-24T11:05:01.000Z</time>
</trkpt>
<trkpt lat="46.0265160" lon="10.3770770">
	<ele>939.40</ele>
	<time>2024-07-24T11:05:02.000Z</time>
</trkpt>
<trkpt lat="46.0265180" lon="10.3770740">
	<ele>939.40</ele>
	<time>2024-07-24T11:05:03.000Z</time>
</trkpt>
<trkpt lat="46.0265180" lon="10.3770740">
	<ele>939.40</ele>
	<time>2024-07-24T11:05:04.000Z</time>
</trkpt>
<trkpt lat="46.0265130" lon="10.3770560">
	<ele>939.40</ele>
	<time>2024-07-24T11:05:05.000Z</time>
</trkpt>
<trkpt lat="46.0265130" lon="10.3770510">
	<ele>939.60</ele>
	<time>2024-07-24T11:05:06.000Z</time>
</trkpt>
<trkpt lat="46.0265130" lon="10.3770490">
	<ele>940.00</ele>
	<time>2024-07-24T11:05:07.000Z</time>
</trkpt>
<trkpt lat="46.0265140" lon="10.3770470">
	<ele>940.40</ele>
	<time>2024-07-24T11:05:08.000Z</time>
</trkpt>
<trkpt lat="46.0265140" lon="10.3770460">
	<ele>940.60</ele>
	<time>2024-07-24T11:05:09.000Z</time>
</trkpt>
<trkpt lat="46.0265130" lon="10.3770440">
	<ele>940.60</ele>
	<time>2024-07-24T11:05:10.000Z</time>
</trkpt>
<trkpt lat="46.0265120" lon="10.3770400">
	<ele>940.60</ele>
	<time>2024-07-24T11:05:11.000Z</time>
</trkpt>
<trkpt lat="46.0265120" lon="10.3770400">
	<ele>940.60</ele>
	<time>2024-07-24T11:05:12.000Z</time>
</trkpt>
<trkpt lat="46.0265120" lon="10.3770390">
	<ele>940.40</ele>
	<time>2024-07-24T11:05:13.000Z</time>
</trkpt>
<trkpt lat="46.0265170" lon="10.3770350">
	<ele>940.00</ele>
	<time>2024-07-24T11:05:14.000Z</time>
</trkpt>
<trkpt lat="46.0265200" lon="10.3770260">
	<ele>939.80</ele>
	<time>2024-07-24T11:05:15.000Z</time>
</trkpt>
<trkpt lat="46.0265250" lon="10.3770140">
	<ele>939.80</ele>
	<time>2024-07-24T11:05:16.000Z</time>
</trkpt>
<trkpt lat="46.0265260" lon="10.3770030">
	<ele>939.60</ele>
	<time>2024-07-24T11:05:17.000Z</time>
</trkpt>
<trkpt lat="46.0265230" lon="10.3769940">
	<ele>939.60</ele>
	<time>2024-07-24T11:05:18.000Z</time>
</trkpt>
<trkpt lat="46.0265150" lon="10.3769740">
	<ele>939.60</ele>
	<time>2024-07-24T11:05:19.000Z</time>
</trkpt>
<trkpt lat="46.0265140" lon="10.3769670">
	<ele>939.60</ele>
	<time>2024-07-24T11:05:20.000Z</time>
</trkpt>
<trkpt lat="46.0265110" lon="10.3769560">
	<ele>939.40</ele>
	<time>2024-07-24T11:05:21.000Z</time>
</trkpt>
<trkpt lat="46.0265070" lon="10.3769520">
	<ele>939.40</ele>
	<time>2024-07-24T11:05:22.000Z</time>
</trkpt>
<trkpt lat="46.0265080" lon="10.3769490">
	<ele>939.40</ele>
	<time>2024-07-24T11:05:23.000Z</time>
</trkpt>
<trkpt lat="46.0265090" lon="10.3769480">
	<ele>939.20</ele>
	<time>2024-07-24T11:05:24.000Z</time>
</trkpt>
<trkpt lat="46.0265090" lon="10.3769480">
	<ele>939.20</ele>
	<time>2024-07-24T11:05:25.000Z</time>
</trkpt>
<trkpt lat="46.0265090" lon="10.3769470">
	<ele>939.20</ele>
	<time>2024-07-24T11:05:26.000Z</time>
</trkpt>
<trkpt lat="46.0265110" lon="10.3769440">
	<ele>939.20</ele>
	<time>2024-07-24T11:05:27.000Z</time>
</trkpt>
<trkpt lat="46.0265130" lon="10.3769440">
	<ele>939.20</ele>
	<time>2024-07-24T11:05:28.000Z</time>
</trkpt>
<trkpt lat="46.0265140" lon="10.3769460">
	<ele>939.20</ele>
	<time>2024-07-24T11:05:29.000Z</time>
</trkpt>
<trkpt lat="46.0265140" lon="10.3769470">
	<ele>939.20</ele>
	<time>2024-07-24T11:05:30.000Z</time>
</trkpt>
<trkpt lat="46.0265140" lon="10.3769490">
	<ele>939.20</ele>
	<time>2024-07-24T11:05:31.000Z</time>
</trkpt>
<trkpt lat="46.0265160" lon="10.3769500">
	<ele>939.20</ele>
	<time>2024-07-24T11:05:32.000Z</time>
</trkpt>
<trkpt lat="46.0265140" lon="10.3769490">
	<ele>939.20</ele>
	<time>2024-07-24T11:05:33.000Z</time>
</trkpt>
<trkpt lat="46.0265140" lon="10.3769490">
	<ele>939.20</ele>
	<time>2024-07-24T11:05:34.000Z</time>
</trkpt>
<trkpt lat="46.0265140" lon="10.3769490">
	<ele>939.20</ele>
	<time>2024-07-24T11:05:35.000Z</time>
</trkpt>
<trkpt lat="46.0265140" lon="10.3769490">
	<ele>939.20</ele>
	<time>2024-07-24T11:05:36.000Z</time>
</trkpt>
<trkpt lat="46.0265140" lon="10.3769490">
	<ele>939.20</ele>
	<time>2024-07-24T11:05:37.000Z</time>
</trkpt>
<trkpt lat="46.0265140" lon="10.3769490">
	<ele>939.20</ele>
	<time>2024-07-24T11:05:38.000Z</time>
</trkpt>
<trkpt lat="46.0265140" lon="10.3769490">
	<ele>939.40</ele>
	<time>2024-07-24T11:05:39.000Z</time>
</trkpt>
<trkpt lat="46.0265140" lon="10.3769490">
	<ele>939.40</ele>
	<time>2024-07-24T11:05:40.000Z</time>
</trkpt>
<trkpt lat="46.0265140" lon="10.3769490">
	<ele>939.40</ele>
	<time>2024-07-24T11:05:41.000Z</time>
</trkpt>
<trkpt lat="46.0265140" lon="10.3769490">
	<ele>939.40</ele>
	<time>2024-07-24T11:05:42.000Z</time>
</trkpt>
<trkpt lat="46.0265140" lon="10.3769490">
	<ele>939.40</ele>
	<time>2024-07-24T11:05:43.000Z</time>
</trkpt>
<trkpt lat="46.0265140" lon="10.3769490">
	<ele>939.40</ele>
	<time>2024-07-24T11:05:44.000Z</time>
</trkpt>
<trkpt lat="46.0265140" lon="10.3769490">
	<ele>939.40</ele>
	<time>2024-07-24T11:05:45.000Z</time>
</trkpt>
<trkpt lat="46.0265130" lon="10.3769490">
	<ele>939.40</ele>
	<time>2024-07-24T11:05:46.000Z</time>
</trkpt>
<trkpt lat="46.0265130" lon="10.3769490">
	<ele>939.20</ele>
	<time>2024-07-24T11:05:47.000Z</time>
</trkpt>
<trkpt lat="46.0265130" lon="10.3769490">
	<ele>939.20</ele>
	<time>2024-07-24T11:05:48.000Z</time>
</trkpt>
<trkpt lat="46.0265120" lon="10.3769490">
	<ele>939.20</ele>
	<time>2024-07-24T11:05:49.000Z</time>
</trkpt>
<trkpt lat="46.0265120" lon="10.3769490">
	<ele>939.20</ele>
	<time>2024-07-24T11:05:50.000Z</time>
</trkpt>
<trkpt lat="46.0265120" lon="10.3769490">
	<ele>939.20</ele>
	<time>2024-07-24T11:05:51.000Z</time>
</trkpt>
<trkpt lat="46.0265120" lon="10.3769500">
	<ele>939.20</ele>
	<time>2024-07-24T11:05:52.000Z</time>
</trkpt>
<trkpt lat="46.0265120" lon="10.3769500">
	<ele>939.20</ele>
	<time>2024-07-24T11:05:53.000Z</time>
</trkpt>
<trkpt lat="46.0265110" lon="10.3769500">
	<ele>939.20</ele>
	<time>2024-07-24T11:05:54.000Z</time>
</trkpt>
<trkpt lat="46.0265110" lon="10.3769510">
	<ele>939.20</ele>
	<time>2024-07-24T11:05:55.000Z</time>
</trkpt>
<trkpt lat="46.0265110" lon="10.3769510">
	<ele>939.20</ele>
	<time>2024-07-24T11:05:56.000Z</time>
</trkpt>
<trkpt lat="46.0265110" lon="10.3769510">
	<ele>939.20</ele>
	<time>2024-07-24T11:05:57.000Z</time>
</trkpt>
<trkpt lat="46.0265110" lon="10.3769520">
	<ele>939.20</ele>
	<time>2024-07-24T11:05:58.000Z</time>
</trkpt>
<trkpt lat="46.0265100" lon="10.3769520">
	<ele>939.20</ele>
	<time>2024-07-24T11:05:59.000Z</time>
</trkpt>
<trkpt lat="46.0265100" lon="10.3769530">
	<ele>939.20</ele>
	<time>2024-07-24T11:06:00.000Z</time>
</trkpt>
<trkpt lat="46.0265080" lon="10.3769530">
	<ele>939.20</ele>
	<time>2024-07-24T11:06:01.000Z</time>
</trkpt>
<trkpt lat="46.0265070" lon="10.3769540">
	<ele>939.20</ele>
	<time>2024-07-24T11:06:02.000Z</time>
</trkpt>
<trkpt lat="46.0265070" lon="10.3769550">
	<ele>939.20</ele>
	<time>2024-07-24T11:06:03.000Z</time>
</trkpt>
<trkpt lat="46.0265070" lon="10.3769560">
	<ele>939.20</ele>
	<time>2024-07-24T11:06:04.000Z</time>
</trkpt>
<trkpt lat="46.0265070" lon="10.3769560">
	<ele>939.20</ele>
	<time>2024-07-24T11:06:05.000Z</time>
</trkpt>
<trkpt lat="46.0265070" lon="10.3769570">
	<ele>939.20</ele>
	<time>2024-07-24T11:06:06.000Z</time>
</trkpt>
<trkpt lat="46.0265060" lon="10.3769570">
	<ele>939.20</ele>
	<time>2024-07-24T11:06:07.000Z</time>
</trkpt>
<trkpt lat="46.0265060" lon="10.3769570">
	<ele>939.20</ele>
	<time>2024-07-24T11:06:08.000Z</time>
</trkpt>
<trkpt lat="46.0265050" lon="10.3769580">
	<ele>939.20</ele>
	<time>2024-07-24T11:06:09.000Z</time>
</trkpt>
<trkpt lat="46.0265050" lon="10.3769590">
	<ele>939.20</ele>
	<time>2024-07-24T11:06:10.000Z</time>
</trkpt>
<trkpt lat="46.0265050" lon="10.3769650">
	<ele>939.20</ele>
	<time>2024-07-24T11:06:11.000Z</time>
</trkpt>
<trkpt lat="46.0265050" lon="10.3769680">
	<ele>939.20</ele>
	<time>2024-07-24T11:06:12.000Z</time>
</trkpt>
<trkpt lat="46.0265040" lon="10.3769730">
	<ele>939.20</ele>
	<time>2024-07-24T11:06:13.000Z</time>
</trkpt>
<trkpt lat="46.0265020" lon="10.3769790">
	<ele>939.20</ele>
	<time>2024-07-24T11:06:14.000Z</time>
</trkpt>
<trkpt lat="46.0264970" lon="10.3769930">
	<ele>939.20</ele>
	<time>2024-07-24T11:06:15.000Z</time>
</trkpt>
<trkpt lat="46.0264910" lon="10.3769960">
	<ele>939.20</ele>
	<time>2024-07-24T11:06:16.000Z</time>
</trkpt>
<trkpt lat="46.0264810" lon="10.3769970">
	<ele>939.20</ele>
	<time>2024-07-24T11:06:17.000Z</time>
</trkpt>
<trkpt lat="46.0264680" lon="10.3769970">
	<ele>939.20</ele>
	<time>2024-07-24T11:06:18.000Z</time>
</trkpt>
<trkpt lat="46.0264600" lon="10.3769970">
	<ele>939.20</ele>
	<time>2024-07-24T11:06:19.000Z</time>
</trkpt>
<trkpt lat="46.0264570" lon="10.3769990">
	<ele>939.20</ele>
	<time>2024-07-24T11:06:20.000Z</time>
</trkpt>
<trkpt lat="46.0264550" lon="10.3770020">
	<ele>939.20</ele>
	<time>2024-07-24T11:06:21.000Z</time>
</trkpt>
<trkpt lat="46.0264540" lon="10.3770020">
	<ele>939.20</ele>
	<time>2024-07-24T11:06:22.000Z</time>
</trkpt>
<trkpt lat="46.0264540" lon="10.3770030">
	<ele>939.20</ele>
	<time>2024-07-24T11:06:23.000Z</time>
</trkpt>
<trkpt lat="46.0264540" lon="10.3770050">
	<ele>939.20</ele>
	<time>2024-07-24T11:06:24.000Z</time>
</trkpt>
<trkpt lat="46.0264530" lon="10.3770060">
	<ele>939.20</ele>
	<time>2024-07-24T11:06:25.000Z</time>
</trkpt>
<trkpt lat="46.0264530" lon="10.3770070">
	<ele>939.20</ele>
	<time>2024-07-24T11:06:26.000Z</time>
</trkpt>
<trkpt lat="46.0264530" lon="10.3770070">
	<ele>939.20</ele>
	<time>2024-07-24T11:06:27.000Z</time>
</trkpt>
<trkpt lat="46.0264530" lon="10.3770080">
	<ele>939.20</ele>
	<time>2024-07-24T11:06:28.000Z</time>
</trkpt>
<trkpt lat="46.0264530" lon="10.3770080">
	<ele>939.20</ele>
	<time>2024-07-24T11:06:29.000Z</time>
</trkpt>
<trkpt lat="46.0264530" lon="10.3770090">
	<ele>939.20</ele>
	<time>2024-07-24T11:06:30.000Z</time>
</trkpt>
<trkpt lat="46.0264530" lon="10.3770100">
	<ele>939.20</ele>
	<time>2024-07-24T11:06:31.000Z</time>
</trkpt>
<trkpt lat="46.0264530" lon="10.3770100">
	<ele>939.20</ele>
	<time>2024-07-24T11:06:32.000Z</time>
</trkpt>
<trkpt lat="46.0264530" lon="10.3770100">
	<ele>939.20</ele>
	<time>2024-07-24T11:06:33.000Z</time>
</trkpt>
<trkpt lat="46.0264530" lon="10.3770110">
	<ele>939.20</ele>
	<time>2024-07-24T11:06:34.000Z</time>
</trkpt>
<trkpt lat="46.0264530" lon="10.3770160">
	<ele>939.20</ele>
	<time>2024-07-24T11:06:35.000Z</time>
</trkpt>
<trkpt lat="46.0264560" lon="10.3770210">
	<ele>939.20</ele>
	<time>2024-07-24T11:06:36.000Z</time>
</trkpt>
<trkpt lat="46.0264600" lon="10.3770160">
	<ele>939.20</ele>
	<time>2024-07-24T11:06:37.000Z</time>
</trkpt>
<trkpt lat="46.0264650" lon="10.3770160">
	<ele>939.20</ele>
	<time>2024-07-24T11:06:38.000Z</time>
</trkpt>
<trkpt lat="46.0264640" lon="10.3770140">
	<ele>939.20</ele>
	<time>2024-07-24T11:06:39.000Z</time>
</trkpt>
<trkpt lat="46.0264640" lon="10.3770190">
	<ele>939.20</ele>
	<time>2024-07-24T11:06:40.000Z</time>
</trkpt>
<trkpt lat="46.0264680" lon="10.3770250">
	<ele>939.20</ele>
	<time>2024-07-24T11:06:41.000Z</time>
</trkpt>
<trkpt lat="46.0264720" lon="10.3770270">
	<ele>939.20</ele>
	<time>2024-07-24T11:06:42.000Z</time>
</trkpt>
<trkpt lat="46.0264820" lon="10.3770420">
	<ele>939.20</ele>
	<time>2024-07-24T11:06:43.000Z</time>
</trkpt>
<trkpt lat="46.0264870" lon="10.3770520">
	<ele>939.20</ele>
	<time>2024-07-24T11:06:44.000Z</time>
</trkpt>
<trkpt lat="46.0264980" lon="10.3770630">
	<ele>939.20</ele>
	<time>2024-07-24T11:06:45.000Z</time>
</trkpt>
<trkpt lat="46.0265030" lon="10.3770660">
	<ele>939.20</ele>
	<time>2024-07-24T11:06:46.000Z</time>
</trkpt>
<trkpt lat="46.0265060" lon="10.3770680">
	<ele>939.20</ele>
	<time>2024-07-24T11:06:47.000Z</time>
</trkpt>
<trkpt lat="46.0265030" lon="10.3770620">
	<ele>939.20</ele>
	<time>2024-07-24T11:06:48.000Z</time>
</trkpt>
<trkpt lat="46.0264960" lon="10.3770560">
	<ele>939.20</ele>
	<time>2024-07-24T11:06:49.000Z</time>
</trkpt>
<trkpt lat="46.0264780" lon="10.3770500">
	<ele>939.20</ele>
	<time>2024-07-24T11:06:50.000Z</time>
</trkpt>
<trkpt lat="46.0264720" lon="10.3770470">
	<ele>939.20</ele>
	<time>2024-07-24T11:06:51.000Z</time>
</trkpt>
<trkpt lat="46.0264690" lon="10.3770440">
	<ele>939.20</ele>
	<time>2024-07-24T11:06:52.000Z</time>
</trkpt>
<trkpt lat="46.0264660" lon="10.3770430">
	<ele>939.20</ele>
	<time>2024-07-24T11:06:53.000Z</time>
</trkpt>
<trkpt lat="46.0264650" lon="10.3770430">
	<ele>939.20</ele>
	<time>2024-07-24T11:06:54.000Z</time>
</trkpt>
<trkpt lat="46.0264640" lon="10.3770440">
	<ele>939.20</ele>
	<time>2024-07-24T11:06:55.000Z</time>
</trkpt>
<trkpt lat="46.0264630" lon="10.3770440">
	<ele>939.20</ele>
	<time>2024-07-24T11:06:56.000Z</time>
</trkpt>
<trkpt lat="46.0264700" lon="10.3770420">
	<ele>939.20</ele>
	<time>2024-07-24T11:06:57.000Z</time>
</trkpt>
<trkpt lat="46.0264680" lon="10.3770400">
	<ele>939.20</ele>
	<time>2024-07-24T11:06:58.000Z</time>
</trkpt>
<trkpt lat="46.0264710" lon="10.3770380">
	<ele>939.20</ele>
	<time>2024-07-24T11:06:59.000Z</time>
</trkpt>
<trkpt lat="46.0264680" lon="10.3770320">
	<ele>939.20</ele>
	<time>2024-07-24T11:07:00.000Z</time>
</trkpt>
<trkpt lat="46.0264670" lon="10.3770290">
	<ele>939.20</ele>
	<time>2024-07-24T11:07:01.000Z</time>
</trkpt>
<trkpt lat="46.0264630" lon="10.3770240">
	<ele>939.20</ele>
	<time>2024-07-24T11:07:02.000Z</time>
</trkpt>
<trkpt lat="46.0264600" lon="10.3770260">
	<ele>939.20</ele>
	<time>2024-07-24T11:07:03.000Z</time>
</trkpt>
<trkpt lat="46.0264560" lon="10.3770280">
	<ele>939.20</ele>
	<time>2024-07-24T11:07:04.000Z</time>
</trkpt>
<trkpt lat="46.0264620" lon="10.3770300">
	<ele>939.20</ele>
	<time>2024-07-24T11:07:05.000Z</time>
</trkpt>
<trkpt lat="46.0264630" lon="10.3770300">
	<ele>939.20</ele>
	<time>2024-07-24T11:07:06.000Z</time>
</trkpt>
<trkpt lat="46.0264630" lon="10.3770260">
	<ele>939.20</ele>
	<time>2024-07-24T11:07:07.000Z</time>
</trkpt>
<trkpt lat="46.0264770" lon="10.3770720">
	<ele>939.20</ele>
	<time>2024-07-24T11:07:08.000Z</time>
</trkpt>
<trkpt lat="46.0264780" lon="10.3770820">
	<ele>939.20</ele>
	<time>2024-07-24T11:07:09.000Z</time>
</trkpt>
<trkpt lat="46.0264810" lon="10.3770840">
	<ele>939.20</ele>
	<time>2024-07-24T11:07:10.000Z</time>
</trkpt>
<trkpt lat="46.0264840" lon="10.3770880">
	<ele>939.20</ele>
	<time>2024-07-24T11:07:11.000Z</time>
</trkpt>
<trkpt lat="46.0264890" lon="10.3770950">
	<ele>939.20</ele>
	<time>2024-07-24T11:07:12.000Z</time>
</trkpt>
<trkpt lat="46.0264960" lon="10.3771040">
	<ele>939.20</ele>
	<time>2024-07-24T11:07:13.000Z</time>
</trkpt>
<trkpt lat="46.0265040" lon="10.3771040">
	<ele>939.20</ele>
	<time>2024-07-24T11:07:14.000Z</time>
</trkpt>
<trkpt lat="46.0265090" lon="10.3771060">
	<ele>939.20</ele>
	<time>2024-07-24T11:07:15.000Z</time>
</trkpt>
<trkpt lat="46.0265080" lon="10.3771050">
	<ele>939.20</ele>
	<time>2024-07-24T11:07:16.000Z</time>
</trkpt>
<trkpt lat="46.0265040" lon="10.3771010">
	<ele>939.20</ele>
	<time>2024-07-24T11:07:17.000Z</time>
</trkpt>
<trkpt lat="46.0265090" lon="10.3771220">
	<ele>939.20</ele>
	<time>2024-07-24T11:07:18.000Z</time>
</trkpt>
<trkpt lat="46.0265090" lon="10.3771290">
	<ele>939.20</ele>
	<time>2024-07-24T11:07:19.000Z</time>
</trkpt>
<trkpt lat="46.0265120" lon="10.3771220">
	<ele>939.20</ele>
	<time>2024-07-24T11:07:20.000Z</time>
</trkpt>
<trkpt lat="46.0265150" lon="10.3771220">
	<ele>939.20</ele>
	<time>2024-07-24T11:07:21.000Z</time>
</trkpt>
<trkpt lat="46.0265230" lon="10.3771310">
	<ele>939.20</ele>
	<time>2024-07-24T11:07:22.000Z</time>
</trkpt>
<trkpt lat="46.0265220" lon="10.3771360">
	<ele>939.20</ele>
	<time>2024-07-24T11:07:23.000Z</time>
</trkpt>
<trkpt lat="46.0265230" lon="10.3771350">
	<ele>939.20</ele>
	<time>2024-07-24T11:07:24.000Z</time>
</trkpt>
<trkpt lat="46.0265270" lon="10.3771370">
	<ele>939.20</ele>
	<time>2024-07-24T11:07:25.000Z</time>
</trkpt>
<trkpt lat="46.0265240" lon="10.3771320">
	<ele>939.20</ele>
	<time>2024-07-24T11:07:26.000Z</time>
</trkpt>
<trkpt lat="46.0265180" lon="10.3771260">
	<ele>939.20</ele>
	<time>2024-07-24T11:07:27.000Z</time>
</trkpt>
<trkpt lat="46.0265190" lon="10.3771270">
	<ele>939.20</ele>
	<time>2024-07-24T11:07:28.000Z</time>
</trkpt>
<trkpt lat="46.0265200" lon="10.3771300">
	<ele>939.20</ele>
	<time>2024-07-24T11:07:29.000Z</time>
</trkpt>
<trkpt lat="46.0265270" lon="10.3771460">
	<ele>939.20</ele>
	<time>2024-07-24T11:07:30.000Z</time>
</trkpt>
<trkpt lat="46.0265270" lon="10.3771500">
	<ele>939.20</ele>
	<time>2024-07-24T11:07:31.000Z</time>
</trkpt>
<trkpt lat="46.0265270" lon="10.3771490">
	<ele>939.20</ele>
	<time>2024-07-24T11:07:32.000Z</time>
</trkpt>
<trkpt lat="46.0265340" lon="10.3771410">
	<ele>939.20</ele>
	<time>2024-07-24T11:07:33.000Z</time>
</trkpt>
<trkpt lat="46.0265450" lon="10.3771390">
	<ele>939.20</ele>
	<time>2024-07-24T11:07:34.000Z</time>
</trkpt>
<trkpt lat="46.0265470" lon="10.3771420">
	<ele>939.20</ele>
	<time>2024-07-24T11:07:35.000Z</time>
</trkpt>
<trkpt lat="46.0265530" lon="10.3771450">
	<ele>939.20</ele>
	<time>2024-07-24T11:07:36.000Z</time>
</trkpt>
<trkpt lat="46.0265490" lon="10.3771530">
	<ele>939.20</ele>
	<time>2024-07-24T11:07:37.000Z</time>
</trkpt>
<trkpt lat="46.0265480" lon="10.3771650">
	<ele>939.20</ele>
	<time>2024-07-24T11:07:38.000Z</time>
</trkpt>
<trkpt lat="46.0265500" lon="10.3771590">
	<ele>939.20</ele>
	<time>2024-07-24T11:07:39.000Z</time>
</trkpt>
<trkpt lat="46.0265510" lon="10.3771460">
	<ele>939.20</ele>
	<time>2024-07-24T11:07:40.000Z</time>
</trkpt>
<trkpt lat="46.0265370" lon="10.3771390">
	<ele>939.20</ele>
	<time>2024-07-24T11:07:41.000Z</time>
</trkpt>
<trkpt lat="46.0265350" lon="10.3771390">
	<ele>939.20</ele>
	<time>2024-07-24T11:07:42.000Z</time>
</trkpt>
<trkpt lat="46.0265550" lon="10.3771390">
	<ele>939.20</ele>
	<time>2024-07-24T11:07:43.000Z</time>
</trkpt>
<trkpt lat="46.0265620" lon="10.3771390">
	<ele>939.20</ele>
	<time>2024-07-24T11:07:44.000Z</time>
</trkpt>
<trkpt lat="46.0265660" lon="10.3771410">
	<ele>939.20</ele>
	<time>2024-07-24T11:07:45.000Z</time>
</trkpt>
<trkpt lat="46.0265630" lon="10.3771410">
	<ele>939.20</ele>
	<time>2024-07-24T11:07:46.000Z</time>
</trkpt>
<trkpt lat="46.0265670" lon="10.3771410">
	<ele>939.20</ele>
	<time>2024-07-24T11:07:47.000Z</time>
</trkpt>
<trkpt lat="46.0265620" lon="10.3771340">
	<ele>939.20</ele>
	<time>2024-07-24T11:07:48.000Z</time>
</trkpt>
<trkpt lat="46.0265620" lon="10.3771310">
	<ele>939.20</ele>
	<time>2024-07-24T11:07:49.000Z</time>
</trkpt>
<trkpt lat="46.0265640" lon="10.3771280">
	<ele>939.20</ele>
	<time>2024-07-24T11:07:50.000Z</time>
</trkpt>
<trkpt lat="46.0265630" lon="10.3771240">
	<ele>939.20</ele>
	<time>2024-07-24T11:07:51.000Z</time>
</trkpt>
<trkpt lat="46.0265580" lon="10.3771160">
	<ele>939.20</ele>
	<time>2024-07-24T11:07:52.000Z</time>
</trkpt>
<trkpt lat="46.0265550" lon="10.3771100">
	<ele>939.20</ele>
	<time>2024-07-24T11:07:53.000Z</time>
</trkpt>
<trkpt lat="46.0265500" lon="10.3771000">
	<ele>939.20</ele>
	<time>2024-07-24T11:07:54.000Z</time>
</trkpt>
<trkpt lat="46.0265500" lon="10.3770960">
	<ele>939.20</ele>
	<time>2024-07-24T11:07:55.000Z</time>
</trkpt>
<trkpt lat="46.0265350" lon="10.3770900">
	<ele>939.20</ele>
	<time>2024-07-24T11:07:56.000Z</time>
</trkpt>
<trkpt lat="46.0265340" lon="10.3770580">
	<ele>939.20</ele>
	<time>2024-07-24T11:07:57.000Z</time>
</trkpt>
<trkpt lat="46.0265330" lon="10.3770670">
	<ele>939.20</ele>
	<time>2024-07-24T11:07:58.000Z</time>
</trkpt>
<trkpt lat="46.0265330" lon="10.3770600">
	<ele>939.20</ele>
	<time>2024-07-24T11:07:59.000Z</time>
</trkpt>
<trkpt lat="46.0265320" lon="10.3770530">
	<ele>939.20</ele>
	<time>2024-07-24T11:08:00.000Z</time>
</trkpt>
<trkpt lat="46.0265020" lon="10.3769450">
	<ele>939.20</ele>
	<time>2024-07-24T11:08:18.000Z</time>
</trkpt>
<trkpt lat="46.0264600" lon="10.3770380">
	<ele>939.20</ele>
	<time>2024-07-24T11:08:23.000Z</time>
</trkpt>
<trkpt lat="46.0264010" lon="10.3769810">
	<ele>939.20</ele>
	<time>2024-07-24T11:08:24.000Z</time>
</trkpt>
<trkpt lat="46.0263870" lon="10.3770100">
	<ele>939.20</ele>
	<time>2024-07-24T11:08:25.000Z</time>
</trkpt>
<trkpt lat="46.0264330" lon="10.3770570">
	<ele>939.20</ele>
	<time>2024-07-24T11:08:26.000Z</time>
</trkpt>
<trkpt lat="46.0264290" lon="10.3770490">
	<ele>939.20</ele>
	<time>2024-07-24T11:08:28.000Z</time>
</trkpt>
<trkpt lat="46.0264460" lon="10.3770840">
	<ele>939.20</ele>
	<time>2024-07-24T11:08:29.000Z</time>
</trkpt>
<trkpt lat="46.0264440" lon="10.3770760">
	<ele>939.20</ele>
	<time>2024-07-24T11:08:31.000Z</time>
</trkpt>
<trkpt lat="46.0264450" lon="10.3770730">
	<ele>939.20</ele>
	<time>2024-07-24T11:08:32.000Z</time>
</trkpt>
<trkpt lat="46.0264460" lon="10.3770700">
	<ele>939.20</ele>
	<time>2024-07-24T11:08:33.000Z</time>
</trkpt>
<trkpt lat="46.0264460" lon="10.3770320">
	<ele>939.20</ele>
	<time>2024-07-24T11:08:34.000Z</time>
</trkpt>
<trkpt lat="46.0264400" lon="10.3770110">
	<ele>939.20</ele>
	<time>2024-07-24T11:08:35.000Z</time>
</trkpt>
<trkpt lat="46.0264390" lon="10.3770110">
	<ele>939.20</ele>
	<time>2024-07-24T11:08:36.000Z</time>
</trkpt>
<trkpt lat="46.0264300" lon="10.3770130">
	<ele>939.20</ele>
	<time>2024-07-24T11:08:37.000Z</time>
</trkpt>
<trkpt lat="46.0264020" lon="10.3770130">
	<ele>939.20</ele>
	<time>2024-07-24T11:08:38.000Z</time>
</trkpt>
<trkpt lat="46.0264030" lon="10.3770130">
	<ele>939.20</ele>
	<time>2024-07-24T11:08:39.000Z</time>
</trkpt>
<trkpt lat="46.0264030" lon="10.3770110">
	<ele>939.20</ele>
	<time>2024-07-24T11:08:40.000Z</time>
</trkpt>
<trkpt lat="46.0264210" lon="10.3770080">
	<ele>939.20</ele>
	<time>2024-07-24T11:08:41.000Z</time>
</trkpt>
<trkpt lat="46.0264190" lon="10.3770050">
	<ele>939.20</ele>
	<time>2024-07-24T11:08:42.000Z</time>
</trkpt>
<trkpt lat="46.0264180" lon="10.3770050">
	<ele>939.20</ele>
	<time>2024-07-24T11:08:43.000Z</time>
</trkpt>
<trkpt lat="46.0264190" lon="10.3770050">
	<ele>939.20</ele>
	<time>2024-07-24T11:08:44.000Z</time>
</trkpt>
<trkpt lat="46.0264220" lon="10.3769940">
	<ele>939.20</ele>
	<time>2024-07-24T11:08:45.000Z</time>
</trkpt>
<trkpt lat="46.0264110" lon="10.3769800">
	<ele>939.20</ele>
	<time>2024-07-24T11:08:46.000Z</time>
</trkpt>
<trkpt lat="46.0264030" lon="10.3769680">
	<ele>939.20</ele>
	<time>2024-07-24T11:08:47.000Z</time>
</trkpt>
<trkpt lat="46.0264040" lon="10.3769590">
	<ele>939.20</ele>
	<time>2024-07-24T11:08:48.000Z</time>
</trkpt>
<trkpt lat="46.0264040" lon="10.3769500">
	<ele>939.20</ele>
	<time>2024-07-24T11:08:49.000Z</time>
</trkpt>
<trkpt lat="46.0263890" lon="10.3769310">
	<ele>939.20</ele>
	<time>2024-07-24T11:08:50.000Z</time>
</trkpt>
<trkpt lat="46.0263880" lon="10.3769220">
	<ele>939.20</ele>
	<time>2024-07-24T11:08:51.000Z</time>
</trkpt>
<trkpt lat="46.0263980" lon="10.3769280">
	<ele>939.20</ele>
	<time>2024-07-24T11:08:53.000Z</time>
</trkpt>
<trkpt lat="46.0263970" lon="10.3769330">
	<ele>939.20</ele>
	<time>2024-07-24T11:08:55.000Z</time>
</trkpt>
<trkpt lat="46.0263710" lon="10.3769270">
	<ele>939.20</ele>
	<time>2024-07-24T11:08:56.000Z</time>
</trkpt>
<trkpt lat="46.0263810" lon="10.3769410">
	<ele>939.20</ele>
	<time>2024-07-24T11:08:57.000Z</time>
</trkpt>
<trkpt lat="46.0264080" lon="10.3769570">
	<ele>939.20</ele>
	<time>2024-07-24T11:08:58.000Z</time>
</trkpt>
<trkpt lat="46.0264320" lon="10.3769810">
	<ele>939.20</ele>
	<time>2024-07-24T11:08:59.000Z</time>
</trkpt>
<trkpt lat="46.0264350" lon="10.3769860">
	<ele>939.20</ele>
	<time>2024-07-24T11:09:00.000Z</time>
</trkpt>
<trkpt lat="46.0264350" lon="10.3769900">
	<ele>939.20</ele>
	<time>2024-07-24T11:09:01.000Z</time>
</trkpt>
<trkpt lat="46.0264360" lon="10.3769940">
	<ele>939.20</ele>
	<time>2024-07-24T11:09:02.000Z</time>
</trkpt>
<trkpt lat="46.0264410" lon="10.3769870">
	<ele>939.20</ele>
	<time>2024-07-24T11:09:03.000Z</time>
</trkpt>
<trkpt lat="46.0264360" lon="10.3769860">
	<ele>939.20</ele>
	<time>2024-07-24T11:09:04.000Z</time>
</trkpt>
<trkpt lat="46.0264330" lon="10.3769880">
	<ele>939.20</ele>
	<time>2024-07-24T11:09:05.000Z</time>
</trkpt>
<trkpt lat="46.0264200" lon="10.3769680">
	<ele>939.20</ele>
	<time>2024-07-24T11:09:06.000Z</time>
</trkpt>
<trkpt lat="46.0264170" lon="10.3769680">
	<ele>939.20</ele>
	<time>2024-07-24T11:09:07.000Z</time>
</trkpt>
<trkpt lat="46.0264140" lon="10.3769680">
	<ele>939.20</ele>
	<time>2024-07-24T11:09:08.000Z</time>
</trkpt>
<trkpt lat="46.0263980" lon="10.3769550">
	<ele>939.20</ele>
	<time>2024-07-24T11:09:09.000Z</time>
</trkpt>
<trkpt lat="46.0263660" lon="10.3769350">
	<ele>939.20</ele>
	<time>2024-07-24T11:09:10.000Z</time>
</trkpt>
<trkpt lat="46.0263680" lon="10.3769360">
	<ele>939.20</ele>
	<time>2024-07-24T11:09:11.000Z</time>
</trkpt>
<trkpt lat="46.0263620" lon="10.3769370">
	<ele>939.20</ele>
	<time>2024-07-24T11:09:12.000Z</time>
</trkpt>
<trkpt lat="46.0263590" lon="10.3769390">
	<ele>939.20</ele>
	<time>2024-07-24T11:09:13.000Z</time>
</trkpt>
<trkpt lat="46.0263550" lon="10.3769410">
	<ele>939.20</ele>
	<time>2024-07-24T11:09:14.000Z</time>
</trkpt>
<trkpt lat="46.0263430" lon="10.3769360">
	<ele>939.20</ele>
	<time>2024-07-24T11:09:15.000Z</time>
</trkpt>
<trkpt lat="46.0263440" lon="10.3769370">
	<ele>939.20</ele>
	<time>2024-07-24T11:09:16.000Z</time>
</trkpt>
<trkpt lat="46.0263410" lon="10.3769390">
	<ele>939.20</ele>
	<time>2024-07-24T11:09:17.000Z</time>
</trkpt>
<trkpt lat="46.0263490" lon="10.3769450">
	<ele>939.20</ele>
	<time>2024-07-24T11:09:18.000Z</time>
</trkpt>
<trkpt lat="46.0263510" lon="10.3769400">
	<ele>939.20</ele>
	<time>2024-07-24T11:09:19.000Z</time>
</trkpt>
<trkpt lat="46.0263530" lon="10.3769400">
	<ele>939.20</ele>
	<time>2024-07-24T11:09:20.000Z</time>
</trkpt>
<trkpt lat="46.0263600" lon="10.3769320">
	<ele>939.20</ele>
	<time>2024-07-24T11:09:21.000Z</time>
</trkpt>
<trkpt lat="46.0263570" lon="10.3769190">
	<ele>939.20</ele>
	<time>2024-07-24T11:09:22.000Z</time>
</trkpt>
<trkpt lat="46.0263650" lon="10.3769120">
	<ele>939.20</ele>
	<time>2024-07-24T11:09:24.000Z</time>
</trkpt>
<trkpt lat="46.0263600" lon="10.3769150">
	<ele>939.20</ele>
	<time>2024-07-24T11:09:25.000Z</time>
</trkpt>
<trkpt lat="46.0263680" lon="10.3769170">
	<ele>939.20</ele>
	<time>2024-07-24T11:09:27.000Z</time>
</trkpt>
<trkpt lat="46.0263730" lon="10.3769060">
	<ele>939.20</ele>
	<time>2024-07-24T11:09:28.000Z</time>
</trkpt>
<trkpt lat="46.0263750" lon="10.3769060">
	<ele>939.20</ele>
	<time>2024-07-24T11:09:29.000Z</time>
</trkpt>
<trkpt lat="46.0263770" lon="10.3769090">
	<ele>939.20</ele>
	<time>2024-07-24T11:09:30.000Z</time>
</trkpt>
<trkpt lat="46.0263820" lon="10.3769000">
	<ele>939.20</ele>
	<time>2024-07-24T11:09:31.000Z</time>
</trkpt>
<trkpt lat="46.0263910" lon="10.3769030">
	<ele>939.20</ele>
	<time>2024-07-24T11:09:32.000Z</time>
</trkpt>
<trkpt lat="46.0263930" lon="10.3769120">
	<ele>939.20</ele>
	<time>2024-07-24T11:09:33.000Z</time>
</trkpt>
<trkpt lat="46.0263870" lon="10.3769100">
	<ele>939.20</ele>
	<time>2024-07-24T11:09:35.000Z</time>
</trkpt>
<trkpt lat="46.0263870" lon="10.3769090">
	<ele>939.20</ele>
	<time>2024-07-24T11:09:38.000Z</time>
</trkpt>
<trkpt lat="46.0264000" lon="10.3769150">
	<ele>939.20</ele>
	<time>2024-07-24T11:09:39.000Z</time>
</trkpt>
<trkpt lat="46.0264120" lon="10.3769280">
	<ele>939.20</ele>
	<time>2024-07-24T11:09:40.000Z</time>
</trkpt>
<trkpt lat="46.0263540" lon="10.3769130">
	<ele>939.20</ele>
	<time>2024-07-24T11:09:41.000Z</time>
</trkpt>
<trkpt lat="46.0263350" lon="10.3768990">
	<ele>939.20</ele>
	<time>2024-07-24T11:09:42.000Z</time>
</trkpt>
<trkpt lat="46.0263310" lon="10.3768930">
	<ele>939.20</ele>
	<time>2024-07-24T11:09:43.000Z</time>
</trkpt>
<trkpt lat="46.0263410" lon="10.3768940">
	<ele>939.20</ele>
	<time>2024-07-24T11:09:44.000Z</time>
</trkpt>
<trkpt lat="46.0263390" lon="10.3768950">
	<ele>939.20</ele>
	<time>2024-07-24T11:09:45.000Z</time>
</trkpt>
<trkpt lat="46.0263330" lon="10.3768960">
	<ele>939.20</ele>
	<time>2024-07-24T11:09:46.000Z</time>
</trkpt>
<trkpt lat="46.0263270" lon="10.3768980">
	<ele>939.20</ele>
	<time>2024-07-24T11:09:47.000Z</time>
</trkpt>
<trkpt lat="46.0263380" lon="10.3769090">
	<ele>939.20</ele>
	<time>2024-07-24T11:09:48.000Z</time>
</trkpt>
<trkpt lat="46.0263560" lon="10.3769180">
	<ele>939.20</ele>
	<time>2024-07-24T11:09:49.000Z</time>
</trkpt>
<trkpt lat="46.0263710" lon="10.3769120">
	<ele>939.20</ele>
	<time>2024-07-24T11:09:50.000Z</time>
</trkpt>
<trkpt lat="46.0263770" lon="10.3769100">
	<ele>939.20</ele>
	<time>2024-07-24T11:09:51.000Z</time>
</trkpt>
<trkpt lat="46.0263830" lon="10.3769000">
	<ele>939.20</ele>
	<time>2024-07-24T11:09:52.000Z</time>
</trkpt>
<trkpt lat="46.0263750" lon="10.3768880">
	<ele>939.20</ele>
	<time>2024-07-24T11:09:53.000Z</time>
</trkpt>
<trkpt lat="46.0263770" lon="10.3768890">
	<ele>939.20</ele>
	<time>2024-07-24T11:09:54.000Z</time>
</trkpt>
<trkpt lat="46.0263840" lon="10.3768970">
	<ele>939.20</ele>
	<time>2024-07-24T11:09:55.000Z</time>
</trkpt>
<trkpt lat="46.0263880" lon="10.3769020">
	<ele>939.20</ele>
	<time>2024-07-24T11:09:56.000Z</time>
</trkpt>
<trkpt lat="46.0263870" lon="10.3768980">
	<ele>939.20</ele>
	<time>2024-07-24T11:09:59.000Z</time>
</trkpt>
<trkpt lat="46.0263500" lon="10.3768950">
	<ele>939.20</ele>
	<time>2024-07-24T11:10:00.000Z</time>
</trkpt>
<trkpt lat="46.0263370" lon="10.3769060">
	<ele>939.20</ele>
	<time>2024-07-24T11:10:01.000Z</time>
</trkpt>
<trkpt lat="46.0263270" lon="10.3769140">
	<ele>939.20</ele>
	<time>2024-07-24T11:10:02.000Z</time>
</trkpt>
<trkpt lat="46.0263140" lon="10.3769180">
	<ele>939.20</ele>
	<time>2024-07-24T11:10:03.000Z</time>
</trkpt>
<trkpt lat="46.0263090" lon="10.3769220">
	<ele>939.20</ele>
	<time>2024-07-24T11:10:04.000Z</time>
</trkpt>
<trkpt lat="46.0262860" lon="10.3769130">
	<ele>939.20</ele>
	<time>2024-07-24T11:10:06.000Z</time>
</trkpt>
<trkpt lat="46.0263010" lon="10.3769180">
	<ele>939.20</ele>
	<time>2024-07-24T11:10:07.000Z</time>
</trkpt>
<trkpt lat="46.0263210" lon="10.3769250">
	<ele>939.20</ele>
	<time>2024-07-24T11:10:08.000Z</time>
</trkpt>
<trkpt lat="46.0263400" lon="10.3769290">
	<ele>939.20</ele>
	<time>2024-07-24T11:10:09.000Z</time>
</trkpt>
<trkpt lat="46.0264010" lon="10.3769480">
	<ele>939.20</ele>
	<time>2024-07-24T11:10:10.000Z</time>
</trkpt>
<trkpt lat="46.0264080" lon="10.3769630">
	<ele>939.20</ele>
	<time>2024-07-24T11:10:11.000Z</time>
</trkpt>
<trkpt lat="46.0264270" lon="10.3769790">
	<ele>939.20</ele>
	<time>2024-07-24T11:10:12.000Z</time>
</trkpt>
<trkpt lat="46.0264320" lon="10.3769850">
	<ele>939.20</ele>
	<time>2024-07-24T11:10:13.000Z</time>
</trkpt>
<trkpt lat="46.0264320" lon="10.3769880">
	<ele>939.20</ele>
	<time>2024-07-24T11:10:14.000Z</time>
</trkpt>
<trkpt lat="46.0264150" lon="10.3769900">
	<ele>939.20</ele>
	<time>2024-07-24T11:10:15.000Z</time>
</trkpt>
<trkpt lat="46.0263970" lon="10.3769900">
	<ele>939.20</ele>
	<time>2024-07-24T11:10:16.000Z</time>
</trkpt>
<trkpt lat="46.0263890" lon="10.3770010">
	<ele>939.20</ele>
	<time>2024-07-24T11:10:17.000Z</time>
</trkpt>
<trkpt lat="46.0263860" lon="10.3770020">
	<ele>939.40</ele>
	<time>2024-07-24T11:10:18.000Z</time>
</trkpt>
<trkpt lat="46.0263830" lon="10.3770000">
	<ele>939.40</ele>
	<time>2024-07-24T11:10:19.000Z</time>
</trkpt>
<trkpt lat="46.0263790" lon="10.3769880">
	<ele>939.40</ele>
	<time>2024-07-24T11:10:20.000Z</time>
</trkpt>
<trkpt lat="46.0263780" lon="10.3769860">
	<ele>939.60</ele>
	<time>2024-07-24T11:10:21.000Z</time>
</trkpt>
<trkpt lat="46.0263730" lon="10.3769840">
	<ele>939.60</ele>
	<time>2024-07-24T11:10:24.000Z</time>
</trkpt>
<trkpt lat="46.0263800" lon="10.3769800">
	<ele>939.60</ele>
	<time>2024-07-24T11:10:25.000Z</time>
</trkpt>
<trkpt lat="46.0263610" lon="10.3769790">
	<ele>939.60</ele>
	<time>2024-07-24T11:10:28.000Z</time>
</trkpt>
<trkpt lat="46.0263580" lon="10.3769870">
	<ele>939.60</ele>
	<time>2024-07-24T11:10:30.000Z</time>
</trkpt>
<trkpt lat="46.0263620" lon="10.3769910">
	<ele>939.60</ele>
	<time>2024-07-24T11:10:31.000Z</time>
</trkpt>
<trkpt lat="46.0263580" lon="10.3770010">
	<ele>939.80</ele>
	<time>2024-07-24T11:10:33.000Z</time>
</trkpt>
<trkpt lat="46.0263540" lon="10.3769980">
	<ele>939.80</ele>
	<time>2024-07-24T11:10:34.000Z</time>
</trkpt>
<trkpt lat="46.0263480" lon="10.3769980">
	<ele>939.80</ele>
	<time>2024-07-24T11:10:35.000Z</time>
</trkpt>
<trkpt lat="46.0263510" lon="10.3770020">
	<ele>939.80</ele>
	<time>2024-07-24T11:10:36.000Z</time>
</trkpt>
<trkpt lat="46.0263530" lon="10.3769920">
	<ele>939.80</ele>
	<time>2024-07-24T11:10:37.000Z</time>
</trkpt>
<trkpt lat="46.0263550" lon="10.3769940">
	<ele>939.80</ele>
	<time>2024-07-24T11:10:38.000Z</time>
</trkpt>
<trkpt lat="46.0263620" lon="10.3770090">
	<ele>939.80</ele>
	<time>2024-07-24T11:10:39.000Z</time>
</trkpt>
<trkpt lat="46.0263650" lon="10.3770080">
	<ele>939.80</ele>
	<time>2024-07-24T11:10:40.000Z</time>
</trkpt>
<trkpt lat="46.0263620" lon="10.3770060">
	<ele>939.80</ele>
	<time>2024-07-24T11:10:41.000Z</time>
</trkpt>
<trkpt lat="46.0263600" lon="10.3770000">
	<ele>939.80</ele>
	<time>2024-07-24T11:10:42.000Z</time>
</trkpt>
<trkpt lat="46.0263620" lon="10.3770000">
	<ele>939.80</ele>
	<time>2024-07-24T11:10:43.000Z</time>
</trkpt>
<trkpt lat="46.0263620" lon="10.3769990">
	<ele>939.80</ele>
	<time>2024-07-24T11:10:45.000Z</time>
</trkpt>
<trkpt lat="46.0263620" lon="10.3770000">
	<ele>939.80</ele>
	<time>2024-07-24T11:10:46.000Z</time>
</trkpt>
<trkpt lat="46.0263620" lon="10.3770000">
	<ele>939.80</ele>
	<time>2024-07-24T11:10:47.000Z</time>
</trkpt>
<trkpt lat="46.0263620" lon="10.3770000">
	<ele>939.80</ele>
	<time>2024-07-24T11:10:48.000Z</time>
</trkpt>
<trkpt lat="46.0263630" lon="10.3770000">
	<ele>939.80</ele>
	<time>2024-07-24T11:10:49.000Z</time>
</trkpt>
<trkpt lat="46.0263630" lon="10.3769880">
	<ele>939.80</ele>
	<time>2024-07-24T11:10:51.000Z</time>
</trkpt>
<trkpt lat="46.0263520" lon="10.3769720">
	<ele>939.80</ele>
	<time>2024-07-24T11:10:52.000Z</time>
</trkpt>
<trkpt lat="46.0263660" lon="10.3769680">
	<ele>939.80</ele>
	<time>2024-07-24T11:10:53.000Z</time>
</trkpt>
<trkpt lat="46.0263680" lon="10.3769630">
	<ele>939.80</ele>
	<time>2024-07-24T11:10:54.000Z</time>
</trkpt>
<trkpt lat="46.0263740" lon="10.3769680">
	<ele>939.80</ele>
	<time>2024-07-24T11:10:55.000Z</time>
</trkpt>
<trkpt lat="46.0263780" lon="10.3769620">
	<ele>939.80</ele>
	<time>2024-07-24T11:10:56.000Z</time>
</trkpt>
<trkpt lat="46.0263850" lon="10.3769610">
	<ele>939.80</ele>
	<time>2024-07-24T11:10:58.000Z</time>
</trkpt>
<trkpt lat="46.0263930" lon="10.3769800">
	<ele>939.80</ele>
	<time>2024-07-24T11:11:00.000Z</time>
</trkpt>
<trkpt lat="46.0263970" lon="10.3769830">
	<ele>939.80</ele>
	<time>2024-07-24T11:11:01.000Z</time>
</trkpt>
<trkpt lat="46.0264010" lon="10.3769890">
	<ele>939.80</ele>
	<time>2024-07-24T11:11:02.000Z</time>
</trkpt>
<trkpt lat="46.0264050" lon="10.3769960">
	<ele>939.80</ele>
	<time>2024-07-24T11:11:03.000Z</time>
</trkpt>
<trkpt lat="46.0264070" lon="10.3769980">
	<ele>939.80</ele>
	<time>2024-07-24T11:11:04.000Z</time>
</trkpt>
<trkpt lat="46.0264060" lon="10.3769970">
	<ele>939.80</ele>
	<time>2024-07-24T11:11:05.000Z</time>
</trkpt>
<trkpt lat="46.0264070" lon="10.3769970">
	<ele>939.80</ele>
	<time>2024-07-24T11:11:06.000Z</time>
</trkpt>
<trkpt lat="46.0264060" lon="10.3769950">
	<ele>939.60</ele>
	<time>2024-07-24T11:11:07.000Z</time>
</trkpt>
<trkpt lat="46.0264020" lon="10.3769920">
	<ele>939.60</ele>
	<time>2024-07-24T11:11:08.000Z</time>
</trkpt>
<trkpt lat="46.0264000" lon="10.3769920">
	<ele>939.60</ele>
	<time>2024-07-24T11:11:09.000Z</time>
</trkpt>
<trkpt lat="46.0263990" lon="10.3769980">
	<ele>939.60</ele>
	<time>2024-07-24T11:11:10.000Z</time>
</trkpt>
<trkpt lat="46.0263980" lon="10.3769980">
	<ele>939.60</ele>
	<time>2024-07-24T11:11:12.000Z</time>
</trkpt>
<trkpt lat="46.0264010" lon="10.3769940">
	<ele>939.60</ele>
	<time>2024-07-24T11:11:14.000Z</time>
</trkpt>
<trkpt lat="46.0263960" lon="10.3769840">
	<ele>939.60</ele>
	<time>2024-07-24T11:11:15.000Z</time>
</trkpt>
<trkpt lat="46.0263960" lon="10.3769740">
	<ele>939.60</ele>
	<time>2024-07-24T11:11:16.000Z</time>
</trkpt>
<trkpt lat="46.0263950" lon="10.3769630">
	<ele>939.60</ele>
	<time>2024-07-24T11:11:17.000Z</time>
</trkpt>
<trkpt lat="46.0263920" lon="10.3769510">
	<ele>939.60</ele>
	<time>2024-07-24T11:11:18.000Z</time>
</trkpt>
<trkpt lat="46.0263910" lon="10.3769440">
	<ele>939.60</ele>
	<time>2024-07-24T11:11:19.000Z</time>
</trkpt>
<trkpt lat="46.0263830" lon="10.3769250">
	<ele>939.60</ele>
	<time>2024-07-24T11:11:20.000Z</time>
</trkpt>
<trkpt lat="46.0263590" lon="10.3768990">
	<ele>939.60</ele>
	<time>2024-07-24T11:11:21.000Z</time>
</trkpt>
<trkpt lat="46.0263220" lon="10.3768640">
	<ele>939.60</ele>
	<time>2024-07-24T11:11:22.000Z</time>
</trkpt>
<trkpt lat="46.0262940" lon="10.3768430">
	<ele>939.60</ele>
	<time>2024-07-24T11:11:23.000Z</time>
</trkpt>
<trkpt lat="46.0263020" lon="10.3768560">
	<ele>939.60</ele>
	<time>2024-07-24T11:11:24.000Z</time>
</trkpt>
<trkpt lat="46.0262930" lon="10.3768520">
	<ele>939.60</ele>
	<time>2024-07-24T11:11:25.000Z</time>
</trkpt>
<trkpt lat="46.0262930" lon="10.3768560">
	<ele>939.60</ele>
	<time>2024-07-24T11:11:26.000Z</time>
</trkpt>
<trkpt lat="46.0262840" lon="10.3768520">
	<ele>939.60</ele>
	<time>2024-07-24T11:11:27.000Z</time>
</trkpt>
<trkpt lat="46.0262970" lon="10.3768540">
	<ele>939.60</ele>
	<time>2024-07-24T11:11:28.000Z</time>
</trkpt>
<trkpt lat="46.0262970" lon="10.3768630">
	<ele>939.60</ele>
	<time>2024-07-24T11:11:29.000Z</time>
</trkpt>
<trkpt lat="46.0262980" lon="10.3768640">
	<ele>939.60</ele>
	<time>2024-07-24T11:11:30.000Z</time>
</trkpt>
<trkpt lat="46.0262970" lon="10.3768670">
	<ele>939.60</ele>
	<time>2024-07-24T11:11:32.000Z</time>
</trkpt>
<trkpt lat="46.0262960" lon="10.3768660">
	<ele>939.60</ele>
	<time>2024-07-24T11:11:33.000Z</time>
</trkpt>
<trkpt lat="46.0262930" lon="10.3768670">
	<ele>939.60</ele>
	<time>2024-07-24T11:11:34.000Z</time>
</trkpt>
<trkpt lat="46.0262930" lon="10.3768650">
	<ele>939.60</ele>
	<time>2024-07-24T11:11:35.000Z</time>
</trkpt>
<trkpt lat="46.0262980" lon="10.3768630">
	<ele>939.60</ele>
	<time>2024-07-24T11:11:37.000Z</time>
</trkpt>
<trkpt lat="46.0262990" lon="10.3768620">
	<ele>939.60</ele>
	<time>2024-07-24T11:11:38.000Z</time>
</trkpt>
<trkpt lat="46.0262960" lon="10.3768630">
	<ele>939.60</ele>
	<time>2024-07-24T11:11:39.000Z</time>
</trkpt>
<trkpt lat="46.0262970" lon="10.3768610">
	<ele>939.60</ele>
	<time>2024-07-24T11:11:40.000Z</time>
</trkpt>
<trkpt lat="46.0263090" lon="10.3768550">
	<ele>939.60</ele>
	<time>2024-07-24T11:11:41.000Z</time>
</trkpt>
<trkpt lat="46.0263150" lon="10.3768480">
	<ele>939.60</ele>
	<time>2024-07-24T11:11:42.000Z</time>
</trkpt>
<trkpt lat="46.0263180" lon="10.3768510">
	<ele>939.60</ele>
	<time>2024-07-24T11:11:43.000Z</time>
</trkpt>
<trkpt lat="46.0263210" lon="10.3768540">
	<ele>939.60</ele>
	<time>2024-07-24T11:11:44.000Z</time>
</trkpt>
<trkpt lat="46.0263300" lon="10.3768560">
	<ele>939.60</ele>
	<time>2024-07-24T11:11:45.000Z</time>
</trkpt>
<trkpt lat="46.0263320" lon="10.3768570">
	<ele>939.60</ele>
	<time>2024-07-24T11:11:46.000Z</time>
</trkpt>
<trkpt lat="46.0263330" lon="10.3768550">
	<ele>939.60</ele>
	<time>2024-07-24T11:11:47.000Z</time>
</trkpt>
<trkpt lat="46.0263330" lon="10.3768490">
	<ele>939.60</ele>
	<time>2024-07-24T11:11:48.000Z</time>
</trkpt>
<trkpt lat="46.0263320" lon="10.3768460">
	<ele>939.60</ele>
	<time>2024-07-24T11:11:49.000Z</time>
</trkpt>
<trkpt lat="46.0263340" lon="10.3768430">
	<ele>939.60</ele>
	<time>2024-07-24T11:11:50.000Z</time>
</trkpt>
<trkpt lat="46.0263370" lon="10.3768440">
	<ele>940.00</ele>
	<time>2024-07-24T11:11:51.000Z</time>
</trkpt>
<trkpt lat="46.0263370" lon="10.3768440">
	<ele>940.00</ele>
	<time>2024-07-24T11:11:52.000Z</time>
</trkpt>
<trkpt lat="46.0263370" lon="10.3768440">
	<ele>940.00</ele>
	<time>2024-07-24T11:11:53.000Z</time>
</trkpt>
<trkpt lat="46.0263370" lon="10.3768440">
	<ele>940.00</ele>
	<time>2024-07-24T11:11:54.000Z</time>
</trkpt>
<trkpt lat="46.0263370" lon="10.3768440">
	<ele>940.00</ele>
	<time>2024-07-24T11:11:55.000Z</time>
</trkpt>
<trkpt lat="46.0263370" lon="10.3768440">
	<ele>940.00</ele>
	<time>2024-07-24T11:11:56.000Z</time>
</trkpt>
<trkpt lat="46.0263370" lon="10.3768440">
	<ele>940.00</ele>
	<time>2024-07-24T11:11:57.000Z</time>
</trkpt>
<trkpt lat="46.0263370" lon="10.3768440">
	<ele>940.00</ele>
	<time>2024-07-24T11:11:58.000Z</time>
</trkpt>
<trkpt lat="46.0263380" lon="10.3768450">
	<ele>940.00</ele>
	<time>2024-07-24T11:11:59.000Z</time>
</trkpt>
<trkpt lat="46.0263510" lon="10.3768480">
	<ele>940.00</ele>
	<time>2024-07-24T11:12:00.000Z</time>
</trkpt>
<trkpt lat="46.0263620" lon="10.3768470">
	<ele>940.00</ele>
	<time>2024-07-24T11:12:03.000Z</time>
</trkpt>
<trkpt lat="46.0263590" lon="10.3768440">
	<ele>940.00</ele>
	<time>2024-07-24T11:12:04.000Z</time>
</trkpt>
<trkpt lat="46.0263570" lon="10.3768420">
	<ele>940.00</ele>
	<time>2024-07-24T11:12:05.000Z</time>
</trkpt>
<trkpt lat="46.0263550" lon="10.3768370">
	<ele>940.00</ele>
	<time>2024-07-24T11:12:07.000Z</time>
</trkpt>
<trkpt lat="46.0263560" lon="10.3768350">
	<ele>940.00</ele>
	<time>2024-07-24T11:12:08.000Z</time>
</trkpt>
<trkpt lat="46.0263610" lon="10.3768400">
	<ele>940.00</ele>
	<time>2024-07-24T11:12:09.000Z</time>
</trkpt>
<trkpt lat="46.0263600" lon="10.3768590">
	<ele>940.00</ele>
	<time>2024-07-24T11:12:10.000Z</time>
</trkpt>
<trkpt lat="46.0263580" lon="10.3768610">
	<ele>940.00</ele>
	<time>2024-07-24T11:12:11.000Z</time>
</trkpt>
<trkpt lat="46.0263530" lon="10.3768580">
	<ele>940.00</ele>
	<time>2024-07-24T11:12:12.000Z</time>
</trkpt>
<trkpt lat="46.0263440" lon="10.3768500">
	<ele>940.00</ele>
	<time>2024-07-24T11:12:15.000Z</time>
</trkpt>
<trkpt lat="46.0263400" lon="10.3768500">
	<ele>940.00</ele>
	<time>2024-07-24T11:12:17.000Z</time>
</trkpt>
<trkpt lat="46.0263360" lon="10.3768460">
	<ele>940.00</ele>
	<time>2024-07-24T11:12:19.000Z</time>
</trkpt>
<trkpt lat="46.0263220" lon="10.3768510">
	<ele>940.00</ele>
	<time>2024-07-24T11:12:21.000Z</time>
</trkpt>
<trkpt lat="46.0263150" lon="10.3768600">
	<ele>940.00</ele>
	<time>2024-07-24T11:12:22.000Z</time>
</trkpt>
<trkpt lat="46.0263150" lon="10.3768780">
	<ele>940.00</ele>
	<time>2024-07-24T11:12:23.000Z</time>
</trkpt>
<trkpt lat="46.0263170" lon="10.3768970">
	<ele>940.00</ele>
	<time>2024-07-24T11:12:24.000Z</time>
</trkpt>
<trkpt lat="46.0263240" lon="10.3769210">
	<ele>940.00</ele>
	<time>2024-07-24T11:12:25.000Z</time>
</trkpt>
<trkpt lat="46.0263500" lon="10.3769400">
	<ele>940.00</ele>
	<time>2024-07-24T11:12:26.000Z</time>
</trkpt>
<trkpt lat="46.0263800" lon="10.3769510">
	<ele>940.00</ele>
	<time>2024-07-24T11:12:27.000Z</time>
</trkpt>
<trkpt lat="46.0263800" lon="10.3769260">
	<ele>940.00</ele>
	<time>2024-07-24T11:12:28.000Z</time>
</trkpt>
<trkpt lat="46.0263940" lon="10.3769010">
	<ele>940.00</ele>
	<time>2024-07-24T11:12:29.000Z</time>
</trkpt>
<trkpt lat="46.0263980" lon="10.3768950">
	<ele>940.00</ele>
	<time>2024-07-24T11:12:30.000Z</time>
</trkpt>
<trkpt lat="46.0264010" lon="10.3768420">
	<ele>940.00</ele>
	<time>2024-07-24T11:12:36.000Z</time>
</trkpt>
<trkpt lat="46.0263970" lon="10.3768330">
	<ele>940.00</ele>
	<time>2024-07-24T11:12:37.000Z</time>
</trkpt>
<trkpt lat="46.0263950" lon="10.3768290">
	<ele>940.00</ele>
	<time>2024-07-24T11:12:38.000Z</time>
</trkpt>
<trkpt lat="46.0263900" lon="10.3768320">
	<ele>940.00</ele>
	<time>2024-07-24T11:12:39.000Z</time>
</trkpt>
<trkpt lat="46.0263860" lon="10.3768320">
	<ele>940.00</ele>
	<time>2024-07-24T11:12:40.000Z</time>
</trkpt>
<trkpt lat="46.0263270" lon="10.3767660">
	<ele>940.00</ele>
	<time>2024-07-24T11:12:48.000Z</time>
</trkpt>
<trkpt lat="46.0263160" lon="10.3767530">
	<ele>940.00</ele>
	<time>2024-07-24T11:12:49.000Z</time>
</trkpt>
<trkpt lat="46.0263140" lon="10.3767270">
	<ele>940.00</ele>
	<time>2024-07-24T11:12:50.000Z</time>
</trkpt>
<trkpt lat="46.0263120" lon="10.3767120">
	<ele>940.00</ele>
	<time>2024-07-24T11:12:51.000Z</time>
</trkpt>
<trkpt lat="46.0263040" lon="10.3767030">
	<ele>940.00</ele>
	<time>2024-07-24T11:12:52.000Z</time>
</trkpt>
<trkpt lat="46.0262950" lon="10.3766960">
	<ele>940.00</ele>
	<time>2024-07-24T11:12:53.000Z</time>
</trkpt>
<trkpt lat="46.0262830" lon="10.3766810">
	<ele>940.00</ele>
	<time>2024-07-24T11:12:55.000Z</time>
</trkpt>
<trkpt lat="46.0262850" lon="10.3766770">
	<ele>940.00</ele>
	<time>2024-07-24T11:12:56.000Z</time>
</trkpt>
<trkpt lat="46.0263830" lon="10.3767890">
	<ele>940.00</ele>
	<time>2024-07-24T11:13:00.000Z</time>
</trkpt>
<trkpt lat="46.0263890" lon="10.3767810">
	<ele>940.00</ele>
	<time>2024-07-24T11:13:01.000Z</time>
</trkpt>
<trkpt lat="46.0263890" lon="10.3767790">
	<ele>940.00</ele>
	<time>2024-07-24T11:13:02.000Z</time>
</trkpt>
<trkpt lat="46.0264680" lon="10.3768560">
	<ele>940.00</ele>
	<time>2024-07-24T11:13:09.000Z</time>
</trkpt>
<trkpt lat="46.0264700" lon="10.3768600">
	<ele>940.00</ele>
	<time>2024-07-24T11:13:10.000Z</time>
</trkpt>
<trkpt lat="46.0264740" lon="10.3768590">
	<ele>940.00</ele>
	<time>2024-07-24T11:13:12.000Z</time>
</trkpt>
<trkpt lat="46.0264740" lon="10.3768560">
	<ele>940.00</ele>
	<time>2024-07-24T11:13:13.000Z</time>
</trkpt>
<trkpt lat="46.0264800" lon="10.3768880">
	<ele>940.00</ele>
	<time>2024-07-24T11:13:15.000Z</time>
</trkpt>
<trkpt lat="46.0264800" lon="10.3769290">
	<ele>940.00</ele>
	<time>2024-07-24T11:13:16.000Z</time>
</trkpt>
<trkpt lat="46.0264820" lon="10.3769780">
	<ele>940.00</ele>
	<time>2024-07-24T11:13:17.000Z</time>
</trkpt>
<trkpt lat="46.0264860" lon="10.3770090">
	<ele>940.00</ele>
	<time>2024-07-24T11:13:19.000Z</time>
</trkpt>
<trkpt lat="46.0264790" lon="10.3770020">
	<ele>940.00</ele>
	<time>2024-07-24T11:13:20.000Z</time>
</trkpt>
<trkpt lat="46.0264610" lon="10.3769810">
	<ele>940.00</ele>
	<time>2024-07-24T11:13:21.000Z</time>
</trkpt>
<trkpt lat="46.0264610" lon="10.3769750">
	<ele>940.00</ele>
	<time>2024-07-24T11:13:22.000Z</time>
</trkpt>
<trkpt lat="46.0264540" lon="10.3769840">
	<ele>940.00</ele>
	<time>2024-07-24T11:13:23.000Z</time>
</trkpt>
<trkpt lat="46.0264430" lon="10.3769950">
	<ele>940.00</ele>
	<time>2024-07-24T11:13:24.000Z</time>
</trkpt>
<trkpt lat="46.0264360" lon="10.3770070">
	<ele>940.00</ele>
	<time>2024-07-24T11:13:25.000Z</time>
</trkpt>
<trkpt lat="46.0264330" lon="10.3770280">
	<ele>940.00</ele>
	<time>2024-07-24T11:13:26.000Z</time>
</trkpt>
<trkpt lat="46.0264350" lon="10.3770290">
	<ele>940.00</ele>
	<time>2024-07-24T11:13:27.000Z</time>
</trkpt>
<trkpt lat="46.0264380" lon="10.3770370">
	<ele>940.00</ele>
	<time>2024-07-24T11:13:28.000Z</time>
</trkpt>
<trkpt lat="46.0264420" lon="10.3770460">
	<ele>940.00</ele>
	<time>2024-07-24T11:13:30.000Z</time>
</trkpt>
<trkpt lat="46.0264410" lon="10.3770450">
	<ele>940.00</ele>
	<time>2024-07-24T11:13:31.000Z</time>
</trkpt>
<trkpt lat="46.0264370" lon="10.3770430">
	<ele>940.00</ele>
	<time>2024-07-24T11:13:32.000Z</time>
</trkpt>
<trkpt lat="46.0264300" lon="10.3770290">
	<ele>940.00</ele>
	<time>2024-07-24T11:13:33.000Z</time>
</trkpt>
<trkpt lat="46.0264150" lon="10.3770230">
	<ele>940.00</ele>
	<time>2024-07-24T11:13:34.000Z</time>
</trkpt>
<trkpt lat="46.0264070" lon="10.3770080">
	<ele>940.00</ele>
	<time>2024-07-24T11:13:35.000Z</time>
</trkpt>
<trkpt lat="46.0264130" lon="10.3770030">
	<ele>940.00</ele>
	<time>2024-07-24T11:13:36.000Z</time>
</trkpt>
<trkpt lat="46.0264140" lon="10.3769910">
	<ele>940.00</ele>
	<time>2024-07-24T11:13:37.000Z</time>
</trkpt>
<trkpt lat="46.0264130" lon="10.3769820">
	<ele>940.00</ele>
	<time>2024-07-24T11:13:38.000Z</time>
</trkpt>
<trkpt lat="46.0264060" lon="10.3769680">
	<ele>940.00</ele>
	<time>2024-07-24T11:13:39.000Z</time>
</trkpt>
<trkpt lat="46.0263970" lon="10.3769290">
	<ele>940.00</ele>
	<time>2024-07-24T11:13:41.000Z</time>
</trkpt>
<trkpt lat="46.0263940" lon="10.3769110">
	<ele>940.00</ele>
	<time>2024-07-24T11:13:43.000Z</time>
</trkpt>
<trkpt lat="46.0263970" lon="10.3769110">
	<ele>940.00</ele>
	<time>2024-07-24T11:13:44.000Z</time>
</trkpt>
<trkpt lat="46.0264090" lon="10.3769090">
	<ele>940.00</ele>
	<time>2024-07-24T11:13:45.000Z</time>
</trkpt>
<trkpt lat="46.0264250" lon="10.3769080">
	<ele>940.00</ele>
	<time>2024-07-24T11:13:46.000Z</time>
</trkpt>
<trkpt lat="46.0264320" lon="10.3769040">
	<ele>940.00</ele>
	<time>2024-07-24T11:13:47.000Z</time>
</trkpt>
<trkpt lat="46.0264380" lon="10.3769050">
	<ele>940.00</ele>
	<time>2024-07-24T11:13:48.000Z</time>
</trkpt>
<trkpt lat="46.0264520" lon="10.3769210">
	<ele>940.00</ele>
	<time>2024-07-24T11:13:49.000Z</time>
</trkpt>
<trkpt lat="46.0264760" lon="10.3769500">
	<ele>940.00</ele>
	<time>2024-07-24T11:13:50.000Z</time>
</trkpt>
<trkpt lat="46.0264750" lon="10.3769670">
	<ele>940.00</ele>
	<time>2024-07-24T11:13:51.000Z</time>
</trkpt>
<trkpt lat="46.0264740" lon="10.3769690">
	<ele>940.00</ele>
	<time>2024-07-24T11:13:52.000Z</time>
</trkpt>
<trkpt lat="46.0264680" lon="10.3769540">
	<ele>940.00</ele>
	<time>2024-07-24T11:13:53.000Z</time>
</trkpt>
<trkpt lat="46.0264800" lon="10.3769340">
	<ele>940.00</ele>
	<time>2024-07-24T11:13:54.000Z</time>
</trkpt>
<trkpt lat="46.0264840" lon="10.3769220">
	<ele>940.00</ele>
	<time>2024-07-24T11:13:55.000Z</time>
</trkpt>
<trkpt lat="46.0264870" lon="10.3769170">
	<ele>940.00</ele>
	<time>2024-07-24T11:13:56.000Z</time>
</trkpt>
<trkpt lat="46.0264930" lon="10.3769180">
	<ele>940.00</ele>
	<time>2024-07-24T11:13:58.000Z</time>
</trkpt>
<trkpt lat="46.0264960" lon="10.3769250">
	<ele>940.00</ele>
	<time>2024-07-24T11:14:00.000Z</time>
</trkpt>
<trkpt lat="46.0264930" lon="10.3769270">
	<ele>940.00</ele>
	<time>2024-07-24T11:14:01.000Z</time>
</trkpt>
<trkpt lat="46.0264930" lon="10.3769460">
	<ele>940.00</ele>
	<time>2024-07-24T11:14:02.000Z</time>
</trkpt>
<trkpt lat="46.0264920" lon="10.3769530">
	<ele>940.00</ele>
	<time>2024-07-24T11:14:03.000Z</time>
</trkpt>
<trkpt lat="46.0264960" lon="10.3769640">
	<ele>940.00</ele>
	<time>2024-07-24T11:14:05.000Z</time>
</trkpt>
<trkpt lat="46.0264820" lon="10.3769590">
	<ele>940.00</ele>
	<time>2024-07-24T11:14:06.000Z</time>
</trkpt>
<trkpt lat="46.0264730" lon="10.3769620">
	<ele>940.00</ele>
	<time>2024-07-24T11:14:07.000Z</time>
</trkpt>
<trkpt lat="46.0264650" lon="10.3769670">
	<ele>940.00</ele>
	<time>2024-07-24T11:14:08.000Z</time>
</trkpt>
<trkpt lat="46.0264560" lon="10.3769670">
	<ele>940.00</ele>
	<time>2024-07-24T11:14:09.000Z</time>
</trkpt>
<trkpt lat="46.0264370" lon="10.3769670">
	<ele>940.00</ele>
	<time>2024-07-24T11:14:10.000Z</time>
</trkpt>
<trkpt lat="46.0264200" lon="10.3769670">
	<ele>940.00</ele>
	<time>2024-07-24T11:14:11.000Z</time>
</trkpt>
<trkpt lat="46.0264060" lon="10.3769670">
	<ele>940.00</ele>
	<time>2024-07-24T11:14:12.000Z</time>
</trkpt>
<trkpt lat="46.0263920" lon="10.3769660">
	<ele>940.00</ele>
	<time>2024-07-24T11:14:13.000Z</time>
</trkpt>
<trkpt lat="46.0263750" lon="10.3769660">
	<ele>940.00</ele>
	<time>2024-07-24T11:14:14.000Z</time>
</trkpt>
<trkpt lat="46.0263450" lon="10.3769560">
	<ele>940.00</ele>
	<time>2024-07-24T11:14:15.000Z</time>
</trkpt>
<trkpt lat="46.0263030" lon="10.3769410">
	<ele>940.00</ele>
	<time>2024-07-24T11:14:16.000Z</time>
</trkpt>
<trkpt lat="46.0261970" lon="10.3768760">
	<ele>940.00</ele>
	<time>2024-07-24T11:14:17.000Z</time>
</trkpt>
<trkpt lat="46.0259390" lon="10.3766570">
	<ele>940.00</ele>
	<time>2024-07-24T11:14:22.000Z</time>
</trkpt>
<trkpt lat="46.0259880" lon="10.3767580">
	<ele>940.00</ele>
	<time>2024-07-24T11:14:23.000Z</time>
</trkpt>
<trkpt lat="46.0261630" lon="10.3768330">
	<ele>940.00</ele>
	<time>2024-07-24T11:14:24.000Z</time>
</trkpt>
<trkpt lat="46.0261620" lon="10.3768390">
	<ele>940.00</ele>
	<time>2024-07-24T11:14:25.000Z</time>
</trkpt>
<trkpt lat="46.0261870" lon="10.3768170">
	<ele>940.00</ele>
	<time>2024-07-24T11:14:26.000Z</time>
</trkpt>
<trkpt lat="46.0262100" lon="10.3768100">
	<ele>940.00</ele>
	<time>2024-07-24T11:14:27.000Z</time>
</trkpt>
<trkpt lat="46.0262310" lon="10.3768200">
	<ele>940.00</ele>
	<time>2024-07-24T11:14:28.000Z</time>
</trkpt>
<trkpt lat="46.0262800" lon="10.3768510">
	<ele>940.00</ele>
	<time>2024-07-24T11:14:29.000Z</time>
</trkpt>
<trkpt lat="46.0263130" lon="10.3768810">
	<ele>940.00</ele>
	<time>2024-07-24T11:14:30.000Z</time>
</trkpt>
<trkpt lat="46.0263510" lon="10.3769170">
	<ele>940.00</ele>
	<time>2024-07-24T11:14:32.000Z</time>
</trkpt>
<trkpt lat="46.0263960" lon="10.3769650">
	<ele>940.40</ele>
	<time>2024-07-24T11:14:33.000Z</time>
</trkpt>
<trkpt lat="46.0264160" lon="10.3769720">
	<ele>940.80</ele>
	<time>2024-07-24T11:14:35.000Z</time>
</trkpt>
<trkpt lat="46.0264190" lon="10.3769720">
	<ele>940.80</ele>
	<time>2024-07-24T11:14:36.000Z</time>
</trkpt>
<trkpt lat="46.0264150" lon="10.3769580">
	<ele>941.00</ele>
	<time>2024-07-24T11:14:37.000Z</time>
</trkpt>
<trkpt lat="46.0264150" lon="10.3769540">
	<ele>941.00</ele>
	<time>2024-07-24T11:14:38.000Z</time>
</trkpt>
<trkpt lat="46.0264520" lon="10.3769660">
	<ele>941.00</ele>
	<time>2024-07-24T11:14:40.000Z</time>
</trkpt>
<trkpt lat="46.0264870" lon="10.3769770">
	<ele>941.00</ele>
	<time>2024-07-24T11:14:41.000Z</time>
</trkpt>
<trkpt lat="46.0265130" lon="10.3770020">
	<ele>941.00</ele>
	<time>2024-07-24T11:14:42.000Z</time>
</trkpt>
<trkpt lat="46.0265280" lon="10.3770230">
	<ele>941.00</ele>
	<time>2024-07-24T11:14:43.000Z</time>
</trkpt>
<trkpt lat="46.0265320" lon="10.3770220">
	<ele>941.00</ele>
	<time>2024-07-24T11:14:44.000Z</time>
</trkpt>
<trkpt lat="46.0265430" lon="10.3770330">
	<ele>941.00</ele>
	<time>2024-07-24T11:14:45.000Z</time>
</trkpt>
<trkpt lat="46.0265410" lon="10.3770330">
	<ele>941.00</ele>
	<time>2024-07-24T11:14:46.000Z</time>
</trkpt>
<trkpt lat="46.0265430" lon="10.3770320">
	<ele>941.00</ele>
	<time>2024-07-24T11:14:47.000Z</time>
</trkpt>
<trkpt lat="46.0265420" lon="10.3770270">
	<ele>941.00</ele>
	<time>2024-07-24T11:14:48.000Z</time>
</trkpt>
<trkpt lat="46.0265410" lon="10.3770400">
	<ele>941.00</ele>
	<time>2024-07-24T11:14:49.000Z</time>
</trkpt>
<trkpt lat="46.0265420" lon="10.3770630">
	<ele>941.00</ele>
	<time>2024-07-24T11:14:50.000Z</time>
</trkpt>
<trkpt lat="46.0265400" lon="10.3770920">
	<ele>941.00</ele>
	<time>2024-07-24T11:14:51.000Z</time>
</trkpt>
<trkpt lat="46.0265550" lon="10.3771260">
	<ele>941.00</ele>
	<time>2024-07-24T11:14:52.000Z</time>
</trkpt>
<trkpt lat="46.0265610" lon="10.3771320">
	<ele>941.00</ele>
	<time>2024-07-24T11:14:53.000Z</time>
</trkpt>
<trkpt lat="46.0265680" lon="10.3771380">
	<ele>941.00</ele>
	<time>2024-07-24T11:14:54.000Z</time>
</trkpt>
<trkpt lat="46.0265770" lon="10.3771570">
	<ele>941.00</ele>
	<time>2024-07-24T11:14:55.000Z</time>
</trkpt>
<trkpt lat="46.0265790" lon="10.3771570">
	<ele>941.00</ele>
	<time>2024-07-24T11:14:56.000Z</time>
</trkpt>
<trkpt lat="46.0265840" lon="10.3771660">
	<ele>941.00</ele>
	<time>2024-07-24T11:14:57.000Z</time>
</trkpt>
<trkpt lat="46.0265630" lon="10.3771670">
	<ele>941.20</ele>
	<time>2024-07-24T11:14:58.000Z</time>
</trkpt>
<trkpt lat="46.0265340" lon="10.3771620">
	<ele>941.20</ele>
	<time>2024-07-24T11:15:02.000Z</time>
</trkpt>
<trkpt lat="46.0265090" lon="10.3771450">
	<ele>940.80</ele>
	<time>2024-07-24T11:15:05.000Z</time>
</trkpt>
<trkpt lat="46.0264830" lon="10.3771210">
	<ele>940.60</ele>
	<time>2024-07-24T11:15:09.000Z</time>
</trkpt>
<trkpt lat="46.0264880" lon="10.3771210">
	<ele>940.80</ele>
	<time>2024-07-24T11:15:10.000Z</time>
</trkpt>
<trkpt lat="46.0264890" lon="10.3771160">
	<ele>941.00</ele>
	<time>2024-07-24T11:15:11.000Z</time>
</trkpt>
<trkpt lat="46.0264780" lon="10.3771090">
	<ele>941.20</ele>
	<time>2024-07-24T11:15:14.000Z</time>
</trkpt>
<trkpt lat="46.0264720" lon="10.3771080">
	<ele>941.20</ele>
	<time>2024-07-24T11:15:15.000Z</time>
</trkpt>
<trkpt lat="46.0264650" lon="10.3771020">
	<ele>941.20</ele>
	<time>2024-07-24T11:15:16.000Z</time>
</trkpt>
<trkpt lat="46.0264660" lon="10.3770940">
	<ele>941.20</ele>
	<time>2024-07-24T11:15:17.000Z</time>
</trkpt>
<trkpt lat="46.0264640" lon="10.3770920">
	<ele>941.40</ele>
	<time>2024-07-24T11:15:18.000Z</time>
</trkpt>
<trkpt lat="46.0264610" lon="10.3770880">
	<ele>941.40</ele>
	<time>2024-07-24T11:15:19.000Z</time>
</trkpt>
<trkpt lat="46.0264610" lon="10.3770830">
	<ele>941.40</ele>
	<time>2024-07-24T11:15:20.000Z</time>
</trkpt>
<trkpt lat="46.0264600" lon="10.3770790">
	<ele>941.40</ele>
	<time>2024-07-24T11:15:21.000Z</time>
</trkpt>
<trkpt lat="46.0264480" lon="10.3770690">
	<ele>941.40</ele>
	<time>2024-07-24T11:15:22.000Z</time>
</trkpt>
<trkpt lat="46.0264510" lon="10.3770690">
	<ele>941.40</ele>
	<time>2024-07-24T11:15:23.000Z</time>
</trkpt>
<trkpt lat="46.0264520" lon="10.3770710">
	<ele>941.40</ele>
	<time>2024-07-24T11:15:24.000Z</time>
</trkpt>
<trkpt lat="46.0264510" lon="10.3770740">
	<ele>941.60</ele>
	<time>2024-07-24T11:15:25.000Z</time>
</trkpt>
<trkpt lat="46.0264530" lon="10.3770770">
	<ele>941.60</ele>
	<time>2024-07-24T11:15:26.000Z</time>
</trkpt>
<trkpt lat="46.0264270" lon="10.3770650">
	<ele>941.60</ele>
	<time>2024-07-24T11:15:30.000Z</time>
</trkpt>
<trkpt lat="46.0264400" lon="10.3770510">
	<ele>941.60</ele>
	<time>2024-07-24T11:15:32.000Z</time>
</trkpt>
<trkpt lat="46.0264460" lon="10.3770420">
	<ele>941.60</ele>
	<time>2024-07-24T11:15:33.000Z</time>
</trkpt>
<trkpt lat="46.0264760" lon="10.3770380">
	<ele>941.60</ele>
	<time>2024-07-24T11:15:34.000Z</time>
</trkpt>
<trkpt lat="46.0265130" lon="10.3770370">
	<ele>941.60</ele>
	<time>2024-07-24T11:15:35.000Z</time>
</trkpt>
<trkpt lat="46.0265340" lon="10.3770350">
	<ele>941.60</ele>
	<time>2024-07-24T11:15:36.000Z</time>
</trkpt>
<trkpt lat="46.0265570" lon="10.3770340">
	<ele>941.60</ele>
	<time>2024-07-24T11:15:37.000Z</time>
</trkpt>
<trkpt lat="46.0265660" lon="10.3770320">
	<ele>941.60</ele>
	<time>2024-07-24T11:15:38.000Z</time>
</trkpt>
<trkpt lat="46.0265690" lon="10.3770110">
	<ele>941.60</ele>
	<time>2024-07-24T11:15:39.000Z</time>
</trkpt>
<trkpt lat="46.0265690" lon="10.3770040">
	<ele>941.80</ele>
	<time>2024-07-24T11:15:40.000Z</time>
</trkpt>
<trkpt lat="46.0265920" lon="10.3769980">
	<ele>941.80</ele>
	<time>2024-07-24T11:15:41.000Z</time>
</trkpt>
<trkpt lat="46.0266190" lon="10.3769810">
	<ele>941.80</ele>
	<time>2024-07-24T11:15:43.000Z</time>
</trkpt>
<trkpt lat="46.0266420" lon="10.3769850">
	<ele>941.60</ele>
	<time>2024-07-24T11:15:44.000Z</time>
</trkpt>
<trkpt lat="46.0266390" lon="10.3769900">
	<ele>941.60</ele>
	<time>2024-07-24T11:15:45.000Z</time>
</trkpt>
<trkpt lat="46.0266560" lon="10.3769970">
	<ele>941.60</ele>
	<time>2024-07-24T11:15:46.000Z</time>
</trkpt>
<trkpt lat="46.0266590" lon="10.3769990">
	<ele>941.40</ele>
	<time>2024-07-24T11:15:47.000Z</time>
</trkpt>
<trkpt lat="46.0266630" lon="10.3769960">
	<ele>941.40</ele>
	<time>2024-07-24T11:15:48.000Z</time>
</trkpt>
<trkpt lat="46.0266660" lon="10.3769960">
	<ele>941.40</ele>
	<time>2024-07-24T11:15:49.000Z</time>
</trkpt>
<trkpt lat="46.0266640" lon="10.3769910">
	<ele>941.40</ele>
	<time>2024-07-24T11:15:50.000Z</time>
</trkpt>
<trkpt lat="46.0266670" lon="10.3769870">
	<ele>941.40</ele>
	<time>2024-07-24T11:15:51.000Z</time>
</trkpt>
<trkpt lat="46.0266670" lon="10.3769820">
	<ele>941.40</ele>
	<time>2024-07-24T11:15:52.000Z</time>
</trkpt>
<trkpt lat="46.0266660" lon="10.3769810">
	<ele>941.40</ele>
	<time>2024-07-24T11:15:53.000Z</time>
</trkpt>
<trkpt lat="46.0266600" lon="10.3769790">
	<ele>941.40</ele>
	<time>2024-07-24T11:15:54.000Z</time>
</trkpt>
<trkpt lat="46.0266560" lon="10.3769810">
	<ele>941.60</ele>
	<time>2024-07-24T11:15:55.000Z</time>
</trkpt>
<trkpt lat="46.0266580" lon="10.3769830">
	<ele>941.80</ele>
	<time>2024-07-24T11:15:56.000Z</time>
</trkpt>
<trkpt lat="46.0266560" lon="10.3769880">
	<ele>942.00</ele>
	<time>2024-07-24T11:15:57.000Z</time>
</trkpt>
<trkpt lat="46.0266610" lon="10.3769930">
	<ele>942.00</ele>
	<time>2024-07-24T11:15:58.000Z</time>
</trkpt>
<trkpt lat="46.0266730" lon="10.3769920">
	<ele>942.20</ele>
	<time>2024-07-24T11:15:59.000Z</time>
</trkpt>
<trkpt lat="46.0266690" lon="10.3769900">
	<ele>942.20</ele>
	<time>2024-07-24T11:16:00.000Z</time>
</trkpt>
<trkpt lat="46.0266660" lon="10.3769830">
	<ele>942.20</ele>
	<time>2024-07-24T11:16:01.000Z</time>
</trkpt>
<trkpt lat="46.0266640" lon="10.3769740">
	<ele>942.20</ele>
	<time>2024-07-24T11:16:02.000Z</time>
</trkpt>
<trkpt lat="46.0266640" lon="10.3769770">
	<ele>942.20</ele>
	<time>2024-07-24T11:16:03.000Z</time>
</trkpt>
<trkpt lat="46.0266600" lon="10.3769700">
	<ele>942.20</ele>
	<time>2024-07-24T11:16:04.000Z</time>
</trkpt>
<trkpt lat="46.0266600" lon="10.3769550">
	<ele>942.20</ele>
	<time>2024-07-24T11:16:05.000Z</time>
</trkpt>
<trkpt lat="46.0266450" lon="10.3769490">
	<ele>942.20</ele>
	<time>2024-07-24T11:16:06.000Z</time>
</trkpt>
<trkpt lat="46.0266310" lon="10.3769490">
	<ele>942.20</ele>
	<time>2024-07-24T11:16:07.000Z</time>
</trkpt>
<trkpt lat="46.0266160" lon="10.3769340">
	<ele>942.00</ele>
	<time>2024-07-24T11:16:08.000Z</time>
</trkpt>
<trkpt lat="46.0265950" lon="10.3769320">
	<ele>942.20</ele>
	<time>2024-07-24T11:16:09.000Z</time>
</trkpt>
<trkpt lat="46.0265730" lon="10.3768990">
	<ele>942.00</ele>
	<time>2024-07-24T11:16:10.000Z</time>
</trkpt>
<trkpt lat="46.0265700" lon="10.3768950">
	<ele>942.00</ele>
	<time>2024-07-24T11:16:11.000Z</time>
</trkpt>
<trkpt lat="46.0265620" lon="10.3768980">
	<ele>942.00</ele>
	<time>2024-07-24T11:16:12.000Z</time>
</trkpt>
<trkpt lat="46.0265620" lon="10.3768980">
	<ele>942.00</ele>
	<time>2024-07-24T11:16:13.000Z</time>
</trkpt>
<trkpt lat="46.0265630" lon="10.3768950">
	<ele>942.20</ele>
	<time>2024-07-24T11:16:14.000Z</time>
</trkpt>
<trkpt lat="46.0265640" lon="10.3768900">
	<ele>942.20</ele>
	<time>2024-07-24T11:16:15.000Z</time>
</trkpt>
<trkpt lat="46.0265540" lon="10.3768840">
	<ele>942.20</ele>
	<time>2024-07-24T11:16:16.000Z</time>
</trkpt>
<trkpt lat="46.0265560" lon="10.3768810">
	<ele>942.20</ele>
	<time>2024-07-24T11:16:17.000Z</time>
</trkpt>
<trkpt lat="46.0265560" lon="10.3768790">
	<ele>942.20</ele>
	<time>2024-07-24T11:16:18.000Z</time>
</trkpt>
<trkpt lat="46.0265560" lon="10.3768870">
	<ele>942.40</ele>
	<time>2024-07-24T11:16:19.000Z</time>
</trkpt>
<trkpt lat="46.0265530" lon="10.3768910">
	<ele>942.40</ele>
	<time>2024-07-24T11:16:20.000Z</time>
</trkpt>
<trkpt lat="46.0265540" lon="10.3768980">
	<ele>942.20</ele>
	<time>2024-07-24T11:16:21.000Z</time>
</trkpt>
<trkpt lat="46.0265540" lon="10.3768910">
	<ele>942.20</ele>
	<time>2024-07-24T11:16:22.000Z</time>
</trkpt>
<trkpt lat="46.0265510" lon="10.3768840">
	<ele>942.20</ele>
	<time>2024-07-24T11:16:23.000Z</time>
</trkpt>
<trkpt lat="46.0265490" lon="10.3768830">
	<ele>942.40</ele>
	<time>2024-07-24T11:16:24.000Z</time>
</trkpt>
<trkpt lat="46.0265370" lon="10.3768810">
	<ele>942.40</ele>
	<time>2024-07-24T11:16:25.000Z</time>
</trkpt>
<trkpt lat="46.0265380" lon="10.3768820">
	<ele>942.40</ele>
	<time>2024-07-24T11:16:26.000Z</time>
</trkpt>
<trkpt lat="46.0265230" lon="10.3768910">
	<ele>942.20</ele>
	<time>2024-07-24T11:16:27.000Z</time>
</trkpt>
<trkpt lat="46.0265240" lon="10.3768950">
	<ele>942.20</ele>
	<time>2024-07-24T11:16:28.000Z</time>
</trkpt>
<trkpt lat="46.0265220" lon="10.3768940">
	<ele>942.20</ele>
	<time>2024-07-24T11:16:29.000Z</time>
</trkpt>
<trkpt lat="46.0265230" lon="10.3768920">
	<ele>942.40</ele>
	<time>2024-07-24T11:16:30.000Z</time>
</trkpt>
<trkpt lat="46.0265270" lon="10.3768900">
	<ele>942.40</ele>
	<time>2024-07-24T11:16:31.000Z</time>
</trkpt>
<trkpt lat="46.0265240" lon="10.3768840">
	<ele>942.40</ele>
	<time>2024-07-24T11:16:32.000Z</time>
</trkpt>
<trkpt lat="46.0265220" lon="10.3768780">
	<ele>942.40</ele>
	<time>2024-07-24T11:16:33.000Z</time>
</trkpt>
<trkpt lat="46.0265320" lon="10.3768770">
	<ele>942.40</ele>
	<time>2024-07-24T11:16:34.000Z</time>
</trkpt>
<trkpt lat="46.0265450" lon="10.3768780">
	<ele>942.40</ele>
	<time>2024-07-24T11:16:35.000Z</time>
</trkpt>
<trkpt lat="46.0265450" lon="10.3768800">
	<ele>942.40</ele>
	<time>2024-07-24T11:16:36.000Z</time>
</trkpt>
<trkpt lat="46.0265570" lon="10.3768870">
	<ele>942.40</ele>
	<time>2024-07-24T11:16:37.000Z</time>
</trkpt>
<trkpt lat="46.0265600" lon="10.3768880">
	<ele>942.40</ele>
	<time>2024-07-24T11:16:38.000Z</time>
</trkpt>
<trkpt lat="46.0265590" lon="10.3768850">
	<ele>942.40</ele>
	<time>2024-07-24T11:16:39.000Z</time>
</trkpt>
<trkpt lat="46.0265580" lon="10.3768790">
	<ele>942.40</ele>
	<time>2024-07-24T11:16:40.000Z</time>
</trkpt>
<trkpt lat="46.0265570" lon="10.3768830">
	<ele>942.40</ele>
	<time>2024-07-24T11:16:41.000Z</time>
</trkpt>
<trkpt lat="46.0265620" lon="10.3768860">
	<ele>942.40</ele>
	<time>2024-07-24T11:16:42.000Z</time>
</trkpt>
<trkpt lat="46.0265670" lon="10.3768880">
	<ele>942.40</ele>
	<time>2024-07-24T11:16:43.000Z</time>
</trkpt>
<trkpt lat="46.0265620" lon="10.3768790">
	<ele>942.40</ele>
	<time>2024-07-24T11:16:44.000Z</time>
</trkpt>
<trkpt lat="46.0265630" lon="10.3768780">
	<ele>942.40</ele>
	<time>2024-07-24T11:16:45.000Z</time>
</trkpt>
<trkpt lat="46.0265620" lon="10.3768730">
	<ele>942.40</ele>
	<time>2024-07-24T11:16:46.000Z</time>
</trkpt>
<trkpt lat="46.0265630" lon="10.3768720">
	<ele>942.40</ele>
	<time>2024-07-24T11:16:47.000Z</time>
</trkpt>
<trkpt lat="46.0265510" lon="10.3768620">
	<ele>942.40</ele>
	<time>2024-07-24T11:16:48.000Z</time>
</trkpt>
<trkpt lat="46.0265500" lon="10.3768580">
	<ele>942.40</ele>
	<time>2024-07-24T11:16:49.000Z</time>
</trkpt>
<trkpt lat="46.0265470" lon="10.3768620">
	<ele>942.40</ele>
	<time>2024-07-24T11:16:50.000Z</time>
</trkpt>
<trkpt lat="46.0265470" lon="10.3768620">
	<ele>942.40</ele>
	<time>2024-07-24T11:16:51.000Z</time>
</trkpt>
<trkpt lat="46.0265500" lon="10.3768890">
	<ele>942.40</ele>
	<time>2024-07-24T11:16:52.000Z</time>
</trkpt>
<trkpt lat="46.0265510" lon="10.3768900">
	<ele>942.20</ele>
	<time>2024-07-24T11:16:53.000Z</time>
</trkpt>
<trkpt lat="46.0265580" lon="10.3769030">
	<ele>942.20</ele>
	<time>2024-07-24T11:16:54.000Z</time>
</trkpt>
<trkpt lat="46.0265690" lon="10.3769150">
	<ele>942.20</ele>
	<time>2024-07-24T11:16:55.000Z</time>
</trkpt>
<trkpt lat="46.0265850" lon="10.3769300">
	<ele>942.20</ele>
	<time>2024-07-24T11:16:56.000Z</time>
</trkpt>
<trkpt lat="46.0265930" lon="10.3769420">
	<ele>942.20</ele>
	<time>2024-07-24T11:16:57.000Z</time>
</trkpt>
<trkpt lat="46.0265970" lon="10.3769510">
	<ele>942.20</ele>
	<time>2024-07-24T11:16:58.000Z</time>
</trkpt>
<trkpt lat="46.0265950" lon="10.3769500">
	<ele>942.20</ele>
	<time>2024-07-24T11:16:59.000Z</time>
</trkpt>
<trkpt lat="46.0265940" lon="10.3769500">
	<ele>942.40</ele>
	<time>2024-07-24T11:17:00.000Z</time>
</trkpt>
<trkpt lat="46.0265920" lon="10.3769510">
	<ele>942.40</ele>
	<time>2024-07-24T11:17:01.000Z</time>
</trkpt>
<trkpt lat="46.0265890" lon="10.3769480">
	<ele>942.40</ele>
	<time>2024-07-24T11:17:02.000Z</time>
</trkpt>
<trkpt lat="46.0265840" lon="10.3769400">
	<ele>942.40</ele>
	<time>2024-07-24T11:17:03.000Z</time>
</trkpt>
<trkpt lat="46.0265840" lon="10.3769310">
	<ele>942.40</ele>
	<time>2024-07-24T11:17:04.000Z</time>
</trkpt>
<trkpt lat="46.0265790" lon="10.3769160">
	<ele>942.40</ele>
	<time>2024-07-24T11:17:05.000Z</time>
</trkpt>
<trkpt lat="46.0265760" lon="10.3769040">
	<ele>942.40</ele>
	<time>2024-07-24T11:17:06.000Z</time>
</trkpt>
<trkpt lat="46.0265660" lon="10.3768900">
	<ele>942.40</ele>
	<time>2024-07-24T11:17:07.000Z</time>
</trkpt>
<trkpt lat="46.0265560" lon="10.3768720">
	<ele>942.40</ele>
	<time>2024-07-24T11:17:08.000Z</time>
</trkpt>
<trkpt lat="46.0265510" lon="10.3768610">
	<ele>942.40</ele>
	<time>2024-07-24T11:17:09.000Z</time>
</trkpt>
<trkpt lat="46.0265470" lon="10.3768580">
	<ele>942.40</ele>
	<time>2024-07-24T11:17:10.000Z</time>
</trkpt>
<trkpt lat="46.0265420" lon="10.3768580">
	<ele>942.40</ele>
	<time>2024-07-24T11:17:11.000Z</time>
</trkpt>
<trkpt lat="46.0265390" lon="10.3768620">
	<ele>942.40</ele>
	<time>2024-07-24T11:17:12.000Z</time>
</trkpt>
<trkpt lat="46.0265350" lon="10.3768640">
	<ele>942.40</ele>
	<time>2024-07-24T11:17:13.000Z</time>
</trkpt>
<trkpt lat="46.0265280" lon="10.3768600">
	<ele>942.40</ele>
	<time>2024-07-24T11:17:14.000Z</time>
</trkpt>
<trkpt lat="46.0265270" lon="10.3768590">
	<ele>942.40</ele>
	<time>2024-07-24T11:17:15.000Z</time>
</trkpt>
<trkpt lat="46.0265250" lon="10.3768620">
	<ele>942.40</ele>
	<time>2024-07-24T11:17:16.000Z</time>
</trkpt>
<trkpt lat="46.0265250" lon="10.3768600">
	<ele>942.40</ele>
	<time>2024-07-24T11:17:17.000Z</time>
</trkpt>
<trkpt lat="46.0265230" lon="10.3768600">
	<ele>942.40</ele>
	<time>2024-07-24T11:17:18.000Z</time>
</trkpt>
<trkpt lat="46.0265210" lon="10.3768530">
	<ele>942.40</ele>
	<time>2024-07-24T11:17:19.000Z</time>
</trkpt>
<trkpt lat="46.0265200" lon="10.3768490">
	<ele>942.40</ele>
	<time>2024-07-24T11:17:20.000Z</time>
</trkpt>
<trkpt lat="46.0265200" lon="10.3768450">
	<ele>942.40</ele>
	<time>2024-07-24T11:17:21.000Z</time>
</trkpt>
<trkpt lat="46.0265180" lon="10.3768420">
	<ele>942.40</ele>
	<time>2024-07-24T11:17:22.000Z</time>
</trkpt>
<trkpt lat="46.0265250" lon="10.3768500">
	<ele>942.40</ele>
	<time>2024-07-24T11:17:23.000Z</time>
</trkpt>
<trkpt lat="46.0265280" lon="10.3768500">
	<ele>942.40</ele>
	<time>2024-07-24T11:17:24.000Z</time>
</trkpt>
<trkpt lat="46.0265240" lon="10.3768460">
	<ele>942.40</ele>
	<time>2024-07-24T11:17:25.000Z</time>
</trkpt>
<trkpt lat="46.0265240" lon="10.3768460">
	<ele>942.40</ele>
	<time>2024-07-24T11:17:26.000Z</time>
</trkpt>
<trkpt lat="46.0265210" lon="10.3768470">
	<ele>942.40</ele>
	<time>2024-07-24T11:17:27.000Z</time>
</trkpt>
<trkpt lat="46.0265090" lon="10.3768370">
	<ele>942.40</ele>
	<time>2024-07-24T11:17:28.000Z</time>
</trkpt>
<trkpt lat="46.0264990" lon="10.3768230">
	<ele>942.40</ele>
	<time>2024-07-24T11:17:29.000Z</time>
</trkpt>
<trkpt lat="46.0264880" lon="10.3768150">
	<ele>942.40</ele>
	<time>2024-07-24T11:17:30.000Z</time>
</trkpt>
<trkpt lat="46.0264850" lon="10.3768130">
	<ele>942.40</ele>
	<time>2024-07-24T11:17:31.000Z</time>
</trkpt>
<trkpt lat="46.0264830" lon="10.3768090">
	<ele>942.40</ele>
	<time>2024-07-24T11:17:32.000Z</time>
</trkpt>
<trkpt lat="46.0264840" lon="10.3768090">
	<ele>942.40</ele>
	<time>2024-07-24T11:17:33.000Z</time>
</trkpt>
<trkpt lat="46.0264850" lon="10.3768110">
	<ele>942.40</ele>
	<time>2024-07-24T11:17:34.000Z</time>
</trkpt>
<trkpt lat="46.0264810" lon="10.3768070">
	<ele>942.40</ele>
	<time>2024-07-24T11:17:35.000Z</time>
</trkpt>
<trkpt lat="46.0264800" lon="10.3768130">
	<ele>942.40</ele>
	<time>2024-07-24T11:17:36.000Z</time>
</trkpt>
<trkpt lat="46.0264790" lon="10.3768130">
	<ele>942.40</ele>
	<time>2024-07-24T11:17:37.000Z</time>
</trkpt>
<trkpt lat="46.0264770" lon="10.3768120">
	<ele>942.40</ele>
	<time>2024-07-24T11:17:38.000Z</time>
</trkpt>
<trkpt lat="46.0264990" lon="10.3768330">
	<ele>942.40</ele>
	<time>2024-07-24T11:17:39.000Z</time>
</trkpt>
<trkpt lat="46.0265130" lon="10.3768420">
	<ele>942.40</ele>
	<time>2024-07-24T11:17:40.000Z</time>
</trkpt>
<trkpt lat="46.0265120" lon="10.3768420">
	<ele>942.40</ele>
	<time>2024-07-24T11:17:41.000Z</time>
</trkpt>
<trkpt lat="46.0265250" lon="10.3768570">
	<ele>942.40</ele>
	<time>2024-07-24T11:17:42.000Z</time>
</trkpt>
<trkpt lat="46.0265270" lon="10.3768580">
	<ele>942.40</ele>
	<time>2024-07-24T11:17:43.000Z</time>
</trkpt>
<trkpt lat="46.0265320" lon="10.3768570">
	<ele>942.40</ele>
	<time>2024-07-24T11:17:44.000Z</time>
</trkpt>
<trkpt lat="46.0265430" lon="10.3768550">
	<ele>942.40</ele>
	<time>2024-07-24T11:17:45.000Z</time>
</trkpt>
<trkpt lat="46.0265510" lon="10.3768600">
	<ele>942.40</ele>
	<time>2024-07-24T11:17:46.000Z</time>
</trkpt>
<trkpt lat="46.0265550" lon="10.3768580">
	<ele>942.40</ele>
	<time>2024-07-24T11:17:47.000Z</time>
</trkpt>
<trkpt lat="46.0265590" lon="10.3768570">
	<ele>942.40</ele>
	<time>2024-07-24T11:17:48.000Z</time>
</trkpt>
<trkpt lat="46.0265590" lon="10.3768570">
	<ele>942.40</ele>
	<time>2024-07-24T11:17:49.000Z</time>
</trkpt>
<trkpt lat="46.0265580" lon="10.3768540">
	<ele>942.40</ele>
	<time>2024-07-24T11:17:50.000Z</time>
</trkpt>
<trkpt lat="46.0265610" lon="10.3768550">
	<ele>942.40</ele>
	<time>2024-07-24T11:17:51.000Z</time>
</trkpt>
<trkpt lat="46.0265580" lon="10.3768550">
	<ele>942.40</ele>
	<time>2024-07-24T11:17:52.000Z</time>
</trkpt>
<trkpt lat="46.0265560" lon="10.3768560">
	<ele>942.40</ele>
	<time>2024-07-24T11:17:53.000Z</time>
</trkpt>
<trkpt lat="46.0265490" lon="10.3768410">
	<ele>942.40</ele>
	<time>2024-07-24T11:17:54.000Z</time>
</trkpt>
<trkpt lat="46.0265410" lon="10.3768100">
	<ele>942.40</ele>
	<time>2024-07-24T11:17:55.000Z</time>
</trkpt>
<trkpt lat="46.0265340" lon="10.3767920">
	<ele>942.40</ele>
	<time>2024-07-24T11:17:56.000Z</time>
</trkpt>
<trkpt lat="46.0265310" lon="10.3767730">
	<ele>942.40</ele>
	<time>2024-07-24T11:17:57.000Z</time>
</trkpt>
<trkpt lat="46.0265290" lon="10.3767620">
	<ele>942.40</ele>
	<time>2024-07-24T11:17:58.000Z</time>
</trkpt>
<trkpt lat="46.0265280" lon="10.3767480">
	<ele>942.40</ele>
	<time>2024-07-24T11:17:59.000Z</time>
</trkpt>
<trkpt lat="46.0265270" lon="10.3767320">
	<ele>942.40</ele>
	<time>2024-07-24T11:18:00.000Z</time>
</trkpt>
<trkpt lat="46.0265290" lon="10.3767290">
	<ele>942.40</ele>
	<time>2024-07-24T11:18:01.000Z</time>
</trkpt>
<trkpt lat="46.0265430" lon="10.3767460">
	<ele>942.40</ele>
	<time>2024-07-24T11:18:02.000Z</time>
</trkpt>
<trkpt lat="46.0265320" lon="10.3767400">
	<ele>942.40</ele>
	<time>2024-07-24T11:18:03.000Z</time>
</trkpt>
<trkpt lat="46.0265310" lon="10.3767410">
	<ele>942.40</ele>
	<time>2024-07-24T11:18:04.000Z</time>
</trkpt>
<trkpt lat="46.0265310" lon="10.3767400">
	<ele>942.40</ele>
	<time>2024-07-24T11:18:05.000Z</time>
</trkpt>
<trkpt lat="46.0265300" lon="10.3767450">
	<ele>942.40</ele>
	<time>2024-07-24T11:18:06.000Z</time>
</trkpt>
<trkpt lat="46.0265300" lon="10.3767390">
	<ele>942.40</ele>
	<time>2024-07-24T11:18:07.000Z</time>
</trkpt>
<trkpt lat="46.0265330" lon="10.3767320">
	<ele>942.40</ele>
	<time>2024-07-24T11:18:08.000Z</time>
</trkpt>
<trkpt lat="46.0265320" lon="10.3767310">
	<ele>942.40</ele>
	<time>2024-07-24T11:18:09.000Z</time>
</trkpt>
<trkpt lat="46.0265360" lon="10.3767390">
	<ele>942.40</ele>
	<time>2024-07-24T11:18:10.000Z</time>
</trkpt>
<trkpt lat="46.0265390" lon="10.3767430">
	<ele>942.40</ele>
	<time>2024-07-24T11:18:11.000Z</time>
</trkpt>
<trkpt lat="46.0265290" lon="10.3767450">
	<ele>942.40</ele>
	<time>2024-07-24T11:18:12.000Z</time>
</trkpt>
<trkpt lat="46.0265210" lon="10.3767470">
	<ele>942.40</ele>
	<time>2024-07-24T11:18:13.000Z</time>
</trkpt>
<trkpt lat="46.0265260" lon="10.3767550">
	<ele>942.40</ele>
	<time>2024-07-24T11:18:14.000Z</time>
</trkpt>
<trkpt lat="46.0265290" lon="10.3767730">
	<ele>942.40</ele>
	<time>2024-07-24T11:18:15.000Z</time>
</trkpt>
<trkpt lat="46.0265300" lon="10.3767710">
	<ele>942.40</ele>
	<time>2024-07-24T11:18:16.000Z</time>
</trkpt>
<trkpt lat="46.0265240" lon="10.3767720">
	<ele>942.40</ele>
	<time>2024-07-24T11:18:17.000Z</time>
</trkpt>
<trkpt lat="46.0265230" lon="10.3767670">
	<ele>942.40</ele>
	<time>2024-07-24T11:18:18.000Z</time>
</trkpt>
<trkpt lat="46.0265250" lon="10.3767650">
	<ele>942.40</ele>
	<time>2024-07-24T11:18:19.000Z</time>
</trkpt>
<trkpt lat="46.0265260" lon="10.3767660">
	<ele>942.40</ele>
	<time>2024-07-24T11:18:20.000Z</time>
</trkpt>
<trkpt lat="46.0265300" lon="10.3767780">
	<ele>942.40</ele>
	<time>2024-07-24T11:18:21.000Z</time>
</trkpt>
<trkpt lat="46.0265280" lon="10.3767780">
	<ele>942.40</ele>
	<time>2024-07-24T11:18:22.000Z</time>
</trkpt>
<trkpt lat="46.0265200" lon="10.3767700">
	<ele>942.40</ele>
	<time>2024-07-24T11:18:23.000Z</time>
</trkpt>
<trkpt lat="46.0265190" lon="10.3767650">
	<ele>942.40</ele>
	<time>2024-07-24T11:18:24.000Z</time>
</trkpt>
<trkpt lat="46.0265170" lon="10.3767590">
	<ele>942.40</ele>
	<time>2024-07-24T11:18:25.000Z</time>
</trkpt>
<trkpt lat="46.0265210" lon="10.3767670">
	<ele>942.40</ele>
	<time>2024-07-24T11:18:26.000Z</time>
</trkpt>
<trkpt lat="46.0265210" lon="10.3767720">
	<ele>942.40</ele>
	<time>2024-07-24T11:18:27.000Z</time>
</trkpt>
<trkpt lat="46.0265180" lon="10.3767710">
	<ele>942.40</ele>
	<time>2024-07-24T11:18:28.000Z</time>
</trkpt>
<trkpt lat="46.0265150" lon="10.3767700">
	<ele>942.40</ele>
	<time>2024-07-24T11:18:29.000Z</time>
</trkpt>
<trkpt lat="46.0265080" lon="10.3767660">
	<ele>942.40</ele>
	<time>2024-07-24T11:18:30.000Z</time>
</trkpt>
<trkpt lat="46.0265060" lon="10.3767630">
	<ele>942.40</ele>
	<time>2024-07-24T11:18:31.000Z</time>
</trkpt>
<trkpt lat="46.0265030" lon="10.3767720">
	<ele>942.40</ele>
	<time>2024-07-24T11:18:32.000Z</time>
</trkpt>
<trkpt lat="46.0265040" lon="10.3767730">
	<ele>942.40</ele>
	<time>2024-07-24T11:18:33.000Z</time>
</trkpt>
<trkpt lat="46.0265040" lon="10.3767700">
	<ele>942.40</ele>
	<time>2024-07-24T11:18:34.000Z</time>
</trkpt>
<trkpt lat="46.0264970" lon="10.3767680">
	<ele>942.40</ele>
	<time>2024-07-24T11:18:35.000Z</time>
</trkpt>
<trkpt lat="46.0264900" lon="10.3767680">
	<ele>942.40</ele>
	<time>2024-07-24T11:18:36.000Z</time>
</trkpt>
<trkpt lat="46.0264880" lon="10.3767640">
	<ele>942.40</ele>
	<time>2024-07-24T11:18:37.000Z</time>
</trkpt>
<trkpt lat="46.0264890" lon="10.3767620">
	<ele>942.40</ele>
	<time>2024-07-24T11:18:38.000Z</time>
</trkpt>
<trkpt lat="46.0264750" lon="10.3767600">
	<ele>942.40</ele>
	<time>2024-07-24T11:18:39.000Z</time>
</trkpt>
<trkpt lat="46.0264740" lon="10.3767590">
	<ele>942.40</ele>
	<time>2024-07-24T11:18:40.000Z</time>
</trkpt>
<trkpt lat="46.0264720" lon="10.3767530">
	<ele>942.40</ele>
	<time>2024-07-24T11:18:41.000Z</time>
</trkpt>
<trkpt lat="46.0264770" lon="10.3767630">
	<ele>942.40</ele>
	<time>2024-07-24T11:18:42.000Z</time>
</trkpt>
<trkpt lat="46.0264780" lon="10.3767620">
	<ele>942.40</ele>
	<time>2024-07-24T11:18:43.000Z</time>
</trkpt>
<trkpt lat="46.0264810" lon="10.3767650">
	<ele>942.40</ele>
	<time>2024-07-24T11:18:44.000Z</time>
</trkpt>
<trkpt lat="46.0264870" lon="10.3767740">
	<ele>942.40</ele>
	<time>2024-07-24T11:18:45.000Z</time>
</trkpt>
<trkpt lat="46.0264870" lon="10.3767730">
	<ele>942.40</ele>
	<time>2024-07-24T11:18:46.000Z</time>
</trkpt>
<trkpt lat="46.0264960" lon="10.3767790">
	<ele>942.40</ele>
	<time>2024-07-24T11:18:47.000Z</time>
</trkpt>
<trkpt lat="46.0265010" lon="10.3767830">
	<ele>942.40</ele>
	<time>2024-07-24T11:18:48.000Z</time>
</trkpt>
<trkpt lat="46.0265070" lon="10.3767870">
	<ele>942.40</ele>
	<time>2024-07-24T11:18:49.000Z</time>
</trkpt>
<trkpt lat="46.0265260" lon="10.3768150">
	<ele>942.40</ele>
	<time>2024-07-24T11:18:50.000Z</time>
</trkpt>
<trkpt lat="46.0265320" lon="10.3768330">
	<ele>942.40</ele>
	<time>2024-07-24T11:18:51.000Z</time>
</trkpt>
<trkpt lat="46.0265410" lon="10.3768560">
	<ele>942.40</ele>
	<time>2024-07-24T11:18:52.000Z</time>
</trkpt>
<trkpt lat="46.0265480" lon="10.3768760">
	<ele>942.40</ele>
	<time>2024-07-24T11:18:53.000Z</time>
</trkpt>
<trkpt lat="46.0265530" lon="10.3769060">
	<ele>942.40</ele>
	<time>2024-07-24T11:18:54.000Z</time>
</trkpt>
<trkpt lat="46.0265630" lon="10.3769260">
	<ele>942.40</ele>
	<time>2024-07-24T11:18:55.000Z</time>
</trkpt>
<trkpt lat="46.0265710" lon="10.3769570">
	<ele>942.40</ele>
	<time>2024-07-24T11:18:56.000Z</time>
</trkpt>
<trkpt lat="46.0265790" lon="10.3769890">
	<ele>942.40</ele>
	<time>2024-07-24T11:18:57.000Z</time>
</trkpt>
<trkpt lat="46.0265890" lon="10.3770170">
	<ele>942.40</ele>
	<time>2024-07-24T11:19:00.000Z</time>
</trkpt>
<trkpt lat="46.0265800" lon="10.3770140">
	<ele>942.40</ele>
	<time>2024-07-24T11:19:01.000Z</time>
</trkpt>
<trkpt lat="46.0265910" lon="10.3770150">
	<ele>942.40</ele>
	<time>2024-07-24T11:19:02.000Z</time>
</trkpt>
<trkpt lat="46.0266150" lon="10.3769800">
	<ele>942.40</ele>
	<time>2024-07-24T11:19:03.000Z</time>
</trkpt>
<trkpt lat="46.0265890" lon="10.3769070">
	<ele>942.40</ele>
	<time>2024-07-24T11:19:04.000Z</time>
</trkpt>
<trkpt lat="46.0265300" lon="10.3768060">
	<ele>942.40</ele>
	<time>2024-07-24T11:19:05.000Z</time>
</trkpt>
<trkpt lat="46.0265750" lon="10.3768010">
	<ele>942.40</ele>
	<time>2024-07-24T11:19:06.000Z</time>
</trkpt>
<trkpt lat="46.0265880" lon="10.3767820">
	<ele>942.40</ele>
	<time>2024-07-24T11:19:07.000Z</time>
</trkpt>
<trkpt lat="46.0266130" lon="10.3767820">
	<ele>942.40</ele>
	<time>2024-07-24T11:19:08.000Z</time>
</trkpt>
<trkpt lat="46.0266330" lon="10.3767950">
	<ele>942.40</ele>
	<time>2024-07-24T11:19:09.000Z</time>
</trkpt>
<trkpt lat="46.0266650" lon="10.3768110">
	<ele>942.40</ele>
	<time>2024-07-24T11:19:10.000Z</time>
</trkpt>
<trkpt lat="46.0266980" lon="10.3768220">
	<ele>942.40</ele>
	<time>2024-07-24T11:19:11.000Z</time>
</trkpt>
<trkpt lat="46.0267280" lon="10.3768270">
	<ele>942.40</ele>
	<time>2024-07-24T11:19:12.000Z</time>
</trkpt>
<trkpt lat="46.0267510" lon="10.3768270">
	<ele>942.40</ele>
	<time>2024-07-24T11:19:13.000Z</time>
</trkpt>
<trkpt lat="46.0267460" lon="10.3768260">
	<ele>942.40</ele>
	<time>2024-07-24T11:19:14.000Z</time>
</trkpt>
<trkpt lat="46.0267310" lon="10.3768200">
	<ele>942.40</ele>
	<time>2024-07-24T11:19:15.000Z</time>
</trkpt>
<trkpt lat="46.0267140" lon="10.3768090">
	<ele>942.40</ele>
	<time>2024-07-24T11:19:16.000Z</time>
</trkpt>
<trkpt lat="46.0266800" lon="10.3767990">
	<ele>942.40</ele>
	<time>2024-07-24T11:19:17.000Z</time>
</trkpt>
<trkpt lat="46.0266920" lon="10.3768010">
	<ele>942.60</ele>
	<time>2024-07-24T11:19:18.000Z</time>
</trkpt>
<trkpt lat="46.0263020" lon="10.3768150">
	<ele>942.80</ele>
	<time>2024-07-24T11:19:35.000Z</time>
</trkpt>
<trkpt lat="46.0263400" lon="10.3768260">
	<ele>942.80</ele>
	<time>2024-07-24T11:19:36.000Z</time>
</trkpt>
<trkpt lat="46.0263620" lon="10.3768300">
	<ele>942.80</ele>
	<time>2024-07-24T11:19:37.000Z</time>
</trkpt>
<trkpt lat="46.0263800" lon="10.3768480">
	<ele>942.80</ele>
	<time>2024-07-24T11:19:38.000Z</time>
</trkpt>
<trkpt lat="46.0263900" lon="10.3768560">
	<ele>942.80</ele>
	<time>2024-07-24T11:19:39.000Z</time>
</trkpt>
<trkpt lat="46.0263890" lon="10.3768540">
	<ele>942.80</ele>
	<time>2024-07-24T11:19:40.000Z</time>
</trkpt>
<trkpt lat="46.0263990" lon="10.3768630">
	<ele>943.00</ele>
	<time>2024-07-24T11:19:41.000Z</time>
</trkpt>
<trkpt lat="46.0264210" lon="10.3768770">
	<ele>942.80</ele>
	<time>2024-07-24T11:19:42.000Z</time>
</trkpt>
<trkpt lat="46.0264390" lon="10.3768870">
	<ele>942.80</ele>
	<time>2024-07-24T11:19:43.000Z</time>
</trkpt>
<trkpt lat="46.0264650" lon="10.3769010">
	<ele>942.80</ele>
	<time>2024-07-24T11:19:44.000Z</time>
</trkpt>
<trkpt lat="46.0264820" lon="10.3769070">
	<ele>942.80</ele>
	<time>2024-07-24T11:19:45.000Z</time>
</trkpt>
<trkpt lat="46.0265150" lon="10.3769100">
	<ele>942.80</ele>
	<time>2024-07-24T11:19:46.000Z</time>
</trkpt>
<trkpt lat="46.0265270" lon="10.3769090">
	<ele>942.80</ele>
	<time>2024-07-24T11:19:47.000Z</time>
</trkpt>
<trkpt lat="46.0265180" lon="10.3768870">
	<ele>942.80</ele>
	<time>2024-07-24T11:19:48.000Z</time>
</trkpt>
<trkpt lat="46.0264740" lon="10.3768540">
	<ele>942.80</ele>
	<time>2024-07-24T11:19:49.000Z</time>
</trkpt>
<trkpt lat="46.0264420" lon="10.3768300">
	<ele>942.80</ele>
	<time>2024-07-24T11:19:50.000Z</time>
</trkpt>
<trkpt lat="46.0264340" lon="10.3768250">
	<ele>943.00</ele>
	<time>2024-07-24T11:19:51.000Z</time>
</trkpt>
<trkpt lat="46.0264160" lon="10.3768150">
	<ele>943.00</ele>
	<time>2024-07-24T11:19:53.000Z</time>
</trkpt>
<trkpt lat="46.0264160" lon="10.3768190">
	<ele>943.00</ele>
	<time>2024-07-24T11:19:54.000Z</time>
</trkpt>
<trkpt lat="46.0264100" lon="10.3768080">
	<ele>943.00</ele>
	<time>2024-07-24T11:19:55.000Z</time>
</trkpt>
<trkpt lat="46.0264050" lon="10.3767980">
	<ele>943.00</ele>
	<time>2024-07-24T11:19:56.000Z</time>
</trkpt>
<trkpt lat="46.0264020" lon="10.3767900">
	<ele>943.00</ele>
	<time>2024-07-24T11:19:57.000Z</time>
</trkpt>
<trkpt lat="46.0264000" lon="10.3767840">
	<ele>943.00</ele>
	<time>2024-07-24T11:19:58.000Z</time>
</trkpt>
<trkpt lat="46.0264040" lon="10.3767820">
	<ele>943.00</ele>
	<time>2024-07-24T11:19:59.000Z</time>
</trkpt>
<trkpt lat="46.0264120" lon="10.3767840">
	<ele>942.80</ele>
	<time>2024-07-24T11:20:00.000Z</time>
</trkpt>
<trkpt lat="46.0264280" lon="10.3767870">
	<ele>942.80</ele>
	<time>2024-07-24T11:20:01.000Z</time>
</trkpt>
<trkpt lat="46.0264310" lon="10.3767860">
	<ele>942.80</ele>
	<time>2024-07-24T11:20:02.000Z</time>
</trkpt>
<trkpt lat="46.0264220" lon="10.3767780">
	<ele>942.80</ele>
	<time>2024-07-24T11:20:05.000Z</time>
</trkpt>
<trkpt lat="46.0264170" lon="10.3767720">
	<ele>942.80</ele>
	<time>2024-07-24T11:20:06.000Z</time>
</trkpt>
<trkpt lat="46.0264150" lon="10.3767730">
	<ele>942.80</ele>
	<time>2024-07-24T11:20:07.000Z</time>
</trkpt>
<trkpt lat="46.0264190" lon="10.3767760">
	<ele>942.80</ele>
	<time>2024-07-24T11:20:08.000Z</time>
</trkpt>
<trkpt lat="46.0264310" lon="10.3767830">
	<ele>942.80</ele>
	<time>2024-07-24T11:20:09.000Z</time>
</trkpt>
<trkpt lat="46.0264500" lon="10.3767910">
	<ele>942.80</ele>
	<time>2024-07-24T11:20:10.000Z</time>
</trkpt>
<trkpt lat="46.0264580" lon="10.3767980">
	<ele>942.80</ele>
	<time>2024-07-24T11:20:11.000Z</time>
</trkpt>
<trkpt lat="46.0264600" lon="10.3768000">
	<ele>942.60</ele>
	<time>2024-07-24T11:20:12.000Z</time>
</trkpt>
<trkpt lat="46.0264580" lon="10.3768010">
	<ele>942.60</ele>
	<time>2024-07-24T11:20:13.000Z</time>
</trkpt>
<trkpt lat="46.0264600" lon="10.3768000">
	<ele>942.60</ele>
	<time>2024-07-24T11:20:14.000Z</time>
</trkpt>
<trkpt lat="46.0264620" lon="10.3767980">
	<ele>942.60</ele>
	<time>2024-07-24T11:20:15.000Z</time>
</trkpt>
<trkpt lat="46.0264560" lon="10.3768000">
	<ele>942.60</ele>
	<time>2024-07-24T11:20:16.000Z</time>
</trkpt>
<trkpt lat="46.0264600" lon="10.3768060">
	<ele>942.60</ele>
	<time>2024-07-24T11:20:17.000Z</time>
</trkpt>
<trkpt lat="46.0264570" lon="10.3767520">
	<ele>942.60</ele>
	<time>2024-07-24T11:20:19.000Z</time>
</trkpt>
<trkpt lat="46.0264630" lon="10.3767440">
	<ele>942.60</ele>
	<time>2024-07-24T11:20:20.000Z</time>
</trkpt>
<trkpt lat="46.0264800" lon="10.3767400">
	<ele>942.60</ele>
	<time>2024-07-24T11:20:21.000Z</time>
</trkpt>
<trkpt lat="46.0265010" lon="10.3767350">
	<ele>942.60</ele>
	<time>2024-07-24T11:20:22.000Z</time>
</trkpt>
<trkpt lat="46.0265230" lon="10.3767470">
	<ele>942.60</ele>
	<time>2024-07-24T11:20:23.000Z</time>
</trkpt>
<trkpt lat="46.0265360" lon="10.3767520">
	<ele>942.60</ele>
	<time>2024-07-24T11:20:24.000Z</time>
</trkpt>
<trkpt lat="46.0265470" lon="10.3767360">
	<ele>942.60</ele>
	<time>2024-07-24T11:20:25.000Z</time>
</trkpt>
<trkpt lat="46.0265510" lon="10.3767190">
	<ele>942.60</ele>
	<time>2024-07-24T11:20:26.000Z</time>
</trkpt>
<trkpt lat="46.0265620" lon="10.3767140">
	<ele>942.60</ele>
	<time>2024-07-24T11:20:27.000Z</time>
</trkpt>
<trkpt lat="46.0266050" lon="10.3767220">
	<ele>942.60</ele>
	<time>2024-07-24T11:20:28.000Z</time>
</trkpt>
<trkpt lat="46.0266160" lon="10.3766980">
	<ele>942.60</ele>
	<time>2024-07-24T11:20:29.000Z</time>
</trkpt>
<trkpt lat="46.0266420" lon="10.3767080">
	<ele>942.60</ele>
	<time>2024-07-24T11:20:30.000Z</time>
</trkpt>
<trkpt lat="46.0267030" lon="10.3767550">
	<ele>942.60</ele>
	<time>2024-07-24T11:20:31.000Z</time>
</trkpt>
<trkpt lat="46.0267140" lon="10.3768570">
	<ele>942.60</ele>
	<time>2024-07-24T11:20:32.000Z</time>
</trkpt>
<trkpt lat="46.0267460" lon="10.3768980">
	<ele>942.60</ele>
	<time>2024-07-24T11:20:33.000Z</time>
</trkpt>
<trkpt lat="46.0267540" lon="10.3768990">
	<ele>942.60</ele>
	<time>2024-07-24T11:20:34.000Z</time>
</trkpt>
<trkpt lat="46.0267640" lon="10.3768920">
	<ele>942.60</ele>
	<time>2024-07-24T11:20:35.000Z</time>
</trkpt>
<trkpt lat="46.0267830" lon="10.3769020">
	<ele>942.60</ele>
	<time>2024-07-24T11:20:36.000Z</time>
</trkpt>
<trkpt lat="46.0267830" lon="10.3769070">
	<ele>942.60</ele>
	<time>2024-07-24T11:20:37.000Z</time>
</trkpt>
<trkpt lat="46.0267960" lon="10.3769320">
	<ele>942.60</ele>
	<time>2024-07-24T11:20:38.000Z</time>
</trkpt>
<trkpt lat="46.0267950" lon="10.3769290">
	<ele>942.60</ele>
	<time>2024-07-24T11:20:39.000Z</time>
</trkpt>
<trkpt lat="46.0268030" lon="10.3769630">
	<ele>942.60</ele>
	<time>2024-07-24T11:20:40.000Z</time>
</trkpt>
<trkpt lat="46.0268070" lon="10.3769890">
	<ele>942.60</ele>
	<time>2024-07-24T11:20:41.000Z</time>
</trkpt>
<trkpt lat="46.0268100" lon="10.3769940">
	<ele>942.60</ele>
	<time>2024-07-24T11:20:42.000Z</time>
</trkpt>
<trkpt lat="46.0268100" lon="10.3769930">
	<ele>942.60</ele>
	<time>2024-07-24T11:20:43.000Z</time>
</trkpt>
<trkpt lat="46.0268120" lon="10.3770030">
	<ele>942.60</ele>
	<time>2024-07-24T11:20:44.000Z</time>
</trkpt>
<trkpt lat="46.0268130" lon="10.3770170">
	<ele>942.60</ele>
	<time>2024-07-24T11:20:45.000Z</time>
</trkpt>
<trkpt lat="46.0268060" lon="10.3770330">
	<ele>942.60</ele>
	<time>2024-07-24T11:20:46.000Z</time>
</trkpt>
<trkpt lat="46.0267890" lon="10.3770440">
	<ele>942.60</ele>
	<time>2024-07-24T11:20:47.000Z</time>
</trkpt>
<trkpt lat="46.0267870" lon="10.3770420">
	<ele>942.60</ele>
	<time>2024-07-24T11:20:48.000Z</time>
</trkpt>
<trkpt lat="46.0267780" lon="10.3770390">
	<ele>942.60</ele>
	<time>2024-07-24T11:20:49.000Z</time>
</trkpt>
<trkpt lat="46.0267670" lon="10.3770370">
	<ele>942.60</ele>
	<time>2024-07-24T11:20:50.000Z</time>
</trkpt>
<trkpt lat="46.0267660" lon="10.3770380">
	<ele>942.60</ele>
	<time>2024-07-24T11:20:51.000Z</time>
</trkpt>
<trkpt lat="46.0267590" lon="10.3770350">
	<ele>942.60</ele>
	<time>2024-07-24T11:20:52.000Z</time>
</trkpt>
<trkpt lat="46.0267540" lon="10.3770310">
	<ele>942.60</ele>
	<time>2024-07-24T11:20:53.000Z</time>
</trkpt>
<trkpt lat="46.0267540" lon="10.3770280">
	<ele>942.60</ele>
	<time>2024-07-24T11:20:54.000Z</time>
</trkpt>
<trkpt lat="46.0267450" lon="10.3770300">
	<ele>942.60</ele>
	<time>2024-07-24T11:20:55.000Z</time>
</trkpt>
<trkpt lat="46.0267360" lon="10.3770340">
	<ele>942.60</ele>
	<time>2024-07-24T11:20:56.000Z</time>
</trkpt>
<trkpt lat="46.0267330" lon="10.3770320">
	<ele>942.60</ele>
	<time>2024-07-24T11:20:57.000Z</time>
</trkpt>
<trkpt lat="46.0267250" lon="10.3770380">
	<ele>942.60</ele>
	<time>2024-07-24T11:20:58.000Z</time>
</trkpt>
<trkpt lat="46.0267200" lon="10.3770360">
	<ele>942.60</ele>
	<time>2024-07-24T11:20:59.000Z</time>
</trkpt>
<trkpt lat="46.0267100" lon="10.3770360">
	<ele>942.60</ele>
	<time>2024-07-24T11:21:00.000Z</time>
</trkpt>
<trkpt lat="46.0267020" lon="10.3770370">
	<ele>942.60</ele>
	<time>2024-07-24T11:21:01.000Z</time>
</trkpt>
<trkpt lat="46.0266950" lon="10.3770470">
	<ele>942.60</ele>
	<time>2024-07-24T11:21:02.000Z</time>
</trkpt>
<trkpt lat="46.0266860" lon="10.3770700">
	<ele>942.60</ele>
	<time>2024-07-24T11:21:03.000Z</time>
</trkpt>
<trkpt lat="46.0266840" lon="10.3770650">
	<ele>942.60</ele>
	<time>2024-07-24T11:21:04.000Z</time>
</trkpt>
<trkpt lat="46.0266790" lon="10.3770590">
	<ele>942.60</ele>
	<time>2024-07-24T11:21:05.000Z</time>
</trkpt>
<trkpt lat="46.0266610" lon="10.3770530">
	<ele>942.60</ele>
	<time>2024-07-24T11:21:06.000Z</time>
</trkpt>
<trkpt lat="46.0266730" lon="10.3770990">
	<ele>942.60</ele>
	<time>2024-07-24T11:21:07.000Z</time>
</trkpt>
<trkpt lat="46.0266720" lon="10.3771030">
	<ele>942.60</ele>
	<time>2024-07-24T11:21:08.000Z</time>
</trkpt>
<trkpt lat="46.0266790" lon="10.3771110">
	<ele>942.60</ele>
	<time>2024-07-24T11:21:09.000Z</time>
</trkpt>
<trkpt lat="46.0266800" lon="10.3771040">
	<ele>942.60</ele>
	<time>2024-07-24T11:21:10.000Z</time>
</trkpt>
<trkpt lat="46.0266630" lon="10.3770750">
	<ele>942.60</ele>
	<time>2024-07-24T11:21:11.000Z</time>
</trkpt>
<trkpt lat="46.0266370" lon="10.3770520">
	<ele>942.60</ele>
	<time>2024-07-24T11:21:12.000Z</time>
</trkpt>
<trkpt lat="46.0266330" lon="10.3770470">
	<ele>942.60</ele>
	<time>2024-07-24T11:21:13.000Z</time>
</trkpt>
<trkpt lat="46.0266330" lon="10.3770430">
	<ele>942.60</ele>
	<time>2024-07-24T11:21:14.000Z</time>
</trkpt>
<trkpt lat="46.0266350" lon="10.3770530">
	<ele>942.60</ele>
	<time>2024-07-24T11:21:15.000Z</time>
</trkpt>
<trkpt lat="46.0266390" lon="10.3770610">
	<ele>942.60</ele>
	<time>2024-07-24T11:21:16.000Z</time>
</trkpt>
<trkpt lat="46.0266440" lon="10.3770610">
	<ele>942.60</ele>
	<time>2024-07-24T11:21:17.000Z</time>
</trkpt>
<trkpt lat="46.0266400" lon="10.3770570">
	<ele>942.60</ele>
	<time>2024-07-24T11:21:18.000Z</time>
</trkpt>
<trkpt lat="46.0266700" lon="10.3770570">
	<ele>942.60</ele>
	<time>2024-07-24T11:21:19.000Z</time>
</trkpt>
<trkpt lat="46.0266870" lon="10.3770670">
	<ele>942.60</ele>
	<time>2024-07-24T11:21:20.000Z</time>
</trkpt>
<trkpt lat="46.0267050" lon="10.3770690">
	<ele>942.60</ele>
	<time>2024-07-24T11:21:21.000Z</time>
</trkpt>
<trkpt lat="46.0267140" lon="10.3770770">
	<ele>942.60</ele>
	<time>2024-07-24T11:21:22.000Z</time>
</trkpt>
<trkpt lat="46.0267260" lon="10.3770960">
	<ele>942.60</ele>
	<time>2024-07-24T11:21:23.000Z</time>
</trkpt>
<trkpt lat="46.0267420" lon="10.3771390">
	<ele>942.60</ele>
	<time>2024-07-24T11:21:24.000Z</time>
</trkpt>
<trkpt lat="46.0267400" lon="10.3771380">
	<ele>942.60</ele>
	<time>2024-07-24T11:21:25.000Z</time>
</trkpt>
<trkpt lat="46.0267460" lon="10.3771610">
	<ele>942.60</ele>
	<time>2024-07-24T11:21:26.000Z</time>
</trkpt>
<trkpt lat="46.0267490" lon="10.3771660">
	<ele>942.60</ele>
	<time>2024-07-24T11:21:27.000Z</time>
</trkpt>
<trkpt lat="46.0267480" lon="10.3771720">
	<ele>942.60</ele>
	<time>2024-07-24T11:21:28.000Z</time>
</trkpt>
<trkpt lat="46.0267480" lon="10.3771770">
	<ele>942.60</ele>
	<time>2024-07-24T11:21:29.000Z</time>
</trkpt>
<trkpt lat="46.0267460" lon="10.3771970">
	<ele>942.60</ele>
	<time>2024-07-24T11:21:30.000Z</time>
</trkpt>
<trkpt lat="46.0267480" lon="10.3771980">
	<ele>942.60</ele>
	<time>2024-07-24T11:21:31.000Z</time>
</trkpt>
<trkpt lat="46.0267490" lon="10.3771890">
	<ele>942.60</ele>
	<time>2024-07-24T11:21:32.000Z</time>
</trkpt>
<trkpt lat="46.0267470" lon="10.3771740">
	<ele>942.60</ele>
	<time>2024-07-24T11:21:33.000Z</time>
</trkpt>
<trkpt lat="46.0267390" lon="10.3771740">
	<ele>942.60</ele>
	<time>2024-07-24T11:21:34.000Z</time>
</trkpt>
<trkpt lat="46.0267300" lon="10.3771680">
	<ele>942.60</ele>
	<time>2024-07-24T11:21:36.000Z</time>
</trkpt>
<trkpt lat="46.0267310" lon="10.3771820">
	<ele>942.60</ele>
	<time>2024-07-24T11:21:37.000Z</time>
</trkpt>
<trkpt lat="46.0267400" lon="10.3771980">
	<ele>942.60</ele>
	<time>2024-07-24T11:21:38.000Z</time>
</trkpt>
<trkpt lat="46.0267420" lon="10.3771910">
	<ele>942.60</ele>
	<time>2024-07-24T11:21:39.000Z</time>
</trkpt>
<trkpt lat="46.0267460" lon="10.3772020">
	<ele>942.60</ele>
	<time>2024-07-24T11:21:40.000Z</time>
</trkpt>
<trkpt lat="46.0267540" lon="10.3772110">
	<ele>942.60</ele>
	<time>2024-07-24T11:21:41.000Z</time>
</trkpt>
<trkpt lat="46.0267550" lon="10.3772110">
	<ele>942.60</ele>
	<time>2024-07-24T11:21:42.000Z</time>
</trkpt>
<trkpt lat="46.0267560" lon="10.3772140">
	<ele>942.60</ele>
	<time>2024-07-24T11:21:43.000Z</time>
</trkpt>
<trkpt lat="46.0267450" lon="10.3772030">
	<ele>942.60</ele>
	<time>2024-07-24T11:21:44.000Z</time>
</trkpt>
<trkpt lat="46.0267270" lon="10.3771920">
	<ele>942.60</ele>
	<time>2024-07-24T11:21:45.000Z</time>
</trkpt>
<trkpt lat="46.0266610" lon="10.3771460">
	<ele>942.60</ele>
	<time>2024-07-24T11:21:50.000Z</time>
</trkpt>
<trkpt lat="46.0266650" lon="10.3771590">
	<ele>942.60</ele>
	<time>2024-07-24T11:21:51.000Z</time>
</trkpt>
<trkpt lat="46.0266740" lon="10.3771900">
	<ele>942.60</ele>
	<time>2024-07-24T11:21:53.000Z</time>
</trkpt>
<trkpt lat="46.0266880" lon="10.3772360">
	<ele>942.60</ele>
	<time>2024-07-24T11:21:55.000Z</time>
</trkpt>
<trkpt lat="46.0266930" lon="10.3772400">
	<ele>942.60</ele>
	<time>2024-07-24T11:21:56.000Z</time>
</trkpt>
<trkpt lat="46.0267060" lon="10.3772520">
	<ele>942.60</ele>
	<time>2024-07-24T11:21:57.000Z</time>
</trkpt>
<trkpt lat="46.0267080" lon="10.3772390">
	<ele>942.60</ele>
	<time>2024-07-24T11:21:58.000Z</time>
</trkpt>
<trkpt lat="46.0267030" lon="10.3772250">
	<ele>942.60</ele>
	<time>2024-07-24T11:21:59.000Z</time>
</trkpt>
<trkpt lat="46.0267090" lon="10.3772280">
	<ele>942.60</ele>
	<time>2024-07-24T11:22:00.000Z</time>
</trkpt>
<trkpt lat="46.0266870" lon="10.3772120">
	<ele>942.60</ele>
	<time>2024-07-24T11:22:01.000Z</time>
</trkpt>
<trkpt lat="46.0266730" lon="10.3771880">
	<ele>942.60</ele>
	<time>2024-07-24T11:22:02.000Z</time>
</trkpt>
<trkpt lat="46.0266750" lon="10.3771880">
	<ele>942.60</ele>
	<time>2024-07-24T11:22:03.000Z</time>
</trkpt>
<trkpt lat="46.0266780" lon="10.3771710">
	<ele>942.60</ele>
	<time>2024-07-24T11:22:04.000Z</time>
</trkpt>
<trkpt lat="46.0266780" lon="10.3771610">
	<ele>942.60</ele>
	<time>2024-07-24T11:22:05.000Z</time>
</trkpt>
<trkpt lat="46.0266710" lon="10.3771590">
	<ele>942.60</ele>
	<time>2024-07-24T11:22:06.000Z</time>
</trkpt>
<trkpt lat="46.0266640" lon="10.3771540">
	<ele>942.60</ele>
	<time>2024-07-24T11:22:07.000Z</time>
</trkpt>
<trkpt lat="46.0266610" lon="10.3771530">
	<ele>942.60</ele>
	<time>2024-07-24T11:22:08.000Z</time>
</trkpt>
<trkpt lat="46.0266560" lon="10.3771540">
	<ele>942.60</ele>
	<time>2024-07-24T11:22:09.000Z</time>
</trkpt>
<trkpt lat="46.0266460" lon="10.3771500">
	<ele>942.60</ele>
	<time>2024-07-24T11:22:10.000Z</time>
</trkpt>
<trkpt lat="46.0266340" lon="10.3771410">
	<ele>942.60</ele>
	<time>2024-07-24T11:22:11.000Z</time>
</trkpt>
<trkpt lat="46.0266270" lon="10.3771330">
	<ele>942.60</ele>
	<time>2024-07-24T11:22:12.000Z</time>
</trkpt>
<trkpt lat="46.0266180" lon="10.3771300">
	<ele>942.60</ele>
	<time>2024-07-24T11:22:13.000Z</time>
</trkpt>
<trkpt lat="46.0265950" lon="10.3771490">
	<ele>942.60</ele>
	<time>2024-07-24T11:22:14.000Z</time>
</trkpt>
<trkpt lat="46.0265580" lon="10.3771660">
	<ele>942.60</ele>
	<time>2024-07-24T11:22:15.000Z</time>
</trkpt>
<trkpt lat="46.0265360" lon="10.3771720">
	<ele>942.60</ele>
	<time>2024-07-24T11:22:16.000Z</time>
</trkpt>
<trkpt lat="46.0265340" lon="10.3771750">
	<ele>942.60</ele>
	<time>2024-07-24T11:22:17.000Z</time>
</trkpt>
<trkpt lat="46.0265220" lon="10.3771800">
	<ele>942.60</ele>
	<time>2024-07-24T11:22:18.000Z</time>
</trkpt>
<trkpt lat="46.0265100" lon="10.3771810">
	<ele>942.60</ele>
	<time>2024-07-24T11:22:19.000Z</time>
</trkpt>
<trkpt lat="46.0264970" lon="10.3771790">
	<ele>942.60</ele>
	<time>2024-07-24T11:22:20.000Z</time>
</trkpt>
<trkpt lat="46.0264970" lon="10.3771800">
	<ele>942.60</ele>
	<time>2024-07-24T11:22:21.000Z</time>
</trkpt>
<trkpt lat="46.0264990" lon="10.3771820">
	<ele>942.60</ele>
	<time>2024-07-24T11:22:22.000Z</time>
</trkpt>
<trkpt lat="46.0264990" lon="10.3771830">
	<ele>942.60</ele>
	<time>2024-07-24T11:22:23.000Z</time>
</trkpt>
<trkpt lat="46.0264970" lon="10.3771890">
	<ele>942.60</ele>
	<time>2024-07-24T11:22:24.000Z</time>
</trkpt>
<trkpt lat="46.0264940" lon="10.3771960">
	<ele>942.60</ele>
	<time>2024-07-24T11:22:25.000Z</time>
</trkpt>
<trkpt lat="46.0264890" lon="10.3772090">
	<ele>942.60</ele>
	<time>2024-07-24T11:22:26.000Z</time>
</trkpt>
<trkpt lat="46.0264890" lon="10.3772220">
	<ele>942.60</ele>
	<time>2024-07-24T11:22:27.000Z</time>
</trkpt>
<trkpt lat="46.0264830" lon="10.3772350">
	<ele>942.60</ele>
	<time>2024-07-24T11:22:28.000Z</time>
</trkpt>
<trkpt lat="46.0264780" lon="10.3772510">
	<ele>942.60</ele>
	<time>2024-07-24T11:22:29.000Z</time>
</trkpt>
<trkpt lat="46.0264800" lon="10.3772590">
	<ele>942.60</ele>
	<time>2024-07-24T11:22:30.000Z</time>
</trkpt>
<trkpt lat="46.0264890" lon="10.3772750">
	<ele>942.60</ele>
	<time>2024-07-24T11:22:31.000Z</time>
</trkpt>
<trkpt lat="46.0265010" lon="10.3772900">
	<ele>942.60</ele>
	<time>2024-07-24T11:22:32.000Z</time>
</trkpt>
<trkpt lat="46.0265020" lon="10.3772840">
	<ele>942.60</ele>
	<time>2024-07-24T11:22:33.000Z</time>
</trkpt>
<trkpt lat="46.0265010" lon="10.3772840">
	<ele>942.60</ele>
	<time>2024-07-24T11:22:34.000Z</time>
</trkpt>
<trkpt lat="46.0265010" lon="10.3772850">
	<ele>942.60</ele>
	<time>2024-07-24T11:22:35.000Z</time>
</trkpt>
<trkpt lat="46.0264910" lon="10.3772670">
	<ele>942.60</ele>
	<time>2024-07-24T11:22:36.000Z</time>
</trkpt>
<trkpt lat="46.0264860" lon="10.3772440">
	<ele>942.60</ele>
	<time>2024-07-24T11:22:37.000Z</time>
</trkpt>
<trkpt lat="46.0264790" lon="10.3772240">
	<ele>942.60</ele>
	<time>2024-07-24T11:22:38.000Z</time>
</trkpt>
<trkpt lat="46.0264690" lon="10.3772110">
	<ele>942.60</ele>
	<time>2024-07-24T11:22:39.000Z</time>
</trkpt>
<trkpt lat="46.0264640" lon="10.3772040">
	<ele>942.60</ele>
	<time>2024-07-24T11:22:40.000Z</time>
</trkpt>
<trkpt lat="46.0264640" lon="10.3772040">
	<ele>942.60</ele>
	<time>2024-07-24T11:22:41.000Z</time>
</trkpt>
<trkpt lat="46.0264560" lon="10.3771880">
	<ele>942.60</ele>
	<time>2024-07-24T11:22:42.000Z</time>
</trkpt>
<trkpt lat="46.0264470" lon="10.3771730">
	<ele>942.60</ele>
	<time>2024-07-24T11:22:43.000Z</time>
</trkpt>
<trkpt lat="46.0264430" lon="10.3771730">
	<ele>942.60</ele>
	<time>2024-07-24T11:22:44.000Z</time>
</trkpt>
<trkpt lat="46.0264280" lon="10.3771610">
	<ele>942.60</ele>
	<time>2024-07-24T11:22:45.000Z</time>
</trkpt>
<trkpt lat="46.0264150" lon="10.3771470">
	<ele>942.60</ele>
	<time>2024-07-24T11:22:46.000Z</time>
</trkpt>
<trkpt lat="46.0264100" lon="10.3771540">
	<ele>942.60</ele>
	<time>2024-07-24T11:22:47.000Z</time>
</trkpt>
<trkpt lat="46.0264050" lon="10.3771510">
	<ele>942.60</ele>
	<time>2024-07-24T11:22:48.000Z</time>
</trkpt>
<trkpt lat="46.0263990" lon="10.3771560">
	<ele>942.60</ele>
	<time>2024-07-24T11:22:49.000Z</time>
</trkpt>
<trkpt lat="46.0263890" lon="10.3771440">
	<ele>942.60</ele>
	<time>2024-07-24T11:22:50.000Z</time>
</trkpt>
<trkpt lat="46.0263860" lon="10.3771470">
	<ele>942.60</ele>
	<time>2024-07-24T11:22:51.000Z</time>
</trkpt>
<trkpt lat="46.0263690" lon="10.3771270">
	<ele>942.60</ele>
	<time>2024-07-24T11:22:52.000Z</time>
</trkpt>
<trkpt lat="46.0263530" lon="10.3771050">
	<ele>942.60</ele>
	<time>2024-07-24T11:22:53.000Z</time>
</trkpt>
<trkpt lat="46.0263300" lon="10.3770750">
	<ele>942.60</ele>
	<time>2024-07-24T11:22:54.000Z</time>
</trkpt>
<trkpt lat="46.0263090" lon="10.3770410">
	<ele>942.60</ele>
	<time>2024-07-24T11:22:55.000Z</time>
</trkpt>
<trkpt lat="46.0262810" lon="10.3769980">
	<ele>942.60</ele>
	<time>2024-07-24T11:22:56.000Z</time>
</trkpt>
<trkpt lat="46.0262410" lon="10.3769410">
	<ele>942.60</ele>
	<time>2024-07-24T11:22:57.000Z</time>
</trkpt>
<trkpt lat="46.0262100" lon="10.3768940">
	<ele>942.60</ele>
	<time>2024-07-24T11:22:58.000Z</time>
</trkpt>
<trkpt lat="46.0261970" lon="10.3768590">
	<ele>942.60</ele>
	<time>2024-07-24T11:22:59.000Z</time>
</trkpt>
<trkpt lat="46.0261980" lon="10.3768580">
	<ele>942.60</ele>
	<time>2024-07-24T11:23:00.000Z</time>
</trkpt>
<trkpt lat="46.0261420" lon="10.3768360">
	<ele>942.60</ele>
	<time>2024-07-24T11:23:01.000Z</time>
</trkpt>
<trkpt lat="46.0261060" lon="10.3768030">
	<ele>942.60</ele>
	<time>2024-07-24T11:23:02.000Z</time>
</trkpt>
<trkpt lat="46.0260920" lon="10.3767890">
	<ele>942.60</ele>
	<time>2024-07-24T11:23:03.000Z</time>
</trkpt>
<trkpt lat="46.0260870" lon="10.3767840">
	<ele>942.60</ele>
	<time>2024-07-24T11:23:04.000Z</time>
</trkpt>
<trkpt lat="46.0260870" lon="10.3767860">
	<ele>942.60</ele>
	<time>2024-07-24T11:23:05.000Z</time>
</trkpt>
<trkpt lat="46.0260930" lon="10.3767920">
	<ele>942.60</ele>
	<time>2024-07-24T11:23:06.000Z</time>
</trkpt>
<trkpt lat="46.0261050" lon="10.3767990">
	<ele>942.60</ele>
	<time>2024-07-24T11:23:07.000Z</time>
</trkpt>
<trkpt lat="46.0261220" lon="10.3768180">
	<ele>942.60</ele>
	<time>2024-07-24T11:23:08.000Z</time>
</trkpt>
<trkpt lat="46.0261420" lon="10.3768370">
	<ele>942.60</ele>
	<time>2024-07-24T11:23:09.000Z</time>
</trkpt>
<trkpt lat="46.0261640" lon="10.3768590">
	<ele>942.60</ele>
	<time>2024-07-24T11:23:10.000Z</time>
</trkpt>
<trkpt lat="46.0261870" lon="10.3768800">
	<ele>942.60</ele>
	<time>2024-07-24T11:23:11.000Z</time>
</trkpt>
<trkpt lat="46.0262020" lon="10.3768920">
	<ele>942.60</ele>
	<time>2024-07-24T11:23:12.000Z</time>
</trkpt>
<trkpt lat="46.0262000" lon="10.3768960">
	<ele>942.60</ele>
	<time>2024-07-24T11:23:13.000Z</time>
</trkpt>
<trkpt lat="46.0261930" lon="10.3768940">
	<ele>942.60</ele>
	<time>2024-07-24T11:23:14.000Z</time>
</trkpt>
<trkpt lat="46.0261930" lon="10.3769010">
	<ele>942.60</ele>
	<time>2024-07-24T11:23:15.000Z</time>
</trkpt>
<trkpt lat="46.0266400" lon="10.3769230">
	<ele>942.60</ele>
	<time>2024-07-24T11:23:53.000Z</time>
</trkpt>
<trkpt lat="46.0265130" lon="10.3768130">
	<ele>942.60</ele>
	<time>2024-07-24T11:23:54.000Z</time>
</trkpt>
<trkpt lat="46.0265270" lon="10.3768740">
	<ele>942.60</ele>
	<time>2024-07-24T11:23:55.000Z</time>
</trkpt>
<trkpt lat="46.0264980" lon="10.3768840">
	<ele>942.60</ele>
	<time>2024-07-24T11:23:56.000Z</time>
</trkpt>
<trkpt lat="46.0265440" lon="10.3769180">
	<ele>942.60</ele>
	<time>2024-07-24T11:23:57.000Z</time>
</trkpt>
<trkpt lat="46.0265520" lon="10.3769230">
	<ele>942.60</ele>
	<time>2024-07-24T11:23:58.000Z</time>
</trkpt>
<trkpt lat="46.0265550" lon="10.3769160">
	<ele>942.60</ele>
	<time>2024-07-24T11:23:59.000Z</time>
</trkpt>
<trkpt lat="46.0265680" lon="10.3769210">
	<ele>942.60</ele>
	<time>2024-07-24T11:24:00.000Z</time>
</trkpt>
<trkpt lat="46.0265700" lon="10.3769080">
	<ele>942.60</ele>
	<time>2024-07-24T11:24:01.000Z</time>
</trkpt>
<trkpt lat="46.0265820" lon="10.3769100">
	<ele>942.60</ele>
	<time>2024-07-24T11:24:02.000Z</time>
</trkpt>
<trkpt lat="46.0266180" lon="10.3769360">
	<ele>942.60</ele>
	<time>2024-07-24T11:24:03.000Z</time>
</trkpt>
<trkpt lat="46.0266490" lon="10.3769590">
	<ele>942.60</ele>
	<time>2024-07-24T11:24:04.000Z</time>
</trkpt>
<trkpt lat="46.0266690" lon="10.3769850">
	<ele>942.60</ele>
	<time>2024-07-24T11:24:05.000Z</time>
</trkpt>
<trkpt lat="46.0266880" lon="10.3770010">
	<ele>942.60</ele>
	<time>2024-07-24T11:24:06.000Z</time>
</trkpt>
<trkpt lat="46.0266870" lon="10.3769730">
	<ele>942.60</ele>
	<time>2024-07-24T11:24:12.000Z</time>
</trkpt>
<trkpt lat="46.0266900" lon="10.3769760">
	<ele>942.60</ele>
	<time>2024-07-24T11:24:13.000Z</time>
</trkpt>
<trkpt lat="46.0266790" lon="10.3769630">
	<ele>942.60</ele>
	<time>2024-07-24T11:24:14.000Z</time>
</trkpt>
<trkpt lat="46.0266810" lon="10.3769620">
	<ele>942.60</ele>
	<time>2024-07-24T11:24:15.000Z</time>
</trkpt>
<trkpt lat="46.0266640" lon="10.3769200">
	<ele>942.60</ele>
	<time>2024-07-24T11:24:16.000Z</time>
</trkpt>
<trkpt lat="46.0266400" lon="10.3768700">
	<ele>942.60</ele>
	<time>2024-07-24T11:24:17.000Z</time>
</trkpt>
<trkpt lat="46.0265960" lon="10.3768110">
	<ele>942.60</ele>
	<time>2024-07-24T11:24:18.000Z</time>
</trkpt>
<trkpt lat="46.0265950" lon="10.3768060">
	<ele>942.60</ele>
	<time>2024-07-24T11:24:19.000Z</time>
</trkpt>
<trkpt lat="46.0265340" lon="10.3767610">
	<ele>942.60</ele>
	<time>2024-07-24T11:24:20.000Z</time>
</trkpt>
<trkpt lat="46.0264890" lon="10.3767340">
	<ele>942.60</ele>
	<time>2024-07-24T11:24:21.000Z</time>
</trkpt>
<trkpt lat="46.0264340" lon="10.3766970">
	<ele>942.60</ele>
	<time>2024-07-24T11:24:22.000Z</time>
</trkpt>
<trkpt lat="46.0263730" lon="10.3766560">
	<ele>942.60</ele>
	<time>2024-07-24T11:24:23.000Z</time>
</trkpt>
<trkpt lat="46.0263230" lon="10.3766240">
	<ele>942.60</ele>
	<time>2024-07-24T11:24:24.000Z</time>
</trkpt>
<trkpt lat="46.0263060" lon="10.3766080">
	<ele>942.60</ele>
	<time>2024-07-24T11:24:25.000Z</time>
</trkpt>
<trkpt lat="46.0263030" lon="10.3766130">
	<ele>942.60</ele>
	<time>2024-07-24T11:24:26.000Z</time>
</trkpt>
<trkpt lat="46.0263050" lon="10.3766220">
	<ele>942.60</ele>
	<time>2024-07-24T11:24:27.000Z</time>
</trkpt>
<trkpt lat="46.0263140" lon="10.3766430">
	<ele>943.00</ele>
	<time>2024-07-24T11:24:28.000Z</time>
</trkpt>
<trkpt lat="46.0263390" lon="10.3766590">
	<ele>943.00</ele>
	<time>2024-07-24T11:24:29.000Z</time>
</trkpt>
<trkpt lat="46.0263600" lon="10.3766740">
	<ele>943.20</ele>
	<time>2024-07-24T11:24:30.000Z</time>
</trkpt>
<trkpt lat="46.0263730" lon="10.3766490">
	<ele>943.20</ele>
	<time>2024-07-24T11:24:31.000Z</time>
</trkpt>
<trkpt lat="46.0263530" lon="10.3766310">
	<ele>943.20</ele>
	<time>2024-07-24T11:24:32.000Z</time>
</trkpt>
<trkpt lat="46.0263220" lon="10.3765790">
	<ele>943.20</ele>
	<time>2024-07-24T11:24:33.000Z</time>
</trkpt>
<trkpt lat="46.0262970" lon="10.3765530">
	<ele>943.20</ele>
	<time>2024-07-24T11:24:34.000Z</time>
</trkpt>
<trkpt lat="46.0262950" lon="10.3765360">
	<ele>943.40</ele>
	<time>2024-07-24T11:24:35.000Z</time>
</trkpt>
<trkpt lat="46.0262870" lon="10.3765270">
	<ele>943.40</ele>
	<time>2024-07-24T11:24:36.000Z</time>
</trkpt>
<trkpt lat="46.0262780" lon="10.3765580">
	<ele>943.40</ele>
	<time>2024-07-24T11:24:37.000Z</time>
</trkpt>
<trkpt lat="46.0262780" lon="10.3765680">
	<ele>943.40</ele>
	<time>2024-07-24T11:24:38.000Z</time>
</trkpt>
<trkpt lat="46.0262900" lon="10.3765920">
	<ele>943.40</ele>
	<time>2024-07-24T11:24:39.000Z</time>
</trkpt>
<trkpt lat="46.0263200" lon="10.3766290">
	<ele>943.40</ele>
	<time>2024-07-24T11:24:40.000Z</time>
</trkpt>
<trkpt lat="46.0263530" lon="10.3766630">
	<ele>943.40</ele>
	<time>2024-07-24T11:24:41.000Z</time>
</trkpt>
<trkpt lat="46.0263780" lon="10.3767030">
	<ele>943.40</ele>
	<time>2024-07-24T11:24:42.000Z</time>
</trkpt>
<trkpt lat="46.0264000" lon="10.3767280">
	<ele>943.40</ele>
	<time>2024-07-24T11:24:43.000Z</time>
</trkpt>
<trkpt lat="46.0264000" lon="10.3767290">
	<ele>943.40</ele>
	<time>2024-07-24T11:24:44.000Z</time>
</trkpt>
<trkpt lat="46.0264050" lon="10.3767320">
	<ele>943.40</ele>
	<time>2024-07-24T11:24:45.000Z</time>
</trkpt>
<trkpt lat="46.0264110" lon="10.3767440">
	<ele>943.40</ele>
	<time>2024-07-24T11:24:46.000Z</time>
</trkpt>
<trkpt lat="46.0264060" lon="10.3767440">
	<ele>943.40</ele>
	<time>2024-07-24T11:24:47.000Z</time>
</trkpt>
<trkpt lat="46.0263970" lon="10.3767390">
	<ele>943.40</ele>
	<time>2024-07-24T11:24:48.000Z</time>
</trkpt>
<trkpt lat="46.0263870" lon="10.3767320">
	<ele>943.40</ele>
	<time>2024-07-24T11:24:49.000Z</time>
</trkpt>
<trkpt lat="46.0263950" lon="10.3767290">
	<ele>943.40</ele>
	<time>2024-07-24T11:24:50.000Z</time>
</trkpt>
<trkpt lat="46.0264080" lon="10.3767410">
	<ele>943.40</ele>
	<time>2024-07-24T11:24:51.000Z</time>
</trkpt>
<trkpt lat="46.0264400" lon="10.3767800">
	<ele>943.60</ele>
	<time>2024-07-24T11:24:52.000Z</time>
</trkpt>
<trkpt lat="46.0264570" lon="10.3767820">
	<ele>943.60</ele>
	<time>2024-07-24T11:24:53.000Z</time>
</trkpt>
<trkpt lat="46.0264820" lon="10.3768060">
	<ele>943.60</ele>
	<time>2024-07-24T11:24:54.000Z</time>
</trkpt>
<trkpt lat="46.0265050" lon="10.3768260">
	<ele>943.40</ele>
	<time>2024-07-24T11:24:55.000Z</time>
</trkpt>
<trkpt lat="46.0265200" lon="10.3768400">
	<ele>943.40</ele>
	<time>2024-07-24T11:24:56.000Z</time>
</trkpt>
<trkpt lat="46.0265270" lon="10.3768550">
	<ele>943.40</ele>
	<time>2024-07-24T11:24:57.000Z</time>
</trkpt>
<trkpt lat="46.0265320" lon="10.3768630">
	<ele>943.40</ele>
	<time>2024-07-24T11:24:58.000Z</time>
</trkpt>
<trkpt lat="46.0265200" lon="10.3768650">
	<ele>943.40</ele>
	<time>2024-07-24T11:24:59.000Z</time>
</trkpt>
<trkpt lat="46.0265210" lon="10.3768730">
	<ele>943.40</ele>
	<time>2024-07-24T11:25:00.000Z</time>
</trkpt>
<trkpt lat="46.0265360" lon="10.3768890">
	<ele>943.40</ele>
	<time>2024-07-24T11:25:01.000Z</time>
</trkpt>
<trkpt lat="46.0265700" lon="10.3769150">
	<ele>943.40</ele>
	<time>2024-07-24T11:25:02.000Z</time>
</trkpt>
<trkpt lat="46.0265750" lon="10.3769320">
	<ele>943.40</ele>
	<time>2024-07-24T11:25:03.000Z</time>
</trkpt>
<trkpt lat="46.0265840" lon="10.3769440">
	<ele>943.40</ele>
	<time>2024-07-24T11:25:04.000Z</time>
</trkpt>
<trkpt lat="46.0265850" lon="10.3769430">
	<ele>943.40</ele>
	<time>2024-07-24T11:25:05.000Z</time>
</trkpt>
<trkpt lat="46.0265830" lon="10.3769390">
	<ele>943.40</ele>
	<time>2024-07-24T11:25:06.000Z</time>
</trkpt>
<trkpt lat="46.0265840" lon="10.3769410">
	<ele>943.40</ele>
	<time>2024-07-24T11:25:07.000Z</time>
</trkpt>
<trkpt lat="46.0265810" lon="10.3769420">
	<ele>943.40</ele>
	<time>2024-07-24T11:25:08.000Z</time>
</trkpt>
<trkpt lat="46.0265800" lon="10.3769440">
	<ele>943.40</ele>
	<time>2024-07-24T11:25:09.000Z</time>
</trkpt>
<trkpt lat="46.0265680" lon="10.3769420">
	<ele>943.40</ele>
	<time>2024-07-24T11:25:10.000Z</time>
</trkpt>
<trkpt lat="46.0265680" lon="10.3769450">
	<ele>943.40</ele>
	<time>2024-07-24T11:25:11.000Z</time>
</trkpt>
<trkpt lat="46.0265820" lon="10.3769520">
	<ele>943.40</ele>
	<time>2024-07-24T11:25:12.000Z</time>
</trkpt>
<trkpt lat="46.0265810" lon="10.3769560">
	<ele>943.60</ele>
	<time>2024-07-24T11:25:13.000Z</time>
</trkpt>
<trkpt lat="46.0265900" lon="10.3769920">
	<ele>943.60</ele>
	<time>2024-07-24T11:25:14.000Z</time>
</trkpt>
<trkpt lat="46.0265900" lon="10.3770100">
	<ele>943.60</ele>
	<time>2024-07-24T11:25:15.000Z</time>
</trkpt>
<trkpt lat="46.0266130" lon="10.3770510">
	<ele>943.60</ele>
	<time>2024-07-24T11:25:16.000Z</time>
</trkpt>
<trkpt lat="46.0266330" lon="10.3770770">
	<ele>943.60</ele>
	<time>2024-07-24T11:25:17.000Z</time>
</trkpt>
<trkpt lat="46.0266400" lon="10.3770990">
	<ele>943.60</ele>
	<time>2024-07-24T11:25:18.000Z</time>
</trkpt>
<trkpt lat="46.0266290" lon="10.3771130">
	<ele>943.60</ele>
	<time>2024-07-24T11:25:19.000Z</time>
</trkpt>
<trkpt lat="46.0266050" lon="10.3771210">
	<ele>943.60</ele>
	<time>2024-07-24T11:25:20.000Z</time>
</trkpt>
<trkpt lat="46.0265800" lon="10.3771260">
	<ele>943.60</ele>
	<time>2024-07-24T11:25:21.000Z</time>
</trkpt>
<trkpt lat="46.0265710" lon="10.3771240">
	<ele>943.60</ele>
	<time>2024-07-24T11:25:22.000Z</time>
</trkpt>
<trkpt lat="46.0265650" lon="10.3771370">
	<ele>943.60</ele>
	<time>2024-07-24T11:25:23.000Z</time>
</trkpt>
<trkpt lat="46.0265430" lon="10.3771190">
	<ele>943.60</ele>
	<time>2024-07-24T11:25:24.000Z</time>
</trkpt>
<trkpt lat="46.0265400" lon="10.3771170">
	<ele>943.60</ele>
	<time>2024-07-24T11:25:25.000Z</time>
</trkpt>
<trkpt lat="46.0265360" lon="10.3771030">
	<ele>943.60</ele>
	<time>2024-07-24T11:25:26.000Z</time>
</trkpt>
<trkpt lat="46.0265370" lon="10.3770950">
	<ele>943.60</ele>
	<time>2024-07-24T11:25:27.000Z</time>
</trkpt>
<trkpt lat="46.0265310" lon="10.3770880">
	<ele>943.80</ele>
	<time>2024-07-24T11:25:28.000Z</time>
</trkpt>
<trkpt lat="46.0265140" lon="10.3770400">
	<ele>943.80</ele>
	<time>2024-07-24T11:25:29.000Z</time>
</trkpt>
<trkpt lat="46.0265210" lon="10.3770320">
	<ele>943.80</ele>
	<time>2024-07-24T11:25:30.000Z</time>
</trkpt>
<trkpt lat="46.0265280" lon="10.3770310">
	<ele>943.80</ele>
	<time>2024-07-24T11:25:31.000Z</time>
</trkpt>
<trkpt lat="46.0265330" lon="10.3770230">
	<ele>943.80</ele>
	<time>2024-07-24T11:25:32.000Z</time>
</trkpt>
<trkpt lat="46.0265420" lon="10.3770220">
	<ele>943.60</ele>
	<time>2024-07-24T11:25:33.000Z</time>
</trkpt>
<trkpt lat="46.0265700" lon="10.3770770">
	<ele>943.60</ele>
	<time>2024-07-24T11:25:34.000Z</time>
</trkpt>
<trkpt lat="46.0265950" lon="10.3770970">
	<ele>943.60</ele>
	<time>2024-07-24T11:25:35.000Z</time>
</trkpt>
<trkpt lat="46.0265970" lon="10.3771050">
	<ele>943.80</ele>
	<time>2024-07-24T11:25:36.000Z</time>
</trkpt>
<trkpt lat="46.0265980" lon="10.3771140">
	<ele>943.80</ele>
	<time>2024-07-24T11:25:37.000Z</time>
</trkpt>
<trkpt lat="46.0265930" lon="10.3771130">
	<ele>943.80</ele>
	<time>2024-07-24T11:25:38.000Z</time>
</trkpt>
<trkpt lat="46.0265780" lon="10.3770930">
	<ele>943.80</ele>
	<time>2024-07-24T11:25:39.000Z</time>
</trkpt>
<trkpt lat="46.0265810" lon="10.3771250">
	<ele>943.80</ele>
	<time>2024-07-24T11:25:40.000Z</time>
</trkpt>
<trkpt lat="46.0265800" lon="10.3771400">
	<ele>943.80</ele>
	<time>2024-07-24T11:25:41.000Z</time>
</trkpt>
<trkpt lat="46.0265800" lon="10.3771310">
	<ele>944.00</ele>
	<time>2024-07-24T11:25:42.000Z</time>
</trkpt>
<trkpt lat="46.0265780" lon="10.3771380">
	<ele>944.00</ele>
	<time>2024-07-24T11:25:43.000Z</time>
</trkpt>
<trkpt lat="46.0265740" lon="10.3771390">
	<ele>944.00</ele>
	<time>2024-07-24T11:25:44.000Z</time>
</trkpt>
<trkpt lat="46.0265700" lon="10.3771400">
	<ele>944.20</ele>
	<time>2024-07-24T11:25:45.000Z</time>
</trkpt>
<trkpt lat="46.0265680" lon="10.3771440">
	<ele>944.20</ele>
	<time>2024-07-24T11:25:46.000Z</time>
</trkpt>
<trkpt lat="46.0265640" lon="10.3771430">
	<ele>944.20</ele>
	<time>2024-07-24T11:25:47.000Z</time>
</trkpt>
<trkpt lat="46.0265650" lon="10.3771550">
	<ele>944.20</ele>
	<time>2024-07-24T11:25:48.000Z</time>
</trkpt>
<trkpt lat="46.0265670" lon="10.3771670">
	<ele>944.20</ele>
	<time>2024-07-24T11:25:49.000Z</time>
</trkpt>
<trkpt lat="46.0265660" lon="10.3771850">
	<ele>944.20</ele>
	<time>2024-07-24T11:25:50.000Z</time>
</trkpt>
<trkpt lat="46.0265650" lon="10.3772030">
	<ele>944.00</ele>
	<time>2024-07-24T11:25:51.000Z</time>
</trkpt>
<trkpt lat="46.0265550" lon="10.3772080">
	<ele>944.00</ele>
	<time>2024-07-24T11:25:52.000Z</time>
</trkpt>
<trkpt lat="46.0265420" lon="10.3771830">
	<ele>944.00</ele>
	<time>2024-07-24T11:25:53.000Z</time>
</trkpt>
<trkpt lat="46.0265360" lon="10.3771700">
	<ele>944.00</ele>
	<time>2024-07-24T11:25:54.000Z</time>
</trkpt>
<trkpt lat="46.0265320" lon="10.3771670">
	<ele>944.00</ele>
	<time>2024-07-24T11:25:55.000Z</time>
</trkpt>
<trkpt lat="46.0265180" lon="10.3771760">
	<ele>944.00</ele>
	<time>2024-07-24T11:25:56.000Z</time>
</trkpt>
<trkpt lat="46.0265110" lon="10.3771750">
	<ele>944.00</ele>
	<time>2024-07-24T11:25:57.000Z</time>
</trkpt>
<trkpt lat="46.0265140" lon="10.3771620">
	<ele>944.00</ele>
	<time>2024-07-24T11:25:58.000Z</time>
</trkpt>
<trkpt lat="46.0265090" lon="10.3771230">
	<ele>944.20</ele>
	<time>2024-07-24T11:25:59.000Z</time>
</trkpt>
<trkpt lat="46.0264980" lon="10.3770800">
	<ele>944.20</ele>
	<time>2024-07-24T11:26:00.000Z</time>
</trkpt>
<trkpt lat="46.0264840" lon="10.3770420">
	<ele>944.40</ele>
	<time>2024-07-24T11:26:01.000Z</time>
</trkpt>
<trkpt lat="46.0264740" lon="10.3770030">
	<ele>944.40</ele>
	<time>2024-07-24T11:26:02.000Z</time>
</trkpt>
<trkpt lat="46.0264730" lon="10.3769890">
	<ele>944.40</ele>
	<time>2024-07-24T11:26:03.000Z</time>
</trkpt>
<trkpt lat="46.0264790" lon="10.3769690">
	<ele>944.60</ele>
	<time>2024-07-24T11:26:04.000Z</time>
</trkpt>
<trkpt lat="46.0264770" lon="10.3769610">
	<ele>944.60</ele>
	<time>2024-07-24T11:26:05.000Z</time>
</trkpt>
<trkpt lat="46.0264740" lon="10.3769550">
	<ele>944.60</ele>
	<time>2024-07-24T11:26:06.000Z</time>
</trkpt>
<trkpt lat="46.0264750" lon="10.3769450">
	<ele>944.60</ele>
	<time>2024-07-24T11:26:07.000Z</time>
</trkpt>
<trkpt lat="46.0264740" lon="10.3769320">
	<ele>944.80</ele>
	<time>2024-07-24T11:26:08.000Z</time>
</trkpt>
<trkpt lat="46.0264790" lon="10.3769190">
	<ele>944.80</ele>
	<time>2024-07-24T11:26:09.000Z</time>
</trkpt>
<trkpt lat="46.0264780" lon="10.3769080">
	<ele>944.80</ele>
	<time>2024-07-24T11:26:10.000Z</time>
</trkpt>
<trkpt lat="46.0264750" lon="10.3768950">
	<ele>944.80</ele>
	<time>2024-07-24T11:26:11.000Z</time>
</trkpt>
<trkpt lat="46.0264750" lon="10.3768850">
	<ele>945.00</ele>
	<time>2024-07-24T11:26:12.000Z</time>
</trkpt>
<trkpt lat="46.0264730" lon="10.3768720">
	<ele>945.00</ele>
	<time>2024-07-24T11:26:13.000Z</time>
</trkpt>
<trkpt lat="46.0264660" lon="10.3768510">
	<ele>945.20</ele>
	<time>2024-07-24T11:26:14.000Z</time>
</trkpt>
<trkpt lat="46.0264580" lon="10.3768320">
	<ele>945.20</ele>
	<time>2024-07-24T11:26:15.000Z</time>
</trkpt>
<trkpt lat="46.0264560" lon="10.3768210">
	<ele>945.40</ele>
	<time>2024-07-24T11:26:16.000Z</time>
</trkpt>
<trkpt lat="46.0264640" lon="10.3768220">
	<ele>945.60</ele>
	<time>2024-07-24T11:26:17.000Z</time>
</trkpt>
<trkpt lat="46.0264620" lon="10.3768110">
	<ele>945.60</ele>
	<time>2024-07-24T11:26:18.000Z</time>
</trkpt>
<trkpt lat="46.0264690" lon="10.3767820">
	<ele>945.80</ele>
	<time>2024-07-24T11:26:19.000Z</time>
</trkpt>
<trkpt lat="46.0264860" lon="10.3767750">
	<ele>945.80</ele>
	<time>2024-07-24T11:26:20.000Z</time>
</trkpt>
<trkpt lat="46.0264780" lon="10.3767520">
	<ele>946.00</ele>
	<time>2024-07-24T11:26:21.000Z</time>
</trkpt>
<trkpt lat="46.0264800" lon="10.3767550">
	<ele>946.00</ele>
	<time>2024-07-24T11:26:22.000Z</time>
</trkpt>
<trkpt lat="46.0264730" lon="10.3767390">
	<ele>946.20</ele>
	<time>2024-07-24T11:26:23.000Z</time>
</trkpt>
<trkpt lat="46.0264680" lon="10.3767200">
	<ele>946.20</ele>
	<time>2024-07-24T11:26:24.000Z</time>
</trkpt>
<trkpt lat="46.0264600" lon="10.3767010">
	<ele>946.40</ele>
	<time>2024-07-24T11:26:25.000Z</time>
</trkpt>
<trkpt lat="46.0264600" lon="10.3766870">
	<ele>946.60</ele>
	<time>2024-07-24T11:26:26.000Z</time>
</trkpt>
<trkpt lat="46.0264620" lon="10.3766690">
	<ele>946.80</ele>
	<time>2024-07-24T11:26:27.000Z</time>
</trkpt>
<trkpt lat="46.0264590" lon="10.3766540">
	<ele>947.00</ele>
	<time>2024-07-24T11:26:28.000Z</time>
</trkpt>
<trkpt lat="46.0264550" lon="10.3766450">
	<ele>947.00</ele>
	<time>2024-07-24T11:26:29.000Z</time>
</trkpt>
<trkpt lat="46.0264490" lon="10.3766330">
	<ele>947.20</ele>
	<time>2024-07-24T11:26:30.000Z</time>
</trkpt>
<trkpt lat="46.0264470" lon="10.3766270">
	<ele>947.20</ele>
	<time>2024-07-24T11:26:31.000Z</time>
</trkpt>
<trkpt lat="46.0264380" lon="10.3766080">
	<ele>947.20</ele>
	<time>2024-07-24T11:26:32.000Z</time>
</trkpt>
<trkpt lat="46.0264360" lon="10.3765930">
	<ele>947.40</ele>
	<time>2024-07-24T11:26:33.000Z</time>
</trkpt>
<trkpt lat="46.0264330" lon="10.3765820">
	<ele>947.40</ele>
	<time>2024-07-24T11:26:34.000Z</time>
</trkpt>
<trkpt lat="46.0264290" lon="10.3765570">
	<ele>947.20</ele>
	<time>2024-07-24T11:26:35.000Z</time>
</trkpt>
<trkpt lat="46.0264320" lon="10.3765360">
	<ele>947.20</ele>
	<time>2024-07-24T11:26:36.000Z</time>
</trkpt>
<trkpt lat="46.0264310" lon="10.3765260">
	<ele>947.20</ele>
	<time>2024-07-24T11:26:37.000Z</time>
</trkpt>
<trkpt lat="46.0264310" lon="10.3765100">
	<ele>947.20</ele>
	<time>2024-07-24T11:26:38.000Z</time>
</trkpt>
<trkpt lat="46.0264320" lon="10.3764960">
	<ele>947.20</ele>
	<time>2024-07-24T11:26:39.000Z</time>
</trkpt>
<trkpt lat="46.0264300" lon="10.3764860">
	<ele>947.20</ele>
	<time>2024-07-24T11:26:40.000Z</time>
</trkpt>
<trkpt lat="46.0264300" lon="10.3764720">
	<ele>947.20</ele>
	<time>2024-07-24T11:26:41.000Z</time>
</trkpt>
<trkpt lat="46.0264290" lon="10.3764610">
	<ele>947.20</ele>
	<time>2024-07-24T11:26:42.000Z</time>
</trkpt>
<trkpt lat="46.0264220" lon="10.3764440">
	<ele>947.20</ele>
	<time>2024-07-24T11:26:43.000Z</time>
</trkpt>
<trkpt lat="46.0264180" lon="10.3764300">
	<ele>947.20</ele>
	<time>2024-07-24T11:26:44.000Z</time>
</trkpt>
<trkpt lat="46.0264130" lon="10.3764130">
	<ele>947.20</ele>
	<time>2024-07-24T11:26:45.000Z</time>
</trkpt>
<trkpt lat="46.0264040" lon="10.3763940">
	<ele>947.20</ele>
	<time>2024-07-24T11:26:46.000Z</time>
</trkpt>
<trkpt lat="46.0263960" lon="10.3763780">
	<ele>947.20</ele>
	<time>2024-07-24T11:26:47.000Z</time>
</trkpt>
<trkpt lat="46.0263890" lon="10.3763620">
	<ele>947.20</ele>
	<time>2024-07-24T11:26:48.000Z</time>
</trkpt>
<trkpt lat="46.0263910" lon="10.3763500">
	<ele>947.20</ele>
	<time>2024-07-24T11:26:49.000Z</time>
</trkpt>
<trkpt lat="46.0263910" lon="10.3763370">
	<ele>947.20</ele>
	<time>2024-07-24T11:26:50.000Z</time>
</trkpt>
<trkpt lat="46.0263960" lon="10.3763330">
	<ele>947.20</ele>
	<time>2024-07-24T11:26:51.000Z</time>
</trkpt>
<trkpt lat="46.0264040" lon="10.3763350">
	<ele>947.20</ele>
	<time>2024-07-24T11:26:52.000Z</time>
</trkpt>
<trkpt lat="46.0264040" lon="10.3763350">
	<ele>947.20</ele>
	<time>2024-07-24T11:26:53.000Z</time>
</trkpt>
<trkpt lat="46.0264020" lon="10.3763320">
	<ele>947.20</ele>
	<time>2024-07-24T11:26:54.000Z</time>
</trkpt>
<trkpt lat="46.0263930" lon="10.3763280">
	<ele>947.20</ele>
	<time>2024-07-24T11:26:55.000Z</time>
</trkpt>
<trkpt lat="46.0263920" lon="10.3763330">
	<ele>947.20</ele>
	<time>2024-07-24T11:26:56.000Z</time>
</trkpt>
<trkpt lat="46.0263840" lon="10.3763260">
	<ele>947.40</ele>
	<time>2024-07-24T11:26:57.000Z</time>
</trkpt>
<trkpt lat="46.0263740" lon="10.3763130">
	<ele>947.40</ele>
	<time>2024-07-24T11:26:58.000Z</time>
</trkpt>
<trkpt lat="46.0263630" lon="10.3762970">
	<ele>947.40</ele>
	<time>2024-07-24T11:26:59.000Z</time>
</trkpt>
<trkpt lat="46.0263560" lon="10.3762820">
	<ele>947.40</ele>
	<time>2024-07-24T11:27:00.000Z</time>
</trkpt>
<trkpt lat="46.0263510" lon="10.3762700">
	<ele>947.40</ele>
	<time>2024-07-24T11:27:01.000Z</time>
</trkpt>
<trkpt lat="46.0263450" lon="10.3762590">
	<ele>947.40</ele>
	<time>2024-07-24T11:27:02.000Z</time>
</trkpt>
<trkpt lat="46.0263400" lon="10.3762510">
	<ele>947.20</ele>
	<time>2024-07-24T11:27:03.000Z</time>
</trkpt>
<trkpt lat="46.0263280" lon="10.3762370">
	<ele>947.20</ele>
	<time>2024-07-24T11:27:04.000Z</time>
</trkpt>
<trkpt lat="46.0263210" lon="10.3762220">
	<ele>947.20</ele>
	<time>2024-07-24T11:27:05.000Z</time>
</trkpt>
<trkpt lat="46.0263180" lon="10.3762110">
	<ele>947.20</ele>
	<time>2024-07-24T11:27:06.000Z</time>
</trkpt>
<trkpt lat="46.0263130" lon="10.3761990">
	<ele>947.20</ele>
	<time>2024-07-24T11:27:07.000Z</time>
</trkpt>
<trkpt lat="46.0263090" lon="10.3761860">
	<ele>947.20</ele>
	<time>2024-07-24T11:27:08.000Z</time>
</trkpt>
<trkpt lat="46.0263100" lon="10.3761740">
	<ele>947.20</ele>
	<time>2024-07-24T11:27:09.000Z</time>
</trkpt>
<trkpt lat="46.0263080" lon="10.3761610">
	<ele>947.20</ele>
	<time>2024-07-24T11:27:10.000Z</time>
</trkpt>
<trkpt lat="46.0263010" lon="10.3761450">
	<ele>947.20</ele>
	<time>2024-07-24T11:27:11.000Z</time>
</trkpt>
<trkpt lat="46.0262930" lon="10.3761250">
	<ele>947.20</ele>
	<time>2024-07-24T11:27:12.000Z</time>
</trkpt>
<trkpt lat="46.0262820" lon="10.3761040">
	<ele>947.20</ele>
	<time>2024-07-24T11:27:13.000Z</time>
</trkpt>
<trkpt lat="46.0262780" lon="10.3760860">
	<ele>947.20</ele>
	<time>2024-07-24T11:27:14.000Z</time>
</trkpt>
<trkpt lat="46.0262760" lon="10.3760720">
	<ele>947.20</ele>
	<time>2024-07-24T11:27:15.000Z</time>
</trkpt>
<trkpt lat="46.0262750" lon="10.3760620">
	<ele>947.20</ele>
	<time>2024-07-24T11:27:16.000Z</time>
</trkpt>
<trkpt lat="46.0262690" lon="10.3760500">
	<ele>947.00</ele>
	<time>2024-07-24T11:27:17.000Z</time>
</trkpt>
<trkpt lat="46.0262630" lon="10.3760390">
	<ele>947.00</ele>
	<time>2024-07-24T11:27:18.000Z</time>
</trkpt>
<trkpt lat="46.0262550" lon="10.3760300">
	<ele>947.00</ele>
	<time>2024-07-24T11:27:19.000Z</time>
</trkpt>
<trkpt lat="46.0262440" lon="10.3760140">
	<ele>947.00</ele>
	<time>2024-07-24T11:27:20.000Z</time>
</trkpt>
<trkpt lat="46.0262300" lon="10.3759950">
	<ele>947.00</ele>
	<time>2024-07-24T11:27:21.000Z</time>
</trkpt>
<trkpt lat="46.0262210" lon="10.3759840">
	<ele>947.00</ele>
	<time>2024-07-24T11:27:22.000Z</time>
</trkpt>
<trkpt lat="46.0262190" lon="10.3759740">
	<ele>947.00</ele>
	<time>2024-07-24T11:27:23.000Z</time>
</trkpt>
<trkpt lat="46.0262210" lon="10.3759660">
	<ele>947.00</ele>
	<time>2024-07-24T11:27:24.000Z</time>
</trkpt>
<trkpt lat="46.0262120" lon="10.3759420">
	<ele>947.00</ele>
	<time>2024-07-24T11:27:25.000Z</time>
</trkpt>
<trkpt lat="46.0262070" lon="10.3759220">
	<ele>947.00</ele>
	<time>2024-07-24T11:27:26.000Z</time>
</trkpt>
<trkpt lat="46.0262050" lon="10.3759130">
	<ele>947.00</ele>
	<time>2024-07-24T11:27:27.000Z</time>
</trkpt>
<trkpt lat="46.0262030" lon="10.3759000">
	<ele>947.00</ele>
	<time>2024-07-24T11:27:28.000Z</time>
</trkpt>
<trkpt lat="46.0261930" lon="10.3758740">
	<ele>947.00</ele>
	<time>2024-07-24T11:27:29.000Z</time>
</trkpt>
<trkpt lat="46.0261820" lon="10.3758490">
	<ele>947.00</ele>
	<time>2024-07-24T11:27:30.000Z</time>
</trkpt>
<trkpt lat="46.0261740" lon="10.3758290">
	<ele>947.00</ele>
	<time>2024-07-24T11:27:31.000Z</time>
</trkpt>
<trkpt lat="46.0261750" lon="10.3758150">
	<ele>947.00</ele>
	<time>2024-07-24T11:27:32.000Z</time>
</trkpt>
<trkpt lat="46.0261760" lon="10.3758010">
	<ele>947.00</ele>
	<time>2024-07-24T11:27:33.000Z</time>
</trkpt>
<trkpt lat="46.0261770" lon="10.3757810">
	<ele>947.00</ele>
	<time>2024-07-24T11:27:34.000Z</time>
</trkpt>
<trkpt lat="46.0261770" lon="10.3757610">
	<ele>947.00</ele>
	<time>2024-07-24T11:27:35.000Z</time>
</trkpt>
<trkpt lat="46.0261780" lon="10.3757450">
	<ele>947.00</ele>
	<time>2024-07-24T11:27:36.000Z</time>
</trkpt>
<trkpt lat="46.0261800" lon="10.3757290">
	<ele>947.00</ele>
	<time>2024-07-24T11:27:37.000Z</time>
</trkpt>
<trkpt lat="46.0261790" lon="10.3757120">
	<ele>947.00</ele>
	<time>2024-07-24T11:27:38.000Z</time>
</trkpt>
<trkpt lat="46.0261810" lon="10.3756940">
	<ele>947.00</ele>
	<time>2024-07-24T11:27:39.000Z</time>
</trkpt>
<trkpt lat="46.0261850" lon="10.3756770">
	<ele>947.00</ele>
	<time>2024-07-24T11:27:40.000Z</time>
</trkpt>
<trkpt lat="46.0261910" lon="10.3756630">
	<ele>947.00</ele>
	<time>2024-07-24T11:27:41.000Z</time>
</trkpt>
<trkpt lat="46.0262020" lon="10.3756580">
	<ele>947.00</ele>
	<time>2024-07-24T11:27:42.000Z</time>
</trkpt>
<trkpt lat="46.0262120" lon="10.3756540">
	<ele>947.00</ele>
	<time>2024-07-24T11:27:43.000Z</time>
</trkpt>
<trkpt lat="46.0262180" lon="10.3756500">
	<ele>946.80</ele>
	<time>2024-07-24T11:27:44.000Z</time>
</trkpt>
<trkpt lat="46.0262160" lon="10.3756460">
	<ele>947.00</ele>
	<time>2024-07-24T11:27:45.000Z</time>
</trkpt>
<trkpt lat="46.0262140" lon="10.3756420">
	<ele>947.20</ele>
	<time>2024-07-24T11:27:46.000Z</time>
</trkpt>
<trkpt lat="46.0262130" lon="10.3756410">
	<ele>947.40</ele>
	<time>2024-07-24T11:27:47.000Z</time>
</trkpt>
<trkpt lat="46.0262110" lon="10.3756400">
	<ele>947.40</ele>
	<time>2024-07-24T11:27:48.000Z</time>
</trkpt>
<trkpt lat="46.0262130" lon="10.3756390">
	<ele>947.60</ele>
	<time>2024-07-24T11:27:49.000Z</time>
</trkpt>
<trkpt lat="46.0262180" lon="10.3756440">
	<ele>947.80</ele>
	<time>2024-07-24T11:27:50.000Z</time>
</trkpt>
<trkpt lat="46.0262230" lon="10.3756520">
	<ele>947.80</ele>
	<time>2024-07-24T11:27:51.000Z</time>
</trkpt>
<trkpt lat="46.0262250" lon="10.3756530">
	<ele>948.00</ele>
	<time>2024-07-24T11:27:52.000Z</time>
</trkpt>
<trkpt lat="46.0262240" lon="10.3756530">
	<ele>948.00</ele>
	<time>2024-07-24T11:27:53.000Z</time>
</trkpt>
<trkpt lat="46.0262250" lon="10.3756530">
	<ele>948.00</ele>
	<time>2024-07-24T11:27:54.000Z</time>
</trkpt>
<trkpt lat="46.0262260" lon="10.3756520">
	<ele>948.00</ele>
	<time>2024-07-24T11:27:55.000Z</time>
</trkpt>
<trkpt lat="46.0262310" lon="10.3756520">
	<ele>948.00</ele>
	<time>2024-07-24T11:27:56.000Z</time>
</trkpt>
<trkpt lat="46.0262250" lon="10.3756430">
	<ele>947.80</ele>
	<time>2024-07-24T11:27:57.000Z</time>
</trkpt>
<trkpt lat="46.0262230" lon="10.3756390">
	<ele>947.80</ele>
	<time>2024-07-24T11:27:58.000Z</time>
</trkpt>
<trkpt lat="46.0262150" lon="10.3756210">
	<ele>947.60</ele>
	<time>2024-07-24T11:27:59.000Z</time>
</trkpt>
<trkpt lat="46.0262100" lon="10.3756040">
	<ele>947.60</ele>
	<time>2024-07-24T11:28:00.000Z</time>
</trkpt>
<trkpt lat="46.0262060" lon="10.3755970">
	<ele>947.40</ele>
	<time>2024-07-24T11:28:01.000Z</time>
</trkpt>
<trkpt lat="46.0262080" lon="10.3755850">
	<ele>947.20</ele>
	<time>2024-07-24T11:28:02.000Z</time>
</trkpt>
<trkpt lat="46.0262000" lon="10.3755670">
	<ele>947.20</ele>
	<time>2024-07-24T11:28:03.000Z</time>
</trkpt>
<trkpt lat="46.0261960" lon="10.3755470">
	<ele>947.00</ele>
	<time>2024-07-24T11:28:04.000Z</time>
</trkpt>
<trkpt lat="46.0261990" lon="10.3755300">
	<ele>946.80</ele>
	<time>2024-07-24T11:28:05.000Z</time>
</trkpt>
<trkpt lat="46.0261990" lon="10.3755150">
	<ele>947.00</ele>
	<time>2024-07-24T11:28:06.000Z</time>
</trkpt>
<trkpt lat="46.0261990" lon="10.3754990">
	<ele>947.00</ele>
	<time>2024-07-24T11:28:07.000Z</time>
</trkpt>
<trkpt lat="46.0262050" lon="10.3754830">
	<ele>947.00</ele>
	<time>2024-07-24T11:28:08.000Z</time>
</trkpt>
<trkpt lat="46.0261990" lon="10.3754630">
	<ele>947.00</ele>
	<time>2024-07-24T11:28:09.000Z</time>
</trkpt>
<trkpt lat="46.0262050" lon="10.3754470">
	<ele>947.00</ele>
	<time>2024-07-24T11:28:10.000Z</time>
</trkpt>
<trkpt lat="46.0262070" lon="10.3754320">
	<ele>947.00</ele>
	<time>2024-07-24T11:28:11.000Z</time>
</trkpt>
<trkpt lat="46.0262220" lon="10.3754200">
	<ele>947.00</ele>
	<time>2024-07-24T11:28:12.000Z</time>
</trkpt>
<trkpt lat="46.0262320" lon="10.3754100">
	<ele>946.80</ele>
	<time>2024-07-24T11:28:13.000Z</time>
</trkpt>
<trkpt lat="46.0262250" lon="10.3753850">
	<ele>946.80</ele>
	<time>2024-07-24T11:28:14.000Z</time>
</trkpt>
<trkpt lat="46.0262200" lon="10.3753700">
	<ele>946.80</ele>
	<time>2024-07-24T11:28:15.000Z</time>
</trkpt>
<trkpt lat="46.0262030" lon="10.3753420">
	<ele>947.00</ele>
	<time>2024-07-24T11:28:16.000Z</time>
</trkpt>
<trkpt lat="46.0262050" lon="10.3753290">
	<ele>947.00</ele>
	<time>2024-07-24T11:28:17.000Z</time>
</trkpt>
<trkpt lat="46.0262000" lon="10.3753050">
	<ele>947.00</ele>
	<time>2024-07-24T11:28:18.000Z</time>
</trkpt>
<trkpt lat="46.0262000" lon="10.3752770">
	<ele>947.00</ele>
	<time>2024-07-24T11:28:19.000Z</time>
</trkpt>
<trkpt lat="46.0262010" lon="10.3752600">
	<ele>947.00</ele>
	<time>2024-07-24T11:28:20.000Z</time>
</trkpt>
<trkpt lat="46.0262140" lon="10.3752560">
	<ele>947.00</ele>
	<time>2024-07-24T11:28:21.000Z</time>
</trkpt>
<trkpt lat="46.0262180" lon="10.3752450">
	<ele>947.00</ele>
	<time>2024-07-24T11:28:22.000Z</time>
</trkpt>
<trkpt lat="46.0262110" lon="10.3752250">
	<ele>947.00</ele>
	<time>2024-07-24T11:28:23.000Z</time>
</trkpt>
<trkpt lat="46.0262000" lon="10.3752020">
	<ele>947.00</ele>
	<time>2024-07-24T11:28:24.000Z</time>
</trkpt>
<trkpt lat="46.0261920" lon="10.3751770">
	<ele>947.00</ele>
	<time>2024-07-24T11:28:25.000Z</time>
</trkpt>
<trkpt lat="46.0261850" lon="10.3751510">
	<ele>947.00</ele>
	<time>2024-07-24T11:28:26.000Z</time>
</trkpt>
<trkpt lat="46.0261860" lon="10.3751290">
	<ele>947.00</ele>
	<time>2024-07-24T11:28:27.000Z</time>
</trkpt>
<trkpt lat="46.0261940" lon="10.3751170">
	<ele>947.00</ele>
	<time>2024-07-24T11:28:28.000Z</time>
</trkpt>
<trkpt lat="46.0262070" lon="10.3751080">
	<ele>947.00</ele>
	<time>2024-07-24T11:28:29.000Z</time>
</trkpt>
<trkpt lat="46.0262170" lon="10.3750990">
	<ele>947.00</ele>
	<time>2024-07-24T11:28:30.000Z</time>
</trkpt>
<trkpt lat="46.0262270" lon="10.3750930">
	<ele>947.00</ele>
	<time>2024-07-24T11:28:31.000Z</time>
</trkpt>
<trkpt lat="46.0262230" lon="10.3750790">
	<ele>947.00</ele>
	<time>2024-07-24T11:28:32.000Z</time>
</trkpt>
<trkpt lat="46.0262160" lon="10.3750630">
	<ele>947.00</ele>
	<time>2024-07-24T11:28:33.000Z</time>
</trkpt>
<trkpt lat="46.0262080" lon="10.3750480">
	<ele>947.00</ele>
	<time>2024-07-24T11:28:34.000Z</time>
</trkpt>
<trkpt lat="46.0262090" lon="10.3750320">
	<ele>947.00</ele>
	<time>2024-07-24T11:28:35.000Z</time>
</trkpt>
<trkpt lat="46.0262170" lon="10.3750240">
	<ele>947.20</ele>
	<time>2024-07-24T11:28:36.000Z</time>
</trkpt>
<trkpt lat="46.0262050" lon="10.3749980">
	<ele>947.20</ele>
	<time>2024-07-24T11:28:37.000Z</time>
</trkpt>
<trkpt lat="46.0261880" lon="10.3749740">
	<ele>947.00</ele>
	<time>2024-07-24T11:28:38.000Z</time>
</trkpt>
<trkpt lat="46.0261760" lon="10.3749500">
	<ele>947.00</ele>
	<time>2024-07-24T11:28:39.000Z</time>
</trkpt>
<trkpt lat="46.0261590" lon="10.3749230">
	<ele>947.00</ele>
	<time>2024-07-24T11:28:40.000Z</time>
</trkpt>
<trkpt lat="46.0261550" lon="10.3749050">
	<ele>947.00</ele>
	<time>2024-07-24T11:28:41.000Z</time>
</trkpt>
<trkpt lat="46.0261570" lon="10.3748900">
	<ele>947.00</ele>
	<time>2024-07-24T11:28:42.000Z</time>
</trkpt>
<trkpt lat="46.0261420" lon="10.3748640">
	<ele>947.00</ele>
	<time>2024-07-24T11:28:43.000Z</time>
</trkpt>
<trkpt lat="46.0261110" lon="10.3748320">
	<ele>947.00</ele>
	<time>2024-07-24T11:28:44.000Z</time>
</trkpt>
<trkpt lat="46.0260890" lon="10.3748020">
	<ele>947.00</ele>
	<time>2024-07-24T11:28:45.000Z</time>
</trkpt>
<trkpt lat="46.0260650" lon="10.3747680">
	<ele>946.80</ele>
	<time>2024-07-24T11:28:46.000Z</time>
</trkpt>
<trkpt lat="46.0260500" lon="10.3747390">
	<ele>946.80</ele>
	<time>2024-07-24T11:28:47.000Z</time>
</trkpt>
<trkpt lat="46.0260540" lon="10.3747260">
	<ele>946.80</ele>
	<time>2024-07-24T11:28:48.000Z</time>
</trkpt>
<trkpt lat="46.0260540" lon="10.3747130">
	<ele>946.80</ele>
	<time>2024-07-24T11:28:49.000Z</time>
</trkpt>
<trkpt lat="46.0260490" lon="10.3746940">
	<ele>946.80</ele>
	<time>2024-07-24T11:28:50.000Z</time>
</trkpt>
<trkpt lat="46.0260430" lon="10.3746720">
	<ele>946.80</ele>
	<time>2024-07-24T11:28:51.000Z</time>
</trkpt>
<trkpt lat="46.0260390" lon="10.3746520">
	<ele>946.80</ele>
	<time>2024-07-24T11:28:52.000Z</time>
</trkpt>
<trkpt lat="46.0260450" lon="10.3746420">
	<ele>946.80</ele>
	<time>2024-07-24T11:28:53.000Z</time>
</trkpt>
<trkpt lat="46.0260370" lon="10.3746200">
	<ele>947.00</ele>
	<time>2024-07-24T11:28:54.000Z</time>
</trkpt>
<trkpt lat="46.0260310" lon="10.3745980">
	<ele>947.00</ele>
	<time>2024-07-24T11:28:55.000Z</time>
</trkpt>
<trkpt lat="46.0260350" lon="10.3745860">
	<ele>947.00</ele>
	<time>2024-07-24T11:28:56.000Z</time>
</trkpt>
<trkpt lat="46.0260340" lon="10.3745730">
	<ele>947.00</ele>
	<time>2024-07-24T11:28:57.000Z</time>
</trkpt>
<trkpt lat="46.0260320" lon="10.3745550">
	<ele>947.00</ele>
	<time>2024-07-24T11:28:58.000Z</time>
</trkpt>
<trkpt lat="46.0260370" lon="10.3745390">
	<ele>947.00</ele>
	<time>2024-07-24T11:28:59.000Z</time>
</trkpt>
<trkpt lat="46.0260410" lon="10.3745250">
	<ele>947.00</ele>
	<time>2024-07-24T11:29:00.000Z</time>
</trkpt>
<trkpt lat="46.0260330" lon="10.3744980">
	<ele>946.80</ele>
	<time>2024-07-24T11:29:01.000Z</time>
</trkpt>
<trkpt lat="46.0260260" lon="10.3744790">
	<ele>946.80</ele>
	<time>2024-07-24T11:29:02.000Z</time>
</trkpt>
<trkpt lat="46.0260280" lon="10.3744650">
	<ele>946.80</ele>
	<time>2024-07-24T11:29:03.000Z</time>
</trkpt>
<trkpt lat="46.0260330" lon="10.3744450">
	<ele>947.00</ele>
	<time>2024-07-24T11:29:04.000Z</time>
</trkpt>
<trkpt lat="46.0260380" lon="10.3744310">
	<ele>947.00</ele>
	<time>2024-07-24T11:29:05.000Z</time>
</trkpt>
<trkpt lat="46.0260400" lon="10.3744170">
	<ele>947.00</ele>
	<time>2024-07-24T11:29:06.000Z</time>
</trkpt>
<trkpt lat="46.0260380" lon="10.3744000">
	<ele>947.00</ele>
	<time>2024-07-24T11:29:07.000Z</time>
</trkpt>
<trkpt lat="46.0260410" lon="10.3743880">
	<ele>947.00</ele>
	<time>2024-07-24T11:29:08.000Z</time>
</trkpt>
<trkpt lat="46.0260470" lon="10.3743770">
	<ele>947.00</ele>
	<time>2024-07-24T11:29:09.000Z</time>
</trkpt>
<trkpt lat="46.0260480" lon="10.3743610">
	<ele>947.00</ele>
	<time>2024-07-24T11:29:10.000Z</time>
</trkpt>
<trkpt lat="46.0260330" lon="10.3743270">
	<ele>946.80</ele>
	<time>2024-07-24T11:29:11.000Z</time>
</trkpt>
<trkpt lat="46.0260320" lon="10.3743100">
	<ele>946.80</ele>
	<time>2024-07-24T11:29:12.000Z</time>
</trkpt>
<trkpt lat="46.0260280" lon="10.3742900">
	<ele>946.80</ele>
	<time>2024-07-24T11:29:13.000Z</time>
</trkpt>
<trkpt lat="46.0260280" lon="10.3742710">
	<ele>946.80</ele>
	<time>2024-07-24T11:29:14.000Z</time>
</trkpt>
<trkpt lat="46.0260270" lon="10.3742490">
	<ele>946.80</ele>
	<time>2024-07-24T11:29:15.000Z</time>
</trkpt>
<trkpt lat="46.0260350" lon="10.3742360">
	<ele>946.80</ele>
	<time>2024-07-24T11:29:16.000Z</time>
</trkpt>
<trkpt lat="46.0260480" lon="10.3742210">
	<ele>946.80</ele>
	<time>2024-07-24T11:29:17.000Z</time>
</trkpt>
<trkpt lat="46.0260580" lon="10.3742060">
	<ele>946.80</ele>
	<time>2024-07-24T11:29:18.000Z</time>
</trkpt>
<trkpt lat="46.0260600" lon="10.3741880">
	<ele>946.80</ele>
	<time>2024-07-24T11:29:19.000Z</time>
</trkpt>
<trkpt lat="46.0260650" lon="10.3741790">
	<ele>946.80</ele>
	<time>2024-07-24T11:29:20.000Z</time>
</trkpt>
<trkpt lat="46.0260640" lon="10.3741660">
	<ele>946.80</ele>
	<time>2024-07-24T11:29:21.000Z</time>
</trkpt>
<trkpt lat="46.0260700" lon="10.3741550">
	<ele>946.80</ele>
	<time>2024-07-24T11:29:22.000Z</time>
</trkpt>
<trkpt lat="46.0260750" lon="10.3741410">
	<ele>946.80</ele>
	<time>2024-07-24T11:29:23.000Z</time>
</trkpt>
<trkpt lat="46.0260800" lon="10.3741280">
	<ele>946.60</ele>
	<time>2024-07-24T11:29:24.000Z</time>
</trkpt>
<trkpt lat="46.0260930" lon="10.3741110">
	<ele>946.60</ele>
	<time>2024-07-24T11:29:25.000Z</time>
</trkpt>
<trkpt lat="46.0260940" lon="10.3740840">
	<ele>946.40</ele>
	<time>2024-07-24T11:29:26.000Z</time>
</trkpt>
<trkpt lat="46.0261000" lon="10.3740690">
	<ele>946.40</ele>
	<time>2024-07-24T11:29:27.000Z</time>
</trkpt>
<trkpt lat="46.0260980" lon="10.3740480">
	<ele>946.40</ele>
	<time>2024-07-24T11:29:28.000Z</time>
</trkpt>
<trkpt lat="46.0260990" lon="10.3740290">
	<ele>946.40</ele>
	<time>2024-07-24T11:29:29.000Z</time>
</trkpt>
<trkpt lat="46.0261010" lon="10.3740120">
	<ele>946.40</ele>
	<time>2024-07-24T11:29:30.000Z</time>
</trkpt>
<trkpt lat="46.0261030" lon="10.3740070">
	<ele>946.40</ele>
	<time>2024-07-24T11:29:31.000Z</time>
</trkpt>
<trkpt lat="46.0261040" lon="10.3740090">
	<ele>946.60</ele>
	<time>2024-07-24T11:29:32.000Z</time>
</trkpt>
<trkpt lat="46.0261060" lon="10.3740120">
	<ele>946.60</ele>
	<time>2024-07-24T11:29:33.000Z</time>
</trkpt>
<trkpt lat="46.0261060" lon="10.3740120">
	<ele>946.60</ele>
	<time>2024-07-24T11:29:34.000Z</time>
</trkpt>
<trkpt lat="46.0261180" lon="10.3740220">
	<ele>946.80</ele>
	<time>2024-07-24T11:29:35.000Z</time>
</trkpt>
<trkpt lat="46.0261240" lon="10.3740180">
	<ele>946.60</ele>
	<time>2024-07-24T11:29:36.000Z</time>
</trkpt>
<trkpt lat="46.0261320" lon="10.3740090">
	<ele>946.60</ele>
	<time>2024-07-24T11:29:37.000Z</time>
</trkpt>
<trkpt lat="46.0261350" lon="10.3739960">
	<ele>946.60</ele>
	<time>2024-07-24T11:29:38.000Z</time>
</trkpt>
<trkpt lat="46.0261470" lon="10.3739870">
	<ele>946.60</ele>
	<time>2024-07-24T11:29:39.000Z</time>
</trkpt>
<trkpt lat="46.0261560" lon="10.3739740">
	<ele>946.60</ele>
	<time>2024-07-24T11:29:40.000Z</time>
</trkpt>
<trkpt lat="46.0261690" lon="10.3739670">
	<ele>946.60</ele>
	<time>2024-07-24T11:29:41.000Z</time>
</trkpt>
<trkpt lat="46.0261780" lon="10.3739600">
	<ele>946.80</ele>
	<time>2024-07-24T11:29:42.000Z</time>
</trkpt>
<trkpt lat="46.0261830" lon="10.3739510">
	<ele>946.80</ele>
	<time>2024-07-24T11:29:43.000Z</time>
</trkpt>
<trkpt lat="46.0262010" lon="10.3739420">
	<ele>946.80</ele>
	<time>2024-07-24T11:29:44.000Z</time>
</trkpt>
<trkpt lat="46.0261960" lon="10.3739210">
	<ele>947.00</ele>
	<time>2024-07-24T11:29:45.000Z</time>
</trkpt>
<trkpt lat="46.0262040" lon="10.3739080">
	<ele>947.00</ele>
	<time>2024-07-24T11:29:46.000Z</time>
</trkpt>
<trkpt lat="46.0262100" lon="10.3738940">
	<ele>947.00</ele>
	<time>2024-07-24T11:29:47.000Z</time>
</trkpt>
<trkpt lat="46.0262190" lon="10.3738800">
	<ele>947.00</ele>
	<time>2024-07-24T11:29:48.000Z</time>
</trkpt>
<trkpt lat="46.0262460" lon="10.3738810">
	<ele>947.00</ele>
	<time>2024-07-24T11:29:49.000Z</time>
</trkpt>
<trkpt lat="46.0262640" lon="10.3738770">
	<ele>947.00</ele>
	<time>2024-07-24T11:29:50.000Z</time>
</trkpt>
<trkpt lat="46.0262700" lon="10.3738630">
	<ele>947.00</ele>
	<time>2024-07-24T11:29:51.000Z</time>
</trkpt>
<trkpt lat="46.0262690" lon="10.3738390">
	<ele>947.00</ele>
	<time>2024-07-24T11:29:52.000Z</time>
</trkpt>
<trkpt lat="46.0262700" lon="10.3738180">
	<ele>947.00</ele>
	<time>2024-07-24T11:29:53.000Z</time>
</trkpt>
<trkpt lat="46.0262740" lon="10.3737980">
	<ele>947.00</ele>
	<time>2024-07-24T11:29:54.000Z</time>
</trkpt>
<trkpt lat="46.0262780" lon="10.3737730">
	<ele>947.00</ele>
	<time>2024-07-24T11:29:55.000Z</time>
</trkpt>
<trkpt lat="46.0262840" lon="10.3737570">
	<ele>946.80</ele>
	<time>2024-07-24T11:29:56.000Z</time>
</trkpt>
<trkpt lat="46.0262900" lon="10.3737390">
	<ele>946.60</ele>
	<time>2024-07-24T11:29:57.000Z</time>
</trkpt>
<trkpt lat="46.0262930" lon="10.3737230">
	<ele>946.60</ele>
	<time>2024-07-24T11:29:58.000Z</time>
</trkpt>
<trkpt lat="46.0262980" lon="10.3737080">
	<ele>946.40</ele>
	<time>2024-07-24T11:29:59.000Z</time>
</trkpt>
<trkpt lat="46.0262990" lon="10.3736890">
	<ele>946.60</ele>
	<time>2024-07-24T11:30:00.000Z</time>
</trkpt>
<trkpt lat="46.0262970" lon="10.3736670">
	<ele>946.60</ele>
	<time>2024-07-24T11:30:01.000Z</time>
</trkpt>
<trkpt lat="46.0262990" lon="10.3736470">
	<ele>946.60</ele>
	<time>2024-07-24T11:30:02.000Z</time>
</trkpt>
<trkpt lat="46.0262980" lon="10.3736260">
	<ele>946.60</ele>
	<time>2024-07-24T11:30:03.000Z</time>
</trkpt>
<trkpt lat="46.0262720" lon="10.3723290">
	<ele>945.60</ele>
	<time>2024-07-24T11:31:07.000Z</time>
</trkpt>
<trkpt lat="46.0261330" lon="10.3724000">
	<ele>945.60</ele>
	<time>2024-07-24T11:31:08.000Z</time>
</trkpt>
<trkpt lat="46.0266660" lon="10.3725940">
	<ele>945.60</ele>
	<time>2024-07-24T11:31:09.000Z</time>
</trkpt>
<trkpt lat="46.0263390" lon="10.3724250">
	<ele>945.60</ele>
	<time>2024-07-24T11:31:10.000Z</time>
</trkpt>
<trkpt lat="46.0263990" lon="10.3724960">
	<ele>945.40</ele>
	<time>2024-07-24T11:31:11.000Z</time>
</trkpt>
<trkpt lat="46.0263250" lon="10.3724390">
	<ele>945.40</ele>
	<time>2024-07-24T11:31:12.000Z</time>
</trkpt>
<trkpt lat="46.0262600" lon="10.3723660">
	<ele>945.40</ele>
	<time>2024-07-24T11:31:13.000Z</time>
</trkpt>
<trkpt lat="46.0262650" lon="10.3723750">
	<ele>945.40</ele>
	<time>2024-07-24T11:31:14.000Z</time>
</trkpt>
<trkpt lat="46.0263110" lon="10.3724210">
	<ele>945.40</ele>
	<time>2024-07-24T11:31:15.000Z</time>
</trkpt>
<trkpt lat="46.0263220" lon="10.3724300">
	<ele>945.40</ele>
	<time>2024-07-24T11:31:16.000Z</time>
</trkpt>
<trkpt lat="46.0263290" lon="10.3724250">
	<ele>945.40</ele>
	<time>2024-07-24T11:31:17.000Z</time>
</trkpt>
<trkpt lat="46.0263030" lon="10.3723980">
	<ele>945.20</ele>
	<time>2024-07-24T11:31:18.000Z</time>
</trkpt>
<trkpt lat="46.0262920" lon="10.3723850">
	<ele>945.20</ele>
	<time>2024-07-24T11:31:19.000Z</time>
</trkpt>
<trkpt lat="46.0262700" lon="10.3723740">
	<ele>945.20</ele>
	<time>2024-07-24T11:31:20.000Z</time>
</trkpt>
<trkpt lat="46.0262560" lon="10.3723550">
	<ele>945.20</ele>
	<time>2024-07-24T11:31:21.000Z</time>
</trkpt>
<trkpt lat="46.0262260" lon="10.3723150">
	<ele>945.20</ele>
	<time>2024-07-24T11:31:22.000Z</time>
</trkpt>
<trkpt lat="46.0261970" lon="10.3722910">
	<ele>945.20</ele>
	<time>2024-07-24T11:31:23.000Z</time>
</trkpt>
<trkpt lat="46.0261930" lon="10.3722870">
	<ele>945.20</ele>
	<time>2024-07-24T11:31:24.000Z</time>
</trkpt>
<trkpt lat="46.0261930" lon="10.3722770">
	<ele>945.20</ele>
	<time>2024-07-24T11:31:25.000Z</time>
</trkpt>
<trkpt lat="46.0261880" lon="10.3722630">
	<ele>945.20</ele>
	<time>2024-07-24T11:31:26.000Z</time>
</trkpt>
<trkpt lat="46.0261830" lon="10.3722510">
	<ele>945.20</ele>
	<time>2024-07-24T11:31:27.000Z</time>
</trkpt>
<trkpt lat="46.0261790" lon="10.3722410">
	<ele>945.20</ele>
	<time>2024-07-24T11:31:28.000Z</time>
</trkpt>
<trkpt lat="46.0261750" lon="10.3722300">
	<ele>945.20</ele>
	<time>2024-07-24T11:31:29.000Z</time>
</trkpt>
<trkpt lat="46.0261690" lon="10.3722150">
	<ele>945.20</ele>
	<time>2024-07-24T11:31:30.000Z</time>
</trkpt>
<trkpt lat="46.0261660" lon="10.3722010">
	<ele>945.20</ele>
	<time>2024-07-24T11:31:31.000Z</time>
</trkpt>
<trkpt lat="46.0261570" lon="10.3721860">
	<ele>945.00</ele>
	<time>2024-07-24T11:31:32.000Z</time>
</trkpt>
<trkpt lat="46.0261450" lon="10.3721730">
	<ele>945.00</ele>
	<time>2024-07-24T11:31:33.000Z</time>
</trkpt>
<trkpt lat="46.0261300" lon="10.3721610">
	<ele>945.00</ele>
	<time>2024-07-24T11:31:34.000Z</time>
</trkpt>
<trkpt lat="46.0261270" lon="10.3721480">
	<ele>945.00</ele>
	<time>2024-07-24T11:31:35.000Z</time>
</trkpt>
<trkpt lat="46.0261220" lon="10.3721300">
	<ele>945.00</ele>
	<time>2024-07-24T11:31:36.000Z</time>
</trkpt>
<trkpt lat="46.0261160" lon="10.3721120">
	<ele>945.00</ele>
	<time>2024-07-24T11:31:37.000Z</time>
</trkpt>
<trkpt lat="46.0261170" lon="10.3720960">
	<ele>945.00</ele>
	<time>2024-07-24T11:31:38.000Z</time>
</trkpt>
<trkpt lat="46.0261110" lon="10.3720820">
	<ele>945.00</ele>
	<time>2024-07-24T11:31:39.000Z</time>
</trkpt>
<trkpt lat="46.0261000" lon="10.3720660">
	<ele>945.00</ele>
	<time>2024-07-24T11:31:40.000Z</time>
</trkpt>
<trkpt lat="46.0260930" lon="10.3720550">
	<ele>945.00</ele>
	<time>2024-07-24T11:31:41.000Z</time>
</trkpt>
<trkpt lat="46.0260920" lon="10.3720430">
	<ele>945.00</ele>
	<time>2024-07-24T11:31:42.000Z</time>
</trkpt>
<trkpt lat="46.0260890" lon="10.3720300">
	<ele>945.00</ele>
	<time>2024-07-24T11:31:43.000Z</time>
</trkpt>
<trkpt lat="46.0260900" lon="10.3720170">
	<ele>945.00</ele>
	<time>2024-07-24T11:31:44.000Z</time>
</trkpt>
<trkpt lat="46.0260880" lon="10.3720020">
	<ele>945.00</ele>
	<time>2024-07-24T11:31:45.000Z</time>
</trkpt>
<trkpt lat="46.0260900" lon="10.3719850">
	<ele>945.00</ele>
	<time>2024-07-24T11:31:46.000Z</time>
</trkpt>
<trkpt lat="46.0260890" lon="10.3719650">
	<ele>944.80</ele>
	<time>2024-07-24T11:31:47.000Z</time>
</trkpt>
<trkpt lat="46.0260930" lon="10.3719470">
	<ele>944.80</ele>
	<time>2024-07-24T11:31:48.000Z</time>
</trkpt>
<trkpt lat="46.0260930" lon="10.3719300">
	<ele>944.80</ele>
	<time>2024-07-24T11:31:49.000Z</time>
</trkpt>
<trkpt lat="46.0260880" lon="10.3719140">
	<ele>944.80</ele>
	<time>2024-07-24T11:31:50.000Z</time>
</trkpt>
<trkpt lat="46.0260790" lon="10.3718940">
	<ele>944.80</ele>
	<time>2024-07-24T11:31:51.000Z</time>
</trkpt>
<trkpt lat="46.0260740" lon="10.3718760">
	<ele>944.80</ele>
	<time>2024-07-24T11:31:52.000Z</time>
</trkpt>
<trkpt lat="46.0260680" lon="10.3718540">
	<ele>944.80</ele>
	<time>2024-07-24T11:31:53.000Z</time>
</trkpt>
<trkpt lat="46.0260660" lon="10.3718370">
	<ele>944.80</ele>
	<time>2024-07-24T11:31:54.000Z</time>
</trkpt>
<trkpt lat="46.0260660" lon="10.3718220">
	<ele>944.80</ele>
	<time>2024-07-24T11:31:55.000Z</time>
</trkpt>
<trkpt lat="46.0260660" lon="10.3718100">
	<ele>944.80</ele>
	<time>2024-07-24T11:31:56.000Z</time>
</trkpt>
<trkpt lat="46.0260690" lon="10.3717980">
	<ele>944.80</ele>
	<time>2024-07-24T11:31:57.000Z</time>
</trkpt>
<trkpt lat="46.0260670" lon="10.3717770">
	<ele>944.80</ele>
	<time>2024-07-24T11:31:58.000Z</time>
</trkpt>
<trkpt lat="46.0260630" lon="10.3717550">
	<ele>944.80</ele>
	<time>2024-07-24T11:31:59.000Z</time>
</trkpt>
<trkpt lat="46.0260610" lon="10.3717360">
	<ele>944.80</ele>
	<time>2024-07-24T11:32:00.000Z</time>
</trkpt>
<trkpt lat="46.0260540" lon="10.3717180">
	<ele>944.80</ele>
	<time>2024-07-24T11:32:01.000Z</time>
</trkpt>
<trkpt lat="46.0260450" lon="10.3717000">
	<ele>944.80</ele>
	<time>2024-07-24T11:32:02.000Z</time>
</trkpt>
<trkpt lat="46.0260340" lon="10.3716830">
	<ele>944.80</ele>
	<time>2024-07-24T11:32:03.000Z</time>
</trkpt>
<trkpt lat="46.0260240" lon="10.3716600">
	<ele>944.80</ele>
	<time>2024-07-24T11:32:04.000Z</time>
</trkpt>
<trkpt lat="46.0260130" lon="10.3716360">
	<ele>944.80</ele>
	<time>2024-07-24T11:32:05.000Z</time>
</trkpt>
<trkpt lat="46.0260010" lon="10.3716160">
	<ele>944.60</ele>
	<time>2024-07-24T11:32:06.000Z</time>
</trkpt>
<trkpt lat="46.0260010" lon="10.3715960">
	<ele>944.60</ele>
	<time>2024-07-24T11:32:07.000Z</time>
</trkpt>
<trkpt lat="46.0259970" lon="10.3715780">
	<ele>944.60</ele>
	<time>2024-07-24T11:32:08.000Z</time>
</trkpt>
<trkpt lat="46.0259870" lon="10.3715520">
	<ele>944.60</ele>
	<time>2024-07-24T11:32:09.000Z</time>
</trkpt>
<trkpt lat="46.0259860" lon="10.3715350">
	<ele>944.60</ele>
	<time>2024-07-24T11:32:10.000Z</time>
</trkpt>
<trkpt lat="46.0259870" lon="10.3715170">
	<ele>944.60</ele>
	<time>2024-07-24T11:32:11.000Z</time>
</trkpt>
<trkpt lat="46.0259840" lon="10.3714950">
	<ele>944.60</ele>
	<time>2024-07-24T11:32:12.000Z</time>
</trkpt>
<trkpt lat="46.0259850" lon="10.3714780">
	<ele>944.60</ele>
	<time>2024-07-24T11:32:13.000Z</time>
</trkpt>
<trkpt lat="46.0259830" lon="10.3714590">
	<ele>944.60</ele>
	<time>2024-07-24T11:32:14.000Z</time>
</trkpt>
<trkpt lat="46.0259800" lon="10.3714400">
	<ele>944.60</ele>
	<time>2024-07-24T11:32:15.000Z</time>
</trkpt>
<trkpt lat="46.0259760" lon="10.3714170">
	<ele>944.60</ele>
	<time>2024-07-24T11:32:16.000Z</time>
</trkpt>
<trkpt lat="46.0259710" lon="10.3713980">
	<ele>944.40</ele>
	<time>2024-07-24T11:32:17.000Z</time>
</trkpt>
<trkpt lat="46.0259620" lon="10.3713720">
	<ele>944.40</ele>
	<time>2024-07-24T11:32:18.000Z</time>
</trkpt>
<trkpt lat="46.0259490" lon="10.3713430">
	<ele>944.40</ele>
	<time>2024-07-24T11:32:19.000Z</time>
</trkpt>
<trkpt lat="46.0259430" lon="10.3713230">
	<ele>944.40</ele>
	<time>2024-07-24T11:32:20.000Z</time>
</trkpt>
<trkpt lat="46.0259330" lon="10.3713030">
	<ele>944.40</ele>
	<time>2024-07-24T11:32:21.000Z</time>
</trkpt>
<trkpt lat="46.0259260" lon="10.3712800">
	<ele>944.40</ele>
	<time>2024-07-24T11:32:22.000Z</time>
</trkpt>
<trkpt lat="46.0259200" lon="10.3712570">
	<ele>944.40</ele>
	<time>2024-07-24T11:32:23.000Z</time>
</trkpt>
<trkpt lat="46.0259200" lon="10.3712370">
	<ele>944.40</ele>
	<time>2024-07-24T11:32:24.000Z</time>
</trkpt>
<trkpt lat="46.0259250" lon="10.3712180">
	<ele>944.40</ele>
	<time>2024-07-24T11:32:25.000Z</time>
</trkpt>
<trkpt lat="46.0259340" lon="10.3712080">
	<ele>944.40</ele>
	<time>2024-07-24T11:32:26.000Z</time>
</trkpt>
<trkpt lat="46.0259470" lon="10.3711980">
	<ele>944.20</ele>
	<time>2024-07-24T11:32:27.000Z</time>
</trkpt>
<trkpt lat="46.0259570" lon="10.3711920">
	<ele>944.20</ele>
	<time>2024-07-24T11:32:28.000Z</time>
</trkpt>
<trkpt lat="46.0259620" lon="10.3711800">
	<ele>944.00</ele>
	<time>2024-07-24T11:32:29.000Z</time>
</trkpt>
<trkpt lat="46.0259610" lon="10.3711640">
	<ele>944.00</ele>
	<time>2024-07-24T11:32:30.000Z</time>
</trkpt>
<trkpt lat="46.0259560" lon="10.3711480">
	<ele>944.00</ele>
	<time>2024-07-24T11:32:31.000Z</time>
</trkpt>
<trkpt lat="46.0259550" lon="10.3711360">
	<ele>944.00</ele>
	<time>2024-07-24T11:32:32.000Z</time>
</trkpt>
<trkpt lat="46.0259610" lon="10.3711280">
	<ele>944.00</ele>
	<time>2024-07-24T11:32:33.000Z</time>
</trkpt>
<trkpt lat="46.0259690" lon="10.3711200">
	<ele>944.00</ele>
	<time>2024-07-24T11:32:34.000Z</time>
</trkpt>
<trkpt lat="46.0259760" lon="10.3711130">
	<ele>944.00</ele>
	<time>2024-07-24T11:32:35.000Z</time>
</trkpt>
<trkpt lat="46.0259770" lon="10.3710980">
	<ele>944.00</ele>
	<time>2024-07-24T11:32:36.000Z</time>
</trkpt>
<trkpt lat="46.0259840" lon="10.3710910">
	<ele>944.00</ele>
	<time>2024-07-24T11:32:37.000Z</time>
</trkpt>
<trkpt lat="46.0259800" lon="10.3710700">
	<ele>944.00</ele>
	<time>2024-07-24T11:32:38.000Z</time>
</trkpt>
<trkpt lat="46.0259790" lon="10.3710510">
	<ele>944.00</ele>
	<time>2024-07-24T11:32:39.000Z</time>
</trkpt>
<trkpt lat="46.0259750" lon="10.3710310">
	<ele>944.00</ele>
	<time>2024-07-24T11:32:40.000Z</time>
</trkpt>
<trkpt lat="46.0259710" lon="10.3710140">
	<ele>943.80</ele>
	<time>2024-07-24T11:32:41.000Z</time>
</trkpt>
<trkpt lat="46.0259750" lon="10.3709970">
	<ele>943.80</ele>
	<time>2024-07-24T11:32:42.000Z</time>
</trkpt>
<trkpt lat="46.0259710" lon="10.3709780">
	<ele>943.80</ele>
	<time>2024-07-24T11:32:43.000Z</time>
</trkpt>
<trkpt lat="46.0259760" lon="10.3709650">
	<ele>943.80</ele>
	<time>2024-07-24T11:32:44.000Z</time>
</trkpt>
<trkpt lat="46.0259820" lon="10.3709530">
	<ele>943.80</ele>
	<time>2024-07-24T11:32:45.000Z</time>
</trkpt>
<trkpt lat="46.0259830" lon="10.3709340">
	<ele>944.00</ele>
	<time>2024-07-24T11:32:46.000Z</time>
</trkpt>
<trkpt lat="46.0259890" lon="10.3709230">
	<ele>944.00</ele>
	<time>2024-07-24T11:32:47.000Z</time>
</trkpt>
<trkpt lat="46.0259930" lon="10.3709100">
	<ele>944.00</ele>
	<time>2024-07-24T11:32:48.000Z</time>
</trkpt>
<trkpt lat="46.0259950" lon="10.3708980">
	<ele>944.00</ele>
	<time>2024-07-24T11:32:49.000Z</time>
</trkpt>
<trkpt lat="46.0259940" lon="10.3708800">
	<ele>944.00</ele>
	<time>2024-07-24T11:32:50.000Z</time>
</trkpt>
<trkpt lat="46.0259940" lon="10.3708650">
	<ele>944.00</ele>
	<time>2024-07-24T11:32:51.000Z</time>
</trkpt>
<trkpt lat="46.0259870" lon="10.3708420">
	<ele>944.00</ele>
	<time>2024-07-24T11:32:52.000Z</time>
</trkpt>
<trkpt lat="46.0259820" lon="10.3708210">
	<ele>944.00</ele>
	<time>2024-07-24T11:32:53.000Z</time>
</trkpt>
<trkpt lat="46.0259790" lon="10.3708090">
	<ele>944.00</ele>
	<time>2024-07-24T11:32:54.000Z</time>
</trkpt>
<trkpt lat="46.0259700" lon="10.3707900">
	<ele>944.00</ele>
	<time>2024-07-24T11:32:55.000Z</time>
</trkpt>
<trkpt lat="46.0259530" lon="10.3707590">
	<ele>944.20</ele>
	<time>2024-07-24T11:32:56.000Z</time>
</trkpt>
<trkpt lat="46.0259510" lon="10.3707360">
	<ele>944.40</ele>
	<time>2024-07-24T11:32:57.000Z</time>
</trkpt>
<trkpt lat="46.0259510" lon="10.3707180">
	<ele>944.40</ele>
	<time>2024-07-24T11:32:58.000Z</time>
</trkpt>
<trkpt lat="46.0259500" lon="10.3707110">
	<ele>944.40</ele>
	<time>2024-07-24T11:32:59.000Z</time>
</trkpt>
<trkpt lat="46.0259500" lon="10.3707070">
	<ele>944.40</ele>
	<time>2024-07-24T11:33:00.000Z</time>
</trkpt>
<trkpt lat="46.0259530" lon="10.3707030">
	<ele>944.00</ele>
	<time>2024-07-24T11:33:01.000Z</time>
</trkpt>
<trkpt lat="46.0259510" lon="10.3706910">
	<ele>943.80</ele>
	<time>2024-07-24T11:33:02.000Z</time>
</trkpt>
<trkpt lat="46.0259480" lon="10.3706830">
	<ele>943.60</ele>
	<time>2024-07-24T11:33:03.000Z</time>
</trkpt>
<trkpt lat="46.0259450" lon="10.3706770">
	<ele>943.60</ele>
	<time>2024-07-24T11:33:04.000Z</time>
</trkpt>
<trkpt lat="46.0259460" lon="10.3706750">
	<ele>943.60</ele>
	<time>2024-07-24T11:33:05.000Z</time>
</trkpt>
<trkpt lat="46.0259450" lon="10.3706650">
	<ele>943.60</ele>
	<time>2024-07-24T11:33:06.000Z</time>
</trkpt>
<trkpt lat="46.0259470" lon="10.3706570">
	<ele>943.40</ele>
	<time>2024-07-24T11:33:07.000Z</time>
</trkpt>
<trkpt lat="46.0259410" lon="10.3706370">
	<ele>943.40</ele>
	<time>2024-07-24T11:33:08.000Z</time>
</trkpt>
<trkpt lat="46.0259380" lon="10.3706210">
	<ele>943.40</ele>
	<time>2024-07-24T11:33:09.000Z</time>
</trkpt>
<trkpt lat="46.0259350" lon="10.3706000">
	<ele>943.40</ele>
	<time>2024-07-24T11:33:10.000Z</time>
</trkpt>
<trkpt lat="46.0259220" lon="10.3705640">
	<ele>943.40</ele>
	<time>2024-07-24T11:33:11.000Z</time>
</trkpt>
<trkpt lat="46.0259060" lon="10.3705370">
	<ele>943.40</ele>
	<time>2024-07-24T11:33:12.000Z</time>
</trkpt>
<trkpt lat="46.0258970" lon="10.3705190">
	<ele>943.20</ele>
	<time>2024-07-24T11:33:13.000Z</time>
</trkpt>
<trkpt lat="46.0258910" lon="10.3705050">
	<ele>943.20</ele>
	<time>2024-07-24T11:33:14.000Z</time>
</trkpt>
<trkpt lat="46.0258860" lon="10.3704890">
	<ele>943.20</ele>
	<time>2024-07-24T11:33:15.000Z</time>
</trkpt>
<trkpt lat="46.0258820" lon="10.3704770">
	<ele>943.20</ele>
	<time>2024-07-24T11:33:16.000Z</time>
</trkpt>
<trkpt lat="46.0258630" lon="10.3704580">
	<ele>943.20</ele>
	<time>2024-07-24T11:33:17.000Z</time>
</trkpt>
<trkpt lat="46.0258590" lon="10.3704560">
	<ele>943.20</ele>
	<time>2024-07-24T11:33:18.000Z</time>
</trkpt>
<trkpt lat="46.0258410" lon="10.3704320">
	<ele>943.20</ele>
	<time>2024-07-24T11:33:19.000Z</time>
</trkpt>
<trkpt lat="46.0258290" lon="10.3704050">
	<ele>943.00</ele>
	<time>2024-07-24T11:33:20.000Z</time>
</trkpt>
<trkpt lat="46.0258230" lon="10.3703850">
	<ele>943.00</ele>
	<time>2024-07-24T11:33:21.000Z</time>
</trkpt>
<trkpt lat="46.0258200" lon="10.3703680">
	<ele>943.00</ele>
	<time>2024-07-24T11:33:22.000Z</time>
</trkpt>
<trkpt lat="46.0258270" lon="10.3703500">
	<ele>943.00</ele>
	<time>2024-07-24T11:33:23.000Z</time>
</trkpt>
<trkpt lat="46.0258270" lon="10.3703310">
	<ele>943.00</ele>
	<time>2024-07-24T11:33:24.000Z</time>
</trkpt>
<trkpt lat="46.0258260" lon="10.3703150">
	<ele>943.00</ele>
	<time>2024-07-24T11:33:25.000Z</time>
</trkpt>
<trkpt lat="46.0258170" lon="10.3702960">
	<ele>943.00</ele>
	<time>2024-07-24T11:33:26.000Z</time>
</trkpt>
<trkpt lat="46.0258050" lon="10.3702700">
	<ele>943.00</ele>
	<time>2024-07-24T11:33:27.000Z</time>
</trkpt>
<trkpt lat="46.0257940" lon="10.3702430">
	<ele>943.00</ele>
	<time>2024-07-24T11:33:28.000Z</time>
</trkpt>
<trkpt lat="46.0257870" lon="10.3702220">
	<ele>943.00</ele>
	<time>2024-07-24T11:33:29.000Z</time>
</trkpt>
<trkpt lat="46.0257820" lon="10.3702080">
	<ele>943.00</ele>
	<time>2024-07-24T11:33:30.000Z</time>
</trkpt>
<trkpt lat="46.0257810" lon="10.3701920">
	<ele>943.00</ele>
	<time>2024-07-24T11:33:31.000Z</time>
</trkpt>
<trkpt lat="46.0257850" lon="10.3701800">
	<ele>943.00</ele>
	<time>2024-07-24T11:33:32.000Z</time>
</trkpt>
<trkpt lat="46.0257810" lon="10.3701650">
	<ele>943.00</ele>
	<time>2024-07-24T11:33:33.000Z</time>
</trkpt>
<trkpt lat="46.0257760" lon="10.3701480">
	<ele>943.00</ele>
	<time>2024-07-24T11:33:34.000Z</time>
</trkpt>
<trkpt lat="46.0257730" lon="10.3701310">
	<ele>943.00</ele>
	<time>2024-07-24T11:33:35.000Z</time>
</trkpt>
<trkpt lat="46.0257720" lon="10.3701160">
	<ele>943.00</ele>
	<time>2024-07-24T11:33:36.000Z</time>
</trkpt>
<trkpt lat="46.0257720" lon="10.3701020">
	<ele>943.00</ele>
	<time>2024-07-24T11:33:37.000Z</time>
</trkpt>
<trkpt lat="46.0257660" lon="10.3700830">
	<ele>943.00</ele>
	<time>2024-07-24T11:33:38.000Z</time>
</trkpt>
<trkpt lat="46.0257650" lon="10.3700690">
	<ele>943.00</ele>
	<time>2024-07-24T11:33:39.000Z</time>
</trkpt>
<trkpt lat="46.0257570" lon="10.3700510">
	<ele>943.00</ele>
	<time>2024-07-24T11:33:40.000Z</time>
</trkpt>
<trkpt lat="46.0257490" lon="10.3700360">
	<ele>943.00</ele>
	<time>2024-07-24T11:33:41.000Z</time>
</trkpt>
<trkpt lat="46.0257500" lon="10.3700270">
	<ele>942.80</ele>
	<time>2024-07-24T11:33:42.000Z</time>
</trkpt>
<trkpt lat="46.0257510" lon="10.3700110">
	<ele>942.80</ele>
	<time>2024-07-24T11:33:43.000Z</time>
</trkpt>
<trkpt lat="46.0257530" lon="10.3699970">
	<ele>942.60</ele>
	<time>2024-07-24T11:33:44.000Z</time>
</trkpt>
<trkpt lat="46.0257490" lon="10.3699820">
	<ele>942.60</ele>
	<time>2024-07-24T11:33:45.000Z</time>
</trkpt>
<trkpt lat="46.0257490" lon="10.3699720">
	<ele>942.60</ele>
	<time>2024-07-24T11:33:46.000Z</time>
</trkpt>
<trkpt lat="46.0257470" lon="10.3699650">
	<ele>942.60</ele>
	<time>2024-07-24T11:33:47.000Z</time>
</trkpt>
<trkpt lat="46.0257460" lon="10.3699520">
	<ele>942.60</ele>
	<time>2024-07-24T11:33:48.000Z</time>
</trkpt>
<trkpt lat="46.0257480" lon="10.3699470">
	<ele>942.60</ele>
	<time>2024-07-24T11:33:49.000Z</time>
</trkpt>
<trkpt lat="46.0257470" lon="10.3699350">
	<ele>942.40</ele>
	<time>2024-07-24T11:33:50.000Z</time>
</trkpt>
<trkpt lat="46.0257450" lon="10.3699220">
	<ele>942.40</ele>
	<time>2024-07-24T11:33:51.000Z</time>
</trkpt>
<trkpt lat="46.0257410" lon="10.3698990">
	<ele>942.40</ele>
	<time>2024-07-24T11:33:52.000Z</time>
</trkpt>
<trkpt lat="46.0257340" lon="10.3698780">
	<ele>942.40</ele>
	<time>2024-07-24T11:33:53.000Z</time>
</trkpt>
<trkpt lat="46.0257310" lon="10.3698600">
	<ele>942.40</ele>
	<time>2024-07-24T11:33:54.000Z</time>
</trkpt>
<trkpt lat="46.0257370" lon="10.3698550">
	<ele>942.40</ele>
	<time>2024-07-24T11:33:55.000Z</time>
</trkpt>
<trkpt lat="46.0257480" lon="10.3698460">
	<ele>942.20</ele>
	<time>2024-07-24T11:33:56.000Z</time>
</trkpt>
<trkpt lat="46.0257540" lon="10.3698280">
	<ele>942.20</ele>
	<time>2024-07-24T11:33:57.000Z</time>
</trkpt>
<trkpt lat="46.0257640" lon="10.3698130">
	<ele>942.20</ele>
	<time>2024-07-24T11:33:58.000Z</time>
</trkpt>
<trkpt lat="46.0257690" lon="10.3697960">
	<ele>942.20</ele>
	<time>2024-07-24T11:33:59.000Z</time>
</trkpt>
<trkpt lat="46.0257650" lon="10.3697690">
	<ele>942.20</ele>
	<time>2024-07-24T11:34:00.000Z</time>
</trkpt>
<trkpt lat="46.0257640" lon="10.3697480">
	<ele>942.20</ele>
	<time>2024-07-24T11:34:01.000Z</time>
</trkpt>
<trkpt lat="46.0257660" lon="10.3697300">
	<ele>942.20</ele>
	<time>2024-07-24T11:34:02.000Z</time>
</trkpt>
<trkpt lat="46.0257760" lon="10.3697130">
	<ele>942.00</ele>
	<time>2024-07-24T11:34:03.000Z</time>
</trkpt>
<trkpt lat="46.0257830" lon="10.3696960">
	<ele>942.00</ele>
	<time>2024-07-24T11:34:04.000Z</time>
</trkpt>
<trkpt lat="46.0257780" lon="10.3696770">
	<ele>941.80</ele>
	<time>2024-07-24T11:34:05.000Z</time>
</trkpt>
<trkpt lat="46.0257820" lon="10.3696630">
	<ele>941.80</ele>
	<time>2024-07-24T11:34:06.000Z</time>
</trkpt>
<trkpt lat="46.0257880" lon="10.3696500">
	<ele>941.60</ele>
	<time>2024-07-24T11:34:07.000Z</time>
</trkpt>
<trkpt lat="46.0257950" lon="10.3696330">
	<ele>941.60</ele>
	<time>2024-07-24T11:34:08.000Z</time>
</trkpt>
<trkpt lat="46.0257970" lon="10.3696070">
	<ele>941.40</ele>
	<time>2024-07-24T11:34:09.000Z</time>
</trkpt>
<trkpt lat="46.0258110" lon="10.3695920">
	<ele>941.40</ele>
	<time>2024-07-24T11:34:10.000Z</time>
</trkpt>
<trkpt lat="46.0258050" lon="10.3695740">
	<ele>941.40</ele>
	<time>2024-07-24T11:34:11.000Z</time>
</trkpt>
<trkpt lat="46.0258030" lon="10.3695640">
	<ele>941.40</ele>
	<time>2024-07-24T11:34:12.000Z</time>
</trkpt>
<trkpt lat="46.0257910" lon="10.3695390">
	<ele>941.20</ele>
	<time>2024-07-24T11:34:13.000Z</time>
</trkpt>
<trkpt lat="46.0257790" lon="10.3695090">
	<ele>941.20</ele>
	<time>2024-07-24T11:34:14.000Z</time>
</trkpt>
<trkpt lat="46.0257690" lon="10.3694790">
	<ele>941.20</ele>
	<time>2024-07-24T11:34:15.000Z</time>
</trkpt>
<trkpt lat="46.0257690" lon="10.3694600">
	<ele>941.20</ele>
	<time>2024-07-24T11:34:16.000Z</time>
</trkpt>
<trkpt lat="46.0257760" lon="10.3694450">
	<ele>941.20</ele>
	<time>2024-07-24T11:34:17.000Z</time>
</trkpt>
<trkpt lat="46.0257930" lon="10.3694400">
	<ele>941.00</ele>
	<time>2024-07-24T11:34:18.000Z</time>
</trkpt>
<trkpt lat="46.0258040" lon="10.3694270">
	<ele>941.00</ele>
	<time>2024-07-24T11:34:19.000Z</time>
</trkpt>
<trkpt lat="46.0258160" lon="10.3694110">
	<ele>941.00</ele>
	<time>2024-07-24T11:34:20.000Z</time>
</trkpt>
<trkpt lat="46.0258250" lon="10.3693940">
	<ele>941.00</ele>
	<time>2024-07-24T11:34:21.000Z</time>
</trkpt>
<trkpt lat="46.0258270" lon="10.3693790">
	<ele>940.80</ele>
	<time>2024-07-24T11:34:22.000Z</time>
</trkpt>
<trkpt lat="46.0258250" lon="10.3693590">
	<ele>940.80</ele>
	<time>2024-07-24T11:34:23.000Z</time>
</trkpt>
<trkpt lat="46.0258260" lon="10.3693370">
	<ele>940.80</ele>
	<time>2024-07-24T11:34:24.000Z</time>
</trkpt>
<trkpt lat="46.0258280" lon="10.3693170">
	<ele>940.60</ele>
	<time>2024-07-24T11:34:25.000Z</time>
</trkpt>
<trkpt lat="46.0258300" lon="10.3692940">
	<ele>940.60</ele>
	<time>2024-07-24T11:34:26.000Z</time>
</trkpt>
<trkpt lat="46.0258320" lon="10.3692740">
	<ele>940.60</ele>
	<time>2024-07-24T11:34:27.000Z</time>
</trkpt>
<trkpt lat="46.0258310" lon="10.3692550">
	<ele>940.60</ele>
	<time>2024-07-24T11:34:28.000Z</time>
</trkpt>
<trkpt lat="46.0258310" lon="10.3692320">
	<ele>940.40</ele>
	<time>2024-07-24T11:34:29.000Z</time>
</trkpt>
<trkpt lat="46.0258400" lon="10.3692200">
	<ele>940.40</ele>
	<time>2024-07-24T11:34:30.000Z</time>
</trkpt>
<trkpt lat="46.0258500" lon="10.3692060">
	<ele>940.40</ele>
	<time>2024-07-24T11:34:31.000Z</time>
</trkpt>
<trkpt lat="46.0258600" lon="10.3691910">
	<ele>940.20</ele>
	<time>2024-07-24T11:34:32.000Z</time>
</trkpt>
<trkpt lat="46.0258700" lon="10.3691740">
	<ele>940.20</ele>
	<time>2024-07-24T11:34:33.000Z</time>
</trkpt>
<trkpt lat="46.0258760" lon="10.3691510">
	<ele>940.20</ele>
	<time>2024-07-24T11:34:34.000Z</time>
</trkpt>
<trkpt lat="46.0258770" lon="10.3691220">
	<ele>940.00</ele>
	<time>2024-07-24T11:34:35.000Z</time>
</trkpt>
<trkpt lat="46.0258820" lon="10.3691040">
	<ele>940.00</ele>
	<time>2024-07-24T11:34:36.000Z</time>
</trkpt>
<trkpt lat="46.0258860" lon="10.3690860">
	<ele>940.00</ele>
	<time>2024-07-24T11:34:37.000Z</time>
</trkpt>
<trkpt lat="46.0258920" lon="10.3690710">
	<ele>940.00</ele>
	<time>2024-07-24T11:34:38.000Z</time>
</trkpt>
<trkpt lat="46.0258960" lon="10.3690600">
	<ele>940.00</ele>
	<time>2024-07-24T11:34:39.000Z</time>
</trkpt>
<trkpt lat="46.0259010" lon="10.3690470">
	<ele>940.00</ele>
	<time>2024-07-24T11:34:40.000Z</time>
</trkpt>
<trkpt lat="46.0259050" lon="10.3690280">
	<ele>940.00</ele>
	<time>2024-07-24T11:34:41.000Z</time>
</trkpt>
<trkpt lat="46.0259120" lon="10.3690080">
	<ele>940.00</ele>
	<time>2024-07-24T11:34:42.000Z</time>
</trkpt>
<trkpt lat="46.0259210" lon="10.3689910">
	<ele>939.80</ele>
	<time>2024-07-24T11:34:43.000Z</time>
</trkpt>
<trkpt lat="46.0259300" lon="10.3689740">
	<ele>939.80</ele>
	<time>2024-07-24T11:34:44.000Z</time>
</trkpt>
<trkpt lat="46.0259340" lon="10.3689530">
	<ele>939.80</ele>
	<time>2024-07-24T11:34:45.000Z</time>
</trkpt>
<trkpt lat="46.0259370" lon="10.3689350">
	<ele>939.80</ele>
	<time>2024-07-24T11:34:46.000Z</time>
</trkpt>
<trkpt lat="46.0259380" lon="10.3689200">
	<ele>939.80</ele>
	<time>2024-07-24T11:34:47.000Z</time>
</trkpt>
<trkpt lat="46.0259420" lon="10.3689070">
	<ele>939.80</ele>
	<time>2024-07-24T11:34:48.000Z</time>
</trkpt>
<trkpt lat="46.0259430" lon="10.3688900">
	<ele>939.80</ele>
	<time>2024-07-24T11:34:49.000Z</time>
</trkpt>
<trkpt lat="46.0259470" lon="10.3688770">
	<ele>939.80</ele>
	<time>2024-07-24T11:34:50.000Z</time>
</trkpt>
<trkpt lat="46.0259500" lon="10.3688610">
	<ele>939.80</ele>
	<time>2024-07-24T11:34:51.000Z</time>
</trkpt>
<trkpt lat="46.0259520" lon="10.3688480">
	<ele>939.80</ele>
	<time>2024-07-24T11:34:52.000Z</time>
</trkpt>
<trkpt lat="46.0259530" lon="10.3688350">
	<ele>939.80</ele>
	<time>2024-07-24T11:34:53.000Z</time>
</trkpt>
<trkpt lat="46.0259650" lon="10.3688310">
	<ele>939.60</ele>
	<time>2024-07-24T11:34:54.000Z</time>
</trkpt>
<trkpt lat="46.0259770" lon="10.3688280">
	<ele>939.60</ele>
	<time>2024-07-24T11:34:55.000Z</time>
</trkpt>
<trkpt lat="46.0259810" lon="10.3688180">
	<ele>939.60</ele>
	<time>2024-07-24T11:34:56.000Z</time>
</trkpt>
<trkpt lat="46.0259800" lon="10.3687990">
	<ele>939.60</ele>
	<time>2024-07-24T11:34:57.000Z</time>
</trkpt>
<trkpt lat="46.0259740" lon="10.3687770">
	<ele>939.60</ele>
	<time>2024-07-24T11:34:58.000Z</time>
</trkpt>
<trkpt lat="46.0259740" lon="10.3687680">
	<ele>939.60</ele>
	<time>2024-07-24T11:34:59.000Z</time>
</trkpt>
<trkpt lat="46.0259730" lon="10.3687630">
	<ele>939.60</ele>
	<time>2024-07-24T11:35:00.000Z</time>
</trkpt>
<trkpt lat="46.0259790" lon="10.3687640">
	<ele>939.40</ele>
	<time>2024-07-24T11:35:01.000Z</time>
</trkpt>
<trkpt lat="46.0259890" lon="10.3687650">
	<ele>939.40</ele>
	<time>2024-07-24T11:35:02.000Z</time>
</trkpt>
<trkpt lat="46.0259930" lon="10.3687630">
	<ele>939.40</ele>
	<time>2024-07-24T11:35:03.000Z</time>
</trkpt>
<trkpt lat="46.0259980" lon="10.3687550">
	<ele>939.40</ele>
	<time>2024-07-24T11:35:04.000Z</time>
</trkpt>
<trkpt lat="46.0260070" lon="10.3687430">
	<ele>939.40</ele>
	<time>2024-07-24T11:35:05.000Z</time>
</trkpt>
<trkpt lat="46.0260180" lon="10.3687290">
	<ele>939.40</ele>
	<time>2024-07-24T11:35:06.000Z</time>
</trkpt>
<trkpt lat="46.0260330" lon="10.3687160">
	<ele>939.40</ele>
	<time>2024-07-24T11:35:07.000Z</time>
</trkpt>
<trkpt lat="46.0260430" lon="10.3687000">
	<ele>939.40</ele>
	<time>2024-07-24T11:35:08.000Z</time>
</trkpt>
<trkpt lat="46.0260530" lon="10.3686820">
	<ele>939.40</ele>
	<time>2024-07-24T11:35:09.000Z</time>
</trkpt>
<trkpt lat="46.0260470" lon="10.3686580">
	<ele>939.40</ele>
	<time>2024-07-24T11:35:10.000Z</time>
</trkpt>
<trkpt lat="46.0260580" lon="10.3686530">
	<ele>939.40</ele>
	<time>2024-07-24T11:35:11.000Z</time>
</trkpt>
<trkpt lat="46.0260690" lon="10.3686400">
	<ele>939.40</ele>
	<time>2024-07-24T11:35:12.000Z</time>
</trkpt>
<trkpt lat="46.0260800" lon="10.3686240">
	<ele>939.40</ele>
	<time>2024-07-24T11:35:13.000Z</time>
</trkpt>
<trkpt lat="46.0260890" lon="10.3686090">
	<ele>939.40</ele>
	<time>2024-07-24T11:35:14.000Z</time>
</trkpt>
<trkpt lat="46.0261010" lon="10.3685910">
	<ele>939.20</ele>
	<time>2024-07-24T11:35:15.000Z</time>
</trkpt>
<trkpt lat="46.0261150" lon="10.3685760">
	<ele>938.20</ele>
	<time>2024-07-24T11:35:16.000Z</time>
</trkpt>
<trkpt lat="46.0261190" lon="10.3685520">
	<ele>938.20</ele>
	<time>2024-07-24T11:35:17.000Z</time>
</trkpt>
<trkpt lat="46.0261280" lon="10.3685310">
	<ele>938.20</ele>
	<time>2024-07-24T11:35:18.000Z</time>
</trkpt>
<trkpt lat="46.0261420" lon="10.3685160">
	<ele>938.20</ele>
	<time>2024-07-24T11:35:19.000Z</time>
</trkpt>
<trkpt lat="46.0261530" lon="10.3685030">
	<ele>938.20</ele>
	<time>2024-07-24T11:35:20.000Z</time>
</trkpt>
<trkpt lat="46.0261580" lon="10.3684860">
	<ele>938.00</ele>
	<time>2024-07-24T11:35:21.000Z</time>
</trkpt>
<trkpt lat="46.0261510" lon="10.3684550">
	<ele>938.00</ele>
	<time>2024-07-24T11:35:22.000Z</time>
</trkpt>
<trkpt lat="46.0261650" lon="10.3684410">
	<ele>938.00</ele>
	<time>2024-07-24T11:35:23.000Z</time>
</trkpt>
<trkpt lat="46.0261780" lon="10.3684300">
	<ele>937.80</ele>
	<time>2024-07-24T11:35:24.000Z</time>
</trkpt>
<trkpt lat="46.0261910" lon="10.3684180">
	<ele>937.60</ele>
	<time>2024-07-24T11:35:25.000Z</time>
</trkpt>
<trkpt lat="46.0261970" lon="10.3684010">
	<ele>937.40</ele>
	<time>2024-07-24T11:35:26.000Z</time>
</trkpt>
<trkpt lat="46.0262040" lon="10.3683860">
	<ele>937.40</ele>
	<time>2024-07-24T11:35:27.000Z</time>
</trkpt>
<trkpt lat="46.0262050" lon="10.3683620">
	<ele>937.40</ele>
	<time>2024-07-24T11:35:28.000Z</time>
</trkpt>
<trkpt lat="46.0262020" lon="10.3683410">
	<ele>937.20</ele>
	<time>2024-07-24T11:35:29.000Z</time>
</trkpt>
<trkpt lat="46.0262040" lon="10.3683280">
	<ele>937.20</ele>
	<time>2024-07-24T11:35:30.000Z</time>
</trkpt>
<trkpt lat="46.0262040" lon="10.3683090">
	<ele>937.20</ele>
	<time>2024-07-24T11:35:31.000Z</time>
</trkpt>
<trkpt lat="46.0262080" lon="10.3682930">
	<ele>937.00</ele>
	<time>2024-07-24T11:35:32.000Z</time>
</trkpt>
<trkpt lat="46.0262040" lon="10.3682720">
	<ele>937.00</ele>
	<time>2024-07-24T11:35:33.000Z</time>
</trkpt>
<trkpt lat="46.0262010" lon="10.3682490">
	<ele>937.00</ele>
	<time>2024-07-24T11:35:34.000Z</time>
</trkpt>
<trkpt lat="46.0262050" lon="10.3682310">
	<ele>937.00</ele>
	<time>2024-07-24T11:35:35.000Z</time>
</trkpt>
<trkpt lat="46.0262040" lon="10.3682100">
	<ele>936.80</ele>
	<time>2024-07-24T11:35:36.000Z</time>
</trkpt>
<trkpt lat="46.0262020" lon="10.3681880">
	<ele>936.80</ele>
	<time>2024-07-24T11:35:37.000Z</time>
</trkpt>
<trkpt lat="46.0262020" lon="10.3681680">
	<ele>936.80</ele>
	<time>2024-07-24T11:35:38.000Z</time>
</trkpt>
<trkpt lat="46.0262030" lon="10.3681510">
	<ele>936.60</ele>
	<time>2024-07-24T11:35:39.000Z</time>
</trkpt>
<trkpt lat="46.0262020" lon="10.3681300">
	<ele>936.60</ele>
	<time>2024-07-24T11:35:40.000Z</time>
</trkpt>
<trkpt lat="46.0262020" lon="10.3681080">
	<ele>936.40</ele>
	<time>2024-07-24T11:35:41.000Z</time>
</trkpt>
<trkpt lat="46.0262010" lon="10.3680920">
	<ele>936.20</ele>
	<time>2024-07-24T11:35:42.000Z</time>
</trkpt>
<trkpt lat="46.0261950" lon="10.3680680">
	<ele>936.00</ele>
	<time>2024-07-24T11:35:43.000Z</time>
</trkpt>
<trkpt lat="46.0261860" lon="10.3680440">
	<ele>936.00</ele>
	<time>2024-07-24T11:35:44.000Z</time>
</trkpt>
<trkpt lat="46.0261750" lon="10.3680230">
	<ele>935.80</ele>
	<time>2024-07-24T11:35:45.000Z</time>
</trkpt>
<trkpt lat="46.0261760" lon="10.3680130">
	<ele>935.60</ele>
	<time>2024-07-24T11:35:46.000Z</time>
</trkpt>
<trkpt lat="46.0261780" lon="10.3679980">
	<ele>935.60</ele>
	<time>2024-07-24T11:35:47.000Z</time>
</trkpt>
<trkpt lat="46.0261760" lon="10.3679770">
	<ele>935.40</ele>
	<time>2024-07-24T11:35:48.000Z</time>
</trkpt>
<trkpt lat="46.0261710" lon="10.3679580">
	<ele>935.40</ele>
	<time>2024-07-24T11:35:49.000Z</time>
</trkpt>
<trkpt lat="46.0261680" lon="10.3679410">
	<ele>935.20</ele>
	<time>2024-07-24T11:35:50.000Z</time>
</trkpt>
<trkpt lat="46.0261640" lon="10.3679290">
	<ele>935.20</ele>
	<time>2024-07-24T11:35:51.000Z</time>
</trkpt>
<trkpt lat="46.0261580" lon="10.3679130">
	<ele>935.20</ele>
	<time>2024-07-24T11:35:52.000Z</time>
</trkpt>
<trkpt lat="46.0261540" lon="10.3678960">
	<ele>935.00</ele>
	<time>2024-07-24T11:35:53.000Z</time>
</trkpt>
<trkpt lat="46.0261560" lon="10.3678730">
	<ele>935.00</ele>
	<time>2024-07-24T11:35:54.000Z</time>
</trkpt>
<trkpt lat="46.0261580" lon="10.3678570">
	<ele>934.80</ele>
	<time>2024-07-24T11:35:55.000Z</time>
</trkpt>
<trkpt lat="46.0261620" lon="10.3678450">
	<ele>934.60</ele>
	<time>2024-07-24T11:35:56.000Z</time>
</trkpt>
<trkpt lat="46.0261590" lon="10.3678240">
	<ele>934.60</ele>
	<time>2024-07-24T11:35:57.000Z</time>
</trkpt>
<trkpt lat="46.0261510" lon="10.3678050">
	<ele>934.60</ele>
	<time>2024-07-24T11:35:58.000Z</time>
</trkpt>
<trkpt lat="46.0261380" lon="10.3677820">
	<ele>934.40</ele>
	<time>2024-07-24T11:35:59.000Z</time>
</trkpt>
<trkpt lat="46.0261210" lon="10.3677630">
	<ele>934.40</ele>
	<time>2024-07-24T11:36:00.000Z</time>
</trkpt>
<trkpt lat="46.0261130" lon="10.3677460">
	<ele>934.40</ele>
	<time>2024-07-24T11:36:01.000Z</time>
</trkpt>
<trkpt lat="46.0261130" lon="10.3677350">
	<ele>934.20</ele>
	<time>2024-07-24T11:36:02.000Z</time>
</trkpt>
<trkpt lat="46.0261180" lon="10.3677220">
	<ele>934.00</ele>
	<time>2024-07-24T11:36:03.000Z</time>
</trkpt>
<trkpt lat="46.0261140" lon="10.3677080">
	<ele>933.80</ele>
	<time>2024-07-24T11:36:04.000Z</time>
</trkpt>
<trkpt lat="46.0261040" lon="10.3676940">
	<ele>933.80</ele>
	<time>2024-07-24T11:36:05.000Z</time>
</trkpt>
<trkpt lat="46.0260990" lon="10.3676820">
	<ele>933.60</ele>
	<time>2024-07-24T11:36:06.000Z</time>
</trkpt>
<trkpt lat="46.0260880" lon="10.3676700">
	<ele>933.60</ele>
	<time>2024-07-24T11:36:07.000Z</time>
</trkpt>
<trkpt lat="46.0260760" lon="10.3676610">
	<ele>933.40</ele>
	<time>2024-07-24T11:36:08.000Z</time>
</trkpt>
<trkpt lat="46.0260640" lon="10.3676520">
	<ele>933.40</ele>
	<time>2024-07-24T11:36:09.000Z</time>
</trkpt>
<trkpt lat="46.0260490" lon="10.3676500">
	<ele>933.20</ele>
	<time>2024-07-24T11:36:10.000Z</time>
</trkpt>
<trkpt lat="46.0260380" lon="10.3676480">
	<ele>933.00</ele>
	<time>2024-07-24T11:36:11.000Z</time>
</trkpt>
<trkpt lat="46.0260260" lon="10.3676490">
	<ele>933.00</ele>
	<time>2024-07-24T11:36:12.000Z</time>
</trkpt>
<trkpt lat="46.0260180" lon="10.3676480">
	<ele>932.80</ele>
	<time>2024-07-24T11:36:13.000Z</time>
</trkpt>
<trkpt lat="46.0260070" lon="10.3676480">
	<ele>932.60</ele>
	<time>2024-07-24T11:36:14.000Z</time>
</trkpt>
<trkpt lat="46.0259910" lon="10.3676490">
	<ele>932.60</ele>
	<time>2024-07-24T11:36:15.000Z</time>
</trkpt>
<trkpt lat="46.0259780" lon="10.3676520">
	<ele>932.60</ele>
	<time>2024-07-24T11:36:16.000Z</time>
</trkpt>
<trkpt lat="46.0259650" lon="10.3676560">
	<ele>932.40</ele>
	<time>2024-07-24T11:36:17.000Z</time>
</trkpt>
<trkpt lat="46.0259510" lon="10.3676580">
	<ele>932.40</ele>
	<time>2024-07-24T11:36:18.000Z</time>
</trkpt>
<trkpt lat="46.0259360" lon="10.3676620">
	<ele>932.20</ele>
	<time>2024-07-24T11:36:19.000Z</time>
</trkpt>
<trkpt lat="46.0259220" lon="10.3676670">
	<ele>932.20</ele>
	<time>2024-07-24T11:36:20.000Z</time>
</trkpt>
<trkpt lat="46.0259080" lon="10.3676720">
	<ele>932.20</ele>
	<time>2024-07-24T11:36:21.000Z</time>
</trkpt>
<trkpt lat="46.0258930" lon="10.3676770">
	<ele>932.00</ele>
	<time>2024-07-24T11:36:22.000Z</time>
</trkpt>
<trkpt lat="46.0258780" lon="10.3676860">
	<ele>932.00</ele>
	<time>2024-07-24T11:36:23.000Z</time>
</trkpt>
<trkpt lat="46.0258670" lon="10.3676980">
	<ele>931.60</ele>
	<time>2024-07-24T11:36:24.000Z</time>
</trkpt>
<trkpt lat="46.0258580" lon="10.3677100">
	<ele>931.60</ele>
	<time>2024-07-24T11:36:25.000Z</time>
</trkpt>
<trkpt lat="46.0258480" lon="10.3677220">
	<ele>931.40</ele>
	<time>2024-07-24T11:36:26.000Z</time>
</trkpt>
<trkpt lat="46.0258350" lon="10.3677330">
	<ele>931.20</ele>
	<time>2024-07-24T11:36:27.000Z</time>
</trkpt>
<trkpt lat="46.0258290" lon="10.3677500">
	<ele>931.20</ele>
	<time>2024-07-24T11:36:28.000Z</time>
</trkpt>
<trkpt lat="46.0258240" lon="10.3677670">
	<ele>931.00</ele>
	<time>2024-07-24T11:36:29.000Z</time>
</trkpt>
<trkpt lat="46.0258200" lon="10.3677810">
	<ele>931.00</ele>
	<time>2024-07-24T11:36:30.000Z</time>
</trkpt>
<trkpt lat="46.0258150" lon="10.3677930">
	<ele>931.00</ele>
	<time>2024-07-24T11:36:31.000Z</time>
</trkpt>
<trkpt lat="46.0258090" lon="10.3678040">
	<ele>930.80</ele>
	<time>2024-07-24T11:36:32.000Z</time>
</trkpt>
<trkpt lat="46.0258070" lon="10.3678140">
	<ele>930.60</ele>
	<time>2024-07-24T11:36:33.000Z</time>
</trkpt>
<trkpt lat="46.0258050" lon="10.3678200">
	<ele>930.60</ele>
	<time>2024-07-24T11:36:34.000Z</time>
</trkpt>
<trkpt lat="46.0258060" lon="10.3678220">
	<ele>930.40</ele>
	<time>2024-07-24T11:36:35.000Z</time>
</trkpt>
<trkpt lat="46.0258080" lon="10.3678200">
	<ele>930.40</ele>
	<time>2024-07-24T11:36:36.000Z</time>
</trkpt>
<trkpt lat="46.0258200" lon="10.3678200">
	<ele>930.40</ele>
	<time>2024-07-24T11:36:37.000Z</time>
</trkpt>
<trkpt lat="46.0258320" lon="10.3678130">
	<ele>930.40</ele>
	<time>2024-07-24T11:36:38.000Z</time>
</trkpt>
<trkpt lat="46.0258420" lon="10.3678060">
	<ele>930.40</ele>
	<time>2024-07-24T11:36:39.000Z</time>
</trkpt>
<trkpt lat="46.0258490" lon="10.3678000">
	<ele>930.40</ele>
	<time>2024-07-24T11:36:40.000Z</time>
</trkpt>
<trkpt lat="46.0258500" lon="10.3677950">
	<ele>930.40</ele>
	<time>2024-07-24T11:36:41.000Z</time>
</trkpt>
<trkpt lat="46.0258500" lon="10.3677890">
	<ele>930.40</ele>
	<time>2024-07-24T11:36:42.000Z</time>
</trkpt>
<trkpt lat="46.0258500" lon="10.3677840">
	<ele>930.60</ele>
	<time>2024-07-24T11:36:43.000Z</time>
</trkpt>
<trkpt lat="46.0258480" lon="10.3677810">
	<ele>930.80</ele>
	<time>2024-07-24T11:36:44.000Z</time>
</trkpt>
<trkpt lat="46.0258470" lon="10.3677800">
	<ele>931.00</ele>
	<time>2024-07-24T11:36:45.000Z</time>
</trkpt>
<trkpt lat="46.0258470" lon="10.3677800">
	<ele>931.00</ele>
	<time>2024-07-24T11:36:46.000Z</time>
</trkpt>
<trkpt lat="46.0258470" lon="10.3677800">
	<ele>931.00</ele>
	<time>2024-07-24T11:36:47.000Z</time>
</trkpt>
<trkpt lat="46.0258470" lon="10.3677800">
	<ele>930.80</ele>
	<time>2024-07-24T11:36:48.000Z</time>
</trkpt>
<trkpt lat="46.0258470" lon="10.3677800">
	<ele>930.60</ele>
	<time>2024-07-24T11:36:49.000Z</time>
</trkpt>
<trkpt lat="46.0258460" lon="10.3677850">
	<ele>930.40</ele>
	<time>2024-07-24T11:36:50.000Z</time>
</trkpt>
<trkpt lat="46.0258410" lon="10.3677940">
	<ele>930.40</ele>
	<time>2024-07-24T11:36:51.000Z</time>
</trkpt>
<trkpt lat="46.0258430" lon="10.3677960">
	<ele>930.20</ele>
	<time>2024-07-24T11:36:52.000Z</time>
</trkpt>
<trkpt lat="46.0258500" lon="10.3677980">
	<ele>930.20</ele>
	<time>2024-07-24T11:36:53.000Z</time>
</trkpt>
<trkpt lat="46.0258520" lon="10.3677930">
	<ele>930.20</ele>
	<time>2024-07-24T11:36:54.000Z</time>
</trkpt>
<trkpt lat="46.0258590" lon="10.3677910">
	<ele>930.00</ele>
	<time>2024-07-24T11:36:55.000Z</time>
</trkpt>
<trkpt lat="46.0258680" lon="10.3677890">
	<ele>929.80</ele>
	<time>2024-07-24T11:36:56.000Z</time>
</trkpt>
<trkpt lat="46.0258660" lon="10.3677730">
	<ele>929.40</ele>
	<time>2024-07-24T11:36:57.000Z</time>
</trkpt>
<trkpt lat="46.0258750" lon="10.3677670">
	<ele>929.20</ele>
	<time>2024-07-24T11:36:58.000Z</time>
</trkpt>
<trkpt lat="46.0258780" lon="10.3677640">
	<ele>929.00</ele>
	<time>2024-07-24T11:36:59.000Z</time>
</trkpt>
<trkpt lat="46.0258730" lon="10.3677610">
	<ele>928.80</ele>
	<time>2024-07-24T11:37:00.000Z</time>
</trkpt>
<trkpt lat="46.0258630" lon="10.3677520">
	<ele>928.60</ele>
	<time>2024-07-24T11:37:01.000Z</time>
</trkpt>
<trkpt lat="46.0258590" lon="10.3677500">
	<ele>928.60</ele>
	<time>2024-07-24T11:37:02.000Z</time>
</trkpt>
<trkpt lat="46.0258500" lon="10.3677460">
	<ele>928.20</ele>
	<time>2024-07-24T11:37:03.000Z</time>
</trkpt>
<trkpt lat="46.0258480" lon="10.3677500">
	<ele>928.00</ele>
	<time>2024-07-24T11:37:04.000Z</time>
</trkpt>
<trkpt lat="46.0258460" lon="10.3677540">
	<ele>927.80</ele>
	<time>2024-07-24T11:37:05.000Z</time>
</trkpt>
<trkpt lat="46.0258360" lon="10.3677510">
	<ele>927.40</ele>
	<time>2024-07-24T11:37:06.000Z</time>
</trkpt>
<trkpt lat="46.0258270" lon="10.3677510">
	<ele>927.00</ele>
	<time>2024-07-24T11:37:07.000Z</time>
</trkpt>
<trkpt lat="46.0258260" lon="10.3677580">
	<ele>926.60</ele>
	<time>2024-07-24T11:37:08.000Z</time>
</trkpt>
<trkpt lat="46.0258190" lon="10.3677610">
	<ele>926.40</ele>
	<time>2024-07-24T11:37:09.000Z</time>
</trkpt>
<trkpt lat="46.0258130" lon="10.3677630">
	<ele>926.00</ele>
	<time>2024-07-24T11:37:10.000Z</time>
</trkpt>
<trkpt lat="46.0258010" lon="10.3677610">
	<ele>925.60</ele>
	<time>2024-07-24T11:37:11.000Z</time>
</trkpt>
<trkpt lat="46.0257790" lon="10.3677470">
	<ele>925.40</ele>
	<time>2024-07-24T11:37:12.000Z</time>
</trkpt>
<trkpt lat="46.0257620" lon="10.3677370">
	<ele>925.20</ele>
	<time>2024-07-24T11:37:13.000Z</time>
</trkpt>
<trkpt lat="46.0257480" lon="10.3677290">
	<ele>925.00</ele>
	<time>2024-07-24T11:37:14.000Z</time>
</trkpt>
<trkpt lat="46.0257450" lon="10.3677250">
	<ele>924.60</ele>
	<time>2024-07-24T11:37:15.000Z</time>
</trkpt>
<trkpt lat="46.0257390" lon="10.3677230">
	<ele>924.40</ele>
	<time>2024-07-24T11:37:16.000Z</time>
</trkpt>
<trkpt lat="46.0257300" lon="10.3677110">
	<ele>924.20</ele>
	<time>2024-07-24T11:37:17.000Z</time>
</trkpt>
<trkpt lat="46.0257130" lon="10.3676880">
	<ele>923.80</ele>
	<time>2024-07-24T11:37:18.000Z</time>
</trkpt>
<trkpt lat="46.0257110" lon="10.3676830">
	<ele>923.40</ele>
	<time>2024-07-24T11:37:19.000Z</time>
</trkpt>
<trkpt lat="46.0257110" lon="10.3676830">
	<ele>923.20</ele>
	<time>2024-07-24T11:37:20.000Z</time>
</trkpt>
<trkpt lat="46.0257110" lon="10.3676820">
	<ele>923.00</ele>
	<time>2024-07-24T11:37:21.000Z</time>
</trkpt>
<trkpt lat="46.0257030" lon="10.3676790">
	<ele>922.80</ele>
	<time>2024-07-24T11:37:22.000Z</time>
</trkpt>
<trkpt lat="46.0256980" lon="10.3676790">
	<ele>922.40</ele>
	<time>2024-07-24T11:37:23.000Z</time>
</trkpt>
<trkpt lat="46.0256950" lon="10.3676760">
	<ele>922.20</ele>
	<time>2024-07-24T11:37:24.000Z</time>
</trkpt>
<trkpt lat="46.0256890" lon="10.3676810">
	<ele>922.00</ele>
	<time>2024-07-24T11:37:25.000Z</time>
</trkpt>
<trkpt lat="46.0256800" lon="10.3676780">
	<ele>921.80</ele>
	<time>2024-07-24T11:37:26.000Z</time>
</trkpt>
<trkpt lat="46.0256690" lon="10.3676770">
	<ele>921.60</ele>
	<time>2024-07-24T11:37:27.000Z</time>
</trkpt>
<trkpt lat="46.0256550" lon="10.3676720">
	<ele>921.40</ele>
	<time>2024-07-24T11:37:28.000Z</time>
</trkpt>
<trkpt lat="46.0256350" lon="10.3676580">
	<ele>921.40</ele>
	<time>2024-07-24T11:37:29.000Z</time>
</trkpt>
<trkpt lat="46.0256150" lon="10.3676430">
	<ele>921.00</ele>
	<time>2024-07-24T11:37:30.000Z</time>
</trkpt>
<trkpt lat="46.0256060" lon="10.3676410">
	<ele>920.60</ele>
	<time>2024-07-24T11:37:31.000Z</time>
</trkpt>
<trkpt lat="46.0255900" lon="10.3676330">
	<ele>920.40</ele>
	<time>2024-07-24T11:37:32.000Z</time>
</trkpt>
<trkpt lat="46.0255730" lon="10.3676240">
	<ele>920.20</ele>
	<time>2024-07-24T11:37:33.000Z</time>
</trkpt>
<trkpt lat="46.0255590" lon="10.3676160">
	<ele>920.00</ele>
	<time>2024-07-24T11:37:34.000Z</time>
</trkpt>
<trkpt lat="46.0255470" lon="10.3676140">
	<ele>919.80</ele>
	<time>2024-07-24T11:37:35.000Z</time>
</trkpt>
<trkpt lat="46.0255390" lon="10.3676200">
	<ele>919.60</ele>
	<time>2024-07-24T11:37:36.000Z</time>
</trkpt>
<trkpt lat="46.0255270" lon="10.3676190">
	<ele>919.20</ele>
	<time>2024-07-24T11:37:37.000Z</time>
</trkpt>
<trkpt lat="46.0255130" lon="10.3676090">
	<ele>919.20</ele>
	<time>2024-07-24T11:37:38.000Z</time>
</trkpt>
<trkpt lat="46.0255090" lon="10.3676100">
	<ele>919.00</ele>
	<time>2024-07-24T11:37:39.000Z</time>
</trkpt>
<trkpt lat="46.0255000" lon="10.3676000">
	<ele>919.00</ele>
	<time>2024-07-24T11:37:40.000Z</time>
</trkpt>
<trkpt lat="46.0254900" lon="10.3675900">
	<ele>918.60</ele>
	<time>2024-07-24T11:37:41.000Z</time>
</trkpt>
<trkpt lat="46.0254830" lon="10.3675820">
	<ele>918.40</ele>
	<time>2024-07-24T11:37:42.000Z</time>
</trkpt>
<trkpt lat="46.0254710" lon="10.3675690">
	<ele>918.20</ele>
	<time>2024-07-24T11:37:43.000Z</time>
</trkpt>
<trkpt lat="46.0254650" lon="10.3675660">
	<ele>918.00</ele>
	<time>2024-07-24T11:37:44.000Z</time>
</trkpt>
<trkpt lat="46.0254580" lon="10.3675640">
	<ele>917.60</ele>
	<time>2024-07-24T11:37:45.000Z</time>
</trkpt>
<trkpt lat="46.0254500" lon="10.3675650">
	<ele>917.60</ele>
	<time>2024-07-24T11:37:46.000Z</time>
</trkpt>
<trkpt lat="46.0254290" lon="10.3675540">
	<ele>917.40</ele>
	<time>2024-07-24T11:37:47.000Z</time>
</trkpt>
<trkpt lat="46.0253980" lon="10.3675260">
	<ele>917.20</ele>
	<time>2024-07-24T11:37:48.000Z</time>
</trkpt>
<trkpt lat="46.0253760" lon="10.3675030">
	<ele>917.20</ele>
	<time>2024-07-24T11:37:49.000Z</time>
</trkpt>
<trkpt lat="46.0253590" lon="10.3674850">
	<ele>917.00</ele>
	<time>2024-07-24T11:37:50.000Z</time>
</trkpt>
<trkpt lat="46.0253400" lon="10.3674730">
	<ele>916.80</ele>
	<time>2024-07-24T11:37:51.000Z</time>
</trkpt>
<trkpt lat="46.0253390" lon="10.3674720">
	<ele>916.60</ele>
	<time>2024-07-24T11:37:52.000Z</time>
</trkpt>
<trkpt lat="46.0253420" lon="10.3674690">
	<ele>916.40</ele>
	<time>2024-07-24T11:37:53.000Z</time>
</trkpt>
<trkpt lat="46.0253270" lon="10.3674540">
	<ele>916.20</ele>
	<time>2024-07-24T11:37:54.000Z</time>
</trkpt>
<trkpt lat="46.0253230" lon="10.3674520">
	<ele>916.00</ele>
	<time>2024-07-24T11:37:55.000Z</time>
</trkpt>
<trkpt lat="46.0253190" lon="10.3674470">
	<ele>915.60</ele>
	<time>2024-07-24T11:37:56.000Z</time>
</trkpt>
<trkpt lat="46.0253070" lon="10.3674370">
	<ele>915.20</ele>
	<time>2024-07-24T11:37:57.000Z</time>
</trkpt>
<trkpt lat="46.0252860" lon="10.3674230">
	<ele>915.00</ele>
	<time>2024-07-24T11:37:58.000Z</time>
</trkpt>
<trkpt lat="46.0252680" lon="10.3674100">
	<ele>915.00</ele>
	<time>2024-07-24T11:37:59.000Z</time>
</trkpt>
<trkpt lat="46.0252570" lon="10.3674040">
	<ele>914.80</ele>
	<time>2024-07-24T11:38:00.000Z</time>
</trkpt>
<trkpt lat="46.0252440" lon="10.3673990">
	<ele>914.80</ele>
	<time>2024-07-24T11:38:01.000Z</time>
</trkpt>
<trkpt lat="46.0252360" lon="10.3673960">
	<ele>914.60</ele>
	<time>2024-07-24T11:38:02.000Z</time>
</trkpt>
<trkpt lat="46.0252330" lon="10.3673960">
	<ele>914.40</ele>
	<time>2024-07-24T11:38:03.000Z</time>
</trkpt>
<trkpt lat="46.0252330" lon="10.3674040">
	<ele>914.20</ele>
	<time>2024-07-24T11:38:04.000Z</time>
</trkpt>
<trkpt lat="46.0252300" lon="10.3674080">
	<ele>914.00</ele>
	<time>2024-07-24T11:38:05.000Z</time>
</trkpt>
<trkpt lat="46.0252230" lon="10.3674090">
	<ele>913.60</ele>
	<time>2024-07-24T11:38:06.000Z</time>
</trkpt>
<trkpt lat="46.0252170" lon="10.3674060">
	<ele>913.20</ele>
	<time>2024-07-24T11:38:07.000Z</time>
</trkpt>
<trkpt lat="46.0252110" lon="10.3674050">
	<ele>913.00</ele>
	<time>2024-07-24T11:38:08.000Z</time>
</trkpt>
<trkpt lat="46.0252070" lon="10.3674030">
	<ele>912.80</ele>
	<time>2024-07-24T11:38:09.000Z</time>
</trkpt>
<trkpt lat="46.0251970" lon="10.3673970">
	<ele>912.60</ele>
	<time>2024-07-24T11:38:10.000Z</time>
</trkpt>
<trkpt lat="46.0251890" lon="10.3673920">
	<ele>912.40</ele>
	<time>2024-07-24T11:38:11.000Z</time>
</trkpt>
<trkpt lat="46.0251780" lon="10.3673840">
	<ele>912.20</ele>
	<time>2024-07-24T11:38:12.000Z</time>
</trkpt>
<trkpt lat="46.0251710" lon="10.3673780">
	<ele>912.00</ele>
	<time>2024-07-24T11:38:13.000Z</time>
</trkpt>
<trkpt lat="46.0251660" lon="10.3673730">
	<ele>911.80</ele>
	<time>2024-07-24T11:38:14.000Z</time>
</trkpt>
<trkpt lat="46.0251600" lon="10.3673630">
	<ele>911.60</ele>
	<time>2024-07-24T11:38:15.000Z</time>
</trkpt>
<trkpt lat="46.0251570" lon="10.3673570">
	<ele>911.40</ele>
	<time>2024-07-24T11:38:16.000Z</time>
</trkpt>
<trkpt lat="46.0251550" lon="10.3673560">
	<ele>911.20</ele>
	<time>2024-07-24T11:38:17.000Z</time>
</trkpt>
<trkpt lat="46.0251480" lon="10.3673510">
	<ele>911.00</ele>
	<time>2024-07-24T11:38:18.000Z</time>
</trkpt>
<trkpt lat="46.0251420" lon="10.3673510">
	<ele>910.80</ele>
	<time>2024-07-24T11:38:19.000Z</time>
</trkpt>
<trkpt lat="46.0251430" lon="10.3673570">
	<ele>910.60</ele>
	<time>2024-07-24T11:38:20.000Z</time>
</trkpt>
<trkpt lat="46.0251330" lon="10.3673460">
	<ele>910.60</ele>
	<time>2024-07-24T11:38:21.000Z</time>
</trkpt>
<trkpt lat="46.0251250" lon="10.3673390">
	<ele>910.40</ele>
	<time>2024-07-24T11:38:22.000Z</time>
</trkpt>
<trkpt lat="46.0251130" lon="10.3673230">
	<ele>910.20</ele>
	<time>2024-07-24T11:38:23.000Z</time>
</trkpt>
<trkpt lat="46.0251050" lon="10.3673090">
	<ele>910.20</ele>
	<time>2024-07-24T11:38:24.000Z</time>
</trkpt>
<trkpt lat="46.0251010" lon="10.3673030">
	<ele>910.00</ele>
	<time>2024-07-24T11:38:25.000Z</time>
</trkpt>
<trkpt lat="46.0250950" lon="10.3672940">
	<ele>909.80</ele>
	<time>2024-07-24T11:38:26.000Z</time>
</trkpt>
<trkpt lat="46.0250860" lon="10.3672850">
	<ele>909.60</ele>
	<time>2024-07-24T11:38:27.000Z</time>
</trkpt>
<trkpt lat="46.0250790" lon="10.3672760">
	<ele>909.40</ele>
	<time>2024-07-24T11:38:28.000Z</time>
</trkpt>
<trkpt lat="46.0250710" lon="10.3672650">
	<ele>909.20</ele>
	<time>2024-07-24T11:38:29.000Z</time>
</trkpt>
<trkpt lat="46.0250630" lon="10.3672510">
	<ele>909.20</ele>
	<time>2024-07-24T11:38:30.000Z</time>
</trkpt>
<trkpt lat="46.0250400" lon="10.3672300">
	<ele>909.00</ele>
	<time>2024-07-24T11:38:31.000Z</time>
</trkpt>
<trkpt lat="46.0250280" lon="10.3672220">
	<ele>908.80</ele>
	<time>2024-07-24T11:38:32.000Z</time>
</trkpt>
<trkpt lat="46.0250130" lon="10.3672120">
	<ele>908.80</ele>
	<time>2024-07-24T11:38:33.000Z</time>
</trkpt>
<trkpt lat="46.0250010" lon="10.3672050">
	<ele>908.60</ele>
	<time>2024-07-24T11:38:34.000Z</time>
</trkpt>
<trkpt lat="46.0249850" lon="10.3671890">
	<ele>908.60</ele>
	<time>2024-07-24T11:38:35.000Z</time>
</trkpt>
<trkpt lat="46.0249750" lon="10.3671800">
	<ele>908.40</ele>
	<time>2024-07-24T11:38:36.000Z</time>
</trkpt>
<trkpt lat="46.0249650" lon="10.3671750">
	<ele>908.20</ele>
	<time>2024-07-24T11:38:37.000Z</time>
</trkpt>
<trkpt lat="46.0249550" lon="10.3671740">
	<ele>908.20</ele>
	<time>2024-07-24T11:38:38.000Z</time>
</trkpt>
<trkpt lat="46.0249470" lon="10.3671690">
	<ele>907.80</ele>
	<time>2024-07-24T11:38:39.000Z</time>
</trkpt>
<trkpt lat="46.0249420" lon="10.3671730">
	<ele>907.80</ele>
	<time>2024-07-24T11:38:40.000Z</time>
</trkpt>
<trkpt lat="46.0249470" lon="10.3671800">
	<ele>907.60</ele>
	<time>2024-07-24T11:38:41.000Z</time>
</trkpt>
<trkpt lat="46.0249420" lon="10.3671750">
	<ele>907.40</ele>
	<time>2024-07-24T11:38:42.000Z</time>
</trkpt>
<trkpt lat="46.0249380" lon="10.3671690">
	<ele>907.20</ele>
	<time>2024-07-24T11:38:43.000Z</time>
</trkpt>
<trkpt lat="46.0249360" lon="10.3671660">
	<ele>907.00</ele>
	<time>2024-07-24T11:38:44.000Z</time>
</trkpt>
<trkpt lat="46.0249320" lon="10.3671630">
	<ele>906.80</ele>
	<time>2024-07-24T11:38:45.000Z</time>
</trkpt>
<trkpt lat="46.0249430" lon="10.3671800">
	<ele>906.80</ele>
	<time>2024-07-24T11:38:46.000Z</time>
</trkpt>
<trkpt lat="46.0249640" lon="10.3672030">
	<ele>906.60</ele>
	<time>2024-07-24T11:38:47.000Z</time>
</trkpt>
<trkpt lat="46.0249630" lon="10.3672160">
	<ele>906.60</ele>
	<time>2024-07-24T11:38:48.000Z</time>
</trkpt>
<trkpt lat="46.0249460" lon="10.3672090">
	<ele>906.20</ele>
	<time>2024-07-24T11:38:49.000Z</time>
</trkpt>
<trkpt lat="46.0249630" lon="10.3672210">
	<ele>906.00</ele>
	<time>2024-07-24T11:38:50.000Z</time>
</trkpt>
<trkpt lat="46.0249730" lon="10.3672260">
	<ele>905.80</ele>
	<time>2024-07-24T11:38:51.000Z</time>
</trkpt>
<trkpt lat="46.0249650" lon="10.3672180">
	<ele>905.40</ele>
	<time>2024-07-24T11:38:52.000Z</time>
</trkpt>
<trkpt lat="46.0249630" lon="10.3672100">
	<ele>905.00</ele>
	<time>2024-07-24T11:38:53.000Z</time>
</trkpt>
<trkpt lat="46.0249640" lon="10.3672030">
	<ele>904.80</ele>
	<time>2024-07-24T11:38:54.000Z</time>
</trkpt>
<trkpt lat="46.0249640" lon="10.3672000">
	<ele>904.60</ele>
	<time>2024-07-24T11:38:55.000Z</time>
</trkpt>
<trkpt lat="46.0249590" lon="10.3671920">
	<ele>904.60</ele>
	<time>2024-07-24T11:38:56.000Z</time>
</trkpt>
<trkpt lat="46.0249580" lon="10.3671860">
	<ele>904.40</ele>
	<time>2024-07-24T11:38:57.000Z</time>
</trkpt>
<trkpt lat="46.0249570" lon="10.3671820">
	<ele>904.00</ele>
	<time>2024-07-24T11:38:58.000Z</time>
</trkpt>
<trkpt lat="46.0249640" lon="10.3671830">
	<ele>903.80</ele>
	<time>2024-07-24T11:38:59.000Z</time>
</trkpt>
<trkpt lat="46.0249670" lon="10.3671810">
	<ele>903.60</ele>
	<time>2024-07-24T11:39:00.000Z</time>
</trkpt>
<trkpt lat="46.0249700" lon="10.3671770">
	<ele>903.40</ele>
	<time>2024-07-24T11:39:01.000Z</time>
</trkpt>
<trkpt lat="46.0249700" lon="10.3671630">
	<ele>903.40</ele>
	<time>2024-07-24T11:39:02.000Z</time>
</trkpt>
<trkpt lat="46.0249610" lon="10.3671500">
	<ele>903.20</ele>
	<time>2024-07-24T11:39:03.000Z</time>
</trkpt>
<trkpt lat="46.0249540" lon="10.3671290">
	<ele>903.00</ele>
	<time>2024-07-24T11:39:04.000Z</time>
</trkpt>
<trkpt lat="46.0249610" lon="10.3671200">
	<ele>902.80</ele>
	<time>2024-07-24T11:39:05.000Z</time>
</trkpt>
<trkpt lat="46.0249670" lon="10.3671130">
	<ele>902.80</ele>
	<time>2024-07-24T11:39:06.000Z</time>
</trkpt>
<trkpt lat="46.0249740" lon="10.3671070">
	<ele>902.20</ele>
	<time>2024-07-24T11:39:07.000Z</time>
</trkpt>
<trkpt lat="46.0249820" lon="10.3671040">
	<ele>902.00</ele>
	<time>2024-07-24T11:39:08.000Z</time>
</trkpt>
<trkpt lat="46.0249910" lon="10.3670960">
	<ele>901.80</ele>
	<time>2024-07-24T11:39:09.000Z</time>
</trkpt>
<trkpt lat="46.0250000" lon="10.3670900">
	<ele>901.60</ele>
	<time>2024-07-24T11:39:10.000Z</time>
</trkpt>
<trkpt lat="46.0250050" lon="10.3670810">
	<ele>901.40</ele>
	<time>2024-07-24T11:39:11.000Z</time>
</trkpt>
<trkpt lat="46.0250070" lon="10.3670680">
	<ele>901.20</ele>
	<time>2024-07-24T11:39:12.000Z</time>
</trkpt>
<trkpt lat="46.0250140" lon="10.3670620">
	<ele>901.00</ele>
	<time>2024-07-24T11:39:13.000Z</time>
</trkpt>
<trkpt lat="46.0250170" lon="10.3670500">
	<ele>900.80</ele>
	<time>2024-07-24T11:39:14.000Z</time>
</trkpt>
<trkpt lat="46.0250200" lon="10.3670410">
	<ele>900.60</ele>
	<time>2024-07-24T11:39:15.000Z</time>
</trkpt>
<trkpt lat="46.0250220" lon="10.3670360">
	<ele>900.40</ele>
	<time>2024-07-24T11:39:16.000Z</time>
</trkpt>
<trkpt lat="46.0250230" lon="10.3670260">
	<ele>900.00</ele>
	<time>2024-07-24T11:39:17.000Z</time>
</trkpt>
<trkpt lat="46.0250260" lon="10.3670170">
	<ele>899.80</ele>
	<time>2024-07-24T11:39:18.000Z</time>
</trkpt>
<trkpt lat="46.0250230" lon="10.3670040">
	<ele>899.40</ele>
	<time>2024-07-24T11:39:19.000Z</time>
</trkpt>
<trkpt lat="46.0250500" lon="10.3670170">
	<ele>899.20</ele>
	<time>2024-07-24T11:39:20.000Z</time>
</trkpt>
<trkpt lat="46.0250600" lon="10.3670160">
	<ele>898.80</ele>
	<time>2024-07-24T11:39:21.000Z</time>
</trkpt>
<trkpt lat="46.0250660" lon="10.3670150">
	<ele>898.60</ele>
	<time>2024-07-24T11:39:22.000Z</time>
</trkpt>
<trkpt lat="46.0250660" lon="10.3670090">
	<ele>898.40</ele>
	<time>2024-07-24T11:39:23.000Z</time>
</trkpt>
<trkpt lat="46.0250530" lon="10.3669920">
	<ele>898.20</ele>
	<time>2024-07-24T11:39:24.000Z</time>
</trkpt>
<trkpt lat="46.0250520" lon="10.3669900">
	<ele>898.00</ele>
	<time>2024-07-24T11:39:25.000Z</time>
</trkpt>
<trkpt lat="46.0250420" lon="10.3669800">
	<ele>897.60</ele>
	<time>2024-07-24T11:39:26.000Z</time>
</trkpt>
<trkpt lat="46.0250280" lon="10.3669640">
	<ele>897.40</ele>
	<time>2024-07-24T11:39:27.000Z</time>
</trkpt>
<trkpt lat="46.0250250" lon="10.3669590">
	<ele>897.40</ele>
	<time>2024-07-24T11:39:28.000Z</time>
</trkpt>
<trkpt lat="46.0250170" lon="10.3669480">
	<ele>896.80</ele>
	<time>2024-07-24T11:39:29.000Z</time>
</trkpt>
<trkpt lat="46.0250130" lon="10.3669440">
	<ele>896.60</ele>
	<time>2024-07-24T11:39:30.000Z</time>
</trkpt>
<trkpt lat="46.0250110" lon="10.3669390">
	<ele>896.20</ele>
	<time>2024-07-24T11:39:31.000Z</time>
</trkpt>
<trkpt lat="46.0250050" lon="10.3669320">
	<ele>896.20</ele>
	<time>2024-07-24T11:39:32.000Z</time>
</trkpt>
<trkpt lat="46.0250020" lon="10.3669290">
	<ele>895.80</ele>
	<time>2024-07-24T11:39:33.000Z</time>
</trkpt>
<trkpt lat="46.0249950" lon="10.3669240">
	<ele>895.40</ele>
	<time>2024-07-24T11:39:34.000Z</time>
</trkpt>
<trkpt lat="46.0249920" lon="10.3669240">
	<ele>895.40</ele>
	<time>2024-07-24T11:39:35.000Z</time>
</trkpt>
<trkpt lat="46.0249850" lon="10.3669190">
	<ele>895.00</ele>
	<time>2024-07-24T11:39:36.000Z</time>
</trkpt>
<trkpt lat="46.0249720" lon="10.3669080">
	<ele>895.00</ele>
	<time>2024-07-24T11:39:37.000Z</time>
</trkpt>
<trkpt lat="46.0249630" lon="10.3669040">
	<ele>894.80</ele>
	<time>2024-07-24T11:39:38.000Z</time>
</trkpt>
<trkpt lat="46.0249520" lon="10.3669030">
	<ele>894.60</ele>
	<time>2024-07-24T11:39:39.000Z</time>
</trkpt>
<trkpt lat="46.0249360" lon="10.3668970">
	<ele>894.40</ele>
	<time>2024-07-24T11:39:40.000Z</time>
</trkpt>
<trkpt lat="46.0249140" lon="10.3668800">
	<ele>894.20</ele>
	<time>2024-07-24T11:39:41.000Z</time>
</trkpt>
<trkpt lat="46.0248930" lon="10.3668620">
	<ele>894.00</ele>
	<time>2024-07-24T11:39:42.000Z</time>
</trkpt>
<trkpt lat="46.0248740" lon="10.3668490">
	<ele>893.80</ele>
	<time>2024-07-24T11:39:43.000Z</time>
</trkpt>
<trkpt lat="46.0248490" lon="10.3668290">
	<ele>893.60</ele>
	<time>2024-07-24T11:39:44.000Z</time>
</trkpt>
<trkpt lat="46.0248220" lon="10.3668100">
	<ele>893.00</ele>
	<time>2024-07-24T11:39:45.000Z</time>
</trkpt>
<trkpt lat="46.0248010" lon="10.3667970">
	<ele>892.60</ele>
	<time>2024-07-24T11:39:46.000Z</time>
</trkpt>
<trkpt lat="46.0247790" lon="10.3667820">
	<ele>892.40</ele>
	<time>2024-07-24T11:39:47.000Z</time>
</trkpt>
<trkpt lat="46.0247620" lon="10.3667750">
	<ele>892.20</ele>
	<time>2024-07-24T11:39:48.000Z</time>
</trkpt>
<trkpt lat="46.0247440" lon="10.3667730">
	<ele>891.80</ele>
	<time>2024-07-24T11:39:49.000Z</time>
</trkpt>
<trkpt lat="46.0247250" lon="10.3667700">
	<ele>891.60</ele>
	<time>2024-07-24T11:39:50.000Z</time>
</trkpt>
<trkpt lat="46.0247090" lon="10.3667670">
	<ele>891.40</ele>
	<time>2024-07-24T11:39:51.000Z</time>
</trkpt>
<trkpt lat="46.0246940" lon="10.3667650">
	<ele>891.40</ele>
	<time>2024-07-24T11:39:52.000Z</time>
</trkpt>
<trkpt lat="46.0246800" lon="10.3667630">
	<ele>891.20</ele>
	<time>2024-07-24T11:39:53.000Z</time>
</trkpt>
<trkpt lat="46.0246780" lon="10.3667650">
	<ele>891.00</ele>
	<time>2024-07-24T11:39:54.000Z</time>
</trkpt>
<trkpt lat="46.0246770" lon="10.3667640">
	<ele>891.00</ele>
	<time>2024-07-24T11:39:55.000Z</time>
</trkpt>
<trkpt lat="46.0246780" lon="10.3667630">
	<ele>891.00</ele>
	<time>2024-07-24T11:39:56.000Z</time>
</trkpt>
<trkpt lat="46.0246780" lon="10.3667620">
	<ele>891.00</ele>
	<time>2024-07-24T11:39:57.000Z</time>
</trkpt>
<trkpt lat="46.0246780" lon="10.3667600">
	<ele>891.00</ele>
	<time>2024-07-24T11:39:58.000Z</time>
</trkpt>
<trkpt lat="46.0246770" lon="10.3667570">
	<ele>891.00</ele>
	<time>2024-07-24T11:39:59.000Z</time>
</trkpt>
<trkpt lat="46.0246760" lon="10.3667530">
	<ele>891.00</ele>
	<time>2024-07-24T11:40:00.000Z</time>
</trkpt>
<trkpt lat="46.0246760" lon="10.3667490">
	<ele>891.00</ele>
	<time>2024-07-24T11:40:01.000Z</time>
</trkpt>
<trkpt lat="46.0246740" lon="10.3667470">
	<ele>891.00</ele>
	<time>2024-07-24T11:40:02.000Z</time>
</trkpt>
<trkpt lat="46.0246570" lon="10.3667420">
	<ele>890.80</ele>
	<time>2024-07-24T11:40:03.000Z</time>
</trkpt>
<trkpt lat="46.0246420" lon="10.3667510">
	<ele>890.80</ele>
	<time>2024-07-24T11:40:04.000Z</time>
</trkpt>
<trkpt lat="46.0246270" lon="10.3667510">
	<ele>890.80</ele>
	<time>2024-07-24T11:40:05.000Z</time>
</trkpt>
<trkpt lat="46.0246090" lon="10.3667460">
	<ele>890.60</ele>
	<time>2024-07-24T11:40:06.000Z</time>
</trkpt>
<trkpt lat="46.0245950" lon="10.3667430">
	<ele>890.40</ele>
	<time>2024-07-24T11:40:07.000Z</time>
</trkpt>
<trkpt lat="46.0245810" lon="10.3667400">
	<ele>890.20</ele>
	<time>2024-07-24T11:40:08.000Z</time>
</trkpt>
<trkpt lat="46.0245650" lon="10.3667320">
	<ele>890.20</ele>
	<time>2024-07-24T11:40:09.000Z</time>
</trkpt>
<trkpt lat="46.0245530" lon="10.3667340">
	<ele>890.00</ele>
	<time>2024-07-24T11:40:10.000Z</time>
</trkpt>
<trkpt lat="46.0245360" lon="10.3667240">
	<ele>889.80</ele>
	<time>2024-07-24T11:40:11.000Z</time>
</trkpt>
<trkpt lat="46.0245200" lon="10.3667150">
	<ele>889.80</ele>
	<time>2024-07-24T11:40:12.000Z</time>
</trkpt>
<trkpt lat="46.0245040" lon="10.3667070">
	<ele>889.80</ele>
	<time>2024-07-24T11:40:13.000Z</time>
</trkpt>
<trkpt lat="46.0244880" lon="10.3666900">
	<ele>889.60</ele>
	<time>2024-07-24T11:40:14.000Z</time>
</trkpt>
<trkpt lat="46.0244740" lon="10.3666840">
	<ele>889.40</ele>
	<time>2024-07-24T11:40:15.000Z</time>
</trkpt>
<trkpt lat="46.0244680" lon="10.3666830">
	<ele>889.40</ele>
	<time>2024-07-24T11:40:16.000Z</time>
</trkpt>
<trkpt lat="46.0244660" lon="10.3666840">
	<ele>889.20</ele>
	<time>2024-07-24T11:40:17.000Z</time>
</trkpt>
<trkpt lat="46.0244630" lon="10.3666740">
	<ele>889.20</ele>
	<time>2024-07-24T11:40:18.000Z</time>
</trkpt>
<trkpt lat="46.0244650" lon="10.3666630">
	<ele>889.00</ele>
	<time>2024-07-24T11:40:19.000Z</time>
</trkpt>
<trkpt lat="46.0244720" lon="10.3666580">
	<ele>888.60</ele>
	<time>2024-07-24T11:40:20.000Z</time>
</trkpt>
<trkpt lat="46.0244820" lon="10.3666550">
	<ele>888.60</ele>
	<time>2024-07-24T11:40:21.000Z</time>
</trkpt>
<trkpt lat="46.0244920" lon="10.3666520">
	<ele>888.40</ele>
	<time>2024-07-24T11:40:22.000Z</time>
</trkpt>
<trkpt lat="46.0245020" lon="10.3666530">
	<ele>888.40</ele>
	<time>2024-07-24T11:40:23.000Z</time>
</trkpt>
<trkpt lat="46.0245200" lon="10.3666580">
	<ele>888.40</ele>
	<time>2024-07-24T11:40:24.000Z</time>
</trkpt>
<trkpt lat="46.0245370" lon="10.3666580">
	<ele>888.20</ele>
	<time>2024-07-24T11:40:25.000Z</time>
</trkpt>
<trkpt lat="46.0245470" lon="10.3666460">
	<ele>888.20</ele>
	<time>2024-07-24T11:40:26.000Z</time>
</trkpt>
<trkpt lat="46.0245570" lon="10.3666340">
	<ele>888.00</ele>
	<time>2024-07-24T11:40:27.000Z</time>
</trkpt>
<trkpt lat="46.0245700" lon="10.3666300">
	<ele>888.00</ele>
	<time>2024-07-24T11:40:28.000Z</time>
</trkpt>
<trkpt lat="46.0245850" lon="10.3666270">
	<ele>888.00</ele>
	<time>2024-07-24T11:40:29.000Z</time>
</trkpt>
<trkpt lat="46.0245990" lon="10.3666230">
	<ele>887.80</ele>
	<time>2024-07-24T11:40:30.000Z</time>
</trkpt>
<trkpt lat="46.0246140" lon="10.3666210">
	<ele>887.80</ele>
	<time>2024-07-24T11:40:31.000Z</time>
</trkpt>
<trkpt lat="46.0246240" lon="10.3666150">
	<ele>887.60</ele>
	<time>2024-07-24T11:40:32.000Z</time>
</trkpt>
<trkpt lat="46.0246340" lon="10.3666060">
	<ele>887.40</ele>
	<time>2024-07-24T11:40:33.000Z</time>
</trkpt>
<trkpt lat="46.0246440" lon="10.3665970">
	<ele>887.20</ele>
	<time>2024-07-24T11:40:34.000Z</time>
</trkpt>
<trkpt lat="46.0246540" lon="10.3665890">
	<ele>887.00</ele>
	<time>2024-07-24T11:40:35.000Z</time>
</trkpt>
<trkpt lat="46.0246650" lon="10.3665810">
	<ele>887.00</ele>
	<time>2024-07-24T11:40:36.000Z</time>
</trkpt>
<trkpt lat="46.0246760" lon="10.3665770">
	<ele>886.80</ele>
	<time>2024-07-24T11:40:37.000Z</time>
</trkpt>
<trkpt lat="46.0246790" lon="10.3665660">
	<ele>886.60</ele>
	<time>2024-07-24T11:40:38.000Z</time>
</trkpt>
<trkpt lat="46.0246890" lon="10.3665640">
	<ele>886.40</ele>
	<time>2024-07-24T11:40:39.000Z</time>
</trkpt>
<trkpt lat="46.0246940" lon="10.3665530">
	<ele>886.40</ele>
	<time>2024-07-24T11:40:40.000Z</time>
</trkpt>
<trkpt lat="46.0247050" lon="10.3665430">
	<ele>886.20</ele>
	<time>2024-07-24T11:40:41.000Z</time>
</trkpt>
<trkpt lat="46.0247150" lon="10.3665330">
	<ele>886.20</ele>
	<time>2024-07-24T11:40:42.000Z</time>
</trkpt>
<trkpt lat="46.0247250" lon="10.3665250">
	<ele>886.00</ele>
	<time>2024-07-24T11:40:43.000Z</time>
</trkpt>
<trkpt lat="46.0247380" lon="10.3665200">
	<ele>886.00</ele>
	<time>2024-07-24T11:40:44.000Z</time>
</trkpt>
<trkpt lat="46.0247520" lon="10.3665180">
	<ele>886.00</ele>
	<time>2024-07-24T11:40:45.000Z</time>
</trkpt>
<trkpt lat="46.0247620" lon="10.3665110">
	<ele>885.60</ele>
	<time>2024-07-24T11:40:46.000Z</time>
</trkpt>
<trkpt lat="46.0247720" lon="10.3665040">
	<ele>885.40</ele>
	<time>2024-07-24T11:40:47.000Z</time>
</trkpt>
<trkpt lat="46.0247840" lon="10.3665000">
	<ele>885.20</ele>
	<time>2024-07-24T11:40:48.000Z</time>
</trkpt>
<trkpt lat="46.0247980" lon="10.3664990">
	<ele>885.20</ele>
	<time>2024-07-24T11:40:49.000Z</time>
</trkpt>
<trkpt lat="46.0248150" lon="10.3664990">
	<ele>885.00</ele>
	<time>2024-07-24T11:40:50.000Z</time>
</trkpt>
<trkpt lat="46.0248320" lon="10.3665000">
	<ele>885.00</ele>
	<time>2024-07-24T11:40:51.000Z</time>
</trkpt>
<trkpt lat="46.0248470" lon="10.3665010">
	<ele>885.00</ele>
	<time>2024-07-24T11:40:52.000Z</time>
</trkpt>
<trkpt lat="46.0248640" lon="10.3665020">
	<ele>884.80</ele>
	<time>2024-07-24T11:40:53.000Z</time>
</trkpt>
<trkpt lat="46.0248820" lon="10.3665020">
	<ele>884.60</ele>
	<time>2024-07-24T11:40:54.000Z</time>
</trkpt>
<trkpt lat="46.0249000" lon="10.3665020">
	<ele>884.40</ele>
	<time>2024-07-24T11:40:55.000Z</time>
</trkpt>
<trkpt lat="46.0249170" lon="10.3665010">
	<ele>884.40</ele>
	<time>2024-07-24T11:40:56.000Z</time>
</trkpt>
<trkpt lat="46.0249330" lon="10.3665000">
	<ele>884.20</ele>
	<time>2024-07-24T11:40:57.000Z</time>
</trkpt>
<trkpt lat="46.0249390" lon="10.3664910">
	<ele>884.20</ele>
	<time>2024-07-24T11:40:58.000Z</time>
</trkpt>
<trkpt lat="46.0249450" lon="10.3664790">
	<ele>884.20</ele>
	<time>2024-07-24T11:40:59.000Z</time>
</trkpt>
<trkpt lat="46.0249550" lon="10.3664720">
	<ele>883.80</ele>
	<time>2024-07-24T11:41:00.000Z</time>
</trkpt>
<trkpt lat="46.0249670" lon="10.3664700">
	<ele>883.80</ele>
	<time>2024-07-24T11:41:01.000Z</time>
</trkpt>
<trkpt lat="46.0249790" lon="10.3664690">
	<ele>883.60</ele>
	<time>2024-07-24T11:41:02.000Z</time>
</trkpt>
<trkpt lat="46.0249910" lon="10.3664670">
	<ele>883.40</ele>
	<time>2024-07-24T11:41:03.000Z</time>
</trkpt>
<trkpt lat="46.0250030" lon="10.3664660">
	<ele>883.40</ele>
	<time>2024-07-24T11:41:04.000Z</time>
</trkpt>
<trkpt lat="46.0250170" lon="10.3664650">
	<ele>883.40</ele>
	<time>2024-07-24T11:41:05.000Z</time>
</trkpt>
<trkpt lat="46.0250300" lon="10.3664660">
	<ele>883.20</ele>
	<time>2024-07-24T11:41:06.000Z</time>
</trkpt>
<trkpt lat="46.0250430" lon="10.3664610">
	<ele>883.20</ele>
	<time>2024-07-24T11:41:07.000Z</time>
</trkpt>
<trkpt lat="46.0250520" lon="10.3664550">
	<ele>883.20</ele>
	<time>2024-07-24T11:41:08.000Z</time>
</trkpt>
<trkpt lat="46.0250630" lon="10.3664490">
	<ele>883.20</ele>
	<time>2024-07-24T11:41:09.000Z</time>
</trkpt>
<trkpt lat="46.0250780" lon="10.3664510">
	<ele>883.00</ele>
	<time>2024-07-24T11:41:10.000Z</time>
</trkpt>
<trkpt lat="46.0250890" lon="10.3664460">
	<ele>882.80</ele>
	<time>2024-07-24T11:41:11.000Z</time>
</trkpt>
<trkpt lat="46.0251010" lon="10.3664440">
	<ele>882.80</ele>
	<time>2024-07-24T11:41:12.000Z</time>
</trkpt>
<trkpt lat="46.0251130" lon="10.3664450">
	<ele>882.60</ele>
	<time>2024-07-24T11:41:13.000Z</time>
</trkpt>
<trkpt lat="46.0251220" lon="10.3664470">
	<ele>882.40</ele>
	<time>2024-07-24T11:41:14.000Z</time>
</trkpt>
<trkpt lat="46.0251280" lon="10.3664490">
	<ele>882.20</ele>
	<time>2024-07-24T11:41:15.000Z</time>
</trkpt>
<trkpt lat="46.0251310" lon="10.3664500">
	<ele>882.00</ele>
	<time>2024-07-24T11:41:16.000Z</time>
</trkpt>
<trkpt lat="46.0251410" lon="10.3664500">
	<ele>882.00</ele>
	<time>2024-07-24T11:41:17.000Z</time>
</trkpt>
<trkpt lat="46.0251470" lon="10.3664420">
	<ele>881.80</ele>
	<time>2024-07-24T11:41:18.000Z</time>
</trkpt>
<trkpt lat="46.0251480" lon="10.3664320">
	<ele>881.60</ele>
	<time>2024-07-24T11:41:19.000Z</time>
</trkpt>
<trkpt lat="46.0251550" lon="10.3664310">
	<ele>881.60</ele>
	<time>2024-07-24T11:41:20.000Z</time>
</trkpt>
<trkpt lat="46.0251650" lon="10.3664160">
	<ele>881.60</ele>
	<time>2024-07-24T11:41:21.000Z</time>
</trkpt>
<trkpt lat="46.0251790" lon="10.3664120">
	<ele>881.40</ele>
	<time>2024-07-24T11:41:22.000Z</time>
</trkpt>
<trkpt lat="46.0251880" lon="10.3664040">
	<ele>881.20</ele>
	<time>2024-07-24T11:41:23.000Z</time>
</trkpt>
<trkpt lat="46.0252030" lon="10.3663960">
	<ele>881.20</ele>
	<time>2024-07-24T11:41:24.000Z</time>
</trkpt>
<trkpt lat="46.0252110" lon="10.3663880">
	<ele>881.00</ele>
	<time>2024-07-24T11:41:25.000Z</time>
</trkpt>
<trkpt lat="46.0252110" lon="10.3663740">
	<ele>880.80</ele>
	<time>2024-07-24T11:41:26.000Z</time>
</trkpt>
<trkpt lat="46.0252220" lon="10.3663680">
	<ele>880.80</ele>
	<time>2024-07-24T11:41:27.000Z</time>
</trkpt>
<trkpt lat="46.0252280" lon="10.3663620">
	<ele>880.60</ele>
	<time>2024-07-24T11:41:28.000Z</time>
</trkpt>
<trkpt lat="46.0252340" lon="10.3663520">
	<ele>880.40</ele>
	<time>2024-07-24T11:41:29.000Z</time>
</trkpt>
<trkpt lat="46.0252440" lon="10.3663450">
	<ele>880.40</ele>
	<time>2024-07-24T11:41:30.000Z</time>
</trkpt>
<trkpt lat="46.0252540" lon="10.3663440">
	<ele>880.40</ele>
	<time>2024-07-24T11:41:31.000Z</time>
</trkpt>
<trkpt lat="46.0252610" lon="10.3663420">
	<ele>880.00</ele>
	<time>2024-07-24T11:41:32.000Z</time>
</trkpt>
<trkpt lat="46.0252660" lon="10.3663390">
	<ele>880.00</ele>
	<time>2024-07-24T11:41:33.000Z</time>
</trkpt>
<trkpt lat="46.0252670" lon="10.3663360">
	<ele>879.80</ele>
	<time>2024-07-24T11:41:34.000Z</time>
</trkpt>
<trkpt lat="46.0252660" lon="10.3663330">
	<ele>879.80</ele>
	<time>2024-07-24T11:41:35.000Z</time>
</trkpt>
<trkpt lat="46.0252660" lon="10.3663330">
	<ele>879.80</ele>
	<time>2024-07-24T11:41:36.000Z</time>
</trkpt>
<trkpt lat="46.0252670" lon="10.3663350">
	<ele>879.80</ele>
	<time>2024-07-24T11:41:37.000Z</time>
</trkpt>
<trkpt lat="46.0252660" lon="10.3663360">
	<ele>879.80</ele>
	<time>2024-07-24T11:41:38.000Z</time>
</trkpt>
<trkpt lat="46.0252640" lon="10.3663340">
	<ele>879.80</ele>
	<time>2024-07-24T11:41:39.000Z</time>
</trkpt>
<trkpt lat="46.0252620" lon="10.3663300">
	<ele>879.80</ele>
	<time>2024-07-24T11:41:40.000Z</time>
</trkpt>
<trkpt lat="46.0252600" lon="10.3663250">
	<ele>879.80</ele>
	<time>2024-07-24T11:41:41.000Z</time>
</trkpt>
<trkpt lat="46.0252580" lon="10.3663210">
	<ele>880.00</ele>
	<time>2024-07-24T11:41:42.000Z</time>
</trkpt>
<trkpt lat="46.0252570" lon="10.3663200">
	<ele>880.00</ele>
	<time>2024-07-24T11:41:43.000Z</time>
</trkpt>
<trkpt lat="46.0252570" lon="10.3663200">
	<ele>880.20</ele>
	<time>2024-07-24T11:41:44.000Z</time>
</trkpt>
<trkpt lat="46.0252570" lon="10.3663200">
	<ele>880.20</ele>
	<time>2024-07-24T11:41:45.000Z</time>
</trkpt>
<trkpt lat="46.0252570" lon="10.3663200">
	<ele>880.20</ele>
	<time>2024-07-24T11:41:46.000Z</time>
</trkpt>
<trkpt lat="46.0252570" lon="10.3663200">
	<ele>880.20</ele>
	<time>2024-07-24T11:41:47.000Z</time>
</trkpt>
<trkpt lat="46.0252570" lon="10.3663200">
	<ele>880.20</ele>
	<time>2024-07-24T11:41:48.000Z</time>
</trkpt>
<trkpt lat="46.0252570" lon="10.3663200">
	<ele>880.00</ele>
	<time>2024-07-24T11:41:49.000Z</time>
</trkpt>
<trkpt lat="46.0252570" lon="10.3663200">
	<ele>879.80</ele>
	<time>2024-07-24T11:41:50.000Z</time>
</trkpt>
<trkpt lat="46.0252590" lon="10.3663190">
	<ele>879.60</ele>
	<time>2024-07-24T11:41:51.000Z</time>
</trkpt>
<trkpt lat="46.0252750" lon="10.3663210">
	<ele>879.40</ele>
	<time>2024-07-24T11:41:52.000Z</time>
</trkpt>
<trkpt lat="46.0253000" lon="10.3663360">
	<ele>879.20</ele>
	<time>2024-07-24T11:41:53.000Z</time>
</trkpt>
<trkpt lat="46.0253150" lon="10.3663370">
	<ele>879.00</ele>
	<time>2024-07-24T11:41:54.000Z</time>
</trkpt>
<trkpt lat="46.0253340" lon="10.3663420">
	<ele>878.80</ele>
	<time>2024-07-24T11:41:55.000Z</time>
</trkpt>
<trkpt lat="46.0253510" lon="10.3663410">
	<ele>878.80</ele>
	<time>2024-07-24T11:41:56.000Z</time>
</trkpt>
<trkpt lat="46.0253730" lon="10.3663440">
	<ele>878.60</ele>
	<time>2024-07-24T11:41:57.000Z</time>
</trkpt>
<trkpt lat="46.0253970" lon="10.3663470">
	<ele>878.60</ele>
	<time>2024-07-24T11:41:58.000Z</time>
</trkpt>
<trkpt lat="46.0254200" lon="10.3663500">
	<ele>878.40</ele>
	<time>2024-07-24T11:41:59.000Z</time>
</trkpt>
<trkpt lat="46.0254370" lon="10.3663470">
	<ele>878.40</ele>
	<time>2024-07-24T11:42:00.000Z</time>
</trkpt>
<trkpt lat="46.0254540" lon="10.3663520">
	<ele>878.40</ele>
	<time>2024-07-24T11:42:01.000Z</time>
</trkpt>
<trkpt lat="46.0254760" lon="10.3663560">
	<ele>878.20</ele>
	<time>2024-07-24T11:42:02.000Z</time>
</trkpt>
<trkpt lat="46.0254780" lon="10.3663430">
	<ele>878.00</ele>
	<time>2024-07-24T11:42:03.000Z</time>
</trkpt>
<trkpt lat="46.0254840" lon="10.3663340">
	<ele>877.80</ele>
	<time>2024-07-24T11:42:04.000Z</time>
</trkpt>
<trkpt lat="46.0254920" lon="10.3663270">
	<ele>877.80</ele>
	<time>2024-07-24T11:42:05.000Z</time>
</trkpt>
<trkpt lat="46.0255010" lon="10.3663220">
	<ele>877.60</ele>
	<time>2024-07-24T11:42:06.000Z</time>
</trkpt>
<trkpt lat="46.0255130" lon="10.3663190">
	<ele>877.60</ele>
	<time>2024-07-24T11:42:07.000Z</time>
</trkpt>
<trkpt lat="46.0255220" lon="10.3663140">
	<ele>877.40</ele>
	<time>2024-07-24T11:42:08.000Z</time>
</trkpt>
<trkpt lat="46.0255370" lon="10.3663150">
	<ele>877.40</ele>
	<time>2024-07-24T11:42:09.000Z</time>
</trkpt>
<trkpt lat="46.0255500" lon="10.3663130">
	<ele>877.20</ele>
	<time>2024-07-24T11:42:10.000Z</time>
</trkpt>
<trkpt lat="46.0255630" lon="10.3663050">
	<ele>877.20</ele>
	<time>2024-07-24T11:42:11.000Z</time>
</trkpt>
<trkpt lat="46.0255730" lon="10.3662960">
	<ele>877.20</ele>
	<time>2024-07-24T11:42:12.000Z</time>
</trkpt>
<trkpt lat="46.0255840" lon="10.3662920">
	<ele>877.00</ele>
	<time>2024-07-24T11:42:13.000Z</time>
</trkpt>
<trkpt lat="46.0256040" lon="10.3662930">
	<ele>877.00</ele>
	<time>2024-07-24T11:42:14.000Z</time>
</trkpt>
<trkpt lat="46.0256210" lon="10.3662940">
	<ele>877.00</ele>
	<time>2024-07-24T11:42:15.000Z</time>
</trkpt>
<trkpt lat="46.0256360" lon="10.3662950">
	<ele>876.80</ele>
	<time>2024-07-24T11:42:16.000Z</time>
</trkpt>
<trkpt lat="46.0256510" lon="10.3662950">
	<ele>876.60</ele>
	<time>2024-07-24T11:42:17.000Z</time>
</trkpt>
<trkpt lat="46.0256660" lon="10.3662940">
	<ele>876.40</ele>
	<time>2024-07-24T11:42:18.000Z</time>
</trkpt>
<trkpt lat="46.0256780" lon="10.3662870">
	<ele>876.40</ele>
	<time>2024-07-24T11:42:19.000Z</time>
</trkpt>
<trkpt lat="46.0256900" lon="10.3662780">
	<ele>876.20</ele>
	<time>2024-07-24T11:42:20.000Z</time>
</trkpt>
<trkpt lat="46.0257100" lon="10.3662780">
	<ele>876.20</ele>
	<time>2024-07-24T11:42:21.000Z</time>
</trkpt>
<trkpt lat="46.0257300" lon="10.3662830">
	<ele>876.20</ele>
	<time>2024-07-24T11:42:22.000Z</time>
</trkpt>
<trkpt lat="46.0257490" lon="10.3662850">
	<ele>876.20</ele>
	<time>2024-07-24T11:42:23.000Z</time>
</trkpt>
<trkpt lat="46.0257610" lon="10.3662800">
	<ele>876.00</ele>
	<time>2024-07-24T11:42:24.000Z</time>
</trkpt>
<trkpt lat="46.0257690" lon="10.3662680">
	<ele>875.80</ele>
	<time>2024-07-24T11:42:25.000Z</time>
</trkpt>
<trkpt lat="46.0257800" lon="10.3662660">
	<ele>875.60</ele>
	<time>2024-07-24T11:42:26.000Z</time>
</trkpt>
<trkpt lat="46.0257960" lon="10.3662640">
	<ele>875.60</ele>
	<time>2024-07-24T11:42:27.000Z</time>
</trkpt>
<trkpt lat="46.0258140" lon="10.3662610">
	<ele>875.40</ele>
	<time>2024-07-24T11:42:28.000Z</time>
</trkpt>
<trkpt lat="46.0258300" lon="10.3662580">
	<ele>875.20</ele>
	<time>2024-07-24T11:42:29.000Z</time>
</trkpt>
<trkpt lat="46.0258430" lon="10.3662540">
	<ele>875.00</ele>
	<time>2024-07-24T11:42:30.000Z</time>
</trkpt>
<trkpt lat="46.0258580" lon="10.3662540">
	<ele>874.80</ele>
	<time>2024-07-24T11:42:31.000Z</time>
</trkpt>
<trkpt lat="46.0258710" lon="10.3662480">
	<ele>874.60</ele>
	<time>2024-07-24T11:42:32.000Z</time>
</trkpt>
<trkpt lat="46.0258820" lon="10.3662440">
	<ele>874.60</ele>
	<time>2024-07-24T11:42:33.000Z</time>
</trkpt>
<trkpt lat="46.0258990" lon="10.3662390">
	<ele>874.40</ele>
	<time>2024-07-24T11:42:34.000Z</time>
</trkpt>
<trkpt lat="46.0259140" lon="10.3662340">
	<ele>874.20</ele>
	<time>2024-07-24T11:42:35.000Z</time>
</trkpt>
<trkpt lat="46.0259280" lon="10.3662280">
	<ele>874.20</ele>
	<time>2024-07-24T11:42:36.000Z</time>
</trkpt>
<trkpt lat="46.0259410" lon="10.3662210">
	<ele>874.00</ele>
	<time>2024-07-24T11:42:37.000Z</time>
</trkpt>
<trkpt lat="46.0259520" lon="10.3662120">
	<ele>873.80</ele>
	<time>2024-07-24T11:42:38.000Z</time>
</trkpt>
<trkpt lat="46.0259590" lon="10.3662040">
	<ele>873.80</ele>
	<time>2024-07-24T11:42:39.000Z</time>
</trkpt>
<trkpt lat="46.0259700" lon="10.3661870">
	<ele>873.40</ele>
	<time>2024-07-24T11:42:40.000Z</time>
</trkpt>
<trkpt lat="46.0259780" lon="10.3661710">
	<ele>873.20</ele>
	<time>2024-07-24T11:42:41.000Z</time>
</trkpt>
<trkpt lat="46.0259830" lon="10.3661570">
	<ele>873.20</ele>
	<time>2024-07-24T11:42:42.000Z</time>
</trkpt>
<trkpt lat="46.0259880" lon="10.3661370">
	<ele>873.00</ele>
	<time>2024-07-24T11:42:43.000Z</time>
</trkpt>
<trkpt lat="46.0259930" lon="10.3661170">
	<ele>872.80</ele>
	<time>2024-07-24T11:42:44.000Z</time>
</trkpt>
<trkpt lat="46.0259970" lon="10.3660970">
	<ele>872.60</ele>
	<time>2024-07-24T11:42:45.000Z</time>
</trkpt>
<trkpt lat="46.0259980" lon="10.3660780">
	<ele>872.40</ele>
	<time>2024-07-24T11:42:46.000Z</time>
</trkpt>
<trkpt lat="46.0260000" lon="10.3660600">
	<ele>872.20</ele>
	<time>2024-07-24T11:42:47.000Z</time>
</trkpt>
<trkpt lat="46.0260050" lon="10.3660440">
	<ele>872.20</ele>
	<time>2024-07-24T11:42:48.000Z</time>
</trkpt>
<trkpt lat="46.0260090" lon="10.3660280">
	<ele>872.20</ele>
	<time>2024-07-24T11:42:49.000Z</time>
</trkpt>
<trkpt lat="46.0260140" lon="10.3660120">
	<ele>872.00</ele>
	<time>2024-07-24T11:42:50.000Z</time>
</trkpt>
<trkpt lat="46.0260170" lon="10.3659950">
	<ele>872.00</ele>
	<time>2024-07-24T11:42:51.000Z</time>
</trkpt>
<trkpt lat="46.0260190" lon="10.3659780">
	<ele>872.00</ele>
	<time>2024-07-24T11:42:52.000Z</time>
</trkpt>
<trkpt lat="46.0260190" lon="10.3659610">
	<ele>872.00</ele>
	<time>2024-07-24T11:42:53.000Z</time>
</trkpt>
<trkpt lat="46.0260180" lon="10.3659430">
	<ele>872.00</ele>
	<time>2024-07-24T11:42:54.000Z</time>
</trkpt>
<trkpt lat="46.0260150" lon="10.3659240">
	<ele>872.00</ele>
	<time>2024-07-24T11:42:55.000Z</time>
</trkpt>
<trkpt lat="46.0260100" lon="10.3659050">
	<ele>871.80</ele>
	<time>2024-07-24T11:42:56.000Z</time>
</trkpt>
<trkpt lat="46.0260040" lon="10.3658880">
	<ele>871.60</ele>
	<time>2024-07-24T11:42:57.000Z</time>
</trkpt>
<trkpt lat="46.0259970" lon="10.3658730">
	<ele>871.60</ele>
	<time>2024-07-24T11:42:58.000Z</time>
</trkpt>
<trkpt lat="46.0259900" lon="10.3658590">
	<ele>871.40</ele>
	<time>2024-07-24T11:42:59.000Z</time>
</trkpt>
<trkpt lat="46.0259770" lon="10.3658490">
	<ele>871.40</ele>
	<time>2024-07-24T11:43:00.000Z</time>
</trkpt>
<trkpt lat="46.0259650" lon="10.3658420">
	<ele>871.20</ele>
	<time>2024-07-24T11:43:01.000Z</time>
</trkpt>
<trkpt lat="46.0259530" lon="10.3658350">
	<ele>871.20</ele>
	<time>2024-07-24T11:43:02.000Z</time>
</trkpt>
<trkpt lat="46.0259430" lon="10.3658280">
	<ele>871.20</ele>
	<time>2024-07-24T11:43:03.000Z</time>
</trkpt>
<trkpt lat="46.0259340" lon="10.3658200">
	<ele>871.00</ele>
	<time>2024-07-24T11:43:04.000Z</time>
</trkpt>
<trkpt lat="46.0259260" lon="10.3658120">
	<ele>871.00</ele>
	<time>2024-07-24T11:43:05.000Z</time>
</trkpt>
<trkpt lat="46.0259160" lon="10.3658030">
	<ele>870.80</ele>
	<time>2024-07-24T11:43:06.000Z</time>
</trkpt>
<trkpt lat="46.0259060" lon="10.3657990">
	<ele>870.80</ele>
	<time>2024-07-24T11:43:07.000Z</time>
</trkpt>
<trkpt lat="46.0258980" lon="10.3657960">
	<ele>870.60</ele>
	<time>2024-07-24T11:43:08.000Z</time>
</trkpt>
<trkpt lat="46.0258860" lon="10.3657910">
	<ele>870.40</ele>
	<time>2024-07-24T11:43:09.000Z</time>
</trkpt>
<trkpt lat="46.0258750" lon="10.3657860">
	<ele>870.20</ele>
	<time>2024-07-24T11:43:10.000Z</time>
</trkpt>
<trkpt lat="46.0258680" lon="10.3657810">
	<ele>870.20</ele>
	<time>2024-07-24T11:43:11.000Z</time>
</trkpt>
<trkpt lat="46.0258640" lon="10.3657710">
	<ele>870.00</ele>
	<time>2024-07-24T11:43:12.000Z</time>
</trkpt>
<trkpt lat="46.0258650" lon="10.3657590">
	<ele>870.00</ele>
	<time>2024-07-24T11:43:13.000Z</time>
</trkpt>
<trkpt lat="46.0258680" lon="10.3657480">
	<ele>869.80</ele>
	<time>2024-07-24T11:43:14.000Z</time>
</trkpt>
<trkpt lat="46.0258700" lon="10.3657430">
	<ele>869.60</ele>
	<time>2024-07-24T11:43:15.000Z</time>
</trkpt>
<trkpt lat="46.0258730" lon="10.3657400">
	<ele>869.60</ele>
	<time>2024-07-24T11:43:16.000Z</time>
</trkpt>
<trkpt lat="46.0258740" lon="10.3657390">
	<ele>869.40</ele>
	<time>2024-07-24T11:43:17.000Z</time>
</trkpt>
<trkpt lat="46.0258730" lon="10.3657370">
	<ele>869.40</ele>
	<time>2024-07-24T11:43:18.000Z</time>
</trkpt>
<trkpt lat="46.0258730" lon="10.3657350">
	<ele>869.40</ele>
	<time>2024-07-24T11:43:19.000Z</time>
</trkpt>
<trkpt lat="46.0258720" lon="10.3657340">
	<ele>869.40</ele>
	<time>2024-07-24T11:43:20.000Z</time>
</trkpt>
<trkpt lat="46.0258720" lon="10.3657330">
	<ele>869.40</ele>
	<time>2024-07-24T11:43:21.000Z</time>
</trkpt>
<trkpt lat="46.0258730" lon="10.3657320">
	<ele>869.40</ele>
	<time>2024-07-24T11:43:22.000Z</time>
</trkpt>
<trkpt lat="46.0258730" lon="10.3657310">
	<ele>869.40</ele>
	<time>2024-07-24T11:43:23.000Z</time>
</trkpt>
<trkpt lat="46.0258730" lon="10.3657310">
	<ele>869.40</ele>
	<time>2024-07-24T11:43:24.000Z</time>
</trkpt>
<trkpt lat="46.0258710" lon="10.3657300">
	<ele>869.40</ele>
	<time>2024-07-24T11:43:25.000Z</time>
</trkpt>
<trkpt lat="46.0258710" lon="10.3657300">
	<ele>869.40</ele>
	<time>2024-07-24T11:43:26.000Z</time>
</trkpt>
<trkpt lat="46.0258710" lon="10.3657300">
	<ele>869.40</ele>
	<time>2024-07-24T11:43:27.000Z</time>
</trkpt>
<trkpt lat="46.0258710" lon="10.3657300">
	<ele>869.20</ele>
	<time>2024-07-24T11:43:28.000Z</time>
</trkpt>
<trkpt lat="46.0258710" lon="10.3657300">
	<ele>869.20</ele>
	<time>2024-07-24T11:43:29.000Z</time>
</trkpt>
<trkpt lat="46.0258730" lon="10.3657250">
	<ele>869.00</ele>
	<time>2024-07-24T11:43:30.000Z</time>
</trkpt>
<trkpt lat="46.0258760" lon="10.3657090">
	<ele>869.00</ele>
	<time>2024-07-24T11:43:31.000Z</time>
</trkpt>
<trkpt lat="46.0258780" lon="10.3656870">
	<ele>869.00</ele>
	<time>2024-07-24T11:43:32.000Z</time>
</trkpt>
<trkpt lat="46.0258810" lon="10.3656620">
	<ele>868.80</ele>
	<time>2024-07-24T11:43:33.000Z</time>
</trkpt>
<trkpt lat="46.0258850" lon="10.3656380">
	<ele>868.60</ele>
	<time>2024-07-24T11:43:34.000Z</time>
</trkpt>
<trkpt lat="46.0258880" lon="10.3656130">
	<ele>868.40</ele>
	<time>2024-07-24T11:43:35.000Z</time>
</trkpt>
<trkpt lat="46.0258930" lon="10.3655890">
	<ele>868.40</ele>
	<time>2024-07-24T11:43:36.000Z</time>
</trkpt>
<trkpt lat="46.0258980" lon="10.3655680">
	<ele>868.20</ele>
	<time>2024-07-24T11:43:37.000Z</time>
</trkpt>
<trkpt lat="46.0259000" lon="10.3655450">
	<ele>868.20</ele>
	<time>2024-07-24T11:43:38.000Z</time>
</trkpt>
<trkpt lat="46.0258940" lon="10.3655100">
	<ele>868.00</ele>
	<time>2024-07-24T11:43:39.000Z</time>
</trkpt>
<trkpt lat="46.0258870" lon="10.3654800">
	<ele>868.00</ele>
	<time>2024-07-24T11:43:40.000Z</time>
</trkpt>
<trkpt lat="46.0258780" lon="10.3654520">
	<ele>868.00</ele>
	<time>2024-07-24T11:43:41.000Z</time>
</trkpt>
<trkpt lat="46.0258680" lon="10.3654220">
	<ele>868.20</ele>
	<time>2024-07-24T11:43:42.000Z</time>
</trkpt>
<trkpt lat="46.0258550" lon="10.3653870">
	<ele>868.20</ele>
	<time>2024-07-24T11:43:43.000Z</time>
</trkpt>
<trkpt lat="46.0258440" lon="10.3653600">
	<ele>868.20</ele>
	<time>2024-07-24T11:43:44.000Z</time>
</trkpt>
<trkpt lat="46.0258310" lon="10.3653230">
	<ele>868.40</ele>
	<time>2024-07-24T11:43:45.000Z</time>
</trkpt>
<trkpt lat="46.0258020" lon="10.3652820">
	<ele>868.40</ele>
	<time>2024-07-24T11:43:46.000Z</time>
</trkpt>
<trkpt lat="46.0257960" lon="10.3652680">
	<ele>868.40</ele>
	<time>2024-07-24T11:43:47.000Z</time>
</trkpt>
<trkpt lat="46.0257770" lon="10.3652400">
	<ele>868.40</ele>
	<time>2024-07-24T11:43:48.000Z</time>
</trkpt>
<trkpt lat="46.0257670" lon="10.3652160">
	<ele>868.60</ele>
	<time>2024-07-24T11:43:49.000Z</time>
</trkpt>
<trkpt lat="46.0257510" lon="10.3652010">
	<ele>868.60</ele>
	<time>2024-07-24T11:43:50.000Z</time>
</trkpt>
<trkpt lat="46.0257330" lon="10.3651780">
	<ele>868.80</ele>
	<time>2024-07-24T11:43:51.000Z</time>
</trkpt>
<trkpt lat="46.0257000" lon="10.3651420">
	<ele>868.80</ele>
	<time>2024-07-24T11:43:52.000Z</time>
</trkpt>
<trkpt lat="46.0256900" lon="10.3651190">
	<ele>868.80</ele>
	<time>2024-07-24T11:43:53.000Z</time>
</trkpt>
<trkpt lat="46.0257240" lon="10.3651050">
	<ele>868.80</ele>
	<time>2024-07-24T11:43:54.000Z</time>
</trkpt>
<trkpt lat="46.0257270" lon="10.3651050">
	<ele>869.00</ele>
	<time>2024-07-24T11:43:55.000Z</time>
</trkpt>
<trkpt lat="46.0257280" lon="10.3650910">
	<ele>869.20</ele>
	<time>2024-07-24T11:43:56.000Z</time>
</trkpt>
<trkpt lat="46.0257370" lon="10.3650820">
	<ele>869.20</ele>
	<time>2024-07-24T11:43:57.000Z</time>
</trkpt>
<trkpt lat="46.0257440" lon="10.3650770">
	<ele>869.40</ele>
	<time>2024-07-24T11:43:58.000Z</time>
</trkpt>
<trkpt lat="46.0257580" lon="10.3650780">
	<ele>869.40</ele>
	<time>2024-07-24T11:43:59.000Z</time>
</trkpt>
<trkpt lat="46.0257640" lon="10.3650810">
	<ele>869.60</ele>
	<time>2024-07-24T11:44:00.000Z</time>
</trkpt>
<trkpt lat="46.0257680" lon="10.3650790">
	<ele>869.80</ele>
	<time>2024-07-24T11:44:01.000Z</time>
</trkpt>
<trkpt lat="46.0257750" lon="10.3650770">
	<ele>869.80</ele>
	<time>2024-07-24T11:44:02.000Z</time>
</trkpt>
<trkpt lat="46.0257860" lon="10.3650710">
	<ele>869.80</ele>
	<time>2024-07-24T11:44:03.000Z</time>
</trkpt>
<trkpt lat="46.0258020" lon="10.3650630">
	<ele>869.80</ele>
	<time>2024-07-24T11:44:04.000Z</time>
</trkpt>
<trkpt lat="46.0258190" lon="10.3650570">
	<ele>870.00</ele>
	<time>2024-07-24T11:44:05.000Z</time>
</trkpt>
<trkpt lat="46.0258320" lon="10.3650550">
	<ele>870.00</ele>
	<time>2024-07-24T11:44:06.000Z</time>
</trkpt>
<trkpt lat="46.0258440" lon="10.3650530">
	<ele>870.00</ele>
	<time>2024-07-24T11:44:07.000Z</time>
</trkpt>
<trkpt lat="46.0258570" lon="10.3650590">
	<ele>870.20</ele>
	<time>2024-07-24T11:44:08.000Z</time>
</trkpt>
<trkpt lat="46.0258670" lon="10.3650660">
	<ele>870.20</ele>
	<time>2024-07-24T11:44:09.000Z</time>
</trkpt>
<trkpt lat="46.0258710" lon="10.3650750">
	<ele>870.40</ele>
	<time>2024-07-24T11:44:10.000Z</time>
</trkpt>
<trkpt lat="46.0258740" lon="10.3650760">
	<ele>870.40</ele>
	<time>2024-07-24T11:44:11.000Z</time>
</trkpt>
<trkpt lat="46.0258760" lon="10.3650770">
	<ele>870.60</ele>
	<time>2024-07-24T11:44:12.000Z</time>
</trkpt>
<trkpt lat="46.0258760" lon="10.3650780">
	<ele>870.60</ele>
	<time>2024-07-24T11:44:13.000Z</time>
</trkpt>
<trkpt lat="46.0258770" lon="10.3650770">
	<ele>870.60</ele>
	<time>2024-07-24T11:44:14.000Z</time>
</trkpt>
<trkpt lat="46.0258840" lon="10.3650820">
	<ele>870.60</ele>
	<time>2024-07-24T11:44:15.000Z</time>
</trkpt>
<trkpt lat="46.0258850" lon="10.3650790">
	<ele>870.60</ele>
	<time>2024-07-24T11:44:16.000Z</time>
</trkpt>
<trkpt lat="46.0258910" lon="10.3650780">
	<ele>870.60</ele>
	<time>2024-07-24T11:44:17.000Z</time>
</trkpt>
<trkpt lat="46.0259000" lon="10.3650780">
	<ele>870.60</ele>
	<time>2024-07-24T11:44:18.000Z</time>
</trkpt>
<trkpt lat="46.0259090" lon="10.3650830">
	<ele>870.60</ele>
	<time>2024-07-24T11:44:19.000Z</time>
</trkpt>
<trkpt lat="46.0259210" lon="10.3650850">
	<ele>870.80</ele>
	<time>2024-07-24T11:44:20.000Z</time>
</trkpt>
<trkpt lat="46.0259340" lon="10.3650900">
	<ele>870.80</ele>
	<time>2024-07-24T11:44:21.000Z</time>
</trkpt>
<trkpt lat="46.0259540" lon="10.3650980">
	<ele>871.00</ele>
	<time>2024-07-24T11:44:22.000Z</time>
</trkpt>
<trkpt lat="46.0259720" lon="10.3651030">
	<ele>871.40</ele>
	<time>2024-07-24T11:44:23.000Z</time>
</trkpt>
<trkpt lat="46.0259930" lon="10.3651090">
	<ele>871.60</ele>
	<time>2024-07-24T11:44:24.000Z</time>
</trkpt>
<trkpt lat="46.0259970" lon="10.3651030">
	<ele>871.60</ele>
	<time>2024-07-24T11:44:25.000Z</time>
</trkpt>
<trkpt lat="46.0260020" lon="10.3650920">
	<ele>871.80</ele>
	<time>2024-07-24T11:44:26.000Z</time>
</trkpt>
<trkpt lat="46.0260130" lon="10.3650880">
	<ele>872.00</ele>
	<time>2024-07-24T11:44:27.000Z</time>
</trkpt>
<trkpt lat="46.0260260" lon="10.3650860">
	<ele>872.20</ele>
	<time>2024-07-24T11:44:28.000Z</time>
</trkpt>
<trkpt lat="46.0260370" lon="10.3650730">
	<ele>872.20</ele>
	<time>2024-07-24T11:44:29.000Z</time>
</trkpt>
<trkpt lat="46.0260540" lon="10.3650670">
	<ele>872.40</ele>
	<time>2024-07-24T11:44:30.000Z</time>
</trkpt>
<trkpt lat="46.0260670" lon="10.3650620">
	<ele>872.40</ele>
	<time>2024-07-24T11:44:31.000Z</time>
</trkpt>
<trkpt lat="46.0260800" lon="10.3650550">
	<ele>872.60</ele>
	<time>2024-07-24T11:44:32.000Z</time>
</trkpt>
<trkpt lat="46.0260890" lon="10.3650520">
	<ele>872.60</ele>
	<time>2024-07-24T11:44:33.000Z</time>
</trkpt>
<trkpt lat="46.0260990" lon="10.3650490">
	<ele>872.80</ele>
	<time>2024-07-24T11:44:34.000Z</time>
</trkpt>
<trkpt lat="46.0261080" lon="10.3650430">
	<ele>872.80</ele>
	<time>2024-07-24T11:44:35.000Z</time>
</trkpt>
<trkpt lat="46.0261200" lon="10.3650400">
	<ele>872.80</ele>
	<time>2024-07-24T11:44:36.000Z</time>
</trkpt>
<trkpt lat="46.0261290" lon="10.3650310">
	<ele>873.00</ele>
	<time>2024-07-24T11:44:37.000Z</time>
</trkpt>
<trkpt lat="46.0261320" lon="10.3650290">
	<ele>873.20</ele>
	<time>2024-07-24T11:44:38.000Z</time>
</trkpt>
<trkpt lat="46.0261410" lon="10.3650280">
	<ele>873.20</ele>
	<time>2024-07-24T11:44:39.000Z</time>
</trkpt>
<trkpt lat="46.0261500" lon="10.3650250">
	<ele>873.40</ele>
	<time>2024-07-24T11:44:40.000Z</time>
</trkpt>
<trkpt lat="46.0261590" lon="10.3650210">
	<ele>873.60</ele>
	<time>2024-07-24T11:44:41.000Z</time>
</trkpt>
<trkpt lat="46.0261690" lon="10.3650200">
	<ele>873.80</ele>
	<time>2024-07-24T11:44:42.000Z</time>
</trkpt>
<trkpt lat="46.0261790" lon="10.3650200">
	<ele>873.80</ele>
	<time>2024-07-24T11:44:43.000Z</time>
</trkpt>
<trkpt lat="46.0261890" lon="10.3650180">
	<ele>873.80</ele>
	<time>2024-07-24T11:44:44.000Z</time>
</trkpt>
<trkpt lat="46.0261990" lon="10.3650160">
	<ele>874.00</ele>
	<time>2024-07-24T11:44:45.000Z</time>
</trkpt>
<trkpt lat="46.0262110" lon="10.3650130">
	<ele>874.20</ele>
	<time>2024-07-24T11:44:46.000Z</time>
</trkpt>
<trkpt lat="46.0262220" lon="10.3650110">
	<ele>874.40</ele>
	<time>2024-07-24T11:44:47.000Z</time>
</trkpt>
<trkpt lat="46.0262340" lon="10.3650070">
	<ele>874.40</ele>
	<time>2024-07-24T11:44:48.000Z</time>
</trkpt>
<trkpt lat="46.0262450" lon="10.3650030">
	<ele>874.60</ele>
	<time>2024-07-24T11:44:49.000Z</time>
</trkpt>
<trkpt lat="46.0262540" lon="10.3649970">
	<ele>874.60</ele>
	<time>2024-07-24T11:44:50.000Z</time>
</trkpt>
<trkpt lat="46.0262610" lon="10.3649920">
	<ele>874.60</ele>
	<time>2024-07-24T11:44:51.000Z</time>
</trkpt>
<trkpt lat="46.0262680" lon="10.3649880">
	<ele>874.80</ele>
	<time>2024-07-24T11:44:52.000Z</time>
</trkpt>
<trkpt lat="46.0262770" lon="10.3649880">
	<ele>875.00</ele>
	<time>2024-07-24T11:44:53.000Z</time>
</trkpt>
<trkpt lat="46.0262850" lon="10.3649910">
	<ele>875.40</ele>
	<time>2024-07-24T11:44:54.000Z</time>
</trkpt>
<trkpt lat="46.0262930" lon="10.3649950">
	<ele>875.60</ele>
	<time>2024-07-24T11:44:55.000Z</time>
</trkpt>
<trkpt lat="46.0263000" lon="10.3650010">
	<ele>875.80</ele>
	<time>2024-07-24T11:44:56.000Z</time>
</trkpt>
<trkpt lat="46.0263070" lon="10.3650050">
	<ele>876.00</ele>
	<time>2024-07-24T11:44:57.000Z</time>
</trkpt>
<trkpt lat="46.0263080" lon="10.3650120">
	<ele>876.20</ele>
	<time>2024-07-24T11:44:58.000Z</time>
</trkpt>
<trkpt lat="46.0263130" lon="10.3650170">
	<ele>876.40</ele>
	<time>2024-07-24T11:44:59.000Z</time>
</trkpt>
<trkpt lat="46.0263150" lon="10.3650270">
	<ele>876.60</ele>
	<time>2024-07-24T11:45:00.000Z</time>
</trkpt>
<trkpt lat="46.0263150" lon="10.3650350">
	<ele>876.60</ele>
	<time>2024-07-24T11:45:01.000Z</time>
</trkpt>
<trkpt lat="46.0263170" lon="10.3650400">
	<ele>877.00</ele>
	<time>2024-07-24T11:45:02.000Z</time>
</trkpt>
<trkpt lat="46.0263190" lon="10.3650470">
	<ele>877.20</ele>
	<time>2024-07-24T11:45:03.000Z</time>
</trkpt>
<trkpt lat="46.0263210" lon="10.3650550">
	<ele>877.40</ele>
	<time>2024-07-24T11:45:04.000Z</time>
</trkpt>
<trkpt lat="46.0263230" lon="10.3650630">
	<ele>877.60</ele>
	<time>2024-07-24T11:45:05.000Z</time>
</trkpt>
<trkpt lat="46.0263250" lon="10.3650690">
	<ele>877.80</ele>
	<time>2024-07-24T11:45:06.000Z</time>
</trkpt>
<trkpt lat="46.0263250" lon="10.3650790">
	<ele>878.20</ele>
	<time>2024-07-24T11:45:07.000Z</time>
</trkpt>
<trkpt lat="46.0263240" lon="10.3650900">
	<ele>878.40</ele>
	<time>2024-07-24T11:45:08.000Z</time>
</trkpt>
<trkpt lat="46.0263220" lon="10.3650980">
	<ele>878.80</ele>
	<time>2024-07-24T11:45:09.000Z</time>
</trkpt>
<trkpt lat="46.0263190" lon="10.3651040">
	<ele>879.00</ele>
	<time>2024-07-24T11:45:10.000Z</time>
</trkpt>
<trkpt lat="46.0263150" lon="10.3651100">
	<ele>879.20</ele>
	<time>2024-07-24T11:45:11.000Z</time>
</trkpt>
<trkpt lat="46.0263150" lon="10.3651170">
	<ele>879.20</ele>
	<time>2024-07-24T11:45:12.000Z</time>
</trkpt>
<trkpt lat="46.0263140" lon="10.3651230">
	<ele>879.40</ele>
	<time>2024-07-24T11:45:13.000Z</time>
</trkpt>
<trkpt lat="46.0263130" lon="10.3651310">
	<ele>879.40</ele>
	<time>2024-07-24T11:45:14.000Z</time>
</trkpt>
<trkpt lat="46.0263130" lon="10.3651360">
	<ele>879.40</ele>
	<time>2024-07-24T11:45:15.000Z</time>
</trkpt>
<trkpt lat="46.0263120" lon="10.3651380">
	<ele>879.60</ele>
	<time>2024-07-24T11:45:16.000Z</time>
</trkpt>
<trkpt lat="46.0263120" lon="10.3651390">
	<ele>879.80</ele>
	<time>2024-07-24T11:45:17.000Z</time>
</trkpt>
<trkpt lat="46.0263130" lon="10.3651390">
	<ele>879.80</ele>
	<time>2024-07-24T11:45:18.000Z</time>
</trkpt>
<trkpt lat="46.0263130" lon="10.3651380">
	<ele>879.80</ele>
	<time>2024-07-24T11:45:19.000Z</time>
</trkpt>
<trkpt lat="46.0263130" lon="10.3651380">
	<ele>879.80</ele>
	<time>2024-07-24T11:45:20.000Z</time>
</trkpt>
<trkpt lat="46.0263120" lon="10.3651360">
	<ele>880.00</ele>
	<time>2024-07-24T11:45:21.000Z</time>
</trkpt>
<trkpt lat="46.0263090" lon="10.3651330">
	<ele>880.00</ele>
	<time>2024-07-24T11:45:22.000Z</time>
</trkpt>
<trkpt lat="46.0263030" lon="10.3651270">
	<ele>880.20</ele>
	<time>2024-07-24T11:45:23.000Z</time>
</trkpt>
<trkpt lat="46.0263020" lon="10.3651270">
	<ele>880.20</ele>
	<time>2024-07-24T11:45:24.000Z</time>
</trkpt>
<trkpt lat="46.0263040" lon="10.3651260">
	<ele>880.20</ele>
	<time>2024-07-24T11:45:25.000Z</time>
</trkpt>
<trkpt lat="46.0263060" lon="10.3651250">
	<ele>880.20</ele>
	<time>2024-07-24T11:45:26.000Z</time>
</trkpt>
<trkpt lat="46.0263110" lon="10.3651240">
	<ele>880.20</ele>
	<time>2024-07-24T11:45:27.000Z</time>
</trkpt>
<trkpt lat="46.0263260" lon="10.3651370">
	<ele>880.20</ele>
	<time>2024-07-24T11:45:28.000Z</time>
</trkpt>
<trkpt lat="46.0263230" lon="10.3651360">
	<ele>880.20</ele>
	<time>2024-07-24T11:45:29.000Z</time>
</trkpt>
<trkpt lat="46.0263220" lon="10.3651350">
	<ele>880.20</ele>
	<time>2024-07-24T11:45:30.000Z</time>
</trkpt>
<trkpt lat="46.0263170" lon="10.3651310">
	<ele>880.20</ele>
	<time>2024-07-24T11:45:31.000Z</time>
</trkpt>
<trkpt lat="46.0263140" lon="10.3651300">
	<ele>880.20</ele>
	<time>2024-07-24T11:45:32.000Z</time>
</trkpt>
<trkpt lat="46.0263070" lon="10.3651210">
	<ele>880.00</ele>
	<time>2024-07-24T11:45:33.000Z</time>
</trkpt>
<trkpt lat="46.0262920" lon="10.3651090">
	<ele>880.00</ele>
	<time>2024-07-24T11:45:34.000Z</time>
</trkpt>
<trkpt lat="46.0262860" lon="10.3651130">
	<ele>880.20</ele>
	<time>2024-07-24T11:45:35.000Z</time>
</trkpt>
<trkpt lat="46.0262810" lon="10.3651210">
	<ele>880.20</ele>
	<time>2024-07-24T11:45:36.000Z</time>
</trkpt>
<trkpt lat="46.0262790" lon="10.3651330">
	<ele>880.20</ele>
	<time>2024-07-24T11:45:37.000Z</time>
</trkpt>
<trkpt lat="46.0262760" lon="10.3651440">
	<ele>880.40</ele>
	<time>2024-07-24T11:45:38.000Z</time>
</trkpt>
<trkpt lat="46.0262730" lon="10.3651530">
	<ele>880.40</ele>
	<time>2024-07-24T11:45:39.000Z</time>
</trkpt>
<trkpt lat="46.0262670" lon="10.3651620">
	<ele>880.40</ele>
	<time>2024-07-24T11:45:40.000Z</time>
</trkpt>
<trkpt lat="46.0262630" lon="10.3651720">
	<ele>880.60</ele>
	<time>2024-07-24T11:45:41.000Z</time>
</trkpt>
<trkpt lat="46.0262590" lon="10.3651880">
	<ele>880.80</ele>
	<time>2024-07-24T11:45:42.000Z</time>
</trkpt>
<trkpt lat="46.0262500" lon="10.3651940">
	<ele>880.80</ele>
	<time>2024-07-24T11:45:43.000Z</time>
</trkpt>
<trkpt lat="46.0262500" lon="10.3652090">
	<ele>881.00</ele>
	<time>2024-07-24T11:45:44.000Z</time>
</trkpt>
<trkpt lat="46.0262530" lon="10.3652230">
	<ele>881.00</ele>
	<time>2024-07-24T11:45:45.000Z</time>
</trkpt>
<trkpt lat="46.0262530" lon="10.3652360">
	<ele>881.20</ele>
	<time>2024-07-24T11:45:46.000Z</time>
</trkpt>
<trkpt lat="46.0262570" lon="10.3652530">
	<ele>881.20</ele>
	<time>2024-07-24T11:45:47.000Z</time>
</trkpt>
<trkpt lat="46.0262620" lon="10.3652660">
	<ele>881.40</ele>
	<time>2024-07-24T11:45:48.000Z</time>
</trkpt>
<trkpt lat="46.0262680" lon="10.3652740">
	<ele>881.40</ele>
	<time>2024-07-24T11:45:49.000Z</time>
</trkpt>
<trkpt lat="46.0262730" lon="10.3652750">
	<ele>881.60</ele>
	<time>2024-07-24T11:45:50.000Z</time>
</trkpt>
<trkpt lat="46.0262750" lon="10.3652730">
	<ele>881.80</ele>
	<time>2024-07-24T11:45:51.000Z</time>
</trkpt>
<trkpt lat="46.0262750" lon="10.3652700">
	<ele>881.80</ele>
	<time>2024-07-24T11:45:52.000Z</time>
</trkpt>
<trkpt lat="46.0262720" lon="10.3652590">
	<ele>882.00</ele>
	<time>2024-07-24T11:45:53.000Z</time>
</trkpt>
<trkpt lat="46.0262670" lon="10.3652490">
	<ele>882.40</ele>
	<time>2024-07-24T11:45:54.000Z</time>
</trkpt>
<trkpt lat="46.0262670" lon="10.3652450">
	<ele>882.60</ele>
	<time>2024-07-24T11:45:55.000Z</time>
</trkpt>
<trkpt lat="46.0262680" lon="10.3652450">
	<ele>882.60</ele>
	<time>2024-07-24T11:45:56.000Z</time>
</trkpt>
<trkpt lat="46.0262710" lon="10.3652460">
	<ele>882.80</ele>
	<time>2024-07-24T11:45:57.000Z</time>
</trkpt>
<trkpt lat="46.0262720" lon="10.3652460">
	<ele>882.80</ele>
	<time>2024-07-24T11:45:58.000Z</time>
</trkpt>
<trkpt lat="46.0262720" lon="10.3652470">
	<ele>883.00</ele>
	<time>2024-07-24T11:45:59.000Z</time>
</trkpt>
<trkpt lat="46.0262720" lon="10.3652470">
	<ele>883.00</ele>
	<time>2024-07-24T11:46:00.000Z</time>
</trkpt>
<trkpt lat="46.0262720" lon="10.3652470">
	<ele>883.00</ele>
	<time>2024-07-24T11:46:01.000Z</time>
</trkpt>
<trkpt lat="46.0262720" lon="10.3652470">
	<ele>882.80</ele>
	<time>2024-07-24T11:46:02.000Z</time>
</trkpt>
<trkpt lat="46.0262720" lon="10.3652470">
	<ele>882.60</ele>
	<time>2024-07-24T11:46:03.000Z</time>
</trkpt>
<trkpt lat="46.0262720" lon="10.3652470">
	<ele>882.40</ele>
	<time>2024-07-24T11:46:04.000Z</time>
</trkpt>
<trkpt lat="46.0262720" lon="10.3652470">
	<ele>882.40</ele>
	<time>2024-07-24T11:46:05.000Z</time>
</trkpt>
<trkpt lat="46.0262720" lon="10.3652470">
	<ele>882.40</ele>
	<time>2024-07-24T11:46:06.000Z</time>
</trkpt>
<trkpt lat="46.0262720" lon="10.3652470">
	<ele>882.80</ele>
	<time>2024-07-24T11:46:07.000Z</time>
</trkpt>
<trkpt lat="46.0262720" lon="10.3652470">
	<ele>883.00</ele>
	<time>2024-07-24T11:46:08.000Z</time>
</trkpt>
<trkpt lat="46.0262720" lon="10.3652470">
	<ele>883.20</ele>
	<time>2024-07-24T11:46:09.000Z</time>
</trkpt>
<trkpt lat="46.0262720" lon="10.3652470">
	<ele>883.20</ele>
	<time>2024-07-24T11:46:10.000Z</time>
</trkpt>
<trkpt lat="46.0262720" lon="10.3652470">
	<ele>883.40</ele>
	<time>2024-07-24T11:46:11.000Z</time>
</trkpt>
<trkpt lat="46.0262720" lon="10.3652490">
	<ele>883.80</ele>
	<time>2024-07-24T11:46:12.000Z</time>
</trkpt>
<trkpt lat="46.0262720" lon="10.3652500">
	<ele>884.00</ele>
	<time>2024-07-24T11:46:13.000Z</time>
</trkpt>
<trkpt lat="46.0262730" lon="10.3652510">
	<ele>884.20</ele>
	<time>2024-07-24T11:46:14.000Z</time>
</trkpt>
<trkpt lat="46.0262740" lon="10.3652550">
	<ele>884.20</ele>
	<time>2024-07-24T11:46:15.000Z</time>
</trkpt>
<trkpt lat="46.0262750" lon="10.3652550">
	<ele>884.40</ele>
	<time>2024-07-24T11:46:16.000Z</time>
</trkpt>
<trkpt lat="46.0262760" lon="10.3652560">
	<ele>884.60</ele>
	<time>2024-07-24T11:46:17.000Z</time>
</trkpt>
<trkpt lat="46.0262850" lon="10.3652590">
	<ele>884.80</ele>
	<time>2024-07-24T11:46:18.000Z</time>
</trkpt>
<trkpt lat="46.0262900" lon="10.3652620">
	<ele>885.00</ele>
	<time>2024-07-24T11:46:19.000Z</time>
</trkpt>
<trkpt lat="46.0262990" lon="10.3652710">
	<ele>885.00</ele>
	<time>2024-07-24T11:46:20.000Z</time>
</trkpt>
<trkpt lat="46.0263130" lon="10.3652930">
	<ele>885.20</ele>
	<time>2024-07-24T11:46:21.000Z</time>
</trkpt>
<trkpt lat="46.0263270" lon="10.3653150">
	<ele>885.20</ele>
	<time>2024-07-24T11:46:22.000Z</time>
</trkpt>
<trkpt lat="46.0263410" lon="10.3653300">
	<ele>885.40</ele>
	<time>2024-07-24T11:46:23.000Z</time>
</trkpt>
<trkpt lat="46.0263520" lon="10.3653420">
	<ele>885.80</ele>
	<time>2024-07-24T11:46:24.000Z</time>
</trkpt>
<trkpt lat="46.0263630" lon="10.3653530">
	<ele>886.20</ele>
	<time>2024-07-24T11:46:25.000Z</time>
</trkpt>
<trkpt lat="46.0263740" lon="10.3653630">
	<ele>886.40</ele>
	<time>2024-07-24T11:46:26.000Z</time>
</trkpt>
<trkpt lat="46.0263810" lon="10.3653680">
	<ele>886.40</ele>
	<time>2024-07-24T11:46:27.000Z</time>
</trkpt>
<trkpt lat="46.0263910" lon="10.3653770">
	<ele>886.40</ele>
	<time>2024-07-24T11:46:28.000Z</time>
</trkpt>
<trkpt lat="46.0264020" lon="10.3653880">
	<ele>886.60</ele>
	<time>2024-07-24T11:46:29.000Z</time>
</trkpt>
<trkpt lat="46.0264030" lon="10.3653880">
	<ele>886.60</ele>
	<time>2024-07-24T11:46:30.000Z</time>
</trkpt>
<trkpt lat="46.0264060" lon="10.3653820">
	<ele>886.60</ele>
	<time>2024-07-24T11:46:31.000Z</time>
</trkpt>
<trkpt lat="46.0264070" lon="10.3653790">
	<ele>886.60</ele>
	<time>2024-07-24T11:46:32.000Z</time>
</trkpt>
<trkpt lat="46.0264080" lon="10.3653770">
	<ele>886.60</ele>
	<time>2024-07-24T11:46:33.000Z</time>
</trkpt>
<trkpt lat="46.0264070" lon="10.3653750">
	<ele>886.60</ele>
	<time>2024-07-24T11:46:34.000Z</time>
</trkpt>
<trkpt lat="46.0264050" lon="10.3653760">
	<ele>886.40</ele>
	<time>2024-07-24T11:46:35.000Z</time>
</trkpt>
<trkpt lat="46.0264010" lon="10.3653810">
	<ele>886.40</ele>
	<time>2024-07-24T11:46:36.000Z</time>
</trkpt>
<trkpt lat="46.0263930" lon="10.3653920">
	<ele>886.20</ele>
	<time>2024-07-24T11:46:37.000Z</time>
</trkpt>
<trkpt lat="46.0263840" lon="10.3653970">
	<ele>886.20</ele>
	<time>2024-07-24T11:46:38.000Z</time>
</trkpt>
<trkpt lat="46.0263780" lon="10.3654050">
	<ele>886.20</ele>
	<time>2024-07-24T11:46:39.000Z</time>
</trkpt>
<trkpt lat="46.0263750" lon="10.3654210">
	<ele>886.20</ele>
	<time>2024-07-24T11:46:40.000Z</time>
</trkpt>
<trkpt lat="46.0263730" lon="10.3654360">
	<ele>886.20</ele>
	<time>2024-07-24T11:46:41.000Z</time>
</trkpt>
<trkpt lat="46.0263720" lon="10.3654500">
	<ele>886.40</ele>
	<time>2024-07-24T11:46:42.000Z</time>
</trkpt>
<trkpt lat="46.0263740" lon="10.3654640">
	<ele>886.40</ele>
	<time>2024-07-24T11:46:43.000Z</time>
</trkpt>
<trkpt lat="46.0263760" lon="10.3654720">
	<ele>886.40</ele>
	<time>2024-07-24T11:46:44.000Z</time>
</trkpt>
<trkpt lat="46.0263760" lon="10.3654750">
	<ele>886.40</ele>
	<time>2024-07-24T11:46:45.000Z</time>
</trkpt>
<trkpt lat="46.0263760" lon="10.3654760">
	<ele>886.40</ele>
	<time>2024-07-24T11:46:46.000Z</time>
</trkpt>
<trkpt lat="46.0263740" lon="10.3654750">
	<ele>886.40</ele>
	<time>2024-07-24T11:46:47.000Z</time>
</trkpt>
<trkpt lat="46.0263710" lon="10.3654730">
	<ele>886.20</ele>
	<time>2024-07-24T11:46:48.000Z</time>
</trkpt>
<trkpt lat="46.0263700" lon="10.3654730">
	<ele>886.00</ele>
	<time>2024-07-24T11:46:49.000Z</time>
</trkpt>
<trkpt lat="46.0263670" lon="10.3654720">
	<ele>886.00</ele>
	<time>2024-07-24T11:46:50.000Z</time>
</trkpt>
<trkpt lat="46.0263650" lon="10.3654720">
	<ele>886.00</ele>
	<time>2024-07-24T11:46:51.000Z</time>
</trkpt>
<trkpt lat="46.0263630" lon="10.3654710">
	<ele>886.00</ele>
	<time>2024-07-24T11:46:52.000Z</time>
</trkpt>
<trkpt lat="46.0263620" lon="10.3654700">
	<ele>886.20</ele>
	<time>2024-07-24T11:46:53.000Z</time>
</trkpt>
<trkpt lat="46.0263610" lon="10.3654700">
	<ele>886.20</ele>
	<time>2024-07-24T11:46:54.000Z</time>
</trkpt>
<trkpt lat="46.0263600" lon="10.3654690">
	<ele>886.20</ele>
	<time>2024-07-24T11:46:55.000Z</time>
</trkpt>
<trkpt lat="46.0263590" lon="10.3654700">
	<ele>886.20</ele>
	<time>2024-07-24T11:46:56.000Z</time>
</trkpt>
<trkpt lat="46.0263580" lon="10.3654690">
	<ele>886.20</ele>
	<time>2024-07-24T11:46:57.000Z</time>
</trkpt>
<trkpt lat="46.0263560" lon="10.3654700">
	<ele>886.20</ele>
	<time>2024-07-24T11:46:58.000Z</time>
</trkpt>
<trkpt lat="46.0263510" lon="10.3654710">
	<ele>886.20</ele>
	<time>2024-07-24T11:46:59.000Z</time>
</trkpt>
<trkpt lat="46.0263450" lon="10.3654710">
	<ele>886.20</ele>
	<time>2024-07-24T11:47:00.000Z</time>
</trkpt>
<trkpt lat="46.0263430" lon="10.3654710">
	<ele>886.20</ele>
	<time>2024-07-24T11:47:01.000Z</time>
</trkpt>
<trkpt lat="46.0263430" lon="10.3654710">
	<ele>886.20</ele>
	<time>2024-07-24T11:47:02.000Z</time>
</trkpt>
<trkpt lat="46.0263430" lon="10.3654710">
	<ele>886.20</ele>
	<time>2024-07-24T11:47:03.000Z</time>
</trkpt>
<trkpt lat="46.0263430" lon="10.3654710">
	<ele>886.00</ele>
	<time>2024-07-24T11:47:04.000Z</time>
</trkpt>
<trkpt lat="46.0263430" lon="10.3654710">
	<ele>886.00</ele>
	<time>2024-07-24T11:47:05.000Z</time>
</trkpt>
<trkpt lat="46.0263430" lon="10.3654710">
	<ele>886.00</ele>
	<time>2024-07-24T11:47:06.000Z</time>
</trkpt>
<trkpt lat="46.0263430" lon="10.3654710">
	<ele>886.00</ele>
	<time>2024-07-24T11:47:07.000Z</time>
</trkpt>
<trkpt lat="46.0263430" lon="10.3654710">
	<ele>886.00</ele>
	<time>2024-07-24T11:47:08.000Z</time>
</trkpt>
<trkpt lat="46.0263430" lon="10.3654710">
	<ele>886.00</ele>
	<time>2024-07-24T11:47:09.000Z</time>
</trkpt>
<trkpt lat="46.0263430" lon="10.3654710">
	<ele>886.00</ele>
	<time>2024-07-24T11:47:10.000Z</time>
</trkpt>
<trkpt lat="46.0263430" lon="10.3654710">
	<ele>886.00</ele>
	<time>2024-07-24T11:47:11.000Z</time>
</trkpt>
<trkpt lat="46.0263430" lon="10.3654710">
	<ele>886.00</ele>
	<time>2024-07-24T11:47:12.000Z</time>
</trkpt>
<trkpt lat="46.0263430" lon="10.3654710">
	<ele>886.00</ele>
	<time>2024-07-24T11:47:13.000Z</time>
</trkpt>
<trkpt lat="46.0263430" lon="10.3654710">
	<ele>886.00</ele>
	<time>2024-07-24T11:47:14.000Z</time>
</trkpt>
<trkpt lat="46.0263430" lon="10.3654710">
	<ele>886.00</ele>
	<time>2024-07-24T11:47:15.000Z</time>
</trkpt>
<trkpt lat="46.0263430" lon="10.3654710">
	<ele>886.00</ele>
	<time>2024-07-24T11:47:16.000Z</time>
</trkpt>
<trkpt lat="46.0263430" lon="10.3654710">
	<ele>886.00</ele>
	<time>2024-07-24T11:47:17.000Z</time>
</trkpt>
<trkpt lat="46.0263430" lon="10.3654710">
	<ele>885.80</ele>
	<time>2024-07-24T11:47:18.000Z</time>
</trkpt>
<trkpt lat="46.0263430" lon="10.3654710">
	<ele>885.80</ele>
	<time>2024-07-24T11:47:19.000Z</time>
</trkpt>
<trkpt lat="46.0263430" lon="10.3654710">
	<ele>885.80</ele>
	<time>2024-07-24T11:47:20.000Z</time>
</trkpt>
<trkpt lat="46.0263430" lon="10.3654710">
	<ele>885.60</ele>
	<time>2024-07-24T11:47:21.000Z</time>
</trkpt>
<trkpt lat="46.0263430" lon="10.3654710">
	<ele>885.60</ele>
	<time>2024-07-24T11:47:22.000Z</time>
</trkpt>
<trkpt lat="46.0263430" lon="10.3654720">
	<ele>885.60</ele>
	<time>2024-07-24T11:47:23.000Z</time>
</trkpt>
<trkpt lat="46.0263430" lon="10.3654720">
	<ele>885.60</ele>
	<time>2024-07-24T11:47:24.000Z</time>
</trkpt>
<trkpt lat="46.0263430" lon="10.3654740">
	<ele>885.60</ele>
	<time>2024-07-24T11:47:25.000Z</time>
</trkpt>
<trkpt lat="46.0263430" lon="10.3654740">
	<ele>885.60</ele>
	<time>2024-07-24T11:47:26.000Z</time>
</trkpt>
<trkpt lat="46.0263430" lon="10.3654740">
	<ele>885.60</ele>
	<time>2024-07-24T11:47:27.000Z</time>
</trkpt>
<trkpt lat="46.0263430" lon="10.3654750">
	<ele>885.60</ele>
	<time>2024-07-24T11:47:28.000Z</time>
</trkpt>
<trkpt lat="46.0263430" lon="10.3654750">
	<ele>885.60</ele>
	<time>2024-07-24T11:47:29.000Z</time>
</trkpt>
<trkpt lat="46.0263430" lon="10.3654750">
	<ele>885.60</ele>
	<time>2024-07-24T11:47:30.000Z</time>
</trkpt>
<trkpt lat="46.0263430" lon="10.3654750">
	<ele>886.80</ele>
	<time>2024-07-24T11:47:31.000Z</time>
</trkpt>
<trkpt lat="46.0263430" lon="10.3654750">
	<ele>886.80</ele>
	<time>2024-07-24T11:47:32.000Z</time>
</trkpt>
<trkpt lat="46.0263430" lon="10.3654750">
	<ele>886.80</ele>
	<time>2024-07-24T11:47:33.000Z</time>
</trkpt>
<trkpt lat="46.0263430" lon="10.3654750">
	<ele>886.80</ele>
	<time>2024-07-24T11:47:34.000Z</time>
</trkpt>
<trkpt lat="46.0263430" lon="10.3654750">
	<ele>886.80</ele>
	<time>2024-07-24T11:47:35.000Z</time>
</trkpt>
<trkpt lat="46.0263440" lon="10.3654760">
	<ele>886.80</ele>
	<time>2024-07-24T11:47:36.000Z</time>
</trkpt>
<trkpt lat="46.0263440" lon="10.3654760">
	<ele>886.80</ele>
	<time>2024-07-24T11:47:37.000Z</time>
</trkpt>
<trkpt lat="46.0263460" lon="10.3654760">
	<ele>886.80</ele>
	<time>2024-07-24T11:47:38.000Z</time>
</trkpt>
<trkpt lat="46.0263460" lon="10.3654760">
	<ele>886.80</ele>
	<time>2024-07-24T11:47:39.000Z</time>
</trkpt>
<trkpt lat="46.0263460" lon="10.3654770">
	<ele>886.80</ele>
	<time>2024-07-24T11:47:40.000Z</time>
</trkpt>
<trkpt lat="46.0263460" lon="10.3654770">
	<ele>886.80</ele>
	<time>2024-07-24T11:47:41.000Z</time>
</trkpt>
<trkpt lat="46.0263460" lon="10.3654770">
	<ele>886.80</ele>
	<time>2024-07-24T11:47:42.000Z</time>
</trkpt>
<trkpt lat="46.0263460" lon="10.3654770">
	<ele>886.80</ele>
	<time>2024-07-24T11:47:43.000Z</time>
</trkpt>
<trkpt lat="46.0263470" lon="10.3654770">
	<ele>886.80</ele>
	<time>2024-07-24T11:47:44.000Z</time>
</trkpt>
<trkpt lat="46.0263470" lon="10.3654770">
	<ele>886.80</ele>
	<time>2024-07-24T11:47:45.000Z</time>
</trkpt>
<trkpt lat="46.0263490" lon="10.3654790">
	<ele>886.80</ele>
	<time>2024-07-24T11:47:46.000Z</time>
</trkpt>
<trkpt lat="46.0263550" lon="10.3654870">
	<ele>886.80</ele>
	<time>2024-07-24T11:47:47.000Z</time>
</trkpt>
<trkpt lat="46.0263620" lon="10.3654940">
	<ele>886.80</ele>
	<time>2024-07-24T11:47:48.000Z</time>
</trkpt>
<trkpt lat="46.0263670" lon="10.3654980">
	<ele>886.80</ele>
	<time>2024-07-24T11:47:49.000Z</time>
</trkpt>
<trkpt lat="46.0263710" lon="10.3655010">
	<ele>886.80</ele>
	<time>2024-07-24T11:47:50.000Z</time>
</trkpt>
<trkpt lat="46.0263750" lon="10.3655040">
	<ele>886.80</ele>
	<time>2024-07-24T11:47:51.000Z</time>
</trkpt>
<trkpt lat="46.0263750" lon="10.3655040">
	<ele>886.80</ele>
	<time>2024-07-24T11:47:52.000Z</time>
</trkpt>
<trkpt lat="46.0263750" lon="10.3655040">
	<ele>886.80</ele>
	<time>2024-07-24T11:47:53.000Z</time>
</trkpt>
<trkpt lat="46.0263750" lon="10.3655040">
	<ele>886.80</ele>
	<time>2024-07-24T11:47:54.000Z</time>
</trkpt>
<trkpt lat="46.0263750" lon="10.3655040">
	<ele>886.80</ele>
	<time>2024-07-24T11:47:55.000Z</time>
</trkpt>
<trkpt lat="46.0263750" lon="10.3655040">
	<ele>886.80</ele>
	<time>2024-07-24T11:47:56.000Z</time>
</trkpt>
<trkpt lat="46.0263750" lon="10.3655040">
	<ele>886.80</ele>
	<time>2024-07-24T11:47:57.000Z</time>
</trkpt>
<trkpt lat="46.0263750" lon="10.3655040">
	<ele>886.80</ele>
	<time>2024-07-24T11:47:58.000Z</time>
</trkpt>
<trkpt lat="46.0263750" lon="10.3655040">
	<ele>886.80</ele>
	<time>2024-07-24T11:47:59.000Z</time>
</trkpt>
<trkpt lat="46.0263750" lon="10.3655040">
	<ele>886.80</ele>
	<time>2024-07-24T11:48:00.000Z</time>
</trkpt>
<trkpt lat="46.0263750" lon="10.3655040">
	<ele>886.80</ele>
	<time>2024-07-24T11:48:01.000Z</time>
</trkpt>
<trkpt lat="46.0263750" lon="10.3655050">
	<ele>886.80</ele>
	<time>2024-07-24T11:48:02.000Z</time>
</trkpt>
<trkpt lat="46.0263780" lon="10.3655060">
	<ele>886.80</ele>
	<time>2024-07-24T11:48:03.000Z</time>
</trkpt>
<trkpt lat="46.0263800" lon="10.3655060">
	<ele>886.80</ele>
	<time>2024-07-24T11:48:04.000Z</time>
</trkpt>
<trkpt lat="46.0263820" lon="10.3655060">
	<ele>886.80</ele>
	<time>2024-07-24T11:48:05.000Z</time>
</trkpt>
<trkpt lat="46.0263840" lon="10.3655060">
	<ele>886.80</ele>
	<time>2024-07-24T11:48:06.000Z</time>
</trkpt>
<trkpt lat="46.0263840" lon="10.3655060">
	<ele>886.80</ele>
	<time>2024-07-24T11:48:07.000Z</time>
</trkpt>
<trkpt lat="46.0263840" lon="10.3655060">
	<ele>886.80</ele>
	<time>2024-07-24T11:48:08.000Z</time>
</trkpt>
<trkpt lat="46.0263840" lon="10.3655060">
	<ele>886.80</ele>
	<time>2024-07-24T11:48:09.000Z</time>
</trkpt>
<trkpt lat="46.0263840" lon="10.3655060">
	<ele>886.80</ele>
	<time>2024-07-24T11:48:10.000Z</time>
</trkpt>
<trkpt lat="46.0263840" lon="10.3655060">
	<ele>886.80</ele>
	<time>2024-07-24T11:48:11.000Z</time>
</trkpt>
<trkpt lat="46.0263840" lon="10.3655060">
	<ele>886.80</ele>
	<time>2024-07-24T11:48:12.000Z</time>
</trkpt>
<trkpt lat="46.0263840" lon="10.3655060">
	<ele>886.80</ele>
	<time>2024-07-24T11:48:13.000Z</time>
</trkpt>
<trkpt lat="46.0263840" lon="10.3655060">
	<ele>886.80</ele>
	<time>2024-07-24T11:48:14.000Z</time>
</trkpt>
<trkpt lat="46.0263840" lon="10.3655060">
	<ele>886.80</ele>
	<time>2024-07-24T11:48:15.000Z</time>
</trkpt>
<trkpt lat="46.0263840" lon="10.3655060">
	<ele>886.80</ele>
	<time>2024-07-24T11:48:16.000Z</time>
</trkpt>
<trkpt lat="46.0263840" lon="10.3655070">
	<ele>886.80</ele>
	<time>2024-07-24T11:48:17.000Z</time>
</trkpt>
<trkpt lat="46.0263850" lon="10.3655070">
	<ele>886.80</ele>
	<time>2024-07-24T11:48:18.000Z</time>
</trkpt>
<trkpt lat="46.0263850" lon="10.3655070">
	<ele>886.80</ele>
	<time>2024-07-24T11:48:19.000Z</time>
</trkpt>
<trkpt lat="46.0263850" lon="10.3655070">
	<ele>886.80</ele>
	<time>2024-07-24T11:48:20.000Z</time>
</trkpt>
<trkpt lat="46.0263850" lon="10.3655070">
	<ele>886.80</ele>
	<time>2024-07-24T11:48:21.000Z</time>
</trkpt>
<trkpt lat="46.0263840" lon="10.3655070">
	<ele>886.80</ele>
	<time>2024-07-24T11:48:22.000Z</time>
</trkpt>
<trkpt lat="46.0263840" lon="10.3655070">
	<ele>886.80</ele>
	<time>2024-07-24T11:48:23.000Z</time>
</trkpt>
<trkpt lat="46.0263840" lon="10.3655070">
	<ele>886.80</ele>
	<time>2024-07-24T11:48:24.000Z</time>
</trkpt>
<trkpt lat="46.0263830" lon="10.3655060">
	<ele>886.80</ele>
	<time>2024-07-24T11:48:25.000Z</time>
</trkpt>
<trkpt lat="46.0263830" lon="10.3655060">
	<ele>886.80</ele>
	<time>2024-07-24T11:48:26.000Z</time>
</trkpt>
<trkpt lat="46.0263830" lon="10.3655050">
	<ele>886.80</ele>
	<time>2024-07-24T11:48:27.000Z</time>
</trkpt>
<trkpt lat="46.0263820" lon="10.3655050">
	<ele>886.80</ele>
	<time>2024-07-24T11:48:28.000Z</time>
</trkpt>
<trkpt lat="46.0263820" lon="10.3655040">
	<ele>886.80</ele>
	<time>2024-07-24T11:48:29.000Z</time>
</trkpt>
<trkpt lat="46.0263820" lon="10.3655040">
	<ele>886.80</ele>
	<time>2024-07-24T11:48:30.000Z</time>
</trkpt>
<trkpt lat="46.0263820" lon="10.3655030">
	<ele>886.80</ele>
	<time>2024-07-24T11:48:31.000Z</time>
</trkpt>
<trkpt lat="46.0263810" lon="10.3655020">
	<ele>886.80</ele>
	<time>2024-07-24T11:48:32.000Z</time>
</trkpt>
<trkpt lat="46.0263800" lon="10.3655010">
	<ele>886.80</ele>
	<time>2024-07-24T11:48:33.000Z</time>
</trkpt>
<trkpt lat="46.0263800" lon="10.3655000">
	<ele>886.80</ele>
	<time>2024-07-24T11:48:34.000Z</time>
</trkpt>
<trkpt lat="46.0263800" lon="10.3654990">
	<ele>886.80</ele>
	<time>2024-07-24T11:48:35.000Z</time>
</trkpt>
<trkpt lat="46.0263790" lon="10.3654990">
	<ele>886.80</ele>
	<time>2024-07-24T11:48:36.000Z</time>
</trkpt>
<trkpt lat="46.0263790" lon="10.3654990">
	<ele>886.80</ele>
	<time>2024-07-24T11:48:37.000Z</time>
</trkpt>
<trkpt lat="46.0263780" lon="10.3654990">
	<ele>886.80</ele>
	<time>2024-07-24T11:48:38.000Z</time>
</trkpt>
<trkpt lat="46.0263780" lon="10.3654990">
	<ele>886.80</ele>
	<time>2024-07-24T11:48:39.000Z</time>
</trkpt>
<trkpt lat="46.0263770" lon="10.3654990">
	<ele>886.80</ele>
	<time>2024-07-24T11:48:40.000Z</time>
</trkpt>
<trkpt lat="46.0263770" lon="10.3654990">
	<ele>886.80</ele>
	<time>2024-07-24T11:48:41.000Z</time>
</trkpt>
<trkpt lat="46.0263730" lon="10.3654990">
	<ele>886.80</ele>
	<time>2024-07-24T11:48:42.000Z</time>
</trkpt>
<trkpt lat="46.0263690" lon="10.3654950">
	<ele>886.80</ele>
	<time>2024-07-24T11:48:43.000Z</time>
</trkpt>
<trkpt lat="46.0263650" lon="10.3654950">
	<ele>886.80</ele>
	<time>2024-07-24T11:48:44.000Z</time>
</trkpt>
<trkpt lat="46.0263640" lon="10.3654940">
	<ele>886.80</ele>
	<time>2024-07-24T11:48:45.000Z</time>
</trkpt>
<trkpt lat="46.0263640" lon="10.3654940">
	<ele>886.80</ele>
	<time>2024-07-24T11:48:46.000Z</time>
</trkpt>
<trkpt lat="46.0263640" lon="10.3654940">
	<ele>886.80</ele>
	<time>2024-07-24T11:48:47.000Z</time>
</trkpt>
<trkpt lat="46.0263630" lon="10.3654940">
	<ele>886.80</ele>
	<time>2024-07-24T11:48:48.000Z</time>
</trkpt>
<trkpt lat="46.0263630" lon="10.3654930">
	<ele>886.80</ele>
	<time>2024-07-24T11:48:49.000Z</time>
</trkpt>
<trkpt lat="46.0263630" lon="10.3654930">
	<ele>886.80</ele>
	<time>2024-07-24T11:48:50.000Z</time>
</trkpt>
<trkpt lat="46.0263630" lon="10.3654930">
	<ele>886.80</ele>
	<time>2024-07-24T11:48:51.000Z</time>
</trkpt>
<trkpt lat="46.0263630" lon="10.3654930">
	<ele>886.80</ele>
	<time>2024-07-24T11:48:52.000Z</time>
</trkpt>
<trkpt lat="46.0263630" lon="10.3654920">
	<ele>886.80</ele>
	<time>2024-07-24T11:48:53.000Z</time>
</trkpt>
<trkpt lat="46.0263620" lon="10.3654910">
	<ele>886.80</ele>
	<time>2024-07-24T11:48:54.000Z</time>
</trkpt>
<trkpt lat="46.0263610" lon="10.3654900">
	<ele>886.80</ele>
	<time>2024-07-24T11:48:55.000Z</time>
</trkpt>
<trkpt lat="46.0263610" lon="10.3654900">
	<ele>886.80</ele>
	<time>2024-07-24T11:48:56.000Z</time>
</trkpt>
<trkpt lat="46.0263610" lon="10.3654900">
	<ele>886.80</ele>
	<time>2024-07-24T11:48:57.000Z</time>
</trkpt>
<trkpt lat="46.0263610" lon="10.3654900">
	<ele>886.80</ele>
	<time>2024-07-24T11:48:58.000Z</time>
</trkpt>
<trkpt lat="46.0263620" lon="10.3654900">
	<ele>886.80</ele>
	<time>2024-07-24T11:48:59.000Z</time>
</trkpt>
<trkpt lat="46.0263620" lon="10.3654900">
	<ele>886.80</ele>
	<time>2024-07-24T11:49:00.000Z</time>
</trkpt>
<trkpt lat="46.0263640" lon="10.3654920">
	<ele>886.80</ele>
	<time>2024-07-24T11:49:01.000Z</time>
</trkpt>
<trkpt lat="46.0263660" lon="10.3654960">
	<ele>886.80</ele>
	<time>2024-07-24T11:49:02.000Z</time>
</trkpt>
<trkpt lat="46.0263690" lon="10.3654990">
	<ele>886.80</ele>
	<time>2024-07-24T11:49:03.000Z</time>
</trkpt>
<trkpt lat="46.0263780" lon="10.3655060">
	<ele>886.80</ele>
	<time>2024-07-24T11:49:04.000Z</time>
</trkpt>
<trkpt lat="46.0263810" lon="10.3655090">
	<ele>886.80</ele>
	<time>2024-07-24T11:49:05.000Z</time>
</trkpt>
<trkpt lat="46.0263860" lon="10.3655110">
	<ele>886.80</ele>
	<time>2024-07-24T11:49:06.000Z</time>
</trkpt>
<trkpt lat="46.0263880" lon="10.3655100">
	<ele>886.80</ele>
	<time>2024-07-24T11:49:07.000Z</time>
</trkpt>
<trkpt lat="46.0263890" lon="10.3655100">
	<ele>886.80</ele>
	<time>2024-07-24T11:49:08.000Z</time>
</trkpt>
<trkpt lat="46.0263920" lon="10.3655180">
	<ele>886.80</ele>
	<time>2024-07-24T11:49:09.000Z</time>
</trkpt>
<trkpt lat="46.0263980" lon="10.3655250">
	<ele>886.80</ele>
	<time>2024-07-24T11:49:10.000Z</time>
</trkpt>
<trkpt lat="46.0263950" lon="10.3655230">
	<ele>886.80</ele>
	<time>2024-07-24T11:49:11.000Z</time>
</trkpt>
<trkpt lat="46.0263930" lon="10.3655220">
	<ele>886.80</ele>
	<time>2024-07-24T11:49:12.000Z</time>
</trkpt>
<trkpt lat="46.0263910" lon="10.3655230">
	<ele>886.80</ele>
	<time>2024-07-24T11:49:13.000Z</time>
</trkpt>
<trkpt lat="46.0263840" lon="10.3655200">
	<ele>886.80</ele>
	<time>2024-07-24T11:49:14.000Z</time>
</trkpt>
<trkpt lat="46.0263790" lon="10.3655160">
	<ele>886.80</ele>
	<time>2024-07-24T11:49:15.000Z</time>
</trkpt>
<trkpt lat="46.0263790" lon="10.3655160">
	<ele>886.80</ele>
	<time>2024-07-24T11:49:16.000Z</time>
</trkpt>
<trkpt lat="46.0263780" lon="10.3655150">
	<ele>886.80</ele>
	<time>2024-07-24T11:49:17.000Z</time>
</trkpt>
<trkpt lat="46.0263770" lon="10.3655140">
	<ele>886.80</ele>
	<time>2024-07-24T11:49:18.000Z</time>
</trkpt>
<trkpt lat="46.0263770" lon="10.3655170">
	<ele>886.80</ele>
	<time>2024-07-24T11:49:19.000Z</time>
</trkpt>
<trkpt lat="46.0263770" lon="10.3655170">
	<ele>886.80</ele>
	<time>2024-07-24T11:49:20.000Z</time>
</trkpt>
<trkpt lat="46.0263750" lon="10.3655150">
	<ele>886.80</ele>
	<time>2024-07-24T11:49:21.000Z</time>
</trkpt>
<trkpt lat="46.0263760" lon="10.3655160">
	<ele>886.80</ele>
	<time>2024-07-24T11:49:22.000Z</time>
</trkpt>
<trkpt lat="46.0263870" lon="10.3655260">
	<ele>886.80</ele>
	<time>2024-07-24T11:49:23.000Z</time>
</trkpt>
<trkpt lat="46.0263890" lon="10.3655280">
	<ele>886.80</ele>
	<time>2024-07-24T11:49:24.000Z</time>
</trkpt>
<trkpt lat="46.0263890" lon="10.3655280">
	<ele>886.80</ele>
	<time>2024-07-24T11:49:25.000Z</time>
</trkpt>
<trkpt lat="46.0263890" lon="10.3655280">
	<ele>886.80</ele>
	<time>2024-07-24T11:49:26.000Z</time>
</trkpt>
<trkpt lat="46.0263890" lon="10.3655280">
	<ele>886.80</ele>
	<time>2024-07-24T11:49:27.000Z</time>
</trkpt>
<trkpt lat="46.0263890" lon="10.3655280">
	<ele>886.80</ele>
	<time>2024-07-24T11:49:28.000Z</time>
</trkpt>
<trkpt lat="46.0263890" lon="10.3655280">
	<ele>886.80</ele>
	<time>2024-07-24T11:49:29.000Z</time>
</trkpt>
<trkpt lat="46.0263890" lon="10.3655280">
	<ele>886.80</ele>
	<time>2024-07-24T11:49:30.000Z</time>
</trkpt>
<trkpt lat="46.0263890" lon="10.3655280">
	<ele>886.80</ele>
	<time>2024-07-24T11:49:31.000Z</time>
</trkpt>
<trkpt lat="46.0263890" lon="10.3655280">
	<ele>886.80</ele>
	<time>2024-07-24T11:49:32.000Z</time>
</trkpt>
<trkpt lat="46.0263890" lon="10.3655280">
	<ele>886.80</ele>
	<time>2024-07-24T11:49:33.000Z</time>
</trkpt>
<trkpt lat="46.0263890" lon="10.3655280">
	<ele>886.80</ele>
	<time>2024-07-24T11:49:34.000Z</time>
</trkpt>
<trkpt lat="46.0263890" lon="10.3655280">
	<ele>886.80</ele>
	<time>2024-07-24T11:49:35.000Z</time>
</trkpt>
<trkpt lat="46.0263890" lon="10.3655280">
	<ele>886.80</ele>
	<time>2024-07-24T11:49:36.000Z</time>
</trkpt>
<trkpt lat="46.0263890" lon="10.3655280">
	<ele>886.80</ele>
	<time>2024-07-24T11:49:37.000Z</time>
</trkpt>
<trkpt lat="46.0263890" lon="10.3655280">
	<ele>886.80</ele>
	<time>2024-07-24T11:49:38.000Z</time>
</trkpt>
<trkpt lat="46.0263890" lon="10.3655280">
	<ele>886.80</ele>
	<time>2024-07-24T11:49:39.000Z</time>
</trkpt>
<trkpt lat="46.0263890" lon="10.3655280">
	<ele>886.80</ele>
	<time>2024-07-24T11:49:40.000Z</time>
</trkpt>
<trkpt lat="46.0263890" lon="10.3655280">
	<ele>886.80</ele>
	<time>2024-07-24T11:49:41.000Z</time>
</trkpt>
<trkpt lat="46.0263890" lon="10.3655270">
	<ele>886.80</ele>
	<time>2024-07-24T11:49:42.000Z</time>
</trkpt>
<trkpt lat="46.0263890" lon="10.3655270">
	<ele>886.80</ele>
	<time>2024-07-24T11:49:43.000Z</time>
</trkpt>
<trkpt lat="46.0263890" lon="10.3655260">
	<ele>886.80</ele>
	<time>2024-07-24T11:49:44.000Z</time>
</trkpt>
<trkpt lat="46.0263880" lon="10.3655260">
	<ele>886.80</ele>
	<time>2024-07-24T11:49:45.000Z</time>
</trkpt>
<trkpt lat="46.0263880" lon="10.3655260">
	<ele>886.80</ele>
	<time>2024-07-24T11:49:46.000Z</time>
</trkpt>
<trkpt lat="46.0263880" lon="10.3655260">
	<ele>886.80</ele>
	<time>2024-07-24T11:49:47.000Z</time>
</trkpt>
<trkpt lat="46.0263880" lon="10.3655260">
	<ele>886.80</ele>
	<time>2024-07-24T11:49:48.000Z</time>
</trkpt>
<trkpt lat="46.0263880" lon="10.3655260">
	<ele>886.80</ele>
	<time>2024-07-24T11:49:49.000Z</time>
</trkpt>
<trkpt lat="46.0263880" lon="10.3655260">
	<ele>886.80</ele>
	<time>2024-07-24T11:49:50.000Z</time>
</trkpt>
<trkpt lat="46.0263880" lon="10.3655260">
	<ele>886.80</ele>
	<time>2024-07-24T11:49:51.000Z</time>
</trkpt>
<trkpt lat="46.0263880" lon="10.3655260">
	<ele>886.80</ele>
	<time>2024-07-24T11:49:52.000Z</time>
</trkpt>
<trkpt lat="46.0263880" lon="10.3655260">
	<ele>886.80</ele>
	<time>2024-07-24T11:49:53.000Z</time>
</trkpt>
<trkpt lat="46.0263880" lon="10.3655260">
	<ele>886.80</ele>
	<time>2024-07-24T11:49:54.000Z</time>
</trkpt>
<trkpt lat="46.0263870" lon="10.3655260">
	<ele>886.80</ele>
	<time>2024-07-24T11:49:55.000Z</time>
</trkpt>
<trkpt lat="46.0263870" lon="10.3655260">
	<ele>886.80</ele>
	<time>2024-07-24T11:49:56.000Z</time>
</trkpt>
<trkpt lat="46.0263860" lon="10.3655260">
	<ele>886.80</ele>
	<time>2024-07-24T11:49:57.000Z</time>
</trkpt>
<trkpt lat="46.0263860" lon="10.3655260">
	<ele>886.80</ele>
	<time>2024-07-24T11:49:58.000Z</time>
</trkpt>
<trkpt lat="46.0263860" lon="10.3655260">
	<ele>886.80</ele>
	<time>2024-07-24T11:49:59.000Z</time>
</trkpt>
<trkpt lat="46.0263860" lon="10.3655250">
	<ele>886.80</ele>
	<time>2024-07-24T11:50:00.000Z</time>
</trkpt>
<trkpt lat="46.0263850" lon="10.3655220">
	<ele>886.80</ele>
	<time>2024-07-24T11:50:01.000Z</time>
</trkpt>
<trkpt lat="46.0263820" lon="10.3655210">
	<ele>886.80</ele>
	<time>2024-07-24T11:50:02.000Z</time>
</trkpt>
<trkpt lat="46.0263810" lon="10.3655210">
	<ele>886.80</ele>
	<time>2024-07-24T11:50:03.000Z</time>
</trkpt>
<trkpt lat="46.0263810" lon="10.3655210">
	<ele>886.80</ele>
	<time>2024-07-24T11:50:04.000Z</time>
</trkpt>
<trkpt lat="46.0263810" lon="10.3655210">
	<ele>886.80</ele>
	<time>2024-07-24T11:50:05.000Z</time>
</trkpt>
<trkpt lat="46.0263800" lon="10.3655210">
	<ele>886.80</ele>
	<time>2024-07-24T11:50:06.000Z</time>
</trkpt>
<trkpt lat="46.0263800" lon="10.3655210">
	<ele>886.80</ele>
	<time>2024-07-24T11:50:07.000Z</time>
</trkpt>
<trkpt lat="46.0263800" lon="10.3655210">
	<ele>886.80</ele>
	<time>2024-07-24T11:50:08.000Z</time>
</trkpt>
<trkpt lat="46.0263800" lon="10.3655210">
	<ele>886.80</ele>
	<time>2024-07-24T11:50:09.000Z</time>
</trkpt>
<trkpt lat="46.0263800" lon="10.3655200">
	<ele>886.80</ele>
	<time>2024-07-24T11:50:10.000Z</time>
</trkpt>
<trkpt lat="46.0263790" lon="10.3655180">
	<ele>886.80</ele>
	<time>2024-07-24T11:50:11.000Z</time>
</trkpt>
<trkpt lat="46.0263780" lon="10.3655180">
	<ele>886.80</ele>
	<time>2024-07-24T11:50:12.000Z</time>
</trkpt>
<trkpt lat="46.0263780" lon="10.3655180">
	<ele>886.80</ele>
	<time>2024-07-24T11:50:13.000Z</time>
</trkpt>
<trkpt lat="46.0263770" lon="10.3655180">
	<ele>886.80</ele>
	<time>2024-07-24T11:50:14.000Z</time>
</trkpt>
<trkpt lat="46.0263770" lon="10.3655180">
	<ele>886.80</ele>
	<time>2024-07-24T11:50:15.000Z</time>
</trkpt>
<trkpt lat="46.0263770" lon="10.3655180">
	<ele>886.80</ele>
	<time>2024-07-24T11:50:16.000Z</time>
</trkpt>
<trkpt lat="46.0263770" lon="10.3655180">
	<ele>886.80</ele>
	<time>2024-07-24T11:50:17.000Z</time>
</trkpt>
<trkpt lat="46.0263770" lon="10.3655190">
	<ele>886.80</ele>
	<time>2024-07-24T11:50:18.000Z</time>
</trkpt>
<trkpt lat="46.0263770" lon="10.3655190">
	<ele>886.80</ele>
	<time>2024-07-24T11:50:19.000Z</time>
</trkpt>
<trkpt lat="46.0263750" lon="10.3655180">
	<ele>886.80</ele>
	<time>2024-07-24T11:50:20.000Z</time>
</trkpt>
<trkpt lat="46.0263670" lon="10.3655130">
	<ele>886.80</ele>
	<time>2024-07-24T11:50:21.000Z</time>
</trkpt>
<trkpt lat="46.0263650" lon="10.3655110">
	<ele>886.80</ele>
	<time>2024-07-24T11:50:22.000Z</time>
</trkpt>
<trkpt lat="46.0263610" lon="10.3655100">
	<ele>886.80</ele>
	<time>2024-07-24T11:50:23.000Z</time>
</trkpt>
<trkpt lat="46.0263570" lon="10.3655070">
	<ele>886.80</ele>
	<time>2024-07-24T11:50:24.000Z</time>
</trkpt>
<trkpt lat="46.0263550" lon="10.3655060">
	<ele>886.80</ele>
	<time>2024-07-24T11:50:25.000Z</time>
</trkpt>
<trkpt lat="46.0263510" lon="10.3655040">
	<ele>886.80</ele>
	<time>2024-07-24T11:50:26.000Z</time>
</trkpt>
<trkpt lat="46.0263470" lon="10.3655050">
	<ele>886.80</ele>
	<time>2024-07-24T11:50:27.000Z</time>
</trkpt>
<trkpt lat="46.0263440" lon="10.3655040">
	<ele>886.80</ele>
	<time>2024-07-24T11:50:28.000Z</time>
</trkpt>
<trkpt lat="46.0263410" lon="10.3655030">
	<ele>886.80</ele>
	<time>2024-07-24T11:50:29.000Z</time>
</trkpt>
<trkpt lat="46.0263420" lon="10.3655040">
	<ele>886.80</ele>
	<time>2024-07-24T11:50:30.000Z</time>
</trkpt>
<trkpt lat="46.0263420" lon="10.3655040">
	<ele>886.80</ele>
	<time>2024-07-24T11:50:31.000Z</time>
</trkpt>
<trkpt lat="46.0263420" lon="10.3655040">
	<ele>886.80</ele>
	<time>2024-07-24T11:50:32.000Z</time>
</trkpt>
<trkpt lat="46.0263420" lon="10.3655040">
	<ele>886.80</ele>
	<time>2024-07-24T11:50:33.000Z</time>
</trkpt>
<trkpt lat="46.0263420" lon="10.3655040">
	<ele>886.80</ele>
	<time>2024-07-24T11:50:34.000Z</time>
</trkpt>
<trkpt lat="46.0263420" lon="10.3655040">
	<ele>886.80</ele>
	<time>2024-07-24T11:50:35.000Z</time>
</trkpt>
<trkpt lat="46.0263420" lon="10.3655040">
	<ele>886.80</ele>
	<time>2024-07-24T11:50:36.000Z</time>
</trkpt>
<trkpt lat="46.0263420" lon="10.3655040">
	<ele>886.80</ele>
	<time>2024-07-24T11:50:37.000Z</time>
</trkpt>
<trkpt lat="46.0263420" lon="10.3655040">
	<ele>886.80</ele>
	<time>2024-07-24T11:50:38.000Z</time>
</trkpt>
<trkpt lat="46.0263420" lon="10.3655040">
	<ele>886.80</ele>
	<time>2024-07-24T11:50:39.000Z</time>
</trkpt>
<trkpt lat="46.0263420" lon="10.3655040">
	<ele>886.80</ele>
	<time>2024-07-24T11:50:40.000Z</time>
</trkpt>
<trkpt lat="46.0263420" lon="10.3655040">
	<ele>886.80</ele>
	<time>2024-07-24T11:50:41.000Z</time>
</trkpt>
<trkpt lat="46.0263420" lon="10.3655040">
	<ele>886.80</ele>
	<time>2024-07-24T11:50:42.000Z</time>
</trkpt>
<trkpt lat="46.0263420" lon="10.3655040">
	<ele>886.80</ele>
	<time>2024-07-24T11:50:43.000Z</time>
</trkpt>
<trkpt lat="46.0263430" lon="10.3655040">
	<ele>886.80</ele>
	<time>2024-07-24T11:50:44.000Z</time>
</trkpt>
<trkpt lat="46.0263440" lon="10.3655040">
	<ele>886.80</ele>
	<time>2024-07-24T11:50:45.000Z</time>
</trkpt>
<trkpt lat="46.0263450" lon="10.3655040">
	<ele>886.80</ele>
	<time>2024-07-24T11:50:46.000Z</time>
</trkpt>
<trkpt lat="46.0263450" lon="10.3655040">
	<ele>886.80</ele>
	<time>2024-07-24T11:50:47.000Z</time>
</trkpt>
<trkpt lat="46.0263470" lon="10.3655040">
	<ele>886.80</ele>
	<time>2024-07-24T11:50:48.000Z</time>
</trkpt>
<trkpt lat="46.0263470" lon="10.3655040">
	<ele>886.80</ele>
	<time>2024-07-24T11:50:49.000Z</time>
</trkpt>
<trkpt lat="46.0263490" lon="10.3655040">
	<ele>886.80</ele>
	<time>2024-07-24T11:50:50.000Z</time>
</trkpt>
<trkpt lat="46.0263500" lon="10.3655030">
	<ele>886.80</ele>
	<time>2024-07-24T11:50:51.000Z</time>
</trkpt>
<trkpt lat="46.0263490" lon="10.3655030">
	<ele>886.80</ele>
	<time>2024-07-24T11:50:52.000Z</time>
</trkpt>
<trkpt lat="46.0263470" lon="10.3655030">
	<ele>886.80</ele>
	<time>2024-07-24T11:50:53.000Z</time>
</trkpt>
<trkpt lat="46.0263480" lon="10.3655030">
	<ele>886.80</ele>
	<time>2024-07-24T11:50:54.000Z</time>
</trkpt>
<trkpt lat="46.0263490" lon="10.3655030">
	<ele>886.80</ele>
	<time>2024-07-24T11:50:55.000Z</time>
</trkpt>
<trkpt lat="46.0263490" lon="10.3655030">
	<ele>886.80</ele>
	<time>2024-07-24T11:50:56.000Z</time>
</trkpt>
<trkpt lat="46.0263510" lon="10.3655030">
	<ele>886.80</ele>
	<time>2024-07-24T11:50:57.000Z</time>
</trkpt>
<trkpt lat="46.0263510" lon="10.3655030">
	<ele>886.80</ele>
	<time>2024-07-24T11:50:58.000Z</time>
</trkpt>
<trkpt lat="46.0263520" lon="10.3655040">
	<ele>886.80</ele>
	<time>2024-07-24T11:50:59.000Z</time>
</trkpt>
<trkpt lat="46.0263520" lon="10.3655040">
	<ele>886.80</ele>
	<time>2024-07-24T11:51:00.000Z</time>
</trkpt>
<trkpt lat="46.0263530" lon="10.3655040">
	<ele>886.80</ele>
	<time>2024-07-24T11:51:01.000Z</time>
</trkpt>
<trkpt lat="46.0263540" lon="10.3655050">
	<ele>886.80</ele>
	<time>2024-07-24T11:51:02.000Z</time>
</trkpt>
<trkpt lat="46.0263540" lon="10.3655050">
	<ele>886.80</ele>
	<time>2024-07-24T11:51:03.000Z</time>
</trkpt>
<trkpt lat="46.0263540" lon="10.3655050">
	<ele>886.80</ele>
	<time>2024-07-24T11:51:04.000Z</time>
</trkpt>
<trkpt lat="46.0263550" lon="10.3655050">
	<ele>886.80</ele>
	<time>2024-07-24T11:51:05.000Z</time>
</trkpt>
<trkpt lat="46.0263560" lon="10.3655050">
	<ele>886.80</ele>
	<time>2024-07-24T11:51:06.000Z</time>
</trkpt>
<trkpt lat="46.0263570" lon="10.3655060">
	<ele>886.80</ele>
	<time>2024-07-24T11:51:07.000Z</time>
</trkpt>
<trkpt lat="46.0263590" lon="10.3655060">
	<ele>886.80</ele>
	<time>2024-07-24T11:51:08.000Z</time>
</trkpt>
<trkpt lat="46.0263590" lon="10.3655070">
	<ele>886.80</ele>
	<time>2024-07-24T11:51:09.000Z</time>
</trkpt>
<trkpt lat="46.0263610" lon="10.3655070">
	<ele>886.80</ele>
	<time>2024-07-24T11:51:10.000Z</time>
</trkpt>
<trkpt lat="46.0263620" lon="10.3655070">
	<ele>886.80</ele>
	<time>2024-07-24T11:51:11.000Z</time>
</trkpt>
<trkpt lat="46.0263630" lon="10.3655070">
	<ele>886.80</ele>
	<time>2024-07-24T11:51:12.000Z</time>
</trkpt>
<trkpt lat="46.0263630" lon="10.3655070">
	<ele>886.80</ele>
	<time>2024-07-24T11:51:13.000Z</time>
</trkpt>
<trkpt lat="46.0263640" lon="10.3655070">
	<ele>886.80</ele>
	<time>2024-07-24T11:51:14.000Z</time>
</trkpt>
<trkpt lat="46.0263640" lon="10.3655080">
	<ele>886.80</ele>
	<time>2024-07-24T11:51:15.000Z</time>
</trkpt>
<trkpt lat="46.0263660" lon="10.3655090">
	<ele>886.80</ele>
	<time>2024-07-24T11:51:16.000Z</time>
</trkpt>
<trkpt lat="46.0263670" lon="10.3655100">
	<ele>886.80</ele>
	<time>2024-07-24T11:51:17.000Z</time>
</trkpt>
<trkpt lat="46.0263670" lon="10.3655110">
	<ele>886.80</ele>
	<time>2024-07-24T11:51:18.000Z</time>
</trkpt>
<trkpt lat="46.0263680" lon="10.3655110">
	<ele>886.80</ele>
	<time>2024-07-24T11:51:19.000Z</time>
</trkpt>
<trkpt lat="46.0263690" lon="10.3655120">
	<ele>886.80</ele>
	<time>2024-07-24T11:51:20.000Z</time>
</trkpt>
<trkpt lat="46.0263690" lon="10.3655130">
	<ele>886.80</ele>
	<time>2024-07-24T11:51:21.000Z</time>
</trkpt>
<trkpt lat="46.0263720" lon="10.3655180">
	<ele>886.80</ele>
	<time>2024-07-24T11:51:22.000Z</time>
</trkpt>
<trkpt lat="46.0263770" lon="10.3655240">
	<ele>886.80</ele>
	<time>2024-07-24T11:51:23.000Z</time>
</trkpt>
<trkpt lat="46.0263810" lon="10.3655280">
	<ele>886.80</ele>
	<time>2024-07-24T11:51:24.000Z</time>
</trkpt>
<trkpt lat="46.0263860" lon="10.3655310">
	<ele>886.80</ele>
	<time>2024-07-24T11:51:25.000Z</time>
</trkpt>
<trkpt lat="46.0263890" lon="10.3655340">
	<ele>886.80</ele>
	<time>2024-07-24T11:51:26.000Z</time>
</trkpt>
<trkpt lat="46.0263900" lon="10.3655350">
	<ele>886.80</ele>
	<time>2024-07-24T11:51:27.000Z</time>
</trkpt>
<trkpt lat="46.0263900" lon="10.3655350">
	<ele>886.80</ele>
	<time>2024-07-24T11:51:28.000Z</time>
</trkpt>
<trkpt lat="46.0263900" lon="10.3655350">
	<ele>886.80</ele>
	<time>2024-07-24T11:51:29.000Z</time>
</trkpt>
<trkpt lat="46.0263900" lon="10.3655350">
	<ele>886.80</ele>
	<time>2024-07-24T11:51:30.000Z</time>
</trkpt>
<trkpt lat="46.0263900" lon="10.3655360">
	<ele>886.80</ele>
	<time>2024-07-24T11:51:31.000Z</time>
</trkpt>
<trkpt lat="46.0263900" lon="10.3655360">
	<ele>886.80</ele>
	<time>2024-07-24T11:51:32.000Z</time>
</trkpt>
<trkpt lat="46.0263900" lon="10.3655360">
	<ele>886.80</ele>
	<time>2024-07-24T11:51:33.000Z</time>
</trkpt>
<trkpt lat="46.0263910" lon="10.3655360">
	<ele>886.80</ele>
	<time>2024-07-24T11:51:34.000Z</time>
</trkpt>
<trkpt lat="46.0263910" lon="10.3655360">
	<ele>886.80</ele>
	<time>2024-07-24T11:51:35.000Z</time>
</trkpt>
<trkpt lat="46.0263910" lon="10.3655360">
	<ele>886.80</ele>
	<time>2024-07-24T11:51:36.000Z</time>
</trkpt>
<trkpt lat="46.0263910" lon="10.3655360">
	<ele>886.80</ele>
	<time>2024-07-24T11:51:37.000Z</time>
</trkpt>
<trkpt lat="46.0263910" lon="10.3655360">
	<ele>886.80</ele>
	<time>2024-07-24T11:51:38.000Z</time>
</trkpt>
<trkpt lat="46.0263910" lon="10.3655360">
	<ele>886.80</ele>
	<time>2024-07-24T11:51:39.000Z</time>
</trkpt>
<trkpt lat="46.0263910" lon="10.3655360">
	<ele>886.80</ele>
	<time>2024-07-24T11:51:40.000Z</time>
</trkpt>
<trkpt lat="46.0263910" lon="10.3655360">
	<ele>886.80</ele>
	<time>2024-07-24T11:51:41.000Z</time>
</trkpt>
<trkpt lat="46.0263910" lon="10.3655360">
	<ele>886.80</ele>
	<time>2024-07-24T11:51:42.000Z</time>
</trkpt>
<trkpt lat="46.0263900" lon="10.3655360">
	<ele>886.80</ele>
	<time>2024-07-24T11:51:43.000Z</time>
</trkpt>
<trkpt lat="46.0263900" lon="10.3655360">
	<ele>886.80</ele>
	<time>2024-07-24T11:51:44.000Z</time>
</trkpt>
<trkpt lat="46.0263900" lon="10.3655360">
	<ele>886.80</ele>
	<time>2024-07-24T11:51:45.000Z</time>
</trkpt>
<trkpt lat="46.0263890" lon="10.3655360">
	<ele>886.80</ele>
	<time>2024-07-24T11:51:46.000Z</time>
</trkpt>
<trkpt lat="46.0263890" lon="10.3655350">
	<ele>886.80</ele>
	<time>2024-07-24T11:51:47.000Z</time>
</trkpt>
<trkpt lat="46.0263890" lon="10.3655350">
	<ele>886.80</ele>
	<time>2024-07-24T11:51:48.000Z</time>
</trkpt>
<trkpt lat="46.0263890" lon="10.3655350">
	<ele>886.80</ele>
	<time>2024-07-24T11:51:49.000Z</time>
</trkpt>
<trkpt lat="46.0263890" lon="10.3655330">
	<ele>886.80</ele>
	<time>2024-07-24T11:51:50.000Z</time>
</trkpt>
<trkpt lat="46.0263890" lon="10.3655320">
	<ele>886.80</ele>
	<time>2024-07-24T11:51:51.000Z</time>
</trkpt>
<trkpt lat="46.0263890" lon="10.3655320">
	<ele>886.80</ele>
	<time>2024-07-24T11:51:52.000Z</time>
</trkpt>
<trkpt lat="46.0263890" lon="10.3655310">
	<ele>886.80</ele>
	<time>2024-07-24T11:51:53.000Z</time>
</trkpt>
<trkpt lat="46.0263890" lon="10.3655310">
	<ele>886.80</ele>
	<time>2024-07-24T11:51:54.000Z</time>
</trkpt>
<trkpt lat="46.0263890" lon="10.3655310">
	<ele>886.80</ele>
	<time>2024-07-24T11:51:55.000Z</time>
</trkpt>
<trkpt lat="46.0263890" lon="10.3655310">
	<ele>886.80</ele>
	<time>2024-07-24T11:51:56.000Z</time>
</trkpt>
<trkpt lat="46.0263890" lon="10.3655310">
	<ele>886.80</ele>
	<time>2024-07-24T11:51:57.000Z</time>
</trkpt>
<trkpt lat="46.0263890" lon="10.3655310">
	<ele>886.80</ele>
	<time>2024-07-24T11:51:58.000Z</time>
</trkpt>
<trkpt lat="46.0263890" lon="10.3655310">
	<ele>886.80</ele>
	<time>2024-07-24T11:51:59.000Z</time>
</trkpt>
<trkpt lat="46.0263900" lon="10.3655310">
	<ele>886.80</ele>
	<time>2024-07-24T11:52:00.000Z</time>
</trkpt>
<trkpt lat="46.0263900" lon="10.3655310">
	<ele>886.80</ele>
	<time>2024-07-24T11:52:01.000Z</time>
</trkpt>
<trkpt lat="46.0263910" lon="10.3655310">
	<ele>886.80</ele>
	<time>2024-07-24T11:52:02.000Z</time>
</trkpt>
<trkpt lat="46.0263920" lon="10.3655310">
	<ele>886.80</ele>
	<time>2024-07-24T11:52:03.000Z</time>
</trkpt>
<trkpt lat="46.0263930" lon="10.3655310">
	<ele>886.80</ele>
	<time>2024-07-24T11:52:04.000Z</time>
</trkpt>
<trkpt lat="46.0263930" lon="10.3655320">
	<ele>886.80</ele>
	<time>2024-07-24T11:52:05.000Z</time>
</trkpt>
<trkpt lat="46.0263940" lon="10.3655340">
	<ele>886.80</ele>
	<time>2024-07-24T11:52:06.000Z</time>
</trkpt>
<trkpt lat="46.0263970" lon="10.3655360">
	<ele>886.80</ele>
	<time>2024-07-24T11:52:07.000Z</time>
</trkpt>
<trkpt lat="46.0263990" lon="10.3655370">
	<ele>886.80</ele>
	<time>2024-07-24T11:52:08.000Z</time>
</trkpt>
<trkpt lat="46.0264000" lon="10.3655380">
	<ele>886.80</ele>
	<time>2024-07-24T11:52:09.000Z</time>
</trkpt>
<trkpt lat="46.0264020" lon="10.3655380">
	<ele>886.80</ele>
	<time>2024-07-24T11:52:10.000Z</time>
</trkpt>
<trkpt lat="46.0264050" lon="10.3655390">
	<ele>886.80</ele>
	<time>2024-07-24T11:52:11.000Z</time>
</trkpt>
<trkpt lat="46.0264070" lon="10.3655390">
	<ele>886.80</ele>
	<time>2024-07-24T11:52:12.000Z</time>
</trkpt>
<trkpt lat="46.0264100" lon="10.3655390">
	<ele>886.80</ele>
	<time>2024-07-24T11:52:13.000Z</time>
</trkpt>
<trkpt lat="46.0264130" lon="10.3655400">
	<ele>886.80</ele>
	<time>2024-07-24T11:52:14.000Z</time>
</trkpt>
<trkpt lat="46.0264160" lon="10.3655400">
	<ele>886.80</ele>
	<time>2024-07-24T11:52:15.000Z</time>
</trkpt>
<trkpt lat="46.0264180" lon="10.3655400">
	<ele>886.80</ele>
	<time>2024-07-24T11:52:16.000Z</time>
</trkpt>
<trkpt lat="46.0264200" lon="10.3655410">
	<ele>886.80</ele>
	<time>2024-07-24T11:52:17.000Z</time>
</trkpt>
<trkpt lat="46.0264220" lon="10.3655410">
	<ele>886.80</ele>
	<time>2024-07-24T11:52:18.000Z</time>
</trkpt>
<trkpt lat="46.0264230" lon="10.3655410">
	<ele>886.80</ele>
	<time>2024-07-24T11:52:19.000Z</time>
</trkpt>
<trkpt lat="46.0264270" lon="10.3655370">
	<ele>886.80</ele>
	<time>2024-07-24T11:52:20.000Z</time>
</trkpt>
<trkpt lat="46.0264370" lon="10.3655270">
	<ele>886.80</ele>
	<time>2024-07-24T11:52:21.000Z</time>
</trkpt>
<trkpt lat="46.0264450" lon="10.3655160">
	<ele>886.80</ele>
	<time>2024-07-24T11:52:22.000Z</time>
</trkpt>
<trkpt lat="46.0264470" lon="10.3655000">
	<ele>886.80</ele>
	<time>2024-07-24T11:52:23.000Z</time>
</trkpt>
<trkpt lat="46.0264530" lon="10.3654860">
	<ele>886.80</ele>
	<time>2024-07-24T11:52:24.000Z</time>
</trkpt>
<trkpt lat="46.0264640" lon="10.3654770">
	<ele>886.80</ele>
	<time>2024-07-24T11:52:25.000Z</time>
</trkpt>
<trkpt lat="46.0264730" lon="10.3654720">
	<ele>886.80</ele>
	<time>2024-07-24T11:52:26.000Z</time>
</trkpt>
<trkpt lat="46.0264840" lon="10.3654700">
	<ele>886.80</ele>
	<time>2024-07-24T11:52:27.000Z</time>
</trkpt>
<trkpt lat="46.0264990" lon="10.3654690">
	<ele>886.80</ele>
	<time>2024-07-24T11:52:28.000Z</time>
</trkpt>
<trkpt lat="46.0265130" lon="10.3654660">
	<ele>886.80</ele>
	<time>2024-07-24T11:52:29.000Z</time>
</trkpt>
<trkpt lat="46.0265110" lon="10.3654570">
	<ele>886.80</ele>
	<time>2024-07-24T11:52:30.000Z</time>
</trkpt>
<trkpt lat="46.0265100" lon="10.3654530">
	<ele>887.60</ele>
	<time>2024-07-24T11:52:31.000Z</time>
</trkpt>
<trkpt lat="46.0265100" lon="10.3654510">
	<ele>888.20</ele>
	<time>2024-07-24T11:52:32.000Z</time>
</trkpt>
<trkpt lat="46.0265100" lon="10.3654530">
	<ele>888.40</ele>
	<time>2024-07-24T11:52:33.000Z</time>
</trkpt>
<trkpt lat="46.0265100" lon="10.3654520">
	<ele>888.60</ele>
	<time>2024-07-24T11:52:34.000Z</time>
</trkpt>
<trkpt lat="46.0265100" lon="10.3654540">
	<ele>888.80</ele>
	<time>2024-07-24T11:52:35.000Z</time>
</trkpt>
<trkpt lat="46.0265140" lon="10.3654710">
	<ele>888.80</ele>
	<time>2024-07-24T11:52:36.000Z</time>
</trkpt>
<trkpt lat="46.0265170" lon="10.3654780">
	<ele>888.80</ele>
	<time>2024-07-24T11:52:37.000Z</time>
</trkpt>
<trkpt lat="46.0265200" lon="10.3654800">
	<ele>888.80</ele>
	<time>2024-07-24T11:52:38.000Z</time>
</trkpt>
<trkpt lat="46.0265240" lon="10.3654760">
	<ele>888.80</ele>
	<time>2024-07-24T11:52:39.000Z</time>
</trkpt>
<trkpt lat="46.0265250" lon="10.3654770">
	<ele>888.80</ele>
	<time>2024-07-24T11:52:40.000Z</time>
</trkpt>
<trkpt lat="46.0265270" lon="10.3654770">
	<ele>888.80</ele>
	<time>2024-07-24T11:52:41.000Z</time>
</trkpt>
<trkpt lat="46.0265280" lon="10.3654890">
	<ele>888.40</ele>
	<time>2024-07-24T11:52:42.000Z</time>
</trkpt>
<trkpt lat="46.0265220" lon="10.3654980">
	<ele>888.40</ele>
	<time>2024-07-24T11:52:43.000Z</time>
</trkpt>
<trkpt lat="46.0265150" lon="10.3655060">
	<ele>888.20</ele>
	<time>2024-07-24T11:52:44.000Z</time>
</trkpt>
<trkpt lat="46.0265090" lon="10.3655020">
	<ele>888.20</ele>
	<time>2024-07-24T11:52:45.000Z</time>
</trkpt>
<trkpt lat="46.0265020" lon="10.3655030">
	<ele>888.00</ele>
	<time>2024-07-24T11:52:46.000Z</time>
</trkpt>
<trkpt lat="46.0264970" lon="10.3655020">
	<ele>888.00</ele>
	<time>2024-07-24T11:52:47.000Z</time>
</trkpt>
<trkpt lat="46.0264960" lon="10.3655010">
	<ele>888.00</ele>
	<time>2024-07-24T11:52:48.000Z</time>
</trkpt>
<trkpt lat="46.0264880" lon="10.3654940">
	<ele>888.00</ele>
	<time>2024-07-24T11:52:49.000Z</time>
</trkpt>
<trkpt lat="46.0264810" lon="10.3654940">
	<ele>888.20</ele>
	<time>2024-07-24T11:52:50.000Z</time>
</trkpt>
<trkpt lat="46.0264710" lon="10.3654870">
	<ele>888.20</ele>
	<time>2024-07-24T11:52:51.000Z</time>
</trkpt>
<trkpt lat="46.0264650" lon="10.3654770">
	<ele>888.20</ele>
	<time>2024-07-24T11:52:52.000Z</time>
</trkpt>
<trkpt lat="46.0264620" lon="10.3654720">
	<ele>888.20</ele>
	<time>2024-07-24T11:52:53.000Z</time>
</trkpt>
<trkpt lat="46.0264640" lon="10.3654700">
	<ele>888.20</ele>
	<time>2024-07-24T11:52:54.000Z</time>
</trkpt>
<trkpt lat="46.0264640" lon="10.3654570">
	<ele>888.40</ele>
	<time>2024-07-24T11:52:55.000Z</time>
</trkpt>
<trkpt lat="46.0264590" lon="10.3654360">
	<ele>888.40</ele>
	<time>2024-07-24T11:52:56.000Z</time>
</trkpt>
<trkpt lat="46.0264540" lon="10.3654230">
	<ele>888.20</ele>
	<time>2024-07-24T11:52:57.000Z</time>
</trkpt>
<trkpt lat="46.0264430" lon="10.3654090">
	<ele>887.60</ele>
	<time>2024-07-24T11:52:58.000Z</time>
</trkpt>
<trkpt lat="46.0264380" lon="10.3654090">
	<ele>887.20</ele>
	<time>2024-07-24T11:52:59.000Z</time>
</trkpt>
<trkpt lat="46.0264350" lon="10.3654120">
	<ele>887.00</ele>
	<time>2024-07-24T11:53:00.000Z</time>
</trkpt>
<trkpt lat="46.0264290" lon="10.3654140">
	<ele>886.80</ele>
	<time>2024-07-24T11:53:01.000Z</time>
</trkpt>
<trkpt lat="46.0264240" lon="10.3654170">
	<ele>886.60</ele>
	<time>2024-07-24T11:53:02.000Z</time>
</trkpt>
<trkpt lat="46.0264120" lon="10.3654050">
	<ele>886.60</ele>
	<time>2024-07-24T11:53:03.000Z</time>
</trkpt>
<trkpt lat="46.0264000" lon="10.3653940">
	<ele>886.40</ele>
	<time>2024-07-24T11:53:04.000Z</time>
</trkpt>
<trkpt lat="46.0263920" lon="10.3653890">
	<ele>886.40</ele>
	<time>2024-07-24T11:53:05.000Z</time>
</trkpt>
<trkpt lat="46.0263830" lon="10.3653850">
	<ele>886.20</ele>
	<time>2024-07-24T11:53:06.000Z</time>
</trkpt>
<trkpt lat="46.0263740" lon="10.3653720">
	<ele>886.00</ele>
	<time>2024-07-24T11:53:07.000Z</time>
</trkpt>
<trkpt lat="46.0263630" lon="10.3653610">
	<ele>885.60</ele>
	<time>2024-07-24T11:53:08.000Z</time>
</trkpt>
<trkpt lat="46.0263540" lon="10.3653560">
	<ele>885.40</ele>
	<time>2024-07-24T11:53:09.000Z</time>
</trkpt>
<trkpt lat="46.0263420" lon="10.3653500">
	<ele>885.20</ele>
	<time>2024-07-24T11:53:10.000Z</time>
</trkpt>
<trkpt lat="46.0263320" lon="10.3653450">
	<ele>885.00</ele>
	<time>2024-07-24T11:53:11.000Z</time>
</trkpt>
<trkpt lat="46.0263240" lon="10.3653390">
	<ele>884.80</ele>
	<time>2024-07-24T11:53:12.000Z</time>
</trkpt>
<trkpt lat="46.0263160" lon="10.3653320">
	<ele>884.60</ele>
	<time>2024-07-24T11:53:13.000Z</time>
</trkpt>
<trkpt lat="46.0263090" lon="10.3653280">
	<ele>884.20</ele>
	<time>2024-07-24T11:53:14.000Z</time>
</trkpt>
<trkpt lat="46.0263060" lon="10.3653250">
	<ele>884.00</ele>
	<time>2024-07-24T11:53:15.000Z</time>
</trkpt>
<trkpt lat="46.0263050" lon="10.3653210">
	<ele>883.80</ele>
	<time>2024-07-24T11:53:16.000Z</time>
</trkpt>
<trkpt lat="46.0263040" lon="10.3653120">
	<ele>883.40</ele>
	<time>2024-07-24T11:53:17.000Z</time>
</trkpt>
<trkpt lat="46.0262990" lon="10.3652920">
	<ele>883.40</ele>
	<time>2024-07-24T11:53:18.000Z</time>
</trkpt>
<trkpt lat="46.0263050" lon="10.3652680">
	<ele>883.20</ele>
	<time>2024-07-24T11:53:19.000Z</time>
</trkpt>
<trkpt lat="46.0263080" lon="10.3652520">
	<ele>882.80</ele>
	<time>2024-07-24T11:53:20.000Z</time>
</trkpt>
<trkpt lat="46.0263090" lon="10.3652400">
	<ele>882.60</ele>
	<time>2024-07-24T11:53:21.000Z</time>
</trkpt>
<trkpt lat="46.0263130" lon="10.3652310">
	<ele>882.40</ele>
	<time>2024-07-24T11:53:22.000Z</time>
</trkpt>
<trkpt lat="46.0263190" lon="10.3652240">
	<ele>882.20</ele>
	<time>2024-07-24T11:53:23.000Z</time>
</trkpt>
<trkpt lat="46.0263260" lon="10.3652150">
	<ele>882.20</ele>
	<time>2024-07-24T11:53:24.000Z</time>
</trkpt>
<trkpt lat="46.0263360" lon="10.3652090">
	<ele>882.00</ele>
	<time>2024-07-24T11:53:25.000Z</time>
</trkpt>
<trkpt lat="46.0263360" lon="10.3651940">
	<ele>881.80</ele>
	<time>2024-07-24T11:53:26.000Z</time>
</trkpt>
<trkpt lat="46.0263350" lon="10.3651790">
	<ele>881.80</ele>
	<time>2024-07-24T11:53:27.000Z</time>
</trkpt>
<trkpt lat="46.0263350" lon="10.3651640">
	<ele>881.60</ele>
	<time>2024-07-24T11:53:28.000Z</time>
</trkpt>
<trkpt lat="46.0263330" lon="10.3651460">
	<ele>881.40</ele>
	<time>2024-07-24T11:53:29.000Z</time>
</trkpt>
<trkpt lat="46.0263310" lon="10.3651270">
	<ele>881.20</ele>
	<time>2024-07-24T11:53:30.000Z</time>
</trkpt>
<trkpt lat="46.0263310" lon="10.3651120">
	<ele>881.00</ele>
	<time>2024-07-24T11:53:31.000Z</time>
</trkpt>
<trkpt lat="46.0263330" lon="10.3650970">
	<ele>880.80</ele>
	<time>2024-07-24T11:53:32.000Z</time>
</trkpt>
<trkpt lat="46.0263360" lon="10.3650890">
	<ele>880.60</ele>
	<time>2024-07-24T11:53:33.000Z</time>
</trkpt>
<trkpt lat="46.0263380" lon="10.3650820">
	<ele>880.40</ele>
	<time>2024-07-24T11:53:34.000Z</time>
</trkpt>
<trkpt lat="46.0263340" lon="10.3650690">
	<ele>880.40</ele>
	<time>2024-07-24T11:53:35.000Z</time>
</trkpt>
<trkpt lat="46.0263280" lon="10.3650570">
	<ele>880.00</ele>
	<time>2024-07-24T11:53:36.000Z</time>
</trkpt>
<trkpt lat="46.0263250" lon="10.3650440">
	<ele>880.00</ele>
	<time>2024-07-24T11:53:37.000Z</time>
</trkpt>
<trkpt lat="46.0263220" lon="10.3650320">
	<ele>879.80</ele>
	<time>2024-07-24T11:53:38.000Z</time>
</trkpt>
<trkpt lat="46.0263180" lon="10.3650190">
	<ele>879.60</ele>
	<time>2024-07-24T11:53:39.000Z</time>
</trkpt>
<trkpt lat="46.0263130" lon="10.3650050">
	<ele>879.40</ele>
	<time>2024-07-24T11:53:40.000Z</time>
</trkpt>
<trkpt lat="46.0263070" lon="10.3649920">
	<ele>879.00</ele>
	<time>2024-07-24T11:53:41.000Z</time>
</trkpt>
<trkpt lat="46.0262990" lon="10.3649830">
	<ele>878.80</ele>
	<time>2024-07-24T11:53:42.000Z</time>
</trkpt>
<trkpt lat="46.0262910" lon="10.3649790">
	<ele>878.40</ele>
	<time>2024-07-24T11:53:43.000Z</time>
</trkpt>
<trkpt lat="46.0262810" lon="10.3649650">
	<ele>878.20</ele>
	<time>2024-07-24T11:53:44.000Z</time>
</trkpt>
<trkpt lat="46.0262770" lon="10.3649670">
	<ele>878.00</ele>
	<time>2024-07-24T11:53:45.000Z</time>
</trkpt>
<trkpt lat="46.0262710" lon="10.3649710">
	<ele>878.00</ele>
	<time>2024-07-24T11:53:46.000Z</time>
</trkpt>
<trkpt lat="46.0262620" lon="10.3649690">
	<ele>877.80</ele>
	<time>2024-07-24T11:53:47.000Z</time>
</trkpt>
<trkpt lat="46.0262500" lon="10.3649720">
	<ele>877.60</ele>
	<time>2024-07-24T11:53:48.000Z</time>
</trkpt>
<trkpt lat="46.0262350" lon="10.3649730">
	<ele>877.40</ele>
	<time>2024-07-24T11:53:49.000Z</time>
</trkpt>
<trkpt lat="46.0262210" lon="10.3649760">
	<ele>877.20</ele>
	<time>2024-07-24T11:53:50.000Z</time>
</trkpt>
<trkpt lat="46.0262070" lon="10.3649760">
	<ele>877.00</ele>
	<time>2024-07-24T11:53:51.000Z</time>
</trkpt>
<trkpt lat="46.0261930" lon="10.3649750">
	<ele>876.80</ele>
	<time>2024-07-24T11:53:52.000Z</time>
</trkpt>
<trkpt lat="46.0261800" lon="10.3649780">
	<ele>876.60</ele>
	<time>2024-07-24T11:53:53.000Z</time>
</trkpt>
<trkpt lat="46.0261680" lon="10.3649820">
	<ele>876.60</ele>
	<time>2024-07-24T11:53:54.000Z</time>
</trkpt>
<trkpt lat="46.0261590" lon="10.3649880">
	<ele>876.40</ele>
	<time>2024-07-24T11:53:55.000Z</time>
</trkpt>
<trkpt lat="46.0261490" lon="10.3649930">
	<ele>876.20</ele>
	<time>2024-07-24T11:53:56.000Z</time>
</trkpt>
<trkpt lat="46.0261400" lon="10.3649980">
	<ele>876.20</ele>
	<time>2024-07-24T11:53:57.000Z</time>
</trkpt>
<trkpt lat="46.0261310" lon="10.3650040">
	<ele>876.00</ele>
	<time>2024-07-24T11:53:58.000Z</time>
</trkpt>
<trkpt lat="46.0261200" lon="10.3650040">
	<ele>875.80</ele>
	<time>2024-07-24T11:53:59.000Z</time>
</trkpt>
<trkpt lat="46.0261070" lon="10.3650070">
	<ele>875.60</ele>
	<time>2024-07-24T11:54:00.000Z</time>
</trkpt>
<trkpt lat="46.0260950" lon="10.3650140">
	<ele>875.40</ele>
	<time>2024-07-24T11:54:01.000Z</time>
</trkpt>
<trkpt lat="46.0260800" lon="10.3650140">
	<ele>875.40</ele>
	<time>2024-07-24T11:54:02.000Z</time>
</trkpt>
<trkpt lat="46.0260640" lon="10.3650090">
	<ele>875.20</ele>
	<time>2024-07-24T11:54:03.000Z</time>
</trkpt>
<trkpt lat="46.0260490" lon="10.3650060">
	<ele>875.00</ele>
	<time>2024-07-24T11:54:04.000Z</time>
</trkpt>
<trkpt lat="46.0260350" lon="10.3650100">
	<ele>874.80</ele>
	<time>2024-07-24T11:54:05.000Z</time>
</trkpt>
<trkpt lat="46.0260230" lon="10.3650170">
	<ele>874.60</ele>
	<time>2024-07-24T11:54:06.000Z</time>
</trkpt>
<trkpt lat="46.0260170" lon="10.3650290">
	<ele>874.20</ele>
	<time>2024-07-24T11:54:07.000Z</time>
</trkpt>
<trkpt lat="46.0260080" lon="10.3650360">
	<ele>874.00</ele>
	<time>2024-07-24T11:54:08.000Z</time>
</trkpt>
<trkpt lat="46.0259980" lon="10.3650420">
	<ele>874.00</ele>
	<time>2024-07-24T11:54:09.000Z</time>
</trkpt>
<trkpt lat="46.0259870" lon="10.3650450">
	<ele>873.80</ele>
	<time>2024-07-24T11:54:10.000Z</time>
</trkpt>
<trkpt lat="46.0259780" lon="10.3650520">
	<ele>873.80</ele>
	<time>2024-07-24T11:54:11.000Z</time>
</trkpt>
<trkpt lat="46.0259650" lon="10.3650550">
	<ele>873.80</ele>
	<time>2024-07-24T11:54:12.000Z</time>
</trkpt>
<trkpt lat="46.0259530" lon="10.3650570">
	<ele>873.60</ele>
	<time>2024-07-24T11:54:13.000Z</time>
</trkpt>
<trkpt lat="46.0259410" lon="10.3650590">
	<ele>873.20</ele>
	<time>2024-07-24T11:54:14.000Z</time>
</trkpt>
<trkpt lat="46.0259360" lon="10.3650650">
	<ele>873.00</ele>
	<time>2024-07-24T11:54:15.000Z</time>
</trkpt>
<trkpt lat="46.0259280" lon="10.3650620">
	<ele>873.00</ele>
	<time>2024-07-24T11:54:16.000Z</time>
</trkpt>
<trkpt lat="46.0259230" lon="10.3650620">
	<ele>872.80</ele>
	<time>2024-07-24T11:54:17.000Z</time>
</trkpt>
<trkpt lat="46.0259170" lon="10.3650670">
	<ele>872.60</ele>
	<time>2024-07-24T11:54:18.000Z</time>
</trkpt>
<trkpt lat="46.0259030" lon="10.3650620">
	<ele>872.40</ele>
	<time>2024-07-24T11:54:19.000Z</time>
</trkpt>
<trkpt lat="46.0258920" lon="10.3650610">
	<ele>872.00</ele>
	<time>2024-07-24T11:54:20.000Z</time>
</trkpt>
<trkpt lat="46.0258770" lon="10.3650620">
	<ele>871.80</ele>
	<time>2024-07-24T11:54:21.000Z</time>
</trkpt>
<trkpt lat="46.0258620" lon="10.3650650">
	<ele>871.60</ele>
	<time>2024-07-24T11:54:22.000Z</time>
</trkpt>
<trkpt lat="46.0258510" lon="10.3650740">
	<ele>871.60</ele>
	<time>2024-07-24T11:54:23.000Z</time>
</trkpt>
<trkpt lat="46.0258410" lon="10.3650830">
	<ele>871.40</ele>
	<time>2024-07-24T11:54:24.000Z</time>
</trkpt>
<trkpt lat="46.0258340" lon="10.3650970">
	<ele>871.40</ele>
	<time>2024-07-24T11:54:25.000Z</time>
</trkpt>
<trkpt lat="46.0258220" lon="10.3651090">
	<ele>871.20</ele>
	<time>2024-07-24T11:54:26.000Z</time>
</trkpt>
<trkpt lat="46.0258090" lon="10.3651220">
	<ele>871.20</ele>
	<time>2024-07-24T11:54:27.000Z</time>
</trkpt>
<trkpt lat="46.0258030" lon="10.3651380">
	<ele>871.00</ele>
	<time>2024-07-24T11:54:28.000Z</time>
</trkpt>
<trkpt lat="46.0258010" lon="10.3651600">
	<ele>871.00</ele>
	<time>2024-07-24T11:54:29.000Z</time>
</trkpt>
<trkpt lat="46.0258030" lon="10.3651820">
	<ele>870.80</ele>
	<time>2024-07-24T11:54:30.000Z</time>
</trkpt>
<trkpt lat="46.0258090" lon="10.3652010">
	<ele>870.80</ele>
	<time>2024-07-24T11:54:31.000Z</time>
</trkpt>
<trkpt lat="46.0258160" lon="10.3652180">
	<ele>870.80</ele>
	<time>2024-07-24T11:54:32.000Z</time>
</trkpt>
<trkpt lat="46.0258270" lon="10.3652380">
	<ele>870.60</ele>
	<time>2024-07-24T11:54:33.000Z</time>
</trkpt>
<trkpt lat="46.0258340" lon="10.3652550">
	<ele>870.60</ele>
	<time>2024-07-24T11:54:34.000Z</time>
</trkpt>
<trkpt lat="46.0258450" lon="10.3652750">
	<ele>870.40</ele>
	<time>2024-07-24T11:54:35.000Z</time>
</trkpt>
<trkpt lat="46.0258550" lon="10.3652920">
	<ele>870.40</ele>
	<time>2024-07-24T11:54:36.000Z</time>
</trkpt>
<trkpt lat="46.0258640" lon="10.3653080">
	<ele>870.20</ele>
	<time>2024-07-24T11:54:37.000Z</time>
</trkpt>
<trkpt lat="46.0258710" lon="10.3653210">
	<ele>870.20</ele>
	<time>2024-07-24T11:54:38.000Z</time>
</trkpt>
<trkpt lat="46.0258740" lon="10.3653300">
	<ele>870.20</ele>
	<time>2024-07-24T11:54:39.000Z</time>
</trkpt>
<trkpt lat="46.0258830" lon="10.3653490">
	<ele>870.00</ele>
	<time>2024-07-24T11:54:40.000Z</time>
</trkpt>
<trkpt lat="46.0258880" lon="10.3653630">
	<ele>870.00</ele>
	<time>2024-07-24T11:54:41.000Z</time>
</trkpt>
<trkpt lat="46.0258900" lon="10.3653760">
	<ele>869.80</ele>
	<time>2024-07-24T11:54:42.000Z</time>
</trkpt>
<trkpt lat="46.0258950" lon="10.3653900">
	<ele>869.80</ele>
	<time>2024-07-24T11:54:43.000Z</time>
</trkpt>
<trkpt lat="46.0258990" lon="10.3654030">
	<ele>869.60</ele>
	<time>2024-07-24T11:54:44.000Z</time>
</trkpt>
<trkpt lat="46.0259020" lon="10.3654170">
	<ele>869.60</ele>
	<time>2024-07-24T11:54:45.000Z</time>
</trkpt>
<trkpt lat="46.0259090" lon="10.3654310">
	<ele>869.60</ele>
	<time>2024-07-24T11:54:46.000Z</time>
</trkpt>
<trkpt lat="46.0259180" lon="10.3654540">
	<ele>869.40</ele>
	<time>2024-07-24T11:54:47.000Z</time>
</trkpt>
<trkpt lat="46.0259280" lon="10.3654810">
	<ele>869.40</ele>
	<time>2024-07-24T11:54:48.000Z</time>
</trkpt>
<trkpt lat="46.0259240" lon="10.3655010">
	<ele>869.20</ele>
	<time>2024-07-24T11:54:49.000Z</time>
</trkpt>
<trkpt lat="46.0259150" lon="10.3655160">
	<ele>869.20</ele>
	<time>2024-07-24T11:54:50.000Z</time>
</trkpt>
<trkpt lat="46.0259030" lon="10.3655270">
	<ele>869.20</ele>
	<time>2024-07-24T11:54:51.000Z</time>
</trkpt>
<trkpt lat="46.0258890" lon="10.3655310">
	<ele>869.20</ele>
	<time>2024-07-24T11:54:52.000Z</time>
</trkpt>
<trkpt lat="46.0258660" lon="10.3655250">
	<ele>869.20</ele>
	<time>2024-07-24T11:54:53.000Z</time>
</trkpt>
<trkpt lat="46.0258470" lon="10.3655220">
	<ele>869.20</ele>
	<time>2024-07-24T11:54:54.000Z</time>
</trkpt>
<trkpt lat="46.0258300" lon="10.3655200">
	<ele>869.20</ele>
	<time>2024-07-24T11:54:55.000Z</time>
</trkpt>
<trkpt lat="46.0258100" lon="10.3655180">
	<ele>869.20</ele>
	<time>2024-07-24T11:54:56.000Z</time>
</trkpt>
<trkpt lat="46.0257950" lon="10.3655230">
	<ele>869.20</ele>
	<time>2024-07-24T11:54:57.000Z</time>
</trkpt>
<trkpt lat="46.0257830" lon="10.3655340">
	<ele>869.20</ele>
	<time>2024-07-24T11:54:58.000Z</time>
</trkpt>
<trkpt lat="46.0257790" lon="10.3655470">
	<ele>869.20</ele>
	<time>2024-07-24T11:54:59.000Z</time>
</trkpt>
<trkpt lat="46.0257760" lon="10.3655670">
	<ele>869.20</ele>
	<time>2024-07-24T11:55:00.000Z</time>
</trkpt>
<trkpt lat="46.0257700" lon="10.3655770">
	<ele>869.20</ele>
	<time>2024-07-24T11:55:01.000Z</time>
</trkpt>
<trkpt lat="46.0257610" lon="10.3655810">
	<ele>869.20</ele>
	<time>2024-07-24T11:55:02.000Z</time>
</trkpt>
<trkpt lat="46.0257540" lon="10.3655910">
	<ele>869.20</ele>
	<time>2024-07-24T11:55:03.000Z</time>
</trkpt>
<trkpt lat="46.0257480" lon="10.3656050">
	<ele>869.20</ele>
	<time>2024-07-24T11:55:04.000Z</time>
</trkpt>
<trkpt lat="46.0257520" lon="10.3656280">
	<ele>869.20</ele>
	<time>2024-07-24T11:55:05.000Z</time>
</trkpt>
<trkpt lat="46.0257420" lon="10.3656390">
	<ele>869.20</ele>
	<time>2024-07-24T11:55:06.000Z</time>
</trkpt>
<trkpt lat="46.0257270" lon="10.3656420">
	<ele>869.00</ele>
	<time>2024-07-24T11:55:07.000Z</time>
</trkpt>
<trkpt lat="46.0257010" lon="10.3656340">
	<ele>869.00</ele>
	<time>2024-07-24T11:55:08.000Z</time>
</trkpt>
<trkpt lat="46.0256770" lon="10.3656300">
	<ele>868.80</ele>
	<time>2024-07-24T11:55:09.000Z</time>
</trkpt>
<trkpt lat="46.0256530" lon="10.3656220">
	<ele>868.80</ele>
	<time>2024-07-24T11:55:10.000Z</time>
</trkpt>
<trkpt lat="46.0256300" lon="10.3656160">
	<ele>868.80</ele>
	<time>2024-07-24T11:55:11.000Z</time>
</trkpt>
<trkpt lat="46.0256160" lon="10.3656170">
	<ele>868.80</ele>
	<time>2024-07-24T11:55:12.000Z</time>
</trkpt>
<trkpt lat="46.0256080" lon="10.3656240">
	<ele>868.60</ele>
	<time>2024-07-24T11:55:13.000Z</time>
</trkpt>
<trkpt lat="46.0256020" lon="10.3656330">
	<ele>868.60</ele>
	<time>2024-07-24T11:55:14.000Z</time>
</trkpt>
<trkpt lat="46.0255960" lon="10.3656420">
	<ele>868.40</ele>
	<time>2024-07-24T11:55:15.000Z</time>
</trkpt>
<trkpt lat="46.0255900" lon="10.3656510">
	<ele>868.40</ele>
	<time>2024-07-24T11:55:16.000Z</time>
</trkpt>
<trkpt lat="46.0255840" lon="10.3656630">
	<ele>868.20</ele>
	<time>2024-07-24T11:55:17.000Z</time>
</trkpt>
<trkpt lat="46.0255820" lon="10.3656740">
	<ele>868.00</ele>
	<time>2024-07-24T11:55:18.000Z</time>
</trkpt>
<trkpt lat="46.0255760" lon="10.3656850">
	<ele>867.80</ele>
	<time>2024-07-24T11:55:19.000Z</time>
</trkpt>
<trkpt lat="46.0255600" lon="10.3656850">
	<ele>867.40</ele>
	<time>2024-07-24T11:55:20.000Z</time>
</trkpt>
<trkpt lat="46.0255270" lon="10.3656550">
	<ele>867.20</ele>
	<time>2024-07-24T11:55:21.000Z</time>
</trkpt>
<trkpt lat="46.0254970" lon="10.3656280">
	<ele>867.20</ele>
	<time>2024-07-24T11:55:22.000Z</time>
</trkpt>
<trkpt lat="46.0254940" lon="10.3656170">
	<ele>867.20</ele>
	<time>2024-07-24T11:55:23.000Z</time>
</trkpt>
<trkpt lat="46.0254870" lon="10.3656080">
	<ele>867.00</ele>
	<time>2024-07-24T11:55:24.000Z</time>
</trkpt>
<trkpt lat="46.0254820" lon="10.3656010">
	<ele>866.60</ele>
	<time>2024-07-24T11:55:25.000Z</time>
</trkpt>
<trkpt lat="46.0254750" lon="10.3656010">
	<ele>866.40</ele>
	<time>2024-07-24T11:55:26.000Z</time>
</trkpt>
<trkpt lat="46.0254760" lon="10.3656110">
	<ele>866.40</ele>
	<time>2024-07-24T11:55:27.000Z</time>
</trkpt>
<trkpt lat="46.0254760" lon="10.3656170">
	<ele>866.00</ele>
	<time>2024-07-24T11:55:28.000Z</time>
</trkpt>
<trkpt lat="46.0254760" lon="10.3656210">
	<ele>865.80</ele>
	<time>2024-07-24T11:55:29.000Z</time>
</trkpt>
<trkpt lat="46.0254760" lon="10.3656310">
	<ele>865.80</ele>
	<time>2024-07-24T11:55:30.000Z</time>
</trkpt>
<trkpt lat="46.0254770" lon="10.3656410">
	<ele>865.60</ele>
	<time>2024-07-24T11:55:31.000Z</time>
</trkpt>
<trkpt lat="46.0254760" lon="10.3656430">
	<ele>865.60</ele>
	<time>2024-07-24T11:55:32.000Z</time>
</trkpt>
<trkpt lat="46.0254730" lon="10.3656450">
	<ele>865.40</ele>
	<time>2024-07-24T11:55:33.000Z</time>
</trkpt>
<trkpt lat="46.0254700" lon="10.3656470">
	<ele>865.20</ele>
	<time>2024-07-24T11:55:34.000Z</time>
</trkpt>
<trkpt lat="46.0254700" lon="10.3656630">
	<ele>865.20</ele>
	<time>2024-07-24T11:55:35.000Z</time>
</trkpt>
<trkpt lat="46.0254670" lon="10.3656680">
	<ele>865.20</ele>
	<time>2024-07-24T11:55:36.000Z</time>
</trkpt>
<trkpt lat="46.0254620" lon="10.3656730">
	<ele>865.20</ele>
	<time>2024-07-24T11:55:37.000Z</time>
</trkpt>
<trkpt lat="46.0254520" lon="10.3656650">
	<ele>865.20</ele>
	<time>2024-07-24T11:55:38.000Z</time>
</trkpt>
<trkpt lat="46.0254380" lon="10.3656520">
	<ele>865.00</ele>
	<time>2024-07-24T11:55:39.000Z</time>
</trkpt>
<trkpt lat="46.0254190" lon="10.3656350">
	<ele>864.80</ele>
	<time>2024-07-24T11:55:40.000Z</time>
</trkpt>
<trkpt lat="46.0254030" lon="10.3656220">
	<ele>864.80</ele>
	<time>2024-07-24T11:55:41.000Z</time>
</trkpt>
<trkpt lat="46.0253880" lon="10.3656130">
	<ele>864.60</ele>
	<time>2024-07-24T11:55:42.000Z</time>
</trkpt>
<trkpt lat="46.0253750" lon="10.3656030">
	<ele>864.40</ele>
	<time>2024-07-24T11:55:43.000Z</time>
</trkpt>
<trkpt lat="46.0253630" lon="10.3655950">
	<ele>864.40</ele>
	<time>2024-07-24T11:55:44.000Z</time>
</trkpt>
<trkpt lat="46.0253600" lon="10.3656170">
	<ele>864.20</ele>
	<time>2024-07-24T11:55:45.000Z</time>
</trkpt>
<trkpt lat="46.0253440" lon="10.3656100">
	<ele>864.20</ele>
	<time>2024-07-24T11:55:46.000Z</time>
</trkpt>
<trkpt lat="46.0253480" lon="10.3656110">
	<ele>863.80</ele>
	<time>2024-07-24T11:55:47.000Z</time>
</trkpt>
<trkpt lat="46.0253290" lon="10.3656050">
	<ele>863.60</ele>
	<time>2024-07-24T11:55:48.000Z</time>
</trkpt>
<trkpt lat="46.0252970" lon="10.3655810">
	<ele>863.60</ele>
	<time>2024-07-24T11:55:49.000Z</time>
</trkpt>
<trkpt lat="46.0252670" lon="10.3655530">
	<ele>863.40</ele>
	<time>2024-07-24T11:55:50.000Z</time>
</trkpt>
<trkpt lat="46.0252440" lon="10.3655250">
	<ele>863.20</ele>
	<time>2024-07-24T11:55:51.000Z</time>
</trkpt>
<trkpt lat="46.0252190" lon="10.3655020">
	<ele>863.00</ele>
	<time>2024-07-24T11:55:52.000Z</time>
</trkpt>
<trkpt lat="46.0251970" lon="10.3654810">
	<ele>863.00</ele>
	<time>2024-07-24T11:55:53.000Z</time>
</trkpt>
<trkpt lat="46.0251800" lon="10.3654670">
	<ele>862.80</ele>
	<time>2024-07-24T11:55:54.000Z</time>
</trkpt>
<trkpt lat="46.0251580" lon="10.3654470">
	<ele>862.40</ele>
	<time>2024-07-24T11:55:55.000Z</time>
</trkpt>
<trkpt lat="46.0251430" lon="10.3654360">
	<ele>862.20</ele>
	<time>2024-07-24T11:55:56.000Z</time>
</trkpt>
<trkpt lat="46.0251260" lon="10.3654260">
	<ele>862.20</ele>
	<time>2024-07-24T11:55:57.000Z</time>
</trkpt>
<trkpt lat="46.0251070" lon="10.3654200">
	<ele>862.00</ele>
	<time>2024-07-24T11:55:58.000Z</time>
</trkpt>
<trkpt lat="46.0250880" lon="10.3654150">
	<ele>861.80</ele>
	<time>2024-07-24T11:55:59.000Z</time>
</trkpt>
<trkpt lat="46.0250650" lon="10.3654030">
	<ele>861.60</ele>
	<time>2024-07-24T11:56:00.000Z</time>
</trkpt>
<trkpt lat="46.0250460" lon="10.3653960">
	<ele>861.60</ele>
	<time>2024-07-24T11:56:01.000Z</time>
</trkpt>
<trkpt lat="46.0250350" lon="10.3653890">
	<ele>861.20</ele>
	<time>2024-07-24T11:56:02.000Z</time>
</trkpt>
<trkpt lat="46.0250310" lon="10.3653890">
	<ele>860.80</ele>
	<time>2024-07-24T11:56:03.000Z</time>
</trkpt>
<trkpt lat="46.0250280" lon="10.3653950">
	<ele>860.60</ele>
	<time>2024-07-24T11:56:04.000Z</time>
</trkpt>
<trkpt lat="46.0250320" lon="10.3654030">
	<ele>860.40</ele>
	<time>2024-07-24T11:56:05.000Z</time>
</trkpt>
<trkpt lat="46.0250320" lon="10.3654040">
	<ele>860.20</ele>
	<time>2024-07-24T11:56:06.000Z</time>
</trkpt>
<trkpt lat="46.0250240" lon="10.3653990">
	<ele>860.20</ele>
	<time>2024-07-24T11:56:07.000Z</time>
</trkpt>
<trkpt lat="46.0250020" lon="10.3653870">
	<ele>860.00</ele>
	<time>2024-07-24T11:56:08.000Z</time>
</trkpt>
<trkpt lat="46.0249810" lon="10.3653900">
	<ele>859.80</ele>
	<time>2024-07-24T11:56:09.000Z</time>
</trkpt>
<trkpt lat="46.0249690" lon="10.3654030">
	<ele>859.80</ele>
	<time>2024-07-24T11:56:10.000Z</time>
</trkpt>
<trkpt lat="46.0249530" lon="10.3654030">
	<ele>859.60</ele>
	<time>2024-07-24T11:56:11.000Z</time>
</trkpt>
<trkpt lat="46.0249360" lon="10.3654060">
	<ele>859.40</ele>
	<time>2024-07-24T11:56:12.000Z</time>
</trkpt>
<trkpt lat="46.0249250" lon="10.3654100">
	<ele>859.20</ele>
	<time>2024-07-24T11:56:13.000Z</time>
</trkpt>
<trkpt lat="46.0249110" lon="10.3654110">
	<ele>859.00</ele>
	<time>2024-07-24T11:56:14.000Z</time>
</trkpt>
<trkpt lat="46.0248950" lon="10.3654090">
	<ele>859.00</ele>
	<time>2024-07-24T11:56:15.000Z</time>
</trkpt>
<trkpt lat="46.0248830" lon="10.3654140">
	<ele>858.80</ele>
	<time>2024-07-24T11:56:16.000Z</time>
</trkpt>
<trkpt lat="46.0248680" lon="10.3654100">
	<ele>858.80</ele>
	<time>2024-07-24T11:56:17.000Z</time>
</trkpt>
<trkpt lat="46.0248510" lon="10.3654100">
	<ele>858.60</ele>
	<time>2024-07-24T11:56:18.000Z</time>
</trkpt>
<trkpt lat="46.0248350" lon="10.3654020">
	<ele>858.60</ele>
	<time>2024-07-24T11:56:19.000Z</time>
</trkpt>
<trkpt lat="46.0248250" lon="10.3654040">
	<ele>858.60</ele>
	<time>2024-07-24T11:56:20.000Z</time>
</trkpt>
<trkpt lat="46.0248150" lon="10.3654120">
	<ele>858.40</ele>
	<time>2024-07-24T11:56:21.000Z</time>
</trkpt>
<trkpt lat="46.0247930" lon="10.3654120">
	<ele>858.40</ele>
	<time>2024-07-24T11:56:22.000Z</time>
</trkpt>
<trkpt lat="46.0247720" lon="10.3654100">
	<ele>858.20</ele>
	<time>2024-07-24T11:56:23.000Z</time>
</trkpt>
<trkpt lat="46.0247550" lon="10.3654120">
	<ele>858.20</ele>
	<time>2024-07-24T11:56:24.000Z</time>
</trkpt>
<trkpt lat="46.0247380" lon="10.3654140">
	<ele>858.00</ele>
	<time>2024-07-24T11:56:25.000Z</time>
</trkpt>
<trkpt lat="46.0247260" lon="10.3654160">
	<ele>857.80</ele>
	<time>2024-07-24T11:56:26.000Z</time>
</trkpt>
<trkpt lat="46.0247300" lon="10.3654300">
	<ele>857.60</ele>
	<time>2024-07-24T11:56:27.000Z</time>
</trkpt>
<trkpt lat="46.0247140" lon="10.3654270">
	<ele>857.40</ele>
	<time>2024-07-24T11:56:28.000Z</time>
</trkpt>
<trkpt lat="46.0247020" lon="10.3654300">
	<ele>857.40</ele>
	<time>2024-07-24T11:56:29.000Z</time>
</trkpt>
<trkpt lat="46.0246930" lon="10.3654330">
	<ele>857.20</ele>
	<time>2024-07-24T11:56:30.000Z</time>
</trkpt>
<trkpt lat="46.0246790" lon="10.3654350">
	<ele>857.00</ele>
	<time>2024-07-24T11:56:31.000Z</time>
</trkpt>
<trkpt lat="46.0246710" lon="10.3654380">
	<ele>857.00</ele>
	<time>2024-07-24T11:56:32.000Z</time>
</trkpt>
<trkpt lat="46.0246610" lon="10.3654400">
	<ele>856.80</ele>
	<time>2024-07-24T11:56:33.000Z</time>
</trkpt>
<trkpt lat="46.0246450" lon="10.3654410">
	<ele>856.60</ele>
	<time>2024-07-24T11:56:34.000Z</time>
</trkpt>
<trkpt lat="46.0246270" lon="10.3654400">
	<ele>856.60</ele>
	<time>2024-07-24T11:56:35.000Z</time>
</trkpt>
<trkpt lat="46.0246120" lon="10.3654410">
	<ele>856.40</ele>
	<time>2024-07-24T11:56:36.000Z</time>
</trkpt>
<trkpt lat="46.0245680" lon="10.3653890">
	<ele>856.20</ele>
	<time>2024-07-24T11:56:37.000Z</time>
</trkpt>
<trkpt lat="46.0245320" lon="10.3653530">
	<ele>856.20</ele>
	<time>2024-07-24T11:56:38.000Z</time>
</trkpt>
<trkpt lat="46.0245290" lon="10.3653310">
	<ele>856.20</ele>
	<time>2024-07-24T11:56:39.000Z</time>
</trkpt>
<trkpt lat="46.0244990" lon="10.3652930">
	<ele>856.00</ele>
	<time>2024-07-24T11:56:40.000Z</time>
</trkpt>
<trkpt lat="46.0245030" lon="10.3652900">
	<ele>856.00</ele>
	<time>2024-07-24T11:56:41.000Z</time>
</trkpt>
<trkpt lat="46.0244950" lon="10.3652870">
	<ele>855.80</ele>
	<time>2024-07-24T11:56:42.000Z</time>
</trkpt>
<trkpt lat="46.0244880" lon="10.3652850">
	<ele>855.80</ele>
	<time>2024-07-24T11:56:43.000Z</time>
</trkpt>
<trkpt lat="46.0244780" lon="10.3652800">
	<ele>855.80</ele>
	<time>2024-07-24T11:56:44.000Z</time>
</trkpt>
<trkpt lat="46.0244670" lon="10.3652770">
	<ele>855.80</ele>
	<time>2024-07-24T11:56:45.000Z</time>
</trkpt>
<trkpt lat="46.0244600" lon="10.3652770">
	<ele>855.80</ele>
	<time>2024-07-24T11:56:46.000Z</time>
</trkpt>
<trkpt lat="46.0244560" lon="10.3652780">
	<ele>855.60</ele>
	<time>2024-07-24T11:56:47.000Z</time>
</trkpt>
<trkpt lat="46.0244440" lon="10.3652750">
	<ele>855.60</ele>
	<time>2024-07-24T11:56:48.000Z</time>
</trkpt>
<trkpt lat="46.0244370" lon="10.3652790">
	<ele>855.40</ele>
	<time>2024-07-24T11:56:49.000Z</time>
</trkpt>
<trkpt lat="46.0244140" lon="10.3652670">
	<ele>855.40</ele>
	<time>2024-07-24T11:56:50.000Z</time>
</trkpt>
<trkpt lat="46.0244110" lon="10.3652760">
	<ele>855.40</ele>
	<time>2024-07-24T11:56:51.000Z</time>
</trkpt>
<trkpt lat="46.0243910" lon="10.3652650">
	<ele>855.20</ele>
	<time>2024-07-24T11:56:52.000Z</time>
</trkpt>
<trkpt lat="46.0243780" lon="10.3652570">
	<ele>855.00</ele>
	<time>2024-07-24T11:56:53.000Z</time>
</trkpt>
<trkpt lat="46.0243750" lon="10.3652520">
	<ele>854.80</ele>
	<time>2024-07-24T11:56:54.000Z</time>
</trkpt>
<trkpt lat="46.0243640" lon="10.3652480">
	<ele>854.60</ele>
	<time>2024-07-24T11:56:55.000Z</time>
</trkpt>
<trkpt lat="46.0243620" lon="10.3652500">
	<ele>854.40</ele>
	<time>2024-07-24T11:56:56.000Z</time>
</trkpt>
<trkpt lat="46.0243600" lon="10.3652520">
	<ele>854.00</ele>
	<time>2024-07-24T11:56:57.000Z</time>
</trkpt>
<trkpt lat="46.0243610" lon="10.3652540">
	<ele>854.00</ele>
	<time>2024-07-24T11:56:58.000Z</time>
</trkpt>
<trkpt lat="46.0244000" lon="10.3652830">
	<ele>853.80</ele>
	<time>2024-07-24T11:56:59.000Z</time>
</trkpt>
<trkpt lat="46.0243750" lon="10.3652640">
	<ele>853.80</ele>
	<time>2024-07-24T11:57:00.000Z</time>
</trkpt>
<trkpt lat="46.0244020" lon="10.3652920">
	<ele>853.80</ele>
	<time>2024-07-24T11:57:01.000Z</time>
</trkpt>
<trkpt lat="46.0244420" lon="10.3653340">
	<ele>853.80</ele>
	<time>2024-07-24T11:57:02.000Z</time>
</trkpt>
<trkpt lat="46.0244530" lon="10.3653530">
	<ele>853.60</ele>
	<time>2024-07-24T11:57:03.000Z</time>
</trkpt>
<trkpt lat="46.0244450" lon="10.3653600">
	<ele>853.60</ele>
	<time>2024-07-24T11:57:04.000Z</time>
</trkpt>
<trkpt lat="46.0244220" lon="10.3653430">
	<ele>853.60</ele>
	<time>2024-07-24T11:57:05.000Z</time>
</trkpt>
<trkpt lat="46.0243480" lon="10.3653040">
	<ele>853.40</ele>
	<time>2024-07-24T11:57:06.000Z</time>
</trkpt>
<trkpt lat="46.0243000" lon="10.3652720">
	<ele>853.40</ele>
	<time>2024-07-24T11:57:07.000Z</time>
</trkpt>
<trkpt lat="46.0242640" lon="10.3652460">
	<ele>853.20</ele>
	<time>2024-07-24T11:57:08.000Z</time>
</trkpt>
<trkpt lat="46.0242420" lon="10.3652400">
	<ele>853.20</ele>
	<time>2024-07-24T11:57:09.000Z</time>
</trkpt>
<trkpt lat="46.0242190" lon="10.3652270">
	<ele>853.00</ele>
	<time>2024-07-24T11:57:10.000Z</time>
</trkpt>
<trkpt lat="46.0241950" lon="10.3652140">
	<ele>853.00</ele>
	<time>2024-07-24T11:57:11.000Z</time>
</trkpt>
<trkpt lat="46.0241660" lon="10.3651960">
	<ele>853.00</ele>
	<time>2024-07-24T11:57:12.000Z</time>
</trkpt>
<trkpt lat="46.0241460" lon="10.3651920">
	<ele>853.00</ele>
	<time>2024-07-24T11:57:13.000Z</time>
</trkpt>
<trkpt lat="46.0241400" lon="10.3651690">
	<ele>852.80</ele>
	<time>2024-07-24T11:57:14.000Z</time>
</trkpt>
<trkpt lat="46.0241260" lon="10.3651540">
	<ele>852.80</ele>
	<time>2024-07-24T11:57:15.000Z</time>
</trkpt>
<trkpt lat="46.0241080" lon="10.3651470">
	<ele>852.80</ele>
	<time>2024-07-24T11:57:16.000Z</time>
</trkpt>
<trkpt lat="46.0240930" lon="10.3651400">
	<ele>852.60</ele>
	<time>2024-07-24T11:57:17.000Z</time>
</trkpt>
<trkpt lat="46.0240790" lon="10.3651350">
	<ele>852.60</ele>
	<time>2024-07-24T11:57:18.000Z</time>
</trkpt>
<trkpt lat="46.0240650" lon="10.3651230">
	<ele>852.20</ele>
	<time>2024-07-24T11:57:19.000Z</time>
</trkpt>
<trkpt lat="46.0240550" lon="10.3651140">
	<ele>852.20</ele>
	<time>2024-07-24T11:57:20.000Z</time>
</trkpt>
<trkpt lat="46.0240500" lon="10.3650860">
	<ele>852.00</ele>
	<time>2024-07-24T11:57:21.000Z</time>
</trkpt>
<trkpt lat="46.0240470" lon="10.3650570">
	<ele>851.80</ele>
	<time>2024-07-24T11:57:22.000Z</time>
</trkpt>
<trkpt lat="46.0240350" lon="10.3650390">
	<ele>851.60</ele>
	<time>2024-07-24T11:57:23.000Z</time>
</trkpt>
<trkpt lat="46.0240160" lon="10.3650410">
	<ele>851.40</ele>
	<time>2024-07-24T11:57:24.000Z</time>
</trkpt>
<trkpt lat="46.0240200" lon="10.3650610">
	<ele>851.20</ele>
	<time>2024-07-24T11:57:25.000Z</time>
</trkpt>
<trkpt lat="46.0240200" lon="10.3650690">
	<ele>851.20</ele>
	<time>2024-07-24T11:57:26.000Z</time>
</trkpt>
<trkpt lat="46.0240130" lon="10.3650460">
	<ele>851.00</ele>
	<time>2024-07-24T11:57:27.000Z</time>
</trkpt>
<trkpt lat="46.0240060" lon="10.3650440">
	<ele>850.80</ele>
	<time>2024-07-24T11:57:28.000Z</time>
</trkpt>
<trkpt lat="46.0239940" lon="10.3650290">
	<ele>850.80</ele>
	<time>2024-07-24T11:57:29.000Z</time>
</trkpt>
<trkpt lat="46.0239820" lon="10.3650130">
	<ele>850.60</ele>
	<time>2024-07-24T11:57:30.000Z</time>
</trkpt>
<trkpt lat="46.0239720" lon="10.3650050">
	<ele>850.60</ele>
	<time>2024-07-24T11:57:31.000Z</time>
</trkpt>
<trkpt lat="46.0239570" lon="10.3649960">
	<ele>850.60</ele>
	<time>2024-07-24T11:57:32.000Z</time>
</trkpt>
<trkpt lat="46.0239430" lon="10.3649920">
	<ele>850.40</ele>
	<time>2024-07-24T11:57:33.000Z</time>
</trkpt>
<trkpt lat="46.0239300" lon="10.3649930">
	<ele>850.40</ele>
	<time>2024-07-24T11:57:34.000Z</time>
</trkpt>
<trkpt lat="46.0239160" lon="10.3649920">
	<ele>850.20</ele>
	<time>2024-07-24T11:57:35.000Z</time>
</trkpt>
<trkpt lat="46.0238890" lon="10.3649800">
	<ele>850.00</ele>
	<time>2024-07-24T11:57:36.000Z</time>
</trkpt>
<trkpt lat="46.0238730" lon="10.3649730">
	<ele>850.00</ele>
	<time>2024-07-24T11:57:37.000Z</time>
</trkpt>
<trkpt lat="46.0238570" lon="10.3649670">
	<ele>849.80</ele>
	<time>2024-07-24T11:57:38.000Z</time>
</trkpt>
<trkpt lat="46.0238590" lon="10.3649530">
	<ele>849.80</ele>
	<time>2024-07-24T11:57:39.000Z</time>
</trkpt>
<trkpt lat="46.0238510" lon="10.3649330">
	<ele>849.80</ele>
	<time>2024-07-24T11:57:40.000Z</time>
</trkpt>
<trkpt lat="46.0238390" lon="10.3649080">
	<ele>849.60</ele>
	<time>2024-07-24T11:57:41.000Z</time>
</trkpt>
<trkpt lat="46.0238220" lon="10.3648880">
	<ele>849.40</ele>
	<time>2024-07-24T11:57:42.000Z</time>
</trkpt>
<trkpt lat="46.0238030" lon="10.3648700">
	<ele>849.20</ele>
	<time>2024-07-24T11:57:43.000Z</time>
</trkpt>
<trkpt lat="46.0237720" lon="10.3648600">
	<ele>849.20</ele>
	<time>2024-07-24T11:57:44.000Z</time>
</trkpt>
<trkpt lat="46.0237350" lon="10.3648290">
	<ele>849.20</ele>
	<time>2024-07-24T11:57:45.000Z</time>
</trkpt>
<trkpt lat="46.0236500" lon="10.3647540">
	<ele>849.00</ele>
	<time>2024-07-24T11:57:46.000Z</time>
</trkpt>
<trkpt lat="46.0235920" lon="10.3647070">
	<ele>849.00</ele>
	<time>2024-07-24T11:57:47.000Z</time>
</trkpt>
<trkpt lat="46.0234950" lon="10.3646270">
	<ele>848.80</ele>
	<time>2024-07-24T11:57:48.000Z</time>
</trkpt>
<trkpt lat="46.0233790" lon="10.3645270">
	<ele>848.60</ele>
	<time>2024-07-24T11:57:49.000Z</time>
</trkpt>
<trkpt lat="46.0233100" lon="10.3644640">
	<ele>848.40</ele>
	<time>2024-07-24T11:57:50.000Z</time>
</trkpt>
<trkpt lat="46.0232400" lon="10.3643950">
	<ele>848.20</ele>
	<time>2024-07-24T11:57:51.000Z</time>
</trkpt>
<trkpt lat="46.0231810" lon="10.3643350">
	<ele>848.20</ele>
	<time>2024-07-24T11:57:52.000Z</time>
</trkpt>
<trkpt lat="46.0231550" lon="10.3643110">
	<ele>848.00</ele>
	<time>2024-07-24T11:57:53.000Z</time>
</trkpt>
<trkpt lat="46.0231550" lon="10.3643230">
	<ele>848.00</ele>
	<time>2024-07-24T11:57:54.000Z</time>
</trkpt>
<trkpt lat="46.0231530" lon="10.3643340">
	<ele>848.00</ele>
	<time>2024-07-24T11:57:55.000Z</time>
</trkpt>
<trkpt lat="46.0232530" lon="10.3644370">
	<ele>847.80</ele>
	<time>2024-07-24T11:57:56.000Z</time>
</trkpt>
<trkpt lat="46.0232750" lon="10.3644680">
	<ele>847.80</ele>
	<time>2024-07-24T11:57:57.000Z</time>
</trkpt>
<trkpt lat="46.0232800" lon="10.3644830">
	<ele>847.80</ele>
	<time>2024-07-24T11:57:58.000Z</time>
</trkpt>
<trkpt lat="46.0232950" lon="10.3645050">
	<ele>847.60</ele>
	<time>2024-07-24T11:57:59.000Z</time>
</trkpt>
<trkpt lat="46.0233040" lon="10.3645240">
	<ele>847.60</ele>
	<time>2024-07-24T11:58:00.000Z</time>
</trkpt>
<trkpt lat="46.0233270" lon="10.3645550">
	<ele>847.40</ele>
	<time>2024-07-24T11:58:01.000Z</time>
</trkpt>
<trkpt lat="46.0233410" lon="10.3645800">
	<ele>847.40</ele>
	<time>2024-07-24T11:58:02.000Z</time>
</trkpt>
<trkpt lat="46.0233400" lon="10.3645860">
	<ele>847.40</ele>
	<time>2024-07-24T11:58:03.000Z</time>
</trkpt>
<trkpt lat="46.0233380" lon="10.3645840">
	<ele>847.20</ele>
	<time>2024-07-24T11:58:04.000Z</time>
</trkpt>
<trkpt lat="46.0233350" lon="10.3645800">
	<ele>847.20</ele>
	<time>2024-07-24T11:58:05.000Z</time>
</trkpt>
<trkpt lat="46.0233360" lon="10.3645720">
	<ele>847.20</ele>
	<time>2024-07-24T11:58:06.000Z</time>
</trkpt>
<trkpt lat="46.0233320" lon="10.3645580">
	<ele>847.20</ele>
	<time>2024-07-24T11:58:07.000Z</time>
</trkpt>
<trkpt lat="46.0233310" lon="10.3645530">
	<ele>847.20</ele>
	<time>2024-07-24T11:58:08.000Z</time>
</trkpt>
<trkpt lat="46.0232910" lon="10.3645180">
	<ele>847.20</ele>
	<time>2024-07-24T11:58:09.000Z</time>
</trkpt>
<trkpt lat="46.0232470" lon="10.3644890">
	<ele>847.00</ele>
	<time>2024-07-24T11:58:10.000Z</time>
</trkpt>
<trkpt lat="46.0232230" lon="10.3644710">
	<ele>847.00</ele>
	<time>2024-07-24T11:58:11.000Z</time>
</trkpt>
<trkpt lat="46.0232100" lon="10.3644740">
	<ele>847.00</ele>
	<time>2024-07-24T11:58:12.000Z</time>
</trkpt>
<trkpt lat="46.0232100" lon="10.3644850">
	<ele>846.80</ele>
	<time>2024-07-24T11:58:13.000Z</time>
</trkpt>
<trkpt lat="46.0231790" lon="10.3644740">
	<ele>846.80</ele>
	<time>2024-07-24T11:58:14.000Z</time>
</trkpt>
<trkpt lat="46.0231560" lon="10.3644520">
	<ele>846.60</ele>
	<time>2024-07-24T11:58:15.000Z</time>
</trkpt>
<trkpt lat="46.0231490" lon="10.3644530">
	<ele>846.40</ele>
	<time>2024-07-24T11:58:16.000Z</time>
</trkpt>
<trkpt lat="46.0231500" lon="10.3644760">
	<ele>846.40</ele>
	<time>2024-07-24T11:58:17.000Z</time>
</trkpt>
<trkpt lat="46.0231410" lon="10.3644850">
	<ele>846.20</ele>
	<time>2024-07-24T11:58:18.000Z</time>
</trkpt>
<trkpt lat="46.0231410" lon="10.3645020">
	<ele>846.00</ele>
	<time>2024-07-24T11:58:19.000Z</time>
</trkpt>
<trkpt lat="46.0231370" lon="10.3645170">
	<ele>846.00</ele>
	<time>2024-07-24T11:58:20.000Z</time>
</trkpt>
<trkpt lat="46.0231280" lon="10.3645220">
	<ele>845.80</ele>
	<time>2024-07-24T11:58:21.000Z</time>
</trkpt>
<trkpt lat="46.0231240" lon="10.3645360">
	<ele>845.80</ele>
	<time>2024-07-24T11:58:22.000Z</time>
</trkpt>
<trkpt lat="46.0231230" lon="10.3645500">
	<ele>845.60</ele>
	<time>2024-07-24T11:58:23.000Z</time>
</trkpt>
<trkpt lat="46.0231160" lon="10.3645590">
	<ele>845.60</ele>
	<time>2024-07-24T11:58:24.000Z</time>
</trkpt>
<trkpt lat="46.0231040" lon="10.3645630">
	<ele>845.40</ele>
	<time>2024-07-24T11:58:25.000Z</time>
</trkpt>
<trkpt lat="46.0231090" lon="10.3645800">
	<ele>845.20</ele>
	<time>2024-07-24T11:58:26.000Z</time>
</trkpt>
<trkpt lat="46.0231040" lon="10.3645890">
	<ele>845.20</ele>
	<time>2024-07-24T11:58:27.000Z</time>
</trkpt>
<trkpt lat="46.0230970" lon="10.3645830">
	<ele>845.00</ele>
	<time>2024-07-24T11:58:28.000Z</time>
</trkpt>
<trkpt lat="46.0230890" lon="10.3645850">
	<ele>844.80</ele>
	<time>2024-07-24T11:58:29.000Z</time>
</trkpt>
<trkpt lat="46.0230840" lon="10.3645960">
	<ele>844.60</ele>
	<time>2024-07-24T11:58:30.000Z</time>
</trkpt>
<trkpt lat="46.0230840" lon="10.3646200">
	<ele>844.60</ele>
	<time>2024-07-24T11:58:31.000Z</time>
</trkpt>
<trkpt lat="46.0230770" lon="10.3646400">
	<ele>844.40</ele>
	<time>2024-07-24T11:58:32.000Z</time>
</trkpt>
<trkpt lat="46.0230350" lon="10.3646060">
	<ele>844.20</ele>
	<time>2024-07-24T11:58:33.000Z</time>
</trkpt>
<trkpt lat="46.0230550" lon="10.3646460">
	<ele>844.20</ele>
	<time>2024-07-24T11:58:34.000Z</time>
</trkpt>
<trkpt lat="46.0230530" lon="10.3646630">
	<ele>844.00</ele>
	<time>2024-07-24T11:58:35.000Z</time>
</trkpt>
<trkpt lat="46.0230370" lon="10.3646710">
	<ele>844.00</ele>
	<time>2024-07-24T11:58:36.000Z</time>
</trkpt>
<trkpt lat="46.0230500" lon="10.3647000">
	<ele>843.80</ele>
	<time>2024-07-24T11:58:37.000Z</time>
</trkpt>
<trkpt lat="46.0230700" lon="10.3647300">
	<ele>843.80</ele>
	<time>2024-07-24T11:58:38.000Z</time>
</trkpt>
<trkpt lat="46.0231010" lon="10.3647700">
	<ele>843.80</ele>
	<time>2024-07-24T11:58:39.000Z</time>
</trkpt>
<trkpt lat="46.0231100" lon="10.3647940">
	<ele>843.60</ele>
	<time>2024-07-24T11:58:40.000Z</time>
</trkpt>
<trkpt lat="46.0231270" lon="10.3648170">
	<ele>843.40</ele>
	<time>2024-07-24T11:58:41.000Z</time>
</trkpt>
<trkpt lat="46.0231590" lon="10.3648540">
	<ele>843.20</ele>
	<time>2024-07-24T11:58:42.000Z</time>
</trkpt>
<trkpt lat="46.0231750" lon="10.3648790">
	<ele>843.00</ele>
	<time>2024-07-24T11:58:43.000Z</time>
</trkpt>
<trkpt lat="46.0231630" lon="10.3648760">
	<ele>842.80</ele>
	<time>2024-07-24T11:58:44.000Z</time>
</trkpt>
<trkpt lat="46.0231560" lon="10.3648690">
	<ele>842.80</ele>
	<time>2024-07-24T11:58:45.000Z</time>
</trkpt>
<trkpt lat="46.0231440" lon="10.3648560">
	<ele>842.60</ele>
	<time>2024-07-24T11:58:46.000Z</time>
</trkpt>
<trkpt lat="46.0231230" lon="10.3648330">
	<ele>842.40</ele>
	<time>2024-07-24T11:58:47.000Z</time>
</trkpt>
<trkpt lat="46.0231160" lon="10.3648190">
	<ele>842.20</ele>
	<time>2024-07-24T11:58:48.000Z</time>
</trkpt>
<trkpt lat="46.0231040" lon="10.3648020">
	<ele>842.00</ele>
	<time>2024-07-24T11:58:49.000Z</time>
</trkpt>
<trkpt lat="46.0230970" lon="10.3647840">
	<ele>842.00</ele>
	<time>2024-07-24T11:58:50.000Z</time>
</trkpt>
<trkpt lat="46.0230890" lon="10.3647690">
	<ele>841.80</ele>
	<time>2024-07-24T11:58:51.000Z</time>
</trkpt>
<trkpt lat="46.0230830" lon="10.3647650">
	<ele>841.60</ele>
	<time>2024-07-24T11:58:52.000Z</time>
</trkpt>
<trkpt lat="46.0230740" lon="10.3647650">
	<ele>841.40</ele>
	<time>2024-07-24T11:58:53.000Z</time>
</trkpt>
<trkpt lat="46.0230750" lon="10.3647820">
	<ele>841.40</ele>
	<time>2024-07-24T11:58:54.000Z</time>
</trkpt>
<trkpt lat="46.0230640" lon="10.3647800">
	<ele>841.20</ele>
	<time>2024-07-24T11:58:55.000Z</time>
</trkpt>
<trkpt lat="46.0230530" lon="10.3647750">
	<ele>841.00</ele>
	<time>2024-07-24T11:58:56.000Z</time>
</trkpt>
<trkpt lat="46.0230400" lon="10.3647690">
	<ele>841.00</ele>
	<time>2024-07-24T11:58:57.000Z</time>
</trkpt>
<trkpt lat="46.0230190" lon="10.3647480">
	<ele>840.80</ele>
	<time>2024-07-24T11:58:58.000Z</time>
</trkpt>
<trkpt lat="46.0230120" lon="10.3647510">
	<ele>840.80</ele>
	<time>2024-07-24T11:58:59.000Z</time>
</trkpt>
<trkpt lat="46.0230030" lon="10.3647510">
	<ele>840.60</ele>
	<time>2024-07-24T11:59:00.000Z</time>
</trkpt>
<trkpt lat="46.0229530" lon="10.3647140">
	<ele>840.60</ele>
	<time>2024-07-24T11:59:01.000Z</time>
</trkpt>
<trkpt lat="46.0229080" lon="10.3646710">
	<ele>840.60</ele>
	<time>2024-07-24T11:59:02.000Z</time>
</trkpt>
<trkpt lat="46.0228650" lon="10.3646390">
	<ele>840.40</ele>
	<time>2024-07-24T11:59:03.000Z</time>
</trkpt>
<trkpt lat="46.0228520" lon="10.3646520">
	<ele>840.40</ele>
	<time>2024-07-24T11:59:04.000Z</time>
</trkpt>
<trkpt lat="46.0228470" lon="10.3646690">
	<ele>840.40</ele>
	<time>2024-07-24T11:59:05.000Z</time>
</trkpt>
<trkpt lat="46.0228090" lon="10.3646400">
	<ele>840.20</ele>
	<time>2024-07-24T11:59:06.000Z</time>
</trkpt>
<trkpt lat="46.0228030" lon="10.3646780">
	<ele>840.00</ele>
	<time>2024-07-24T11:59:07.000Z</time>
</trkpt>
<trkpt lat="46.0227800" lon="10.3646750">
	<ele>840.00</ele>
	<time>2024-07-24T11:59:08.000Z</time>
</trkpt>
<trkpt lat="46.0227580" lon="10.3646800">
	<ele>840.00</ele>
	<time>2024-07-24T11:59:09.000Z</time>
</trkpt>
<trkpt lat="46.0227460" lon="10.3646960">
	<ele>839.80</ele>
	<time>2024-07-24T11:59:10.000Z</time>
</trkpt>
<trkpt lat="46.0227310" lon="10.3647080">
	<ele>839.80</ele>
	<time>2024-07-24T11:59:11.000Z</time>
</trkpt>
<trkpt lat="46.0227310" lon="10.3647290">
	<ele>839.80</ele>
	<time>2024-07-24T11:59:12.000Z</time>
</trkpt>
<trkpt lat="46.0227300" lon="10.3647400">
	<ele>839.60</ele>
	<time>2024-07-24T11:59:13.000Z</time>
</trkpt>
<trkpt lat="46.0227260" lon="10.3647420">
	<ele>839.60</ele>
	<time>2024-07-24T11:59:14.000Z</time>
</trkpt>
<trkpt lat="46.0227200" lon="10.3647330">
	<ele>839.40</ele>
	<time>2024-07-24T11:59:15.000Z</time>
</trkpt>
<trkpt lat="46.0227110" lon="10.3647200">
	<ele>839.20</ele>
	<time>2024-07-24T11:59:16.000Z</time>
</trkpt>
<trkpt lat="46.0226990" lon="10.3647020">
	<ele>839.20</ele>
	<time>2024-07-24T11:59:17.000Z</time>
</trkpt>
<trkpt lat="46.0226870" lon="10.3646810">
	<ele>839.20</ele>
	<time>2024-07-24T11:59:18.000Z</time>
</trkpt>
<trkpt lat="46.0226720" lon="10.3646620">
	<ele>839.00</ele>
	<time>2024-07-24T11:59:19.000Z</time>
</trkpt>
<trkpt lat="46.0226560" lon="10.3646370">
	<ele>839.00</ele>
	<time>2024-07-24T11:59:20.000Z</time>
</trkpt>
<trkpt lat="46.0226360" lon="10.3646140">
	<ele>839.00</ele>
	<time>2024-07-24T11:59:21.000Z</time>
</trkpt>
<trkpt lat="46.0226180" lon="10.3646000">
	<ele>839.00</ele>
	<time>2024-07-24T11:59:22.000Z</time>
</trkpt>
<trkpt lat="46.0226050" lon="10.3645900">
	<ele>839.00</ele>
	<time>2024-07-24T11:59:23.000Z</time>
</trkpt>
<trkpt lat="46.0225880" lon="10.3645780">
	<ele>839.00</ele>
	<time>2024-07-24T11:59:24.000Z</time>
</trkpt>
<trkpt lat="46.0225810" lon="10.3645820">
	<ele>838.80</ele>
	<time>2024-07-24T11:59:25.000Z</time>
</trkpt>
<trkpt lat="46.0225800" lon="10.3645850">
	<ele>838.80</ele>
	<time>2024-07-24T11:59:26.000Z</time>
</trkpt>
<trkpt lat="46.0225780" lon="10.3645940">
	<ele>838.80</ele>
	<time>2024-07-24T11:59:27.000Z</time>
</trkpt>
<trkpt lat="46.0225670" lon="10.3645940">
	<ele>838.80</ele>
	<time>2024-07-24T11:59:28.000Z</time>
</trkpt>
<trkpt lat="46.0225590" lon="10.3645970">
	<ele>838.80</ele>
	<time>2024-07-24T11:59:29.000Z</time>
</trkpt>
<trkpt lat="46.0225430" lon="10.3645940">
	<ele>838.80</ele>
	<time>2024-07-24T11:59:30.000Z</time>
</trkpt>
<trkpt lat="46.0225220" lon="10.3645840">
	<ele>838.80</ele>
	<time>2024-07-24T11:59:31.000Z</time>
</trkpt>
<trkpt lat="46.0225080" lon="10.3645720">
	<ele>838.60</ele>
	<time>2024-07-24T11:59:32.000Z</time>
</trkpt>
<trkpt lat="46.0225010" lon="10.3645690">
	<ele>838.40</ele>
	<time>2024-07-24T11:59:33.000Z</time>
</trkpt>
<trkpt lat="46.0224940" lon="10.3645660">
	<ele>838.40</ele>
	<time>2024-07-24T11:59:34.000Z</time>
</trkpt>
<trkpt lat="46.0224860" lon="10.3645660">
	<ele>838.20</ele>
	<time>2024-07-24T11:59:35.000Z</time>
</trkpt>
<trkpt lat="46.0224810" lon="10.3645680">
	<ele>838.20</ele>
	<time>2024-07-24T11:59:36.000Z</time>
</trkpt>
<trkpt lat="46.0224740" lon="10.3645710">
	<ele>838.20</ele>
	<time>2024-07-24T11:59:37.000Z</time>
</trkpt>
<trkpt lat="46.0224570" lon="10.3645630">
	<ele>838.20</ele>
	<time>2024-07-24T11:59:38.000Z</time>
</trkpt>
<trkpt lat="46.0224460" lon="10.3645650">
	<ele>838.20</ele>
	<time>2024-07-24T11:59:39.000Z</time>
</trkpt>
<trkpt lat="46.0224420" lon="10.3645670">
	<ele>838.00</ele>
	<time>2024-07-24T11:59:40.000Z</time>
</trkpt>
<trkpt lat="46.0224290" lon="10.3645610">
	<ele>838.00</ele>
	<time>2024-07-24T11:59:41.000Z</time>
</trkpt>
<trkpt lat="46.0224150" lon="10.3645500">
	<ele>837.80</ele>
	<time>2024-07-24T11:59:42.000Z</time>
</trkpt>
<trkpt lat="46.0224060" lon="10.3645460">
	<ele>837.80</ele>
	<time>2024-07-24T11:59:43.000Z</time>
</trkpt>
<trkpt lat="46.0223970" lon="10.3645380">
	<ele>837.60</ele>
	<time>2024-07-24T11:59:44.000Z</time>
</trkpt>
<trkpt lat="46.0223900" lon="10.3645420">
	<ele>837.60</ele>
	<time>2024-07-24T11:59:45.000Z</time>
</trkpt>
<trkpt lat="46.0223880" lon="10.3645370">
	<ele>837.40</ele>
	<time>2024-07-24T11:59:46.000Z</time>
</trkpt>
<trkpt lat="46.0223860" lon="10.3645330">
	<ele>837.20</ele>
	<time>2024-07-24T11:59:47.000Z</time>
</trkpt>
<trkpt lat="46.0223700" lon="10.3645210">
	<ele>837.20</ele>
	<time>2024-07-24T11:59:48.000Z</time>
</trkpt>
<trkpt lat="46.0223490" lon="10.3644920">
	<ele>837.00</ele>
	<time>2024-07-24T11:59:49.000Z</time>
</trkpt>
<trkpt lat="46.0223320" lon="10.3644780">
	<ele>836.80</ele>
	<time>2024-07-24T11:59:50.000Z</time>
</trkpt>
<trkpt lat="46.0223180" lon="10.3644690">
	<ele>836.60</ele>
	<time>2024-07-24T11:59:51.000Z</time>
</trkpt>
<trkpt lat="46.0223000" lon="10.3644550">
	<ele>836.60</ele>
	<time>2024-07-24T11:59:52.000Z</time>
</trkpt>
<trkpt lat="46.0222840" lon="10.3644500">
	<ele>836.60</ele>
	<time>2024-07-24T11:59:53.000Z</time>
</trkpt>
<trkpt lat="46.0222700" lon="10.3644420">
	<ele>836.60</ele>
	<time>2024-07-24T11:59:54.000Z</time>
</trkpt>
<trkpt lat="46.0222620" lon="10.3644340">
	<ele>836.40</ele>
	<time>2024-07-24T11:59:55.000Z</time>
</trkpt>
<trkpt lat="46.0222500" lon="10.3644180">
	<ele>836.40</ele>
	<time>2024-07-24T11:59:56.000Z</time>
</trkpt>
<trkpt lat="46.0222380" lon="10.3644130">
	<ele>836.40</ele>
	<time>2024-07-24T11:59:57.000Z</time>
</trkpt>
<trkpt lat="46.0222260" lon="10.3644080">
	<ele>836.20</ele>
	<time>2024-07-24T11:59:58.000Z</time>
</trkpt>
<trkpt lat="46.0222140" lon="10.3644020">
	<ele>836.00</ele>
	<time>2024-07-24T11:59:59.000Z</time>
</trkpt>
<trkpt lat="46.0222050" lon="10.3643950">
	<ele>836.00</ele>
	<time>2024-07-24T12:00:00.000Z</time>
</trkpt>
<trkpt lat="46.0221930" lon="10.3643900">
	<ele>835.80</ele>
	<time>2024-07-24T12:00:01.000Z</time>
</trkpt>
<trkpt lat="46.0221810" lon="10.3643890">
	<ele>835.80</ele>
	<time>2024-07-24T12:00:02.000Z</time>
</trkpt>
<trkpt lat="46.0221670" lon="10.3643940">
	<ele>835.60</ele>
	<time>2024-07-24T12:00:03.000Z</time>
</trkpt>
<trkpt lat="46.0221560" lon="10.3643900">
	<ele>835.60</ele>
	<time>2024-07-24T12:00:04.000Z</time>
</trkpt>
<trkpt lat="46.0221450" lon="10.3643850">
	<ele>835.40</ele>
	<time>2024-07-24T12:00:05.000Z</time>
</trkpt>
<trkpt lat="46.0221340" lon="10.3643790">
	<ele>835.40</ele>
	<time>2024-07-24T12:00:06.000Z</time>
</trkpt>
<trkpt lat="46.0221240" lon="10.3643760">
	<ele>835.20</ele>
	<time>2024-07-24T12:00:07.000Z</time>
</trkpt>
<trkpt lat="46.0221140" lon="10.3643740">
	<ele>835.20</ele>
	<time>2024-07-24T12:00:08.000Z</time>
</trkpt>
<trkpt lat="46.0221050" lon="10.3643710">
	<ele>835.20</ele>
	<time>2024-07-24T12:00:09.000Z</time>
</trkpt>
<trkpt lat="46.0220930" lon="10.3643650">
	<ele>835.20</ele>
	<time>2024-07-24T12:00:10.000Z</time>
</trkpt>
<trkpt lat="46.0220820" lon="10.3643620">
	<ele>835.00</ele>
	<time>2024-07-24T12:00:11.000Z</time>
</trkpt>
<trkpt lat="46.0220710" lon="10.3643560">
	<ele>835.00</ele>
	<time>2024-07-24T12:00:12.000Z</time>
</trkpt>
<trkpt lat="46.0220590" lon="10.3643500">
	<ele>835.00</ele>
	<time>2024-07-24T12:00:13.000Z</time>
</trkpt>
<trkpt lat="46.0220550" lon="10.3643450">
	<ele>835.00</ele>
	<time>2024-07-24T12:00:14.000Z</time>
</trkpt>
<trkpt lat="46.0220460" lon="10.3643380">
	<ele>834.80</ele>
	<time>2024-07-24T12:00:15.000Z</time>
</trkpt>
<trkpt lat="46.0220350" lon="10.3643290">
	<ele>834.80</ele>
	<time>2024-07-24T12:00:16.000Z</time>
</trkpt>
<trkpt lat="46.0220260" lon="10.3643180">
	<ele>834.60</ele>
	<time>2024-07-24T12:00:17.000Z</time>
</trkpt>
<trkpt lat="46.0220210" lon="10.3643090">
	<ele>834.60</ele>
	<time>2024-07-24T12:00:18.000Z</time>
</trkpt>
<trkpt lat="46.0220180" lon="10.3643060">
	<ele>834.40</ele>
	<time>2024-07-24T12:00:19.000Z</time>
</trkpt>
<trkpt lat="46.0220090" lon="10.3643020">
	<ele>834.40</ele>
	<time>2024-07-24T12:00:20.000Z</time>
</trkpt>
<trkpt lat="46.0219980" lon="10.3642990">
	<ele>834.20</ele>
	<time>2024-07-24T12:00:21.000Z</time>
</trkpt>
<trkpt lat="46.0219810" lon="10.3642940">
	<ele>834.20</ele>
	<time>2024-07-24T12:00:22.000Z</time>
</trkpt>
<trkpt lat="46.0219640" lon="10.3642850">
	<ele>834.00</ele>
	<time>2024-07-24T12:00:23.000Z</time>
</trkpt>
<trkpt lat="46.0219530" lon="10.3642820">
	<ele>834.00</ele>
	<time>2024-07-24T12:00:24.000Z</time>
</trkpt>
<trkpt lat="46.0219490" lon="10.3642820">
	<ele>833.80</ele>
	<time>2024-07-24T12:00:25.000Z</time>
</trkpt>
<trkpt lat="46.0219430" lon="10.3642890">
	<ele>833.80</ele>
	<time>2024-07-24T12:00:26.000Z</time>
</trkpt>
<trkpt lat="46.0219420" lon="10.3642930">
	<ele>833.80</ele>
	<time>2024-07-24T12:00:27.000Z</time>
</trkpt>
<trkpt lat="46.0219390" lon="10.3642980">
	<ele>833.60</ele>
	<time>2024-07-24T12:00:28.000Z</time>
</trkpt>
<trkpt lat="46.0219420" lon="10.3643080">
	<ele>833.60</ele>
	<time>2024-07-24T12:00:29.000Z</time>
</trkpt>
<trkpt lat="46.0219440" lon="10.3643160">
	<ele>833.60</ele>
	<time>2024-07-24T12:00:30.000Z</time>
</trkpt>
<trkpt lat="46.0219440" lon="10.3643100">
	<ele>833.40</ele>
	<time>2024-07-24T12:00:31.000Z</time>
</trkpt>
<trkpt lat="46.0219530" lon="10.3642980">
	<ele>833.20</ele>
	<time>2024-07-24T12:00:32.000Z</time>
</trkpt>
<trkpt lat="46.0219620" lon="10.3642970">
	<ele>833.20</ele>
	<time>2024-07-24T12:00:33.000Z</time>
</trkpt>
<trkpt lat="46.0219570" lon="10.3642840">
	<ele>833.00</ele>
	<time>2024-07-24T12:00:34.000Z</time>
</trkpt>
<trkpt lat="46.0219430" lon="10.3642720">
	<ele>833.00</ele>
	<time>2024-07-24T12:00:35.000Z</time>
</trkpt>
<trkpt lat="46.0219250" lon="10.3642590">
	<ele>832.80</ele>
	<time>2024-07-24T12:00:36.000Z</time>
</trkpt>
<trkpt lat="46.0219060" lon="10.3642480">
	<ele>832.80</ele>
	<time>2024-07-24T12:00:37.000Z</time>
</trkpt>
<trkpt lat="46.0218890" lon="10.3642400">
	<ele>832.60</ele>
	<time>2024-07-24T12:00:38.000Z</time>
</trkpt>
<trkpt lat="46.0218720" lon="10.3642320">
	<ele>832.60</ele>
	<time>2024-07-24T12:00:39.000Z</time>
</trkpt>
<trkpt lat="46.0218610" lon="10.3642310">
	<ele>832.40</ele>
	<time>2024-07-24T12:00:40.000Z</time>
</trkpt>
<trkpt lat="46.0218470" lon="10.3642240">
	<ele>832.40</ele>
	<time>2024-07-24T12:00:41.000Z</time>
</trkpt>
<trkpt lat="46.0218290" lon="10.3642090">
	<ele>832.20</ele>
	<time>2024-07-24T12:00:42.000Z</time>
</trkpt>
<trkpt lat="46.0218090" lon="10.3641930">
	<ele>832.20</ele>
	<time>2024-07-24T12:00:43.000Z</time>
</trkpt>
<trkpt lat="46.0217870" lon="10.3641760">
	<ele>832.20</ele>
	<time>2024-07-24T12:00:44.000Z</time>
</trkpt>
<trkpt lat="46.0217690" lon="10.3641620">
	<ele>832.00</ele>
	<time>2024-07-24T12:00:45.000Z</time>
</trkpt>
<trkpt lat="46.0217650" lon="10.3641570">
	<ele>832.00</ele>
	<time>2024-07-24T12:00:46.000Z</time>
</trkpt>
<trkpt lat="46.0217480" lon="10.3641500">
	<ele>832.00</ele>
	<time>2024-07-24T12:00:47.000Z</time>
</trkpt>
<trkpt lat="46.0217310" lon="10.3641430">
	<ele>832.00</ele>
	<time>2024-07-24T12:00:48.000Z</time>
</trkpt>
<trkpt lat="46.0217110" lon="10.3641270">
	<ele>831.80</ele>
	<time>2024-07-24T12:00:49.000Z</time>
</trkpt>
<trkpt lat="46.0216890" lon="10.3641100">
	<ele>831.60</ele>
	<time>2024-07-24T12:00:50.000Z</time>
</trkpt>
<trkpt lat="46.0216800" lon="10.3641010">
	<ele>831.40</ele>
	<time>2024-07-24T12:00:51.000Z</time>
</trkpt>
<trkpt lat="46.0216760" lon="10.3640970">
	<ele>831.20</ele>
	<time>2024-07-24T12:00:52.000Z</time>
</trkpt>
<trkpt lat="46.0216760" lon="10.3640910">
	<ele>831.00</ele>
	<time>2024-07-24T12:00:53.000Z</time>
</trkpt>
<trkpt lat="46.0216730" lon="10.3640810">
	<ele>830.80</ele>
	<time>2024-07-24T12:00:54.000Z</time>
</trkpt>
<trkpt lat="46.0216690" lon="10.3640650">
	<ele>830.60</ele>
	<time>2024-07-24T12:00:55.000Z</time>
</trkpt>
<trkpt lat="46.0216570" lon="10.3640390">
	<ele>830.60</ele>
	<time>2024-07-24T12:00:56.000Z</time>
</trkpt>
<trkpt lat="46.0216590" lon="10.3640250">
	<ele>830.40</ele>
	<time>2024-07-24T12:00:57.000Z</time>
</trkpt>
<trkpt lat="46.0216590" lon="10.3640110">
	<ele>830.40</ele>
	<time>2024-07-24T12:00:58.000Z</time>
</trkpt>
<trkpt lat="46.0216660" lon="10.3640070">
	<ele>830.20</ele>
	<time>2024-07-24T12:00:59.000Z</time>
</trkpt>
<trkpt lat="46.0216780" lon="10.3640070">
	<ele>830.00</ele>
	<time>2024-07-24T12:01:00.000Z</time>
</trkpt>
<trkpt lat="46.0216810" lon="10.3639940">
	<ele>829.80</ele>
	<time>2024-07-24T12:01:01.000Z</time>
</trkpt>
<trkpt lat="46.0216780" lon="10.3639770">
	<ele>829.60</ele>
	<time>2024-07-24T12:01:02.000Z</time>
</trkpt>
<trkpt lat="46.0216890" lon="10.3639770">
	<ele>829.20</ele>
	<time>2024-07-24T12:01:03.000Z</time>
</trkpt>
<trkpt lat="46.0217010" lon="10.3639790">
	<ele>829.00</ele>
	<time>2024-07-24T12:01:04.000Z</time>
</trkpt>
<trkpt lat="46.0217090" lon="10.3639770">
	<ele>828.80</ele>
	<time>2024-07-24T12:01:05.000Z</time>
</trkpt>
<trkpt lat="46.0217150" lon="10.3639720">
	<ele>828.80</ele>
	<time>2024-07-24T12:01:06.000Z</time>
</trkpt>
<trkpt lat="46.0217280" lon="10.3639750">
	<ele>828.60</ele>
	<time>2024-07-24T12:01:07.000Z</time>
</trkpt>
<trkpt lat="46.0217420" lon="10.3639790">
	<ele>828.60</ele>
	<time>2024-07-24T12:01:08.000Z</time>
</trkpt>
<trkpt lat="46.0217550" lon="10.3639830">
	<ele>828.20</ele>
	<time>2024-07-24T12:01:09.000Z</time>
</trkpt>
<trkpt lat="46.0217680" lon="10.3639900">
	<ele>828.00</ele>
	<time>2024-07-24T12:01:10.000Z</time>
</trkpt>
<trkpt lat="46.0217790" lon="10.3639950">
	<ele>828.00</ele>
	<time>2024-07-24T12:01:11.000Z</time>
</trkpt>
<trkpt lat="46.0217870" lon="10.3639960">
	<ele>828.00</ele>
	<time>2024-07-24T12:01:12.000Z</time>
</trkpt>
<trkpt lat="46.0218020" lon="10.3640040">
	<ele>828.00</ele>
	<time>2024-07-24T12:01:13.000Z</time>
</trkpt>
<trkpt lat="46.0218140" lon="10.3640030">
	<ele>828.00</ele>
	<time>2024-07-24T12:01:14.000Z</time>
</trkpt>
<trkpt lat="46.0218230" lon="10.3639990">
	<ele>828.00</ele>
	<time>2024-07-24T12:01:15.000Z</time>
</trkpt>
<trkpt lat="46.0218320" lon="10.3639960">
	<ele>828.00</ele>
	<time>2024-07-24T12:01:16.000Z</time>
</trkpt>
<trkpt lat="46.0218380" lon="10.3639900">
	<ele>828.00</ele>
	<time>2024-07-24T12:01:17.000Z</time>
</trkpt>
<trkpt lat="46.0218460" lon="10.3639890">
	<ele>828.00</ele>
	<time>2024-07-24T12:01:18.000Z</time>
</trkpt>
<trkpt lat="46.0218540" lon="10.3639870">
	<ele>827.80</ele>
	<time>2024-07-24T12:01:19.000Z</time>
</trkpt>
<trkpt lat="46.0218630" lon="10.3639880">
	<ele>827.80</ele>
	<time>2024-07-24T12:01:20.000Z</time>
</trkpt>
<trkpt lat="46.0218740" lon="10.3639870">
	<ele>827.60</ele>
	<time>2024-07-24T12:01:21.000Z</time>
</trkpt>
<trkpt lat="46.0218810" lon="10.3639850">
	<ele>827.60</ele>
	<time>2024-07-24T12:01:22.000Z</time>
</trkpt>
<trkpt lat="46.0218900" lon="10.3639850">
	<ele>827.40</ele>
	<time>2024-07-24T12:01:23.000Z</time>
</trkpt>
<trkpt lat="46.0218880" lon="10.3639730">
	<ele>827.40</ele>
	<time>2024-07-24T12:01:24.000Z</time>
</trkpt>
<trkpt lat="46.0218830" lon="10.3639580">
	<ele>827.20</ele>
	<time>2024-07-24T12:01:25.000Z</time>
</trkpt>
<trkpt lat="46.0218860" lon="10.3639510">
	<ele>827.00</ele>
	<time>2024-07-24T12:01:26.000Z</time>
</trkpt>
<trkpt lat="46.0219010" lon="10.3639530">
	<ele>827.00</ele>
	<time>2024-07-24T12:01:27.000Z</time>
</trkpt>
<trkpt lat="46.0219200" lon="10.3639600">
	<ele>826.80</ele>
	<time>2024-07-24T12:01:28.000Z</time>
</trkpt>
<trkpt lat="46.0219290" lon="10.3639580">
	<ele>826.60</ele>
	<time>2024-07-24T12:01:29.000Z</time>
</trkpt>
<trkpt lat="46.0219430" lon="10.3639650">
	<ele>826.60</ele>
	<time>2024-07-24T12:01:30.000Z</time>
</trkpt>
<trkpt lat="46.0219620" lon="10.3639760">
	<ele>826.40</ele>
	<time>2024-07-24T12:01:31.000Z</time>
</trkpt>
<trkpt lat="46.0219760" lon="10.3639810">
	<ele>826.40</ele>
	<time>2024-07-24T12:01:32.000Z</time>
</trkpt>
<trkpt lat="46.0219870" lon="10.3639770">
	<ele>826.20</ele>
	<time>2024-07-24T12:01:33.000Z</time>
</trkpt>
<trkpt lat="46.0220000" lon="10.3639780">
	<ele>826.20</ele>
	<time>2024-07-24T12:01:34.000Z</time>
</trkpt>
<trkpt lat="46.0220060" lon="10.3639710">
	<ele>826.20</ele>
	<time>2024-07-24T12:01:35.000Z</time>
</trkpt>
<trkpt lat="46.0220090" lon="10.3639600">
	<ele>826.00</ele>
	<time>2024-07-24T12:01:36.000Z</time>
</trkpt>
<trkpt lat="46.0220130" lon="10.3639550">
	<ele>825.80</ele>
	<time>2024-07-24T12:01:37.000Z</time>
</trkpt>
<trkpt lat="46.0220230" lon="10.3639590">
	<ele>825.80</ele>
	<time>2024-07-24T12:01:38.000Z</time>
</trkpt>
<trkpt lat="46.0220400" lon="10.3639640">
	<ele>825.60</ele>
	<time>2024-07-24T12:01:39.000Z</time>
</trkpt>
<trkpt lat="46.0220570" lon="10.3639680">
	<ele>825.60</ele>
	<time>2024-07-24T12:01:40.000Z</time>
</trkpt>
<trkpt lat="46.0220670" lon="10.3639630">
	<ele>825.40</ele>
	<time>2024-07-24T12:01:41.000Z</time>
</trkpt>
<trkpt lat="46.0220800" lon="10.3639590">
	<ele>825.40</ele>
	<time>2024-07-24T12:01:42.000Z</time>
</trkpt>
<trkpt lat="46.0220980" lon="10.3639620">
	<ele>825.40</ele>
	<time>2024-07-24T12:01:43.000Z</time>
</trkpt>
<trkpt lat="46.0221130" lon="10.3639710">
	<ele>825.20</ele>
	<time>2024-07-24T12:01:44.000Z</time>
</trkpt>
<trkpt lat="46.0221290" lon="10.3639780">
	<ele>825.00</ele>
	<time>2024-07-24T12:01:45.000Z</time>
</trkpt>
<trkpt lat="46.0221400" lon="10.3639790">
	<ele>824.80</ele>
	<time>2024-07-24T12:01:46.000Z</time>
</trkpt>
<trkpt lat="46.0221500" lon="10.3639770">
	<ele>824.60</ele>
	<time>2024-07-24T12:01:47.000Z</time>
</trkpt>
<trkpt lat="46.0221610" lon="10.3639780">
	<ele>824.60</ele>
	<time>2024-07-24T12:01:48.000Z</time>
</trkpt>
<trkpt lat="46.0221740" lon="10.3639810">
	<ele>824.40</ele>
	<time>2024-07-24T12:01:49.000Z</time>
</trkpt>
<trkpt lat="46.0221860" lon="10.3639790">
	<ele>824.20</ele>
	<time>2024-07-24T12:01:50.000Z</time>
</trkpt>
<trkpt lat="46.0221910" lon="10.3639740">
	<ele>824.20</ele>
	<time>2024-07-24T12:01:51.000Z</time>
</trkpt>
<trkpt lat="46.0221970" lon="10.3639680">
	<ele>824.00</ele>
	<time>2024-07-24T12:01:52.000Z</time>
</trkpt>
<trkpt lat="46.0222070" lon="10.3639680">
	<ele>824.00</ele>
	<time>2024-07-24T12:01:53.000Z</time>
</trkpt>
<trkpt lat="46.0222190" lon="10.3639710">
	<ele>823.80</ele>
	<time>2024-07-24T12:01:54.000Z</time>
</trkpt>
<trkpt lat="46.0222290" lon="10.3639750">
	<ele>823.80</ele>
	<time>2024-07-24T12:01:55.000Z</time>
</trkpt>
<trkpt lat="46.0222410" lon="10.3639800">
	<ele>823.60</ele>
	<time>2024-07-24T12:01:56.000Z</time>
</trkpt>
<trkpt lat="46.0222570" lon="10.3639840">
	<ele>823.60</ele>
	<time>2024-07-24T12:01:57.000Z</time>
</trkpt>
<trkpt lat="46.0222730" lon="10.3639850">
	<ele>823.40</ele>
	<time>2024-07-24T12:01:58.000Z</time>
</trkpt>
<trkpt lat="46.0222890" lon="10.3639880">
	<ele>823.40</ele>
	<time>2024-07-24T12:01:59.000Z</time>
</trkpt>
<trkpt lat="46.0223020" lon="10.3639890">
	<ele>823.40</ele>
	<time>2024-07-24T12:02:00.000Z</time>
</trkpt>
<trkpt lat="46.0223150" lon="10.3639910">
	<ele>823.20</ele>
	<time>2024-07-24T12:02:01.000Z</time>
</trkpt>
<trkpt lat="46.0223270" lon="10.3639920">
	<ele>823.20</ele>
	<time>2024-07-24T12:02:02.000Z</time>
</trkpt>
<trkpt lat="46.0223360" lon="10.3639870">
	<ele>823.00</ele>
	<time>2024-07-24T12:02:03.000Z</time>
</trkpt>
<trkpt lat="46.0223500" lon="10.3639850">
	<ele>822.80</ele>
	<time>2024-07-24T12:02:04.000Z</time>
</trkpt>
<trkpt lat="46.0223630" lon="10.3639800">
	<ele>822.60</ele>
	<time>2024-07-24T12:02:05.000Z</time>
</trkpt>
<trkpt lat="46.0223820" lon="10.3639850">
	<ele>822.60</ele>
	<time>2024-07-24T12:02:06.000Z</time>
</trkpt>
<trkpt lat="46.0224040" lon="10.3639960">
	<ele>822.40</ele>
	<time>2024-07-24T12:02:07.000Z</time>
</trkpt>
<trkpt lat="46.0224210" lon="10.3640010">
	<ele>822.20</ele>
	<time>2024-07-24T12:02:08.000Z</time>
</trkpt>
<trkpt lat="46.0224370" lon="10.3639990">
	<ele>822.00</ele>
	<time>2024-07-24T12:02:09.000Z</time>
</trkpt>
<trkpt lat="46.0224490" lon="10.3639930">
	<ele>822.00</ele>
	<time>2024-07-24T12:02:10.000Z</time>
</trkpt>
<trkpt lat="46.0224650" lon="10.3639890">
	<ele>821.80</ele>
	<time>2024-07-24T12:02:11.000Z</time>
</trkpt>
<trkpt lat="46.0224750" lon="10.3639770">
	<ele>821.60</ele>
	<time>2024-07-24T12:02:12.000Z</time>
</trkpt>
<trkpt lat="46.0224830" lon="10.3639710">
	<ele>821.40</ele>
	<time>2024-07-24T12:02:13.000Z</time>
</trkpt>
<trkpt lat="46.0224950" lon="10.3639650">
	<ele>821.20</ele>
	<time>2024-07-24T12:02:14.000Z</time>
</trkpt>
<trkpt lat="46.0225040" lon="10.3639560">
	<ele>821.20</ele>
	<time>2024-07-24T12:02:15.000Z</time>
</trkpt>
<trkpt lat="46.0225090" lon="10.3639440">
	<ele>820.80</ele>
	<time>2024-07-24T12:02:16.000Z</time>
</trkpt>
<trkpt lat="46.0225130" lon="10.3639340">
	<ele>820.80</ele>
	<time>2024-07-24T12:02:17.000Z</time>
</trkpt>
<trkpt lat="46.0225250" lon="10.3639290">
	<ele>820.60</ele>
	<time>2024-07-24T12:02:18.000Z</time>
</trkpt>
<trkpt lat="46.0225400" lon="10.3639270">
	<ele>820.40</ele>
	<time>2024-07-24T12:02:19.000Z</time>
</trkpt>
<trkpt lat="46.0225560" lon="10.3639250">
	<ele>820.20</ele>
	<time>2024-07-24T12:02:20.000Z</time>
</trkpt>
<trkpt lat="46.0225700" lon="10.3639170">
	<ele>820.20</ele>
	<time>2024-07-24T12:02:21.000Z</time>
</trkpt>
<trkpt lat="46.0225800" lon="10.3639080">
	<ele>820.20</ele>
	<time>2024-07-24T12:02:22.000Z</time>
</trkpt>
<trkpt lat="46.0225920" lon="10.3639020">
	<ele>819.80</ele>
	<time>2024-07-24T12:02:23.000Z</time>
</trkpt>
<trkpt lat="46.0226120" lon="10.3639120">
	<ele>819.60</ele>
	<time>2024-07-24T12:02:24.000Z</time>
</trkpt>
<trkpt lat="46.0226300" lon="10.3639190">
	<ele>819.60</ele>
	<time>2024-07-24T12:02:25.000Z</time>
</trkpt>
<trkpt lat="46.0226460" lon="10.3639220">
	<ele>819.40</ele>
	<time>2024-07-24T12:02:26.000Z</time>
</trkpt>
<trkpt lat="46.0226630" lon="10.3639220">
	<ele>819.20</ele>
	<time>2024-07-24T12:02:27.000Z</time>
</trkpt>
<trkpt lat="46.0226720" lon="10.3639180">
	<ele>819.00</ele>
	<time>2024-07-24T12:02:28.000Z</time>
</trkpt>
<trkpt lat="46.0226850" lon="10.3639170">
	<ele>819.00</ele>
	<time>2024-07-24T12:02:29.000Z</time>
</trkpt>
<trkpt lat="46.0227010" lon="10.3639120">
	<ele>819.00</ele>
	<time>2024-07-24T12:02:30.000Z</time>
</trkpt>
<trkpt lat="46.0227110" lon="10.3639030">
	<ele>819.00</ele>
	<time>2024-07-24T12:02:31.000Z</time>
</trkpt>
<trkpt lat="46.0227260" lon="10.3639020">
	<ele>818.80</ele>
	<time>2024-07-24T12:02:32.000Z</time>
</trkpt>
<trkpt lat="46.0227390" lon="10.3638960">
	<ele>818.80</ele>
	<time>2024-07-24T12:02:33.000Z</time>
</trkpt>
<trkpt lat="46.0227450" lon="10.3638860">
	<ele>818.60</ele>
	<time>2024-07-24T12:02:34.000Z</time>
</trkpt>
<trkpt lat="46.0227500" lon="10.3638760">
	<ele>818.60</ele>
	<time>2024-07-24T12:02:35.000Z</time>
</trkpt>
<trkpt lat="46.0227590" lon="10.3638690">
	<ele>818.40</ele>
	<time>2024-07-24T12:02:36.000Z</time>
</trkpt>
<trkpt lat="46.0227690" lon="10.3638670">
	<ele>818.40</ele>
	<time>2024-07-24T12:02:37.000Z</time>
</trkpt>
<trkpt lat="46.0227800" lon="10.3638650">
	<ele>818.20</ele>
	<time>2024-07-24T12:02:38.000Z</time>
</trkpt>
<trkpt lat="46.0227920" lon="10.3638620">
	<ele>818.20</ele>
	<time>2024-07-24T12:02:39.000Z</time>
</trkpt>
<trkpt lat="46.0228010" lon="10.3638540">
	<ele>818.00</ele>
	<time>2024-07-24T12:02:40.000Z</time>
</trkpt>
<trkpt lat="46.0228130" lon="10.3638470">
	<ele>818.00</ele>
	<time>2024-07-24T12:02:41.000Z</time>
</trkpt>
<trkpt lat="46.0228240" lon="10.3638370">
	<ele>817.80</ele>
	<time>2024-07-24T12:02:42.000Z</time>
</trkpt>
<trkpt lat="46.0228380" lon="10.3638310">
	<ele>817.60</ele>
	<time>2024-07-24T12:02:43.000Z</time>
</trkpt>
<trkpt lat="46.0228550" lon="10.3638220">
	<ele>817.60</ele>
	<time>2024-07-24T12:02:44.000Z</time>
</trkpt>
<trkpt lat="46.0228670" lon="10.3638100">
	<ele>817.40</ele>
	<time>2024-07-24T12:02:45.000Z</time>
</trkpt>
<trkpt lat="46.0228810" lon="10.3638030">
	<ele>817.40</ele>
	<time>2024-07-24T12:02:46.000Z</time>
</trkpt>
<trkpt lat="46.0228940" lon="10.3638020">
	<ele>817.20</ele>
	<time>2024-07-24T12:02:47.000Z</time>
</trkpt>
<trkpt lat="46.0229050" lon="10.3637970">
	<ele>817.00</ele>
	<time>2024-07-24T12:02:48.000Z</time>
</trkpt>
<trkpt lat="46.0229180" lon="10.3637940">
	<ele>817.00</ele>
	<time>2024-07-24T12:02:49.000Z</time>
</trkpt>
<trkpt lat="46.0229320" lon="10.3637930">
	<ele>816.80</ele>
	<time>2024-07-24T12:02:50.000Z</time>
</trkpt>
<trkpt lat="46.0229340" lon="10.3637780">
	<ele>816.80</ele>
	<time>2024-07-24T12:02:51.000Z</time>
</trkpt>
<trkpt lat="46.0229470" lon="10.3637730">
	<ele>816.60</ele>
	<time>2024-07-24T12:02:52.000Z</time>
</trkpt>
<trkpt lat="46.0229570" lon="10.3637620">
	<ele>816.60</ele>
	<time>2024-07-24T12:02:53.000Z</time>
</trkpt>
<trkpt lat="46.0229670" lon="10.3637510">
	<ele>816.40</ele>
	<time>2024-07-24T12:02:54.000Z</time>
</trkpt>
<trkpt lat="46.0229760" lon="10.3637370">
	<ele>816.40</ele>
	<time>2024-07-24T12:02:55.000Z</time>
</trkpt>
<trkpt lat="46.0229860" lon="10.3637270">
	<ele>816.20</ele>
	<time>2024-07-24T12:02:56.000Z</time>
</trkpt>
<trkpt lat="46.0229900" lon="10.3637120">
	<ele>816.00</ele>
	<time>2024-07-24T12:02:57.000Z</time>
</trkpt>
<trkpt lat="46.0229970" lon="10.3637000">
	<ele>815.80</ele>
	<time>2024-07-24T12:02:58.000Z</time>
</trkpt>
<trkpt lat="46.0230070" lon="10.3636840">
	<ele>815.80</ele>
	<time>2024-07-24T12:02:59.000Z</time>
</trkpt>
<trkpt lat="46.0230160" lon="10.3636690">
	<ele>815.60</ele>
	<time>2024-07-24T12:03:00.000Z</time>
</trkpt>
<trkpt lat="46.0230240" lon="10.3636580">
	<ele>815.40</ele>
	<time>2024-07-24T12:03:01.000Z</time>
</trkpt>
<trkpt lat="46.0230320" lon="10.3636490">
	<ele>815.20</ele>
	<time>2024-07-24T12:03:02.000Z</time>
</trkpt>
<trkpt lat="46.0230390" lon="10.3636390">
	<ele>815.20</ele>
	<time>2024-07-24T12:03:03.000Z</time>
</trkpt>
<trkpt lat="46.0230490" lon="10.3636310">
	<ele>815.00</ele>
	<time>2024-07-24T12:03:04.000Z</time>
</trkpt>
<trkpt lat="46.0230600" lon="10.3636300">
	<ele>815.00</ele>
	<time>2024-07-24T12:03:05.000Z</time>
</trkpt>
<trkpt lat="46.0230730" lon="10.3636280">
	<ele>814.80</ele>
	<time>2024-07-24T12:03:06.000Z</time>
</trkpt>
<trkpt lat="46.0230830" lon="10.3636190">
	<ele>814.60</ele>
	<time>2024-07-24T12:03:07.000Z</time>
</trkpt>
<trkpt lat="46.0230910" lon="10.3636120">
	<ele>814.40</ele>
	<time>2024-07-24T12:03:08.000Z</time>
</trkpt>
<trkpt lat="46.0230970" lon="10.3636030">
	<ele>814.20</ele>
	<time>2024-07-24T12:03:09.000Z</time>
</trkpt>
<trkpt lat="46.0231130" lon="10.3635970">
	<ele>814.20</ele>
	<time>2024-07-24T12:03:10.000Z</time>
</trkpt>
<trkpt lat="46.0231270" lon="10.3635920">
	<ele>814.00</ele>
	<time>2024-07-24T12:03:11.000Z</time>
</trkpt>
<trkpt lat="46.0231350" lon="10.3635810">
	<ele>814.00</ele>
	<time>2024-07-24T12:03:12.000Z</time>
</trkpt>
<trkpt lat="46.0231400" lon="10.3635630">
	<ele>814.00</ele>
	<time>2024-07-24T12:03:13.000Z</time>
</trkpt>
<trkpt lat="46.0231400" lon="10.3635420">
	<ele>813.80</ele>
	<time>2024-07-24T12:03:14.000Z</time>
</trkpt>
<trkpt lat="46.0231430" lon="10.3635230">
	<ele>813.80</ele>
	<time>2024-07-24T12:03:15.000Z</time>
</trkpt>
<trkpt lat="46.0231450" lon="10.3635040">
	<ele>813.60</ele>
	<time>2024-07-24T12:03:16.000Z</time>
</trkpt>
<trkpt lat="46.0231530" lon="10.3634900">
	<ele>813.60</ele>
	<time>2024-07-24T12:03:17.000Z</time>
</trkpt>
<trkpt lat="46.0231590" lon="10.3634740">
	<ele>813.40</ele>
	<time>2024-07-24T12:03:18.000Z</time>
</trkpt>
<trkpt lat="46.0231590" lon="10.3634500">
	<ele>813.40</ele>
	<time>2024-07-24T12:03:19.000Z</time>
</trkpt>
<trkpt lat="46.0231660" lon="10.3634390">
	<ele>813.20</ele>
	<time>2024-07-24T12:03:20.000Z</time>
</trkpt>
<trkpt lat="46.0231790" lon="10.3634290">
	<ele>813.20</ele>
	<time>2024-07-24T12:03:21.000Z</time>
</trkpt>
<trkpt lat="46.0231930" lon="10.3634180">
	<ele>813.00</ele>
	<time>2024-07-24T12:03:22.000Z</time>
</trkpt>
<trkpt lat="46.0232100" lon="10.3634130">
	<ele>812.80</ele>
	<time>2024-07-24T12:03:23.000Z</time>
</trkpt>
<trkpt lat="46.0232180" lon="10.3633980">
	<ele>812.60</ele>
	<time>2024-07-24T12:03:24.000Z</time>
</trkpt>
<trkpt lat="46.0232300" lon="10.3633890">
	<ele>812.60</ele>
	<time>2024-07-24T12:03:25.000Z</time>
</trkpt>
<trkpt lat="46.0232450" lon="10.3633840">
	<ele>812.40</ele>
	<time>2024-07-24T12:03:26.000Z</time>
</trkpt>
<trkpt lat="46.0232610" lon="10.3633820">
	<ele>812.20</ele>
	<time>2024-07-24T12:03:27.000Z</time>
</trkpt>
<trkpt lat="46.0232770" lon="10.3633790">
	<ele>812.20</ele>
	<time>2024-07-24T12:03:28.000Z</time>
</trkpt>
<trkpt lat="46.0232960" lon="10.3633820">
	<ele>812.00</ele>
	<time>2024-07-24T12:03:29.000Z</time>
</trkpt>
<trkpt lat="46.0233090" lon="10.3633740">
	<ele>812.00</ele>
	<time>2024-07-24T12:03:30.000Z</time>
</trkpt>
<trkpt lat="46.0233230" lon="10.3633670">
	<ele>811.80</ele>
	<time>2024-07-24T12:03:31.000Z</time>
</trkpt>
<trkpt lat="46.0233360" lon="10.3633540">
	<ele>811.60</ele>
	<time>2024-07-24T12:03:32.000Z</time>
</trkpt>
<trkpt lat="46.0233500" lon="10.3633450">
	<ele>811.40</ele>
	<time>2024-07-24T12:03:33.000Z</time>
</trkpt>
<trkpt lat="46.0233620" lon="10.3633340">
	<ele>811.40</ele>
	<time>2024-07-24T12:03:34.000Z</time>
</trkpt>
<trkpt lat="46.0233710" lon="10.3633220">
	<ele>811.40</ele>
	<time>2024-07-24T12:03:35.000Z</time>
</trkpt>
<trkpt lat="46.0233860" lon="10.3633090">
	<ele>811.20</ele>
	<time>2024-07-24T12:03:36.000Z</time>
</trkpt>
<trkpt lat="46.0233980" lon="10.3633040">
	<ele>811.20</ele>
	<time>2024-07-24T12:03:37.000Z</time>
</trkpt>
<trkpt lat="46.0234120" lon="10.3633030">
	<ele>811.00</ele>
	<time>2024-07-24T12:03:38.000Z</time>
</trkpt>
<trkpt lat="46.0234280" lon="10.3633020">
	<ele>810.80</ele>
	<time>2024-07-24T12:03:39.000Z</time>
</trkpt>
<trkpt lat="46.0234480" lon="10.3633060">
	<ele>810.80</ele>
	<time>2024-07-24T12:03:40.000Z</time>
</trkpt>
<trkpt lat="46.0234620" lon="10.3633050">
	<ele>810.60</ele>
	<time>2024-07-24T12:03:41.000Z</time>
</trkpt>
<trkpt lat="46.0234750" lon="10.3633020">
	<ele>810.60</ele>
	<time>2024-07-24T12:03:42.000Z</time>
</trkpt>
<trkpt lat="46.0234880" lon="10.3632970">
	<ele>810.60</ele>
	<time>2024-07-24T12:03:43.000Z</time>
</trkpt>
<trkpt lat="46.0234980" lon="10.3632950">
	<ele>810.40</ele>
	<time>2024-07-24T12:03:44.000Z</time>
</trkpt>
<trkpt lat="46.0235080" lon="10.3632940">
	<ele>810.40</ele>
	<time>2024-07-24T12:03:45.000Z</time>
</trkpt>
<trkpt lat="46.0235210" lon="10.3632970">
	<ele>810.40</ele>
	<time>2024-07-24T12:03:46.000Z</time>
</trkpt>
<trkpt lat="46.0235320" lon="10.3633020">
	<ele>810.20</ele>
	<time>2024-07-24T12:03:47.000Z</time>
</trkpt>
<trkpt lat="46.0235420" lon="10.3633030">
	<ele>810.20</ele>
	<time>2024-07-24T12:03:48.000Z</time>
</trkpt>
<trkpt lat="46.0235530" lon="10.3633070">
	<ele>810.20</ele>
	<time>2024-07-24T12:03:49.000Z</time>
</trkpt>
<trkpt lat="46.0235610" lon="10.3633060">
	<ele>810.00</ele>
	<time>2024-07-24T12:03:50.000Z</time>
</trkpt>
<trkpt lat="46.0235690" lon="10.3633030">
	<ele>810.00</ele>
	<time>2024-07-24T12:03:51.000Z</time>
</trkpt>
<trkpt lat="46.0235730" lon="10.3632930">
	<ele>810.00</ele>
	<time>2024-07-24T12:03:52.000Z</time>
</trkpt>
<trkpt lat="46.0235870" lon="10.3632910">
	<ele>809.80</ele>
	<time>2024-07-24T12:03:53.000Z</time>
</trkpt>
<trkpt lat="46.0236000" lon="10.3632930">
	<ele>809.60</ele>
	<time>2024-07-24T12:03:54.000Z</time>
</trkpt>
<trkpt lat="46.0236130" lon="10.3632940">
	<ele>809.40</ele>
	<time>2024-07-24T12:03:55.000Z</time>
</trkpt>
<trkpt lat="46.0236270" lon="10.3632960">
	<ele>809.20</ele>
	<time>2024-07-24T12:03:56.000Z</time>
</trkpt>
<trkpt lat="46.0236420" lon="10.3633030">
	<ele>809.20</ele>
	<time>2024-07-24T12:03:57.000Z</time>
</trkpt>
<trkpt lat="46.0236540" lon="10.3633090">
	<ele>809.00</ele>
	<time>2024-07-24T12:03:58.000Z</time>
</trkpt>
<trkpt lat="46.0236670" lon="10.3633160">
	<ele>808.80</ele>
	<time>2024-07-24T12:03:59.000Z</time>
</trkpt>
<trkpt lat="46.0236790" lon="10.3633230">
	<ele>808.60</ele>
	<time>2024-07-24T12:04:00.000Z</time>
</trkpt>
<trkpt lat="46.0236880" lon="10.3633310">
	<ele>808.40</ele>
	<time>2024-07-24T12:04:01.000Z</time>
</trkpt>
<trkpt lat="46.0236940" lon="10.3633380">
	<ele>808.40</ele>
	<time>2024-07-24T12:04:02.000Z</time>
</trkpt>
<trkpt lat="46.0237020" lon="10.3633430">
	<ele>808.20</ele>
	<time>2024-07-24T12:04:03.000Z</time>
</trkpt>
<trkpt lat="46.0237110" lon="10.3633520">
	<ele>808.20</ele>
	<time>2024-07-24T12:04:04.000Z</time>
</trkpt>
<trkpt lat="46.0237180" lon="10.3633580">
	<ele>808.00</ele>
	<time>2024-07-24T12:04:05.000Z</time>
</trkpt>
<trkpt lat="46.0237270" lon="10.3633650">
	<ele>807.80</ele>
	<time>2024-07-24T12:04:06.000Z</time>
</trkpt>
<trkpt lat="46.0237330" lon="10.3633700">
	<ele>807.80</ele>
	<time>2024-07-24T12:04:07.000Z</time>
</trkpt>
<trkpt lat="46.0237350" lon="10.3633710">
	<ele>807.60</ele>
	<time>2024-07-24T12:04:08.000Z</time>
</trkpt>
<trkpt lat="46.0237400" lon="10.3633750">
	<ele>807.60</ele>
	<time>2024-07-24T12:04:09.000Z</time>
</trkpt>
<trkpt lat="46.0237530" lon="10.3633840">
	<ele>807.40</ele>
	<time>2024-07-24T12:04:10.000Z</time>
</trkpt>
<trkpt lat="46.0237640" lon="10.3633980">
	<ele>807.20</ele>
	<time>2024-07-24T12:04:11.000Z</time>
</trkpt>
<trkpt lat="46.0237760" lon="10.3634150">
	<ele>807.00</ele>
	<time>2024-07-24T12:04:12.000Z</time>
</trkpt>
<trkpt lat="46.0237840" lon="10.3634290">
	<ele>806.80</ele>
	<time>2024-07-24T12:04:13.000Z</time>
</trkpt>
<trkpt lat="46.0237950" lon="10.3634420">
	<ele>806.80</ele>
	<time>2024-07-24T12:04:14.000Z</time>
</trkpt>
<trkpt lat="46.0238080" lon="10.3634540">
	<ele>806.60</ele>
	<time>2024-07-24T12:04:15.000Z</time>
</trkpt>
<trkpt lat="46.0238250" lon="10.3634650">
	<ele>806.60</ele>
	<time>2024-07-24T12:04:16.000Z</time>
</trkpt>
<trkpt lat="46.0238420" lon="10.3634760">
	<ele>806.40</ele>
	<time>2024-07-24T12:04:17.000Z</time>
</trkpt>
<trkpt lat="46.0238730" lon="10.3634930">
	<ele>806.20</ele>
	<time>2024-07-24T12:04:18.000Z</time>
</trkpt>
<trkpt lat="46.0238890" lon="10.3635110">
	<ele>806.00</ele>
	<time>2024-07-24T12:04:19.000Z</time>
</trkpt>
<trkpt lat="46.0238960" lon="10.3635130">
	<ele>806.00</ele>
	<time>2024-07-24T12:04:20.000Z</time>
</trkpt>
<trkpt lat="46.0239050" lon="10.3635160">
	<ele>805.80</ele>
	<time>2024-07-24T12:04:21.000Z</time>
</trkpt>
<trkpt lat="46.0239200" lon="10.3635220">
	<ele>805.80</ele>
	<time>2024-07-24T12:04:22.000Z</time>
</trkpt>
<trkpt lat="46.0239350" lon="10.3635280">
	<ele>805.60</ele>
	<time>2024-07-24T12:04:23.000Z</time>
</trkpt>
<trkpt lat="46.0239450" lon="10.3635300">
	<ele>805.60</ele>
	<time>2024-07-24T12:04:24.000Z</time>
</trkpt>
<trkpt lat="46.0239570" lon="10.3635310">
	<ele>805.40</ele>
	<time>2024-07-24T12:04:25.000Z</time>
</trkpt>
<trkpt lat="46.0239700" lon="10.3635290">
	<ele>805.20</ele>
	<time>2024-07-24T12:04:26.000Z</time>
</trkpt>
<trkpt lat="46.0239880" lon="10.3635260">
	<ele>805.20</ele>
	<time>2024-07-24T12:04:27.000Z</time>
</trkpt>
<trkpt lat="46.0240010" lon="10.3635260">
	<ele>805.20</ele>
	<time>2024-07-24T12:04:28.000Z</time>
</trkpt>
<trkpt lat="46.0240130" lon="10.3635300">
	<ele>805.00</ele>
	<time>2024-07-24T12:04:29.000Z</time>
</trkpt>
<trkpt lat="46.0240240" lon="10.3635240">
	<ele>804.80</ele>
	<time>2024-07-24T12:04:30.000Z</time>
</trkpt>
<trkpt lat="46.0240350" lon="10.3635190">
	<ele>804.60</ele>
	<time>2024-07-24T12:04:31.000Z</time>
</trkpt>
<trkpt lat="46.0240460" lon="10.3635150">
	<ele>804.40</ele>
	<time>2024-07-24T12:04:32.000Z</time>
</trkpt>
<trkpt lat="46.0240580" lon="10.3635090">
	<ele>804.40</ele>
	<time>2024-07-24T12:04:33.000Z</time>
</trkpt>
<trkpt lat="46.0240720" lon="10.3635060">
	<ele>804.20</ele>
	<time>2024-07-24T12:04:34.000Z</time>
</trkpt>
<trkpt lat="46.0240860" lon="10.3635000">
	<ele>804.00</ele>
	<time>2024-07-24T12:04:35.000Z</time>
</trkpt>
<trkpt lat="46.0241020" lon="10.3634970">
	<ele>804.00</ele>
	<time>2024-07-24T12:04:36.000Z</time>
</trkpt>
<trkpt lat="46.0241180" lon="10.3634930">
	<ele>803.80</ele>
	<time>2024-07-24T12:04:37.000Z</time>
</trkpt>
<trkpt lat="46.0241360" lon="10.3634900">
	<ele>803.60</ele>
	<time>2024-07-24T12:04:38.000Z</time>
</trkpt>
<trkpt lat="46.0241520" lon="10.3634870">
	<ele>803.40</ele>
	<time>2024-07-24T12:04:39.000Z</time>
</trkpt>
<trkpt lat="46.0241680" lon="10.3634840">
	<ele>803.20</ele>
	<time>2024-07-24T12:04:40.000Z</time>
</trkpt>
<trkpt lat="46.0241850" lon="10.3634800">
	<ele>803.20</ele>
	<time>2024-07-24T12:04:41.000Z</time>
</trkpt>
<trkpt lat="46.0241990" lon="10.3634750">
	<ele>803.00</ele>
	<time>2024-07-24T12:04:42.000Z</time>
</trkpt>
<trkpt lat="46.0242110" lon="10.3634660">
	<ele>803.00</ele>
	<time>2024-07-24T12:04:43.000Z</time>
</trkpt>
<trkpt lat="46.0242240" lon="10.3634600">
	<ele>803.00</ele>
	<time>2024-07-24T12:04:44.000Z</time>
</trkpt>
<trkpt lat="46.0242320" lon="10.3634500">
	<ele>802.80</ele>
	<time>2024-07-24T12:04:45.000Z</time>
</trkpt>
<trkpt lat="46.0242450" lon="10.3634440">
	<ele>802.60</ele>
	<time>2024-07-24T12:04:46.000Z</time>
</trkpt>
<trkpt lat="46.0242480" lon="10.3634270">
	<ele>802.40</ele>
	<time>2024-07-24T12:04:47.000Z</time>
</trkpt>
<trkpt lat="46.0242440" lon="10.3633990">
	<ele>802.20</ele>
	<time>2024-07-24T12:04:48.000Z</time>
</trkpt>
<trkpt lat="46.0242480" lon="10.3633820">
	<ele>802.20</ele>
	<time>2024-07-24T12:04:49.000Z</time>
</trkpt>
<trkpt lat="46.0242530" lon="10.3633590">
	<ele>802.00</ele>
	<time>2024-07-24T12:04:50.000Z</time>
</trkpt>
<trkpt lat="46.0242570" lon="10.3633430">
	<ele>802.00</ele>
	<time>2024-07-24T12:04:51.000Z</time>
</trkpt>
<trkpt lat="46.0242670" lon="10.3633360">
	<ele>801.80</ele>
	<time>2024-07-24T12:04:52.000Z</time>
</trkpt>
<trkpt lat="46.0242720" lon="10.3633190">
	<ele>801.60</ele>
	<time>2024-07-24T12:04:53.000Z</time>
</trkpt>
<trkpt lat="46.0242810" lon="10.3633040">
	<ele>801.60</ele>
	<time>2024-07-24T12:04:54.000Z</time>
</trkpt>
<trkpt lat="46.0242960" lon="10.3632960">
	<ele>801.40</ele>
	<time>2024-07-24T12:04:55.000Z</time>
</trkpt>
<trkpt lat="46.0243140" lon="10.3632910">
	<ele>801.20</ele>
	<time>2024-07-24T12:04:56.000Z</time>
</trkpt>
<trkpt lat="46.0243290" lon="10.3632890">
	<ele>801.00</ele>
	<time>2024-07-24T12:04:57.000Z</time>
</trkpt>
<trkpt lat="46.0243410" lon="10.3632870">
	<ele>801.00</ele>
	<time>2024-07-24T12:04:58.000Z</time>
</trkpt>
<trkpt lat="46.0243490" lon="10.3632780">
	<ele>801.00</ele>
	<time>2024-07-24T12:04:59.000Z</time>
</trkpt>
<trkpt lat="46.0243580" lon="10.3632660">
	<ele>800.80</ele>
	<time>2024-07-24T12:05:00.000Z</time>
</trkpt>
<trkpt lat="46.0243670" lon="10.3632530">
	<ele>800.80</ele>
	<time>2024-07-24T12:05:01.000Z</time>
</trkpt>
<trkpt lat="46.0243790" lon="10.3632420">
	<ele>800.60</ele>
	<time>2024-07-24T12:05:02.000Z</time>
</trkpt>
<trkpt lat="46.0243920" lon="10.3632340">
	<ele>800.40</ele>
	<time>2024-07-24T12:05:03.000Z</time>
</trkpt>
<trkpt lat="46.0244040" lon="10.3632250">
	<ele>800.40</ele>
	<time>2024-07-24T12:05:04.000Z</time>
</trkpt>
<trkpt lat="46.0244160" lon="10.3632160">
	<ele>800.20</ele>
	<time>2024-07-24T12:05:05.000Z</time>
</trkpt>
<trkpt lat="46.0244270" lon="10.3632080">
	<ele>800.20</ele>
	<time>2024-07-24T12:05:06.000Z</time>
</trkpt>
<trkpt lat="46.0244390" lon="10.3632030">
	<ele>800.00</ele>
	<time>2024-07-24T12:05:07.000Z</time>
</trkpt>
<trkpt lat="46.0244510" lon="10.3631980">
	<ele>799.80</ele>
	<time>2024-07-24T12:05:08.000Z</time>
</trkpt>
<trkpt lat="46.0244640" lon="10.3631920">
	<ele>799.60</ele>
	<time>2024-07-24T12:05:09.000Z</time>
</trkpt>
<trkpt lat="46.0244740" lon="10.3631850">
	<ele>799.60</ele>
	<time>2024-07-24T12:05:10.000Z</time>
</trkpt>
<trkpt lat="46.0244880" lon="10.3631800">
	<ele>799.40</ele>
	<time>2024-07-24T12:05:11.000Z</time>
</trkpt>
<trkpt lat="46.0245020" lon="10.3631780">
	<ele>799.20</ele>
	<time>2024-07-24T12:05:12.000Z</time>
</trkpt>
<trkpt lat="46.0245160" lon="10.3631750">
	<ele>799.20</ele>
	<time>2024-07-24T12:05:13.000Z</time>
</trkpt>
<trkpt lat="46.0245360" lon="10.3631720">
	<ele>799.00</ele>
	<time>2024-07-24T12:05:14.000Z</time>
</trkpt>
<trkpt lat="46.0245540" lon="10.3631760">
	<ele>798.80</ele>
	<time>2024-07-24T12:05:15.000Z</time>
</trkpt>
<trkpt lat="46.0245710" lon="10.3631820">
	<ele>798.60</ele>
	<time>2024-07-24T12:05:16.000Z</time>
</trkpt>
<trkpt lat="46.0245880" lon="10.3631820">
	<ele>798.60</ele>
	<time>2024-07-24T12:05:17.000Z</time>
</trkpt>
<trkpt lat="46.0246060" lon="10.3631810">
	<ele>798.40</ele>
	<time>2024-07-24T12:05:18.000Z</time>
</trkpt>
<trkpt lat="46.0246190" lon="10.3631790">
	<ele>798.20</ele>
	<time>2024-07-24T12:05:19.000Z</time>
</trkpt>
<trkpt lat="46.0246330" lon="10.3631740">
	<ele>798.00</ele>
	<time>2024-07-24T12:05:20.000Z</time>
</trkpt>
<trkpt lat="46.0246480" lon="10.3631700">
	<ele>798.00</ele>
	<time>2024-07-24T12:05:21.000Z</time>
</trkpt>
<trkpt lat="46.0246610" lon="10.3631670">
	<ele>797.80</ele>
	<time>2024-07-24T12:05:22.000Z</time>
</trkpt>
<trkpt lat="46.0246740" lon="10.3631650">
	<ele>797.80</ele>
	<time>2024-07-24T12:05:23.000Z</time>
</trkpt>
<trkpt lat="46.0246890" lon="10.3631650">
	<ele>797.60</ele>
	<time>2024-07-24T12:05:24.000Z</time>
</trkpt>
<trkpt lat="46.0247040" lon="10.3631620">
	<ele>797.60</ele>
	<time>2024-07-24T12:05:25.000Z</time>
</trkpt>
<trkpt lat="46.0247190" lon="10.3631570">
	<ele>797.40</ele>
	<time>2024-07-24T12:05:26.000Z</time>
</trkpt>
<trkpt lat="46.0247320" lon="10.3631530">
	<ele>797.40</ele>
	<time>2024-07-24T12:05:27.000Z</time>
</trkpt>
<trkpt lat="46.0247440" lon="10.3631480">
	<ele>797.20</ele>
	<time>2024-07-24T12:05:28.000Z</time>
</trkpt>
<trkpt lat="46.0247580" lon="10.3631470">
	<ele>797.20</ele>
	<time>2024-07-24T12:05:29.000Z</time>
</trkpt>
<trkpt lat="46.0247670" lon="10.3631420">
	<ele>797.00</ele>
	<time>2024-07-24T12:05:30.000Z</time>
</trkpt>
<trkpt lat="46.0247780" lon="10.3631380">
	<ele>796.80</ele>
	<time>2024-07-24T12:05:31.000Z</time>
</trkpt>
<trkpt lat="46.0247910" lon="10.3631330">
	<ele>796.60</ele>
	<time>2024-07-24T12:05:32.000Z</time>
</trkpt>
<trkpt lat="46.0248070" lon="10.3631380">
	<ele>796.60</ele>
	<time>2024-07-24T12:05:33.000Z</time>
</trkpt>
<trkpt lat="46.0248270" lon="10.3631410">
	<ele>796.60</ele>
	<time>2024-07-24T12:05:34.000Z</time>
</trkpt>
<trkpt lat="46.0248410" lon="10.3631400">
	<ele>796.40</ele>
	<time>2024-07-24T12:05:35.000Z</time>
</trkpt>
<trkpt lat="46.0248550" lon="10.3631310">
	<ele>796.40</ele>
	<time>2024-07-24T12:05:36.000Z</time>
</trkpt>
<trkpt lat="46.0248690" lon="10.3631200">
	<ele>796.40</ele>
	<time>2024-07-24T12:05:37.000Z</time>
</trkpt>
<trkpt lat="46.0248770" lon="10.3631010">
	<ele>796.20</ele>
	<time>2024-07-24T12:05:38.000Z</time>
</trkpt>
<trkpt lat="46.0248920" lon="10.3630930">
	<ele>796.00</ele>
	<time>2024-07-24T12:05:39.000Z</time>
</trkpt>
<trkpt lat="46.0249060" lon="10.3630910">
	<ele>795.80</ele>
	<time>2024-07-24T12:05:40.000Z</time>
</trkpt>
<trkpt lat="46.0249180" lon="10.3630830">
	<ele>795.60</ele>
	<time>2024-07-24T12:05:41.000Z</time>
</trkpt>
<trkpt lat="46.0249300" lon="10.3630860">
	<ele>795.60</ele>
	<time>2024-07-24T12:05:42.000Z</time>
</trkpt>
<trkpt lat="46.0249430" lon="10.3630870">
	<ele>795.40</ele>
	<time>2024-07-24T12:05:43.000Z</time>
</trkpt>
<trkpt lat="46.0249550" lon="10.3630900">
	<ele>795.40</ele>
	<time>2024-07-24T12:05:44.000Z</time>
</trkpt>
<trkpt lat="46.0249680" lon="10.3630940">
	<ele>795.40</ele>
	<time>2024-07-24T12:05:45.000Z</time>
</trkpt>
<trkpt lat="46.0249810" lon="10.3631000">
	<ele>795.20</ele>
	<time>2024-07-24T12:05:46.000Z</time>
</trkpt>
<trkpt lat="46.0249930" lon="10.3631030">
	<ele>795.20</ele>
	<time>2024-07-24T12:05:47.000Z</time>
</trkpt>
<trkpt lat="46.0250070" lon="10.3631030">
	<ele>795.00</ele>
	<time>2024-07-24T12:05:48.000Z</time>
</trkpt>
<trkpt lat="46.0250240" lon="10.3631010">
	<ele>795.00</ele>
	<time>2024-07-24T12:05:49.000Z</time>
</trkpt>
<trkpt lat="46.0250370" lon="10.3631030">
	<ele>794.80</ele>
	<time>2024-07-24T12:05:50.000Z</time>
</trkpt>
<trkpt lat="46.0250540" lon="10.3630980">
	<ele>794.60</ele>
	<time>2024-07-24T12:05:51.000Z</time>
</trkpt>
<trkpt lat="46.0250690" lon="10.3630980">
	<ele>794.40</ele>
	<time>2024-07-24T12:05:52.000Z</time>
</trkpt>
<trkpt lat="46.0250790" lon="10.3630890">
	<ele>794.20</ele>
	<time>2024-07-24T12:05:53.000Z</time>
</trkpt>
<trkpt lat="46.0250900" lon="10.3630810">
	<ele>794.20</ele>
	<time>2024-07-24T12:05:54.000Z</time>
</trkpt>
<trkpt lat="46.0251030" lon="10.3630780">
	<ele>794.00</ele>
	<time>2024-07-24T12:05:55.000Z</time>
</trkpt>
<trkpt lat="46.0251150" lon="10.3630780">
	<ele>794.00</ele>
	<time>2024-07-24T12:05:56.000Z</time>
</trkpt>
<trkpt lat="46.0251250" lon="10.3630780">
	<ele>793.80</ele>
	<time>2024-07-24T12:05:57.000Z</time>
</trkpt>
<trkpt lat="46.0251350" lon="10.3630730">
	<ele>793.60</ele>
	<time>2024-07-24T12:05:58.000Z</time>
</trkpt>
<trkpt lat="46.0251490" lon="10.3630600">
	<ele>793.40</ele>
	<time>2024-07-24T12:05:59.000Z</time>
</trkpt>
<trkpt lat="46.0251640" lon="10.3630520">
	<ele>793.40</ele>
	<time>2024-07-24T12:06:00.000Z</time>
</trkpt>
<trkpt lat="46.0251800" lon="10.3630440">
	<ele>793.40</ele>
	<time>2024-07-24T12:06:01.000Z</time>
</trkpt>
<trkpt lat="46.0251950" lon="10.3630430">
	<ele>793.20</ele>
	<time>2024-07-24T12:06:02.000Z</time>
</trkpt>
<trkpt lat="46.0252080" lon="10.3630440">
	<ele>793.20</ele>
	<time>2024-07-24T12:06:03.000Z</time>
</trkpt>
<trkpt lat="46.0252210" lon="10.3630460">
	<ele>793.20</ele>
	<time>2024-07-24T12:06:04.000Z</time>
</trkpt>
<trkpt lat="46.0252390" lon="10.3630470">
	<ele>793.00</ele>
	<time>2024-07-24T12:06:05.000Z</time>
</trkpt>
<trkpt lat="46.0252580" lon="10.3630500">
	<ele>793.00</ele>
	<time>2024-07-24T12:06:06.000Z</time>
</trkpt>
<trkpt lat="46.0252750" lon="10.3630500">
	<ele>793.00</ele>
	<time>2024-07-24T12:06:07.000Z</time>
</trkpt>
<trkpt lat="46.0252870" lon="10.3630420">
	<ele>793.00</ele>
	<time>2024-07-24T12:06:08.000Z</time>
</trkpt>
<trkpt lat="46.0252970" lon="10.3630350">
	<ele>792.80</ele>
	<time>2024-07-24T12:06:09.000Z</time>
</trkpt>
<trkpt lat="46.0253080" lon="10.3630270">
	<ele>792.60</ele>
	<time>2024-07-24T12:06:10.000Z</time>
</trkpt>
<trkpt lat="46.0253160" lon="10.3630170">
	<ele>792.40</ele>
	<time>2024-07-24T12:06:11.000Z</time>
</trkpt>
<trkpt lat="46.0253240" lon="10.3630060">
	<ele>792.40</ele>
	<time>2024-07-24T12:06:12.000Z</time>
</trkpt>
<trkpt lat="46.0253370" lon="10.3630050">
	<ele>792.20</ele>
	<time>2024-07-24T12:06:13.000Z</time>
</trkpt>
<trkpt lat="46.0253460" lon="10.3629990">
	<ele>792.00</ele>
	<time>2024-07-24T12:06:14.000Z</time>
</trkpt>
<trkpt lat="46.0253550" lon="10.3629900">
	<ele>791.80</ele>
	<time>2024-07-24T12:06:15.000Z</time>
</trkpt>
<trkpt lat="46.0253680" lon="10.3629800">
	<ele>791.60</ele>
	<time>2024-07-24T12:06:16.000Z</time>
</trkpt>
<trkpt lat="46.0253880" lon="10.3629750">
	<ele>791.60</ele>
	<time>2024-07-24T12:06:17.000Z</time>
</trkpt>
<trkpt lat="46.0254020" lon="10.3629690">
	<ele>791.40</ele>
	<time>2024-07-24T12:06:18.000Z</time>
</trkpt>
<trkpt lat="46.0254070" lon="10.3629550">
	<ele>791.40</ele>
	<time>2024-07-24T12:06:19.000Z</time>
</trkpt>
<trkpt lat="46.0254200" lon="10.3629490">
	<ele>791.20</ele>
	<time>2024-07-24T12:06:20.000Z</time>
</trkpt>
<trkpt lat="46.0254350" lon="10.3629430">
	<ele>791.20</ele>
	<time>2024-07-24T12:06:21.000Z</time>
</trkpt>
<trkpt lat="46.0254460" lon="10.3629350">
	<ele>791.00</ele>
	<time>2024-07-24T12:06:22.000Z</time>
</trkpt>
<trkpt lat="46.0254590" lon="10.3629320">
	<ele>791.00</ele>
	<time>2024-07-24T12:06:23.000Z</time>
</trkpt>
<trkpt lat="46.0254780" lon="10.3629380">
	<ele>790.80</ele>
	<time>2024-07-24T12:06:24.000Z</time>
</trkpt>
<trkpt lat="46.0254940" lon="10.3629410">
	<ele>790.60</ele>
	<time>2024-07-24T12:06:25.000Z</time>
</trkpt>
<trkpt lat="46.0255040" lon="10.3629360">
	<ele>790.40</ele>
	<time>2024-07-24T12:06:26.000Z</time>
</trkpt>
<trkpt lat="46.0255170" lon="10.3629330">
	<ele>790.40</ele>
	<time>2024-07-24T12:06:27.000Z</time>
</trkpt>
<trkpt lat="46.0255290" lon="10.3629320">
	<ele>790.20</ele>
	<time>2024-07-24T12:06:28.000Z</time>
</trkpt>
<trkpt lat="46.0255430" lon="10.3629310">
	<ele>790.20</ele>
	<time>2024-07-24T12:06:29.000Z</time>
</trkpt>
<trkpt lat="46.0255550" lon="10.3629280">
	<ele>790.00</ele>
	<time>2024-07-24T12:06:30.000Z</time>
</trkpt>
<trkpt lat="46.0255690" lon="10.3629250">
	<ele>789.80</ele>
	<time>2024-07-24T12:06:31.000Z</time>
</trkpt>
<trkpt lat="46.0255830" lon="10.3629200">
	<ele>789.60</ele>
	<time>2024-07-24T12:06:32.000Z</time>
</trkpt>
<trkpt lat="46.0255960" lon="10.3629140">
	<ele>789.40</ele>
	<time>2024-07-24T12:06:33.000Z</time>
</trkpt>
<trkpt lat="46.0256070" lon="10.3629110">
	<ele>789.40</ele>
	<time>2024-07-24T12:06:34.000Z</time>
</trkpt>
<trkpt lat="46.0256150" lon="10.3629160">
	<ele>789.20</ele>
	<time>2024-07-24T12:06:35.000Z</time>
</trkpt>
<trkpt lat="46.0256280" lon="10.3629250">
	<ele>789.20</ele>
	<time>2024-07-24T12:06:36.000Z</time>
</trkpt>
<trkpt lat="46.0256490" lon="10.3629320">
	<ele>789.00</ele>
	<time>2024-07-24T12:06:37.000Z</time>
</trkpt>
<trkpt lat="46.0256650" lon="10.3629290">
	<ele>789.00</ele>
	<time>2024-07-24T12:06:38.000Z</time>
</trkpt>
<trkpt lat="46.0256760" lon="10.3629170">
	<ele>788.80</ele>
	<time>2024-07-24T12:06:39.000Z</time>
</trkpt>
<trkpt lat="46.0256930" lon="10.3629140">
	<ele>788.80</ele>
	<time>2024-07-24T12:06:40.000Z</time>
</trkpt>
<trkpt lat="46.0257100" lon="10.3629130">
	<ele>788.80</ele>
	<time>2024-07-24T12:06:41.000Z</time>
</trkpt>
<trkpt lat="46.0257200" lon="10.3629060">
	<ele>788.40</ele>
	<time>2024-07-24T12:06:42.000Z</time>
</trkpt>
<trkpt lat="46.0257280" lon="10.3628950">
	<ele>788.20</ele>
	<time>2024-07-24T12:06:43.000Z</time>
</trkpt>
<trkpt lat="46.0257330" lon="10.3628840">
	<ele>788.00</ele>
	<time>2024-07-24T12:06:44.000Z</time>
</trkpt>
<trkpt lat="46.0257420" lon="10.3628730">
	<ele>787.80</ele>
	<time>2024-07-24T12:06:45.000Z</time>
</trkpt>
<trkpt lat="46.0257530" lon="10.3628650">
	<ele>787.80</ele>
	<time>2024-07-24T12:06:46.000Z</time>
</trkpt>
<trkpt lat="46.0257640" lon="10.3628590">
	<ele>787.60</ele>
	<time>2024-07-24T12:06:47.000Z</time>
</trkpt>
<trkpt lat="46.0257740" lon="10.3628510">
	<ele>787.40</ele>
	<time>2024-07-24T12:06:48.000Z</time>
</trkpt>
<trkpt lat="46.0257870" lon="10.3628460">
	<ele>787.40</ele>
	<time>2024-07-24T12:06:49.000Z</time>
</trkpt>
<trkpt lat="46.0258000" lon="10.3628420">
	<ele>787.20</ele>
	<time>2024-07-24T12:06:50.000Z</time>
</trkpt>
<trkpt lat="46.0258150" lon="10.3628380">
	<ele>787.00</ele>
	<time>2024-07-24T12:06:51.000Z</time>
</trkpt>
<trkpt lat="46.0258300" lon="10.3628310">
	<ele>787.00</ele>
	<time>2024-07-24T12:06:52.000Z</time>
</trkpt>
<trkpt lat="46.0258430" lon="10.3628220">
	<ele>787.00</ele>
	<time>2024-07-24T12:06:53.000Z</time>
</trkpt>
<trkpt lat="46.0258570" lon="10.3628160">
	<ele>786.80</ele>
	<time>2024-07-24T12:06:54.000Z</time>
</trkpt>
<trkpt lat="46.0258720" lon="10.3628120">
	<ele>786.60</ele>
	<time>2024-07-24T12:06:55.000Z</time>
</trkpt>
<trkpt lat="46.0258880" lon="10.3628080">
	<ele>786.60</ele>
	<time>2024-07-24T12:06:56.000Z</time>
</trkpt>
<trkpt lat="46.0259030" lon="10.3628060">
	<ele>786.40</ele>
	<time>2024-07-24T12:06:57.000Z</time>
</trkpt>
<trkpt lat="46.0259180" lon="10.3628100">
	<ele>786.20</ele>
	<time>2024-07-24T12:06:58.000Z</time>
</trkpt>
<trkpt lat="46.0259350" lon="10.3628160">
	<ele>786.00</ele>
	<time>2024-07-24T12:06:59.000Z</time>
</trkpt>
<trkpt lat="46.0259470" lon="10.3628160">
	<ele>786.00</ele>
	<time>2024-07-24T12:07:00.000Z</time>
</trkpt>
<trkpt lat="46.0259580" lon="10.3628140">
	<ele>786.00</ele>
	<time>2024-07-24T12:07:01.000Z</time>
</trkpt>
<trkpt lat="46.0259720" lon="10.3628150">
	<ele>785.80</ele>
	<time>2024-07-24T12:07:02.000Z</time>
</trkpt>
<trkpt lat="46.0259820" lon="10.3628140">
	<ele>785.80</ele>
	<time>2024-07-24T12:07:03.000Z</time>
</trkpt>
<trkpt lat="46.0259910" lon="10.3628120">
	<ele>785.60</ele>
	<time>2024-07-24T12:07:04.000Z</time>
</trkpt>
<trkpt lat="46.0260040" lon="10.3628130">
	<ele>785.60</ele>
	<time>2024-07-24T12:07:05.000Z</time>
</trkpt>
<trkpt lat="46.0260170" lon="10.3628160">
	<ele>785.60</ele>
	<time>2024-07-24T12:07:06.000Z</time>
</trkpt>
<trkpt lat="46.0260310" lon="10.3628190">
	<ele>785.40</ele>
	<time>2024-07-24T12:07:07.000Z</time>
</trkpt>
<trkpt lat="46.0260440" lon="10.3628180">
	<ele>785.40</ele>
	<time>2024-07-24T12:07:08.000Z</time>
</trkpt>
<trkpt lat="46.0260580" lon="10.3628160">
	<ele>785.40</ele>
	<time>2024-07-24T12:07:09.000Z</time>
</trkpt>
<trkpt lat="46.0260670" lon="10.3628100">
	<ele>785.20</ele>
	<time>2024-07-24T12:07:10.000Z</time>
</trkpt>
<trkpt lat="46.0260740" lon="10.3627990">
	<ele>785.00</ele>
	<time>2024-07-24T12:07:11.000Z</time>
</trkpt>
<trkpt lat="46.0260830" lon="10.3627930">
	<ele>785.00</ele>
	<time>2024-07-24T12:07:12.000Z</time>
</trkpt>
<trkpt lat="46.0260870" lon="10.3627800">
	<ele>785.00</ele>
	<time>2024-07-24T12:07:13.000Z</time>
</trkpt>
<trkpt lat="46.0260880" lon="10.3627630">
	<ele>785.00</ele>
	<time>2024-07-24T12:07:14.000Z</time>
</trkpt>
<trkpt lat="46.0260870" lon="10.3627350">
	<ele>785.00</ele>
	<time>2024-07-24T12:07:15.000Z</time>
</trkpt>
<trkpt lat="46.0260900" lon="10.3627230">
	<ele>785.00</ele>
	<time>2024-07-24T12:07:16.000Z</time>
</trkpt>
<trkpt lat="46.0260900" lon="10.3627090">
	<ele>785.00</ele>
	<time>2024-07-24T12:07:17.000Z</time>
</trkpt>
<trkpt lat="46.0260850" lon="10.3626890">
	<ele>784.80</ele>
	<time>2024-07-24T12:07:18.000Z</time>
</trkpt>
<trkpt lat="46.0260840" lon="10.3626700">
	<ele>784.60</ele>
	<time>2024-07-24T12:07:19.000Z</time>
</trkpt>
<trkpt lat="46.0260890" lon="10.3626610">
	<ele>784.40</ele>
	<time>2024-07-24T12:07:20.000Z</time>
</trkpt>
<trkpt lat="46.0261000" lon="10.3626600">
	<ele>784.20</ele>
	<time>2024-07-24T12:07:21.000Z</time>
</trkpt>
<trkpt lat="46.0261140" lon="10.3626590">
	<ele>784.00</ele>
	<time>2024-07-24T12:07:22.000Z</time>
</trkpt>
<trkpt lat="46.0261320" lon="10.3626590">
	<ele>783.80</ele>
	<time>2024-07-24T12:07:23.000Z</time>
</trkpt>
<trkpt lat="46.0261460" lon="10.3626550">
	<ele>783.80</ele>
	<time>2024-07-24T12:07:24.000Z</time>
</trkpt>
<trkpt lat="46.0261580" lon="10.3626510">
	<ele>783.60</ele>
	<time>2024-07-24T12:07:25.000Z</time>
</trkpt>
<trkpt lat="46.0261650" lon="10.3626450">
	<ele>783.60</ele>
	<time>2024-07-24T12:07:26.000Z</time>
</trkpt>
<trkpt lat="46.0261730" lon="10.3626390">
	<ele>783.40</ele>
	<time>2024-07-24T12:07:27.000Z</time>
</trkpt>
<trkpt lat="46.0261830" lon="10.3626340">
	<ele>783.40</ele>
	<time>2024-07-24T12:07:28.000Z</time>
</trkpt>
<trkpt lat="46.0261960" lon="10.3626310">
	<ele>783.20</ele>
	<time>2024-07-24T12:07:29.000Z</time>
</trkpt>
<trkpt lat="46.0262060" lon="10.3626320">
	<ele>783.20</ele>
	<time>2024-07-24T12:07:30.000Z</time>
</trkpt>
<trkpt lat="46.0262160" lon="10.3626330">
	<ele>783.00</ele>
	<time>2024-07-24T12:07:31.000Z</time>
</trkpt>
<trkpt lat="46.0262300" lon="10.3626340">
	<ele>782.80</ele>
	<time>2024-07-24T12:07:32.000Z</time>
</trkpt>
<trkpt lat="46.0262520" lon="10.3626360">
	<ele>782.60</ele>
	<time>2024-07-24T12:07:33.000Z</time>
</trkpt>
<trkpt lat="46.0262660" lon="10.3626400">
	<ele>782.60</ele>
	<time>2024-07-24T12:07:34.000Z</time>
</trkpt>
<trkpt lat="46.0262820" lon="10.3626420">
	<ele>782.40</ele>
	<time>2024-07-24T12:07:35.000Z</time>
</trkpt>
<trkpt lat="46.0262980" lon="10.3626430">
	<ele>782.40</ele>
	<time>2024-07-24T12:07:36.000Z</time>
</trkpt>
<trkpt lat="46.0263090" lon="10.3626350">
	<ele>782.40</ele>
	<time>2024-07-24T12:07:37.000Z</time>
</trkpt>
<trkpt lat="46.0263120" lon="10.3626190">
	<ele>782.20</ele>
	<time>2024-07-24T12:07:38.000Z</time>
</trkpt>
<trkpt lat="46.0263180" lon="10.3626070">
	<ele>782.00</ele>
	<time>2024-07-24T12:07:39.000Z</time>
</trkpt>
<trkpt lat="46.0263200" lon="10.3625950">
	<ele>781.80</ele>
	<time>2024-07-24T12:07:40.000Z</time>
</trkpt>
<trkpt lat="46.0263290" lon="10.3625950">
	<ele>781.80</ele>
	<time>2024-07-24T12:07:41.000Z</time>
</trkpt>
<trkpt lat="46.0263590" lon="10.3626230">
	<ele>781.60</ele>
	<time>2024-07-24T12:07:42.000Z</time>
</trkpt>
<trkpt lat="46.0263750" lon="10.3626320">
	<ele>781.60</ele>
	<time>2024-07-24T12:07:43.000Z</time>
</trkpt>
<trkpt lat="46.0263910" lon="10.3626390">
	<ele>781.40</ele>
	<time>2024-07-24T12:07:44.000Z</time>
</trkpt>
<trkpt lat="46.0263980" lon="10.3626320">
	<ele>781.20</ele>
	<time>2024-07-24T12:07:45.000Z</time>
</trkpt>
<trkpt lat="46.0264220" lon="10.3626420">
	<ele>781.00</ele>
	<time>2024-07-24T12:07:46.000Z</time>
</trkpt>
<trkpt lat="46.0264600" lon="10.3626650">
	<ele>781.00</ele>
	<time>2024-07-24T12:07:47.000Z</time>
</trkpt>
<trkpt lat="46.0264840" lon="10.3626710">
	<ele>780.80</ele>
	<time>2024-07-24T12:07:48.000Z</time>
</trkpt>
<trkpt lat="46.0264960" lon="10.3626710">
	<ele>780.80</ele>
	<time>2024-07-24T12:07:49.000Z</time>
</trkpt>
<trkpt lat="46.0265050" lon="10.3626600">
	<ele>780.80</ele>
	<time>2024-07-24T12:07:50.000Z</time>
</trkpt>
<trkpt lat="46.0265190" lon="10.3626490">
	<ele>780.60</ele>
	<time>2024-07-24T12:07:51.000Z</time>
</trkpt>
<trkpt lat="46.0265350" lon="10.3626460">
	<ele>780.60</ele>
	<time>2024-07-24T12:07:52.000Z</time>
</trkpt>
<trkpt lat="46.0265560" lon="10.3626510">
	<ele>780.40</ele>
	<time>2024-07-24T12:07:53.000Z</time>
</trkpt>
<trkpt lat="46.0265710" lon="10.3626530">
	<ele>780.20</ele>
	<time>2024-07-24T12:07:54.000Z</time>
</trkpt>
<trkpt lat="46.0265950" lon="10.3626630">
	<ele>780.00</ele>
	<time>2024-07-24T12:07:55.000Z</time>
</trkpt>
<trkpt lat="46.0266200" lon="10.3626700">
	<ele>780.00</ele>
	<time>2024-07-24T12:07:56.000Z</time>
</trkpt>
<trkpt lat="46.0266460" lon="10.3626690">
	<ele>779.80</ele>
	<time>2024-07-24T12:07:57.000Z</time>
</trkpt>
<trkpt lat="46.0266600" lon="10.3626530">
	<ele>779.80</ele>
	<time>2024-07-24T12:07:58.000Z</time>
</trkpt>
<trkpt lat="46.0266730" lon="10.3626420">
	<ele>779.40</ele>
	<time>2024-07-24T12:07:59.000Z</time>
</trkpt>
<trkpt lat="46.0266760" lon="10.3626160">
	<ele>779.20</ele>
	<time>2024-07-24T12:08:00.000Z</time>
</trkpt>
<trkpt lat="46.0266810" lon="10.3626010">
	<ele>779.00</ele>
	<time>2024-07-24T12:08:01.000Z</time>
</trkpt>
<trkpt lat="46.0266820" lon="10.3625840">
	<ele>778.80</ele>
	<time>2024-07-24T12:08:02.000Z</time>
</trkpt>
<trkpt lat="46.0266810" lon="10.3625660">
	<ele>778.80</ele>
	<time>2024-07-24T12:08:03.000Z</time>
</trkpt>
<trkpt lat="46.0266910" lon="10.3625610">
	<ele>778.80</ele>
	<time>2024-07-24T12:08:04.000Z</time>
</trkpt>
<trkpt lat="46.0267010" lon="10.3625530">
	<ele>778.80</ele>
	<time>2024-07-24T12:08:05.000Z</time>
</trkpt>
<trkpt lat="46.0267100" lon="10.3625410">
	<ele>778.60</ele>
	<time>2024-07-24T12:08:06.000Z</time>
</trkpt>
<trkpt lat="46.0267210" lon="10.3625270">
	<ele>778.40</ele>
	<time>2024-07-24T12:08:07.000Z</time>
</trkpt>
<trkpt lat="46.0267290" lon="10.3625090">
	<ele>778.00</ele>
	<time>2024-07-24T12:08:08.000Z</time>
</trkpt>
<trkpt lat="46.0267290" lon="10.3624830">
	<ele>778.00</ele>
	<time>2024-07-24T12:08:09.000Z</time>
</trkpt>
<trkpt lat="46.0267360" lon="10.3624650">
	<ele>777.80</ele>
	<time>2024-07-24T12:08:10.000Z</time>
</trkpt>
<trkpt lat="46.0267430" lon="10.3624460">
	<ele>777.60</ele>
	<time>2024-07-24T12:08:11.000Z</time>
</trkpt>
<trkpt lat="46.0267460" lon="10.3624180">
	<ele>777.40</ele>
	<time>2024-07-24T12:08:12.000Z</time>
</trkpt>
<trkpt lat="46.0267570" lon="10.3624070">
	<ele>777.20</ele>
	<time>2024-07-24T12:08:13.000Z</time>
</trkpt>
<trkpt lat="46.0267610" lon="10.3623920">
	<ele>777.00</ele>
	<time>2024-07-24T12:08:14.000Z</time>
</trkpt>
<trkpt lat="46.0267660" lon="10.3623730">
	<ele>777.00</ele>
	<time>2024-07-24T12:08:15.000Z</time>
</trkpt>
<trkpt lat="46.0267670" lon="10.3623510">
	<ele>776.80</ele>
	<time>2024-07-24T12:08:16.000Z</time>
</trkpt>
<trkpt lat="46.0267700" lon="10.3623290">
	<ele>776.60</ele>
	<time>2024-07-24T12:08:17.000Z</time>
</trkpt>
<trkpt lat="46.0267750" lon="10.3623120">
	<ele>776.40</ele>
	<time>2024-07-24T12:08:18.000Z</time>
</trkpt>
<trkpt lat="46.0267770" lon="10.3622920">
	<ele>776.40</ele>
	<time>2024-07-24T12:08:19.000Z</time>
</trkpt>
<trkpt lat="46.0267820" lon="10.3622740">
	<ele>776.20</ele>
	<time>2024-07-24T12:08:20.000Z</time>
</trkpt>
<trkpt lat="46.0267870" lon="10.3622570">
	<ele>776.00</ele>
	<time>2024-07-24T12:08:21.000Z</time>
</trkpt>
<trkpt lat="46.0267860" lon="10.3622410">
	<ele>776.00</ele>
	<time>2024-07-24T12:08:22.000Z</time>
</trkpt>
<trkpt lat="46.0267780" lon="10.3622210">
	<ele>775.80</ele>
	<time>2024-07-24T12:08:23.000Z</time>
</trkpt>
<trkpt lat="46.0267750" lon="10.3621980">
	<ele>775.60</ele>
	<time>2024-07-24T12:08:24.000Z</time>
</trkpt>
<trkpt lat="46.0267700" lon="10.3621710">
	<ele>775.60</ele>
	<time>2024-07-24T12:08:25.000Z</time>
</trkpt>
<trkpt lat="46.0267660" lon="10.3621460">
	<ele>775.40</ele>
	<time>2024-07-24T12:08:26.000Z</time>
</trkpt>
<trkpt lat="46.0267630" lon="10.3621200">
	<ele>775.20</ele>
	<time>2024-07-24T12:08:27.000Z</time>
</trkpt>
<trkpt lat="46.0267590" lon="10.3620990">
	<ele>775.20</ele>
	<time>2024-07-24T12:08:28.000Z</time>
</trkpt>
<trkpt lat="46.0267610" lon="10.3620770">
	<ele>775.00</ele>
	<time>2024-07-24T12:08:29.000Z</time>
</trkpt>
<trkpt lat="46.0267580" lon="10.3620540">
	<ele>774.80</ele>
	<time>2024-07-24T12:08:30.000Z</time>
</trkpt>
<trkpt lat="46.0267500" lon="10.3620190">
	<ele>774.80</ele>
	<time>2024-07-24T12:08:31.000Z</time>
</trkpt>
<trkpt lat="46.0267450" lon="10.3619930">
	<ele>774.80</ele>
	<time>2024-07-24T12:08:32.000Z</time>
</trkpt>
<trkpt lat="46.0267420" lon="10.3619740">
	<ele>774.80</ele>
	<time>2024-07-24T12:08:33.000Z</time>
</trkpt>
<trkpt lat="46.0267430" lon="10.3619610">
	<ele>774.60</ele>
	<time>2024-07-24T12:08:34.000Z</time>
</trkpt>
<trkpt lat="46.0267450" lon="10.3619470">
	<ele>774.60</ele>
	<time>2024-07-24T12:08:35.000Z</time>
</trkpt>
<trkpt lat="46.0267440" lon="10.3619330">
	<ele>774.60</ele>
	<time>2024-07-24T12:08:36.000Z</time>
</trkpt>
<trkpt lat="46.0267400" lon="10.3619160">
	<ele>774.60</ele>
	<time>2024-07-24T12:08:37.000Z</time>
</trkpt>
<trkpt lat="46.0267340" lon="10.3618970">
	<ele>774.40</ele>
	<time>2024-07-24T12:08:38.000Z</time>
</trkpt>
<trkpt lat="46.0267280" lon="10.3618770">
	<ele>774.20</ele>
	<time>2024-07-24T12:08:39.000Z</time>
</trkpt>
<trkpt lat="46.0267270" lon="10.3618590">
	<ele>774.20</ele>
	<time>2024-07-24T12:08:40.000Z</time>
</trkpt>
<trkpt lat="46.0267250" lon="10.3618410">
	<ele>774.00</ele>
	<time>2024-07-24T12:08:41.000Z</time>
</trkpt>
<trkpt lat="46.0267230" lon="10.3618220">
	<ele>774.00</ele>
	<time>2024-07-24T12:08:42.000Z</time>
</trkpt>
<trkpt lat="46.0267180" lon="10.3618010">
	<ele>774.00</ele>
	<time>2024-07-24T12:08:43.000Z</time>
</trkpt>
<trkpt lat="46.0267070" lon="10.3617850">
	<ele>774.00</ele>
	<time>2024-07-24T12:08:44.000Z</time>
</trkpt>
<trkpt lat="46.0266980" lon="10.3617730">
	<ele>774.00</ele>
	<time>2024-07-24T12:08:45.000Z</time>
</trkpt>
<trkpt lat="46.0266880" lon="10.3617630">
	<ele>774.00</ele>
	<time>2024-07-24T12:08:46.000Z</time>
</trkpt>
<trkpt lat="46.0266740" lon="10.3617540">
	<ele>774.00</ele>
	<time>2024-07-24T12:08:47.000Z</time>
</trkpt>
<trkpt lat="46.0266600" lon="10.3617460">
	<ele>774.20</ele>
	<time>2024-07-24T12:08:48.000Z</time>
</trkpt>
<trkpt lat="46.0266490" lon="10.3617370">
	<ele>774.20</ele>
	<time>2024-07-24T12:08:49.000Z</time>
</trkpt>
</trkseg>
</trk>
</gpx>
